<?xml version="1.0" encoding="utf-8" standalone="yes"?>
<gpx version="1.1" creator="Locus Map, Android"
 xmlns="http://www.topografix.com/GPX/1/1"
 xmlns:xsi="http://www.w3.org/2001/XMLSchema-instance"
 xsi:schemaLocation="http://www.topografix.com/GPX/1/1 http://www.topografix.com/GPX/1/1/gpx.xsd"
 xmlns:gpxx="http://www.garmin.com/xmlschemas/GpxExtensions/v3"
 xmlns:gpxtrkx="http://www.garmin.com/xmlschemas/TrackStatsExtension/v1"
 xmlns:gpxtpx="http://www.garmin.com/xmlschemas/TrackPointExtension/v2"
 xmlns:locus="http://www.locusmap.eu">
	<metadata>
		<desc>File with points/tracks from Locus Map Classic/3.70.3</desc>
		<time>2023-11-26T18:56:27.502Z</time>
	</metadata>
<trk>
<name>Monte Golla e Matto di Golla</name>
	<extensions>
		<line xmlns="http://www.topografix.com/GPX/gpx_style/0/2">
			<color>0000FF</color>
			<opacity>0.59</opacity>
			<width>6.0</width>
			<extensions>
				<locus:lsColorBase>#960000FF</locus:lsColorBase>
				<locus:lsWidth>6.0</locus:lsWidth>
				<locus:lsUnits>PIXELS</locus:lsUnits>
			</extensions>
		</line>
		<locus:activity>hiking</locus:activity>
	</extensions>
<trkseg>
<trkpt lat="45.8763530" lon="9.8425430">
	<ele>1091.60</ele>
	<time>2023-11-18T07:10:52.000Z</time>
</trkpt>
<trkpt lat="45.8763530" lon="9.8425430">
	<ele>1091.60</ele>
	<time>2023-11-18T07:10:53.000Z</time>
</trkpt>
<trkpt lat="45.8763530" lon="9.8425430">
	<ele>1091.60</ele>
	<time>2023-11-18T07:10:54.000Z</time>
</trkpt>
<trkpt lat="45.8763540" lon="9.8425430">
	<ele>1091.60</ele>
	<time>2023-11-18T07:10:55.000Z</time>
</trkpt>
<trkpt lat="45.8763540" lon="9.8425470">
	<ele>1091.60</ele>
	<time>2023-11-18T07:10:56.000Z</time>
</trkpt>
<trkpt lat="45.8763540" lon="9.8425510">
	<ele>1091.60</ele>
	<time>2023-11-18T07:10:57.000Z</time>
</trkpt>
<trkpt lat="45.8763550" lon="9.8425520">
	<ele>1091.60</ele>
	<time>2023-11-18T07:10:58.000Z</time>
</trkpt>
<trkpt lat="45.8763570" lon="9.8425520">
	<ele>1091.60</ele>
	<time>2023-11-18T07:10:59.000Z</time>
</trkpt>
<trkpt lat="45.8763600" lon="9.8425520">
	<ele>1091.60</ele>
	<time>2023-11-18T07:11:00.000Z</time>
</trkpt>
<trkpt lat="45.8763640" lon="9.8425520">
	<ele>1091.60</ele>
	<time>2023-11-18T07:11:01.000Z</time>
</trkpt>
<trkpt lat="45.8763640" lon="9.8425520">
	<ele>1091.60</ele>
	<time>2023-11-18T07:11:02.000Z</time>
</trkpt>
<trkpt lat="45.8763650" lon="9.8425520">
	<ele>1091.60</ele>
	<time>2023-11-18T07:11:03.000Z</time>
</trkpt>
<trkpt lat="45.8763650" lon="9.8425520">
	<ele>1091.60</ele>
	<time>2023-11-18T07:11:04.000Z</time>
</trkpt>
<trkpt lat="45.8763650" lon="9.8425520">
	<ele>1091.60</ele>
	<time>2023-11-18T07:11:05.000Z</time>
</trkpt>
<trkpt lat="45.8763660" lon="9.8425520">
	<ele>1091.60</ele>
	<time>2023-11-18T07:11:06.000Z</time>
</trkpt>
<trkpt lat="45.8763660" lon="9.8425520">
	<ele>1091.60</ele>
	<time>2023-11-18T07:11:07.000Z</time>
</trkpt>
<trkpt lat="45.8763690" lon="9.8425500">
	<ele>1091.60</ele>
	<time>2023-11-18T07:11:08.000Z</time>
</trkpt>
<trkpt lat="45.8763820" lon="9.8425450">
	<ele>1091.60</ele>
	<time>2023-11-18T07:11:09.000Z</time>
</trkpt>
<trkpt lat="45.8763940" lon="9.8425360">
	<ele>1091.60</ele>
	<time>2023-11-18T07:11:10.000Z</time>
</trkpt>
<trkpt lat="45.8764070" lon="9.8425270">
	<ele>1091.60</ele>
	<time>2023-11-18T07:11:11.000Z</time>
</trkpt>
<trkpt lat="45.8764190" lon="9.8425180">
	<ele>1091.60</ele>
	<time>2023-11-18T07:11:12.000Z</time>
</trkpt>
<trkpt lat="45.8764300" lon="9.8425080">
	<ele>1091.60</ele>
	<time>2023-11-18T07:11:13.000Z</time>
</trkpt>
<trkpt lat="45.8764430" lon="9.8425020">
	<ele>1091.60</ele>
	<time>2023-11-18T07:11:14.000Z</time>
</trkpt>
<trkpt lat="45.8764540" lon="9.8424970">
	<ele>1091.60</ele>
	<time>2023-11-18T07:11:15.000Z</time>
</trkpt>
<trkpt lat="45.8764650" lon="9.8424870">
	<ele>1091.60</ele>
	<time>2023-11-18T07:11:16.000Z</time>
</trkpt>
<trkpt lat="45.8764790" lon="9.8424780">
	<ele>1091.60</ele>
	<time>2023-11-18T07:11:17.000Z</time>
</trkpt>
<trkpt lat="45.8764950" lon="9.8424670">
	<ele>1091.60</ele>
	<time>2023-11-18T07:11:18.000Z</time>
</trkpt>
<trkpt lat="45.8765120" lon="9.8424550">
	<ele>1092.20</ele>
	<time>2023-11-18T07:11:19.000Z</time>
</trkpt>
<trkpt lat="45.8765270" lon="9.8424400">
	<ele>1092.60</ele>
	<time>2023-11-18T07:11:20.000Z</time>
</trkpt>
<trkpt lat="45.8765420" lon="9.8424250">
	<ele>1093.00</ele>
	<time>2023-11-18T07:11:21.000Z</time>
</trkpt>
<trkpt lat="45.8765530" lon="9.8424100">
	<ele>1093.20</ele>
	<time>2023-11-18T07:11:22.000Z</time>
</trkpt>
<trkpt lat="45.8765640" lon="9.8423960">
	<ele>1093.40</ele>
	<time>2023-11-18T07:11:23.000Z</time>
</trkpt>
<trkpt lat="45.8765750" lon="9.8423830">
	<ele>1093.60</ele>
	<time>2023-11-18T07:11:24.000Z</time>
</trkpt>
<trkpt lat="45.8765860" lon="9.8423710">
	<ele>1093.60</ele>
	<time>2023-11-18T07:11:25.000Z</time>
</trkpt>
<trkpt lat="45.8765920" lon="9.8423660">
	<ele>1093.80</ele>
	<time>2023-11-18T07:11:26.000Z</time>
</trkpt>
<trkpt lat="45.8765980" lon="9.8423610">
	<ele>1093.80</ele>
	<time>2023-11-18T07:11:27.000Z</time>
</trkpt>
<trkpt lat="45.8766070" lon="9.8423550">
	<ele>1094.00</ele>
	<time>2023-11-18T07:11:28.000Z</time>
</trkpt>
<trkpt lat="45.8766150" lon="9.8423480">
	<ele>1094.00</ele>
	<time>2023-11-18T07:11:29.000Z</time>
</trkpt>
<trkpt lat="45.8766240" lon="9.8423410">
	<ele>1094.20</ele>
	<time>2023-11-18T07:11:30.000Z</time>
</trkpt>
<trkpt lat="45.8766330" lon="9.8423320">
	<ele>1094.20</ele>
	<time>2023-11-18T07:11:31.000Z</time>
</trkpt>
<trkpt lat="45.8766390" lon="9.8423260">
	<ele>1094.40</ele>
	<time>2023-11-18T07:11:32.000Z</time>
</trkpt>
<trkpt lat="45.8766410" lon="9.8423220">
	<ele>1094.40</ele>
	<time>2023-11-18T07:11:33.000Z</time>
</trkpt>
<trkpt lat="45.8766450" lon="9.8423190">
	<ele>1094.40</ele>
	<time>2023-11-18T07:11:34.000Z</time>
</trkpt>
<trkpt lat="45.8766460" lon="9.8423170">
	<ele>1094.40</ele>
	<time>2023-11-18T07:11:35.000Z</time>
</trkpt>
<trkpt lat="45.8766460" lon="9.8423160">
	<ele>1094.40</ele>
	<time>2023-11-18T07:11:36.000Z</time>
</trkpt>
<trkpt lat="45.8766430" lon="9.8423170">
	<ele>1094.40</ele>
	<time>2023-11-18T07:11:37.000Z</time>
</trkpt>
<trkpt lat="45.8766430" lon="9.8423160">
	<ele>1094.40</ele>
	<time>2023-11-18T07:11:38.000Z</time>
</trkpt>
<trkpt lat="45.8766450" lon="9.8423140">
	<ele>1094.40</ele>
	<time>2023-11-18T07:11:39.000Z</time>
</trkpt>
<trkpt lat="45.8766460" lon="9.8423100">
	<ele>1094.40</ele>
	<time>2023-11-18T07:11:40.000Z</time>
</trkpt>
<trkpt lat="45.8766470" lon="9.8423050">
	<ele>1094.60</ele>
	<time>2023-11-18T07:11:41.000Z</time>
</trkpt>
<trkpt lat="45.8766490" lon="9.8423010">
	<ele>1094.60</ele>
	<time>2023-11-18T07:11:42.000Z</time>
</trkpt>
<trkpt lat="45.8766510" lon="9.8422990">
	<ele>1094.60</ele>
	<time>2023-11-18T07:11:43.000Z</time>
</trkpt>
<trkpt lat="45.8766580" lon="9.8422920">
	<ele>1094.80</ele>
	<time>2023-11-18T07:11:44.000Z</time>
</trkpt>
<trkpt lat="45.8766660" lon="9.8422870">
	<ele>1094.80</ele>
	<time>2023-11-18T07:11:45.000Z</time>
</trkpt>
<trkpt lat="45.8766680" lon="9.8422870">
	<ele>1094.80</ele>
	<time>2023-11-18T07:11:46.000Z</time>
</trkpt>
<trkpt lat="45.8766690" lon="9.8422920">
	<ele>1094.80</ele>
	<time>2023-11-18T07:11:47.000Z</time>
</trkpt>
<trkpt lat="45.8766710" lon="9.8422960">
	<ele>1094.80</ele>
	<time>2023-11-18T07:11:48.000Z</time>
</trkpt>
<trkpt lat="45.8766750" lon="9.8422940">
	<ele>1094.80</ele>
	<time>2023-11-18T07:11:49.000Z</time>
</trkpt>
<trkpt lat="45.8766800" lon="9.8422940">
	<ele>1094.80</ele>
	<time>2023-11-18T07:11:50.000Z</time>
</trkpt>
<trkpt lat="45.8766830" lon="9.8422920">
	<ele>1094.80</ele>
	<time>2023-11-18T07:11:51.000Z</time>
</trkpt>
<trkpt lat="45.8766890" lon="9.8422920">
	<ele>1094.80</ele>
	<time>2023-11-18T07:11:52.000Z</time>
</trkpt>
<trkpt lat="45.8766950" lon="9.8422890">
	<ele>1094.80</ele>
	<time>2023-11-18T07:11:53.000Z</time>
</trkpt>
<trkpt lat="45.8767010" lon="9.8422860">
	<ele>1095.00</ele>
	<time>2023-11-18T07:11:54.000Z</time>
</trkpt>
<trkpt lat="45.8767080" lon="9.8422880">
	<ele>1095.00</ele>
	<time>2023-11-18T07:11:55.000Z</time>
</trkpt>
<trkpt lat="45.8767160" lon="9.8422870">
	<ele>1095.20</ele>
	<time>2023-11-18T07:11:56.000Z</time>
</trkpt>
<trkpt lat="45.8767270" lon="9.8423010">
	<ele>1095.20</ele>
	<time>2023-11-18T07:11:57.000Z</time>
</trkpt>
<trkpt lat="45.8767380" lon="9.8423180">
	<ele>1095.40</ele>
	<time>2023-11-18T07:11:58.000Z</time>
</trkpt>
<trkpt lat="45.8767470" lon="9.8423190">
	<ele>1095.60</ele>
	<time>2023-11-18T07:11:59.000Z</time>
</trkpt>
<trkpt lat="45.8767530" lon="9.8423150">
	<ele>1095.60</ele>
	<time>2023-11-18T07:12:00.000Z</time>
</trkpt>
<trkpt lat="45.8767580" lon="9.8423090">
	<ele>1095.80</ele>
	<time>2023-11-18T07:12:01.000Z</time>
</trkpt>
<trkpt lat="45.8767660" lon="9.8422950">
	<ele>1096.00</ele>
	<time>2023-11-18T07:12:02.000Z</time>
</trkpt>
<trkpt lat="45.8767760" lon="9.8422800">
	<ele>1096.00</ele>
	<time>2023-11-18T07:12:03.000Z</time>
</trkpt>
<trkpt lat="45.8767870" lon="9.8422640">
	<ele>1096.20</ele>
	<time>2023-11-18T07:12:04.000Z</time>
</trkpt>
<trkpt lat="45.8767960" lon="9.8422540">
	<ele>1096.40</ele>
	<time>2023-11-18T07:12:05.000Z</time>
</trkpt>
<trkpt lat="45.8768040" lon="9.8422460">
	<ele>1096.40</ele>
	<time>2023-11-18T07:12:06.000Z</time>
</trkpt>
<trkpt lat="45.8768120" lon="9.8422370">
	<ele>1096.60</ele>
	<time>2023-11-18T07:12:07.000Z</time>
</trkpt>
<trkpt lat="45.8768140" lon="9.8422100">
	<ele>1096.80</ele>
	<time>2023-11-18T07:12:08.000Z</time>
</trkpt>
<trkpt lat="45.8768180" lon="9.8421910">
	<ele>1096.80</ele>
	<time>2023-11-18T07:12:09.000Z</time>
</trkpt>
<trkpt lat="45.8768210" lon="9.8421680">
	<ele>1097.00</ele>
	<time>2023-11-18T07:12:10.000Z</time>
</trkpt>
<trkpt lat="45.8768260" lon="9.8421420">
	<ele>1097.00</ele>
	<time>2023-11-18T07:12:11.000Z</time>
</trkpt>
<trkpt lat="45.8768330" lon="9.8421240">
	<ele>1097.20</ele>
	<time>2023-11-18T07:12:12.000Z</time>
</trkpt>
<trkpt lat="45.8768430" lon="9.8420990">
	<ele>1097.40</ele>
	<time>2023-11-18T07:12:13.000Z</time>
</trkpt>
<trkpt lat="45.8768530" lon="9.8420870">
	<ele>1097.60</ele>
	<time>2023-11-18T07:12:14.000Z</time>
</trkpt>
<trkpt lat="45.8768650" lon="9.8420790">
	<ele>1097.80</ele>
	<time>2023-11-18T07:12:15.000Z</time>
</trkpt>
<trkpt lat="45.8768760" lon="9.8420700">
	<ele>1097.80</ele>
	<time>2023-11-18T07:12:16.000Z</time>
</trkpt>
<trkpt lat="45.8768860" lon="9.8420670">
	<ele>1097.80</ele>
	<time>2023-11-18T07:12:17.000Z</time>
</trkpt>
<trkpt lat="45.8768950" lon="9.8420700">
	<ele>1098.00</ele>
	<time>2023-11-18T07:12:18.000Z</time>
</trkpt>
<trkpt lat="45.8769040" lon="9.8420610">
	<ele>1098.00</ele>
	<time>2023-11-18T07:12:19.000Z</time>
</trkpt>
<trkpt lat="45.8769170" lon="9.8420490">
	<ele>1098.00</ele>
	<time>2023-11-18T07:12:20.000Z</time>
</trkpt>
<trkpt lat="45.8769310" lon="9.8420380">
	<ele>1098.20</ele>
	<time>2023-11-18T07:12:21.000Z</time>
</trkpt>
<trkpt lat="45.8769430" lon="9.8420280">
	<ele>1098.20</ele>
	<time>2023-11-18T07:12:22.000Z</time>
</trkpt>
<trkpt lat="45.8769530" lon="9.8420020">
	<ele>1098.20</ele>
	<time>2023-11-18T07:12:23.000Z</time>
</trkpt>
<trkpt lat="45.8769620" lon="9.8419630">
	<ele>1098.20</ele>
	<time>2023-11-18T07:12:24.000Z</time>
</trkpt>
<trkpt lat="45.8769700" lon="9.8419290">
	<ele>1098.20</ele>
	<time>2023-11-18T07:12:25.000Z</time>
</trkpt>
<trkpt lat="45.8769820" lon="9.8419030">
	<ele>1098.20</ele>
	<time>2023-11-18T07:12:26.000Z</time>
</trkpt>
<trkpt lat="45.8769920" lon="9.8418740">
	<ele>1098.40</ele>
	<time>2023-11-18T07:12:27.000Z</time>
</trkpt>
<trkpt lat="45.8769970" lon="9.8418570">
	<ele>1098.40</ele>
	<time>2023-11-18T07:12:28.000Z</time>
</trkpt>
<trkpt lat="45.8770040" lon="9.8418510">
	<ele>1098.60</ele>
	<time>2023-11-18T07:12:29.000Z</time>
</trkpt>
<trkpt lat="45.8770090" lon="9.8418490">
	<ele>1098.80</ele>
	<time>2023-11-18T07:12:30.000Z</time>
</trkpt>
<trkpt lat="45.8770140" lon="9.8418440">
	<ele>1098.80</ele>
	<time>2023-11-18T07:12:31.000Z</time>
</trkpt>
<trkpt lat="45.8770200" lon="9.8418330">
	<ele>1099.00</ele>
	<time>2023-11-18T07:12:32.000Z</time>
</trkpt>
<trkpt lat="45.8770250" lon="9.8418170">
	<ele>1099.20</ele>
	<time>2023-11-18T07:12:33.000Z</time>
</trkpt>
<trkpt lat="45.8770300" lon="9.8418030">
	<ele>1099.40</ele>
	<time>2023-11-18T07:12:34.000Z</time>
</trkpt>
<trkpt lat="45.8770350" lon="9.8417900">
	<ele>1099.40</ele>
	<time>2023-11-18T07:12:35.000Z</time>
</trkpt>
<trkpt lat="45.8770390" lon="9.8417750">
	<ele>1099.60</ele>
	<time>2023-11-18T07:12:36.000Z</time>
</trkpt>
<trkpt lat="45.8770420" lon="9.8417540">
	<ele>1099.60</ele>
	<time>2023-11-18T07:12:37.000Z</time>
</trkpt>
<trkpt lat="45.8770370" lon="9.8417370">
	<ele>1099.80</ele>
	<time>2023-11-18T07:12:38.000Z</time>
</trkpt>
<trkpt lat="45.8770440" lon="9.8417250">
	<ele>1100.00</ele>
	<time>2023-11-18T07:12:39.000Z</time>
</trkpt>
<trkpt lat="45.8770490" lon="9.8417090">
	<ele>1100.20</ele>
	<time>2023-11-18T07:12:40.000Z</time>
</trkpt>
<trkpt lat="45.8770530" lon="9.8417020">
	<ele>1100.20</ele>
	<time>2023-11-18T07:12:41.000Z</time>
</trkpt>
<trkpt lat="45.8770570" lon="9.8416930">
	<ele>1100.40</ele>
	<time>2023-11-18T07:12:42.000Z</time>
</trkpt>
<trkpt lat="45.8770630" lon="9.8416790">
	<ele>1100.60</ele>
	<time>2023-11-18T07:12:43.000Z</time>
</trkpt>
<trkpt lat="45.8770710" lon="9.8416600">
	<ele>1100.60</ele>
	<time>2023-11-18T07:12:44.000Z</time>
</trkpt>
<trkpt lat="45.8770810" lon="9.8416390">
	<ele>1100.80</ele>
	<time>2023-11-18T07:12:45.000Z</time>
</trkpt>
<trkpt lat="45.8770880" lon="9.8416230">
	<ele>1101.00</ele>
	<time>2023-11-18T07:12:46.000Z</time>
</trkpt>
<trkpt lat="45.8770970" lon="9.8416030">
	<ele>1101.20</ele>
	<time>2023-11-18T07:12:47.000Z</time>
</trkpt>
<trkpt lat="45.8771060" lon="9.8415810">
	<ele>1101.40</ele>
	<time>2023-11-18T07:12:48.000Z</time>
</trkpt>
<trkpt lat="45.8771160" lon="9.8415580">
	<ele>1101.40</ele>
	<time>2023-11-18T07:12:49.000Z</time>
</trkpt>
<trkpt lat="45.8771250" lon="9.8415430">
	<ele>1101.60</ele>
	<time>2023-11-18T07:12:50.000Z</time>
</trkpt>
<trkpt lat="45.8771340" lon="9.8415250">
	<ele>1101.80</ele>
	<time>2023-11-18T07:12:51.000Z</time>
</trkpt>
<trkpt lat="45.8771400" lon="9.8415030">
	<ele>1101.80</ele>
	<time>2023-11-18T07:12:52.000Z</time>
</trkpt>
<trkpt lat="45.8771440" lon="9.8414730">
	<ele>1101.80</ele>
	<time>2023-11-18T07:12:53.000Z</time>
</trkpt>
<trkpt lat="45.8771470" lon="9.8414460">
	<ele>1101.80</ele>
	<time>2023-11-18T07:12:54.000Z</time>
</trkpt>
<trkpt lat="45.8771530" lon="9.8414200">
	<ele>1102.00</ele>
	<time>2023-11-18T07:12:55.000Z</time>
</trkpt>
<trkpt lat="45.8771550" lon="9.8413870">
	<ele>1102.20</ele>
	<time>2023-11-18T07:12:56.000Z</time>
</trkpt>
<trkpt lat="45.8771580" lon="9.8413580">
	<ele>1102.40</ele>
	<time>2023-11-18T07:12:57.000Z</time>
</trkpt>
<trkpt lat="45.8771640" lon="9.8413320">
	<ele>1102.40</ele>
	<time>2023-11-18T07:12:58.000Z</time>
</trkpt>
<trkpt lat="45.8771670" lon="9.8412930">
	<ele>1102.60</ele>
	<time>2023-11-18T07:12:59.000Z</time>
</trkpt>
<trkpt lat="45.8771740" lon="9.8412640">
	<ele>1102.60</ele>
	<time>2023-11-18T07:13:00.000Z</time>
</trkpt>
<trkpt lat="45.8771810" lon="9.8412360">
	<ele>1102.80</ele>
	<time>2023-11-18T07:13:01.000Z</time>
</trkpt>
<trkpt lat="45.8771880" lon="9.8412170">
	<ele>1103.00</ele>
	<time>2023-11-18T07:13:02.000Z</time>
</trkpt>
<trkpt lat="45.8771950" lon="9.8412120">
	<ele>1103.20</ele>
	<time>2023-11-18T07:13:03.000Z</time>
</trkpt>
<trkpt lat="45.8772050" lon="9.8412060">
	<ele>1103.40</ele>
	<time>2023-11-18T07:13:04.000Z</time>
</trkpt>
<trkpt lat="45.8772180" lon="9.8412070">
	<ele>1103.40</ele>
	<time>2023-11-18T07:13:05.000Z</time>
</trkpt>
<trkpt lat="45.8772240" lon="9.8412130">
	<ele>1103.60</ele>
	<time>2023-11-18T07:13:06.000Z</time>
</trkpt>
<trkpt lat="45.8772320" lon="9.8412210">
	<ele>1103.60</ele>
	<time>2023-11-18T07:13:07.000Z</time>
</trkpt>
<trkpt lat="45.8772420" lon="9.8412210">
	<ele>1103.80</ele>
	<time>2023-11-18T07:13:08.000Z</time>
</trkpt>
<trkpt lat="45.8772500" lon="9.8412250">
	<ele>1103.80</ele>
	<time>2023-11-18T07:13:09.000Z</time>
</trkpt>
<trkpt lat="45.8772620" lon="9.8412240">
	<ele>1104.00</ele>
	<time>2023-11-18T07:13:10.000Z</time>
</trkpt>
<trkpt lat="45.8772730" lon="9.8412210">
	<ele>1104.20</ele>
	<time>2023-11-18T07:13:11.000Z</time>
</trkpt>
<trkpt lat="45.8772830" lon="9.8412030">
	<ele>1104.40</ele>
	<time>2023-11-18T07:13:12.000Z</time>
</trkpt>
<trkpt lat="45.8772910" lon="9.8411830">
	<ele>1104.60</ele>
	<time>2023-11-18T07:13:13.000Z</time>
</trkpt>
<trkpt lat="45.8773000" lon="9.8411600">
	<ele>1104.80</ele>
	<time>2023-11-18T07:13:14.000Z</time>
</trkpt>
<trkpt lat="45.8773070" lon="9.8411400">
	<ele>1104.80</ele>
	<time>2023-11-18T07:13:15.000Z</time>
</trkpt>
<trkpt lat="45.8773140" lon="9.8411270">
	<ele>1105.00</ele>
	<time>2023-11-18T07:13:16.000Z</time>
</trkpt>
<trkpt lat="45.8773210" lon="9.8411120">
	<ele>1105.00</ele>
	<time>2023-11-18T07:13:17.000Z</time>
</trkpt>
<trkpt lat="45.8773270" lon="9.8411020">
	<ele>1105.20</ele>
	<time>2023-11-18T07:13:18.000Z</time>
</trkpt>
<trkpt lat="45.8773330" lon="9.8410900">
	<ele>1105.20</ele>
	<time>2023-11-18T07:13:19.000Z</time>
</trkpt>
<trkpt lat="45.8773410" lon="9.8410810">
	<ele>1105.40</ele>
	<time>2023-11-18T07:13:20.000Z</time>
</trkpt>
<trkpt lat="45.8773480" lon="9.8410770">
	<ele>1105.60</ele>
	<time>2023-11-18T07:13:21.000Z</time>
</trkpt>
<trkpt lat="45.8773520" lon="9.8410690">
	<ele>1105.60</ele>
	<time>2023-11-18T07:13:22.000Z</time>
</trkpt>
<trkpt lat="45.8773520" lon="9.8410770">
	<ele>1105.60</ele>
	<time>2023-11-18T07:13:23.000Z</time>
</trkpt>
<trkpt lat="45.8773530" lon="9.8410760">
	<ele>1105.60</ele>
	<time>2023-11-18T07:13:24.000Z</time>
</trkpt>
<trkpt lat="45.8773520" lon="9.8410760">
	<ele>1105.80</ele>
	<time>2023-11-18T07:13:25.000Z</time>
</trkpt>
<trkpt lat="45.8773520" lon="9.8410760">
	<ele>1105.80</ele>
	<time>2023-11-18T07:13:26.000Z</time>
</trkpt>
<trkpt lat="45.8773510" lon="9.8410750">
	<ele>1105.80</ele>
	<time>2023-11-18T07:13:27.000Z</time>
</trkpt>
<trkpt lat="45.8773500" lon="9.8410740">
	<ele>1105.80</ele>
	<time>2023-11-18T07:13:28.000Z</time>
</trkpt>
<trkpt lat="45.8773510" lon="9.8410720">
	<ele>1105.80</ele>
	<time>2023-11-18T07:13:29.000Z</time>
</trkpt>
<trkpt lat="45.8773510" lon="9.8410730">
	<ele>1106.00</ele>
	<time>2023-11-18T07:13:30.000Z</time>
</trkpt>
<trkpt lat="45.8773500" lon="9.8410750">
	<ele>1106.00</ele>
	<time>2023-11-18T07:13:31.000Z</time>
</trkpt>
<trkpt lat="45.8773500" lon="9.8410750">
	<ele>1106.00</ele>
	<time>2023-11-18T07:13:32.000Z</time>
</trkpt>
<trkpt lat="45.8773500" lon="9.8410750">
	<ele>1106.00</ele>
	<time>2023-11-18T07:13:33.000Z</time>
</trkpt>
<trkpt lat="45.8773500" lon="9.8410750">
	<ele>1106.00</ele>
	<time>2023-11-18T07:13:34.000Z</time>
</trkpt>
<trkpt lat="45.8773500" lon="9.8410750">
	<ele>1106.00</ele>
	<time>2023-11-18T07:13:35.000Z</time>
</trkpt>
<trkpt lat="45.8773500" lon="9.8410750">
	<ele>1106.00</ele>
	<time>2023-11-18T07:13:36.000Z</time>
</trkpt>
<trkpt lat="45.8773500" lon="9.8410750">
	<ele>1106.00</ele>
	<time>2023-11-18T07:13:37.000Z</time>
</trkpt>
<trkpt lat="45.8773500" lon="9.8410750">
	<ele>1106.20</ele>
	<time>2023-11-18T07:13:38.000Z</time>
</trkpt>
<trkpt lat="45.8773500" lon="9.8410750">
	<ele>1106.20</ele>
	<time>2023-11-18T07:13:39.000Z</time>
</trkpt>
<trkpt lat="45.8773500" lon="9.8410750">
	<ele>1106.20</ele>
	<time>2023-11-18T07:13:40.000Z</time>
</trkpt>
<trkpt lat="45.8773500" lon="9.8410750">
	<ele>1106.40</ele>
	<time>2023-11-18T07:13:41.000Z</time>
</trkpt>
<trkpt lat="45.8773500" lon="9.8410750">
	<ele>1106.40</ele>
	<time>2023-11-18T07:13:42.000Z</time>
</trkpt>
<trkpt lat="45.8773500" lon="9.8410750">
	<ele>1106.60</ele>
	<time>2023-11-18T07:13:43.000Z</time>
</trkpt>
<trkpt lat="45.8773500" lon="9.8410750">
	<ele>1106.80</ele>
	<time>2023-11-18T07:13:44.000Z</time>
</trkpt>
<trkpt lat="45.8773510" lon="9.8410750">
	<ele>1107.00</ele>
	<time>2023-11-18T07:13:45.000Z</time>
</trkpt>
<trkpt lat="45.8773510" lon="9.8410750">
	<ele>1107.20</ele>
	<time>2023-11-18T07:13:46.000Z</time>
</trkpt>
<trkpt lat="45.8773510" lon="9.8410740">
	<ele>1107.40</ele>
	<time>2023-11-18T07:13:47.000Z</time>
</trkpt>
<trkpt lat="45.8773510" lon="9.8410730">
	<ele>1107.40</ele>
	<time>2023-11-18T07:13:48.000Z</time>
</trkpt>
<trkpt lat="45.8773520" lon="9.8410730">
	<ele>1107.40</ele>
	<time>2023-11-18T07:13:49.000Z</time>
</trkpt>
<trkpt lat="45.8773520" lon="9.8410720">
	<ele>1107.40</ele>
	<time>2023-11-18T07:13:50.000Z</time>
</trkpt>
<trkpt lat="45.8773550" lon="9.8410720">
	<ele>1107.40</ele>
	<time>2023-11-18T07:13:51.000Z</time>
</trkpt>
<trkpt lat="45.8773590" lon="9.8410720">
	<ele>1107.60</ele>
	<time>2023-11-18T07:13:52.000Z</time>
</trkpt>
<trkpt lat="45.8773640" lon="9.8410710">
	<ele>1107.60</ele>
	<time>2023-11-18T07:13:53.000Z</time>
</trkpt>
<trkpt lat="45.8773710" lon="9.8410700">
	<ele>1107.60</ele>
	<time>2023-11-18T07:13:54.000Z</time>
</trkpt>
<trkpt lat="45.8773790" lon="9.8410700">
	<ele>1107.80</ele>
	<time>2023-11-18T07:13:55.000Z</time>
</trkpt>
<trkpt lat="45.8773840" lon="9.8410690">
	<ele>1108.00</ele>
	<time>2023-11-18T07:13:56.000Z</time>
</trkpt>
<trkpt lat="45.8773840" lon="9.8410690">
	<ele>1108.00</ele>
	<time>2023-11-18T07:13:57.000Z</time>
</trkpt>
<trkpt lat="45.8773940" lon="9.8410690">
	<ele>1108.00</ele>
	<time>2023-11-18T07:13:58.000Z</time>
</trkpt>
<trkpt lat="45.8774000" lon="9.8410690">
	<ele>1107.80</ele>
	<time>2023-11-18T07:13:59.000Z</time>
</trkpt>
<trkpt lat="45.8774030" lon="9.8410690">
	<ele>1107.80</ele>
	<time>2023-11-18T07:14:00.000Z</time>
</trkpt>
<trkpt lat="45.8774050" lon="9.8410690">
	<ele>1107.80</ele>
	<time>2023-11-18T07:14:01.000Z</time>
</trkpt>
<trkpt lat="45.8774060" lon="9.8410690">
	<ele>1107.80</ele>
	<time>2023-11-18T07:14:02.000Z</time>
</trkpt>
<trkpt lat="45.8774070" lon="9.8410690">
	<ele>1107.80</ele>
	<time>2023-11-18T07:14:03.000Z</time>
</trkpt>
<trkpt lat="45.8774140" lon="9.8410680">
	<ele>1107.80</ele>
	<time>2023-11-18T07:14:04.000Z</time>
</trkpt>
<trkpt lat="45.8774150" lon="9.8410670">
	<ele>1107.80</ele>
	<time>2023-11-18T07:14:05.000Z</time>
</trkpt>
<trkpt lat="45.8774150" lon="9.8410670">
	<ele>1107.80</ele>
	<time>2023-11-18T07:14:06.000Z</time>
</trkpt>
<trkpt lat="45.8774150" lon="9.8410660">
	<ele>1107.80</ele>
	<time>2023-11-18T07:14:07.000Z</time>
</trkpt>
<trkpt lat="45.8774150" lon="9.8410650">
	<ele>1107.80</ele>
	<time>2023-11-18T07:14:08.000Z</time>
</trkpt>
<trkpt lat="45.8774150" lon="9.8410640">
	<ele>1107.80</ele>
	<time>2023-11-18T07:14:09.000Z</time>
</trkpt>
<trkpt lat="45.8774160" lon="9.8410640">
	<ele>1107.80</ele>
	<time>2023-11-18T07:14:10.000Z</time>
</trkpt>
<trkpt lat="45.8774160" lon="9.8410640">
	<ele>1108.00</ele>
	<time>2023-11-18T07:14:11.000Z</time>
</trkpt>
<trkpt lat="45.8774160" lon="9.8410640">
	<ele>1108.00</ele>
	<time>2023-11-18T07:14:12.000Z</time>
</trkpt>
<trkpt lat="45.8774160" lon="9.8410640">
	<ele>1108.20</ele>
	<time>2023-11-18T07:14:13.000Z</time>
</trkpt>
<trkpt lat="45.8774160" lon="9.8410630">
	<ele>1108.40</ele>
	<time>2023-11-18T07:14:14.000Z</time>
</trkpt>
<trkpt lat="45.8774160" lon="9.8410630">
	<ele>1108.60</ele>
	<time>2023-11-18T07:14:15.000Z</time>
</trkpt>
<trkpt lat="45.8774160" lon="9.8410630">
	<ele>1108.80</ele>
	<time>2023-11-18T07:14:16.000Z</time>
</trkpt>
<trkpt lat="45.8774200" lon="9.8410580">
	<ele>1109.00</ele>
	<time>2023-11-18T07:14:17.000Z</time>
</trkpt>
<trkpt lat="45.8774340" lon="9.8410450">
	<ele>1109.20</ele>
	<time>2023-11-18T07:14:18.000Z</time>
</trkpt>
<trkpt lat="45.8774470" lon="9.8410290">
	<ele>1109.60</ele>
	<time>2023-11-18T07:14:19.000Z</time>
</trkpt>
<trkpt lat="45.8774570" lon="9.8410140">
	<ele>1109.80</ele>
	<time>2023-11-18T07:14:20.000Z</time>
</trkpt>
<trkpt lat="45.8774640" lon="9.8409990">
	<ele>1109.80</ele>
	<time>2023-11-18T07:14:21.000Z</time>
</trkpt>
<trkpt lat="45.8774700" lon="9.8409860">
	<ele>1110.20</ele>
	<time>2023-11-18T07:14:22.000Z</time>
</trkpt>
<trkpt lat="45.8774770" lon="9.8409740">
	<ele>1110.40</ele>
	<time>2023-11-18T07:14:23.000Z</time>
</trkpt>
<trkpt lat="45.8774860" lon="9.8409600">
	<ele>1110.40</ele>
	<time>2023-11-18T07:14:24.000Z</time>
</trkpt>
<trkpt lat="45.8774940" lon="9.8409470">
	<ele>1110.60</ele>
	<time>2023-11-18T07:14:25.000Z</time>
</trkpt>
<trkpt lat="45.8775050" lon="9.8409350">
	<ele>1110.60</ele>
	<time>2023-11-18T07:14:26.000Z</time>
</trkpt>
<trkpt lat="45.8775140" lon="9.8409280">
	<ele>1110.80</ele>
	<time>2023-11-18T07:14:27.000Z</time>
</trkpt>
<trkpt lat="45.8775250" lon="9.8409220">
	<ele>1110.80</ele>
	<time>2023-11-18T07:14:28.000Z</time>
</trkpt>
<trkpt lat="45.8775250" lon="9.8409220">
	<ele>1111.00</ele>
	<time>2023-11-18T07:14:29.000Z</time>
</trkpt>
<trkpt lat="45.8775410" lon="9.8409140">
	<ele>1111.20</ele>
	<time>2023-11-18T07:14:30.000Z</time>
</trkpt>
<trkpt lat="45.8775500" lon="9.8409080">
	<ele>1111.20</ele>
	<time>2023-11-18T07:14:31.000Z</time>
</trkpt>
<trkpt lat="45.8775570" lon="9.8408970">
	<ele>1111.60</ele>
	<time>2023-11-18T07:14:32.000Z</time>
</trkpt>
<trkpt lat="45.8775630" lon="9.8408870">
	<ele>1111.60</ele>
	<time>2023-11-18T07:14:33.000Z</time>
</trkpt>
<trkpt lat="45.8775690" lon="9.8408770">
	<ele>1111.80</ele>
	<time>2023-11-18T07:14:34.000Z</time>
</trkpt>
<trkpt lat="45.8775760" lon="9.8408690">
	<ele>1111.80</ele>
	<time>2023-11-18T07:14:35.000Z</time>
</trkpt>
<trkpt lat="45.8775840" lon="9.8408610">
	<ele>1112.00</ele>
	<time>2023-11-18T07:14:36.000Z</time>
</trkpt>
<trkpt lat="45.8775920" lon="9.8408570">
	<ele>1112.20</ele>
	<time>2023-11-18T07:14:37.000Z</time>
</trkpt>
<trkpt lat="45.8775990" lon="9.8408490">
	<ele>1112.20</ele>
	<time>2023-11-18T07:14:38.000Z</time>
</trkpt>
<trkpt lat="45.8776100" lon="9.8408480">
	<ele>1112.40</ele>
	<time>2023-11-18T07:14:39.000Z</time>
</trkpt>
<trkpt lat="45.8776200" lon="9.8408390">
	<ele>1112.60</ele>
	<time>2023-11-18T07:14:40.000Z</time>
</trkpt>
<trkpt lat="45.8776310" lon="9.8408310">
	<ele>1112.60</ele>
	<time>2023-11-18T07:14:41.000Z</time>
</trkpt>
<trkpt lat="45.8776370" lon="9.8408200">
	<ele>1113.00</ele>
	<time>2023-11-18T07:14:42.000Z</time>
</trkpt>
<trkpt lat="45.8776400" lon="9.8408060">
	<ele>1113.40</ele>
	<time>2023-11-18T07:14:43.000Z</time>
</trkpt>
<trkpt lat="45.8776490" lon="9.8407930">
	<ele>1113.40</ele>
	<time>2023-11-18T07:14:44.000Z</time>
</trkpt>
<trkpt lat="45.8776560" lon="9.8407780">
	<ele>1113.60</ele>
	<time>2023-11-18T07:14:45.000Z</time>
</trkpt>
<trkpt lat="45.8776620" lon="9.8407630">
	<ele>1113.60</ele>
	<time>2023-11-18T07:14:46.000Z</time>
</trkpt>
<trkpt lat="45.8776700" lon="9.8407440">
	<ele>1113.60</ele>
	<time>2023-11-18T07:14:47.000Z</time>
</trkpt>
<trkpt lat="45.8776770" lon="9.8407300">
	<ele>1113.60</ele>
	<time>2023-11-18T07:14:48.000Z</time>
</trkpt>
<trkpt lat="45.8776830" lon="9.8407260">
	<ele>1113.60</ele>
	<time>2023-11-18T07:14:49.000Z</time>
</trkpt>
<trkpt lat="45.8776890" lon="9.8407230">
	<ele>1113.60</ele>
	<time>2023-11-18T07:14:50.000Z</time>
</trkpt>
<trkpt lat="45.8776910" lon="9.8407130">
	<ele>1113.80</ele>
	<time>2023-11-18T07:14:51.000Z</time>
</trkpt>
<trkpt lat="45.8776930" lon="9.8407050">
	<ele>1114.00</ele>
	<time>2023-11-18T07:14:52.000Z</time>
</trkpt>
<trkpt lat="45.8776960" lon="9.8407000">
	<ele>1114.20</ele>
	<time>2023-11-18T07:14:53.000Z</time>
</trkpt>
<trkpt lat="45.8777040" lon="9.8406930">
	<ele>1114.20</ele>
	<time>2023-11-18T07:14:54.000Z</time>
</trkpt>
<trkpt lat="45.8777140" lon="9.8406870">
	<ele>1114.40</ele>
	<time>2023-11-18T07:14:55.000Z</time>
</trkpt>
<trkpt lat="45.8777200" lon="9.8406820">
	<ele>1114.40</ele>
	<time>2023-11-18T07:14:56.000Z</time>
</trkpt>
<trkpt lat="45.8777270" lon="9.8406790">
	<ele>1114.60</ele>
	<time>2023-11-18T07:14:57.000Z</time>
</trkpt>
<trkpt lat="45.8777360" lon="9.8406710">
	<ele>1114.60</ele>
	<time>2023-11-18T07:14:58.000Z</time>
</trkpt>
<trkpt lat="45.8777470" lon="9.8406590">
	<ele>1114.80</ele>
	<time>2023-11-18T07:14:59.000Z</time>
</trkpt>
<trkpt lat="45.8777550" lon="9.8406500">
	<ele>1115.00</ele>
	<time>2023-11-18T07:15:00.000Z</time>
</trkpt>
<trkpt lat="45.8777660" lon="9.8406420">
	<ele>1115.20</ele>
	<time>2023-11-18T07:15:01.000Z</time>
</trkpt>
<trkpt lat="45.8777770" lon="9.8406360">
	<ele>1115.60</ele>
	<time>2023-11-18T07:15:02.000Z</time>
</trkpt>
<trkpt lat="45.8777880" lon="9.8406250">
	<ele>1115.80</ele>
	<time>2023-11-18T07:15:03.000Z</time>
</trkpt>
<trkpt lat="45.8777960" lon="9.8406140">
	<ele>1116.00</ele>
	<time>2023-11-18T07:15:04.000Z</time>
</trkpt>
<trkpt lat="45.8778030" lon="9.8406080">
	<ele>1116.00</ele>
	<time>2023-11-18T07:15:05.000Z</time>
</trkpt>
<trkpt lat="45.8778110" lon="9.8405980">
	<ele>1116.20</ele>
	<time>2023-11-18T07:15:06.000Z</time>
</trkpt>
<trkpt lat="45.8778160" lon="9.8405840">
	<ele>1116.40</ele>
	<time>2023-11-18T07:15:07.000Z</time>
</trkpt>
<trkpt lat="45.8778280" lon="9.8405670">
	<ele>1116.40</ele>
	<time>2023-11-18T07:15:08.000Z</time>
</trkpt>
<trkpt lat="45.8778350" lon="9.8405600">
	<ele>1116.40</ele>
	<time>2023-11-18T07:15:09.000Z</time>
</trkpt>
<trkpt lat="45.8778430" lon="9.8405480">
	<ele>1116.60</ele>
	<time>2023-11-18T07:15:10.000Z</time>
</trkpt>
<trkpt lat="45.8778480" lon="9.8405400">
	<ele>1116.60</ele>
	<time>2023-11-18T07:15:11.000Z</time>
</trkpt>
<trkpt lat="45.8778500" lon="9.8405320">
	<ele>1116.80</ele>
	<time>2023-11-18T07:15:12.000Z</time>
</trkpt>
<trkpt lat="45.8778510" lon="9.8405250">
	<ele>1116.80</ele>
	<time>2023-11-18T07:15:13.000Z</time>
</trkpt>
<trkpt lat="45.8778540" lon="9.8405220">
	<ele>1117.00</ele>
	<time>2023-11-18T07:15:14.000Z</time>
</trkpt>
<trkpt lat="45.8778590" lon="9.8405150">
	<ele>1117.00</ele>
	<time>2023-11-18T07:15:15.000Z</time>
</trkpt>
<trkpt lat="45.8778630" lon="9.8405110">
	<ele>1117.20</ele>
	<time>2023-11-18T07:15:16.000Z</time>
</trkpt>
<trkpt lat="45.8778730" lon="9.8405040">
	<ele>1117.20</ele>
	<time>2023-11-18T07:15:17.000Z</time>
</trkpt>
<trkpt lat="45.8778810" lon="9.8404900">
	<ele>1117.40</ele>
	<time>2023-11-18T07:15:18.000Z</time>
</trkpt>
<trkpt lat="45.8778930" lon="9.8404810">
	<ele>1117.80</ele>
	<time>2023-11-18T07:15:19.000Z</time>
</trkpt>
<trkpt lat="45.8778990" lon="9.8404710">
	<ele>1117.80</ele>
	<time>2023-11-18T07:15:20.000Z</time>
</trkpt>
<trkpt lat="45.8779060" lon="9.8404660">
	<ele>1118.00</ele>
	<time>2023-11-18T07:15:21.000Z</time>
</trkpt>
<trkpt lat="45.8779120" lon="9.8404560">
	<ele>1118.40</ele>
	<time>2023-11-18T07:15:22.000Z</time>
</trkpt>
<trkpt lat="45.8779170" lon="9.8404460">
	<ele>1118.60</ele>
	<time>2023-11-18T07:15:23.000Z</time>
</trkpt>
<trkpt lat="45.8779240" lon="9.8404370">
	<ele>1118.80</ele>
	<time>2023-11-18T07:15:24.000Z</time>
</trkpt>
<trkpt lat="45.8779320" lon="9.8404270">
	<ele>1119.00</ele>
	<time>2023-11-18T07:15:25.000Z</time>
</trkpt>
<trkpt lat="45.8779380" lon="9.8404160">
	<ele>1119.20</ele>
	<time>2023-11-18T07:15:26.000Z</time>
</trkpt>
<trkpt lat="45.8779430" lon="9.8404070">
	<ele>1119.40</ele>
	<time>2023-11-18T07:15:27.000Z</time>
</trkpt>
<trkpt lat="45.8779480" lon="9.8403980">
	<ele>1119.40</ele>
	<time>2023-11-18T07:15:28.000Z</time>
</trkpt>
<trkpt lat="45.8779560" lon="9.8403880">
	<ele>1119.60</ele>
	<time>2023-11-18T07:15:29.000Z</time>
</trkpt>
<trkpt lat="45.8779620" lon="9.8403780">
	<ele>1119.80</ele>
	<time>2023-11-18T07:15:30.000Z</time>
</trkpt>
<trkpt lat="45.8779680" lon="9.8403690">
	<ele>1119.80</ele>
	<time>2023-11-18T07:15:31.000Z</time>
</trkpt>
<trkpt lat="45.8779730" lon="9.8403630">
	<ele>1120.20</ele>
	<time>2023-11-18T07:15:32.000Z</time>
</trkpt>
<trkpt lat="45.8779790" lon="9.8403500">
	<ele>1120.40</ele>
	<time>2023-11-18T07:15:33.000Z</time>
</trkpt>
<trkpt lat="45.8779870" lon="9.8403360">
	<ele>1120.60</ele>
	<time>2023-11-18T07:15:34.000Z</time>
</trkpt>
<trkpt lat="45.8779900" lon="9.8403250">
	<ele>1120.80</ele>
	<time>2023-11-18T07:15:35.000Z</time>
</trkpt>
<trkpt lat="45.8779950" lon="9.8403130">
	<ele>1120.80</ele>
	<time>2023-11-18T07:15:36.000Z</time>
</trkpt>
<trkpt lat="45.8780020" lon="9.8403020">
	<ele>1121.00</ele>
	<time>2023-11-18T07:15:37.000Z</time>
</trkpt>
<trkpt lat="45.8780070" lon="9.8402900">
	<ele>1121.20</ele>
	<time>2023-11-18T07:15:38.000Z</time>
</trkpt>
<trkpt lat="45.8780110" lon="9.8402800">
	<ele>1121.40</ele>
	<time>2023-11-18T07:15:39.000Z</time>
</trkpt>
<trkpt lat="45.8780140" lon="9.8402730">
	<ele>1121.60</ele>
	<time>2023-11-18T07:15:40.000Z</time>
</trkpt>
<trkpt lat="45.8780190" lon="9.8402670">
	<ele>1121.60</ele>
	<time>2023-11-18T07:15:41.000Z</time>
</trkpt>
<trkpt lat="45.8780270" lon="9.8402590">
	<ele>1121.80</ele>
	<time>2023-11-18T07:15:42.000Z</time>
</trkpt>
<trkpt lat="45.8780370" lon="9.8402480">
	<ele>1122.00</ele>
	<time>2023-11-18T07:15:43.000Z</time>
</trkpt>
<trkpt lat="45.8780460" lon="9.8402370">
	<ele>1122.00</ele>
	<time>2023-11-18T07:15:44.000Z</time>
</trkpt>
<trkpt lat="45.8780540" lon="9.8402250">
	<ele>1122.20</ele>
	<time>2023-11-18T07:15:45.000Z</time>
</trkpt>
<trkpt lat="45.8780600" lon="9.8402130">
	<ele>1122.40</ele>
	<time>2023-11-18T07:15:46.000Z</time>
</trkpt>
<trkpt lat="45.8780670" lon="9.8402020">
	<ele>1122.40</ele>
	<time>2023-11-18T07:15:47.000Z</time>
</trkpt>
<trkpt lat="45.8780740" lon="9.8401900">
	<ele>1122.60</ele>
	<time>2023-11-18T07:15:48.000Z</time>
</trkpt>
<trkpt lat="45.8780790" lon="9.8401810">
	<ele>1122.80</ele>
	<time>2023-11-18T07:15:49.000Z</time>
</trkpt>
<trkpt lat="45.8780850" lon="9.8401700">
	<ele>1122.80</ele>
	<time>2023-11-18T07:15:50.000Z</time>
</trkpt>
<trkpt lat="45.8780910" lon="9.8401590">
	<ele>1122.80</ele>
	<time>2023-11-18T07:15:51.000Z</time>
</trkpt>
<trkpt lat="45.8780950" lon="9.8401450">
	<ele>1123.00</ele>
	<time>2023-11-18T07:15:52.000Z</time>
</trkpt>
<trkpt lat="45.8780970" lon="9.8401300">
	<ele>1123.00</ele>
	<time>2023-11-18T07:15:53.000Z</time>
</trkpt>
<trkpt lat="45.8781000" lon="9.8401190">
	<ele>1123.20</ele>
	<time>2023-11-18T07:15:54.000Z</time>
</trkpt>
<trkpt lat="45.8781070" lon="9.8401080">
	<ele>1123.40</ele>
	<time>2023-11-18T07:15:55.000Z</time>
</trkpt>
<trkpt lat="45.8781130" lon="9.8400970">
	<ele>1123.40</ele>
	<time>2023-11-18T07:15:56.000Z</time>
</trkpt>
<trkpt lat="45.8781160" lon="9.8400860">
	<ele>1123.40</ele>
	<time>2023-11-18T07:15:57.000Z</time>
</trkpt>
<trkpt lat="45.8781190" lon="9.8400760">
	<ele>1123.40</ele>
	<time>2023-11-18T07:15:58.000Z</time>
</trkpt>
<trkpt lat="45.8781250" lon="9.8400710">
	<ele>1123.60</ele>
	<time>2023-11-18T07:15:59.000Z</time>
</trkpt>
<trkpt lat="45.8781360" lon="9.8400570">
	<ele>1123.60</ele>
	<time>2023-11-18T07:16:00.000Z</time>
</trkpt>
<trkpt lat="45.8781440" lon="9.8400460">
	<ele>1123.80</ele>
	<time>2023-11-18T07:16:01.000Z</time>
</trkpt>
<trkpt lat="45.8781540" lon="9.8400350">
	<ele>1124.00</ele>
	<time>2023-11-18T07:16:02.000Z</time>
</trkpt>
<trkpt lat="45.8781590" lon="9.8400280">
	<ele>1124.20</ele>
	<time>2023-11-18T07:16:03.000Z</time>
</trkpt>
<trkpt lat="45.8781680" lon="9.8400220">
	<ele>1124.20</ele>
	<time>2023-11-18T07:16:04.000Z</time>
</trkpt>
<trkpt lat="45.8781770" lon="9.8400110">
	<ele>1124.40</ele>
	<time>2023-11-18T07:16:05.000Z</time>
</trkpt>
<trkpt lat="45.8781810" lon="9.8400010">
	<ele>1124.40</ele>
	<time>2023-11-18T07:16:06.000Z</time>
</trkpt>
<trkpt lat="45.8781880" lon="9.8399870">
	<ele>1124.80</ele>
	<time>2023-11-18T07:16:07.000Z</time>
</trkpt>
<trkpt lat="45.8781930" lon="9.8399720">
	<ele>1124.80</ele>
	<time>2023-11-18T07:16:08.000Z</time>
</trkpt>
<trkpt lat="45.8781950" lon="9.8399620">
	<ele>1125.00</ele>
	<time>2023-11-18T07:16:09.000Z</time>
</trkpt>
<trkpt lat="45.8782010" lon="9.8399500">
	<ele>1125.00</ele>
	<time>2023-11-18T07:16:10.000Z</time>
</trkpt>
<trkpt lat="45.8782070" lon="9.8399410">
	<ele>1125.20</ele>
	<time>2023-11-18T07:16:11.000Z</time>
</trkpt>
<trkpt lat="45.8782140" lon="9.8399300">
	<ele>1125.20</ele>
	<time>2023-11-18T07:16:12.000Z</time>
</trkpt>
<trkpt lat="45.8782190" lon="9.8399180">
	<ele>1125.40</ele>
	<time>2023-11-18T07:16:13.000Z</time>
</trkpt>
<trkpt lat="45.8782260" lon="9.8399090">
	<ele>1125.60</ele>
	<time>2023-11-18T07:16:14.000Z</time>
</trkpt>
<trkpt lat="45.8782290" lon="9.8399030">
	<ele>1125.60</ele>
	<time>2023-11-18T07:16:15.000Z</time>
</trkpt>
<trkpt lat="45.8782340" lon="9.8398990">
	<ele>1125.80</ele>
	<time>2023-11-18T07:16:16.000Z</time>
</trkpt>
<trkpt lat="45.8782390" lon="9.8398900">
	<ele>1126.00</ele>
	<time>2023-11-18T07:16:17.000Z</time>
</trkpt>
<trkpt lat="45.8782430" lon="9.8398850">
	<ele>1126.20</ele>
	<time>2023-11-18T07:16:18.000Z</time>
</trkpt>
<trkpt lat="45.8782490" lon="9.8398750">
	<ele>1126.40</ele>
	<time>2023-11-18T07:16:19.000Z</time>
</trkpt>
<trkpt lat="45.8782570" lon="9.8398680">
	<ele>1126.60</ele>
	<time>2023-11-18T07:16:20.000Z</time>
</trkpt>
<trkpt lat="45.8782700" lon="9.8398590">
	<ele>1126.80</ele>
	<time>2023-11-18T07:16:21.000Z</time>
</trkpt>
<trkpt lat="45.8782800" lon="9.8398540">
	<ele>1126.80</ele>
	<time>2023-11-18T07:16:22.000Z</time>
</trkpt>
<trkpt lat="45.8782850" lon="9.8398510">
	<ele>1126.80</ele>
	<time>2023-11-18T07:16:23.000Z</time>
</trkpt>
<trkpt lat="45.8782930" lon="9.8398430">
	<ele>1127.20</ele>
	<time>2023-11-18T07:16:24.000Z</time>
</trkpt>
<trkpt lat="45.8782990" lon="9.8398340">
	<ele>1127.40</ele>
	<time>2023-11-18T07:16:25.000Z</time>
</trkpt>
<trkpt lat="45.8783060" lon="9.8398260">
	<ele>1127.40</ele>
	<time>2023-11-18T07:16:26.000Z</time>
</trkpt>
<trkpt lat="45.8783120" lon="9.8398200">
	<ele>1127.60</ele>
	<time>2023-11-18T07:16:27.000Z</time>
</trkpt>
<trkpt lat="45.8783190" lon="9.8398090">
	<ele>1127.60</ele>
	<time>2023-11-18T07:16:28.000Z</time>
</trkpt>
<trkpt lat="45.8783250" lon="9.8397980">
	<ele>1127.80</ele>
	<time>2023-11-18T07:16:29.000Z</time>
</trkpt>
<trkpt lat="45.8783320" lon="9.8397870">
	<ele>1127.80</ele>
	<time>2023-11-18T07:16:30.000Z</time>
</trkpt>
<trkpt lat="45.8783380" lon="9.8397770">
	<ele>1128.00</ele>
	<time>2023-11-18T07:16:31.000Z</time>
</trkpt>
<trkpt lat="45.8783410" lon="9.8397670">
	<ele>1128.20</ele>
	<time>2023-11-18T07:16:32.000Z</time>
</trkpt>
<trkpt lat="45.8783440" lon="9.8397530">
	<ele>1128.20</ele>
	<time>2023-11-18T07:16:33.000Z</time>
</trkpt>
<trkpt lat="45.8783470" lon="9.8397430">
	<ele>1128.40</ele>
	<time>2023-11-18T07:16:34.000Z</time>
</trkpt>
<trkpt lat="45.8783530" lon="9.8397320">
	<ele>1128.60</ele>
	<time>2023-11-18T07:16:35.000Z</time>
</trkpt>
<trkpt lat="45.8783570" lon="9.8397200">
	<ele>1128.60</ele>
	<time>2023-11-18T07:16:36.000Z</time>
</trkpt>
<trkpt lat="45.8783620" lon="9.8397110">
	<ele>1128.60</ele>
	<time>2023-11-18T07:16:37.000Z</time>
</trkpt>
<trkpt lat="45.8783680" lon="9.8397020">
	<ele>1128.80</ele>
	<time>2023-11-18T07:16:38.000Z</time>
</trkpt>
<trkpt lat="45.8783740" lon="9.8396920">
	<ele>1128.80</ele>
	<time>2023-11-18T07:16:39.000Z</time>
</trkpt>
<trkpt lat="45.8783820" lon="9.8396870">
	<ele>1128.80</ele>
	<time>2023-11-18T07:16:40.000Z</time>
</trkpt>
<trkpt lat="45.8783890" lon="9.8396770">
	<ele>1129.00</ele>
	<time>2023-11-18T07:16:41.000Z</time>
</trkpt>
<trkpt lat="45.8783970" lon="9.8396660">
	<ele>1129.00</ele>
	<time>2023-11-18T07:16:42.000Z</time>
</trkpt>
<trkpt lat="45.8784060" lon="9.8396590">
	<ele>1129.20</ele>
	<time>2023-11-18T07:16:43.000Z</time>
</trkpt>
<trkpt lat="45.8784120" lon="9.8396530">
	<ele>1129.60</ele>
	<time>2023-11-18T07:16:44.000Z</time>
</trkpt>
<trkpt lat="45.8784210" lon="9.8396490">
	<ele>1129.80</ele>
	<time>2023-11-18T07:16:45.000Z</time>
</trkpt>
<trkpt lat="45.8784320" lon="9.8396400">
	<ele>1130.00</ele>
	<time>2023-11-18T07:16:46.000Z</time>
</trkpt>
<trkpt lat="45.8784410" lon="9.8396310">
	<ele>1130.00</ele>
	<time>2023-11-18T07:16:47.000Z</time>
</trkpt>
<trkpt lat="45.8784500" lon="9.8396210">
	<ele>1130.20</ele>
	<time>2023-11-18T07:16:48.000Z</time>
</trkpt>
<trkpt lat="45.8784560" lon="9.8396110">
	<ele>1130.40</ele>
	<time>2023-11-18T07:16:49.000Z</time>
</trkpt>
<trkpt lat="45.8784600" lon="9.8396050">
	<ele>1130.40</ele>
	<time>2023-11-18T07:16:50.000Z</time>
</trkpt>
<trkpt lat="45.8784620" lon="9.8395950">
	<ele>1130.40</ele>
	<time>2023-11-18T07:16:51.000Z</time>
</trkpt>
<trkpt lat="45.8784670" lon="9.8395850">
	<ele>1130.60</ele>
	<time>2023-11-18T07:16:52.000Z</time>
</trkpt>
<trkpt lat="45.8784720" lon="9.8395780">
	<ele>1130.60</ele>
	<time>2023-11-18T07:16:53.000Z</time>
</trkpt>
<trkpt lat="45.8784780" lon="9.8395710">
	<ele>1130.80</ele>
	<time>2023-11-18T07:16:54.000Z</time>
</trkpt>
<trkpt lat="45.8784860" lon="9.8395650">
	<ele>1131.00</ele>
	<time>2023-11-18T07:16:55.000Z</time>
</trkpt>
<trkpt lat="45.8784970" lon="9.8395590">
	<ele>1131.20</ele>
	<time>2023-11-18T07:16:56.000Z</time>
</trkpt>
<trkpt lat="45.8785060" lon="9.8395530">
	<ele>1131.20</ele>
	<time>2023-11-18T07:16:57.000Z</time>
</trkpt>
<trkpt lat="45.8785130" lon="9.8395460">
	<ele>1131.40</ele>
	<time>2023-11-18T07:16:58.000Z</time>
</trkpt>
<trkpt lat="45.8785200" lon="9.8395420">
	<ele>1131.60</ele>
	<time>2023-11-18T07:16:59.000Z</time>
</trkpt>
<trkpt lat="45.8785290" lon="9.8395390">
	<ele>1131.60</ele>
	<time>2023-11-18T07:17:00.000Z</time>
</trkpt>
<trkpt lat="45.8785350" lon="9.8395340">
	<ele>1131.80</ele>
	<time>2023-11-18T07:17:01.000Z</time>
</trkpt>
<trkpt lat="45.8785420" lon="9.8395240">
	<ele>1131.80</ele>
	<time>2023-11-18T07:17:02.000Z</time>
</trkpt>
<trkpt lat="45.8785460" lon="9.8395100">
	<ele>1132.00</ele>
	<time>2023-11-18T07:17:03.000Z</time>
</trkpt>
<trkpt lat="45.8785490" lon="9.8394960">
	<ele>1132.20</ele>
	<time>2023-11-18T07:17:04.000Z</time>
</trkpt>
<trkpt lat="45.8785520" lon="9.8394830">
	<ele>1132.40</ele>
	<time>2023-11-18T07:17:05.000Z</time>
</trkpt>
<trkpt lat="45.8785540" lon="9.8394720">
	<ele>1132.60</ele>
	<time>2023-11-18T07:17:06.000Z</time>
</trkpt>
<trkpt lat="45.8785590" lon="9.8394630">
	<ele>1132.60</ele>
	<time>2023-11-18T07:17:07.000Z</time>
</trkpt>
<trkpt lat="45.8785620" lon="9.8394560">
	<ele>1132.80</ele>
	<time>2023-11-18T07:17:08.000Z</time>
</trkpt>
<trkpt lat="45.8785680" lon="9.8394530">
	<ele>1133.00</ele>
	<time>2023-11-18T07:17:09.000Z</time>
</trkpt>
<trkpt lat="45.8785760" lon="9.8394470">
	<ele>1133.00</ele>
	<time>2023-11-18T07:17:10.000Z</time>
</trkpt>
<trkpt lat="45.8785850" lon="9.8394390">
	<ele>1133.20</ele>
	<time>2023-11-18T07:17:11.000Z</time>
</trkpt>
<trkpt lat="45.8785920" lon="9.8394290">
	<ele>1133.20</ele>
	<time>2023-11-18T07:17:12.000Z</time>
</trkpt>
<trkpt lat="45.8785980" lon="9.8394170">
	<ele>1133.40</ele>
	<time>2023-11-18T07:17:13.000Z</time>
</trkpt>
<trkpt lat="45.8786050" lon="9.8394070">
	<ele>1133.60</ele>
	<time>2023-11-18T07:17:14.000Z</time>
</trkpt>
<trkpt lat="45.8786110" lon="9.8393990">
	<ele>1133.80</ele>
	<time>2023-11-18T07:17:15.000Z</time>
</trkpt>
<trkpt lat="45.8786180" lon="9.8393920">
	<ele>1134.00</ele>
	<time>2023-11-18T07:17:16.000Z</time>
</trkpt>
<trkpt lat="45.8786270" lon="9.8393850">
	<ele>1134.20</ele>
	<time>2023-11-18T07:17:17.000Z</time>
</trkpt>
<trkpt lat="45.8786340" lon="9.8393780">
	<ele>1134.60</ele>
	<time>2023-11-18T07:17:18.000Z</time>
</trkpt>
<trkpt lat="45.8786410" lon="9.8393720">
	<ele>1134.60</ele>
	<time>2023-11-18T07:17:19.000Z</time>
</trkpt>
<trkpt lat="45.8786500" lon="9.8393660">
	<ele>1134.80</ele>
	<time>2023-11-18T07:17:20.000Z</time>
</trkpt>
<trkpt lat="45.8786580" lon="9.8393570">
	<ele>1134.80</ele>
	<time>2023-11-18T07:17:21.000Z</time>
</trkpt>
<trkpt lat="45.8786640" lon="9.8393480">
	<ele>1135.00</ele>
	<time>2023-11-18T07:17:22.000Z</time>
</trkpt>
<trkpt lat="45.8786700" lon="9.8393410">
	<ele>1135.20</ele>
	<time>2023-11-18T07:17:23.000Z</time>
</trkpt>
<trkpt lat="45.8786760" lon="9.8393330">
	<ele>1135.20</ele>
	<time>2023-11-18T07:17:24.000Z</time>
</trkpt>
<trkpt lat="45.8786820" lon="9.8393270">
	<ele>1135.40</ele>
	<time>2023-11-18T07:17:25.000Z</time>
</trkpt>
<trkpt lat="45.8786890" lon="9.8393190">
	<ele>1135.60</ele>
	<time>2023-11-18T07:17:26.000Z</time>
</trkpt>
<trkpt lat="45.8786960" lon="9.8393080">
	<ele>1135.80</ele>
	<time>2023-11-18T07:17:27.000Z</time>
</trkpt>
<trkpt lat="45.8787010" lon="9.8392980">
	<ele>1136.00</ele>
	<time>2023-11-18T07:17:28.000Z</time>
</trkpt>
<trkpt lat="45.8787070" lon="9.8392900">
	<ele>1136.20</ele>
	<time>2023-11-18T07:17:29.000Z</time>
</trkpt>
<trkpt lat="45.8787140" lon="9.8392820">
	<ele>1136.40</ele>
	<time>2023-11-18T07:17:30.000Z</time>
</trkpt>
<trkpt lat="45.8787210" lon="9.8392740">
	<ele>1136.40</ele>
	<time>2023-11-18T07:17:31.000Z</time>
</trkpt>
<trkpt lat="45.8787270" lon="9.8392640">
	<ele>1136.60</ele>
	<time>2023-11-18T07:17:32.000Z</time>
</trkpt>
<trkpt lat="45.8787320" lon="9.8392540">
	<ele>1136.60</ele>
	<time>2023-11-18T07:17:33.000Z</time>
</trkpt>
<trkpt lat="45.8787390" lon="9.8392460">
	<ele>1136.80</ele>
	<time>2023-11-18T07:17:34.000Z</time>
</trkpt>
<trkpt lat="45.8787460" lon="9.8392370">
	<ele>1137.00</ele>
	<time>2023-11-18T07:17:35.000Z</time>
</trkpt>
<trkpt lat="45.8787530" lon="9.8392310">
	<ele>1137.20</ele>
	<time>2023-11-18T07:17:36.000Z</time>
</trkpt>
<trkpt lat="45.8787600" lon="9.8392250">
	<ele>1137.40</ele>
	<time>2023-11-18T07:17:37.000Z</time>
</trkpt>
<trkpt lat="45.8787670" lon="9.8392160">
	<ele>1137.40</ele>
	<time>2023-11-18T07:17:38.000Z</time>
</trkpt>
<trkpt lat="45.8787750" lon="9.8392100">
	<ele>1137.80</ele>
	<time>2023-11-18T07:17:39.000Z</time>
</trkpt>
<trkpt lat="45.8787810" lon="9.8392020">
	<ele>1137.80</ele>
	<time>2023-11-18T07:17:40.000Z</time>
</trkpt>
<trkpt lat="45.8787900" lon="9.8391930">
	<ele>1138.00</ele>
	<time>2023-11-18T07:17:41.000Z</time>
</trkpt>
<trkpt lat="45.8787970" lon="9.8391810">
	<ele>1138.20</ele>
	<time>2023-11-18T07:17:42.000Z</time>
</trkpt>
<trkpt lat="45.8788030" lon="9.8391710">
	<ele>1138.40</ele>
	<time>2023-11-18T07:17:43.000Z</time>
</trkpt>
<trkpt lat="45.8788100" lon="9.8391630">
	<ele>1138.60</ele>
	<time>2023-11-18T07:17:44.000Z</time>
</trkpt>
<trkpt lat="45.8788150" lon="9.8391560">
	<ele>1138.80</ele>
	<time>2023-11-18T07:17:45.000Z</time>
</trkpt>
<trkpt lat="45.8788210" lon="9.8391500">
	<ele>1138.80</ele>
	<time>2023-11-18T07:17:46.000Z</time>
</trkpt>
<trkpt lat="45.8788260" lon="9.8391440">
	<ele>1139.00</ele>
	<time>2023-11-18T07:17:47.000Z</time>
</trkpt>
<trkpt lat="45.8788320" lon="9.8391370">
	<ele>1139.20</ele>
	<time>2023-11-18T07:17:48.000Z</time>
</trkpt>
<trkpt lat="45.8788370" lon="9.8391300">
	<ele>1139.40</ele>
	<time>2023-11-18T07:17:49.000Z</time>
</trkpt>
<trkpt lat="45.8788420" lon="9.8391230">
	<ele>1139.40</ele>
	<time>2023-11-18T07:17:50.000Z</time>
</trkpt>
<trkpt lat="45.8788480" lon="9.8391160">
	<ele>1139.60</ele>
	<time>2023-11-18T07:17:51.000Z</time>
</trkpt>
<trkpt lat="45.8788540" lon="9.8391110">
	<ele>1139.60</ele>
	<time>2023-11-18T07:17:52.000Z</time>
</trkpt>
<trkpt lat="45.8788600" lon="9.8391060">
	<ele>1139.60</ele>
	<time>2023-11-18T07:17:53.000Z</time>
</trkpt>
<trkpt lat="45.8788680" lon="9.8390980">
	<ele>1139.80</ele>
	<time>2023-11-18T07:17:54.000Z</time>
</trkpt>
<trkpt lat="45.8788750" lon="9.8390910">
	<ele>1140.00</ele>
	<time>2023-11-18T07:17:55.000Z</time>
</trkpt>
<trkpt lat="45.8788800" lon="9.8390850">
	<ele>1140.20</ele>
	<time>2023-11-18T07:17:56.000Z</time>
</trkpt>
<trkpt lat="45.8788860" lon="9.8390820">
	<ele>1140.40</ele>
	<time>2023-11-18T07:17:57.000Z</time>
</trkpt>
<trkpt lat="45.8788930" lon="9.8390800">
	<ele>1140.60</ele>
	<time>2023-11-18T07:17:58.000Z</time>
</trkpt>
<trkpt lat="45.8789000" lon="9.8390770">
	<ele>1140.60</ele>
	<time>2023-11-18T07:17:59.000Z</time>
</trkpt>
<trkpt lat="45.8789070" lon="9.8390720">
	<ele>1140.80</ele>
	<time>2023-11-18T07:18:00.000Z</time>
</trkpt>
<trkpt lat="45.8789120" lon="9.8390640">
	<ele>1141.00</ele>
	<time>2023-11-18T07:18:01.000Z</time>
</trkpt>
<trkpt lat="45.8789140" lon="9.8390560">
	<ele>1141.20</ele>
	<time>2023-11-18T07:18:02.000Z</time>
</trkpt>
<trkpt lat="45.8789190" lon="9.8390460">
	<ele>1141.20</ele>
	<time>2023-11-18T07:18:03.000Z</time>
</trkpt>
<trkpt lat="45.8789270" lon="9.8390350">
	<ele>1141.40</ele>
	<time>2023-11-18T07:18:04.000Z</time>
</trkpt>
<trkpt lat="45.8789340" lon="9.8390310">
	<ele>1141.60</ele>
	<time>2023-11-18T07:18:05.000Z</time>
</trkpt>
<trkpt lat="45.8789410" lon="9.8390230">
	<ele>1141.80</ele>
	<time>2023-11-18T07:18:06.000Z</time>
</trkpt>
<trkpt lat="45.8789480" lon="9.8390140">
	<ele>1141.80</ele>
	<time>2023-11-18T07:18:07.000Z</time>
</trkpt>
<trkpt lat="45.8789550" lon="9.8390020">
	<ele>1142.00</ele>
	<time>2023-11-18T07:18:08.000Z</time>
</trkpt>
<trkpt lat="45.8789570" lon="9.8389890">
	<ele>1142.20</ele>
	<time>2023-11-18T07:18:09.000Z</time>
</trkpt>
<trkpt lat="45.8789610" lon="9.8389760">
	<ele>1142.40</ele>
	<time>2023-11-18T07:18:10.000Z</time>
</trkpt>
<trkpt lat="45.8789650" lon="9.8389620">
	<ele>1142.40</ele>
	<time>2023-11-18T07:18:11.000Z</time>
</trkpt>
<trkpt lat="45.8789710" lon="9.8389510">
	<ele>1142.60</ele>
	<time>2023-11-18T07:18:12.000Z</time>
</trkpt>
<trkpt lat="45.8789810" lon="9.8389390">
	<ele>1142.60</ele>
	<time>2023-11-18T07:18:13.000Z</time>
</trkpt>
<trkpt lat="45.8789870" lon="9.8389310">
	<ele>1142.80</ele>
	<time>2023-11-18T07:18:14.000Z</time>
</trkpt>
<trkpt lat="45.8789940" lon="9.8389230">
	<ele>1142.80</ele>
	<time>2023-11-18T07:18:15.000Z</time>
</trkpt>
<trkpt lat="45.8790010" lon="9.8389160">
	<ele>1142.80</ele>
	<time>2023-11-18T07:18:16.000Z</time>
</trkpt>
<trkpt lat="45.8790060" lon="9.8389110">
	<ele>1143.00</ele>
	<time>2023-11-18T07:18:17.000Z</time>
</trkpt>
<trkpt lat="45.8790100" lon="9.8389060">
	<ele>1143.00</ele>
	<time>2023-11-18T07:18:18.000Z</time>
</trkpt>
<trkpt lat="45.8790160" lon="9.8389010">
	<ele>1143.20</ele>
	<time>2023-11-18T07:18:19.000Z</time>
</trkpt>
<trkpt lat="45.8790210" lon="9.8388980">
	<ele>1143.40</ele>
	<time>2023-11-18T07:18:20.000Z</time>
</trkpt>
<trkpt lat="45.8790280" lon="9.8388920">
	<ele>1143.60</ele>
	<time>2023-11-18T07:18:21.000Z</time>
</trkpt>
<trkpt lat="45.8790350" lon="9.8388850">
	<ele>1143.60</ele>
	<time>2023-11-18T07:18:22.000Z</time>
</trkpt>
<trkpt lat="45.8790430" lon="9.8388810">
	<ele>1143.80</ele>
	<time>2023-11-18T07:18:23.000Z</time>
</trkpt>
<trkpt lat="45.8790510" lon="9.8388810">
	<ele>1144.20</ele>
	<time>2023-11-18T07:18:24.000Z</time>
</trkpt>
<trkpt lat="45.8790580" lon="9.8388820">
	<ele>1144.40</ele>
	<time>2023-11-18T07:18:25.000Z</time>
</trkpt>
<trkpt lat="45.8790630" lon="9.8388830">
	<ele>1144.60</ele>
	<time>2023-11-18T07:18:26.000Z</time>
</trkpt>
<trkpt lat="45.8790690" lon="9.8388810">
	<ele>1144.60</ele>
	<time>2023-11-18T07:18:27.000Z</time>
</trkpt>
<trkpt lat="45.8790720" lon="9.8388780">
	<ele>1144.80</ele>
	<time>2023-11-18T07:18:28.000Z</time>
</trkpt>
<trkpt lat="45.8790770" lon="9.8388710">
	<ele>1145.20</ele>
	<time>2023-11-18T07:18:29.000Z</time>
</trkpt>
<trkpt lat="45.8790830" lon="9.8388650">
	<ele>1145.20</ele>
	<time>2023-11-18T07:18:30.000Z</time>
</trkpt>
<trkpt lat="45.8790890" lon="9.8388620">
	<ele>1145.40</ele>
	<time>2023-11-18T07:18:31.000Z</time>
</trkpt>
<trkpt lat="45.8790970" lon="9.8388610">
	<ele>1145.40</ele>
	<time>2023-11-18T07:18:32.000Z</time>
</trkpt>
<trkpt lat="45.8791030" lon="9.8388560">
	<ele>1145.60</ele>
	<time>2023-11-18T07:18:33.000Z</time>
</trkpt>
<trkpt lat="45.8791070" lon="9.8388530">
	<ele>1145.60</ele>
	<time>2023-11-18T07:18:34.000Z</time>
</trkpt>
<trkpt lat="45.8791100" lon="9.8388470">
	<ele>1145.80</ele>
	<time>2023-11-18T07:18:35.000Z</time>
</trkpt>
<trkpt lat="45.8791150" lon="9.8388430">
	<ele>1145.80</ele>
	<time>2023-11-18T07:18:36.000Z</time>
</trkpt>
<trkpt lat="45.8791220" lon="9.8388400">
	<ele>1146.00</ele>
	<time>2023-11-18T07:18:37.000Z</time>
</trkpt>
<trkpt lat="45.8791280" lon="9.8388360">
	<ele>1146.20</ele>
	<time>2023-11-18T07:18:38.000Z</time>
</trkpt>
<trkpt lat="45.8791320" lon="9.8388310">
	<ele>1146.60</ele>
	<time>2023-11-18T07:18:39.000Z</time>
</trkpt>
<trkpt lat="45.8791380" lon="9.8388240">
	<ele>1146.80</ele>
	<time>2023-11-18T07:18:40.000Z</time>
</trkpt>
<trkpt lat="45.8791450" lon="9.8388180">
	<ele>1147.00</ele>
	<time>2023-11-18T07:18:41.000Z</time>
</trkpt>
<trkpt lat="45.8791510" lon="9.8388090">
	<ele>1147.00</ele>
	<time>2023-11-18T07:18:42.000Z</time>
</trkpt>
<trkpt lat="45.8791550" lon="9.8388000">
	<ele>1147.20</ele>
	<time>2023-11-18T07:18:43.000Z</time>
</trkpt>
<trkpt lat="45.8791590" lon="9.8387930">
	<ele>1147.20</ele>
	<time>2023-11-18T07:18:44.000Z</time>
</trkpt>
<trkpt lat="45.8791620" lon="9.8387860">
	<ele>1147.40</ele>
	<time>2023-11-18T07:18:45.000Z</time>
</trkpt>
<trkpt lat="45.8791640" lon="9.8387800">
	<ele>1147.80</ele>
	<time>2023-11-18T07:18:46.000Z</time>
</trkpt>
<trkpt lat="45.8791670" lon="9.8387740">
	<ele>1148.00</ele>
	<time>2023-11-18T07:18:47.000Z</time>
</trkpt>
<trkpt lat="45.8791690" lon="9.8387720">
	<ele>1148.00</ele>
	<time>2023-11-18T07:18:48.000Z</time>
</trkpt>
<trkpt lat="45.8791720" lon="9.8387750">
	<ele>1148.20</ele>
	<time>2023-11-18T07:18:49.000Z</time>
</trkpt>
<trkpt lat="45.8791740" lon="9.8387760">
	<ele>1148.20</ele>
	<time>2023-11-18T07:18:50.000Z</time>
</trkpt>
<trkpt lat="45.8791750" lon="9.8387780">
	<ele>1148.20</ele>
	<time>2023-11-18T07:18:51.000Z</time>
</trkpt>
<trkpt lat="45.8791730" lon="9.8387780">
	<ele>1148.20</ele>
	<time>2023-11-18T07:18:52.000Z</time>
</trkpt>
<trkpt lat="45.8791710" lon="9.8387760">
	<ele>1148.40</ele>
	<time>2023-11-18T07:18:53.000Z</time>
</trkpt>
<trkpt lat="45.8791680" lon="9.8387690">
	<ele>1148.40</ele>
	<time>2023-11-18T07:18:54.000Z</time>
</trkpt>
<trkpt lat="45.8791660" lon="9.8387660">
	<ele>1148.40</ele>
	<time>2023-11-18T07:18:55.000Z</time>
</trkpt>
<trkpt lat="45.8791620" lon="9.8387650">
	<ele>1148.40</ele>
	<time>2023-11-18T07:18:56.000Z</time>
</trkpt>
<trkpt lat="45.8791620" lon="9.8387650">
	<ele>1148.40</ele>
	<time>2023-11-18T07:18:57.000Z</time>
</trkpt>
<trkpt lat="45.8791620" lon="9.8387660">
	<ele>1148.40</ele>
	<time>2023-11-18T07:18:58.000Z</time>
</trkpt>
<trkpt lat="45.8791620" lon="9.8387660">
	<ele>1148.40</ele>
	<time>2023-11-18T07:18:59.000Z</time>
</trkpt>
<trkpt lat="45.8791620" lon="9.8387660">
	<ele>1148.40</ele>
	<time>2023-11-18T07:19:00.000Z</time>
</trkpt>
<trkpt lat="45.8791620" lon="9.8387660">
	<ele>1148.40</ele>
	<time>2023-11-18T07:19:01.000Z</time>
</trkpt>
<trkpt lat="45.8791620" lon="9.8387660">
	<ele>1148.40</ele>
	<time>2023-11-18T07:19:02.000Z</time>
</trkpt>
<trkpt lat="45.8791620" lon="9.8387660">
	<ele>1148.40</ele>
	<time>2023-11-18T07:19:03.000Z</time>
</trkpt>
<trkpt lat="45.8791620" lon="9.8387660">
	<ele>1148.40</ele>
	<time>2023-11-18T07:19:04.000Z</time>
</trkpt>
<trkpt lat="45.8791610" lon="9.8387680">
	<ele>1148.40</ele>
	<time>2023-11-18T07:19:05.000Z</time>
</trkpt>
<trkpt lat="45.8791590" lon="9.8387730">
	<ele>1148.40</ele>
	<time>2023-11-18T07:19:06.000Z</time>
</trkpt>
<trkpt lat="45.8791570" lon="9.8387770">
	<ele>1148.20</ele>
	<time>2023-11-18T07:19:07.000Z</time>
</trkpt>
<trkpt lat="45.8791560" lon="9.8387800">
	<ele>1148.20</ele>
	<time>2023-11-18T07:19:08.000Z</time>
</trkpt>
<trkpt lat="45.8791540" lon="9.8387780">
	<ele>1148.20</ele>
	<time>2023-11-18T07:19:09.000Z</time>
</trkpt>
<trkpt lat="45.8791510" lon="9.8387780">
	<ele>1148.20</ele>
	<time>2023-11-18T07:19:10.000Z</time>
</trkpt>
<trkpt lat="45.8791510" lon="9.8387810">
	<ele>1148.20</ele>
	<time>2023-11-18T07:19:11.000Z</time>
</trkpt>
<trkpt lat="45.8791520" lon="9.8387850">
	<ele>1148.20</ele>
	<time>2023-11-18T07:19:12.000Z</time>
</trkpt>
<trkpt lat="45.8791520" lon="9.8387900">
	<ele>1148.40</ele>
	<time>2023-11-18T07:19:13.000Z</time>
</trkpt>
<trkpt lat="45.8791520" lon="9.8387940">
	<ele>1148.40</ele>
	<time>2023-11-18T07:19:14.000Z</time>
</trkpt>
<trkpt lat="45.8791530" lon="9.8387950">
	<ele>1148.40</ele>
	<time>2023-11-18T07:19:15.000Z</time>
</trkpt>
<trkpt lat="45.8791530" lon="9.8387950">
	<ele>1148.40</ele>
	<time>2023-11-18T07:19:16.000Z</time>
</trkpt>
<trkpt lat="45.8791530" lon="9.8387950">
	<ele>1148.40</ele>
	<time>2023-11-18T07:19:17.000Z</time>
</trkpt>
<trkpt lat="45.8791530" lon="9.8387950">
	<ele>1148.40</ele>
	<time>2023-11-18T07:19:18.000Z</time>
</trkpt>
<trkpt lat="45.8791530" lon="9.8387950">
	<ele>1148.40</ele>
	<time>2023-11-18T07:19:19.000Z</time>
</trkpt>
<trkpt lat="45.8791530" lon="9.8387950">
	<ele>1148.40</ele>
	<time>2023-11-18T07:19:20.000Z</time>
</trkpt>
<trkpt lat="45.8791530" lon="9.8387950">
	<ele>1148.40</ele>
	<time>2023-11-18T07:19:21.000Z</time>
</trkpt>
<trkpt lat="45.8791530" lon="9.8387950">
	<ele>1148.40</ele>
	<time>2023-11-18T07:19:22.000Z</time>
</trkpt>
<trkpt lat="45.8791530" lon="9.8387950">
	<ele>1148.40</ele>
	<time>2023-11-18T07:19:23.000Z</time>
</trkpt>
<trkpt lat="45.8791530" lon="9.8387950">
	<ele>1148.40</ele>
	<time>2023-11-18T07:19:24.000Z</time>
</trkpt>
<trkpt lat="45.8791530" lon="9.8387950">
	<ele>1148.40</ele>
	<time>2023-11-18T07:19:25.000Z</time>
</trkpt>
<trkpt lat="45.8791530" lon="9.8387950">
	<ele>1148.40</ele>
	<time>2023-11-18T07:19:26.000Z</time>
</trkpt>
<trkpt lat="45.8791530" lon="9.8387950">
	<ele>1148.40</ele>
	<time>2023-11-18T07:19:27.000Z</time>
</trkpt>
<trkpt lat="45.8791530" lon="9.8387950">
	<ele>1148.40</ele>
	<time>2023-11-18T07:19:28.000Z</time>
</trkpt>
<trkpt lat="45.8791530" lon="9.8387950">
	<ele>1148.40</ele>
	<time>2023-11-18T07:19:29.000Z</time>
</trkpt>
<trkpt lat="45.8791530" lon="9.8387950">
	<ele>1148.60</ele>
	<time>2023-11-18T07:19:30.000Z</time>
</trkpt>
<trkpt lat="45.8791530" lon="9.8387950">
	<ele>1148.60</ele>
	<time>2023-11-18T07:19:31.000Z</time>
</trkpt>
<trkpt lat="45.8791530" lon="9.8387950">
	<ele>1148.60</ele>
	<time>2023-11-18T07:19:32.000Z</time>
</trkpt>
<trkpt lat="45.8791530" lon="9.8387950">
	<ele>1148.60</ele>
	<time>2023-11-18T07:19:33.000Z</time>
</trkpt>
<trkpt lat="45.8791530" lon="9.8387950">
	<ele>1148.60</ele>
	<time>2023-11-18T07:19:34.000Z</time>
</trkpt>
<trkpt lat="45.8791530" lon="9.8387940">
	<ele>1148.60</ele>
	<time>2023-11-18T07:19:35.000Z</time>
</trkpt>
<trkpt lat="45.8791540" lon="9.8387940">
	<ele>1148.80</ele>
	<time>2023-11-18T07:19:36.000Z</time>
</trkpt>
<trkpt lat="45.8791540" lon="9.8387920">
	<ele>1148.80</ele>
	<time>2023-11-18T07:19:37.000Z</time>
</trkpt>
<trkpt lat="45.8791550" lon="9.8387920">
	<ele>1148.80</ele>
	<time>2023-11-18T07:19:38.000Z</time>
</trkpt>
<trkpt lat="45.8791550" lon="9.8387920">
	<ele>1148.80</ele>
	<time>2023-11-18T07:19:39.000Z</time>
</trkpt>
<trkpt lat="45.8791550" lon="9.8387920">
	<ele>1148.80</ele>
	<time>2023-11-18T07:19:40.000Z</time>
</trkpt>
<trkpt lat="45.8791560" lon="9.8387920">
	<ele>1148.80</ele>
	<time>2023-11-18T07:19:41.000Z</time>
</trkpt>
<trkpt lat="45.8791580" lon="9.8387920">
	<ele>1148.80</ele>
	<time>2023-11-18T07:19:42.000Z</time>
</trkpt>
<trkpt lat="45.8791580" lon="9.8387880">
	<ele>1148.80</ele>
	<time>2023-11-18T07:19:43.000Z</time>
</trkpt>
<trkpt lat="45.8791580" lon="9.8387820">
	<ele>1148.80</ele>
	<time>2023-11-18T07:19:44.000Z</time>
</trkpt>
<trkpt lat="45.8791580" lon="9.8387800">
	<ele>1148.80</ele>
	<time>2023-11-18T07:19:45.000Z</time>
</trkpt>
<trkpt lat="45.8791580" lon="9.8387800">
	<ele>1148.80</ele>
	<time>2023-11-18T07:19:46.000Z</time>
</trkpt>
<trkpt lat="45.8791590" lon="9.8387800">
	<ele>1148.80</ele>
	<time>2023-11-18T07:19:47.000Z</time>
</trkpt>
<trkpt lat="45.8791590" lon="9.8387790">
	<ele>1148.80</ele>
	<time>2023-11-18T07:19:48.000Z</time>
</trkpt>
<trkpt lat="45.8791590" lon="9.8387780">
	<ele>1148.80</ele>
	<time>2023-11-18T07:19:49.000Z</time>
</trkpt>
<trkpt lat="45.8791590" lon="9.8387780">
	<ele>1148.80</ele>
	<time>2023-11-18T07:19:50.000Z</time>
</trkpt>
<trkpt lat="45.8791590" lon="9.8387780">
	<ele>1148.60</ele>
	<time>2023-11-18T07:19:51.000Z</time>
</trkpt>
<trkpt lat="45.8791590" lon="9.8387760">
	<ele>1148.60</ele>
	<time>2023-11-18T07:19:52.000Z</time>
</trkpt>
<trkpt lat="45.8791590" lon="9.8387760">
	<ele>1148.60</ele>
	<time>2023-11-18T07:19:53.000Z</time>
</trkpt>
<trkpt lat="45.8791590" lon="9.8387750">
	<ele>1148.60</ele>
	<time>2023-11-18T07:19:54.000Z</time>
</trkpt>
<trkpt lat="45.8791590" lon="9.8387740">
	<ele>1148.60</ele>
	<time>2023-11-18T07:19:55.000Z</time>
</trkpt>
<trkpt lat="45.8791590" lon="9.8387740">
	<ele>1148.60</ele>
	<time>2023-11-18T07:19:56.000Z</time>
</trkpt>
<trkpt lat="45.8791600" lon="9.8387740">
	<ele>1148.60</ele>
	<time>2023-11-18T07:19:57.000Z</time>
</trkpt>
<trkpt lat="45.8791600" lon="9.8387740">
	<ele>1148.60</ele>
	<time>2023-11-18T07:19:58.000Z</time>
</trkpt>
<trkpt lat="45.8791600" lon="9.8387740">
	<ele>1148.60</ele>
	<time>2023-11-18T07:19:59.000Z</time>
</trkpt>
<trkpt lat="45.8791600" lon="9.8387740">
	<ele>1148.60</ele>
	<time>2023-11-18T07:20:00.000Z</time>
</trkpt>
<trkpt lat="45.8791600" lon="9.8387740">
	<ele>1148.60</ele>
	<time>2023-11-18T07:20:01.000Z</time>
</trkpt>
<trkpt lat="45.8791600" lon="9.8387750">
	<ele>1148.60</ele>
	<time>2023-11-18T07:20:02.000Z</time>
</trkpt>
<trkpt lat="45.8791600" lon="9.8387760">
	<ele>1148.60</ele>
	<time>2023-11-18T07:20:03.000Z</time>
</trkpt>
<trkpt lat="45.8791600" lon="9.8387770">
	<ele>1148.60</ele>
	<time>2023-11-18T07:20:04.000Z</time>
</trkpt>
<trkpt lat="45.8791600" lon="9.8387770">
	<ele>1148.60</ele>
	<time>2023-11-18T07:20:05.000Z</time>
</trkpt>
<trkpt lat="45.8791600" lon="9.8387770">
	<ele>1148.80</ele>
	<time>2023-11-18T07:20:06.000Z</time>
</trkpt>
<trkpt lat="45.8791600" lon="9.8387770">
	<ele>1149.00</ele>
	<time>2023-11-18T07:20:07.000Z</time>
</trkpt>
<trkpt lat="45.8791610" lon="9.8387770">
	<ele>1149.00</ele>
	<time>2023-11-18T07:20:08.000Z</time>
</trkpt>
<trkpt lat="45.8791610" lon="9.8387770">
	<ele>1149.00</ele>
	<time>2023-11-18T07:20:09.000Z</time>
</trkpt>
<trkpt lat="45.8791610" lon="9.8387770">
	<ele>1149.20</ele>
	<time>2023-11-18T07:20:10.000Z</time>
</trkpt>
<trkpt lat="45.8791620" lon="9.8387770">
	<ele>1149.20</ele>
	<time>2023-11-18T07:20:11.000Z</time>
</trkpt>
<trkpt lat="45.8791670" lon="9.8387710">
	<ele>1149.40</ele>
	<time>2023-11-18T07:20:12.000Z</time>
</trkpt>
<trkpt lat="45.8791780" lon="9.8387570">
	<ele>1149.60</ele>
	<time>2023-11-18T07:20:13.000Z</time>
</trkpt>
<trkpt lat="45.8791900" lon="9.8387380">
	<ele>1149.60</ele>
	<time>2023-11-18T07:20:14.000Z</time>
</trkpt>
<trkpt lat="45.8791970" lon="9.8387250">
	<ele>1149.60</ele>
	<time>2023-11-18T07:20:15.000Z</time>
</trkpt>
<trkpt lat="45.8792050" lon="9.8387140">
	<ele>1150.00</ele>
	<time>2023-11-18T07:20:16.000Z</time>
</trkpt>
<trkpt lat="45.8792160" lon="9.8387060">
	<ele>1150.20</ele>
	<time>2023-11-18T07:20:17.000Z</time>
</trkpt>
<trkpt lat="45.8792260" lon="9.8387000">
	<ele>1150.40</ele>
	<time>2023-11-18T07:20:18.000Z</time>
</trkpt>
<trkpt lat="45.8792380" lon="9.8386970">
	<ele>1150.60</ele>
	<time>2023-11-18T07:20:19.000Z</time>
</trkpt>
<trkpt lat="45.8792540" lon="9.8386920">
	<ele>1150.80</ele>
	<time>2023-11-18T07:20:20.000Z</time>
</trkpt>
<trkpt lat="45.8792680" lon="9.8386840">
	<ele>1151.00</ele>
	<time>2023-11-18T07:20:21.000Z</time>
</trkpt>
<trkpt lat="45.8792750" lon="9.8386840">
	<ele>1151.20</ele>
	<time>2023-11-18T07:20:22.000Z</time>
</trkpt>
<trkpt lat="45.8792850" lon="9.8386850">
	<ele>1151.40</ele>
	<time>2023-11-18T07:20:23.000Z</time>
</trkpt>
<trkpt lat="45.8792920" lon="9.8386800">
	<ele>1151.60</ele>
	<time>2023-11-18T07:20:24.000Z</time>
</trkpt>
<trkpt lat="45.8792990" lon="9.8386750">
	<ele>1151.80</ele>
	<time>2023-11-18T07:20:25.000Z</time>
</trkpt>
<trkpt lat="45.8793070" lon="9.8386700">
	<ele>1151.80</ele>
	<time>2023-11-18T07:20:26.000Z</time>
</trkpt>
<trkpt lat="45.8793140" lon="9.8386660">
	<ele>1152.00</ele>
	<time>2023-11-18T07:20:27.000Z</time>
</trkpt>
<trkpt lat="45.8793240" lon="9.8386630">
	<ele>1152.20</ele>
	<time>2023-11-18T07:20:28.000Z</time>
</trkpt>
<trkpt lat="45.8793320" lon="9.8386620">
	<ele>1152.20</ele>
	<time>2023-11-18T07:20:29.000Z</time>
</trkpt>
<trkpt lat="45.8793400" lon="9.8386590">
	<ele>1152.40</ele>
	<time>2023-11-18T07:20:30.000Z</time>
</trkpt>
<trkpt lat="45.8793470" lon="9.8386570">
	<ele>1152.40</ele>
	<time>2023-11-18T07:20:31.000Z</time>
</trkpt>
<trkpt lat="45.8793540" lon="9.8386570">
	<ele>1152.60</ele>
	<time>2023-11-18T07:20:32.000Z</time>
</trkpt>
<trkpt lat="45.8793590" lon="9.8386550">
	<ele>1152.80</ele>
	<time>2023-11-18T07:20:33.000Z</time>
</trkpt>
<trkpt lat="45.8793670" lon="9.8386480">
	<ele>1153.20</ele>
	<time>2023-11-18T07:20:34.000Z</time>
</trkpt>
<trkpt lat="45.8793720" lon="9.8386420">
	<ele>1153.40</ele>
	<time>2023-11-18T07:20:35.000Z</time>
</trkpt>
<trkpt lat="45.8793770" lon="9.8386320">
	<ele>1153.40</ele>
	<time>2023-11-18T07:20:36.000Z</time>
</trkpt>
<trkpt lat="45.8793840" lon="9.8386210">
	<ele>1153.60</ele>
	<time>2023-11-18T07:20:37.000Z</time>
</trkpt>
<trkpt lat="45.8793870" lon="9.8386150">
	<ele>1153.60</ele>
	<time>2023-11-18T07:20:38.000Z</time>
</trkpt>
<trkpt lat="45.8793910" lon="9.8386130">
	<ele>1153.80</ele>
	<time>2023-11-18T07:20:39.000Z</time>
</trkpt>
<trkpt lat="45.8793950" lon="9.8386110">
	<ele>1154.00</ele>
	<time>2023-11-18T07:20:40.000Z</time>
</trkpt>
<trkpt lat="45.8794010" lon="9.8386130">
	<ele>1154.20</ele>
	<time>2023-11-18T07:20:41.000Z</time>
</trkpt>
<trkpt lat="45.8794080" lon="9.8386110">
	<ele>1154.40</ele>
	<time>2023-11-18T07:20:42.000Z</time>
</trkpt>
<trkpt lat="45.8794110" lon="9.8386040">
	<ele>1154.60</ele>
	<time>2023-11-18T07:20:43.000Z</time>
</trkpt>
<trkpt lat="45.8794190" lon="9.8385990">
	<ele>1154.80</ele>
	<time>2023-11-18T07:20:44.000Z</time>
</trkpt>
<trkpt lat="45.8794260" lon="9.8385970">
	<ele>1154.80</ele>
	<time>2023-11-18T07:20:45.000Z</time>
</trkpt>
<trkpt lat="45.8794350" lon="9.8385910">
	<ele>1155.00</ele>
	<time>2023-11-18T07:20:46.000Z</time>
</trkpt>
<trkpt lat="45.8794440" lon="9.8385840">
	<ele>1155.20</ele>
	<time>2023-11-18T07:20:47.000Z</time>
</trkpt>
<trkpt lat="45.8794510" lon="9.8385770">
	<ele>1155.20</ele>
	<time>2023-11-18T07:20:48.000Z</time>
</trkpt>
<trkpt lat="45.8794560" lon="9.8385680">
	<ele>1155.40</ele>
	<time>2023-11-18T07:20:49.000Z</time>
</trkpt>
<trkpt lat="45.8794640" lon="9.8385610">
	<ele>1155.40</ele>
	<time>2023-11-18T07:20:50.000Z</time>
</trkpt>
<trkpt lat="45.8794720" lon="9.8385520">
	<ele>1155.60</ele>
	<time>2023-11-18T07:20:51.000Z</time>
</trkpt>
<trkpt lat="45.8794770" lon="9.8385440">
	<ele>1155.60</ele>
	<time>2023-11-18T07:20:52.000Z</time>
</trkpt>
<trkpt lat="45.8794830" lon="9.8385360">
	<ele>1155.80</ele>
	<time>2023-11-18T07:20:53.000Z</time>
</trkpt>
<trkpt lat="45.8794910" lon="9.8385290">
	<ele>1155.80</ele>
	<time>2023-11-18T07:20:54.000Z</time>
</trkpt>
<trkpt lat="45.8795010" lon="9.8385200">
	<ele>1156.00</ele>
	<time>2023-11-18T07:20:55.000Z</time>
</trkpt>
<trkpt lat="45.8795120" lon="9.8385120">
	<ele>1156.20</ele>
	<time>2023-11-18T07:20:56.000Z</time>
</trkpt>
<trkpt lat="45.8795210" lon="9.8385000">
	<ele>1156.20</ele>
	<time>2023-11-18T07:20:57.000Z</time>
</trkpt>
<trkpt lat="45.8795290" lon="9.8384880">
	<ele>1156.40</ele>
	<time>2023-11-18T07:20:58.000Z</time>
</trkpt>
<trkpt lat="45.8795350" lon="9.8384770">
	<ele>1156.40</ele>
	<time>2023-11-18T07:20:59.000Z</time>
</trkpt>
<trkpt lat="45.8795410" lon="9.8384690">
	<ele>1156.60</ele>
	<time>2023-11-18T07:21:00.000Z</time>
</trkpt>
<trkpt lat="45.8795450" lon="9.8384610">
	<ele>1156.60</ele>
	<time>2023-11-18T07:21:01.000Z</time>
</trkpt>
<trkpt lat="45.8795490" lon="9.8384540">
	<ele>1156.60</ele>
	<time>2023-11-18T07:21:02.000Z</time>
</trkpt>
<trkpt lat="45.8795540" lon="9.8384440">
	<ele>1156.80</ele>
	<time>2023-11-18T07:21:03.000Z</time>
</trkpt>
<trkpt lat="45.8795590" lon="9.8384390">
	<ele>1157.00</ele>
	<time>2023-11-18T07:21:04.000Z</time>
</trkpt>
<trkpt lat="45.8795650" lon="9.8384320">
	<ele>1157.20</ele>
	<time>2023-11-18T07:21:05.000Z</time>
</trkpt>
<trkpt lat="45.8795700" lon="9.8384240">
	<ele>1157.40</ele>
	<time>2023-11-18T07:21:06.000Z</time>
</trkpt>
<trkpt lat="45.8795710" lon="9.8384150">
	<ele>1157.60</ele>
	<time>2023-11-18T07:21:07.000Z</time>
</trkpt>
<trkpt lat="45.8795760" lon="9.8384090">
	<ele>1157.80</ele>
	<time>2023-11-18T07:21:08.000Z</time>
</trkpt>
<trkpt lat="45.8795830" lon="9.8384020">
	<ele>1157.80</ele>
	<time>2023-11-18T07:21:09.000Z</time>
</trkpt>
<trkpt lat="45.8795910" lon="9.8383950">
	<ele>1158.00</ele>
	<time>2023-11-18T07:21:10.000Z</time>
</trkpt>
<trkpt lat="45.8796000" lon="9.8383850">
	<ele>1158.20</ele>
	<time>2023-11-18T07:21:11.000Z</time>
</trkpt>
<trkpt lat="45.8796100" lon="9.8383770">
	<ele>1158.40</ele>
	<time>2023-11-18T07:21:12.000Z</time>
</trkpt>
<trkpt lat="45.8796150" lon="9.8383690">
	<ele>1158.60</ele>
	<time>2023-11-18T07:21:13.000Z</time>
</trkpt>
<trkpt lat="45.8796200" lon="9.8383580">
	<ele>1158.80</ele>
	<time>2023-11-18T07:21:14.000Z</time>
</trkpt>
<trkpt lat="45.8796230" lon="9.8383460">
	<ele>1159.00</ele>
	<time>2023-11-18T07:21:15.000Z</time>
</trkpt>
<trkpt lat="45.8796250" lon="9.8383360">
	<ele>1159.00</ele>
	<time>2023-11-18T07:21:16.000Z</time>
</trkpt>
<trkpt lat="45.8796300" lon="9.8383270">
	<ele>1159.20</ele>
	<time>2023-11-18T07:21:17.000Z</time>
</trkpt>
<trkpt lat="45.8796340" lon="9.8383190">
	<ele>1159.40</ele>
	<time>2023-11-18T07:21:18.000Z</time>
</trkpt>
<trkpt lat="45.8796380" lon="9.8383090">
	<ele>1159.60</ele>
	<time>2023-11-18T07:21:19.000Z</time>
</trkpt>
<trkpt lat="45.8796400" lon="9.8383000">
	<ele>1159.80</ele>
	<time>2023-11-18T07:21:20.000Z</time>
</trkpt>
<trkpt lat="45.8796420" lon="9.8382900">
	<ele>1160.00</ele>
	<time>2023-11-18T07:21:21.000Z</time>
</trkpt>
<trkpt lat="45.8796450" lon="9.8382790">
	<ele>1160.20</ele>
	<time>2023-11-18T07:21:22.000Z</time>
</trkpt>
<trkpt lat="45.8796480" lon="9.8382700">
	<ele>1160.20</ele>
	<time>2023-11-18T07:21:23.000Z</time>
</trkpt>
<trkpt lat="45.8796520" lon="9.8382620">
	<ele>1160.40</ele>
	<time>2023-11-18T07:21:24.000Z</time>
</trkpt>
<trkpt lat="45.8796590" lon="9.8382570">
	<ele>1160.40</ele>
	<time>2023-11-18T07:21:25.000Z</time>
</trkpt>
<trkpt lat="45.8796660" lon="9.8382540">
	<ele>1160.40</ele>
	<time>2023-11-18T07:21:26.000Z</time>
</trkpt>
<trkpt lat="45.8796730" lon="9.8382480">
	<ele>1160.40</ele>
	<time>2023-11-18T07:21:27.000Z</time>
</trkpt>
<trkpt lat="45.8796810" lon="9.8382400">
	<ele>1160.40</ele>
	<time>2023-11-18T07:21:28.000Z</time>
</trkpt>
<trkpt lat="45.8796870" lon="9.8382330">
	<ele>1160.60</ele>
	<time>2023-11-18T07:21:29.000Z</time>
</trkpt>
<trkpt lat="45.8796900" lon="9.8382260">
	<ele>1160.80</ele>
	<time>2023-11-18T07:21:30.000Z</time>
</trkpt>
<trkpt lat="45.8796910" lon="9.8382210">
	<ele>1161.00</ele>
	<time>2023-11-18T07:21:31.000Z</time>
</trkpt>
<trkpt lat="45.8796930" lon="9.8382190">
	<ele>1161.00</ele>
	<time>2023-11-18T07:21:32.000Z</time>
</trkpt>
<trkpt lat="45.8796950" lon="9.8382150">
	<ele>1161.20</ele>
	<time>2023-11-18T07:21:33.000Z</time>
</trkpt>
<trkpt lat="45.8796970" lon="9.8382110">
	<ele>1161.20</ele>
	<time>2023-11-18T07:21:34.000Z</time>
</trkpt>
<trkpt lat="45.8797010" lon="9.8382050">
	<ele>1161.20</ele>
	<time>2023-11-18T07:21:35.000Z</time>
</trkpt>
<trkpt lat="45.8797050" lon="9.8381950">
	<ele>1161.20</ele>
	<time>2023-11-18T07:21:36.000Z</time>
</trkpt>
<trkpt lat="45.8797120" lon="9.8381840">
	<ele>1161.20</ele>
	<time>2023-11-18T07:21:37.000Z</time>
</trkpt>
<trkpt lat="45.8797180" lon="9.8381780">
	<ele>1161.20</ele>
	<time>2023-11-18T07:21:38.000Z</time>
</trkpt>
<trkpt lat="45.8797240" lon="9.8381740">
	<ele>1161.40</ele>
	<time>2023-11-18T07:21:39.000Z</time>
</trkpt>
<trkpt lat="45.8797280" lon="9.8381690">
	<ele>1161.40</ele>
	<time>2023-11-18T07:21:40.000Z</time>
</trkpt>
<trkpt lat="45.8797310" lon="9.8381650">
	<ele>1161.40</ele>
	<time>2023-11-18T07:21:41.000Z</time>
</trkpt>
<trkpt lat="45.8797340" lon="9.8381600">
	<ele>1161.60</ele>
	<time>2023-11-18T07:21:42.000Z</time>
</trkpt>
<trkpt lat="45.8797360" lon="9.8381600">
	<ele>1161.60</ele>
	<time>2023-11-18T07:21:43.000Z</time>
</trkpt>
<trkpt lat="45.8797390" lon="9.8381600">
	<ele>1161.80</ele>
	<time>2023-11-18T07:21:44.000Z</time>
</trkpt>
<trkpt lat="45.8797410" lon="9.8381600">
	<ele>1161.80</ele>
	<time>2023-11-18T07:21:45.000Z</time>
</trkpt>
<trkpt lat="45.8797430" lon="9.8381570">
	<ele>1161.80</ele>
	<time>2023-11-18T07:21:46.000Z</time>
</trkpt>
<trkpt lat="45.8797420" lon="9.8381550">
	<ele>1161.80</ele>
	<time>2023-11-18T07:21:47.000Z</time>
</trkpt>
<trkpt lat="45.8797410" lon="9.8381540">
	<ele>1162.00</ele>
	<time>2023-11-18T07:21:48.000Z</time>
</trkpt>
<trkpt lat="45.8797410" lon="9.8381540">
	<ele>1162.00</ele>
	<time>2023-11-18T07:21:49.000Z</time>
</trkpt>
<trkpt lat="45.8797410" lon="9.8381550">
	<ele>1162.00</ele>
	<time>2023-11-18T07:21:50.000Z</time>
</trkpt>
<trkpt lat="45.8797400" lon="9.8381550">
	<ele>1162.00</ele>
	<time>2023-11-18T07:21:51.000Z</time>
</trkpt>
<trkpt lat="45.8797400" lon="9.8381550">
	<ele>1162.00</ele>
	<time>2023-11-18T07:21:52.000Z</time>
</trkpt>
<trkpt lat="45.8797400" lon="9.8381550">
	<ele>1162.00</ele>
	<time>2023-11-18T07:21:53.000Z</time>
</trkpt>
<trkpt lat="45.8797400" lon="9.8381550">
	<ele>1162.20</ele>
	<time>2023-11-18T07:21:54.000Z</time>
</trkpt>
<trkpt lat="45.8797400" lon="9.8381550">
	<ele>1162.20</ele>
	<time>2023-11-18T07:21:55.000Z</time>
</trkpt>
<trkpt lat="45.8797400" lon="9.8381550">
	<ele>1162.20</ele>
	<time>2023-11-18T07:21:56.000Z</time>
</trkpt>
<trkpt lat="45.8797400" lon="9.8381550">
	<ele>1162.20</ele>
	<time>2023-11-18T07:21:57.000Z</time>
</trkpt>
<trkpt lat="45.8797400" lon="9.8381550">
	<ele>1162.20</ele>
	<time>2023-11-18T07:21:58.000Z</time>
</trkpt>
<trkpt lat="45.8797400" lon="9.8381550">
	<ele>1162.20</ele>
	<time>2023-11-18T07:21:59.000Z</time>
</trkpt>
<trkpt lat="45.8797400" lon="9.8381550">
	<ele>1162.20</ele>
	<time>2023-11-18T07:22:00.000Z</time>
</trkpt>
<trkpt lat="45.8797400" lon="9.8381550">
	<ele>1162.20</ele>
	<time>2023-11-18T07:22:01.000Z</time>
</trkpt>
<trkpt lat="45.8797410" lon="9.8381550">
	<ele>1162.20</ele>
	<time>2023-11-18T07:22:02.000Z</time>
</trkpt>
<trkpt lat="45.8797410" lon="9.8381550">
	<ele>1162.20</ele>
	<time>2023-11-18T07:22:03.000Z</time>
</trkpt>
<trkpt lat="45.8797410" lon="9.8381550">
	<ele>1162.20</ele>
	<time>2023-11-18T07:22:04.000Z</time>
</trkpt>
<trkpt lat="45.8797410" lon="9.8381550">
	<ele>1162.40</ele>
	<time>2023-11-18T07:22:05.000Z</time>
</trkpt>
<trkpt lat="45.8797410" lon="9.8381550">
	<ele>1162.40</ele>
	<time>2023-11-18T07:22:06.000Z</time>
</trkpt>
<trkpt lat="45.8797470" lon="9.8381530">
	<ele>1162.60</ele>
	<time>2023-11-18T07:22:07.000Z</time>
</trkpt>
<trkpt lat="45.8797620" lon="9.8381440">
	<ele>1162.80</ele>
	<time>2023-11-18T07:22:08.000Z</time>
</trkpt>
<trkpt lat="45.8797750" lon="9.8381370">
	<ele>1162.80</ele>
	<time>2023-11-18T07:22:09.000Z</time>
</trkpt>
<trkpt lat="45.8797880" lon="9.8381320">
	<ele>1163.00</ele>
	<time>2023-11-18T07:22:10.000Z</time>
</trkpt>
<trkpt lat="45.8797980" lon="9.8381250">
	<ele>1163.00</ele>
	<time>2023-11-18T07:22:11.000Z</time>
</trkpt>
<trkpt lat="45.8798100" lon="9.8381150">
	<ele>1163.20</ele>
	<time>2023-11-18T07:22:12.000Z</time>
</trkpt>
<trkpt lat="45.8798240" lon="9.8381080">
	<ele>1163.20</ele>
	<time>2023-11-18T07:22:13.000Z</time>
</trkpt>
<trkpt lat="45.8798310" lon="9.8381050">
	<ele>1163.60</ele>
	<time>2023-11-18T07:22:14.000Z</time>
</trkpt>
<trkpt lat="45.8798380" lon="9.8380980">
	<ele>1163.60</ele>
	<time>2023-11-18T07:22:15.000Z</time>
</trkpt>
<trkpt lat="45.8798410" lon="9.8380880">
	<ele>1163.80</ele>
	<time>2023-11-18T07:22:16.000Z</time>
</trkpt>
<trkpt lat="45.8798450" lon="9.8380840">
	<ele>1164.00</ele>
	<time>2023-11-18T07:22:17.000Z</time>
</trkpt>
<trkpt lat="45.8798470" lon="9.8380760">
	<ele>1164.20</ele>
	<time>2023-11-18T07:22:18.000Z</time>
</trkpt>
<trkpt lat="45.8798540" lon="9.8380680">
	<ele>1164.40</ele>
	<time>2023-11-18T07:22:19.000Z</time>
</trkpt>
<trkpt lat="45.8798600" lon="9.8380660">
	<ele>1164.60</ele>
	<time>2023-11-18T07:22:20.000Z</time>
</trkpt>
<trkpt lat="45.8798650" lon="9.8380640">
	<ele>1164.80</ele>
	<time>2023-11-18T07:22:21.000Z</time>
</trkpt>
<trkpt lat="45.8798730" lon="9.8380630">
	<ele>1165.00</ele>
	<time>2023-11-18T07:22:22.000Z</time>
</trkpt>
<trkpt lat="45.8798810" lon="9.8380610">
	<ele>1165.20</ele>
	<time>2023-11-18T07:22:23.000Z</time>
</trkpt>
<trkpt lat="45.8798890" lon="9.8380610">
	<ele>1165.40</ele>
	<time>2023-11-18T07:22:24.000Z</time>
</trkpt>
<trkpt lat="45.8798940" lon="9.8380630">
	<ele>1165.40</ele>
	<time>2023-11-18T07:22:25.000Z</time>
</trkpt>
<trkpt lat="45.8799010" lon="9.8380660">
	<ele>1165.60</ele>
	<time>2023-11-18T07:22:26.000Z</time>
</trkpt>
<trkpt lat="45.8799080" lon="9.8380660">
	<ele>1165.60</ele>
	<time>2023-11-18T07:22:27.000Z</time>
</trkpt>
<trkpt lat="45.8799160" lon="9.8380670">
	<ele>1165.80</ele>
	<time>2023-11-18T07:22:28.000Z</time>
</trkpt>
<trkpt lat="45.8799220" lon="9.8380670">
	<ele>1166.00</ele>
	<time>2023-11-18T07:22:29.000Z</time>
</trkpt>
<trkpt lat="45.8799280" lon="9.8380630">
	<ele>1166.00</ele>
	<time>2023-11-18T07:22:30.000Z</time>
</trkpt>
<trkpt lat="45.8799330" lon="9.8380580">
	<ele>1166.20</ele>
	<time>2023-11-18T07:22:31.000Z</time>
</trkpt>
<trkpt lat="45.8799370" lon="9.8380560">
	<ele>1166.40</ele>
	<time>2023-11-18T07:22:32.000Z</time>
</trkpt>
<trkpt lat="45.8799430" lon="9.8380530">
	<ele>1166.60</ele>
	<time>2023-11-18T07:22:33.000Z</time>
</trkpt>
<trkpt lat="45.8799490" lon="9.8380520">
	<ele>1166.80</ele>
	<time>2023-11-18T07:22:34.000Z</time>
</trkpt>
<trkpt lat="45.8799520" lon="9.8380470">
	<ele>1166.80</ele>
	<time>2023-11-18T07:22:35.000Z</time>
</trkpt>
<trkpt lat="45.8799590" lon="9.8380490">
	<ele>1167.00</ele>
	<time>2023-11-18T07:22:36.000Z</time>
</trkpt>
<trkpt lat="45.8799670" lon="9.8380500">
	<ele>1167.20</ele>
	<time>2023-11-18T07:22:37.000Z</time>
</trkpt>
<trkpt lat="45.8799760" lon="9.8380510">
	<ele>1167.20</ele>
	<time>2023-11-18T07:22:38.000Z</time>
</trkpt>
<trkpt lat="45.8799810" lon="9.8380500">
	<ele>1167.40</ele>
	<time>2023-11-18T07:22:39.000Z</time>
</trkpt>
<trkpt lat="45.8799820" lon="9.8380480">
	<ele>1167.60</ele>
	<time>2023-11-18T07:22:40.000Z</time>
</trkpt>
<trkpt lat="45.8799840" lon="9.8380440">
	<ele>1168.00</ele>
	<time>2023-11-18T07:22:41.000Z</time>
</trkpt>
<trkpt lat="45.8799860" lon="9.8380400">
	<ele>1168.20</ele>
	<time>2023-11-18T07:22:42.000Z</time>
</trkpt>
<trkpt lat="45.8799880" lon="9.8380370">
	<ele>1168.20</ele>
	<time>2023-11-18T07:22:43.000Z</time>
</trkpt>
<trkpt lat="45.8799910" lon="9.8380320">
	<ele>1168.40</ele>
	<time>2023-11-18T07:22:44.000Z</time>
</trkpt>
<trkpt lat="45.8799950" lon="9.8380260">
	<ele>1168.60</ele>
	<time>2023-11-18T07:22:45.000Z</time>
</trkpt>
<trkpt lat="45.8800020" lon="9.8380190">
	<ele>1168.80</ele>
	<time>2023-11-18T07:22:46.000Z</time>
</trkpt>
<trkpt lat="45.8800080" lon="9.8380160">
	<ele>1168.80</ele>
	<time>2023-11-18T07:22:47.000Z</time>
</trkpt>
<trkpt lat="45.8800110" lon="9.8380100">
	<ele>1169.00</ele>
	<time>2023-11-18T07:22:48.000Z</time>
</trkpt>
<trkpt lat="45.8800160" lon="9.8380080">
	<ele>1169.20</ele>
	<time>2023-11-18T07:22:49.000Z</time>
</trkpt>
<trkpt lat="45.8800210" lon="9.8380040">
	<ele>1169.40</ele>
	<time>2023-11-18T07:22:50.000Z</time>
</trkpt>
<trkpt lat="45.8800290" lon="9.8380030">
	<ele>1169.60</ele>
	<time>2023-11-18T07:22:51.000Z</time>
</trkpt>
<trkpt lat="45.8800400" lon="9.8379950">
	<ele>1169.60</ele>
	<time>2023-11-18T07:22:52.000Z</time>
</trkpt>
<trkpt lat="45.8800430" lon="9.8379920">
	<ele>1169.80</ele>
	<time>2023-11-18T07:22:53.000Z</time>
</trkpt>
<trkpt lat="45.8800440" lon="9.8379880">
	<ele>1170.20</ele>
	<time>2023-11-18T07:22:54.000Z</time>
</trkpt>
<trkpt lat="45.8800430" lon="9.8379860">
	<ele>1170.60</ele>
	<time>2023-11-18T07:22:55.000Z</time>
</trkpt>
<trkpt lat="45.8800430" lon="9.8379860">
	<ele>1170.80</ele>
	<time>2023-11-18T07:22:56.000Z</time>
</trkpt>
<trkpt lat="45.8800430" lon="9.8379870">
	<ele>1171.00</ele>
	<time>2023-11-18T07:22:57.000Z</time>
</trkpt>
<trkpt lat="45.8800440" lon="9.8379880">
	<ele>1171.00</ele>
	<time>2023-11-18T07:22:58.000Z</time>
</trkpt>
<trkpt lat="45.8800430" lon="9.8379890">
	<ele>1171.00</ele>
	<time>2023-11-18T07:22:59.000Z</time>
</trkpt>
<trkpt lat="45.8800440" lon="9.8379880">
	<ele>1171.00</ele>
	<time>2023-11-18T07:23:00.000Z</time>
</trkpt>
<trkpt lat="45.8800450" lon="9.8379870">
	<ele>1171.00</ele>
	<time>2023-11-18T07:23:01.000Z</time>
</trkpt>
<trkpt lat="45.8800450" lon="9.8379870">
	<ele>1171.00</ele>
	<time>2023-11-18T07:23:02.000Z</time>
</trkpt>
<trkpt lat="45.8800420" lon="9.8379820">
	<ele>1171.00</ele>
	<time>2023-11-18T07:23:03.000Z</time>
</trkpt>
<trkpt lat="45.8800440" lon="9.8379840">
	<ele>1171.00</ele>
	<time>2023-11-18T07:23:04.000Z</time>
</trkpt>
<trkpt lat="45.8800440" lon="9.8379840">
	<ele>1171.00</ele>
	<time>2023-11-18T07:23:05.000Z</time>
</trkpt>
<trkpt lat="45.8800440" lon="9.8379840">
	<ele>1171.00</ele>
	<time>2023-11-18T07:23:06.000Z</time>
</trkpt>
<trkpt lat="45.8800440" lon="9.8379840">
	<ele>1171.00</ele>
	<time>2023-11-18T07:23:07.000Z</time>
</trkpt>
<trkpt lat="45.8800440" lon="9.8379840">
	<ele>1171.00</ele>
	<time>2023-11-18T07:23:08.000Z</time>
</trkpt>
<trkpt lat="45.8800440" lon="9.8379840">
	<ele>1171.00</ele>
	<time>2023-11-18T07:23:09.000Z</time>
</trkpt>
<trkpt lat="45.8800440" lon="9.8379840">
	<ele>1171.20</ele>
	<time>2023-11-18T07:23:10.000Z</time>
</trkpt>
<trkpt lat="45.8800440" lon="9.8379840">
	<ele>1171.40</ele>
	<time>2023-11-18T07:23:11.000Z</time>
</trkpt>
<trkpt lat="45.8800440" lon="9.8379840">
	<ele>1171.60</ele>
	<time>2023-11-18T07:23:12.000Z</time>
</trkpt>
<trkpt lat="45.8800440" lon="9.8379840">
	<ele>1171.60</ele>
	<time>2023-11-18T07:23:13.000Z</time>
</trkpt>
<trkpt lat="45.8800440" lon="9.8379840">
	<ele>1171.80</ele>
	<time>2023-11-18T07:23:14.000Z</time>
</trkpt>
<trkpt lat="45.8800440" lon="9.8379840">
	<ele>1172.20</ele>
	<time>2023-11-18T07:23:15.000Z</time>
</trkpt>
<trkpt lat="45.8800440" lon="9.8379840">
	<ele>1172.40</ele>
	<time>2023-11-18T07:23:16.000Z</time>
</trkpt>
<trkpt lat="45.8800440" lon="9.8379840">
	<ele>1172.80</ele>
	<time>2023-11-18T07:23:17.000Z</time>
</trkpt>
<trkpt lat="45.8800440" lon="9.8379840">
	<ele>1173.00</ele>
	<time>2023-11-18T07:23:18.000Z</time>
</trkpt>
<trkpt lat="45.8800450" lon="9.8379840">
	<ele>1173.40</ele>
	<time>2023-11-18T07:23:19.000Z</time>
</trkpt>
<trkpt lat="45.8800450" lon="9.8379840">
	<ele>1173.40</ele>
	<time>2023-11-18T07:23:20.000Z</time>
</trkpt>
<trkpt lat="45.8800450" lon="9.8379840">
	<ele>1173.60</ele>
	<time>2023-11-18T07:23:21.000Z</time>
</trkpt>
<trkpt lat="45.8800490" lon="9.8379840">
	<ele>1173.80</ele>
	<time>2023-11-18T07:23:22.000Z</time>
</trkpt>
<trkpt lat="45.8800580" lon="9.8379760">
	<ele>1173.80</ele>
	<time>2023-11-18T07:23:23.000Z</time>
</trkpt>
<trkpt lat="45.8800760" lon="9.8379690">
	<ele>1174.00</ele>
	<time>2023-11-18T07:23:24.000Z</time>
</trkpt>
<trkpt lat="45.8800900" lon="9.8379590">
	<ele>1174.00</ele>
	<time>2023-11-18T07:23:25.000Z</time>
</trkpt>
<trkpt lat="45.8801010" lon="9.8379440">
	<ele>1174.20</ele>
	<time>2023-11-18T07:23:26.000Z</time>
</trkpt>
<trkpt lat="45.8801150" lon="9.8379280">
	<ele>1174.40</ele>
	<time>2023-11-18T07:23:27.000Z</time>
</trkpt>
<trkpt lat="45.8801270" lon="9.8379110">
	<ele>1174.60</ele>
	<time>2023-11-18T07:23:28.000Z</time>
</trkpt>
<trkpt lat="45.8801410" lon="9.8378930">
	<ele>1174.80</ele>
	<time>2023-11-18T07:23:29.000Z</time>
</trkpt>
<trkpt lat="45.8801560" lon="9.8378760">
	<ele>1175.00</ele>
	<time>2023-11-18T07:23:30.000Z</time>
</trkpt>
<trkpt lat="45.8801670" lon="9.8378620">
	<ele>1175.20</ele>
	<time>2023-11-18T07:23:31.000Z</time>
</trkpt>
<trkpt lat="45.8801770" lon="9.8378520">
	<ele>1175.40</ele>
	<time>2023-11-18T07:23:32.000Z</time>
</trkpt>
<trkpt lat="45.8801840" lon="9.8378490">
	<ele>1175.60</ele>
	<time>2023-11-18T07:23:33.000Z</time>
</trkpt>
<trkpt lat="45.8801910" lon="9.8378450">
	<ele>1175.80</ele>
	<time>2023-11-18T07:23:34.000Z</time>
</trkpt>
<trkpt lat="45.8801950" lon="9.8378380">
	<ele>1176.00</ele>
	<time>2023-11-18T07:23:35.000Z</time>
</trkpt>
<trkpt lat="45.8802000" lon="9.8378310">
	<ele>1176.20</ele>
	<time>2023-11-18T07:23:36.000Z</time>
</trkpt>
<trkpt lat="45.8802060" lon="9.8378300">
	<ele>1176.20</ele>
	<time>2023-11-18T07:23:37.000Z</time>
</trkpt>
<trkpt lat="45.8802130" lon="9.8378300">
	<ele>1176.40</ele>
	<time>2023-11-18T07:23:38.000Z</time>
</trkpt>
<trkpt lat="45.8802200" lon="9.8378320">
	<ele>1176.40</ele>
	<time>2023-11-18T07:23:39.000Z</time>
</trkpt>
<trkpt lat="45.8802280" lon="9.8378360">
	<ele>1176.60</ele>
	<time>2023-11-18T07:23:40.000Z</time>
</trkpt>
<trkpt lat="45.8802350" lon="9.8378310">
	<ele>1176.60</ele>
	<time>2023-11-18T07:23:41.000Z</time>
</trkpt>
<trkpt lat="45.8802410" lon="9.8378230">
	<ele>1177.00</ele>
	<time>2023-11-18T07:23:42.000Z</time>
</trkpt>
<trkpt lat="45.8802470" lon="9.8378170">
	<ele>1177.20</ele>
	<time>2023-11-18T07:23:43.000Z</time>
</trkpt>
<trkpt lat="45.8802520" lon="9.8378140">
	<ele>1177.60</ele>
	<time>2023-11-18T07:23:44.000Z</time>
</trkpt>
<trkpt lat="45.8802600" lon="9.8378100">
	<ele>1177.80</ele>
	<time>2023-11-18T07:23:45.000Z</time>
</trkpt>
<trkpt lat="45.8802700" lon="9.8378000">
	<ele>1178.00</ele>
	<time>2023-11-18T07:23:46.000Z</time>
</trkpt>
<trkpt lat="45.8802770" lon="9.8377900">
	<ele>1178.20</ele>
	<time>2023-11-18T07:23:47.000Z</time>
</trkpt>
<trkpt lat="45.8802810" lon="9.8377800">
	<ele>1178.40</ele>
	<time>2023-11-18T07:23:48.000Z</time>
</trkpt>
<trkpt lat="45.8802860" lon="9.8377720">
	<ele>1178.60</ele>
	<time>2023-11-18T07:23:49.000Z</time>
</trkpt>
<trkpt lat="45.8802890" lon="9.8377650">
	<ele>1178.60</ele>
	<time>2023-11-18T07:23:50.000Z</time>
</trkpt>
<trkpt lat="45.8802930" lon="9.8377680">
	<ele>1178.80</ele>
	<time>2023-11-18T07:23:51.000Z</time>
</trkpt>
<trkpt lat="45.8802960" lon="9.8377630">
	<ele>1179.00</ele>
	<time>2023-11-18T07:23:52.000Z</time>
</trkpt>
<trkpt lat="45.8803000" lon="9.8377540">
	<ele>1179.20</ele>
	<time>2023-11-18T07:23:53.000Z</time>
</trkpt>
<trkpt lat="45.8803060" lon="9.8377490">
	<ele>1179.20</ele>
	<time>2023-11-18T07:23:54.000Z</time>
</trkpt>
<trkpt lat="45.8803130" lon="9.8377450">
	<ele>1179.40</ele>
	<time>2023-11-18T07:23:55.000Z</time>
</trkpt>
<trkpt lat="45.8803210" lon="9.8377360">
	<ele>1179.60</ele>
	<time>2023-11-18T07:23:56.000Z</time>
</trkpt>
<trkpt lat="45.8803290" lon="9.8377230">
	<ele>1179.80</ele>
	<time>2023-11-18T07:23:57.000Z</time>
</trkpt>
<trkpt lat="45.8803320" lon="9.8377110">
	<ele>1179.80</ele>
	<time>2023-11-18T07:23:58.000Z</time>
</trkpt>
<trkpt lat="45.8803290" lon="9.8377000">
	<ele>1180.00</ele>
	<time>2023-11-18T07:23:59.000Z</time>
</trkpt>
<trkpt lat="45.8803280" lon="9.8376860">
	<ele>1180.20</ele>
	<time>2023-11-18T07:24:00.000Z</time>
</trkpt>
<trkpt lat="45.8803280" lon="9.8376740">
	<ele>1180.20</ele>
	<time>2023-11-18T07:24:01.000Z</time>
</trkpt>
<trkpt lat="45.8803310" lon="9.8376640">
	<ele>1180.40</ele>
	<time>2023-11-18T07:24:02.000Z</time>
</trkpt>
<trkpt lat="45.8803350" lon="9.8376550">
	<ele>1180.40</ele>
	<time>2023-11-18T07:24:03.000Z</time>
</trkpt>
<trkpt lat="45.8803380" lon="9.8376450">
	<ele>1180.60</ele>
	<time>2023-11-18T07:24:04.000Z</time>
</trkpt>
<trkpt lat="45.8803400" lon="9.8376330">
	<ele>1180.60</ele>
	<time>2023-11-18T07:24:05.000Z</time>
</trkpt>
<trkpt lat="45.8803430" lon="9.8376300">
	<ele>1180.80</ele>
	<time>2023-11-18T07:24:06.000Z</time>
</trkpt>
<trkpt lat="45.8803470" lon="9.8376280">
	<ele>1181.20</ele>
	<time>2023-11-18T07:24:07.000Z</time>
</trkpt>
<trkpt lat="45.8803530" lon="9.8376260">
	<ele>1181.40</ele>
	<time>2023-11-18T07:24:08.000Z</time>
</trkpt>
<trkpt lat="45.8803590" lon="9.8376210">
	<ele>1181.60</ele>
	<time>2023-11-18T07:24:09.000Z</time>
</trkpt>
<trkpt lat="45.8803630" lon="9.8376120">
	<ele>1181.60</ele>
	<time>2023-11-18T07:24:10.000Z</time>
</trkpt>
<trkpt lat="45.8803660" lon="9.8376020">
	<ele>1181.80</ele>
	<time>2023-11-18T07:24:11.000Z</time>
</trkpt>
<trkpt lat="45.8803690" lon="9.8375940">
	<ele>1182.00</ele>
	<time>2023-11-18T07:24:12.000Z</time>
</trkpt>
<trkpt lat="45.8803720" lon="9.8375840">
	<ele>1182.20</ele>
	<time>2023-11-18T07:24:13.000Z</time>
</trkpt>
<trkpt lat="45.8803760" lon="9.8375790">
	<ele>1182.20</ele>
	<time>2023-11-18T07:24:14.000Z</time>
</trkpt>
<trkpt lat="45.8803780" lon="9.8375730">
	<ele>1182.40</ele>
	<time>2023-11-18T07:24:15.000Z</time>
</trkpt>
<trkpt lat="45.8803810" lon="9.8375640">
	<ele>1182.60</ele>
	<time>2023-11-18T07:24:16.000Z</time>
</trkpt>
<trkpt lat="45.8803840" lon="9.8375540">
	<ele>1182.80</ele>
	<time>2023-11-18T07:24:17.000Z</time>
</trkpt>
<trkpt lat="45.8803890" lon="9.8375470">
	<ele>1182.80</ele>
	<time>2023-11-18T07:24:18.000Z</time>
</trkpt>
<trkpt lat="45.8803930" lon="9.8375400">
	<ele>1183.00</ele>
	<time>2023-11-18T07:24:19.000Z</time>
</trkpt>
<trkpt lat="45.8803960" lon="9.8375340">
	<ele>1183.20</ele>
	<time>2023-11-18T07:24:20.000Z</time>
</trkpt>
<trkpt lat="45.8803980" lon="9.8375260">
	<ele>1183.40</ele>
	<time>2023-11-18T07:24:21.000Z</time>
</trkpt>
<trkpt lat="45.8804040" lon="9.8375170">
	<ele>1183.60</ele>
	<time>2023-11-18T07:24:22.000Z</time>
</trkpt>
<trkpt lat="45.8804080" lon="9.8375120">
	<ele>1183.80</ele>
	<time>2023-11-18T07:24:23.000Z</time>
</trkpt>
<trkpt lat="45.8804140" lon="9.8375070">
	<ele>1184.00</ele>
	<time>2023-11-18T07:24:24.000Z</time>
</trkpt>
<trkpt lat="45.8804220" lon="9.8375050">
	<ele>1184.20</ele>
	<time>2023-11-18T07:24:25.000Z</time>
</trkpt>
<trkpt lat="45.8804280" lon="9.8375000">
	<ele>1184.40</ele>
	<time>2023-11-18T07:24:26.000Z</time>
</trkpt>
<trkpt lat="45.8804330" lon="9.8375000">
	<ele>1184.60</ele>
	<time>2023-11-18T07:24:27.000Z</time>
</trkpt>
<trkpt lat="45.8804370" lon="9.8374990">
	<ele>1184.80</ele>
	<time>2023-11-18T07:24:28.000Z</time>
</trkpt>
<trkpt lat="45.8804440" lon="9.8374970">
	<ele>1185.00</ele>
	<time>2023-11-18T07:24:29.000Z</time>
</trkpt>
<trkpt lat="45.8804490" lon="9.8374940">
	<ele>1185.20</ele>
	<time>2023-11-18T07:24:30.000Z</time>
</trkpt>
<trkpt lat="45.8804580" lon="9.8374880">
	<ele>1185.20</ele>
	<time>2023-11-18T07:24:31.000Z</time>
</trkpt>
<trkpt lat="45.8804660" lon="9.8374830">
	<ele>1185.40</ele>
	<time>2023-11-18T07:24:32.000Z</time>
</trkpt>
<trkpt lat="45.8804660" lon="9.8374720">
	<ele>1185.40</ele>
	<time>2023-11-18T07:24:33.000Z</time>
</trkpt>
<trkpt lat="45.8804670" lon="9.8374620">
	<ele>1185.60</ele>
	<time>2023-11-18T07:24:34.000Z</time>
</trkpt>
<trkpt lat="45.8804700" lon="9.8374550">
	<ele>1185.80</ele>
	<time>2023-11-18T07:24:35.000Z</time>
</trkpt>
<trkpt lat="45.8804720" lon="9.8374470">
	<ele>1185.80</ele>
	<time>2023-11-18T07:24:36.000Z</time>
</trkpt>
<trkpt lat="45.8804780" lon="9.8374390">
	<ele>1186.00</ele>
	<time>2023-11-18T07:24:37.000Z</time>
</trkpt>
<trkpt lat="45.8804800" lon="9.8374330">
	<ele>1186.20</ele>
	<time>2023-11-18T07:24:38.000Z</time>
</trkpt>
<trkpt lat="45.8804870" lon="9.8374300">
	<ele>1186.40</ele>
	<time>2023-11-18T07:24:39.000Z</time>
</trkpt>
<trkpt lat="45.8804940" lon="9.8374240">
	<ele>1186.60</ele>
	<time>2023-11-18T07:24:40.000Z</time>
</trkpt>
<trkpt lat="45.8805020" lon="9.8374200">
	<ele>1186.60</ele>
	<time>2023-11-18T07:24:41.000Z</time>
</trkpt>
<trkpt lat="45.8805120" lon="9.8374180">
	<ele>1186.60</ele>
	<time>2023-11-18T07:24:42.000Z</time>
</trkpt>
<trkpt lat="45.8805200" lon="9.8374140">
	<ele>1186.80</ele>
	<time>2023-11-18T07:24:43.000Z</time>
</trkpt>
<trkpt lat="45.8805250" lon="9.8374070">
	<ele>1187.00</ele>
	<time>2023-11-18T07:24:44.000Z</time>
</trkpt>
<trkpt lat="45.8805290" lon="9.8373980">
	<ele>1187.20</ele>
	<time>2023-11-18T07:24:45.000Z</time>
</trkpt>
<trkpt lat="45.8805360" lon="9.8373890">
	<ele>1187.40</ele>
	<time>2023-11-18T07:24:46.000Z</time>
</trkpt>
<trkpt lat="45.8805400" lon="9.8373780">
	<ele>1187.40</ele>
	<time>2023-11-18T07:24:47.000Z</time>
</trkpt>
<trkpt lat="45.8805420" lon="9.8373650">
	<ele>1187.60</ele>
	<time>2023-11-18T07:24:48.000Z</time>
</trkpt>
<trkpt lat="45.8805430" lon="9.8373530">
	<ele>1187.80</ele>
	<time>2023-11-18T07:24:49.000Z</time>
</trkpt>
<trkpt lat="45.8805420" lon="9.8373420">
	<ele>1188.00</ele>
	<time>2023-11-18T07:24:50.000Z</time>
</trkpt>
<trkpt lat="45.8805440" lon="9.8373380">
	<ele>1188.20</ele>
	<time>2023-11-18T07:24:51.000Z</time>
</trkpt>
<trkpt lat="45.8805470" lon="9.8373330">
	<ele>1188.20</ele>
	<time>2023-11-18T07:24:52.000Z</time>
</trkpt>
<trkpt lat="45.8805520" lon="9.8373300">
	<ele>1188.40</ele>
	<time>2023-11-18T07:24:53.000Z</time>
</trkpt>
<trkpt lat="45.8805580" lon="9.8373300">
	<ele>1188.40</ele>
	<time>2023-11-18T07:24:54.000Z</time>
</trkpt>
<trkpt lat="45.8805630" lon="9.8373330">
	<ele>1188.40</ele>
	<time>2023-11-18T07:24:55.000Z</time>
</trkpt>
<trkpt lat="45.8805700" lon="9.8373330">
	<ele>1188.40</ele>
	<time>2023-11-18T07:24:56.000Z</time>
</trkpt>
<trkpt lat="45.8805790" lon="9.8373280">
	<ele>1188.60</ele>
	<time>2023-11-18T07:24:57.000Z</time>
</trkpt>
<trkpt lat="45.8805850" lon="9.8373220">
	<ele>1189.00</ele>
	<time>2023-11-18T07:24:58.000Z</time>
</trkpt>
<trkpt lat="45.8805910" lon="9.8373140">
	<ele>1189.20</ele>
	<time>2023-11-18T07:24:59.000Z</time>
</trkpt>
<trkpt lat="45.8805980" lon="9.8373020">
	<ele>1189.60</ele>
	<time>2023-11-18T07:25:00.000Z</time>
</trkpt>
<trkpt lat="45.8806020" lon="9.8372970">
	<ele>1189.80</ele>
	<time>2023-11-18T07:25:01.000Z</time>
</trkpt>
<trkpt lat="45.8806020" lon="9.8372910">
	<ele>1190.00</ele>
	<time>2023-11-18T07:25:02.000Z</time>
</trkpt>
<trkpt lat="45.8806030" lon="9.8372830">
	<ele>1190.00</ele>
	<time>2023-11-18T07:25:03.000Z</time>
</trkpt>
<trkpt lat="45.8806070" lon="9.8372750">
	<ele>1190.20</ele>
	<time>2023-11-18T07:25:04.000Z</time>
</trkpt>
<trkpt lat="45.8806110" lon="9.8372680">
	<ele>1190.40</ele>
	<time>2023-11-18T07:25:05.000Z</time>
</trkpt>
<trkpt lat="45.8806150" lon="9.8372600">
	<ele>1190.40</ele>
	<time>2023-11-18T07:25:06.000Z</time>
</trkpt>
<trkpt lat="45.8806170" lon="9.8372540">
	<ele>1190.60</ele>
	<time>2023-11-18T07:25:07.000Z</time>
</trkpt>
<trkpt lat="45.8806190" lon="9.8372450">
	<ele>1190.60</ele>
	<time>2023-11-18T07:25:08.000Z</time>
</trkpt>
<trkpt lat="45.8806180" lon="9.8372390">
	<ele>1190.80</ele>
	<time>2023-11-18T07:25:09.000Z</time>
</trkpt>
<trkpt lat="45.8806210" lon="9.8372320">
	<ele>1190.80</ele>
	<time>2023-11-18T07:25:10.000Z</time>
</trkpt>
<trkpt lat="45.8806250" lon="9.8372200">
	<ele>1191.20</ele>
	<time>2023-11-18T07:25:11.000Z</time>
</trkpt>
<trkpt lat="45.8806330" lon="9.8372080">
	<ele>1191.20</ele>
	<time>2023-11-18T07:25:12.000Z</time>
</trkpt>
<trkpt lat="45.8806380" lon="9.8371960">
	<ele>1191.40</ele>
	<time>2023-11-18T07:25:13.000Z</time>
</trkpt>
<trkpt lat="45.8806380" lon="9.8371850">
	<ele>1191.60</ele>
	<time>2023-11-18T07:25:14.000Z</time>
</trkpt>
<trkpt lat="45.8806400" lon="9.8371730">
	<ele>1191.60</ele>
	<time>2023-11-18T07:25:15.000Z</time>
</trkpt>
<trkpt lat="45.8806440" lon="9.8371630">
	<ele>1191.60</ele>
	<time>2023-11-18T07:25:16.000Z</time>
</trkpt>
<trkpt lat="45.8806510" lon="9.8371570">
	<ele>1191.80</ele>
	<time>2023-11-18T07:25:17.000Z</time>
</trkpt>
<trkpt lat="45.8806570" lon="9.8371470">
	<ele>1191.80</ele>
	<time>2023-11-18T07:25:18.000Z</time>
</trkpt>
<trkpt lat="45.8806620" lon="9.8371380">
	<ele>1192.00</ele>
	<time>2023-11-18T07:25:19.000Z</time>
</trkpt>
<trkpt lat="45.8806670" lon="9.8371280">
	<ele>1192.20</ele>
	<time>2023-11-18T07:25:20.000Z</time>
</trkpt>
<trkpt lat="45.8806710" lon="9.8371230">
	<ele>1192.20</ele>
	<time>2023-11-18T07:25:21.000Z</time>
</trkpt>
<trkpt lat="45.8806760" lon="9.8371210">
	<ele>1192.40</ele>
	<time>2023-11-18T07:25:22.000Z</time>
</trkpt>
<trkpt lat="45.8806820" lon="9.8371170">
	<ele>1192.40</ele>
	<time>2023-11-18T07:25:23.000Z</time>
</trkpt>
<trkpt lat="45.8806880" lon="9.8371160">
	<ele>1192.80</ele>
	<time>2023-11-18T07:25:24.000Z</time>
</trkpt>
<trkpt lat="45.8806930" lon="9.8371120">
	<ele>1193.00</ele>
	<time>2023-11-18T07:25:25.000Z</time>
</trkpt>
<trkpt lat="45.8807010" lon="9.8371070">
	<ele>1193.00</ele>
	<time>2023-11-18T07:25:26.000Z</time>
</trkpt>
<trkpt lat="45.8807060" lon="9.8371000">
	<ele>1193.20</ele>
	<time>2023-11-18T07:25:27.000Z</time>
</trkpt>
<trkpt lat="45.8807090" lon="9.8370890">
	<ele>1193.20</ele>
	<time>2023-11-18T07:25:28.000Z</time>
</trkpt>
<trkpt lat="45.8807150" lon="9.8370830">
	<ele>1193.40</ele>
	<time>2023-11-18T07:25:29.000Z</time>
</trkpt>
<trkpt lat="45.8807190" lon="9.8370780">
	<ele>1193.60</ele>
	<time>2023-11-18T07:25:30.000Z</time>
</trkpt>
<trkpt lat="45.8807220" lon="9.8370670">
	<ele>1193.80</ele>
	<time>2023-11-18T07:25:31.000Z</time>
</trkpt>
<trkpt lat="45.8807260" lon="9.8370600">
	<ele>1194.00</ele>
	<time>2023-11-18T07:25:32.000Z</time>
</trkpt>
<trkpt lat="45.8807310" lon="9.8370520">
	<ele>1194.00</ele>
	<time>2023-11-18T07:25:33.000Z</time>
</trkpt>
<trkpt lat="45.8807330" lon="9.8370480">
	<ele>1194.20</ele>
	<time>2023-11-18T07:25:34.000Z</time>
</trkpt>
<trkpt lat="45.8807320" lon="9.8370390">
	<ele>1194.40</ele>
	<time>2023-11-18T07:25:35.000Z</time>
</trkpt>
<trkpt lat="45.8807320" lon="9.8370310">
	<ele>1194.40</ele>
	<time>2023-11-18T07:25:36.000Z</time>
</trkpt>
<trkpt lat="45.8807360" lon="9.8370250">
	<ele>1194.60</ele>
	<time>2023-11-18T07:25:37.000Z</time>
</trkpt>
<trkpt lat="45.8807430" lon="9.8370200">
	<ele>1194.80</ele>
	<time>2023-11-18T07:25:38.000Z</time>
</trkpt>
<trkpt lat="45.8807470" lon="9.8370100">
	<ele>1195.20</ele>
	<time>2023-11-18T07:25:39.000Z</time>
</trkpt>
<trkpt lat="45.8807540" lon="9.8370020">
	<ele>1195.40</ele>
	<time>2023-11-18T07:25:40.000Z</time>
</trkpt>
<trkpt lat="45.8807600" lon="9.8369990">
	<ele>1195.60</ele>
	<time>2023-11-18T07:25:41.000Z</time>
</trkpt>
<trkpt lat="45.8807640" lon="9.8369950">
	<ele>1195.80</ele>
	<time>2023-11-18T07:25:42.000Z</time>
</trkpt>
<trkpt lat="45.8807680" lon="9.8369860">
	<ele>1195.80</ele>
	<time>2023-11-18T07:25:43.000Z</time>
</trkpt>
<trkpt lat="45.8807720" lon="9.8369810">
	<ele>1196.00</ele>
	<time>2023-11-18T07:25:44.000Z</time>
</trkpt>
<trkpt lat="45.8807740" lon="9.8369740">
	<ele>1196.20</ele>
	<time>2023-11-18T07:25:45.000Z</time>
</trkpt>
<trkpt lat="45.8807780" lon="9.8369660">
	<ele>1196.40</ele>
	<time>2023-11-18T07:25:46.000Z</time>
</trkpt>
<trkpt lat="45.8807830" lon="9.8369590">
	<ele>1196.40</ele>
	<time>2023-11-18T07:25:47.000Z</time>
</trkpt>
<trkpt lat="45.8807840" lon="9.8369510">
	<ele>1196.80</ele>
	<time>2023-11-18T07:25:48.000Z</time>
</trkpt>
<trkpt lat="45.8807880" lon="9.8369470">
	<ele>1197.00</ele>
	<time>2023-11-18T07:25:49.000Z</time>
</trkpt>
<trkpt lat="45.8807910" lon="9.8369400">
	<ele>1197.00</ele>
	<time>2023-11-18T07:25:50.000Z</time>
</trkpt>
<trkpt lat="45.8807950" lon="9.8369340">
	<ele>1197.20</ele>
	<time>2023-11-18T07:25:51.000Z</time>
</trkpt>
<trkpt lat="45.8807980" lon="9.8369260">
	<ele>1197.40</ele>
	<time>2023-11-18T07:25:52.000Z</time>
</trkpt>
<trkpt lat="45.8808010" lon="9.8369180">
	<ele>1197.60</ele>
	<time>2023-11-18T07:25:53.000Z</time>
</trkpt>
<trkpt lat="45.8808100" lon="9.8369090">
	<ele>1197.80</ele>
	<time>2023-11-18T07:25:54.000Z</time>
</trkpt>
<trkpt lat="45.8808150" lon="9.8369010">
	<ele>1197.80</ele>
	<time>2023-11-18T07:25:55.000Z</time>
</trkpt>
<trkpt lat="45.8808190" lon="9.8368910">
	<ele>1198.00</ele>
	<time>2023-11-18T07:25:56.000Z</time>
</trkpt>
<trkpt lat="45.8808200" lon="9.8368800">
	<ele>1198.20</ele>
	<time>2023-11-18T07:25:57.000Z</time>
</trkpt>
<trkpt lat="45.8808240" lon="9.8368700">
	<ele>1198.40</ele>
	<time>2023-11-18T07:25:58.000Z</time>
</trkpt>
<trkpt lat="45.8808290" lon="9.8368600">
	<ele>1198.60</ele>
	<time>2023-11-18T07:25:59.000Z</time>
</trkpt>
<trkpt lat="45.8808310" lon="9.8368500">
	<ele>1198.80</ele>
	<time>2023-11-18T07:26:00.000Z</time>
</trkpt>
<trkpt lat="45.8808350" lon="9.8368410">
	<ele>1199.00</ele>
	<time>2023-11-18T07:26:01.000Z</time>
</trkpt>
<trkpt lat="45.8808410" lon="9.8368310">
	<ele>1199.00</ele>
	<time>2023-11-18T07:26:02.000Z</time>
</trkpt>
<trkpt lat="45.8808450" lon="9.8368220">
	<ele>1199.20</ele>
	<time>2023-11-18T07:26:03.000Z</time>
</trkpt>
<trkpt lat="45.8808450" lon="9.8368120">
	<ele>1199.20</ele>
	<time>2023-11-18T07:26:04.000Z</time>
</trkpt>
<trkpt lat="45.8808440" lon="9.8368030">
	<ele>1199.40</ele>
	<time>2023-11-18T07:26:05.000Z</time>
</trkpt>
<trkpt lat="45.8808480" lon="9.8367980">
	<ele>1199.60</ele>
	<time>2023-11-18T07:26:06.000Z</time>
</trkpt>
<trkpt lat="45.8808570" lon="9.8367940">
	<ele>1199.60</ele>
	<time>2023-11-18T07:26:07.000Z</time>
</trkpt>
<trkpt lat="45.8808640" lon="9.8367890">
	<ele>1199.80</ele>
	<time>2023-11-18T07:26:08.000Z</time>
</trkpt>
<trkpt lat="45.8808690" lon="9.8367840">
	<ele>1200.00</ele>
	<time>2023-11-18T07:26:09.000Z</time>
</trkpt>
<trkpt lat="45.8808750" lon="9.8367780">
	<ele>1200.20</ele>
	<time>2023-11-18T07:26:10.000Z</time>
</trkpt>
<trkpt lat="45.8808810" lon="9.8367700">
	<ele>1200.40</ele>
	<time>2023-11-18T07:26:11.000Z</time>
</trkpt>
<trkpt lat="45.8808850" lon="9.8367590">
	<ele>1200.40</ele>
	<time>2023-11-18T07:26:12.000Z</time>
</trkpt>
<trkpt lat="45.8808910" lon="9.8367490">
	<ele>1200.60</ele>
	<time>2023-11-18T07:26:13.000Z</time>
</trkpt>
<trkpt lat="45.8808990" lon="9.8367380">
	<ele>1200.60</ele>
	<time>2023-11-18T07:26:14.000Z</time>
</trkpt>
<trkpt lat="45.8809030" lon="9.8367300">
	<ele>1200.80</ele>
	<time>2023-11-18T07:26:15.000Z</time>
</trkpt>
<trkpt lat="45.8809050" lon="9.8367210">
	<ele>1200.80</ele>
	<time>2023-11-18T07:26:16.000Z</time>
</trkpt>
<trkpt lat="45.8809080" lon="9.8367090">
	<ele>1200.80</ele>
	<time>2023-11-18T07:26:17.000Z</time>
</trkpt>
<trkpt lat="45.8809130" lon="9.8367030">
	<ele>1201.00</ele>
	<time>2023-11-18T07:26:18.000Z</time>
</trkpt>
<trkpt lat="45.8809210" lon="9.8366980">
	<ele>1201.20</ele>
	<time>2023-11-18T07:26:19.000Z</time>
</trkpt>
<trkpt lat="45.8809250" lon="9.8366910">
	<ele>1201.40</ele>
	<time>2023-11-18T07:26:20.000Z</time>
</trkpt>
<trkpt lat="45.8809280" lon="9.8366820">
	<ele>1201.40</ele>
	<time>2023-11-18T07:26:21.000Z</time>
</trkpt>
<trkpt lat="45.8809330" lon="9.8366710">
	<ele>1201.80</ele>
	<time>2023-11-18T07:26:22.000Z</time>
</trkpt>
<trkpt lat="45.8809340" lon="9.8366610">
	<ele>1201.80</ele>
	<time>2023-11-18T07:26:23.000Z</time>
</trkpt>
<trkpt lat="45.8809360" lon="9.8366470">
	<ele>1202.00</ele>
	<time>2023-11-18T07:26:24.000Z</time>
</trkpt>
<trkpt lat="45.8809380" lon="9.8366320">
	<ele>1202.00</ele>
	<time>2023-11-18T07:26:25.000Z</time>
</trkpt>
<trkpt lat="45.8809380" lon="9.8366210">
	<ele>1202.20</ele>
	<time>2023-11-18T07:26:26.000Z</time>
</trkpt>
<trkpt lat="45.8809380" lon="9.8366100">
	<ele>1202.20</ele>
	<time>2023-11-18T07:26:27.000Z</time>
</trkpt>
<trkpt lat="45.8809390" lon="9.8366020">
	<ele>1202.20</ele>
	<time>2023-11-18T07:26:28.000Z</time>
</trkpt>
<trkpt lat="45.8809390" lon="9.8365920">
	<ele>1202.40</ele>
	<time>2023-11-18T07:26:29.000Z</time>
</trkpt>
<trkpt lat="45.8809430" lon="9.8365840">
	<ele>1202.60</ele>
	<time>2023-11-18T07:26:30.000Z</time>
</trkpt>
<trkpt lat="45.8809500" lon="9.8365770">
	<ele>1202.60</ele>
	<time>2023-11-18T07:26:31.000Z</time>
</trkpt>
<trkpt lat="45.8809530" lon="9.8365710">
	<ele>1202.80</ele>
	<time>2023-11-18T07:26:32.000Z</time>
</trkpt>
<trkpt lat="45.8809570" lon="9.8365650">
	<ele>1203.00</ele>
	<time>2023-11-18T07:26:33.000Z</time>
</trkpt>
<trkpt lat="45.8809680" lon="9.8365590">
	<ele>1203.40</ele>
	<time>2023-11-18T07:26:34.000Z</time>
</trkpt>
<trkpt lat="45.8809770" lon="9.8365550">
	<ele>1203.60</ele>
	<time>2023-11-18T07:26:35.000Z</time>
</trkpt>
<trkpt lat="45.8809860" lon="9.8365530">
	<ele>1203.80</ele>
	<time>2023-11-18T07:26:36.000Z</time>
</trkpt>
<trkpt lat="45.8809960" lon="9.8365480">
	<ele>1204.00</ele>
	<time>2023-11-18T07:26:37.000Z</time>
</trkpt>
<trkpt lat="45.8810010" lon="9.8365420">
	<ele>1204.00</ele>
	<time>2023-11-18T07:26:38.000Z</time>
</trkpt>
<trkpt lat="45.8810040" lon="9.8365380">
	<ele>1204.20</ele>
	<time>2023-11-18T07:26:39.000Z</time>
</trkpt>
<trkpt lat="45.8810040" lon="9.8365300">
	<ele>1204.40</ele>
	<time>2023-11-18T07:26:40.000Z</time>
</trkpt>
<trkpt lat="45.8810050" lon="9.8365250">
	<ele>1204.40</ele>
	<time>2023-11-18T07:26:41.000Z</time>
</trkpt>
<trkpt lat="45.8810090" lon="9.8365210">
	<ele>1204.80</ele>
	<time>2023-11-18T07:26:42.000Z</time>
</trkpt>
<trkpt lat="45.8810120" lon="9.8365190">
	<ele>1204.80</ele>
	<time>2023-11-18T07:26:43.000Z</time>
</trkpt>
<trkpt lat="45.8810130" lon="9.8365180">
	<ele>1205.00</ele>
	<time>2023-11-18T07:26:44.000Z</time>
</trkpt>
<trkpt lat="45.8810160" lon="9.8365170">
	<ele>1205.00</ele>
	<time>2023-11-18T07:26:45.000Z</time>
</trkpt>
<trkpt lat="45.8810170" lon="9.8365180">
	<ele>1205.00</ele>
	<time>2023-11-18T07:26:46.000Z</time>
</trkpt>
<trkpt lat="45.8810160" lon="9.8365190">
	<ele>1205.00</ele>
	<time>2023-11-18T07:26:47.000Z</time>
</trkpt>
<trkpt lat="45.8810150" lon="9.8365190">
	<ele>1205.40</ele>
	<time>2023-11-18T07:26:48.000Z</time>
</trkpt>
<trkpt lat="45.8810150" lon="9.8365180">
	<ele>1205.40</ele>
	<time>2023-11-18T07:26:49.000Z</time>
</trkpt>
<trkpt lat="45.8810110" lon="9.8365170">
	<ele>1205.60</ele>
	<time>2023-11-18T07:26:50.000Z</time>
</trkpt>
<trkpt lat="45.8810090" lon="9.8365150">
	<ele>1205.60</ele>
	<time>2023-11-18T07:26:51.000Z</time>
</trkpt>
<trkpt lat="45.8810090" lon="9.8365100">
	<ele>1205.60</ele>
	<time>2023-11-18T07:26:52.000Z</time>
</trkpt>
<trkpt lat="45.8810110" lon="9.8365040">
	<ele>1205.60</ele>
	<time>2023-11-18T07:26:53.000Z</time>
</trkpt>
<trkpt lat="45.8810120" lon="9.8364970">
	<ele>1205.60</ele>
	<time>2023-11-18T07:26:54.000Z</time>
</trkpt>
<trkpt lat="45.8810160" lon="9.8364900">
	<ele>1205.60</ele>
	<time>2023-11-18T07:26:55.000Z</time>
</trkpt>
<trkpt lat="45.8810220" lon="9.8364840">
	<ele>1205.60</ele>
	<time>2023-11-18T07:26:56.000Z</time>
</trkpt>
<trkpt lat="45.8810270" lon="9.8364790">
	<ele>1205.80</ele>
	<time>2023-11-18T07:26:57.000Z</time>
</trkpt>
<trkpt lat="45.8810300" lon="9.8364710">
	<ele>1205.80</ele>
	<time>2023-11-18T07:26:58.000Z</time>
</trkpt>
<trkpt lat="45.8810330" lon="9.8364680">
	<ele>1205.80</ele>
	<time>2023-11-18T07:26:59.000Z</time>
</trkpt>
<trkpt lat="45.8810370" lon="9.8364670">
	<ele>1206.00</ele>
	<time>2023-11-18T07:27:00.000Z</time>
</trkpt>
<trkpt lat="45.8810370" lon="9.8364660">
	<ele>1206.20</ele>
	<time>2023-11-18T07:27:01.000Z</time>
</trkpt>
<trkpt lat="45.8810370" lon="9.8364740">
	<ele>1206.40</ele>
	<time>2023-11-18T07:27:02.000Z</time>
</trkpt>
<trkpt lat="45.8810390" lon="9.8364770">
	<ele>1206.60</ele>
	<time>2023-11-18T07:27:03.000Z</time>
</trkpt>
<trkpt lat="45.8810410" lon="9.8364770">
	<ele>1206.60</ele>
	<time>2023-11-18T07:27:04.000Z</time>
</trkpt>
<trkpt lat="45.8810430" lon="9.8364790">
	<ele>1206.80</ele>
	<time>2023-11-18T07:27:05.000Z</time>
</trkpt>
<trkpt lat="45.8810420" lon="9.8364790">
	<ele>1206.80</ele>
	<time>2023-11-18T07:27:06.000Z</time>
</trkpt>
<trkpt lat="45.8810420" lon="9.8364790">
	<ele>1207.00</ele>
	<time>2023-11-18T07:27:07.000Z</time>
</trkpt>
<trkpt lat="45.8810420" lon="9.8364790">
	<ele>1207.00</ele>
	<time>2023-11-18T07:27:08.000Z</time>
</trkpt>
<trkpt lat="45.8810420" lon="9.8364790">
	<ele>1207.00</ele>
	<time>2023-11-18T07:27:09.000Z</time>
</trkpt>
<trkpt lat="45.8810420" lon="9.8364790">
	<ele>1207.00</ele>
	<time>2023-11-18T07:27:10.000Z</time>
</trkpt>
<trkpt lat="45.8810420" lon="9.8364790">
	<ele>1207.00</ele>
	<time>2023-11-18T07:27:11.000Z</time>
</trkpt>
<trkpt lat="45.8810420" lon="9.8364790">
	<ele>1207.00</ele>
	<time>2023-11-18T07:27:12.000Z</time>
</trkpt>
<trkpt lat="45.8810420" lon="9.8364790">
	<ele>1206.80</ele>
	<time>2023-11-18T07:27:13.000Z</time>
</trkpt>
<trkpt lat="45.8810420" lon="9.8364790">
	<ele>1206.80</ele>
	<time>2023-11-18T07:27:14.000Z</time>
</trkpt>
<trkpt lat="45.8810420" lon="9.8364790">
	<ele>1206.80</ele>
	<time>2023-11-18T07:27:15.000Z</time>
</trkpt>
<trkpt lat="45.8810420" lon="9.8364790">
	<ele>1206.80</ele>
	<time>2023-11-18T07:27:16.000Z</time>
</trkpt>
<trkpt lat="45.8810420" lon="9.8364790">
	<ele>1206.80</ele>
	<time>2023-11-18T07:27:17.000Z</time>
</trkpt>
<trkpt lat="45.8810420" lon="9.8364790">
	<ele>1206.80</ele>
	<time>2023-11-18T07:27:18.000Z</time>
</trkpt>
<trkpt lat="45.8810420" lon="9.8364790">
	<ele>1207.00</ele>
	<time>2023-11-18T07:27:19.000Z</time>
</trkpt>
<trkpt lat="45.8810420" lon="9.8364790">
	<ele>1207.00</ele>
	<time>2023-11-18T07:27:20.000Z</time>
</trkpt>
<trkpt lat="45.8810430" lon="9.8364790">
	<ele>1207.00</ele>
	<time>2023-11-18T07:27:21.000Z</time>
</trkpt>
<trkpt lat="45.8810430" lon="9.8364800">
	<ele>1207.00</ele>
	<time>2023-11-18T07:27:22.000Z</time>
</trkpt>
<trkpt lat="45.8810430" lon="9.8364810">
	<ele>1207.00</ele>
	<time>2023-11-18T07:27:23.000Z</time>
</trkpt>
<trkpt lat="45.8810430" lon="9.8364840">
	<ele>1207.00</ele>
	<time>2023-11-18T07:27:24.000Z</time>
</trkpt>
<trkpt lat="45.8810440" lon="9.8364860">
	<ele>1207.00</ele>
	<time>2023-11-18T07:27:25.000Z</time>
</trkpt>
<trkpt lat="45.8810450" lon="9.8364910">
	<ele>1207.00</ele>
	<time>2023-11-18T07:27:26.000Z</time>
</trkpt>
<trkpt lat="45.8810470" lon="9.8364920">
	<ele>1207.00</ele>
	<time>2023-11-18T07:27:27.000Z</time>
</trkpt>
<trkpt lat="45.8810520" lon="9.8364930">
	<ele>1207.00</ele>
	<time>2023-11-18T07:27:28.000Z</time>
</trkpt>
<trkpt lat="45.8810550" lon="9.8364950">
	<ele>1207.20</ele>
	<time>2023-11-18T07:27:29.000Z</time>
</trkpt>
<trkpt lat="45.8810580" lon="9.8365010">
	<ele>1207.20</ele>
	<time>2023-11-18T07:27:30.000Z</time>
</trkpt>
<trkpt lat="45.8810590" lon="9.8365050">
	<ele>1207.20</ele>
	<time>2023-11-18T07:27:31.000Z</time>
</trkpt>
<trkpt lat="45.8810600" lon="9.8365080">
	<ele>1207.20</ele>
	<time>2023-11-18T07:27:32.000Z</time>
</trkpt>
<trkpt lat="45.8810600" lon="9.8365090">
	<ele>1207.20</ele>
	<time>2023-11-18T07:27:33.000Z</time>
</trkpt>
<trkpt lat="45.8810600" lon="9.8365090">
	<ele>1207.00</ele>
	<time>2023-11-18T07:27:34.000Z</time>
</trkpt>
<trkpt lat="45.8810600" lon="9.8365090">
	<ele>1207.00</ele>
	<time>2023-11-18T07:27:35.000Z</time>
</trkpt>
<trkpt lat="45.8810600" lon="9.8365090">
	<ele>1206.80</ele>
	<time>2023-11-18T07:27:36.000Z</time>
</trkpt>
<trkpt lat="45.8810600" lon="9.8365090">
	<ele>1206.60</ele>
	<time>2023-11-18T07:27:37.000Z</time>
</trkpt>
<trkpt lat="45.8810600" lon="9.8365090">
	<ele>1206.60</ele>
	<time>2023-11-18T07:27:38.000Z</time>
</trkpt>
<trkpt lat="45.8810600" lon="9.8365090">
	<ele>1206.60</ele>
	<time>2023-11-18T07:27:39.000Z</time>
</trkpt>
<trkpt lat="45.8810600" lon="9.8365090">
	<ele>1206.60</ele>
	<time>2023-11-18T07:27:40.000Z</time>
</trkpt>
<trkpt lat="45.8810600" lon="9.8365110">
	<ele>1206.60</ele>
	<time>2023-11-18T07:27:41.000Z</time>
</trkpt>
<trkpt lat="45.8810600" lon="9.8365110">
	<ele>1206.60</ele>
	<time>2023-11-18T07:27:42.000Z</time>
</trkpt>
<trkpt lat="45.8810600" lon="9.8365120">
	<ele>1207.00</ele>
	<time>2023-11-18T07:27:43.000Z</time>
</trkpt>
<trkpt lat="45.8810600" lon="9.8365130">
	<ele>1207.00</ele>
	<time>2023-11-18T07:27:44.000Z</time>
</trkpt>
<trkpt lat="45.8810600" lon="9.8365130">
	<ele>1207.20</ele>
	<time>2023-11-18T07:27:45.000Z</time>
</trkpt>
<trkpt lat="45.8810600" lon="9.8365130">
	<ele>1207.20</ele>
	<time>2023-11-18T07:27:46.000Z</time>
</trkpt>
<trkpt lat="45.8810570" lon="9.8365130">
	<ele>1207.40</ele>
	<time>2023-11-18T07:27:47.000Z</time>
</trkpt>
<trkpt lat="45.8810560" lon="9.8365130">
	<ele>1207.40</ele>
	<time>2023-11-18T07:27:48.000Z</time>
</trkpt>
<trkpt lat="45.8810560" lon="9.8365140">
	<ele>1207.60</ele>
	<time>2023-11-18T07:27:49.000Z</time>
</trkpt>
<trkpt lat="45.8810560" lon="9.8365140">
	<ele>1207.60</ele>
	<time>2023-11-18T07:27:50.000Z</time>
</trkpt>
<trkpt lat="45.8810560" lon="9.8365150">
	<ele>1207.60</ele>
	<time>2023-11-18T07:27:51.000Z</time>
</trkpt>
<trkpt lat="45.8810580" lon="9.8365240">
	<ele>1207.80</ele>
	<time>2023-11-18T07:27:52.000Z</time>
</trkpt>
<trkpt lat="45.8810640" lon="9.8365450">
	<ele>1207.80</ele>
	<time>2023-11-18T07:27:53.000Z</time>
</trkpt>
<trkpt lat="45.8810710" lon="9.8365670">
	<ele>1207.80</ele>
	<time>2023-11-18T07:27:54.000Z</time>
</trkpt>
<trkpt lat="45.8810780" lon="9.8365870">
	<ele>1208.00</ele>
	<time>2023-11-18T07:27:55.000Z</time>
</trkpt>
<trkpt lat="45.8810860" lon="9.8366070">
	<ele>1208.00</ele>
	<time>2023-11-18T07:27:56.000Z</time>
</trkpt>
<trkpt lat="45.8810940" lon="9.8366260">
	<ele>1208.20</ele>
	<time>2023-11-18T07:27:57.000Z</time>
</trkpt>
<trkpt lat="45.8810990" lon="9.8366470">
	<ele>1208.40</ele>
	<time>2023-11-18T07:27:58.000Z</time>
</trkpt>
<trkpt lat="45.8811060" lon="9.8366630">
	<ele>1208.40</ele>
	<time>2023-11-18T07:27:59.000Z</time>
</trkpt>
<trkpt lat="45.8811110" lon="9.8366780">
	<ele>1208.60</ele>
	<time>2023-11-18T07:28:00.000Z</time>
</trkpt>
<trkpt lat="45.8811160" lon="9.8366880">
	<ele>1208.80</ele>
	<time>2023-11-18T07:28:01.000Z</time>
</trkpt>
<trkpt lat="45.8811170" lon="9.8366900">
	<ele>1208.80</ele>
	<time>2023-11-18T07:28:02.000Z</time>
</trkpt>
<trkpt lat="45.8811180" lon="9.8366900">
	<ele>1209.00</ele>
	<time>2023-11-18T07:28:03.000Z</time>
</trkpt>
<trkpt lat="45.8811190" lon="9.8366920">
	<ele>1209.20</ele>
	<time>2023-11-18T07:28:04.000Z</time>
</trkpt>
<trkpt lat="45.8811200" lon="9.8366990">
	<ele>1209.40</ele>
	<time>2023-11-18T07:28:05.000Z</time>
</trkpt>
<trkpt lat="45.8811230" lon="9.8367060">
	<ele>1209.40</ele>
	<time>2023-11-18T07:28:06.000Z</time>
</trkpt>
<trkpt lat="45.8811250" lon="9.8367110">
	<ele>1209.60</ele>
	<time>2023-11-18T07:28:07.000Z</time>
</trkpt>
<trkpt lat="45.8811270" lon="9.8367150">
	<ele>1210.00</ele>
	<time>2023-11-18T07:28:08.000Z</time>
</trkpt>
<trkpt lat="45.8811320" lon="9.8367210">
	<ele>1210.20</ele>
	<time>2023-11-18T07:28:09.000Z</time>
</trkpt>
<trkpt lat="45.8811290" lon="9.8367250">
	<ele>1210.40</ele>
	<time>2023-11-18T07:28:10.000Z</time>
</trkpt>
<trkpt lat="45.8811260" lon="9.8367290">
	<ele>1210.40</ele>
	<time>2023-11-18T07:28:11.000Z</time>
</trkpt>
<trkpt lat="45.8811280" lon="9.8367380">
	<ele>1210.40</ele>
	<time>2023-11-18T07:28:12.000Z</time>
</trkpt>
<trkpt lat="45.8811300" lon="9.8367430">
	<ele>1210.60</ele>
	<time>2023-11-18T07:28:13.000Z</time>
</trkpt>
<trkpt lat="45.8811310" lon="9.8367520">
	<ele>1210.80</ele>
	<time>2023-11-18T07:28:14.000Z</time>
</trkpt>
<trkpt lat="45.8811330" lon="9.8367610">
	<ele>1211.00</ele>
	<time>2023-11-18T07:28:15.000Z</time>
</trkpt>
<trkpt lat="45.8811340" lon="9.8367730">
	<ele>1211.00</ele>
	<time>2023-11-18T07:28:16.000Z</time>
</trkpt>
<trkpt lat="45.8811360" lon="9.8367840">
	<ele>1211.20</ele>
	<time>2023-11-18T07:28:17.000Z</time>
</trkpt>
<trkpt lat="45.8811350" lon="9.8367940">
	<ele>1211.20</ele>
	<time>2023-11-18T07:28:18.000Z</time>
</trkpt>
<trkpt lat="45.8811360" lon="9.8367990">
	<ele>1211.20</ele>
	<time>2023-11-18T07:28:19.000Z</time>
</trkpt>
<trkpt lat="45.8811380" lon="9.8368000">
	<ele>1211.20</ele>
	<time>2023-11-18T07:28:20.000Z</time>
</trkpt>
<trkpt lat="45.8811380" lon="9.8368010">
	<ele>1211.40</ele>
	<time>2023-11-18T07:28:21.000Z</time>
</trkpt>
<trkpt lat="45.8811380" lon="9.8368020">
	<ele>1211.60</ele>
	<time>2023-11-18T07:28:22.000Z</time>
</trkpt>
<trkpt lat="45.8811370" lon="9.8368030">
	<ele>1211.60</ele>
	<time>2023-11-18T07:28:23.000Z</time>
</trkpt>
<trkpt lat="45.8811360" lon="9.8368030">
	<ele>1211.60</ele>
	<time>2023-11-18T07:28:24.000Z</time>
</trkpt>
<trkpt lat="45.8811350" lon="9.8368030">
	<ele>1211.80</ele>
	<time>2023-11-18T07:28:25.000Z</time>
</trkpt>
<trkpt lat="45.8811350" lon="9.8368040">
	<ele>1211.80</ele>
	<time>2023-11-18T07:28:26.000Z</time>
</trkpt>
<trkpt lat="45.8811360" lon="9.8368060">
	<ele>1211.80</ele>
	<time>2023-11-18T07:28:27.000Z</time>
</trkpt>
<trkpt lat="45.8811380" lon="9.8368050">
	<ele>1211.80</ele>
	<time>2023-11-18T07:28:28.000Z</time>
</trkpt>
<trkpt lat="45.8811430" lon="9.8368060">
	<ele>1211.80</ele>
	<time>2023-11-18T07:28:29.000Z</time>
</trkpt>
<trkpt lat="45.8811460" lon="9.8368060">
	<ele>1211.80</ele>
	<time>2023-11-18T07:28:30.000Z</time>
</trkpt>
<trkpt lat="45.8811520" lon="9.8368070">
	<ele>1212.00</ele>
	<time>2023-11-18T07:28:31.000Z</time>
</trkpt>
<trkpt lat="45.8811620" lon="9.8368090">
	<ele>1212.00</ele>
	<time>2023-11-18T07:28:32.000Z</time>
</trkpt>
<trkpt lat="45.8811660" lon="9.8368060">
	<ele>1212.00</ele>
	<time>2023-11-18T07:28:33.000Z</time>
</trkpt>
<trkpt lat="45.8811670" lon="9.8368030">
	<ele>1212.00</ele>
	<time>2023-11-18T07:28:34.000Z</time>
</trkpt>
<trkpt lat="45.8811720" lon="9.8367990">
	<ele>1212.20</ele>
	<time>2023-11-18T07:28:35.000Z</time>
</trkpt>
<trkpt lat="45.8811750" lon="9.8367980">
	<ele>1212.40</ele>
	<time>2023-11-18T07:28:36.000Z</time>
</trkpt>
<trkpt lat="45.8811810" lon="9.8368010">
	<ele>1212.40</ele>
	<time>2023-11-18T07:28:37.000Z</time>
</trkpt>
<trkpt lat="45.8811880" lon="9.8368050">
	<ele>1212.60</ele>
	<time>2023-11-18T07:28:38.000Z</time>
</trkpt>
<trkpt lat="45.8811910" lon="9.8368040">
	<ele>1212.80</ele>
	<time>2023-11-18T07:28:39.000Z</time>
</trkpt>
<trkpt lat="45.8811920" lon="9.8368020">
	<ele>1213.00</ele>
	<time>2023-11-18T07:28:40.000Z</time>
</trkpt>
<trkpt lat="45.8811920" lon="9.8368010">
	<ele>1213.20</ele>
	<time>2023-11-18T07:28:41.000Z</time>
</trkpt>
<trkpt lat="45.8811910" lon="9.8368010">
	<ele>1213.20</ele>
	<time>2023-11-18T07:28:42.000Z</time>
</trkpt>
<trkpt lat="45.8811900" lon="9.8368010">
	<ele>1213.20</ele>
	<time>2023-11-18T07:28:43.000Z</time>
</trkpt>
<trkpt lat="45.8811890" lon="9.8368010">
	<ele>1213.20</ele>
	<time>2023-11-18T07:28:44.000Z</time>
</trkpt>
<trkpt lat="45.8811880" lon="9.8368000">
	<ele>1213.20</ele>
	<time>2023-11-18T07:28:45.000Z</time>
</trkpt>
<trkpt lat="45.8811880" lon="9.8367990">
	<ele>1213.20</ele>
	<time>2023-11-18T07:28:46.000Z</time>
</trkpt>
<trkpt lat="45.8811880" lon="9.8367990">
	<ele>1213.40</ele>
	<time>2023-11-18T07:28:47.000Z</time>
</trkpt>
<trkpt lat="45.8811880" lon="9.8368000">
	<ele>1213.40</ele>
	<time>2023-11-18T07:28:48.000Z</time>
</trkpt>
<trkpt lat="45.8811880" lon="9.8367990">
	<ele>1213.40</ele>
	<time>2023-11-18T07:28:49.000Z</time>
</trkpt>
<trkpt lat="45.8811890" lon="9.8367970">
	<ele>1213.40</ele>
	<time>2023-11-18T07:28:50.000Z</time>
</trkpt>
<trkpt lat="45.8811890" lon="9.8367930">
	<ele>1213.20</ele>
	<time>2023-11-18T07:28:51.000Z</time>
</trkpt>
<trkpt lat="45.8811860" lon="9.8368000">
	<ele>1213.20</ele>
	<time>2023-11-18T07:28:52.000Z</time>
</trkpt>
<trkpt lat="45.8811840" lon="9.8368040">
	<ele>1213.20</ele>
	<time>2023-11-18T07:28:53.000Z</time>
</trkpt>
<trkpt lat="45.8811840" lon="9.8368010">
	<ele>1213.20</ele>
	<time>2023-11-18T07:28:54.000Z</time>
</trkpt>
<trkpt lat="45.8811840" lon="9.8367990">
	<ele>1213.20</ele>
	<time>2023-11-18T07:28:55.000Z</time>
</trkpt>
<trkpt lat="45.8811850" lon="9.8367980">
	<ele>1213.20</ele>
	<time>2023-11-18T07:28:56.000Z</time>
</trkpt>
<trkpt lat="45.8811850" lon="9.8367980">
	<ele>1213.20</ele>
	<time>2023-11-18T07:28:57.000Z</time>
</trkpt>
<trkpt lat="45.8811850" lon="9.8367980">
	<ele>1213.20</ele>
	<time>2023-11-18T07:28:58.000Z</time>
</trkpt>
<trkpt lat="45.8811850" lon="9.8367980">
	<ele>1213.20</ele>
	<time>2023-11-18T07:28:59.000Z</time>
</trkpt>
<trkpt lat="45.8811850" lon="9.8367980">
	<ele>1213.20</ele>
	<time>2023-11-18T07:29:00.000Z</time>
</trkpt>
<trkpt lat="45.8811850" lon="9.8367980">
	<ele>1213.20</ele>
	<time>2023-11-18T07:29:01.000Z</time>
</trkpt>
<trkpt lat="45.8811850" lon="9.8367980">
	<ele>1213.20</ele>
	<time>2023-11-18T07:29:02.000Z</time>
</trkpt>
<trkpt lat="45.8811850" lon="9.8367980">
	<ele>1213.40</ele>
	<time>2023-11-18T07:29:03.000Z</time>
</trkpt>
<trkpt lat="45.8811850" lon="9.8367980">
	<ele>1213.40</ele>
	<time>2023-11-18T07:29:04.000Z</time>
</trkpt>
<trkpt lat="45.8811850" lon="9.8367980">
	<ele>1213.40</ele>
	<time>2023-11-18T07:29:05.000Z</time>
</trkpt>
<trkpt lat="45.8811850" lon="9.8367980">
	<ele>1213.80</ele>
	<time>2023-11-18T07:29:06.000Z</time>
</trkpt>
<trkpt lat="45.8811850" lon="9.8367980">
	<ele>1214.00</ele>
	<time>2023-11-18T07:29:07.000Z</time>
</trkpt>
<trkpt lat="45.8811850" lon="9.8367980">
	<ele>1214.00</ele>
	<time>2023-11-18T07:29:08.000Z</time>
</trkpt>
<trkpt lat="45.8811850" lon="9.8367990">
	<ele>1214.20</ele>
	<time>2023-11-18T07:29:09.000Z</time>
</trkpt>
<trkpt lat="45.8811850" lon="9.8367990">
	<ele>1214.20</ele>
	<time>2023-11-18T07:29:10.000Z</time>
</trkpt>
<trkpt lat="45.8811860" lon="9.8368000">
	<ele>1214.40</ele>
	<time>2023-11-18T07:29:11.000Z</time>
</trkpt>
<trkpt lat="45.8811870" lon="9.8368000">
	<ele>1214.40</ele>
	<time>2023-11-18T07:29:12.000Z</time>
</trkpt>
<trkpt lat="45.8811880" lon="9.8368000">
	<ele>1214.60</ele>
	<time>2023-11-18T07:29:13.000Z</time>
</trkpt>
<trkpt lat="45.8811880" lon="9.8368010">
	<ele>1214.60</ele>
	<time>2023-11-18T07:29:14.000Z</time>
</trkpt>
<trkpt lat="45.8811890" lon="9.8368140">
	<ele>1214.60</ele>
	<time>2023-11-18T07:29:15.000Z</time>
</trkpt>
<trkpt lat="45.8811880" lon="9.8368370">
	<ele>1214.80</ele>
	<time>2023-11-18T07:29:16.000Z</time>
</trkpt>
<trkpt lat="45.8811880" lon="9.8368610">
	<ele>1214.80</ele>
	<time>2023-11-18T07:29:17.000Z</time>
</trkpt>
<trkpt lat="45.8811910" lon="9.8368850">
	<ele>1215.00</ele>
	<time>2023-11-18T07:29:18.000Z</time>
</trkpt>
<trkpt lat="45.8811930" lon="9.8369090">
	<ele>1215.20</ele>
	<time>2023-11-18T07:29:19.000Z</time>
</trkpt>
<trkpt lat="45.8811940" lon="9.8369340">
	<ele>1215.40</ele>
	<time>2023-11-18T07:29:20.000Z</time>
</trkpt>
<trkpt lat="45.8811940" lon="9.8369600">
	<ele>1215.40</ele>
	<time>2023-11-18T07:29:21.000Z</time>
</trkpt>
<trkpt lat="45.8811940" lon="9.8369840">
	<ele>1215.60</ele>
	<time>2023-11-18T07:29:22.000Z</time>
</trkpt>
<trkpt lat="45.8811950" lon="9.8370070">
	<ele>1215.60</ele>
	<time>2023-11-18T07:29:23.000Z</time>
</trkpt>
<trkpt lat="45.8812000" lon="9.8370310">
	<ele>1215.80</ele>
	<time>2023-11-18T07:29:24.000Z</time>
</trkpt>
<trkpt lat="45.8812020" lon="9.8370400">
	<ele>1215.80</ele>
	<time>2023-11-18T07:29:25.000Z</time>
</trkpt>
<trkpt lat="45.8812030" lon="9.8370490">
	<ele>1216.00</ele>
	<time>2023-11-18T07:29:26.000Z</time>
</trkpt>
<trkpt lat="45.8812030" lon="9.8370600">
	<ele>1216.00</ele>
	<time>2023-11-18T07:29:27.000Z</time>
</trkpt>
<trkpt lat="45.8812030" lon="9.8370740">
	<ele>1216.20</ele>
	<time>2023-11-18T07:29:28.000Z</time>
</trkpt>
<trkpt lat="45.8812030" lon="9.8370880">
	<ele>1216.20</ele>
	<time>2023-11-18T07:29:29.000Z</time>
</trkpt>
<trkpt lat="45.8812040" lon="9.8370990">
	<ele>1216.20</ele>
	<time>2023-11-18T07:29:30.000Z</time>
</trkpt>
<trkpt lat="45.8812030" lon="9.8371100">
	<ele>1216.20</ele>
	<time>2023-11-18T07:29:31.000Z</time>
</trkpt>
<trkpt lat="45.8812040" lon="9.8371200">
	<ele>1216.40</ele>
	<time>2023-11-18T07:29:32.000Z</time>
</trkpt>
<trkpt lat="45.8812060" lon="9.8371270">
	<ele>1216.60</ele>
	<time>2023-11-18T07:29:33.000Z</time>
</trkpt>
<trkpt lat="45.8812040" lon="9.8371340">
	<ele>1216.80</ele>
	<time>2023-11-18T07:29:34.000Z</time>
</trkpt>
<trkpt lat="45.8812030" lon="9.8371470">
	<ele>1217.00</ele>
	<time>2023-11-18T07:29:35.000Z</time>
</trkpt>
<trkpt lat="45.8812030" lon="9.8371580">
	<ele>1217.20</ele>
	<time>2023-11-18T07:29:36.000Z</time>
</trkpt>
<trkpt lat="45.8812040" lon="9.8371650">
	<ele>1217.40</ele>
	<time>2023-11-18T07:29:37.000Z</time>
</trkpt>
<trkpt lat="45.8812040" lon="9.8371740">
	<ele>1217.60</ele>
	<time>2023-11-18T07:29:38.000Z</time>
</trkpt>
<trkpt lat="45.8812040" lon="9.8371840">
	<ele>1217.60</ele>
	<time>2023-11-18T07:29:39.000Z</time>
</trkpt>
<trkpt lat="45.8812050" lon="9.8371920">
	<ele>1217.80</ele>
	<time>2023-11-18T07:29:40.000Z</time>
</trkpt>
<trkpt lat="45.8812020" lon="9.8372010">
	<ele>1217.80</ele>
	<time>2023-11-18T07:29:41.000Z</time>
</trkpt>
<trkpt lat="45.8811970" lon="9.8372150">
	<ele>1218.00</ele>
	<time>2023-11-18T07:29:42.000Z</time>
</trkpt>
<trkpt lat="45.8811940" lon="9.8372290">
	<ele>1218.00</ele>
	<time>2023-11-18T07:29:43.000Z</time>
</trkpt>
<trkpt lat="45.8811940" lon="9.8372400">
	<ele>1218.20</ele>
	<time>2023-11-18T07:29:44.000Z</time>
</trkpt>
<trkpt lat="45.8811940" lon="9.8372510">
	<ele>1218.20</ele>
	<time>2023-11-18T07:29:45.000Z</time>
</trkpt>
<trkpt lat="45.8811960" lon="9.8372660">
	<ele>1218.40</ele>
	<time>2023-11-18T07:29:46.000Z</time>
</trkpt>
<trkpt lat="45.8811960" lon="9.8372750">
	<ele>1218.60</ele>
	<time>2023-11-18T07:29:47.000Z</time>
</trkpt>
<trkpt lat="45.8811970" lon="9.8372850">
	<ele>1218.60</ele>
	<time>2023-11-18T07:29:48.000Z</time>
</trkpt>
<trkpt lat="45.8811940" lon="9.8372910">
	<ele>1218.60</ele>
	<time>2023-11-18T07:29:49.000Z</time>
</trkpt>
<trkpt lat="45.8811930" lon="9.8372990">
	<ele>1218.80</ele>
	<time>2023-11-18T07:29:50.000Z</time>
</trkpt>
<trkpt lat="45.8811950" lon="9.8373120">
	<ele>1219.00</ele>
	<time>2023-11-18T07:29:51.000Z</time>
</trkpt>
<trkpt lat="45.8811980" lon="9.8373250">
	<ele>1219.20</ele>
	<time>2023-11-18T07:29:52.000Z</time>
</trkpt>
<trkpt lat="45.8812040" lon="9.8373350">
	<ele>1219.40</ele>
	<time>2023-11-18T07:29:53.000Z</time>
</trkpt>
<trkpt lat="45.8812080" lon="9.8373450">
	<ele>1219.60</ele>
	<time>2023-11-18T07:29:54.000Z</time>
</trkpt>
<trkpt lat="45.8812130" lon="9.8373530">
	<ele>1219.80</ele>
	<time>2023-11-18T07:29:55.000Z</time>
</trkpt>
<trkpt lat="45.8812150" lon="9.8373620">
	<ele>1220.00</ele>
	<time>2023-11-18T07:29:56.000Z</time>
</trkpt>
<trkpt lat="45.8812190" lon="9.8373700">
	<ele>1220.00</ele>
	<time>2023-11-18T07:29:57.000Z</time>
</trkpt>
<trkpt lat="45.8812210" lon="9.8373850">
	<ele>1220.20</ele>
	<time>2023-11-18T07:29:58.000Z</time>
</trkpt>
<trkpt lat="45.8812220" lon="9.8373980">
	<ele>1220.40</ele>
	<time>2023-11-18T07:29:59.000Z</time>
</trkpt>
<trkpt lat="45.8812250" lon="9.8374110">
	<ele>1220.60</ele>
	<time>2023-11-18T07:30:00.000Z</time>
</trkpt>
<trkpt lat="45.8812270" lon="9.8374240">
	<ele>1220.80</ele>
	<time>2023-11-18T07:30:01.000Z</time>
</trkpt>
<trkpt lat="45.8812300" lon="9.8374390">
	<ele>1220.80</ele>
	<time>2023-11-18T07:30:02.000Z</time>
</trkpt>
<trkpt lat="45.8812330" lon="9.8374510">
	<ele>1220.80</ele>
	<time>2023-11-18T07:30:03.000Z</time>
</trkpt>
<trkpt lat="45.8812370" lon="9.8374600">
	<ele>1221.00</ele>
	<time>2023-11-18T07:30:04.000Z</time>
</trkpt>
<trkpt lat="45.8812400" lon="9.8374690">
	<ele>1221.00</ele>
	<time>2023-11-18T07:30:05.000Z</time>
</trkpt>
<trkpt lat="45.8812400" lon="9.8374780">
	<ele>1221.20</ele>
	<time>2023-11-18T07:30:06.000Z</time>
</trkpt>
<trkpt lat="45.8812400" lon="9.8374870">
	<ele>1221.40</ele>
	<time>2023-11-18T07:30:07.000Z</time>
</trkpt>
<trkpt lat="45.8812400" lon="9.8374950">
	<ele>1221.80</ele>
	<time>2023-11-18T07:30:08.000Z</time>
</trkpt>
<trkpt lat="45.8812450" lon="9.8375020">
	<ele>1221.80</ele>
	<time>2023-11-18T07:30:09.000Z</time>
</trkpt>
<trkpt lat="45.8812510" lon="9.8375100">
	<ele>1222.00</ele>
	<time>2023-11-18T07:30:10.000Z</time>
</trkpt>
<trkpt lat="45.8812530" lon="9.8375200">
	<ele>1222.20</ele>
	<time>2023-11-18T07:30:11.000Z</time>
</trkpt>
<trkpt lat="45.8812560" lon="9.8375280">
	<ele>1222.40</ele>
	<time>2023-11-18T07:30:12.000Z</time>
</trkpt>
<trkpt lat="45.8812580" lon="9.8375320">
	<ele>1222.40</ele>
	<time>2023-11-18T07:30:13.000Z</time>
</trkpt>
<trkpt lat="45.8812620" lon="9.8375390">
	<ele>1222.60</ele>
	<time>2023-11-18T07:30:14.000Z</time>
</trkpt>
<trkpt lat="45.8812620" lon="9.8375490">
	<ele>1222.80</ele>
	<time>2023-11-18T07:30:15.000Z</time>
</trkpt>
<trkpt lat="45.8812610" lon="9.8375550">
	<ele>1222.80</ele>
	<time>2023-11-18T07:30:16.000Z</time>
</trkpt>
<trkpt lat="45.8812600" lon="9.8375640">
	<ele>1223.20</ele>
	<time>2023-11-18T07:30:17.000Z</time>
</trkpt>
<trkpt lat="45.8812590" lon="9.8375780">
	<ele>1223.40</ele>
	<time>2023-11-18T07:30:18.000Z</time>
</trkpt>
<trkpt lat="45.8812580" lon="9.8375930">
	<ele>1223.60</ele>
	<time>2023-11-18T07:30:19.000Z</time>
</trkpt>
<trkpt lat="45.8812580" lon="9.8376080">
	<ele>1223.80</ele>
	<time>2023-11-18T07:30:20.000Z</time>
</trkpt>
<trkpt lat="45.8812570" lon="9.8376190">
	<ele>1224.00</ele>
	<time>2023-11-18T07:30:21.000Z</time>
</trkpt>
<trkpt lat="45.8812540" lon="9.8376290">
	<ele>1224.20</ele>
	<time>2023-11-18T07:30:22.000Z</time>
</trkpt>
<trkpt lat="45.8812500" lon="9.8376410">
	<ele>1224.20</ele>
	<time>2023-11-18T07:30:23.000Z</time>
</trkpt>
<trkpt lat="45.8812480" lon="9.8376550">
	<ele>1224.20</ele>
	<time>2023-11-18T07:30:24.000Z</time>
</trkpt>
<trkpt lat="45.8812470" lon="9.8376690">
	<ele>1224.20</ele>
	<time>2023-11-18T07:30:25.000Z</time>
</trkpt>
<trkpt lat="45.8812490" lon="9.8376800">
	<ele>1224.40</ele>
	<time>2023-11-18T07:30:26.000Z</time>
</trkpt>
<trkpt lat="45.8812500" lon="9.8376900">
	<ele>1224.60</ele>
	<time>2023-11-18T07:30:27.000Z</time>
</trkpt>
<trkpt lat="45.8812520" lon="9.8377030">
	<ele>1224.60</ele>
	<time>2023-11-18T07:30:28.000Z</time>
</trkpt>
<trkpt lat="45.8812530" lon="9.8377120">
	<ele>1224.80</ele>
	<time>2023-11-18T07:30:29.000Z</time>
</trkpt>
<trkpt lat="45.8812530" lon="9.8377210">
	<ele>1225.00</ele>
	<time>2023-11-18T07:30:30.000Z</time>
</trkpt>
<trkpt lat="45.8812540" lon="9.8377330">
	<ele>1225.00</ele>
	<time>2023-11-18T07:30:31.000Z</time>
</trkpt>
<trkpt lat="45.8812550" lon="9.8377450">
	<ele>1225.20</ele>
	<time>2023-11-18T07:30:32.000Z</time>
</trkpt>
<trkpt lat="45.8812550" lon="9.8377590">
	<ele>1225.40</ele>
	<time>2023-11-18T07:30:33.000Z</time>
</trkpt>
<trkpt lat="45.8812550" lon="9.8377710">
	<ele>1225.40</ele>
	<time>2023-11-18T07:30:34.000Z</time>
</trkpt>
<trkpt lat="45.8812530" lon="9.8377780">
	<ele>1225.60</ele>
	<time>2023-11-18T07:30:35.000Z</time>
</trkpt>
<trkpt lat="45.8812540" lon="9.8377860">
	<ele>1225.60</ele>
	<time>2023-11-18T07:30:36.000Z</time>
</trkpt>
<trkpt lat="45.8812580" lon="9.8377960">
	<ele>1225.80</ele>
	<time>2023-11-18T07:30:37.000Z</time>
</trkpt>
<trkpt lat="45.8812630" lon="9.8378090">
	<ele>1226.00</ele>
	<time>2023-11-18T07:30:38.000Z</time>
</trkpt>
<trkpt lat="45.8812670" lon="9.8378190">
	<ele>1226.00</ele>
	<time>2023-11-18T07:30:39.000Z</time>
</trkpt>
<trkpt lat="45.8812690" lon="9.8378270">
	<ele>1226.00</ele>
	<time>2023-11-18T07:30:40.000Z</time>
</trkpt>
<trkpt lat="45.8812700" lon="9.8378380">
	<ele>1226.20</ele>
	<time>2023-11-18T07:30:41.000Z</time>
</trkpt>
<trkpt lat="45.8812700" lon="9.8378510">
	<ele>1226.40</ele>
	<time>2023-11-18T07:30:42.000Z</time>
</trkpt>
<trkpt lat="45.8812700" lon="9.8378620">
	<ele>1226.60</ele>
	<time>2023-11-18T07:30:43.000Z</time>
</trkpt>
<trkpt lat="45.8812680" lon="9.8378740">
	<ele>1226.60</ele>
	<time>2023-11-18T07:30:44.000Z</time>
</trkpt>
<trkpt lat="45.8812660" lon="9.8378860">
	<ele>1226.80</ele>
	<time>2023-11-18T07:30:45.000Z</time>
</trkpt>
<trkpt lat="45.8812640" lon="9.8378950">
	<ele>1226.80</ele>
	<time>2023-11-18T07:30:46.000Z</time>
</trkpt>
<trkpt lat="45.8812620" lon="9.8379050">
	<ele>1227.00</ele>
	<time>2023-11-18T07:30:47.000Z</time>
</trkpt>
<trkpt lat="45.8812610" lon="9.8379170">
	<ele>1227.20</ele>
	<time>2023-11-18T07:30:48.000Z</time>
</trkpt>
<trkpt lat="45.8812620" lon="9.8379310">
	<ele>1227.40</ele>
	<time>2023-11-18T07:30:49.000Z</time>
</trkpt>
<trkpt lat="45.8812610" lon="9.8379460">
	<ele>1227.60</ele>
	<time>2023-11-18T07:30:50.000Z</time>
</trkpt>
<trkpt lat="45.8812590" lon="9.8379610">
	<ele>1227.80</ele>
	<time>2023-11-18T07:30:51.000Z</time>
</trkpt>
<trkpt lat="45.8812580" lon="9.8379720">
	<ele>1228.00</ele>
	<time>2023-11-18T07:30:52.000Z</time>
</trkpt>
<trkpt lat="45.8812590" lon="9.8379830">
	<ele>1228.00</ele>
	<time>2023-11-18T07:30:53.000Z</time>
</trkpt>
<trkpt lat="45.8812590" lon="9.8379930">
	<ele>1228.00</ele>
	<time>2023-11-18T07:30:54.000Z</time>
</trkpt>
<trkpt lat="45.8812580" lon="9.8380020">
	<ele>1228.20</ele>
	<time>2023-11-18T07:30:55.000Z</time>
</trkpt>
<trkpt lat="45.8812560" lon="9.8380120">
	<ele>1228.40</ele>
	<time>2023-11-18T07:30:56.000Z</time>
</trkpt>
<trkpt lat="45.8812570" lon="9.8380170">
	<ele>1228.40</ele>
	<time>2023-11-18T07:30:57.000Z</time>
</trkpt>
<trkpt lat="45.8812580" lon="9.8380190">
	<ele>1228.60</ele>
	<time>2023-11-18T07:30:58.000Z</time>
</trkpt>
<trkpt lat="45.8812580" lon="9.8380170">
	<ele>1228.60</ele>
	<time>2023-11-18T07:30:59.000Z</time>
</trkpt>
<trkpt lat="45.8812580" lon="9.8380160">
	<ele>1228.60</ele>
	<time>2023-11-18T07:31:00.000Z</time>
</trkpt>
<trkpt lat="45.8812590" lon="9.8380140">
	<ele>1228.60</ele>
	<time>2023-11-18T07:31:01.000Z</time>
</trkpt>
<trkpt lat="45.8812580" lon="9.8380130">
	<ele>1228.60</ele>
	<time>2023-11-18T07:31:02.000Z</time>
</trkpt>
<trkpt lat="45.8812570" lon="9.8380150">
	<ele>1228.60</ele>
	<time>2023-11-18T07:31:03.000Z</time>
</trkpt>
<trkpt lat="45.8812570" lon="9.8380170">
	<ele>1228.60</ele>
	<time>2023-11-18T07:31:04.000Z</time>
</trkpt>
<trkpt lat="45.8812570" lon="9.8380170">
	<ele>1228.60</ele>
	<time>2023-11-18T07:31:05.000Z</time>
</trkpt>
<trkpt lat="45.8812580" lon="9.8380190">
	<ele>1228.60</ele>
	<time>2023-11-18T07:31:06.000Z</time>
</trkpt>
<trkpt lat="45.8812600" lon="9.8380200">
	<ele>1228.60</ele>
	<time>2023-11-18T07:31:07.000Z</time>
</trkpt>
<trkpt lat="45.8812590" lon="9.8380270">
	<ele>1228.60</ele>
	<time>2023-11-18T07:31:08.000Z</time>
</trkpt>
<trkpt lat="45.8812570" lon="9.8380260">
	<ele>1228.60</ele>
	<time>2023-11-18T07:31:09.000Z</time>
</trkpt>
<trkpt lat="45.8812570" lon="9.8380200">
	<ele>1228.60</ele>
	<time>2023-11-18T07:31:10.000Z</time>
</trkpt>
<trkpt lat="45.8812560" lon="9.8380120">
	<ele>1228.60</ele>
	<time>2023-11-18T07:31:11.000Z</time>
</trkpt>
<trkpt lat="45.8812550" lon="9.8380070">
	<ele>1228.80</ele>
	<time>2023-11-18T07:31:12.000Z</time>
</trkpt>
<trkpt lat="45.8812570" lon="9.8380070">
	<ele>1228.80</ele>
	<time>2023-11-18T07:31:13.000Z</time>
</trkpt>
<trkpt lat="45.8812590" lon="9.8380060">
	<ele>1228.80</ele>
	<time>2023-11-18T07:31:14.000Z</time>
</trkpt>
<trkpt lat="45.8812600" lon="9.8380030">
	<ele>1228.80</ele>
	<time>2023-11-18T07:31:15.000Z</time>
</trkpt>
<trkpt lat="45.8812610" lon="9.8380010">
	<ele>1228.80</ele>
	<time>2023-11-18T07:31:16.000Z</time>
</trkpt>
<trkpt lat="45.8812590" lon="9.8379980">
	<ele>1228.80</ele>
	<time>2023-11-18T07:31:17.000Z</time>
</trkpt>
<trkpt lat="45.8812590" lon="9.8379950">
	<ele>1228.80</ele>
	<time>2023-11-18T07:31:18.000Z</time>
</trkpt>
<trkpt lat="45.8812580" lon="9.8379920">
	<ele>1228.80</ele>
	<time>2023-11-18T07:31:19.000Z</time>
</trkpt>
<trkpt lat="45.8812580" lon="9.8379930">
	<ele>1228.80</ele>
	<time>2023-11-18T07:31:20.000Z</time>
</trkpt>
<trkpt lat="45.8812580" lon="9.8379930">
	<ele>1228.80</ele>
	<time>2023-11-18T07:31:21.000Z</time>
</trkpt>
<trkpt lat="45.8812580" lon="9.8379930">
	<ele>1228.60</ele>
	<time>2023-11-18T07:31:22.000Z</time>
</trkpt>
<trkpt lat="45.8812580" lon="9.8379930">
	<ele>1228.60</ele>
	<time>2023-11-18T07:31:23.000Z</time>
</trkpt>
<trkpt lat="45.8812580" lon="9.8379930">
	<ele>1228.60</ele>
	<time>2023-11-18T07:31:24.000Z</time>
</trkpt>
<trkpt lat="45.8812580" lon="9.8379930">
	<ele>1228.60</ele>
	<time>2023-11-18T07:31:25.000Z</time>
</trkpt>
<trkpt lat="45.8812580" lon="9.8379930">
	<ele>1228.60</ele>
	<time>2023-11-18T07:31:26.000Z</time>
</trkpt>
<trkpt lat="45.8812580" lon="9.8380010">
	<ele>1228.60</ele>
	<time>2023-11-18T07:31:27.000Z</time>
</trkpt>
<trkpt lat="45.8812590" lon="9.8380200">
	<ele>1228.60</ele>
	<time>2023-11-18T07:31:28.000Z</time>
</trkpt>
<trkpt lat="45.8812580" lon="9.8380390">
	<ele>1228.60</ele>
	<time>2023-11-18T07:31:29.000Z</time>
</trkpt>
<trkpt lat="45.8812570" lon="9.8380580">
	<ele>1228.80</ele>
	<time>2023-11-18T07:31:30.000Z</time>
</trkpt>
<trkpt lat="45.8812550" lon="9.8380770">
	<ele>1228.80</ele>
	<time>2023-11-18T07:31:31.000Z</time>
</trkpt>
<trkpt lat="45.8812510" lon="9.8380990">
	<ele>1229.00</ele>
	<time>2023-11-18T07:31:32.000Z</time>
</trkpt>
<trkpt lat="45.8812480" lon="9.8381200">
	<ele>1229.00</ele>
	<time>2023-11-18T07:31:33.000Z</time>
</trkpt>
<trkpt lat="45.8812430" lon="9.8381450">
	<ele>1229.20</ele>
	<time>2023-11-18T07:31:34.000Z</time>
</trkpt>
<trkpt lat="45.8812410" lon="9.8381660">
	<ele>1229.20</ele>
	<time>2023-11-18T07:31:35.000Z</time>
</trkpt>
<trkpt lat="45.8812400" lon="9.8381840">
	<ele>1229.40</ele>
	<time>2023-11-18T07:31:36.000Z</time>
</trkpt>
<trkpt lat="45.8812380" lon="9.8381950">
	<ele>1229.60</ele>
	<time>2023-11-18T07:31:37.000Z</time>
</trkpt>
<trkpt lat="45.8812390" lon="9.8382090">
	<ele>1229.60</ele>
	<time>2023-11-18T07:31:38.000Z</time>
</trkpt>
<trkpt lat="45.8812390" lon="9.8382190">
	<ele>1229.80</ele>
	<time>2023-11-18T07:31:39.000Z</time>
</trkpt>
<trkpt lat="45.8812380" lon="9.8382270">
	<ele>1230.00</ele>
	<time>2023-11-18T07:31:40.000Z</time>
</trkpt>
<trkpt lat="45.8812350" lon="9.8382390">
	<ele>1230.00</ele>
	<time>2023-11-18T07:31:41.000Z</time>
</trkpt>
<trkpt lat="45.8812340" lon="9.8382550">
	<ele>1230.00</ele>
	<time>2023-11-18T07:31:42.000Z</time>
</trkpt>
<trkpt lat="45.8812330" lon="9.8382650">
	<ele>1230.20</ele>
	<time>2023-11-18T07:31:43.000Z</time>
</trkpt>
<trkpt lat="45.8812320" lon="9.8382760">
	<ele>1230.20</ele>
	<time>2023-11-18T07:31:44.000Z</time>
</trkpt>
<trkpt lat="45.8812270" lon="9.8382870">
	<ele>1230.40</ele>
	<time>2023-11-18T07:31:45.000Z</time>
</trkpt>
<trkpt lat="45.8812260" lon="9.8383020">
	<ele>1230.40</ele>
	<time>2023-11-18T07:31:46.000Z</time>
</trkpt>
<trkpt lat="45.8812260" lon="9.8383150">
	<ele>1230.60</ele>
	<time>2023-11-18T07:31:47.000Z</time>
</trkpt>
<trkpt lat="45.8812260" lon="9.8383300">
	<ele>1230.80</ele>
	<time>2023-11-18T07:31:48.000Z</time>
</trkpt>
<trkpt lat="45.8812250" lon="9.8383450">
	<ele>1231.00</ele>
	<time>2023-11-18T07:31:49.000Z</time>
</trkpt>
<trkpt lat="45.8812250" lon="9.8383540">
	<ele>1231.00</ele>
	<time>2023-11-18T07:31:50.000Z</time>
</trkpt>
<trkpt lat="45.8812210" lon="9.8383620">
	<ele>1231.20</ele>
	<time>2023-11-18T07:31:51.000Z</time>
</trkpt>
<trkpt lat="45.8812170" lon="9.8383740">
	<ele>1231.20</ele>
	<time>2023-11-18T07:31:52.000Z</time>
</trkpt>
<trkpt lat="45.8812160" lon="9.8383780">
	<ele>1231.40</ele>
	<time>2023-11-18T07:31:53.000Z</time>
</trkpt>
<trkpt lat="45.8812140" lon="9.8383880">
	<ele>1231.40</ele>
	<time>2023-11-18T07:31:54.000Z</time>
</trkpt>
<trkpt lat="45.8812110" lon="9.8384020">
	<ele>1231.60</ele>
	<time>2023-11-18T07:31:55.000Z</time>
</trkpt>
<trkpt lat="45.8812080" lon="9.8384130">
	<ele>1231.80</ele>
	<time>2023-11-18T07:31:56.000Z</time>
</trkpt>
<trkpt lat="45.8812050" lon="9.8384230">
	<ele>1231.80</ele>
	<time>2023-11-18T07:31:57.000Z</time>
</trkpt>
<trkpt lat="45.8812030" lon="9.8384320">
	<ele>1232.00</ele>
	<time>2023-11-18T07:31:58.000Z</time>
</trkpt>
<trkpt lat="45.8812010" lon="9.8384450">
	<ele>1232.00</ele>
	<time>2023-11-18T07:31:59.000Z</time>
</trkpt>
<trkpt lat="45.8811960" lon="9.8384560">
	<ele>1232.20</ele>
	<time>2023-11-18T07:32:00.000Z</time>
</trkpt>
<trkpt lat="45.8811910" lon="9.8384690">
	<ele>1232.20</ele>
	<time>2023-11-18T07:32:01.000Z</time>
</trkpt>
<trkpt lat="45.8811900" lon="9.8384810">
	<ele>1232.40</ele>
	<time>2023-11-18T07:32:02.000Z</time>
</trkpt>
<trkpt lat="45.8811890" lon="9.8384910">
	<ele>1232.40</ele>
	<time>2023-11-18T07:32:03.000Z</time>
</trkpt>
<trkpt lat="45.8811860" lon="9.8384990">
	<ele>1232.80</ele>
	<time>2023-11-18T07:32:04.000Z</time>
</trkpt>
<trkpt lat="45.8811820" lon="9.8385080">
	<ele>1232.80</ele>
	<time>2023-11-18T07:32:05.000Z</time>
</trkpt>
<trkpt lat="45.8811790" lon="9.8385200">
	<ele>1233.00</ele>
	<time>2023-11-18T07:32:06.000Z</time>
</trkpt>
<trkpt lat="45.8811750" lon="9.8385320">
	<ele>1233.00</ele>
	<time>2023-11-18T07:32:07.000Z</time>
</trkpt>
<trkpt lat="45.8811710" lon="9.8385450">
	<ele>1233.20</ele>
	<time>2023-11-18T07:32:08.000Z</time>
</trkpt>
<trkpt lat="45.8811680" lon="9.8385580">
	<ele>1233.20</ele>
	<time>2023-11-18T07:32:09.000Z</time>
</trkpt>
<trkpt lat="45.8811660" lon="9.8385710">
	<ele>1233.40</ele>
	<time>2023-11-18T07:32:10.000Z</time>
</trkpt>
<trkpt lat="45.8811640" lon="9.8385840">
	<ele>1233.60</ele>
	<time>2023-11-18T07:32:11.000Z</time>
</trkpt>
<trkpt lat="45.8811620" lon="9.8385970">
	<ele>1233.80</ele>
	<time>2023-11-18T07:32:12.000Z</time>
</trkpt>
<trkpt lat="45.8811580" lon="9.8386080">
	<ele>1234.20</ele>
	<time>2023-11-18T07:32:13.000Z</time>
</trkpt>
<trkpt lat="45.8811540" lon="9.8386200">
	<ele>1234.20</ele>
	<time>2023-11-18T07:32:14.000Z</time>
</trkpt>
<trkpt lat="45.8811490" lon="9.8386300">
	<ele>1234.40</ele>
	<time>2023-11-18T07:32:15.000Z</time>
</trkpt>
<trkpt lat="45.8811440" lon="9.8386400">
	<ele>1234.60</ele>
	<time>2023-11-18T07:32:16.000Z</time>
</trkpt>
<trkpt lat="45.8811410" lon="9.8386510">
	<ele>1234.60</ele>
	<time>2023-11-18T07:32:17.000Z</time>
</trkpt>
<trkpt lat="45.8811380" lon="9.8386620">
	<ele>1234.80</ele>
	<time>2023-11-18T07:32:18.000Z</time>
</trkpt>
<trkpt lat="45.8811380" lon="9.8386730">
	<ele>1234.80</ele>
	<time>2023-11-18T07:32:19.000Z</time>
</trkpt>
<trkpt lat="45.8811370" lon="9.8386840">
	<ele>1234.80</ele>
	<time>2023-11-18T07:32:20.000Z</time>
</trkpt>
<trkpt lat="45.8811370" lon="9.8386950">
	<ele>1234.80</ele>
	<time>2023-11-18T07:32:21.000Z</time>
</trkpt>
<trkpt lat="45.8811380" lon="9.8387070">
	<ele>1234.80</ele>
	<time>2023-11-18T07:32:22.000Z</time>
</trkpt>
<trkpt lat="45.8811370" lon="9.8387150">
	<ele>1234.80</ele>
	<time>2023-11-18T07:32:23.000Z</time>
</trkpt>
<trkpt lat="45.8811340" lon="9.8387220">
	<ele>1235.00</ele>
	<time>2023-11-18T07:32:24.000Z</time>
</trkpt>
<trkpt lat="45.8811290" lon="9.8387320">
	<ele>1235.00</ele>
	<time>2023-11-18T07:32:25.000Z</time>
</trkpt>
<trkpt lat="45.8811240" lon="9.8387440">
	<ele>1235.20</ele>
	<time>2023-11-18T07:32:26.000Z</time>
</trkpt>
<trkpt lat="45.8811210" lon="9.8387610">
	<ele>1235.20</ele>
	<time>2023-11-18T07:32:27.000Z</time>
</trkpt>
<trkpt lat="45.8811180" lon="9.8387750">
	<ele>1235.40</ele>
	<time>2023-11-18T07:32:28.000Z</time>
</trkpt>
<trkpt lat="45.8811160" lon="9.8387830">
	<ele>1235.40</ele>
	<time>2023-11-18T07:32:29.000Z</time>
</trkpt>
<trkpt lat="45.8811140" lon="9.8387910">
	<ele>1235.80</ele>
	<time>2023-11-18T07:32:30.000Z</time>
</trkpt>
<trkpt lat="45.8811100" lon="9.8387990">
	<ele>1236.00</ele>
	<time>2023-11-18T07:32:31.000Z</time>
</trkpt>
<trkpt lat="45.8811070" lon="9.8387970">
	<ele>1236.00</ele>
	<time>2023-11-18T07:32:32.000Z</time>
</trkpt>
<trkpt lat="45.8811040" lon="9.8388040">
	<ele>1236.40</ele>
	<time>2023-11-18T07:32:33.000Z</time>
</trkpt>
<trkpt lat="45.8811020" lon="9.8388140">
	<ele>1236.60</ele>
	<time>2023-11-18T07:32:34.000Z</time>
</trkpt>
<trkpt lat="45.8811020" lon="9.8388230">
	<ele>1236.80</ele>
	<time>2023-11-18T07:32:35.000Z</time>
</trkpt>
<trkpt lat="45.8811040" lon="9.8388330">
	<ele>1237.00</ele>
	<time>2023-11-18T07:32:36.000Z</time>
</trkpt>
<trkpt lat="45.8811050" lon="9.8388430">
	<ele>1237.20</ele>
	<time>2023-11-18T07:32:37.000Z</time>
</trkpt>
<trkpt lat="45.8811040" lon="9.8388550">
	<ele>1237.20</ele>
	<time>2023-11-18T07:32:38.000Z</time>
</trkpt>
<trkpt lat="45.8811040" lon="9.8388650">
	<ele>1237.40</ele>
	<time>2023-11-18T07:32:39.000Z</time>
</trkpt>
<trkpt lat="45.8811020" lon="9.8388790">
	<ele>1237.40</ele>
	<time>2023-11-18T07:32:40.000Z</time>
</trkpt>
<trkpt lat="45.8810980" lon="9.8388950">
	<ele>1237.60</ele>
	<time>2023-11-18T07:32:41.000Z</time>
</trkpt>
<trkpt lat="45.8810970" lon="9.8389050">
	<ele>1237.80</ele>
	<time>2023-11-18T07:32:42.000Z</time>
</trkpt>
<trkpt lat="45.8810960" lon="9.8389170">
	<ele>1237.80</ele>
	<time>2023-11-18T07:32:43.000Z</time>
</trkpt>
<trkpt lat="45.8810950" lon="9.8389280">
	<ele>1238.00</ele>
	<time>2023-11-18T07:32:44.000Z</time>
</trkpt>
<trkpt lat="45.8810910" lon="9.8389360">
	<ele>1238.20</ele>
	<time>2023-11-18T07:32:45.000Z</time>
</trkpt>
<trkpt lat="45.8810910" lon="9.8389450">
	<ele>1238.20</ele>
	<time>2023-11-18T07:32:46.000Z</time>
</trkpt>
<trkpt lat="45.8810920" lon="9.8389580">
	<ele>1238.40</ele>
	<time>2023-11-18T07:32:47.000Z</time>
</trkpt>
<trkpt lat="45.8810930" lon="9.8389700">
	<ele>1238.60</ele>
	<time>2023-11-18T07:32:48.000Z</time>
</trkpt>
<trkpt lat="45.8810960" lon="9.8389820">
	<ele>1238.80</ele>
	<time>2023-11-18T07:32:49.000Z</time>
</trkpt>
<trkpt lat="45.8811000" lon="9.8389890">
	<ele>1238.80</ele>
	<time>2023-11-18T07:32:50.000Z</time>
</trkpt>
<trkpt lat="45.8811040" lon="9.8390000">
	<ele>1239.00</ele>
	<time>2023-11-18T07:32:51.000Z</time>
</trkpt>
<trkpt lat="45.8811050" lon="9.8390090">
	<ele>1239.20</ele>
	<time>2023-11-18T07:32:52.000Z</time>
</trkpt>
<trkpt lat="45.8811030" lon="9.8390210">
	<ele>1239.40</ele>
	<time>2023-11-18T07:32:53.000Z</time>
</trkpt>
<trkpt lat="45.8811000" lon="9.8390310">
	<ele>1239.40</ele>
	<time>2023-11-18T07:32:54.000Z</time>
</trkpt>
<trkpt lat="45.8810990" lon="9.8390430">
	<ele>1239.40</ele>
	<time>2023-11-18T07:32:55.000Z</time>
</trkpt>
<trkpt lat="45.8810960" lon="9.8390540">
	<ele>1239.60</ele>
	<time>2023-11-18T07:32:56.000Z</time>
</trkpt>
<trkpt lat="45.8810910" lon="9.8390670">
	<ele>1239.80</ele>
	<time>2023-11-18T07:32:57.000Z</time>
</trkpt>
<trkpt lat="45.8810860" lon="9.8390810">
	<ele>1239.80</ele>
	<time>2023-11-18T07:32:58.000Z</time>
</trkpt>
<trkpt lat="45.8810880" lon="9.8390960">
	<ele>1240.20</ele>
	<time>2023-11-18T07:32:59.000Z</time>
</trkpt>
<trkpt lat="45.8810890" lon="9.8391080">
	<ele>1240.40</ele>
	<time>2023-11-18T07:33:00.000Z</time>
</trkpt>
<trkpt lat="45.8810890" lon="9.8391200">
	<ele>1240.40</ele>
	<time>2023-11-18T07:33:01.000Z</time>
</trkpt>
<trkpt lat="45.8810880" lon="9.8391290">
	<ele>1240.60</ele>
	<time>2023-11-18T07:33:02.000Z</time>
</trkpt>
<trkpt lat="45.8810870" lon="9.8391380">
	<ele>1240.80</ele>
	<time>2023-11-18T07:33:03.000Z</time>
</trkpt>
<trkpt lat="45.8810850" lon="9.8391480">
	<ele>1241.00</ele>
	<time>2023-11-18T07:33:04.000Z</time>
</trkpt>
<trkpt lat="45.8810860" lon="9.8391540">
	<ele>1241.20</ele>
	<time>2023-11-18T07:33:05.000Z</time>
</trkpt>
<trkpt lat="45.8810870" lon="9.8391640">
	<ele>1241.20</ele>
	<time>2023-11-18T07:33:06.000Z</time>
</trkpt>
<trkpt lat="45.8810890" lon="9.8391790">
	<ele>1241.40</ele>
	<time>2023-11-18T07:33:07.000Z</time>
</trkpt>
<trkpt lat="45.8810890" lon="9.8391900">
	<ele>1241.40</ele>
	<time>2023-11-18T07:33:08.000Z</time>
</trkpt>
<trkpt lat="45.8810870" lon="9.8391950">
	<ele>1241.60</ele>
	<time>2023-11-18T07:33:09.000Z</time>
</trkpt>
<trkpt lat="45.8810860" lon="9.8392010">
	<ele>1241.80</ele>
	<time>2023-11-18T07:33:10.000Z</time>
</trkpt>
<trkpt lat="45.8810840" lon="9.8392030">
	<ele>1241.80</ele>
	<time>2023-11-18T07:33:11.000Z</time>
</trkpt>
<trkpt lat="45.8810820" lon="9.8392100">
	<ele>1242.20</ele>
	<time>2023-11-18T07:33:12.000Z</time>
</trkpt>
<trkpt lat="45.8810800" lon="9.8392180">
	<ele>1242.40</ele>
	<time>2023-11-18T07:33:13.000Z</time>
</trkpt>
<trkpt lat="45.8810780" lon="9.8392270">
	<ele>1242.60</ele>
	<time>2023-11-18T07:33:14.000Z</time>
</trkpt>
<trkpt lat="45.8810770" lon="9.8392340">
	<ele>1242.80</ele>
	<time>2023-11-18T07:33:15.000Z</time>
</trkpt>
<trkpt lat="45.8810780" lon="9.8392450">
	<ele>1243.00</ele>
	<time>2023-11-18T07:33:16.000Z</time>
</trkpt>
<trkpt lat="45.8810790" lon="9.8392520">
	<ele>1243.20</ele>
	<time>2023-11-18T07:33:17.000Z</time>
</trkpt>
<trkpt lat="45.8810770" lon="9.8392600">
	<ele>1243.20</ele>
	<time>2023-11-18T07:33:18.000Z</time>
</trkpt>
<trkpt lat="45.8810730" lon="9.8392680">
	<ele>1243.40</ele>
	<time>2023-11-18T07:33:19.000Z</time>
</trkpt>
<trkpt lat="45.8810700" lon="9.8392760">
	<ele>1243.60</ele>
	<time>2023-11-18T07:33:20.000Z</time>
</trkpt>
<trkpt lat="45.8810660" lon="9.8392890">
	<ele>1243.60</ele>
	<time>2023-11-18T07:33:21.000Z</time>
</trkpt>
<trkpt lat="45.8810630" lon="9.8393010">
	<ele>1243.60</ele>
	<time>2023-11-18T07:33:22.000Z</time>
</trkpt>
<trkpt lat="45.8810590" lon="9.8393120">
	<ele>1243.80</ele>
	<time>2023-11-18T07:33:23.000Z</time>
</trkpt>
<trkpt lat="45.8810560" lon="9.8393220">
	<ele>1244.20</ele>
	<time>2023-11-18T07:33:24.000Z</time>
</trkpt>
<trkpt lat="45.8810510" lon="9.8393310">
	<ele>1244.40</ele>
	<time>2023-11-18T07:33:25.000Z</time>
</trkpt>
<trkpt lat="45.8810490" lon="9.8393450">
	<ele>1244.40</ele>
	<time>2023-11-18T07:33:26.000Z</time>
</trkpt>
<trkpt lat="45.8810490" lon="9.8393560">
	<ele>1244.60</ele>
	<time>2023-11-18T07:33:27.000Z</time>
</trkpt>
<trkpt lat="45.8810500" lon="9.8393640">
	<ele>1244.80</ele>
	<time>2023-11-18T07:33:28.000Z</time>
</trkpt>
<trkpt lat="45.8810510" lon="9.8393710">
	<ele>1245.00</ele>
	<time>2023-11-18T07:33:29.000Z</time>
</trkpt>
<trkpt lat="45.8810550" lon="9.8393770">
	<ele>1245.20</ele>
	<time>2023-11-18T07:33:30.000Z</time>
</trkpt>
<trkpt lat="45.8810570" lon="9.8393850">
	<ele>1245.20</ele>
	<time>2023-11-18T07:33:31.000Z</time>
</trkpt>
<trkpt lat="45.8810590" lon="9.8393930">
	<ele>1245.40</ele>
	<time>2023-11-18T07:33:32.000Z</time>
</trkpt>
<trkpt lat="45.8810600" lon="9.8394020">
	<ele>1245.60</ele>
	<time>2023-11-18T07:33:33.000Z</time>
</trkpt>
<trkpt lat="45.8810590" lon="9.8394140">
	<ele>1245.80</ele>
	<time>2023-11-18T07:33:34.000Z</time>
</trkpt>
<trkpt lat="45.8810600" lon="9.8394190">
	<ele>1246.00</ele>
	<time>2023-11-18T07:33:35.000Z</time>
</trkpt>
<trkpt lat="45.8810620" lon="9.8394240">
	<ele>1246.20</ele>
	<time>2023-11-18T07:33:36.000Z</time>
</trkpt>
<trkpt lat="45.8810630" lon="9.8394290">
	<ele>1246.40</ele>
	<time>2023-11-18T07:33:37.000Z</time>
</trkpt>
<trkpt lat="45.8810660" lon="9.8394310">
	<ele>1246.60</ele>
	<time>2023-11-18T07:33:38.000Z</time>
</trkpt>
<trkpt lat="45.8810720" lon="9.8394330">
	<ele>1246.80</ele>
	<time>2023-11-18T07:33:39.000Z</time>
</trkpt>
<trkpt lat="45.8810790" lon="9.8394300">
	<ele>1246.80</ele>
	<time>2023-11-18T07:33:40.000Z</time>
</trkpt>
<trkpt lat="45.8810850" lon="9.8394250">
	<ele>1247.00</ele>
	<time>2023-11-18T07:33:41.000Z</time>
</trkpt>
<trkpt lat="45.8810890" lon="9.8394150">
	<ele>1247.00</ele>
	<time>2023-11-18T07:33:42.000Z</time>
</trkpt>
<trkpt lat="45.8810920" lon="9.8394000">
	<ele>1247.20</ele>
	<time>2023-11-18T07:33:43.000Z</time>
</trkpt>
<trkpt lat="45.8810980" lon="9.8393910">
	<ele>1247.20</ele>
	<time>2023-11-18T07:33:44.000Z</time>
</trkpt>
<trkpt lat="45.8811030" lon="9.8393820">
	<ele>1247.40</ele>
	<time>2023-11-18T07:33:45.000Z</time>
</trkpt>
<trkpt lat="45.8811150" lon="9.8393770">
	<ele>1247.60</ele>
	<time>2023-11-18T07:33:46.000Z</time>
</trkpt>
<trkpt lat="45.8811170" lon="9.8393680">
	<ele>1248.00</ele>
	<time>2023-11-18T07:33:47.000Z</time>
</trkpt>
<trkpt lat="45.8811180" lon="9.8393530">
	<ele>1248.00</ele>
	<time>2023-11-18T07:33:48.000Z</time>
</trkpt>
<trkpt lat="45.8811270" lon="9.8393430">
	<ele>1248.20</ele>
	<time>2023-11-18T07:33:49.000Z</time>
</trkpt>
<trkpt lat="45.8811280" lon="9.8393350">
	<ele>1248.20</ele>
	<time>2023-11-18T07:33:50.000Z</time>
</trkpt>
<trkpt lat="45.8811320" lon="9.8393340">
	<ele>1248.20</ele>
	<time>2023-11-18T07:33:51.000Z</time>
</trkpt>
<trkpt lat="45.8811390" lon="9.8393330">
	<ele>1248.40</ele>
	<time>2023-11-18T07:33:52.000Z</time>
</trkpt>
<trkpt lat="45.8811470" lon="9.8393310">
	<ele>1248.40</ele>
	<time>2023-11-18T07:33:53.000Z</time>
</trkpt>
<trkpt lat="45.8811550" lon="9.8393250">
	<ele>1248.40</ele>
	<time>2023-11-18T07:33:54.000Z</time>
</trkpt>
<trkpt lat="45.8811590" lon="9.8393190">
	<ele>1248.60</ele>
	<time>2023-11-18T07:33:55.000Z</time>
</trkpt>
<trkpt lat="45.8811650" lon="9.8393140">
	<ele>1248.60</ele>
	<time>2023-11-18T07:33:56.000Z</time>
</trkpt>
<trkpt lat="45.8811710" lon="9.8393100">
	<ele>1248.80</ele>
	<time>2023-11-18T07:33:57.000Z</time>
</trkpt>
<trkpt lat="45.8811760" lon="9.8393000">
	<ele>1248.80</ele>
	<time>2023-11-18T07:33:58.000Z</time>
</trkpt>
<trkpt lat="45.8811810" lon="9.8392910">
	<ele>1249.00</ele>
	<time>2023-11-18T07:33:59.000Z</time>
</trkpt>
<trkpt lat="45.8811870" lon="9.8392810">
	<ele>1249.20</ele>
	<time>2023-11-18T07:34:00.000Z</time>
</trkpt>
<trkpt lat="45.8811940" lon="9.8392710">
	<ele>1249.40</ele>
	<time>2023-11-18T07:34:01.000Z</time>
</trkpt>
<trkpt lat="45.8811980" lon="9.8392620">
	<ele>1249.60</ele>
	<time>2023-11-18T07:34:02.000Z</time>
</trkpt>
<trkpt lat="45.8812030" lon="9.8392550">
	<ele>1249.80</ele>
	<time>2023-11-18T07:34:03.000Z</time>
</trkpt>
<trkpt lat="45.8812110" lon="9.8392480">
	<ele>1249.80</ele>
	<time>2023-11-18T07:34:04.000Z</time>
</trkpt>
<trkpt lat="45.8812180" lon="9.8392390">
	<ele>1250.00</ele>
	<time>2023-11-18T07:34:05.000Z</time>
</trkpt>
<trkpt lat="45.8812260" lon="9.8392320">
	<ele>1250.00</ele>
	<time>2023-11-18T07:34:06.000Z</time>
</trkpt>
<trkpt lat="45.8812310" lon="9.8392220">
	<ele>1250.20</ele>
	<time>2023-11-18T07:34:07.000Z</time>
</trkpt>
<trkpt lat="45.8812370" lon="9.8392150">
	<ele>1250.40</ele>
	<time>2023-11-18T07:34:08.000Z</time>
</trkpt>
<trkpt lat="45.8812410" lon="9.8392070">
	<ele>1250.40</ele>
	<time>2023-11-18T07:34:09.000Z</time>
</trkpt>
<trkpt lat="45.8812430" lon="9.8392030">
	<ele>1250.40</ele>
	<time>2023-11-18T07:34:10.000Z</time>
</trkpt>
<trkpt lat="45.8812430" lon="9.8392020">
	<ele>1250.80</ele>
	<time>2023-11-18T07:34:11.000Z</time>
</trkpt>
<trkpt lat="45.8812420" lon="9.8392020">
	<ele>1251.00</ele>
	<time>2023-11-18T07:34:12.000Z</time>
</trkpt>
<trkpt lat="45.8812420" lon="9.8392030">
	<ele>1251.00</ele>
	<time>2023-11-18T07:34:13.000Z</time>
</trkpt>
<trkpt lat="45.8812410" lon="9.8392040">
	<ele>1251.00</ele>
	<time>2023-11-18T07:34:14.000Z</time>
</trkpt>
<trkpt lat="45.8812410" lon="9.8392040">
	<ele>1251.00</ele>
	<time>2023-11-18T07:34:15.000Z</time>
</trkpt>
<trkpt lat="45.8812400" lon="9.8392050">
	<ele>1251.20</ele>
	<time>2023-11-18T07:34:16.000Z</time>
</trkpt>
<trkpt lat="45.8812370" lon="9.8392030">
	<ele>1251.00</ele>
	<time>2023-11-18T07:34:17.000Z</time>
</trkpt>
<trkpt lat="45.8812410" lon="9.8392000">
	<ele>1251.00</ele>
	<time>2023-11-18T07:34:18.000Z</time>
</trkpt>
<trkpt lat="45.8812460" lon="9.8391940">
	<ele>1251.00</ele>
	<time>2023-11-18T07:34:19.000Z</time>
</trkpt>
<trkpt lat="45.8812500" lon="9.8391900">
	<ele>1251.00</ele>
	<time>2023-11-18T07:34:20.000Z</time>
</trkpt>
<trkpt lat="45.8812550" lon="9.8391850">
	<ele>1251.00</ele>
	<time>2023-11-18T07:34:21.000Z</time>
</trkpt>
<trkpt lat="45.8812630" lon="9.8391790">
	<ele>1251.00</ele>
	<time>2023-11-18T07:34:22.000Z</time>
</trkpt>
<trkpt lat="45.8812690" lon="9.8391730">
	<ele>1251.20</ele>
	<time>2023-11-18T07:34:23.000Z</time>
</trkpt>
<trkpt lat="45.8812760" lon="9.8391680">
	<ele>1251.40</ele>
	<time>2023-11-18T07:34:24.000Z</time>
</trkpt>
<trkpt lat="45.8812780" lon="9.8391640">
	<ele>1251.60</ele>
	<time>2023-11-18T07:34:25.000Z</time>
</trkpt>
<trkpt lat="45.8812840" lon="9.8391600">
	<ele>1251.60</ele>
	<time>2023-11-18T07:34:26.000Z</time>
</trkpt>
<trkpt lat="45.8812880" lon="9.8391540">
	<ele>1251.80</ele>
	<time>2023-11-18T07:34:27.000Z</time>
</trkpt>
<trkpt lat="45.8812960" lon="9.8391480">
	<ele>1252.00</ele>
	<time>2023-11-18T07:34:28.000Z</time>
</trkpt>
<trkpt lat="45.8813000" lon="9.8391420">
	<ele>1252.00</ele>
	<time>2023-11-18T07:34:29.000Z</time>
</trkpt>
<trkpt lat="45.8813020" lon="9.8391370">
	<ele>1252.20</ele>
	<time>2023-11-18T07:34:30.000Z</time>
</trkpt>
<trkpt lat="45.8813070" lon="9.8391320">
	<ele>1252.40</ele>
	<time>2023-11-18T07:34:31.000Z</time>
</trkpt>
<trkpt lat="45.8813120" lon="9.8391260">
	<ele>1252.60</ele>
	<time>2023-11-18T07:34:32.000Z</time>
</trkpt>
<trkpt lat="45.8813180" lon="9.8391220">
	<ele>1252.80</ele>
	<time>2023-11-18T07:34:33.000Z</time>
</trkpt>
<trkpt lat="45.8813230" lon="9.8391180">
	<ele>1252.80</ele>
	<time>2023-11-18T07:34:34.000Z</time>
</trkpt>
<trkpt lat="45.8813290" lon="9.8391160">
	<ele>1253.00</ele>
	<time>2023-11-18T07:34:35.000Z</time>
</trkpt>
<trkpt lat="45.8813350" lon="9.8391120">
	<ele>1253.20</ele>
	<time>2023-11-18T07:34:36.000Z</time>
</trkpt>
<trkpt lat="45.8813410" lon="9.8391100">
	<ele>1253.40</ele>
	<time>2023-11-18T07:34:37.000Z</time>
</trkpt>
<trkpt lat="45.8813440" lon="9.8391030">
	<ele>1253.40</ele>
	<time>2023-11-18T07:34:38.000Z</time>
</trkpt>
<trkpt lat="45.8813480" lon="9.8390960">
	<ele>1253.60</ele>
	<time>2023-11-18T07:34:39.000Z</time>
</trkpt>
<trkpt lat="45.8813520" lon="9.8390870">
	<ele>1253.60</ele>
	<time>2023-11-18T07:34:40.000Z</time>
</trkpt>
<trkpt lat="45.8813540" lon="9.8390790">
	<ele>1253.80</ele>
	<time>2023-11-18T07:34:41.000Z</time>
</trkpt>
<trkpt lat="45.8813570" lon="9.8390730">
	<ele>1254.00</ele>
	<time>2023-11-18T07:34:42.000Z</time>
</trkpt>
<trkpt lat="45.8813620" lon="9.8390670">
	<ele>1254.00</ele>
	<time>2023-11-18T07:34:43.000Z</time>
</trkpt>
<trkpt lat="45.8813660" lon="9.8390650">
	<ele>1254.20</ele>
	<time>2023-11-18T07:34:44.000Z</time>
</trkpt>
<trkpt lat="45.8813710" lon="9.8390660">
	<ele>1254.40</ele>
	<time>2023-11-18T07:34:45.000Z</time>
</trkpt>
<trkpt lat="45.8813760" lon="9.8390690">
	<ele>1254.60</ele>
	<time>2023-11-18T07:34:46.000Z</time>
</trkpt>
<trkpt lat="45.8813800" lon="9.8390730">
	<ele>1254.80</ele>
	<time>2023-11-18T07:34:47.000Z</time>
</trkpt>
<trkpt lat="45.8813810" lon="9.8390780">
	<ele>1254.80</ele>
	<time>2023-11-18T07:34:48.000Z</time>
</trkpt>
<trkpt lat="45.8813790" lon="9.8390840">
	<ele>1255.00</ele>
	<time>2023-11-18T07:34:49.000Z</time>
</trkpt>
<trkpt lat="45.8813780" lon="9.8390920">
	<ele>1255.00</ele>
	<time>2023-11-18T07:34:50.000Z</time>
</trkpt>
<trkpt lat="45.8813740" lon="9.8391010">
	<ele>1255.20</ele>
	<time>2023-11-18T07:34:51.000Z</time>
</trkpt>
<trkpt lat="45.8813730" lon="9.8391080">
	<ele>1255.60</ele>
	<time>2023-11-18T07:34:52.000Z</time>
</trkpt>
<trkpt lat="45.8813730" lon="9.8391160">
	<ele>1255.80</ele>
	<time>2023-11-18T07:34:53.000Z</time>
</trkpt>
<trkpt lat="45.8813710" lon="9.8391270">
	<ele>1256.00</ele>
	<time>2023-11-18T07:34:54.000Z</time>
</trkpt>
<trkpt lat="45.8813700" lon="9.8391320">
	<ele>1256.00</ele>
	<time>2023-11-18T07:34:55.000Z</time>
</trkpt>
<trkpt lat="45.8813640" lon="9.8391400">
	<ele>1256.40</ele>
	<time>2023-11-18T07:34:56.000Z</time>
</trkpt>
<trkpt lat="45.8813570" lon="9.8391500">
	<ele>1256.60</ele>
	<time>2023-11-18T07:34:57.000Z</time>
</trkpt>
<trkpt lat="45.8813560" lon="9.8391590">
	<ele>1256.80</ele>
	<time>2023-11-18T07:34:58.000Z</time>
</trkpt>
<trkpt lat="45.8813500" lon="9.8391700">
	<ele>1256.80</ele>
	<time>2023-11-18T07:34:59.000Z</time>
</trkpt>
<trkpt lat="45.8813430" lon="9.8391810">
	<ele>1257.00</ele>
	<time>2023-11-18T07:35:00.000Z</time>
</trkpt>
<trkpt lat="45.8813420" lon="9.8391930">
	<ele>1257.00</ele>
	<time>2023-11-18T07:35:01.000Z</time>
</trkpt>
<trkpt lat="45.8813410" lon="9.8392060">
	<ele>1257.20</ele>
	<time>2023-11-18T07:35:02.000Z</time>
</trkpt>
<trkpt lat="45.8813300" lon="9.8392120">
	<ele>1257.20</ele>
	<time>2023-11-18T07:35:03.000Z</time>
</trkpt>
<trkpt lat="45.8813250" lon="9.8392190">
	<ele>1257.40</ele>
	<time>2023-11-18T07:35:04.000Z</time>
</trkpt>
<trkpt lat="45.8813210" lon="9.8392260">
	<ele>1257.40</ele>
	<time>2023-11-18T07:35:05.000Z</time>
</trkpt>
<trkpt lat="45.8813200" lon="9.8392350">
	<ele>1257.60</ele>
	<time>2023-11-18T07:35:06.000Z</time>
</trkpt>
<trkpt lat="45.8813190" lon="9.8392480">
	<ele>1257.60</ele>
	<time>2023-11-18T07:35:07.000Z</time>
</trkpt>
<trkpt lat="45.8813150" lon="9.8392630">
	<ele>1257.80</ele>
	<time>2023-11-18T07:35:08.000Z</time>
</trkpt>
<trkpt lat="45.8813130" lon="9.8392760">
	<ele>1258.00</ele>
	<time>2023-11-18T07:35:09.000Z</time>
</trkpt>
<trkpt lat="45.8813120" lon="9.8392890">
	<ele>1258.00</ele>
	<time>2023-11-18T07:35:10.000Z</time>
</trkpt>
<trkpt lat="45.8813120" lon="9.8393000">
	<ele>1258.20</ele>
	<time>2023-11-18T07:35:11.000Z</time>
</trkpt>
<trkpt lat="45.8813100" lon="9.8393120">
	<ele>1258.40</ele>
	<time>2023-11-18T07:35:12.000Z</time>
</trkpt>
<trkpt lat="45.8813140" lon="9.8393200">
	<ele>1258.40</ele>
	<time>2023-11-18T07:35:13.000Z</time>
</trkpt>
<trkpt lat="45.8813150" lon="9.8393320">
	<ele>1258.60</ele>
	<time>2023-11-18T07:35:14.000Z</time>
</trkpt>
<trkpt lat="45.8813140" lon="9.8393440">
	<ele>1258.80</ele>
	<time>2023-11-18T07:35:15.000Z</time>
</trkpt>
<trkpt lat="45.8813130" lon="9.8393530">
	<ele>1259.00</ele>
	<time>2023-11-18T07:35:16.000Z</time>
</trkpt>
<trkpt lat="45.8813130" lon="9.8393600">
	<ele>1259.20</ele>
	<time>2023-11-18T07:35:17.000Z</time>
</trkpt>
<trkpt lat="45.8813120" lon="9.8393720">
	<ele>1259.40</ele>
	<time>2023-11-18T07:35:18.000Z</time>
</trkpt>
<trkpt lat="45.8813150" lon="9.8393870">
	<ele>1259.60</ele>
	<time>2023-11-18T07:35:19.000Z</time>
</trkpt>
<trkpt lat="45.8813190" lon="9.8393990">
	<ele>1259.60</ele>
	<time>2023-11-18T07:35:20.000Z</time>
</trkpt>
<trkpt lat="45.8813180" lon="9.8394090">
	<ele>1259.60</ele>
	<time>2023-11-18T07:35:21.000Z</time>
</trkpt>
<trkpt lat="45.8813180" lon="9.8394180">
	<ele>1259.80</ele>
	<time>2023-11-18T07:35:22.000Z</time>
</trkpt>
<trkpt lat="45.8813220" lon="9.8394280">
	<ele>1260.00</ele>
	<time>2023-11-18T07:35:23.000Z</time>
</trkpt>
<trkpt lat="45.8813240" lon="9.8394390">
	<ele>1260.20</ele>
	<time>2023-11-18T07:35:24.000Z</time>
</trkpt>
<trkpt lat="45.8813260" lon="9.8394470">
	<ele>1260.40</ele>
	<time>2023-11-18T07:35:25.000Z</time>
</trkpt>
<trkpt lat="45.8813310" lon="9.8394560">
	<ele>1260.60</ele>
	<time>2023-11-18T07:35:26.000Z</time>
</trkpt>
<trkpt lat="45.8813360" lon="9.8394600">
	<ele>1260.80</ele>
	<time>2023-11-18T07:35:27.000Z</time>
</trkpt>
<trkpt lat="45.8813420" lon="9.8394620">
	<ele>1261.00</ele>
	<time>2023-11-18T07:35:28.000Z</time>
</trkpt>
<trkpt lat="45.8813460" lon="9.8394640">
	<ele>1261.20</ele>
	<time>2023-11-18T07:35:29.000Z</time>
</trkpt>
<trkpt lat="45.8813470" lon="9.8394720">
	<ele>1261.40</ele>
	<time>2023-11-18T07:35:30.000Z</time>
</trkpt>
<trkpt lat="45.8813480" lon="9.8394810">
	<ele>1261.60</ele>
	<time>2023-11-18T07:35:31.000Z</time>
</trkpt>
<trkpt lat="45.8813510" lon="9.8394910">
	<ele>1261.80</ele>
	<time>2023-11-18T07:35:32.000Z</time>
</trkpt>
<trkpt lat="45.8813510" lon="9.8394950">
	<ele>1262.00</ele>
	<time>2023-11-18T07:35:33.000Z</time>
</trkpt>
<trkpt lat="45.8813500" lon="9.8394970">
	<ele>1262.00</ele>
	<time>2023-11-18T07:35:34.000Z</time>
</trkpt>
<trkpt lat="45.8813490" lon="9.8394990">
	<ele>1262.20</ele>
	<time>2023-11-18T07:35:35.000Z</time>
</trkpt>
<trkpt lat="45.8813470" lon="9.8394980">
	<ele>1262.40</ele>
	<time>2023-11-18T07:35:36.000Z</time>
</trkpt>
<trkpt lat="45.8813450" lon="9.8394980">
	<ele>1262.60</ele>
	<time>2023-11-18T07:35:37.000Z</time>
</trkpt>
<trkpt lat="45.8813400" lon="9.8394990">
	<ele>1262.80</ele>
	<time>2023-11-18T07:35:38.000Z</time>
</trkpt>
<trkpt lat="45.8813350" lon="9.8395040">
	<ele>1263.00</ele>
	<time>2023-11-18T07:35:39.000Z</time>
</trkpt>
<trkpt lat="45.8813290" lon="9.8395100">
	<ele>1263.20</ele>
	<time>2023-11-18T07:35:40.000Z</time>
</trkpt>
<trkpt lat="45.8813250" lon="9.8395220">
	<ele>1263.20</ele>
	<time>2023-11-18T07:35:41.000Z</time>
</trkpt>
<trkpt lat="45.8813220" lon="9.8395350">
	<ele>1263.40</ele>
	<time>2023-11-18T07:35:42.000Z</time>
</trkpt>
<trkpt lat="45.8813170" lon="9.8395480">
	<ele>1263.40</ele>
	<time>2023-11-18T07:35:43.000Z</time>
</trkpt>
<trkpt lat="45.8813120" lon="9.8395610">
	<ele>1263.40</ele>
	<time>2023-11-18T07:35:44.000Z</time>
</trkpt>
<trkpt lat="45.8813070" lon="9.8395760">
	<ele>1263.40</ele>
	<time>2023-11-18T07:35:45.000Z</time>
</trkpt>
<trkpt lat="45.8813080" lon="9.8395850">
	<ele>1263.60</ele>
	<time>2023-11-18T07:35:46.000Z</time>
</trkpt>
<trkpt lat="45.8813030" lon="9.8395970">
	<ele>1263.60</ele>
	<time>2023-11-18T07:35:47.000Z</time>
</trkpt>
<trkpt lat="45.8812970" lon="9.8396050">
	<ele>1263.60</ele>
	<time>2023-11-18T07:35:48.000Z</time>
</trkpt>
<trkpt lat="45.8812950" lon="9.8396120">
	<ele>1263.60</ele>
	<time>2023-11-18T07:35:49.000Z</time>
</trkpt>
<trkpt lat="45.8812930" lon="9.8396240">
	<ele>1263.80</ele>
	<time>2023-11-18T07:35:50.000Z</time>
</trkpt>
<trkpt lat="45.8812950" lon="9.8396360">
	<ele>1263.80</ele>
	<time>2023-11-18T07:35:51.000Z</time>
</trkpt>
<trkpt lat="45.8812930" lon="9.8396460">
	<ele>1263.80</ele>
	<time>2023-11-18T07:35:52.000Z</time>
</trkpt>
<trkpt lat="45.8812880" lon="9.8396550">
	<ele>1264.00</ele>
	<time>2023-11-18T07:35:53.000Z</time>
</trkpt>
<trkpt lat="45.8812840" lon="9.8396600">
	<ele>1264.00</ele>
	<time>2023-11-18T07:35:54.000Z</time>
</trkpt>
<trkpt lat="45.8812780" lon="9.8396690">
	<ele>1264.20</ele>
	<time>2023-11-18T07:35:55.000Z</time>
</trkpt>
<trkpt lat="45.8812720" lon="9.8396810">
	<ele>1264.20</ele>
	<time>2023-11-18T07:35:56.000Z</time>
</trkpt>
<trkpt lat="45.8812690" lon="9.8396930">
	<ele>1264.40</ele>
	<time>2023-11-18T07:35:57.000Z</time>
</trkpt>
<trkpt lat="45.8812640" lon="9.8397060">
	<ele>1264.40</ele>
	<time>2023-11-18T07:35:58.000Z</time>
</trkpt>
<trkpt lat="45.8812620" lon="9.8397170">
	<ele>1264.40</ele>
	<time>2023-11-18T07:35:59.000Z</time>
</trkpt>
<trkpt lat="45.8812590" lon="9.8397280">
	<ele>1264.60</ele>
	<time>2023-11-18T07:36:00.000Z</time>
</trkpt>
<trkpt lat="45.8812520" lon="9.8397420">
	<ele>1264.80</ele>
	<time>2023-11-18T07:36:01.000Z</time>
</trkpt>
<trkpt lat="45.8812450" lon="9.8397530">
	<ele>1265.00</ele>
	<time>2023-11-18T07:36:02.000Z</time>
</trkpt>
<trkpt lat="45.8812390" lon="9.8397600">
	<ele>1265.20</ele>
	<time>2023-11-18T07:36:03.000Z</time>
</trkpt>
<trkpt lat="45.8812370" lon="9.8397690">
	<ele>1265.20</ele>
	<time>2023-11-18T07:36:04.000Z</time>
</trkpt>
<trkpt lat="45.8812370" lon="9.8397760">
	<ele>1265.40</ele>
	<time>2023-11-18T07:36:05.000Z</time>
</trkpt>
<trkpt lat="45.8812350" lon="9.8397880">
	<ele>1265.60</ele>
	<time>2023-11-18T07:36:06.000Z</time>
</trkpt>
<trkpt lat="45.8812340" lon="9.8397980">
	<ele>1265.60</ele>
	<time>2023-11-18T07:36:07.000Z</time>
</trkpt>
<trkpt lat="45.8812330" lon="9.8398100">
	<ele>1265.80</ele>
	<time>2023-11-18T07:36:08.000Z</time>
</trkpt>
<trkpt lat="45.8812310" lon="9.8398220">
	<ele>1266.00</ele>
	<time>2023-11-18T07:36:09.000Z</time>
</trkpt>
<trkpt lat="45.8812270" lon="9.8398350">
	<ele>1266.00</ele>
	<time>2023-11-18T07:36:10.000Z</time>
</trkpt>
<trkpt lat="45.8812240" lon="9.8398450">
	<ele>1266.20</ele>
	<time>2023-11-18T07:36:11.000Z</time>
</trkpt>
<trkpt lat="45.8812190" lon="9.8398540">
	<ele>1266.40</ele>
	<time>2023-11-18T07:36:12.000Z</time>
</trkpt>
<trkpt lat="45.8812190" lon="9.8398650">
	<ele>1266.40</ele>
	<time>2023-11-18T07:36:13.000Z</time>
</trkpt>
<trkpt lat="45.8812210" lon="9.8398780">
	<ele>1266.60</ele>
	<time>2023-11-18T07:36:14.000Z</time>
</trkpt>
<trkpt lat="45.8812190" lon="9.8398890">
	<ele>1266.80</ele>
	<time>2023-11-18T07:36:15.000Z</time>
</trkpt>
<trkpt lat="45.8812190" lon="9.8398990">
	<ele>1267.00</ele>
	<time>2023-11-18T07:36:16.000Z</time>
</trkpt>
<trkpt lat="45.8812170" lon="9.8399070">
	<ele>1267.00</ele>
	<time>2023-11-18T07:36:17.000Z</time>
</trkpt>
<trkpt lat="45.8812140" lon="9.8399160">
	<ele>1267.40</ele>
	<time>2023-11-18T07:36:18.000Z</time>
</trkpt>
<trkpt lat="45.8812130" lon="9.8399270">
	<ele>1267.40</ele>
	<time>2023-11-18T07:36:19.000Z</time>
</trkpt>
<trkpt lat="45.8812160" lon="9.8399360">
	<ele>1267.60</ele>
	<time>2023-11-18T07:36:20.000Z</time>
</trkpt>
<trkpt lat="45.8812160" lon="9.8399490">
	<ele>1267.60</ele>
	<time>2023-11-18T07:36:21.000Z</time>
</trkpt>
<trkpt lat="45.8812190" lon="9.8399540">
	<ele>1267.80</ele>
	<time>2023-11-18T07:36:22.000Z</time>
</trkpt>
<trkpt lat="45.8812190" lon="9.8399620">
	<ele>1268.20</ele>
	<time>2023-11-18T07:36:23.000Z</time>
</trkpt>
<trkpt lat="45.8812210" lon="9.8399700">
	<ele>1268.40</ele>
	<time>2023-11-18T07:36:24.000Z</time>
</trkpt>
<trkpt lat="45.8812230" lon="9.8399770">
	<ele>1268.60</ele>
	<time>2023-11-18T07:36:25.000Z</time>
</trkpt>
<trkpt lat="45.8812240" lon="9.8399800">
	<ele>1268.60</ele>
	<time>2023-11-18T07:36:26.000Z</time>
</trkpt>
<trkpt lat="45.8812260" lon="9.8399800">
	<ele>1268.80</ele>
	<time>2023-11-18T07:36:27.000Z</time>
</trkpt>
<trkpt lat="45.8812320" lon="9.8399830">
	<ele>1269.00</ele>
	<time>2023-11-18T07:36:28.000Z</time>
</trkpt>
<trkpt lat="45.8812390" lon="9.8399900">
	<ele>1269.20</ele>
	<time>2023-11-18T07:36:29.000Z</time>
</trkpt>
<trkpt lat="45.8812420" lon="9.8399940">
	<ele>1269.40</ele>
	<time>2023-11-18T07:36:30.000Z</time>
</trkpt>
<trkpt lat="45.8812440" lon="9.8399960">
	<ele>1269.80</ele>
	<time>2023-11-18T07:36:31.000Z</time>
</trkpt>
<trkpt lat="45.8812420" lon="9.8400000">
	<ele>1270.00</ele>
	<time>2023-11-18T07:36:32.000Z</time>
</trkpt>
<trkpt lat="45.8812410" lon="9.8400100">
	<ele>1270.20</ele>
	<time>2023-11-18T07:36:33.000Z</time>
</trkpt>
<trkpt lat="45.8812410" lon="9.8400160">
	<ele>1270.20</ele>
	<time>2023-11-18T07:36:34.000Z</time>
</trkpt>
<trkpt lat="45.8812390" lon="9.8400230">
	<ele>1270.40</ele>
	<time>2023-11-18T07:36:35.000Z</time>
</trkpt>
<trkpt lat="45.8812400" lon="9.8400330">
	<ele>1270.60</ele>
	<time>2023-11-18T07:36:36.000Z</time>
</trkpt>
<trkpt lat="45.8812450" lon="9.8400380">
	<ele>1270.80</ele>
	<time>2023-11-18T07:36:37.000Z</time>
</trkpt>
<trkpt lat="45.8812500" lon="9.8400440">
	<ele>1271.20</ele>
	<time>2023-11-18T07:36:38.000Z</time>
</trkpt>
<trkpt lat="45.8812500" lon="9.8400500">
	<ele>1271.40</ele>
	<time>2023-11-18T07:36:39.000Z</time>
</trkpt>
<trkpt lat="45.8812500" lon="9.8400570">
	<ele>1271.40</ele>
	<time>2023-11-18T07:36:40.000Z</time>
</trkpt>
<trkpt lat="45.8812480" lon="9.8400610">
	<ele>1271.60</ele>
	<time>2023-11-18T07:36:41.000Z</time>
</trkpt>
<trkpt lat="45.8812480" lon="9.8400660">
	<ele>1271.80</ele>
	<time>2023-11-18T07:36:42.000Z</time>
</trkpt>
<trkpt lat="45.8812460" lon="9.8400720">
	<ele>1272.00</ele>
	<time>2023-11-18T07:36:43.000Z</time>
</trkpt>
<trkpt lat="45.8812450" lon="9.8400760">
	<ele>1272.20</ele>
	<time>2023-11-18T07:36:44.000Z</time>
</trkpt>
<trkpt lat="45.8812440" lon="9.8400800">
	<ele>1272.20</ele>
	<time>2023-11-18T07:36:45.000Z</time>
</trkpt>
<trkpt lat="45.8812430" lon="9.8400860">
	<ele>1272.60</ele>
	<time>2023-11-18T07:36:46.000Z</time>
</trkpt>
<trkpt lat="45.8812400" lon="9.8400970">
	<ele>1272.60</ele>
	<time>2023-11-18T07:36:47.000Z</time>
</trkpt>
<trkpt lat="45.8812400" lon="9.8401030">
	<ele>1272.80</ele>
	<time>2023-11-18T07:36:48.000Z</time>
</trkpt>
<trkpt lat="45.8812400" lon="9.8401070">
	<ele>1273.00</ele>
	<time>2023-11-18T07:36:49.000Z</time>
</trkpt>
<trkpt lat="45.8812410" lon="9.8401140">
	<ele>1273.20</ele>
	<time>2023-11-18T07:36:50.000Z</time>
</trkpt>
<trkpt lat="45.8812410" lon="9.8401200">
	<ele>1273.40</ele>
	<time>2023-11-18T07:36:51.000Z</time>
</trkpt>
<trkpt lat="45.8812390" lon="9.8401260">
	<ele>1273.60</ele>
	<time>2023-11-18T07:36:52.000Z</time>
</trkpt>
<trkpt lat="45.8812360" lon="9.8401380">
	<ele>1273.60</ele>
	<time>2023-11-18T07:36:53.000Z</time>
</trkpt>
<trkpt lat="45.8812330" lon="9.8401520">
	<ele>1273.60</ele>
	<time>2023-11-18T07:36:54.000Z</time>
</trkpt>
<trkpt lat="45.8812330" lon="9.8401620">
	<ele>1273.80</ele>
	<time>2023-11-18T07:36:55.000Z</time>
</trkpt>
<trkpt lat="45.8812320" lon="9.8401690">
	<ele>1273.80</ele>
	<time>2023-11-18T07:36:56.000Z</time>
</trkpt>
<trkpt lat="45.8812300" lon="9.8401790">
	<ele>1274.00</ele>
	<time>2023-11-18T07:36:57.000Z</time>
</trkpt>
<trkpt lat="45.8812300" lon="9.8401890">
	<ele>1274.00</ele>
	<time>2023-11-18T07:36:58.000Z</time>
</trkpt>
<trkpt lat="45.8812330" lon="9.8402000">
	<ele>1274.20</ele>
	<time>2023-11-18T07:36:59.000Z</time>
</trkpt>
<trkpt lat="45.8812330" lon="9.8402010">
	<ele>1274.40</ele>
	<time>2023-11-18T07:37:00.000Z</time>
</trkpt>
<trkpt lat="45.8812320" lon="9.8402040">
	<ele>1274.60</ele>
	<time>2023-11-18T07:37:01.000Z</time>
</trkpt>
<trkpt lat="45.8812290" lon="9.8402120">
	<ele>1274.60</ele>
	<time>2023-11-18T07:37:02.000Z</time>
</trkpt>
<trkpt lat="45.8812280" lon="9.8402210">
	<ele>1274.80</ele>
	<time>2023-11-18T07:37:03.000Z</time>
</trkpt>
<trkpt lat="45.8812270" lon="9.8402300">
	<ele>1275.00</ele>
	<time>2023-11-18T07:37:04.000Z</time>
</trkpt>
<trkpt lat="45.8812240" lon="9.8402370">
	<ele>1275.20</ele>
	<time>2023-11-18T07:37:05.000Z</time>
</trkpt>
<trkpt lat="45.8812190" lon="9.8402460">
	<ele>1275.20</ele>
	<time>2023-11-18T07:37:06.000Z</time>
</trkpt>
<trkpt lat="45.8812160" lon="9.8402570">
	<ele>1275.40</ele>
	<time>2023-11-18T07:37:07.000Z</time>
</trkpt>
<trkpt lat="45.8812130" lon="9.8402700">
	<ele>1275.40</ele>
	<time>2023-11-18T07:37:08.000Z</time>
</trkpt>
<trkpt lat="45.8812090" lon="9.8402800">
	<ele>1275.40</ele>
	<time>2023-11-18T07:37:09.000Z</time>
</trkpt>
<trkpt lat="45.8812040" lon="9.8402900">
	<ele>1275.60</ele>
	<time>2023-11-18T07:37:10.000Z</time>
</trkpt>
<trkpt lat="45.8811970" lon="9.8403010">
	<ele>1275.60</ele>
	<time>2023-11-18T07:37:11.000Z</time>
</trkpt>
<trkpt lat="45.8811910" lon="9.8403120">
	<ele>1275.60</ele>
	<time>2023-11-18T07:37:12.000Z</time>
</trkpt>
<trkpt lat="45.8811880" lon="9.8403230">
	<ele>1275.80</ele>
	<time>2023-11-18T07:37:13.000Z</time>
</trkpt>
<trkpt lat="45.8811850" lon="9.8403360">
	<ele>1275.80</ele>
	<time>2023-11-18T07:37:14.000Z</time>
</trkpt>
<trkpt lat="45.8811830" lon="9.8403500">
	<ele>1275.80</ele>
	<time>2023-11-18T07:37:15.000Z</time>
</trkpt>
<trkpt lat="45.8811810" lon="9.8403650">
	<ele>1275.80</ele>
	<time>2023-11-18T07:37:16.000Z</time>
</trkpt>
<trkpt lat="45.8811760" lon="9.8403780">
	<ele>1275.80</ele>
	<time>2023-11-18T07:37:17.000Z</time>
</trkpt>
<trkpt lat="45.8811690" lon="9.8403920">
	<ele>1275.80</ele>
	<time>2023-11-18T07:37:18.000Z</time>
</trkpt>
<trkpt lat="45.8811620" lon="9.8404050">
	<ele>1275.80</ele>
	<time>2023-11-18T07:37:19.000Z</time>
</trkpt>
<trkpt lat="45.8811570" lon="9.8404200">
	<ele>1275.80</ele>
	<time>2023-11-18T07:37:20.000Z</time>
</trkpt>
<trkpt lat="45.8811490" lon="9.8404340">
	<ele>1275.80</ele>
	<time>2023-11-18T07:37:21.000Z</time>
</trkpt>
<trkpt lat="45.8811430" lon="9.8404470">
	<ele>1275.80</ele>
	<time>2023-11-18T07:37:22.000Z</time>
</trkpt>
<trkpt lat="45.8811380" lon="9.8404590">
	<ele>1276.00</ele>
	<time>2023-11-18T07:37:23.000Z</time>
</trkpt>
<trkpt lat="45.8811330" lon="9.8404740">
	<ele>1276.00</ele>
	<time>2023-11-18T07:37:24.000Z</time>
</trkpt>
<trkpt lat="45.8811300" lon="9.8404910">
	<ele>1276.00</ele>
	<time>2023-11-18T07:37:25.000Z</time>
</trkpt>
<trkpt lat="45.8811280" lon="9.8405070">
	<ele>1276.20</ele>
	<time>2023-11-18T07:37:26.000Z</time>
</trkpt>
<trkpt lat="45.8811270" lon="9.8405220">
	<ele>1276.40</ele>
	<time>2023-11-18T07:37:27.000Z</time>
</trkpt>
<trkpt lat="45.8811270" lon="9.8405350">
	<ele>1276.40</ele>
	<time>2023-11-18T07:37:28.000Z</time>
</trkpt>
<trkpt lat="45.8811270" lon="9.8405450">
	<ele>1276.60</ele>
	<time>2023-11-18T07:37:29.000Z</time>
</trkpt>
<trkpt lat="45.8811280" lon="9.8405510">
	<ele>1276.60</ele>
	<time>2023-11-18T07:37:30.000Z</time>
</trkpt>
<trkpt lat="45.8811270" lon="9.8405600">
	<ele>1276.80</ele>
	<time>2023-11-18T07:37:31.000Z</time>
</trkpt>
<trkpt lat="45.8811270" lon="9.8405710">
	<ele>1276.80</ele>
	<time>2023-11-18T07:37:32.000Z</time>
</trkpt>
<trkpt lat="45.8811300" lon="9.8405820">
	<ele>1277.00</ele>
	<time>2023-11-18T07:37:33.000Z</time>
</trkpt>
<trkpt lat="45.8811290" lon="9.8405920">
	<ele>1277.00</ele>
	<time>2023-11-18T07:37:34.000Z</time>
</trkpt>
<trkpt lat="45.8811250" lon="9.8406060">
	<ele>1277.20</ele>
	<time>2023-11-18T07:37:35.000Z</time>
</trkpt>
<trkpt lat="45.8811210" lon="9.8406190">
	<ele>1277.40</ele>
	<time>2023-11-18T07:37:36.000Z</time>
</trkpt>
<trkpt lat="45.8811170" lon="9.8406320">
	<ele>1277.40</ele>
	<time>2023-11-18T07:37:37.000Z</time>
</trkpt>
<trkpt lat="45.8811140" lon="9.8406470">
	<ele>1277.60</ele>
	<time>2023-11-18T07:37:38.000Z</time>
</trkpt>
<trkpt lat="45.8811110" lon="9.8406630">
	<ele>1277.60</ele>
	<time>2023-11-18T07:37:39.000Z</time>
</trkpt>
<trkpt lat="45.8811100" lon="9.8406780">
	<ele>1277.60</ele>
	<time>2023-11-18T07:37:40.000Z</time>
</trkpt>
<trkpt lat="45.8811090" lon="9.8406910">
	<ele>1277.60</ele>
	<time>2023-11-18T07:37:41.000Z</time>
</trkpt>
<trkpt lat="45.8811070" lon="9.8407050">
	<ele>1277.80</ele>
	<time>2023-11-18T07:37:42.000Z</time>
</trkpt>
<trkpt lat="45.8811030" lon="9.8407210">
	<ele>1278.00</ele>
	<time>2023-11-18T07:37:43.000Z</time>
</trkpt>
<trkpt lat="45.8811000" lon="9.8407350">
	<ele>1278.00</ele>
	<time>2023-11-18T07:37:44.000Z</time>
</trkpt>
<trkpt lat="45.8810970" lon="9.8407480">
	<ele>1278.00</ele>
	<time>2023-11-18T07:37:45.000Z</time>
</trkpt>
<trkpt lat="45.8810930" lon="9.8407630">
	<ele>1278.20</ele>
	<time>2023-11-18T07:37:46.000Z</time>
</trkpt>
<trkpt lat="45.8810860" lon="9.8407770">
	<ele>1278.20</ele>
	<time>2023-11-18T07:37:47.000Z</time>
</trkpt>
<trkpt lat="45.8810820" lon="9.8407930">
	<ele>1278.40</ele>
	<time>2023-11-18T07:37:48.000Z</time>
</trkpt>
<trkpt lat="45.8810810" lon="9.8408080">
	<ele>1278.40</ele>
	<time>2023-11-18T07:37:49.000Z</time>
</trkpt>
<trkpt lat="45.8810800" lon="9.8408190">
	<ele>1278.60</ele>
	<time>2023-11-18T07:37:50.000Z</time>
</trkpt>
<trkpt lat="45.8810780" lon="9.8408270">
	<ele>1278.80</ele>
	<time>2023-11-18T07:37:51.000Z</time>
</trkpt>
<trkpt lat="45.8810770" lon="9.8408400">
	<ele>1278.80</ele>
	<time>2023-11-18T07:37:52.000Z</time>
</trkpt>
<trkpt lat="45.8810760" lon="9.8408520">
	<ele>1279.00</ele>
	<time>2023-11-18T07:37:53.000Z</time>
</trkpt>
<trkpt lat="45.8810780" lon="9.8408680">
	<ele>1279.00</ele>
	<time>2023-11-18T07:37:54.000Z</time>
</trkpt>
<trkpt lat="45.8810780" lon="9.8408810">
	<ele>1279.00</ele>
	<time>2023-11-18T07:37:55.000Z</time>
</trkpt>
<trkpt lat="45.8810780" lon="9.8408940">
	<ele>1279.40</ele>
	<time>2023-11-18T07:37:56.000Z</time>
</trkpt>
<trkpt lat="45.8810760" lon="9.8409050">
	<ele>1279.60</ele>
	<time>2023-11-18T07:37:57.000Z</time>
</trkpt>
<trkpt lat="45.8810720" lon="9.8409160">
	<ele>1279.60</ele>
	<time>2023-11-18T07:37:58.000Z</time>
</trkpt>
<trkpt lat="45.8810670" lon="9.8409290">
	<ele>1279.80</ele>
	<time>2023-11-18T07:37:59.000Z</time>
</trkpt>
<trkpt lat="45.8810640" lon="9.8409430">
	<ele>1279.80</ele>
	<time>2023-11-18T07:38:00.000Z</time>
</trkpt>
<trkpt lat="45.8810620" lon="9.8409530">
	<ele>1280.00</ele>
	<time>2023-11-18T07:38:01.000Z</time>
</trkpt>
<trkpt lat="45.8810610" lon="9.8409640">
	<ele>1280.20</ele>
	<time>2023-11-18T07:38:02.000Z</time>
</trkpt>
<trkpt lat="45.8810610" lon="9.8409760">
	<ele>1280.40</ele>
	<time>2023-11-18T07:38:03.000Z</time>
</trkpt>
<trkpt lat="45.8810620" lon="9.8409870">
	<ele>1280.80</ele>
	<time>2023-11-18T07:38:04.000Z</time>
</trkpt>
<trkpt lat="45.8810600" lon="9.8409980">
	<ele>1280.80</ele>
	<time>2023-11-18T07:38:05.000Z</time>
</trkpt>
<trkpt lat="45.8810560" lon="9.8410040">
	<ele>1281.20</ele>
	<time>2023-11-18T07:38:06.000Z</time>
</trkpt>
<trkpt lat="45.8810510" lon="9.8410130">
	<ele>1281.20</ele>
	<time>2023-11-18T07:38:07.000Z</time>
</trkpt>
<trkpt lat="45.8810480" lon="9.8410230">
	<ele>1281.40</ele>
	<time>2023-11-18T07:38:08.000Z</time>
</trkpt>
<trkpt lat="45.8810450" lon="9.8410360">
	<ele>1281.60</ele>
	<time>2023-11-18T07:38:09.000Z</time>
</trkpt>
<trkpt lat="45.8810420" lon="9.8410470">
	<ele>1281.60</ele>
	<time>2023-11-18T07:38:10.000Z</time>
</trkpt>
<trkpt lat="45.8810390" lon="9.8410600">
	<ele>1281.80</ele>
	<time>2023-11-18T07:38:11.000Z</time>
</trkpt>
<trkpt lat="45.8810360" lon="9.8410730">
	<ele>1281.80</ele>
	<time>2023-11-18T07:38:12.000Z</time>
</trkpt>
<trkpt lat="45.8810330" lon="9.8410840">
	<ele>1282.00</ele>
	<time>2023-11-18T07:38:13.000Z</time>
</trkpt>
<trkpt lat="45.8810320" lon="9.8410930">
	<ele>1282.20</ele>
	<time>2023-11-18T07:38:14.000Z</time>
</trkpt>
<trkpt lat="45.8810320" lon="9.8411000">
	<ele>1282.40</ele>
	<time>2023-11-18T07:38:15.000Z</time>
</trkpt>
<trkpt lat="45.8810320" lon="9.8411090">
	<ele>1282.60</ele>
	<time>2023-11-18T07:38:16.000Z</time>
</trkpt>
<trkpt lat="45.8810320" lon="9.8411210">
	<ele>1282.60</ele>
	<time>2023-11-18T07:38:17.000Z</time>
</trkpt>
<trkpt lat="45.8810320" lon="9.8411350">
	<ele>1282.80</ele>
	<time>2023-11-18T07:38:18.000Z</time>
</trkpt>
<trkpt lat="45.8810310" lon="9.8411470">
	<ele>1283.00</ele>
	<time>2023-11-18T07:38:19.000Z</time>
</trkpt>
<trkpt lat="45.8810300" lon="9.8411590">
	<ele>1283.20</ele>
	<time>2023-11-18T07:38:20.000Z</time>
</trkpt>
<trkpt lat="45.8810270" lon="9.8411720">
	<ele>1283.40</ele>
	<time>2023-11-18T07:38:21.000Z</time>
</trkpt>
<trkpt lat="45.8810250" lon="9.8411850">
	<ele>1283.60</ele>
	<time>2023-11-18T07:38:22.000Z</time>
</trkpt>
<trkpt lat="45.8810240" lon="9.8411970">
	<ele>1283.80</ele>
	<time>2023-11-18T07:38:23.000Z</time>
</trkpt>
<trkpt lat="45.8810210" lon="9.8412090">
	<ele>1284.00</ele>
	<time>2023-11-18T07:38:24.000Z</time>
</trkpt>
<trkpt lat="45.8810210" lon="9.8412250">
	<ele>1284.40</ele>
	<time>2023-11-18T07:38:25.000Z</time>
</trkpt>
<trkpt lat="45.8810240" lon="9.8412400">
	<ele>1284.60</ele>
	<time>2023-11-18T07:38:26.000Z</time>
</trkpt>
<trkpt lat="45.8810250" lon="9.8412530">
	<ele>1284.80</ele>
	<time>2023-11-18T07:38:27.000Z</time>
</trkpt>
<trkpt lat="45.8810210" lon="9.8412600">
	<ele>1284.80</ele>
	<time>2023-11-18T07:38:28.000Z</time>
</trkpt>
<trkpt lat="45.8810210" lon="9.8412770">
	<ele>1285.20</ele>
	<time>2023-11-18T07:38:29.000Z</time>
</trkpt>
<trkpt lat="45.8810180" lon="9.8412810">
	<ele>1285.20</ele>
	<time>2023-11-18T07:38:30.000Z</time>
</trkpt>
<trkpt lat="45.8810160" lon="9.8412860">
	<ele>1285.40</ele>
	<time>2023-11-18T07:38:31.000Z</time>
</trkpt>
<trkpt lat="45.8810170" lon="9.8412900">
	<ele>1285.60</ele>
	<time>2023-11-18T07:38:32.000Z</time>
</trkpt>
<trkpt lat="45.8810180" lon="9.8412950">
	<ele>1286.00</ele>
	<time>2023-11-18T07:38:33.000Z</time>
</trkpt>
<trkpt lat="45.8810070" lon="9.8412940">
	<ele>1286.20</ele>
	<time>2023-11-18T07:38:34.000Z</time>
</trkpt>
<trkpt lat="45.8809970" lon="9.8412900">
	<ele>1286.40</ele>
	<time>2023-11-18T07:38:35.000Z</time>
</trkpt>
<trkpt lat="45.8809880" lon="9.8412940">
	<ele>1286.40</ele>
	<time>2023-11-18T07:38:36.000Z</time>
</trkpt>
<trkpt lat="45.8809830" lon="9.8413080">
	<ele>1286.60</ele>
	<time>2023-11-18T07:38:37.000Z</time>
</trkpt>
<trkpt lat="45.8809780" lon="9.8413280">
	<ele>1287.00</ele>
	<time>2023-11-18T07:38:38.000Z</time>
</trkpt>
<trkpt lat="45.8809740" lon="9.8413450">
	<ele>1287.00</ele>
	<time>2023-11-18T07:38:39.000Z</time>
</trkpt>
<trkpt lat="45.8809680" lon="9.8413610">
	<ele>1287.20</ele>
	<time>2023-11-18T07:38:40.000Z</time>
</trkpt>
<trkpt lat="45.8809600" lon="9.8413710">
	<ele>1287.40</ele>
	<time>2023-11-18T07:38:41.000Z</time>
</trkpt>
<trkpt lat="45.8809530" lon="9.8413790">
	<ele>1287.40</ele>
	<time>2023-11-18T07:38:42.000Z</time>
</trkpt>
<trkpt lat="45.8809400" lon="9.8413940">
	<ele>1287.60</ele>
	<time>2023-11-18T07:38:43.000Z</time>
</trkpt>
<trkpt lat="45.8809380" lon="9.8413910">
	<ele>1287.80</ele>
	<time>2023-11-18T07:38:44.000Z</time>
</trkpt>
<trkpt lat="45.8809360" lon="9.8413990">
	<ele>1287.80</ele>
	<time>2023-11-18T07:38:45.000Z</time>
</trkpt>
<trkpt lat="45.8809420" lon="9.8413990">
	<ele>1288.00</ele>
	<time>2023-11-18T07:38:46.000Z</time>
</trkpt>
<trkpt lat="45.8809470" lon="9.8414060">
	<ele>1288.20</ele>
	<time>2023-11-18T07:38:47.000Z</time>
</trkpt>
<trkpt lat="45.8809530" lon="9.8414060">
	<ele>1288.40</ele>
	<time>2023-11-18T07:38:48.000Z</time>
</trkpt>
<trkpt lat="45.8809520" lon="9.8414160">
	<ele>1288.60</ele>
	<time>2023-11-18T07:38:49.000Z</time>
</trkpt>
<trkpt lat="45.8809540" lon="9.8414220">
	<ele>1288.80</ele>
	<time>2023-11-18T07:38:50.000Z</time>
</trkpt>
<trkpt lat="45.8809550" lon="9.8414270">
	<ele>1288.80</ele>
	<time>2023-11-18T07:38:51.000Z</time>
</trkpt>
<trkpt lat="45.8809580" lon="9.8414300">
	<ele>1289.00</ele>
	<time>2023-11-18T07:38:52.000Z</time>
</trkpt>
<trkpt lat="45.8809550" lon="9.8414370">
	<ele>1289.20</ele>
	<time>2023-11-18T07:38:53.000Z</time>
</trkpt>
<trkpt lat="45.8809530" lon="9.8414470">
	<ele>1289.20</ele>
	<time>2023-11-18T07:38:54.000Z</time>
</trkpt>
<trkpt lat="45.8809520" lon="9.8414570">
	<ele>1289.40</ele>
	<time>2023-11-18T07:38:55.000Z</time>
</trkpt>
<trkpt lat="45.8809490" lon="9.8414610">
	<ele>1289.60</ele>
	<time>2023-11-18T07:38:56.000Z</time>
</trkpt>
<trkpt lat="45.8809450" lon="9.8414690">
	<ele>1289.60</ele>
	<time>2023-11-18T07:38:57.000Z</time>
</trkpt>
<trkpt lat="45.8809410" lon="9.8414780">
	<ele>1289.80</ele>
	<time>2023-11-18T07:38:58.000Z</time>
</trkpt>
<trkpt lat="45.8809370" lon="9.8414900">
	<ele>1290.00</ele>
	<time>2023-11-18T07:38:59.000Z</time>
</trkpt>
<trkpt lat="45.8809330" lon="9.8414990">
	<ele>1290.20</ele>
	<time>2023-11-18T07:39:00.000Z</time>
</trkpt>
<trkpt lat="45.8809280" lon="9.8415120">
	<ele>1290.40</ele>
	<time>2023-11-18T07:39:01.000Z</time>
</trkpt>
<trkpt lat="45.8809220" lon="9.8415220">
	<ele>1290.40</ele>
	<time>2023-11-18T07:39:02.000Z</time>
</trkpt>
<trkpt lat="45.8809180" lon="9.8415280">
	<ele>1290.80</ele>
	<time>2023-11-18T07:39:03.000Z</time>
</trkpt>
<trkpt lat="45.8809100" lon="9.8415380">
	<ele>1291.00</ele>
	<time>2023-11-18T07:39:04.000Z</time>
</trkpt>
<trkpt lat="45.8809030" lon="9.8415460">
	<ele>1291.00</ele>
	<time>2023-11-18T07:39:05.000Z</time>
</trkpt>
<trkpt lat="45.8808960" lon="9.8415570">
	<ele>1291.20</ele>
	<time>2023-11-18T07:39:06.000Z</time>
</trkpt>
<trkpt lat="45.8808880" lon="9.8415690">
	<ele>1291.20</ele>
	<time>2023-11-18T07:39:07.000Z</time>
</trkpt>
<trkpt lat="45.8808830" lon="9.8415770">
	<ele>1291.40</ele>
	<time>2023-11-18T07:39:08.000Z</time>
</trkpt>
<trkpt lat="45.8808760" lon="9.8415870">
	<ele>1291.40</ele>
	<time>2023-11-18T07:39:09.000Z</time>
</trkpt>
<trkpt lat="45.8808700" lon="9.8415960">
	<ele>1291.60</ele>
	<time>2023-11-18T07:39:10.000Z</time>
</trkpt>
<trkpt lat="45.8808690" lon="9.8416000">
	<ele>1291.60</ele>
	<time>2023-11-18T07:39:11.000Z</time>
</trkpt>
<trkpt lat="45.8808690" lon="9.8416020">
	<ele>1291.60</ele>
	<time>2023-11-18T07:39:12.000Z</time>
</trkpt>
<trkpt lat="45.8808700" lon="9.8416010">
	<ele>1291.60</ele>
	<time>2023-11-18T07:39:13.000Z</time>
</trkpt>
<trkpt lat="45.8808700" lon="9.8416000">
	<ele>1291.60</ele>
	<time>2023-11-18T07:39:14.000Z</time>
</trkpt>
<trkpt lat="45.8808720" lon="9.8415970">
	<ele>1291.60</ele>
	<time>2023-11-18T07:39:15.000Z</time>
</trkpt>
<trkpt lat="45.8808720" lon="9.8415940">
	<ele>1291.60</ele>
	<time>2023-11-18T07:39:16.000Z</time>
</trkpt>
<trkpt lat="45.8808700" lon="9.8415930">
	<ele>1291.60</ele>
	<time>2023-11-18T07:39:17.000Z</time>
</trkpt>
<trkpt lat="45.8808670" lon="9.8415960">
	<ele>1291.60</ele>
	<time>2023-11-18T07:39:18.000Z</time>
</trkpt>
<trkpt lat="45.8808630" lon="9.8416040">
	<ele>1291.60</ele>
	<time>2023-11-18T07:39:19.000Z</time>
</trkpt>
<trkpt lat="45.8808620" lon="9.8416140">
	<ele>1291.60</ele>
	<time>2023-11-18T07:39:20.000Z</time>
</trkpt>
<trkpt lat="45.8808680" lon="9.8416190">
	<ele>1291.80</ele>
	<time>2023-11-18T07:39:21.000Z</time>
</trkpt>
<trkpt lat="45.8808700" lon="9.8416190">
	<ele>1291.80</ele>
	<time>2023-11-18T07:39:22.000Z</time>
</trkpt>
<trkpt lat="45.8808690" lon="9.8416220">
	<ele>1292.00</ele>
	<time>2023-11-18T07:39:23.000Z</time>
</trkpt>
<trkpt lat="45.8808690" lon="9.8416230">
	<ele>1292.00</ele>
	<time>2023-11-18T07:39:24.000Z</time>
</trkpt>
<trkpt lat="45.8808690" lon="9.8416230">
	<ele>1292.20</ele>
	<time>2023-11-18T07:39:25.000Z</time>
</trkpt>
<trkpt lat="45.8808690" lon="9.8416230">
	<ele>1292.20</ele>
	<time>2023-11-18T07:39:26.000Z</time>
</trkpt>
<trkpt lat="45.8808690" lon="9.8416230">
	<ele>1292.20</ele>
	<time>2023-11-18T07:39:27.000Z</time>
</trkpt>
<trkpt lat="45.8808690" lon="9.8416230">
	<ele>1292.40</ele>
	<time>2023-11-18T07:39:28.000Z</time>
</trkpt>
<trkpt lat="45.8808690" lon="9.8416230">
	<ele>1292.40</ele>
	<time>2023-11-18T07:39:29.000Z</time>
</trkpt>
<trkpt lat="45.8808690" lon="9.8416230">
	<ele>1292.60</ele>
	<time>2023-11-18T07:39:30.000Z</time>
</trkpt>
<trkpt lat="45.8808690" lon="9.8416230">
	<ele>1292.60</ele>
	<time>2023-11-18T07:39:31.000Z</time>
</trkpt>
<trkpt lat="45.8808690" lon="9.8416230">
	<ele>1292.60</ele>
	<time>2023-11-18T07:39:32.000Z</time>
</trkpt>
<trkpt lat="45.8808690" lon="9.8416230">
	<ele>1292.80</ele>
	<time>2023-11-18T07:39:33.000Z</time>
</trkpt>
<trkpt lat="45.8808690" lon="9.8416230">
	<ele>1292.80</ele>
	<time>2023-11-18T07:39:34.000Z</time>
</trkpt>
<trkpt lat="45.8808690" lon="9.8416230">
	<ele>1293.00</ele>
	<time>2023-11-18T07:39:35.000Z</time>
</trkpt>
<trkpt lat="45.8808690" lon="9.8416230">
	<ele>1293.00</ele>
	<time>2023-11-18T07:39:36.000Z</time>
</trkpt>
<trkpt lat="45.8808690" lon="9.8416230">
	<ele>1293.00</ele>
	<time>2023-11-18T07:39:37.000Z</time>
</trkpt>
<trkpt lat="45.8808690" lon="9.8416230">
	<ele>1293.00</ele>
	<time>2023-11-18T07:39:38.000Z</time>
</trkpt>
<trkpt lat="45.8808700" lon="9.8416230">
	<ele>1293.00</ele>
	<time>2023-11-18T07:39:39.000Z</time>
</trkpt>
<trkpt lat="45.8808700" lon="9.8416250">
	<ele>1293.00</ele>
	<time>2023-11-18T07:39:40.000Z</time>
</trkpt>
<trkpt lat="45.8808700" lon="9.8416270">
	<ele>1293.00</ele>
	<time>2023-11-18T07:39:41.000Z</time>
</trkpt>
<trkpt lat="45.8808720" lon="9.8416280">
	<ele>1293.00</ele>
	<time>2023-11-18T07:39:42.000Z</time>
</trkpt>
<trkpt lat="45.8808730" lon="9.8416280">
	<ele>1293.20</ele>
	<time>2023-11-18T07:39:43.000Z</time>
</trkpt>
<trkpt lat="45.8808780" lon="9.8416280">
	<ele>1293.40</ele>
	<time>2023-11-18T07:39:44.000Z</time>
</trkpt>
<trkpt lat="45.8808780" lon="9.8416280">
	<ele>1293.60</ele>
	<time>2023-11-18T07:39:45.000Z</time>
</trkpt>
<trkpt lat="45.8808790" lon="9.8416280">
	<ele>1293.60</ele>
	<time>2023-11-18T07:39:46.000Z</time>
</trkpt>
<trkpt lat="45.8808790" lon="9.8416280">
	<ele>1293.60</ele>
	<time>2023-11-18T07:39:47.000Z</time>
</trkpt>
<trkpt lat="45.8808800" lon="9.8416280">
	<ele>1293.80</ele>
	<time>2023-11-18T07:39:48.000Z</time>
</trkpt>
<trkpt lat="45.8808850" lon="9.8416230">
	<ele>1293.80</ele>
	<time>2023-11-18T07:39:49.000Z</time>
</trkpt>
<trkpt lat="45.8808970" lon="9.8416150">
	<ele>1293.80</ele>
	<time>2023-11-18T07:39:50.000Z</time>
</trkpt>
<trkpt lat="45.8809090" lon="9.8416070">
	<ele>1293.80</ele>
	<time>2023-11-18T07:39:51.000Z</time>
</trkpt>
<trkpt lat="45.8809200" lon="9.8415960">
	<ele>1294.00</ele>
	<time>2023-11-18T07:39:52.000Z</time>
</trkpt>
<trkpt lat="45.8809300" lon="9.8415870">
	<ele>1294.20</ele>
	<time>2023-11-18T07:39:53.000Z</time>
</trkpt>
<trkpt lat="45.8809390" lon="9.8415840">
	<ele>1294.20</ele>
	<time>2023-11-18T07:39:54.000Z</time>
</trkpt>
<trkpt lat="45.8809470" lon="9.8415840">
	<ele>1294.40</ele>
	<time>2023-11-18T07:39:55.000Z</time>
</trkpt>
<trkpt lat="45.8809560" lon="9.8415830">
	<ele>1294.60</ele>
	<time>2023-11-18T07:39:56.000Z</time>
</trkpt>
<trkpt lat="45.8809630" lon="9.8415830">
	<ele>1294.60</ele>
	<time>2023-11-18T07:39:57.000Z</time>
</trkpt>
<trkpt lat="45.8809710" lon="9.8415820">
	<ele>1294.80</ele>
	<time>2023-11-18T07:39:58.000Z</time>
</trkpt>
<trkpt lat="45.8809750" lon="9.8415870">
	<ele>1295.00</ele>
	<time>2023-11-18T07:39:59.000Z</time>
</trkpt>
<trkpt lat="45.8809800" lon="9.8415900">
	<ele>1295.20</ele>
	<time>2023-11-18T07:40:00.000Z</time>
</trkpt>
<trkpt lat="45.8809840" lon="9.8415920">
	<ele>1295.40</ele>
	<time>2023-11-18T07:40:01.000Z</time>
</trkpt>
<trkpt lat="45.8809880" lon="9.8415910">
	<ele>1295.80</ele>
	<time>2023-11-18T07:40:02.000Z</time>
</trkpt>
<trkpt lat="45.8809900" lon="9.8415930">
	<ele>1296.00</ele>
	<time>2023-11-18T07:40:03.000Z</time>
</trkpt>
<trkpt lat="45.8809950" lon="9.8415980">
	<ele>1296.20</ele>
	<time>2023-11-18T07:40:04.000Z</time>
</trkpt>
<trkpt lat="45.8809990" lon="9.8416000">
	<ele>1296.60</ele>
	<time>2023-11-18T07:40:05.000Z</time>
</trkpt>
<trkpt lat="45.8810020" lon="9.8416070">
	<ele>1296.80</ele>
	<time>2023-11-18T07:40:06.000Z</time>
</trkpt>
<trkpt lat="45.8810040" lon="9.8416110">
	<ele>1296.80</ele>
	<time>2023-11-18T07:40:07.000Z</time>
</trkpt>
<trkpt lat="45.8810080" lon="9.8416120">
	<ele>1297.20</ele>
	<time>2023-11-18T07:40:08.000Z</time>
</trkpt>
<trkpt lat="45.8810130" lon="9.8416150">
	<ele>1297.40</ele>
	<time>2023-11-18T07:40:09.000Z</time>
</trkpt>
<trkpt lat="45.8810170" lon="9.8416150">
	<ele>1297.60</ele>
	<time>2023-11-18T07:40:10.000Z</time>
</trkpt>
<trkpt lat="45.8810190" lon="9.8416140">
	<ele>1297.80</ele>
	<time>2023-11-18T07:40:11.000Z</time>
</trkpt>
<trkpt lat="45.8810260" lon="9.8416150">
	<ele>1297.80</ele>
	<time>2023-11-18T07:40:12.000Z</time>
</trkpt>
<trkpt lat="45.8810300" lon="9.8416160">
	<ele>1298.00</ele>
	<time>2023-11-18T07:40:13.000Z</time>
</trkpt>
<trkpt lat="45.8810360" lon="9.8416210">
	<ele>1298.20</ele>
	<time>2023-11-18T07:40:14.000Z</time>
</trkpt>
<trkpt lat="45.8810420" lon="9.8416230">
	<ele>1298.60</ele>
	<time>2023-11-18T07:40:15.000Z</time>
</trkpt>
<trkpt lat="45.8810470" lon="9.8416250">
	<ele>1298.80</ele>
	<time>2023-11-18T07:40:16.000Z</time>
</trkpt>
<trkpt lat="45.8810480" lon="9.8416250">
	<ele>1299.00</ele>
	<time>2023-11-18T07:40:17.000Z</time>
</trkpt>
<trkpt lat="45.8810500" lon="9.8416270">
	<ele>1299.20</ele>
	<time>2023-11-18T07:40:18.000Z</time>
</trkpt>
<trkpt lat="45.8810530" lon="9.8416290">
	<ele>1299.40</ele>
	<time>2023-11-18T07:40:19.000Z</time>
</trkpt>
<trkpt lat="45.8810560" lon="9.8416310">
	<ele>1299.60</ele>
	<time>2023-11-18T07:40:20.000Z</time>
</trkpt>
<trkpt lat="45.8810600" lon="9.8416320">
	<ele>1299.80</ele>
	<time>2023-11-18T07:40:21.000Z</time>
</trkpt>
<trkpt lat="45.8810650" lon="9.8416380">
	<ele>1299.80</ele>
	<time>2023-11-18T07:40:22.000Z</time>
</trkpt>
<trkpt lat="45.8810710" lon="9.8416380">
	<ele>1300.00</ele>
	<time>2023-11-18T07:40:23.000Z</time>
</trkpt>
<trkpt lat="45.8810760" lon="9.8416360">
	<ele>1300.20</ele>
	<time>2023-11-18T07:40:24.000Z</time>
</trkpt>
<trkpt lat="45.8810780" lon="9.8416330">
	<ele>1300.40</ele>
	<time>2023-11-18T07:40:25.000Z</time>
</trkpt>
<trkpt lat="45.8810820" lon="9.8416320">
	<ele>1300.60</ele>
	<time>2023-11-18T07:40:26.000Z</time>
</trkpt>
<trkpt lat="45.8810840" lon="9.8416260">
	<ele>1300.60</ele>
	<time>2023-11-18T07:40:27.000Z</time>
</trkpt>
<trkpt lat="45.8810840" lon="9.8416270">
	<ele>1300.80</ele>
	<time>2023-11-18T07:40:28.000Z</time>
</trkpt>
<trkpt lat="45.8810860" lon="9.8416280">
	<ele>1301.00</ele>
	<time>2023-11-18T07:40:29.000Z</time>
</trkpt>
<trkpt lat="45.8810890" lon="9.8416290">
	<ele>1301.20</ele>
	<time>2023-11-18T07:40:30.000Z</time>
</trkpt>
<trkpt lat="45.8810920" lon="9.8416310">
	<ele>1301.20</ele>
	<time>2023-11-18T07:40:31.000Z</time>
</trkpt>
<trkpt lat="45.8810950" lon="9.8416330">
	<ele>1301.40</ele>
	<time>2023-11-18T07:40:32.000Z</time>
</trkpt>
<trkpt lat="45.8810970" lon="9.8416370">
	<ele>1301.60</ele>
	<time>2023-11-18T07:40:33.000Z</time>
</trkpt>
<trkpt lat="45.8810980" lon="9.8416440">
	<ele>1301.80</ele>
	<time>2023-11-18T07:40:34.000Z</time>
</trkpt>
<trkpt lat="45.8810970" lon="9.8416520">
	<ele>1302.00</ele>
	<time>2023-11-18T07:40:35.000Z</time>
</trkpt>
<trkpt lat="45.8810960" lon="9.8416580">
	<ele>1302.20</ele>
	<time>2023-11-18T07:40:36.000Z</time>
</trkpt>
<trkpt lat="45.8810960" lon="9.8416650">
	<ele>1302.20</ele>
	<time>2023-11-18T07:40:37.000Z</time>
</trkpt>
<trkpt lat="45.8810960" lon="9.8416680">
	<ele>1302.40</ele>
	<time>2023-11-18T07:40:38.000Z</time>
</trkpt>
<trkpt lat="45.8810970" lon="9.8416710">
	<ele>1302.80</ele>
	<time>2023-11-18T07:40:39.000Z</time>
</trkpt>
<trkpt lat="45.8810970" lon="9.8416730">
	<ele>1303.00</ele>
	<time>2023-11-18T07:40:40.000Z</time>
</trkpt>
<trkpt lat="45.8810970" lon="9.8416780">
	<ele>1303.20</ele>
	<time>2023-11-18T07:40:41.000Z</time>
</trkpt>
<trkpt lat="45.8811010" lon="9.8416840">
	<ele>1303.40</ele>
	<time>2023-11-18T07:40:42.000Z</time>
</trkpt>
<trkpt lat="45.8811090" lon="9.8416900">
	<ele>1303.60</ele>
	<time>2023-11-18T07:40:43.000Z</time>
</trkpt>
<trkpt lat="45.8811160" lon="9.8416930">
	<ele>1303.80</ele>
	<time>2023-11-18T07:40:44.000Z</time>
</trkpt>
<trkpt lat="45.8811210" lon="9.8416930">
	<ele>1304.00</ele>
	<time>2023-11-18T07:40:45.000Z</time>
</trkpt>
<trkpt lat="45.8811250" lon="9.8416930">
	<ele>1304.20</ele>
	<time>2023-11-18T07:40:46.000Z</time>
</trkpt>
<trkpt lat="45.8811290" lon="9.8416950">
	<ele>1304.40</ele>
	<time>2023-11-18T07:40:47.000Z</time>
</trkpt>
<trkpt lat="45.8811340" lon="9.8416990">
	<ele>1304.40</ele>
	<time>2023-11-18T07:40:48.000Z</time>
</trkpt>
<trkpt lat="45.8811390" lon="9.8417000">
	<ele>1304.60</ele>
	<time>2023-11-18T07:40:49.000Z</time>
</trkpt>
<trkpt lat="45.8811450" lon="9.8417030">
	<ele>1304.60</ele>
	<time>2023-11-18T07:40:50.000Z</time>
</trkpt>
<trkpt lat="45.8811530" lon="9.8417000">
	<ele>1304.60</ele>
	<time>2023-11-18T07:40:51.000Z</time>
</trkpt>
<trkpt lat="45.8811610" lon="9.8417010">
	<ele>1304.80</ele>
	<time>2023-11-18T07:40:52.000Z</time>
</trkpt>
<trkpt lat="45.8811660" lon="9.8416990">
	<ele>1304.80</ele>
	<time>2023-11-18T07:40:53.000Z</time>
</trkpt>
<trkpt lat="45.8811710" lon="9.8416940">
	<ele>1305.00</ele>
	<time>2023-11-18T07:40:54.000Z</time>
</trkpt>
<trkpt lat="45.8811730" lon="9.8416880">
	<ele>1305.00</ele>
	<time>2023-11-18T07:40:55.000Z</time>
</trkpt>
<trkpt lat="45.8811740" lon="9.8416830">
	<ele>1305.20</ele>
	<time>2023-11-18T07:40:56.000Z</time>
</trkpt>
<trkpt lat="45.8811750" lon="9.8416820">
	<ele>1305.20</ele>
	<time>2023-11-18T07:40:57.000Z</time>
</trkpt>
<trkpt lat="45.8811750" lon="9.8416810">
	<ele>1305.20</ele>
	<time>2023-11-18T07:40:58.000Z</time>
</trkpt>
<trkpt lat="45.8811760" lon="9.8416790">
	<ele>1305.40</ele>
	<time>2023-11-18T07:40:59.000Z</time>
</trkpt>
<trkpt lat="45.8811750" lon="9.8416770">
	<ele>1305.20</ele>
	<time>2023-11-18T07:41:00.000Z</time>
</trkpt>
<trkpt lat="45.8811760" lon="9.8416750">
	<ele>1305.20</ele>
	<time>2023-11-18T07:41:01.000Z</time>
</trkpt>
<trkpt lat="45.8811780" lon="9.8416700">
	<ele>1305.20</ele>
	<time>2023-11-18T07:41:02.000Z</time>
</trkpt>
<trkpt lat="45.8811800" lon="9.8416670">
	<ele>1305.20</ele>
	<time>2023-11-18T07:41:03.000Z</time>
</trkpt>
<trkpt lat="45.8811800" lon="9.8416650">
	<ele>1305.20</ele>
	<time>2023-11-18T07:41:04.000Z</time>
</trkpt>
<trkpt lat="45.8811830" lon="9.8416640">
	<ele>1305.20</ele>
	<time>2023-11-18T07:41:05.000Z</time>
</trkpt>
<trkpt lat="45.8811830" lon="9.8416630">
	<ele>1305.40</ele>
	<time>2023-11-18T07:41:06.000Z</time>
</trkpt>
<trkpt lat="45.8811830" lon="9.8416630">
	<ele>1305.40</ele>
	<time>2023-11-18T07:41:07.000Z</time>
</trkpt>
<trkpt lat="45.8811830" lon="9.8416630">
	<ele>1305.40</ele>
	<time>2023-11-18T07:41:08.000Z</time>
</trkpt>
<trkpt lat="45.8811830" lon="9.8416630">
	<ele>1305.40</ele>
	<time>2023-11-18T07:41:09.000Z</time>
</trkpt>
<trkpt lat="45.8811830" lon="9.8416630">
	<ele>1305.40</ele>
	<time>2023-11-18T07:41:10.000Z</time>
</trkpt>
<trkpt lat="45.8811830" lon="9.8416630">
	<ele>1305.40</ele>
	<time>2023-11-18T07:41:11.000Z</time>
</trkpt>
<trkpt lat="45.8811830" lon="9.8416630">
	<ele>1305.20</ele>
	<time>2023-11-18T07:41:12.000Z</time>
</trkpt>
<trkpt lat="45.8811830" lon="9.8416630">
	<ele>1305.20</ele>
	<time>2023-11-18T07:41:13.000Z</time>
</trkpt>
<trkpt lat="45.8811830" lon="9.8416630">
	<ele>1305.20</ele>
	<time>2023-11-18T07:41:14.000Z</time>
</trkpt>
<trkpt lat="45.8811830" lon="9.8416630">
	<ele>1305.20</ele>
	<time>2023-11-18T07:41:15.000Z</time>
</trkpt>
<trkpt lat="45.8811830" lon="9.8416630">
	<ele>1305.20</ele>
	<time>2023-11-18T07:41:16.000Z</time>
</trkpt>
<trkpt lat="45.8811830" lon="9.8416630">
	<ele>1305.20</ele>
	<time>2023-11-18T07:41:17.000Z</time>
</trkpt>
<trkpt lat="45.8811830" lon="9.8416630">
	<ele>1305.20</ele>
	<time>2023-11-18T07:41:18.000Z</time>
</trkpt>
<trkpt lat="45.8811830" lon="9.8416630">
	<ele>1305.40</ele>
	<time>2023-11-18T07:41:19.000Z</time>
</trkpt>
<trkpt lat="45.8811830" lon="9.8416640">
	<ele>1305.40</ele>
	<time>2023-11-18T07:41:20.000Z</time>
</trkpt>
<trkpt lat="45.8811830" lon="9.8416640">
	<ele>1305.40</ele>
	<time>2023-11-18T07:41:21.000Z</time>
</trkpt>
<trkpt lat="45.8811830" lon="9.8416640">
	<ele>1305.60</ele>
	<time>2023-11-18T07:41:22.000Z</time>
</trkpt>
<trkpt lat="45.8811860" lon="9.8416640">
	<ele>1305.60</ele>
	<time>2023-11-18T07:41:23.000Z</time>
</trkpt>
<trkpt lat="45.8811870" lon="9.8416650">
	<ele>1305.60</ele>
	<time>2023-11-18T07:41:24.000Z</time>
</trkpt>
<trkpt lat="45.8811890" lon="9.8416650">
	<ele>1305.80</ele>
	<time>2023-11-18T07:41:25.000Z</time>
</trkpt>
<trkpt lat="45.8811920" lon="9.8416710">
	<ele>1305.80</ele>
	<time>2023-11-18T07:41:26.000Z</time>
</trkpt>
<trkpt lat="45.8811980" lon="9.8416750">
	<ele>1306.00</ele>
	<time>2023-11-18T07:41:27.000Z</time>
</trkpt>
<trkpt lat="45.8812020" lon="9.8416770">
	<ele>1306.20</ele>
	<time>2023-11-18T07:41:28.000Z</time>
</trkpt>
<trkpt lat="45.8812080" lon="9.8416870">
	<ele>1306.20</ele>
	<time>2023-11-18T07:41:29.000Z</time>
</trkpt>
<trkpt lat="45.8812130" lon="9.8416960">
	<ele>1306.40</ele>
	<time>2023-11-18T07:41:30.000Z</time>
</trkpt>
<trkpt lat="45.8812180" lon="9.8417030">
	<ele>1306.40</ele>
	<time>2023-11-18T07:41:31.000Z</time>
</trkpt>
<trkpt lat="45.8812220" lon="9.8417100">
	<ele>1306.40</ele>
	<time>2023-11-18T07:41:32.000Z</time>
</trkpt>
<trkpt lat="45.8812250" lon="9.8417150">
	<ele>1306.40</ele>
	<time>2023-11-18T07:41:33.000Z</time>
</trkpt>
<trkpt lat="45.8812270" lon="9.8417200">
	<ele>1306.40</ele>
	<time>2023-11-18T07:41:34.000Z</time>
</trkpt>
<trkpt lat="45.8812280" lon="9.8417250">
	<ele>1306.40</ele>
	<time>2023-11-18T07:41:35.000Z</time>
</trkpt>
<trkpt lat="45.8812260" lon="9.8417280">
	<ele>1306.40</ele>
	<time>2023-11-18T07:41:36.000Z</time>
</trkpt>
<trkpt lat="45.8812240" lon="9.8417260">
	<ele>1306.40</ele>
	<time>2023-11-18T07:41:37.000Z</time>
</trkpt>
<trkpt lat="45.8812220" lon="9.8417250">
	<ele>1306.40</ele>
	<time>2023-11-18T07:41:38.000Z</time>
</trkpt>
<trkpt lat="45.8812210" lon="9.8417260">
	<ele>1306.40</ele>
	<time>2023-11-18T07:41:39.000Z</time>
</trkpt>
<trkpt lat="45.8812200" lon="9.8417250">
	<ele>1306.20</ele>
	<time>2023-11-18T07:41:40.000Z</time>
</trkpt>
<trkpt lat="45.8812190" lon="9.8417250">
	<ele>1306.20</ele>
	<time>2023-11-18T07:41:41.000Z</time>
</trkpt>
<trkpt lat="45.8812190" lon="9.8417250">
	<ele>1306.20</ele>
	<time>2023-11-18T07:41:42.000Z</time>
</trkpt>
<trkpt lat="45.8812190" lon="9.8417250">
	<ele>1306.20</ele>
	<time>2023-11-18T07:41:43.000Z</time>
</trkpt>
<trkpt lat="45.8812190" lon="9.8417250">
	<ele>1306.20</ele>
	<time>2023-11-18T07:41:44.000Z</time>
</trkpt>
<trkpt lat="45.8812190" lon="9.8417250">
	<ele>1306.20</ele>
	<time>2023-11-18T07:41:45.000Z</time>
</trkpt>
<trkpt lat="45.8812190" lon="9.8417250">
	<ele>1306.20</ele>
	<time>2023-11-18T07:41:46.000Z</time>
</trkpt>
<trkpt lat="45.8812190" lon="9.8417250">
	<ele>1306.20</ele>
	<time>2023-11-18T07:41:47.000Z</time>
</trkpt>
<trkpt lat="45.8812190" lon="9.8417250">
	<ele>1306.20</ele>
	<time>2023-11-18T07:41:48.000Z</time>
</trkpt>
<trkpt lat="45.8812190" lon="9.8417250">
	<ele>1306.00</ele>
	<time>2023-11-18T07:41:49.000Z</time>
</trkpt>
<trkpt lat="45.8812190" lon="9.8417250">
	<ele>1306.00</ele>
	<time>2023-11-18T07:41:50.000Z</time>
</trkpt>
<trkpt lat="45.8812190" lon="9.8417250">
	<ele>1306.00</ele>
	<time>2023-11-18T07:41:51.000Z</time>
</trkpt>
<trkpt lat="45.8812190" lon="9.8417250">
	<ele>1306.00</ele>
	<time>2023-11-18T07:41:52.000Z</time>
</trkpt>
<trkpt lat="45.8812190" lon="9.8417250">
	<ele>1306.00</ele>
	<time>2023-11-18T07:41:53.000Z</time>
</trkpt>
<trkpt lat="45.8812190" lon="9.8417250">
	<ele>1306.00</ele>
	<time>2023-11-18T07:41:54.000Z</time>
</trkpt>
<trkpt lat="45.8812190" lon="9.8417250">
	<ele>1306.00</ele>
	<time>2023-11-18T07:41:55.000Z</time>
</trkpt>
<trkpt lat="45.8812190" lon="9.8417250">
	<ele>1306.00</ele>
	<time>2023-11-18T07:41:56.000Z</time>
</trkpt>
<trkpt lat="45.8812190" lon="9.8417260">
	<ele>1306.00</ele>
	<time>2023-11-18T07:41:57.000Z</time>
</trkpt>
<trkpt lat="45.8812180" lon="9.8417260">
	<ele>1306.00</ele>
	<time>2023-11-18T07:41:58.000Z</time>
</trkpt>
<trkpt lat="45.8812160" lon="9.8417260">
	<ele>1306.00</ele>
	<time>2023-11-18T07:41:59.000Z</time>
</trkpt>
<trkpt lat="45.8812160" lon="9.8417260">
	<ele>1306.00</ele>
	<time>2023-11-18T07:42:00.000Z</time>
</trkpt>
<trkpt lat="45.8812160" lon="9.8417260">
	<ele>1306.20</ele>
	<time>2023-11-18T07:42:01.000Z</time>
</trkpt>
<trkpt lat="45.8812160" lon="9.8417260">
	<ele>1306.20</ele>
	<time>2023-11-18T07:42:02.000Z</time>
</trkpt>
<trkpt lat="45.8812160" lon="9.8417260">
	<ele>1306.40</ele>
	<time>2023-11-18T07:42:03.000Z</time>
</trkpt>
<trkpt lat="45.8812160" lon="9.8417260">
	<ele>1306.40</ele>
	<time>2023-11-18T07:42:04.000Z</time>
</trkpt>
<trkpt lat="45.8812160" lon="9.8417260">
	<ele>1306.40</ele>
	<time>2023-11-18T07:42:05.000Z</time>
</trkpt>
<trkpt lat="45.8812160" lon="9.8417260">
	<ele>1306.40</ele>
	<time>2023-11-18T07:42:06.000Z</time>
</trkpt>
<trkpt lat="45.8812160" lon="9.8417260">
	<ele>1306.20</ele>
	<time>2023-11-18T07:42:07.000Z</time>
</trkpt>
<trkpt lat="45.8812160" lon="9.8417260">
	<ele>1306.20</ele>
	<time>2023-11-18T07:42:08.000Z</time>
</trkpt>
<trkpt lat="45.8812160" lon="9.8417270">
	<ele>1306.20</ele>
	<time>2023-11-18T07:42:09.000Z</time>
</trkpt>
<trkpt lat="45.8812160" lon="9.8417270">
	<ele>1306.20</ele>
	<time>2023-11-18T07:42:10.000Z</time>
</trkpt>
<trkpt lat="45.8812160" lon="9.8417270">
	<ele>1306.20</ele>
	<time>2023-11-18T07:42:11.000Z</time>
</trkpt>
<trkpt lat="45.8812160" lon="9.8417290">
	<ele>1306.20</ele>
	<time>2023-11-18T07:42:12.000Z</time>
</trkpt>
<trkpt lat="45.8812160" lon="9.8417310">
	<ele>1306.20</ele>
	<time>2023-11-18T07:42:13.000Z</time>
</trkpt>
<trkpt lat="45.8812160" lon="9.8417310">
	<ele>1306.20</ele>
	<time>2023-11-18T07:42:14.000Z</time>
</trkpt>
<trkpt lat="45.8812210" lon="9.8417310">
	<ele>1306.20</ele>
	<time>2023-11-18T07:42:15.000Z</time>
</trkpt>
<trkpt lat="45.8812240" lon="9.8417320">
	<ele>1306.20</ele>
	<time>2023-11-18T07:42:16.000Z</time>
</trkpt>
<trkpt lat="45.8812280" lon="9.8417320">
	<ele>1306.20</ele>
	<time>2023-11-18T07:42:17.000Z</time>
</trkpt>
<trkpt lat="45.8812300" lon="9.8417330">
	<ele>1306.20</ele>
	<time>2023-11-18T07:42:18.000Z</time>
</trkpt>
<trkpt lat="45.8812300" lon="9.8417340">
	<ele>1306.40</ele>
	<time>2023-11-18T07:42:19.000Z</time>
</trkpt>
<trkpt lat="45.8812300" lon="9.8417340">
	<ele>1306.40</ele>
	<time>2023-11-18T07:42:20.000Z</time>
</trkpt>
<trkpt lat="45.8812310" lon="9.8417340">
	<ele>1306.40</ele>
	<time>2023-11-18T07:42:21.000Z</time>
</trkpt>
<trkpt lat="45.8812310" lon="9.8417370">
	<ele>1306.40</ele>
	<time>2023-11-18T07:42:22.000Z</time>
</trkpt>
<trkpt lat="45.8812310" lon="9.8417380">
	<ele>1306.40</ele>
	<time>2023-11-18T07:42:23.000Z</time>
</trkpt>
<trkpt lat="45.8812310" lon="9.8417380">
	<ele>1306.20</ele>
	<time>2023-11-18T07:42:24.000Z</time>
</trkpt>
<trkpt lat="45.8812310" lon="9.8417380">
	<ele>1306.20</ele>
	<time>2023-11-18T07:42:25.000Z</time>
</trkpt>
<trkpt lat="45.8812320" lon="9.8417380">
	<ele>1306.20</ele>
	<time>2023-11-18T07:42:26.000Z</time>
</trkpt>
<trkpt lat="45.8812320" lon="9.8417380">
	<ele>1306.20</ele>
	<time>2023-11-18T07:42:27.000Z</time>
</trkpt>
<trkpt lat="45.8812320" lon="9.8417380">
	<ele>1306.20</ele>
	<time>2023-11-18T07:42:28.000Z</time>
</trkpt>
<trkpt lat="45.8812320" lon="9.8417380">
	<ele>1306.40</ele>
	<time>2023-11-18T07:42:29.000Z</time>
</trkpt>
<trkpt lat="45.8812320" lon="9.8417370">
	<ele>1306.40</ele>
	<time>2023-11-18T07:42:30.000Z</time>
</trkpt>
<trkpt lat="45.8812320" lon="9.8417370">
	<ele>1306.40</ele>
	<time>2023-11-18T07:42:31.000Z</time>
</trkpt>
<trkpt lat="45.8812320" lon="9.8417370">
	<ele>1306.80</ele>
	<time>2023-11-18T07:42:32.000Z</time>
</trkpt>
<trkpt lat="45.8812320" lon="9.8417370">
	<ele>1306.80</ele>
	<time>2023-11-18T07:42:33.000Z</time>
</trkpt>
<trkpt lat="45.8812320" lon="9.8417370">
	<ele>1306.80</ele>
	<time>2023-11-18T07:42:34.000Z</time>
</trkpt>
<trkpt lat="45.8812320" lon="9.8417370">
	<ele>1306.80</ele>
	<time>2023-11-18T07:42:35.000Z</time>
</trkpt>
<trkpt lat="45.8812320" lon="9.8417370">
	<ele>1306.80</ele>
	<time>2023-11-18T07:42:36.000Z</time>
</trkpt>
<trkpt lat="45.8812320" lon="9.8417360">
	<ele>1306.80</ele>
	<time>2023-11-18T07:42:37.000Z</time>
</trkpt>
<trkpt lat="45.8812330" lon="9.8417360">
	<ele>1306.80</ele>
	<time>2023-11-18T07:42:38.000Z</time>
</trkpt>
<trkpt lat="45.8812330" lon="9.8417360">
	<ele>1306.80</ele>
	<time>2023-11-18T07:42:39.000Z</time>
</trkpt>
<trkpt lat="45.8812330" lon="9.8417360">
	<ele>1306.80</ele>
	<time>2023-11-18T07:42:40.000Z</time>
</trkpt>
<trkpt lat="45.8812340" lon="9.8417360">
	<ele>1306.80</ele>
	<time>2023-11-18T07:42:41.000Z</time>
</trkpt>
<trkpt lat="45.8812340" lon="9.8417360">
	<ele>1306.80</ele>
	<time>2023-11-18T07:42:42.000Z</time>
</trkpt>
<trkpt lat="45.8812350" lon="9.8417360">
	<ele>1306.80</ele>
	<time>2023-11-18T07:42:43.000Z</time>
</trkpt>
<trkpt lat="45.8812350" lon="9.8417360">
	<ele>1306.80</ele>
	<time>2023-11-18T07:42:44.000Z</time>
</trkpt>
<trkpt lat="45.8812350" lon="9.8417360">
	<ele>1306.80</ele>
	<time>2023-11-18T07:42:45.000Z</time>
</trkpt>
<trkpt lat="45.8812360" lon="9.8417360">
	<ele>1306.80</ele>
	<time>2023-11-18T07:42:46.000Z</time>
</trkpt>
<trkpt lat="45.8812360" lon="9.8417360">
	<ele>1306.80</ele>
	<time>2023-11-18T07:42:47.000Z</time>
</trkpt>
<trkpt lat="45.8812370" lon="9.8417360">
	<ele>1306.80</ele>
	<time>2023-11-18T07:42:48.000Z</time>
</trkpt>
<trkpt lat="45.8812370" lon="9.8417360">
	<ele>1306.80</ele>
	<time>2023-11-18T07:42:49.000Z</time>
</trkpt>
<trkpt lat="45.8812370" lon="9.8417360">
	<ele>1306.80</ele>
	<time>2023-11-18T07:42:50.000Z</time>
</trkpt>
<trkpt lat="45.8812380" lon="9.8417360">
	<ele>1306.80</ele>
	<time>2023-11-18T07:42:51.000Z</time>
</trkpt>
<trkpt lat="45.8812380" lon="9.8417360">
	<ele>1306.80</ele>
	<time>2023-11-18T07:42:52.000Z</time>
</trkpt>
<trkpt lat="45.8812380" lon="9.8417360">
	<ele>1306.80</ele>
	<time>2023-11-18T07:42:53.000Z</time>
</trkpt>
<trkpt lat="45.8812380" lon="9.8417370">
	<ele>1306.80</ele>
	<time>2023-11-18T07:42:54.000Z</time>
</trkpt>
<trkpt lat="45.8812390" lon="9.8417380">
	<ele>1306.80</ele>
	<time>2023-11-18T07:42:55.000Z</time>
</trkpt>
<trkpt lat="45.8812390" lon="9.8417380">
	<ele>1306.80</ele>
	<time>2023-11-18T07:42:56.000Z</time>
</trkpt>
<trkpt lat="45.8812390" lon="9.8417380">
	<ele>1306.80</ele>
	<time>2023-11-18T07:42:57.000Z</time>
</trkpt>
<trkpt lat="45.8812410" lon="9.8417390">
	<ele>1306.80</ele>
	<time>2023-11-18T07:42:58.000Z</time>
</trkpt>
<trkpt lat="45.8812430" lon="9.8417400">
	<ele>1306.80</ele>
	<time>2023-11-18T07:42:59.000Z</time>
</trkpt>
<trkpt lat="45.8812440" lon="9.8417410">
	<ele>1306.80</ele>
	<time>2023-11-18T07:43:00.000Z</time>
</trkpt>
<trkpt lat="45.8812440" lon="9.8417410">
	<ele>1306.80</ele>
	<time>2023-11-18T07:43:01.000Z</time>
</trkpt>
<trkpt lat="45.8812440" lon="9.8417410">
	<ele>1306.80</ele>
	<time>2023-11-18T07:43:02.000Z</time>
</trkpt>
<trkpt lat="45.8812440" lon="9.8417440">
	<ele>1306.80</ele>
	<time>2023-11-18T07:43:03.000Z</time>
</trkpt>
<trkpt lat="45.8812440" lon="9.8417490">
	<ele>1306.80</ele>
	<time>2023-11-18T07:43:04.000Z</time>
</trkpt>
<trkpt lat="45.8812440" lon="9.8417510">
	<ele>1306.80</ele>
	<time>2023-11-18T07:43:05.000Z</time>
</trkpt>
<trkpt lat="45.8812440" lon="9.8417520">
	<ele>1306.80</ele>
	<time>2023-11-18T07:43:06.000Z</time>
</trkpt>
<trkpt lat="45.8812440" lon="9.8417520">
	<ele>1306.80</ele>
	<time>2023-11-18T07:43:07.000Z</time>
</trkpt>
<trkpt lat="45.8812440" lon="9.8417530">
	<ele>1306.80</ele>
	<time>2023-11-18T07:43:08.000Z</time>
</trkpt>
<trkpt lat="45.8812440" lon="9.8417530">
	<ele>1306.80</ele>
	<time>2023-11-18T07:43:09.000Z</time>
</trkpt>
<trkpt lat="45.8812440" lon="9.8417530">
	<ele>1306.80</ele>
	<time>2023-11-18T07:43:10.000Z</time>
</trkpt>
<trkpt lat="45.8812440" lon="9.8417530">
	<ele>1306.80</ele>
	<time>2023-11-18T07:43:11.000Z</time>
</trkpt>
<trkpt lat="45.8812440" lon="9.8417530">
	<ele>1306.80</ele>
	<time>2023-11-18T07:43:12.000Z</time>
</trkpt>
<trkpt lat="45.8812430" lon="9.8417530">
	<ele>1306.80</ele>
	<time>2023-11-18T07:43:13.000Z</time>
</trkpt>
<trkpt lat="45.8812430" lon="9.8417530">
	<ele>1306.80</ele>
	<time>2023-11-18T07:43:14.000Z</time>
</trkpt>
<trkpt lat="45.8812430" lon="9.8417530">
	<ele>1306.80</ele>
	<time>2023-11-18T07:43:15.000Z</time>
</trkpt>
<trkpt lat="45.8812430" lon="9.8417530">
	<ele>1306.80</ele>
	<time>2023-11-18T07:43:16.000Z</time>
</trkpt>
<trkpt lat="45.8812430" lon="9.8417530">
	<ele>1306.80</ele>
	<time>2023-11-18T07:43:17.000Z</time>
</trkpt>
<trkpt lat="45.8812420" lon="9.8417530">
	<ele>1306.80</ele>
	<time>2023-11-18T07:43:18.000Z</time>
</trkpt>
<trkpt lat="45.8812420" lon="9.8417530">
	<ele>1306.80</ele>
	<time>2023-11-18T07:43:19.000Z</time>
</trkpt>
<trkpt lat="45.8812420" lon="9.8417530">
	<ele>1306.80</ele>
	<time>2023-11-18T07:43:20.000Z</time>
</trkpt>
<trkpt lat="45.8812420" lon="9.8417530">
	<ele>1306.80</ele>
	<time>2023-11-18T07:43:21.000Z</time>
</trkpt>
<trkpt lat="45.8812420" lon="9.8417520">
	<ele>1306.80</ele>
	<time>2023-11-18T07:43:22.000Z</time>
</trkpt>
<trkpt lat="45.8812410" lon="9.8417510">
	<ele>1306.80</ele>
	<time>2023-11-18T07:43:23.000Z</time>
</trkpt>
<trkpt lat="45.8812410" lon="9.8417510">
	<ele>1306.80</ele>
	<time>2023-11-18T07:43:24.000Z</time>
</trkpt>
<trkpt lat="45.8812400" lon="9.8417500">
	<ele>1306.80</ele>
	<time>2023-11-18T07:43:25.000Z</time>
</trkpt>
<trkpt lat="45.8812400" lon="9.8417480">
	<ele>1306.80</ele>
	<time>2023-11-18T07:43:26.000Z</time>
</trkpt>
<trkpt lat="45.8812400" lon="9.8417460">
	<ele>1306.80</ele>
	<time>2023-11-18T07:43:27.000Z</time>
</trkpt>
<trkpt lat="45.8812400" lon="9.8417410">
	<ele>1306.80</ele>
	<time>2023-11-18T07:43:28.000Z</time>
</trkpt>
<trkpt lat="45.8812390" lon="9.8417360">
	<ele>1306.80</ele>
	<time>2023-11-18T07:43:29.000Z</time>
</trkpt>
<trkpt lat="45.8812390" lon="9.8417320">
	<ele>1306.80</ele>
	<time>2023-11-18T07:43:30.000Z</time>
</trkpt>
<trkpt lat="45.8812390" lon="9.8417300">
	<ele>1306.80</ele>
	<time>2023-11-18T07:43:31.000Z</time>
</trkpt>
<trkpt lat="45.8812380" lon="9.8417290">
	<ele>1306.80</ele>
	<time>2023-11-18T07:43:32.000Z</time>
</trkpt>
<trkpt lat="45.8812380" lon="9.8417280">
	<ele>1306.80</ele>
	<time>2023-11-18T07:43:33.000Z</time>
</trkpt>
<trkpt lat="45.8812380" lon="9.8417280">
	<ele>1306.80</ele>
	<time>2023-11-18T07:43:34.000Z</time>
</trkpt>
<trkpt lat="45.8812380" lon="9.8417270">
	<ele>1306.80</ele>
	<time>2023-11-18T07:43:35.000Z</time>
</trkpt>
<trkpt lat="45.8812370" lon="9.8417270">
	<ele>1306.80</ele>
	<time>2023-11-18T07:43:36.000Z</time>
</trkpt>
<trkpt lat="45.8812370" lon="9.8417270">
	<ele>1306.80</ele>
	<time>2023-11-18T07:43:37.000Z</time>
</trkpt>
<trkpt lat="45.8812370" lon="9.8417270">
	<ele>1306.80</ele>
	<time>2023-11-18T07:43:38.000Z</time>
</trkpt>
<trkpt lat="45.8812370" lon="9.8417270">
	<ele>1306.80</ele>
	<time>2023-11-18T07:43:39.000Z</time>
</trkpt>
<trkpt lat="45.8812360" lon="9.8417270">
	<ele>1306.80</ele>
	<time>2023-11-18T07:43:40.000Z</time>
</trkpt>
<trkpt lat="45.8812360" lon="9.8417270">
	<ele>1306.80</ele>
	<time>2023-11-18T07:43:41.000Z</time>
</trkpt>
<trkpt lat="45.8812350" lon="9.8417270">
	<ele>1306.80</ele>
	<time>2023-11-18T07:43:42.000Z</time>
</trkpt>
<trkpt lat="45.8812350" lon="9.8417270">
	<ele>1306.80</ele>
	<time>2023-11-18T07:43:43.000Z</time>
</trkpt>
<trkpt lat="45.8812350" lon="9.8417270">
	<ele>1306.80</ele>
	<time>2023-11-18T07:43:44.000Z</time>
</trkpt>
<trkpt lat="45.8812350" lon="9.8417270">
	<ele>1306.80</ele>
	<time>2023-11-18T07:43:45.000Z</time>
</trkpt>
<trkpt lat="45.8812340" lon="9.8417270">
	<ele>1306.80</ele>
	<time>2023-11-18T07:43:46.000Z</time>
</trkpt>
<trkpt lat="45.8812340" lon="9.8417270">
	<ele>1306.80</ele>
	<time>2023-11-18T07:43:47.000Z</time>
</trkpt>
<trkpt lat="45.8812330" lon="9.8417270">
	<ele>1306.80</ele>
	<time>2023-11-18T07:43:48.000Z</time>
</trkpt>
<trkpt lat="45.8812310" lon="9.8417270">
	<ele>1306.80</ele>
	<time>2023-11-18T07:43:49.000Z</time>
</trkpt>
<trkpt lat="45.8812300" lon="9.8417270">
	<ele>1306.80</ele>
	<time>2023-11-18T07:43:50.000Z</time>
</trkpt>
<trkpt lat="45.8812280" lon="9.8417280">
	<ele>1306.80</ele>
	<time>2023-11-18T07:43:51.000Z</time>
</trkpt>
<trkpt lat="45.8812250" lon="9.8417290">
	<ele>1306.80</ele>
	<time>2023-11-18T07:43:52.000Z</time>
</trkpt>
<trkpt lat="45.8812240" lon="9.8417300">
	<ele>1306.80</ele>
	<time>2023-11-18T07:43:53.000Z</time>
</trkpt>
<trkpt lat="45.8812230" lon="9.8417310">
	<ele>1306.80</ele>
	<time>2023-11-18T07:43:54.000Z</time>
</trkpt>
<trkpt lat="45.8812220" lon="9.8417320">
	<ele>1306.80</ele>
	<time>2023-11-18T07:43:55.000Z</time>
</trkpt>
<trkpt lat="45.8812220" lon="9.8417340">
	<ele>1306.80</ele>
	<time>2023-11-18T07:43:56.000Z</time>
</trkpt>
<trkpt lat="45.8812210" lon="9.8417350">
	<ele>1306.80</ele>
	<time>2023-11-18T07:43:57.000Z</time>
</trkpt>
<trkpt lat="45.8812200" lon="9.8417360">
	<ele>1306.80</ele>
	<time>2023-11-18T07:43:58.000Z</time>
</trkpt>
<trkpt lat="45.8812200" lon="9.8417360">
	<ele>1306.80</ele>
	<time>2023-11-18T07:43:59.000Z</time>
</trkpt>
<trkpt lat="45.8812190" lon="9.8417370">
	<ele>1306.80</ele>
	<time>2023-11-18T07:44:00.000Z</time>
</trkpt>
<trkpt lat="45.8812190" lon="9.8417370">
	<ele>1306.80</ele>
	<time>2023-11-18T07:44:01.000Z</time>
</trkpt>
<trkpt lat="45.8812180" lon="9.8417370">
	<ele>1306.80</ele>
	<time>2023-11-18T07:44:02.000Z</time>
</trkpt>
<trkpt lat="45.8812150" lon="9.8417370">
	<ele>1306.80</ele>
	<time>2023-11-18T07:44:03.000Z</time>
</trkpt>
<trkpt lat="45.8812120" lon="9.8417370">
	<ele>1306.80</ele>
	<time>2023-11-18T07:44:04.000Z</time>
</trkpt>
<trkpt lat="45.8812100" lon="9.8417370">
	<ele>1306.80</ele>
	<time>2023-11-18T07:44:05.000Z</time>
</trkpt>
<trkpt lat="45.8812090" lon="9.8417370">
	<ele>1306.80</ele>
	<time>2023-11-18T07:44:06.000Z</time>
</trkpt>
<trkpt lat="45.8812080" lon="9.8417380">
	<ele>1306.80</ele>
	<time>2023-11-18T07:44:07.000Z</time>
</trkpt>
<trkpt lat="45.8812070" lon="9.8417380">
	<ele>1306.80</ele>
	<time>2023-11-18T07:44:08.000Z</time>
</trkpt>
<trkpt lat="45.8812060" lon="9.8417380">
	<ele>1306.80</ele>
	<time>2023-11-18T07:44:09.000Z</time>
</trkpt>
<trkpt lat="45.8812050" lon="9.8417380">
	<ele>1306.80</ele>
	<time>2023-11-18T07:44:10.000Z</time>
</trkpt>
<trkpt lat="45.8812030" lon="9.8417370">
	<ele>1306.80</ele>
	<time>2023-11-18T07:44:11.000Z</time>
</trkpt>
<trkpt lat="45.8812010" lon="9.8417370">
	<ele>1306.80</ele>
	<time>2023-11-18T07:44:12.000Z</time>
</trkpt>
<trkpt lat="45.8811980" lon="9.8417350">
	<ele>1306.80</ele>
	<time>2023-11-18T07:44:13.000Z</time>
</trkpt>
<trkpt lat="45.8811960" lon="9.8417330">
	<ele>1306.80</ele>
	<time>2023-11-18T07:44:14.000Z</time>
</trkpt>
<trkpt lat="45.8811930" lon="9.8417300">
	<ele>1306.80</ele>
	<time>2023-11-18T07:44:15.000Z</time>
</trkpt>
<trkpt lat="45.8811920" lon="9.8417260">
	<ele>1306.80</ele>
	<time>2023-11-18T07:44:16.000Z</time>
</trkpt>
<trkpt lat="45.8811900" lon="9.8417220">
	<ele>1306.80</ele>
	<time>2023-11-18T07:44:17.000Z</time>
</trkpt>
<trkpt lat="45.8811890" lon="9.8417180">
	<ele>1306.80</ele>
	<time>2023-11-18T07:44:18.000Z</time>
</trkpt>
<trkpt lat="45.8811880" lon="9.8417160">
	<ele>1306.80</ele>
	<time>2023-11-18T07:44:19.000Z</time>
</trkpt>
<trkpt lat="45.8811870" lon="9.8417140">
	<ele>1306.80</ele>
	<time>2023-11-18T07:44:20.000Z</time>
</trkpt>
<trkpt lat="45.8811870" lon="9.8417120">
	<ele>1306.80</ele>
	<time>2023-11-18T07:44:21.000Z</time>
</trkpt>
<trkpt lat="45.8811860" lon="9.8417110">
	<ele>1306.80</ele>
	<time>2023-11-18T07:44:22.000Z</time>
</trkpt>
<trkpt lat="45.8811860" lon="9.8417090">
	<ele>1306.80</ele>
	<time>2023-11-18T07:44:23.000Z</time>
</trkpt>
<trkpt lat="45.8811860" lon="9.8417020">
	<ele>1306.80</ele>
	<time>2023-11-18T07:44:24.000Z</time>
</trkpt>
<trkpt lat="45.8811930" lon="9.8416910">
	<ele>1306.80</ele>
	<time>2023-11-18T07:44:25.000Z</time>
</trkpt>
<trkpt lat="45.8812010" lon="9.8416860">
	<ele>1306.80</ele>
	<time>2023-11-18T07:44:26.000Z</time>
</trkpt>
<trkpt lat="45.8812060" lon="9.8416760">
	<ele>1306.80</ele>
	<time>2023-11-18T07:44:27.000Z</time>
</trkpt>
<trkpt lat="45.8812090" lon="9.8416640">
	<ele>1306.80</ele>
	<time>2023-11-18T07:44:28.000Z</time>
</trkpt>
<trkpt lat="45.8812130" lon="9.8416500">
	<ele>1306.80</ele>
	<time>2023-11-18T07:44:29.000Z</time>
</trkpt>
<trkpt lat="45.8812160" lon="9.8416340">
	<ele>1306.80</ele>
	<time>2023-11-18T07:44:30.000Z</time>
</trkpt>
<trkpt lat="45.8812220" lon="9.8416240">
	<ele>1306.80</ele>
	<time>2023-11-18T07:44:31.000Z</time>
</trkpt>
<trkpt lat="45.8812270" lon="9.8416150">
	<ele>1306.80</ele>
	<time>2023-11-18T07:44:32.000Z</time>
</trkpt>
<trkpt lat="45.8812360" lon="9.8416060">
	<ele>1306.80</ele>
	<time>2023-11-18T07:44:33.000Z</time>
</trkpt>
<trkpt lat="45.8812390" lon="9.8416060">
	<ele>1306.80</ele>
	<time>2023-11-18T07:44:34.000Z</time>
</trkpt>
<trkpt lat="45.8812450" lon="9.8416070">
	<ele>1306.80</ele>
	<time>2023-11-18T07:44:35.000Z</time>
</trkpt>
<trkpt lat="45.8812520" lon="9.8416060">
	<ele>1306.80</ele>
	<time>2023-11-18T07:44:36.000Z</time>
</trkpt>
<trkpt lat="45.8812560" lon="9.8416020">
	<ele>1306.80</ele>
	<time>2023-11-18T07:44:37.000Z</time>
</trkpt>
<trkpt lat="45.8812650" lon="9.8416020">
	<ele>1306.80</ele>
	<time>2023-11-18T07:44:38.000Z</time>
</trkpt>
<trkpt lat="45.8812720" lon="9.8415970">
	<ele>1306.80</ele>
	<time>2023-11-18T07:44:39.000Z</time>
</trkpt>
<trkpt lat="45.8812790" lon="9.8415930">
	<ele>1306.80</ele>
	<time>2023-11-18T07:44:40.000Z</time>
</trkpt>
<trkpt lat="45.8812820" lon="9.8415910">
	<ele>1306.80</ele>
	<time>2023-11-18T07:44:41.000Z</time>
</trkpt>
<trkpt lat="45.8812850" lon="9.8415910">
	<ele>1306.80</ele>
	<time>2023-11-18T07:44:42.000Z</time>
</trkpt>
<trkpt lat="45.8812860" lon="9.8415910">
	<ele>1306.80</ele>
	<time>2023-11-18T07:44:43.000Z</time>
</trkpt>
<trkpt lat="45.8812860" lon="9.8415920">
	<ele>1306.80</ele>
	<time>2023-11-18T07:44:44.000Z</time>
</trkpt>
<trkpt lat="45.8812860" lon="9.8415930">
	<ele>1306.80</ele>
	<time>2023-11-18T07:44:45.000Z</time>
</trkpt>
<trkpt lat="45.8812860" lon="9.8415910">
	<ele>1306.80</ele>
	<time>2023-11-18T07:44:46.000Z</time>
</trkpt>
<trkpt lat="45.8812850" lon="9.8415870">
	<ele>1306.80</ele>
	<time>2023-11-18T07:44:47.000Z</time>
</trkpt>
<trkpt lat="45.8812840" lon="9.8415860">
	<ele>1306.80</ele>
	<time>2023-11-18T07:44:48.000Z</time>
</trkpt>
<trkpt lat="45.8812830" lon="9.8415840">
	<ele>1306.80</ele>
	<time>2023-11-18T07:44:49.000Z</time>
</trkpt>
<trkpt lat="45.8812820" lon="9.8415830">
	<ele>1306.80</ele>
	<time>2023-11-18T07:44:50.000Z</time>
</trkpt>
<trkpt lat="45.8812820" lon="9.8415840">
	<ele>1306.80</ele>
	<time>2023-11-18T07:44:51.000Z</time>
</trkpt>
<trkpt lat="45.8812850" lon="9.8415850">
	<ele>1306.80</ele>
	<time>2023-11-18T07:44:52.000Z</time>
</trkpt>
<trkpt lat="45.8812850" lon="9.8415830">
	<ele>1306.80</ele>
	<time>2023-11-18T07:44:53.000Z</time>
</trkpt>
<trkpt lat="45.8812860" lon="9.8415790">
	<ele>1306.80</ele>
	<time>2023-11-18T07:44:54.000Z</time>
</trkpt>
<trkpt lat="45.8812890" lon="9.8415800">
	<ele>1306.80</ele>
	<time>2023-11-18T07:44:55.000Z</time>
</trkpt>
<trkpt lat="45.8812920" lon="9.8415790">
	<ele>1306.80</ele>
	<time>2023-11-18T07:44:56.000Z</time>
</trkpt>
<trkpt lat="45.8812960" lon="9.8415770">
	<ele>1306.80</ele>
	<time>2023-11-18T07:44:57.000Z</time>
</trkpt>
<trkpt lat="45.8813030" lon="9.8415730">
	<ele>1306.80</ele>
	<time>2023-11-18T07:44:58.000Z</time>
</trkpt>
<trkpt lat="45.8813100" lon="9.8415720">
	<ele>1306.80</ele>
	<time>2023-11-18T07:44:59.000Z</time>
</trkpt>
<trkpt lat="45.8813180" lon="9.8415740">
	<ele>1306.80</ele>
	<time>2023-11-18T07:45:00.000Z</time>
</trkpt>
<trkpt lat="45.8813220" lon="9.8415710">
	<ele>1306.80</ele>
	<time>2023-11-18T07:45:01.000Z</time>
</trkpt>
<trkpt lat="45.8813220" lon="9.8415670">
	<ele>1306.80</ele>
	<time>2023-11-18T07:45:02.000Z</time>
</trkpt>
<trkpt lat="45.8813230" lon="9.8415680">
	<ele>1306.80</ele>
	<time>2023-11-18T07:45:03.000Z</time>
</trkpt>
<trkpt lat="45.8813230" lon="9.8415680">
	<ele>1306.80</ele>
	<time>2023-11-18T07:45:04.000Z</time>
</trkpt>
<trkpt lat="45.8813230" lon="9.8415680">
	<ele>1306.80</ele>
	<time>2023-11-18T07:45:05.000Z</time>
</trkpt>
<trkpt lat="45.8813230" lon="9.8415680">
	<ele>1306.80</ele>
	<time>2023-11-18T07:45:06.000Z</time>
</trkpt>
<trkpt lat="45.8813230" lon="9.8415680">
	<ele>1306.80</ele>
	<time>2023-11-18T07:45:07.000Z</time>
</trkpt>
<trkpt lat="45.8813230" lon="9.8415680">
	<ele>1306.80</ele>
	<time>2023-11-18T07:45:08.000Z</time>
</trkpt>
<trkpt lat="45.8813230" lon="9.8415680">
	<ele>1306.80</ele>
	<time>2023-11-18T07:45:09.000Z</time>
</trkpt>
<trkpt lat="45.8813230" lon="9.8415680">
	<ele>1306.80</ele>
	<time>2023-11-18T07:45:10.000Z</time>
</trkpt>
<trkpt lat="45.8813230" lon="9.8415680">
	<ele>1306.80</ele>
	<time>2023-11-18T07:45:11.000Z</time>
</trkpt>
<trkpt lat="45.8813230" lon="9.8415680">
	<ele>1306.80</ele>
	<time>2023-11-18T07:45:12.000Z</time>
</trkpt>
<trkpt lat="45.8813230" lon="9.8415680">
	<ele>1306.80</ele>
	<time>2023-11-18T07:45:13.000Z</time>
</trkpt>
<trkpt lat="45.8813230" lon="9.8415680">
	<ele>1306.80</ele>
	<time>2023-11-18T07:45:14.000Z</time>
</trkpt>
<trkpt lat="45.8813230" lon="9.8415680">
	<ele>1306.80</ele>
	<time>2023-11-18T07:45:15.000Z</time>
</trkpt>
<trkpt lat="45.8813230" lon="9.8415680">
	<ele>1306.80</ele>
	<time>2023-11-18T07:45:16.000Z</time>
</trkpt>
<trkpt lat="45.8813230" lon="9.8415680">
	<ele>1306.80</ele>
	<time>2023-11-18T07:45:17.000Z</time>
</trkpt>
<trkpt lat="45.8813230" lon="9.8415680">
	<ele>1306.80</ele>
	<time>2023-11-18T07:45:18.000Z</time>
</trkpt>
<trkpt lat="45.8813250" lon="9.8415680">
	<ele>1306.80</ele>
	<time>2023-11-18T07:45:19.000Z</time>
</trkpt>
<trkpt lat="45.8813270" lon="9.8415680">
	<ele>1306.80</ele>
	<time>2023-11-18T07:45:20.000Z</time>
</trkpt>
<trkpt lat="45.8813270" lon="9.8415680">
	<ele>1306.80</ele>
	<time>2023-11-18T07:45:21.000Z</time>
</trkpt>
<trkpt lat="45.8813280" lon="9.8415670">
	<ele>1306.80</ele>
	<time>2023-11-18T07:45:22.000Z</time>
</trkpt>
<trkpt lat="45.8813290" lon="9.8415660">
	<ele>1306.80</ele>
	<time>2023-11-18T07:45:23.000Z</time>
</trkpt>
<trkpt lat="45.8813300" lon="9.8415660">
	<ele>1306.80</ele>
	<time>2023-11-18T07:45:24.000Z</time>
</trkpt>
<trkpt lat="45.8813300" lon="9.8415660">
	<ele>1306.80</ele>
	<time>2023-11-18T07:45:25.000Z</time>
</trkpt>
<trkpt lat="45.8813300" lon="9.8415640">
	<ele>1306.80</ele>
	<time>2023-11-18T07:45:26.000Z</time>
</trkpt>
<trkpt lat="45.8813300" lon="9.8415600">
	<ele>1306.80</ele>
	<time>2023-11-18T07:45:27.000Z</time>
</trkpt>
<trkpt lat="45.8813310" lon="9.8415590">
	<ele>1306.80</ele>
	<time>2023-11-18T07:45:28.000Z</time>
</trkpt>
<trkpt lat="45.8813310" lon="9.8415580">
	<ele>1306.80</ele>
	<time>2023-11-18T07:45:29.000Z</time>
</trkpt>
<trkpt lat="45.8813340" lon="9.8415560">
	<ele>1306.80</ele>
	<time>2023-11-18T07:45:30.000Z</time>
</trkpt>
<trkpt lat="45.8813400" lon="9.8415560">
	<ele>1306.80</ele>
	<time>2023-11-18T07:45:31.000Z</time>
</trkpt>
<trkpt lat="45.8813430" lon="9.8415550">
	<ele>1306.80</ele>
	<time>2023-11-18T07:45:32.000Z</time>
</trkpt>
<trkpt lat="45.8813440" lon="9.8415530">
	<ele>1306.80</ele>
	<time>2023-11-18T07:45:33.000Z</time>
</trkpt>
<trkpt lat="45.8813460" lon="9.8415480">
	<ele>1306.80</ele>
	<time>2023-11-18T07:45:34.000Z</time>
</trkpt>
<trkpt lat="45.8813500" lon="9.8415450">
	<ele>1313.20</ele>
	<time>2023-11-18T07:45:35.000Z</time>
</trkpt>
<trkpt lat="45.8813540" lon="9.8415430">
	<ele>1313.20</ele>
	<time>2023-11-18T07:45:36.000Z</time>
</trkpt>
<trkpt lat="45.8813560" lon="9.8415420">
	<ele>1313.20</ele>
	<time>2023-11-18T07:45:37.000Z</time>
</trkpt>
<trkpt lat="45.8813570" lon="9.8415400">
	<ele>1313.20</ele>
	<time>2023-11-18T07:45:38.000Z</time>
</trkpt>
<trkpt lat="45.8813620" lon="9.8415400">
	<ele>1313.20</ele>
	<time>2023-11-18T07:45:39.000Z</time>
</trkpt>
<trkpt lat="45.8813660" lon="9.8415400">
	<ele>1313.20</ele>
	<time>2023-11-18T07:45:40.000Z</time>
</trkpt>
<trkpt lat="45.8813700" lon="9.8415400">
	<ele>1313.40</ele>
	<time>2023-11-18T07:45:41.000Z</time>
</trkpt>
<trkpt lat="45.8813740" lon="9.8415400">
	<ele>1313.60</ele>
	<time>2023-11-18T07:45:42.000Z</time>
</trkpt>
<trkpt lat="45.8813760" lon="9.8415400">
	<ele>1313.80</ele>
	<time>2023-11-18T07:45:43.000Z</time>
</trkpt>
<trkpt lat="45.8813790" lon="9.8415400">
	<ele>1314.20</ele>
	<time>2023-11-18T07:45:44.000Z</time>
</trkpt>
<trkpt lat="45.8813810" lon="9.8415390">
	<ele>1314.40</ele>
	<time>2023-11-18T07:45:45.000Z</time>
</trkpt>
<trkpt lat="45.8813840" lon="9.8415390">
	<ele>1314.60</ele>
	<time>2023-11-18T07:45:46.000Z</time>
</trkpt>
<trkpt lat="45.8813880" lon="9.8415390">
	<ele>1314.80</ele>
	<time>2023-11-18T07:45:47.000Z</time>
</trkpt>
<trkpt lat="45.8813920" lon="9.8415380">
	<ele>1315.00</ele>
	<time>2023-11-18T07:45:48.000Z</time>
</trkpt>
<trkpt lat="45.8813940" lon="9.8415370">
	<ele>1315.00</ele>
	<time>2023-11-18T07:45:49.000Z</time>
</trkpt>
<trkpt lat="45.8814000" lon="9.8415360">
	<ele>1315.40</ele>
	<time>2023-11-18T07:45:50.000Z</time>
</trkpt>
<trkpt lat="45.8814050" lon="9.8415350">
	<ele>1315.60</ele>
	<time>2023-11-18T07:45:51.000Z</time>
</trkpt>
<trkpt lat="45.8814100" lon="9.8415340">
	<ele>1315.80</ele>
	<time>2023-11-18T07:45:52.000Z</time>
</trkpt>
<trkpt lat="45.8814150" lon="9.8415330">
	<ele>1316.00</ele>
	<time>2023-11-18T07:45:53.000Z</time>
</trkpt>
<trkpt lat="45.8814210" lon="9.8415320">
	<ele>1316.20</ele>
	<time>2023-11-18T07:45:54.000Z</time>
</trkpt>
<trkpt lat="45.8814240" lon="9.8415310">
	<ele>1316.40</ele>
	<time>2023-11-18T07:45:55.000Z</time>
</trkpt>
<trkpt lat="45.8814290" lon="9.8415300">
	<ele>1316.60</ele>
	<time>2023-11-18T07:45:56.000Z</time>
</trkpt>
<trkpt lat="45.8814350" lon="9.8415290">
	<ele>1316.60</ele>
	<time>2023-11-18T07:45:57.000Z</time>
</trkpt>
<trkpt lat="45.8814420" lon="9.8415270">
	<ele>1316.80</ele>
	<time>2023-11-18T07:45:58.000Z</time>
</trkpt>
<trkpt lat="45.8814470" lon="9.8415260">
	<ele>1316.80</ele>
	<time>2023-11-18T07:45:59.000Z</time>
</trkpt>
<trkpt lat="45.8814540" lon="9.8415260">
	<ele>1316.80</ele>
	<time>2023-11-18T07:46:00.000Z</time>
</trkpt>
<trkpt lat="45.8814600" lon="9.8415260">
	<ele>1317.00</ele>
	<time>2023-11-18T07:46:01.000Z</time>
</trkpt>
<trkpt lat="45.8814660" lon="9.8415260">
	<ele>1317.00</ele>
	<time>2023-11-18T07:46:02.000Z</time>
</trkpt>
<trkpt lat="45.8814720" lon="9.8415260">
	<ele>1317.20</ele>
	<time>2023-11-18T07:46:03.000Z</time>
</trkpt>
<trkpt lat="45.8814760" lon="9.8415260">
	<ele>1317.40</ele>
	<time>2023-11-18T07:46:04.000Z</time>
</trkpt>
<trkpt lat="45.8814780" lon="9.8415250">
	<ele>1317.60</ele>
	<time>2023-11-18T07:46:05.000Z</time>
</trkpt>
<trkpt lat="45.8814820" lon="9.8415250">
	<ele>1317.80</ele>
	<time>2023-11-18T07:46:06.000Z</time>
</trkpt>
<trkpt lat="45.8814860" lon="9.8415240">
	<ele>1318.00</ele>
	<time>2023-11-18T07:46:07.000Z</time>
</trkpt>
<trkpt lat="45.8814900" lon="9.8415240">
	<ele>1318.20</ele>
	<time>2023-11-18T07:46:08.000Z</time>
</trkpt>
<trkpt lat="45.8814950" lon="9.8415230">
	<ele>1318.40</ele>
	<time>2023-11-18T07:46:09.000Z</time>
</trkpt>
<trkpt lat="45.8814990" lon="9.8415210">
	<ele>1318.60</ele>
	<time>2023-11-18T07:46:10.000Z</time>
</trkpt>
<trkpt lat="45.8815030" lon="9.8415200">
	<ele>1318.80</ele>
	<time>2023-11-18T07:46:11.000Z</time>
</trkpt>
<trkpt lat="45.8815090" lon="9.8415190">
	<ele>1318.80</ele>
	<time>2023-11-18T07:46:12.000Z</time>
</trkpt>
<trkpt lat="45.8815140" lon="9.8415190">
	<ele>1319.00</ele>
	<time>2023-11-18T07:46:13.000Z</time>
</trkpt>
<trkpt lat="45.8815200" lon="9.8415180">
	<ele>1319.20</ele>
	<time>2023-11-18T07:46:14.000Z</time>
</trkpt>
<trkpt lat="45.8815280" lon="9.8415180">
	<ele>1319.40</ele>
	<time>2023-11-18T07:46:15.000Z</time>
</trkpt>
<trkpt lat="45.8815350" lon="9.8415180">
	<ele>1319.40</ele>
	<time>2023-11-18T07:46:16.000Z</time>
</trkpt>
<trkpt lat="45.8815410" lon="9.8415180">
	<ele>1319.60</ele>
	<time>2023-11-18T07:46:17.000Z</time>
</trkpt>
<trkpt lat="45.8815440" lon="9.8415180">
	<ele>1319.80</ele>
	<time>2023-11-18T07:46:18.000Z</time>
</trkpt>
<trkpt lat="45.8815470" lon="9.8415180">
	<ele>1320.00</ele>
	<time>2023-11-18T07:46:19.000Z</time>
</trkpt>
<trkpt lat="45.8815510" lon="9.8415180">
	<ele>1320.20</ele>
	<time>2023-11-18T07:46:20.000Z</time>
</trkpt>
<trkpt lat="45.8815560" lon="9.8415180">
	<ele>1320.20</ele>
	<time>2023-11-18T07:46:21.000Z</time>
</trkpt>
<trkpt lat="45.8815590" lon="9.8415180">
	<ele>1320.20</ele>
	<time>2023-11-18T07:46:22.000Z</time>
</trkpt>
<trkpt lat="45.8815650" lon="9.8415180">
	<ele>1320.40</ele>
	<time>2023-11-18T07:46:23.000Z</time>
</trkpt>
<trkpt lat="45.8815700" lon="9.8415180">
	<ele>1320.40</ele>
	<time>2023-11-18T07:46:24.000Z</time>
</trkpt>
<trkpt lat="45.8815750" lon="9.8415180">
	<ele>1320.40</ele>
	<time>2023-11-18T07:46:25.000Z</time>
</trkpt>
<trkpt lat="45.8815780" lon="9.8415180">
	<ele>1320.40</ele>
	<time>2023-11-18T07:46:26.000Z</time>
</trkpt>
<trkpt lat="45.8815800" lon="9.8415180">
	<ele>1320.60</ele>
	<time>2023-11-18T07:46:27.000Z</time>
</trkpt>
<trkpt lat="45.8815840" lon="9.8415180">
	<ele>1320.80</ele>
	<time>2023-11-18T07:46:28.000Z</time>
</trkpt>
<trkpt lat="45.8815860" lon="9.8415180">
	<ele>1321.00</ele>
	<time>2023-11-18T07:46:29.000Z</time>
</trkpt>
<trkpt lat="45.8815890" lon="9.8415190">
	<ele>1321.00</ele>
	<time>2023-11-18T07:46:30.000Z</time>
</trkpt>
<trkpt lat="45.8815900" lon="9.8415210">
	<ele>1321.20</ele>
	<time>2023-11-18T07:46:31.000Z</time>
</trkpt>
<trkpt lat="45.8815910" lon="9.8415260">
	<ele>1321.20</ele>
	<time>2023-11-18T07:46:32.000Z</time>
</trkpt>
<trkpt lat="45.8815920" lon="9.8415290">
	<ele>1321.60</ele>
	<time>2023-11-18T07:46:33.000Z</time>
</trkpt>
<trkpt lat="45.8815940" lon="9.8415320">
	<ele>1321.80</ele>
	<time>2023-11-18T07:46:34.000Z</time>
</trkpt>
<trkpt lat="45.8815940" lon="9.8415330">
	<ele>1321.80</ele>
	<time>2023-11-18T07:46:35.000Z</time>
</trkpt>
<trkpt lat="45.8815950" lon="9.8415360">
	<ele>1321.80</ele>
	<time>2023-11-18T07:46:36.000Z</time>
</trkpt>
<trkpt lat="45.8815950" lon="9.8415420">
	<ele>1322.20</ele>
	<time>2023-11-18T07:46:37.000Z</time>
</trkpt>
<trkpt lat="45.8815960" lon="9.8415480">
	<ele>1322.40</ele>
	<time>2023-11-18T07:46:38.000Z</time>
</trkpt>
<trkpt lat="45.8815960" lon="9.8415540">
	<ele>1322.40</ele>
	<time>2023-11-18T07:46:39.000Z</time>
</trkpt>
<trkpt lat="45.8815960" lon="9.8415570">
	<ele>1322.60</ele>
	<time>2023-11-18T07:46:40.000Z</time>
</trkpt>
<trkpt lat="45.8815990" lon="9.8415580">
	<ele>1322.60</ele>
	<time>2023-11-18T07:46:41.000Z</time>
</trkpt>
<trkpt lat="45.8816020" lon="9.8415590">
	<ele>1322.80</ele>
	<time>2023-11-18T07:46:42.000Z</time>
</trkpt>
<trkpt lat="45.8816080" lon="9.8415600">
	<ele>1323.00</ele>
	<time>2023-11-18T07:46:43.000Z</time>
</trkpt>
<trkpt lat="45.8816180" lon="9.8415600">
	<ele>1323.20</ele>
	<time>2023-11-18T07:46:44.000Z</time>
</trkpt>
<trkpt lat="45.8816330" lon="9.8415540">
	<ele>1323.60</ele>
	<time>2023-11-18T07:46:45.000Z</time>
</trkpt>
<trkpt lat="45.8816490" lon="9.8415510">
	<ele>1323.60</ele>
	<time>2023-11-18T07:46:46.000Z</time>
</trkpt>
<trkpt lat="45.8816660" lon="9.8415480">
	<ele>1323.80</ele>
	<time>2023-11-18T07:46:47.000Z</time>
</trkpt>
<trkpt lat="45.8816800" lon="9.8415440">
	<ele>1324.00</ele>
	<time>2023-11-18T07:46:48.000Z</time>
</trkpt>
<trkpt lat="45.8816950" lon="9.8415370">
	<ele>1324.00</ele>
	<time>2023-11-18T07:46:49.000Z</time>
</trkpt>
<trkpt lat="45.8817110" lon="9.8415280">
	<ele>1324.20</ele>
	<time>2023-11-18T07:46:50.000Z</time>
</trkpt>
<trkpt lat="45.8817260" lon="9.8415220">
	<ele>1324.40</ele>
	<time>2023-11-18T07:46:51.000Z</time>
</trkpt>
<trkpt lat="45.8817410" lon="9.8415180">
	<ele>1324.60</ele>
	<time>2023-11-18T07:46:52.000Z</time>
</trkpt>
<trkpt lat="45.8817560" lon="9.8415150">
	<ele>1324.80</ele>
	<time>2023-11-18T07:46:53.000Z</time>
</trkpt>
<trkpt lat="45.8817580" lon="9.8415160">
	<ele>1325.00</ele>
	<time>2023-11-18T07:46:54.000Z</time>
</trkpt>
<trkpt lat="45.8817600" lon="9.8415140">
	<ele>1325.20</ele>
	<time>2023-11-18T07:46:55.000Z</time>
</trkpt>
<trkpt lat="45.8817660" lon="9.8415090">
	<ele>1325.40</ele>
	<time>2023-11-18T07:46:56.000Z</time>
</trkpt>
<trkpt lat="45.8817720" lon="9.8415070">
	<ele>1325.40</ele>
	<time>2023-11-18T07:46:57.000Z</time>
</trkpt>
<trkpt lat="45.8817790" lon="9.8415010">
	<ele>1325.60</ele>
	<time>2023-11-18T07:46:58.000Z</time>
</trkpt>
<trkpt lat="45.8817840" lon="9.8414940">
	<ele>1325.80</ele>
	<time>2023-11-18T07:46:59.000Z</time>
</trkpt>
<trkpt lat="45.8817910" lon="9.8414920">
	<ele>1326.20</ele>
	<time>2023-11-18T07:47:00.000Z</time>
</trkpt>
<trkpt lat="45.8817960" lon="9.8414890">
	<ele>1326.20</ele>
	<time>2023-11-18T07:47:01.000Z</time>
</trkpt>
<trkpt lat="45.8818020" lon="9.8414840">
	<ele>1326.40</ele>
	<time>2023-11-18T07:47:02.000Z</time>
</trkpt>
<trkpt lat="45.8818070" lon="9.8414800">
	<ele>1326.60</ele>
	<time>2023-11-18T07:47:03.000Z</time>
</trkpt>
<trkpt lat="45.8818130" lon="9.8414760">
	<ele>1326.60</ele>
	<time>2023-11-18T07:47:04.000Z</time>
</trkpt>
<trkpt lat="45.8818180" lon="9.8414730">
	<ele>1326.80</ele>
	<time>2023-11-18T07:47:05.000Z</time>
</trkpt>
<trkpt lat="45.8818230" lon="9.8414710">
	<ele>1327.00</ele>
	<time>2023-11-18T07:47:06.000Z</time>
</trkpt>
<trkpt lat="45.8818300" lon="9.8414690">
	<ele>1327.00</ele>
	<time>2023-11-18T07:47:07.000Z</time>
</trkpt>
<trkpt lat="45.8818370" lon="9.8414660">
	<ele>1327.20</ele>
	<time>2023-11-18T07:47:08.000Z</time>
</trkpt>
<trkpt lat="45.8818420" lon="9.8414620">
	<ele>1327.60</ele>
	<time>2023-11-18T07:47:09.000Z</time>
</trkpt>
<trkpt lat="45.8818490" lon="9.8414610">
	<ele>1327.80</ele>
	<time>2023-11-18T07:47:10.000Z</time>
</trkpt>
<trkpt lat="45.8818540" lon="9.8414580">
	<ele>1327.80</ele>
	<time>2023-11-18T07:47:11.000Z</time>
</trkpt>
<trkpt lat="45.8818560" lon="9.8414540">
	<ele>1328.00</ele>
	<time>2023-11-18T07:47:12.000Z</time>
</trkpt>
<trkpt lat="45.8818560" lon="9.8414470">
	<ele>1328.40</ele>
	<time>2023-11-18T07:47:13.000Z</time>
</trkpt>
<trkpt lat="45.8818600" lon="9.8414410">
	<ele>1328.60</ele>
	<time>2023-11-18T07:47:14.000Z</time>
</trkpt>
<trkpt lat="45.8818650" lon="9.8414360">
	<ele>1328.60</ele>
	<time>2023-11-18T07:47:15.000Z</time>
</trkpt>
<trkpt lat="45.8818700" lon="9.8414330">
	<ele>1328.80</ele>
	<time>2023-11-18T07:47:16.000Z</time>
</trkpt>
<trkpt lat="45.8818770" lon="9.8414290">
	<ele>1329.00</ele>
	<time>2023-11-18T07:47:17.000Z</time>
</trkpt>
<trkpt lat="45.8818830" lon="9.8414250">
	<ele>1329.20</ele>
	<time>2023-11-18T07:47:18.000Z</time>
</trkpt>
<trkpt lat="45.8818870" lon="9.8414220">
	<ele>1329.20</ele>
	<time>2023-11-18T07:47:19.000Z</time>
</trkpt>
<trkpt lat="45.8818910" lon="9.8414160">
	<ele>1329.60</ele>
	<time>2023-11-18T07:47:20.000Z</time>
</trkpt>
<trkpt lat="45.8819000" lon="9.8414140">
	<ele>1329.60</ele>
	<time>2023-11-18T07:47:21.000Z</time>
</trkpt>
<trkpt lat="45.8819090" lon="9.8414100">
	<ele>1329.80</ele>
	<time>2023-11-18T07:47:22.000Z</time>
</trkpt>
<trkpt lat="45.8819130" lon="9.8414050">
	<ele>1329.80</ele>
	<time>2023-11-18T07:47:23.000Z</time>
</trkpt>
<trkpt lat="45.8819190" lon="9.8414020">
	<ele>1330.00</ele>
	<time>2023-11-18T07:47:24.000Z</time>
</trkpt>
<trkpt lat="45.8819270" lon="9.8413950">
	<ele>1330.20</ele>
	<time>2023-11-18T07:47:25.000Z</time>
</trkpt>
<trkpt lat="45.8819300" lon="9.8413900">
	<ele>1330.40</ele>
	<time>2023-11-18T07:47:26.000Z</time>
</trkpt>
<trkpt lat="45.8819370" lon="9.8413860">
	<ele>1330.60</ele>
	<time>2023-11-18T07:47:27.000Z</time>
</trkpt>
<trkpt lat="45.8819420" lon="9.8413830">
	<ele>1330.80</ele>
	<time>2023-11-18T07:47:28.000Z</time>
</trkpt>
<trkpt lat="45.8819470" lon="9.8413800">
	<ele>1331.00</ele>
	<time>2023-11-18T07:47:29.000Z</time>
</trkpt>
<trkpt lat="45.8819520" lon="9.8413770">
	<ele>1331.20</ele>
	<time>2023-11-18T07:47:30.000Z</time>
</trkpt>
<trkpt lat="45.8819560" lon="9.8413740">
	<ele>1331.20</ele>
	<time>2023-11-18T07:47:31.000Z</time>
</trkpt>
<trkpt lat="45.8819610" lon="9.8413730">
	<ele>1331.60</ele>
	<time>2023-11-18T07:47:32.000Z</time>
</trkpt>
<trkpt lat="45.8819670" lon="9.8413700">
	<ele>1331.60</ele>
	<time>2023-11-18T07:47:33.000Z</time>
</trkpt>
<trkpt lat="45.8819710" lon="9.8413690">
	<ele>1331.80</ele>
	<time>2023-11-18T07:47:34.000Z</time>
</trkpt>
<trkpt lat="45.8819760" lon="9.8413650">
	<ele>1332.00</ele>
	<time>2023-11-18T07:47:35.000Z</time>
</trkpt>
<trkpt lat="45.8819810" lon="9.8413620">
	<ele>1332.20</ele>
	<time>2023-11-18T07:47:36.000Z</time>
</trkpt>
<trkpt lat="45.8819850" lon="9.8413620">
	<ele>1332.40</ele>
	<time>2023-11-18T07:47:37.000Z</time>
</trkpt>
<trkpt lat="45.8819880" lon="9.8413610">
	<ele>1332.40</ele>
	<time>2023-11-18T07:47:38.000Z</time>
</trkpt>
<trkpt lat="45.8819910" lon="9.8413600">
	<ele>1332.60</ele>
	<time>2023-11-18T07:47:39.000Z</time>
</trkpt>
<trkpt lat="45.8819940" lon="9.8413560">
	<ele>1332.60</ele>
	<time>2023-11-18T07:47:40.000Z</time>
</trkpt>
<trkpt lat="45.8819990" lon="9.8413560">
	<ele>1333.00</ele>
	<time>2023-11-18T07:47:41.000Z</time>
</trkpt>
<trkpt lat="45.8820030" lon="9.8413530">
	<ele>1333.20</ele>
	<time>2023-11-18T07:47:42.000Z</time>
</trkpt>
<trkpt lat="45.8820060" lon="9.8413510">
	<ele>1333.40</ele>
	<time>2023-11-18T07:47:43.000Z</time>
</trkpt>
<trkpt lat="45.8820090" lon="9.8413510">
	<ele>1333.60</ele>
	<time>2023-11-18T07:47:44.000Z</time>
</trkpt>
<trkpt lat="45.8820120" lon="9.8413520">
	<ele>1333.80</ele>
	<time>2023-11-18T07:47:45.000Z</time>
</trkpt>
<trkpt lat="45.8820160" lon="9.8413500">
	<ele>1333.80</ele>
	<time>2023-11-18T07:47:46.000Z</time>
</trkpt>
<trkpt lat="45.8820200" lon="9.8413500">
	<ele>1334.20</ele>
	<time>2023-11-18T07:47:47.000Z</time>
</trkpt>
<trkpt lat="45.8820210" lon="9.8413470">
	<ele>1334.60</ele>
	<time>2023-11-18T07:47:48.000Z</time>
</trkpt>
<trkpt lat="45.8820250" lon="9.8413420">
	<ele>1334.80</ele>
	<time>2023-11-18T07:47:49.000Z</time>
</trkpt>
<trkpt lat="45.8820310" lon="9.8413380">
	<ele>1335.00</ele>
	<time>2023-11-18T07:47:50.000Z</time>
</trkpt>
<trkpt lat="45.8820360" lon="9.8413340">
	<ele>1335.40</ele>
	<time>2023-11-18T07:47:51.000Z</time>
</trkpt>
<trkpt lat="45.8820380" lon="9.8413310">
	<ele>1335.60</ele>
	<time>2023-11-18T07:47:52.000Z</time>
</trkpt>
<trkpt lat="45.8820430" lon="9.8413330">
	<ele>1335.80</ele>
	<time>2023-11-18T07:47:53.000Z</time>
</trkpt>
<trkpt lat="45.8820470" lon="9.8413330">
	<ele>1335.80</ele>
	<time>2023-11-18T07:47:54.000Z</time>
</trkpt>
<trkpt lat="45.8820520" lon="9.8413280">
	<ele>1336.00</ele>
	<time>2023-11-18T07:47:55.000Z</time>
</trkpt>
<trkpt lat="45.8820570" lon="9.8413220">
	<ele>1336.00</ele>
	<time>2023-11-18T07:47:56.000Z</time>
</trkpt>
<trkpt lat="45.8820600" lon="9.8413180">
	<ele>1336.40</ele>
	<time>2023-11-18T07:47:57.000Z</time>
</trkpt>
<trkpt lat="45.8820630" lon="9.8413140">
	<ele>1336.80</ele>
	<time>2023-11-18T07:47:58.000Z</time>
</trkpt>
<trkpt lat="45.8820680" lon="9.8413090">
	<ele>1337.00</ele>
	<time>2023-11-18T07:47:59.000Z</time>
</trkpt>
<trkpt lat="45.8820730" lon="9.8413040">
	<ele>1337.00</ele>
	<time>2023-11-18T07:48:00.000Z</time>
</trkpt>
<trkpt lat="45.8820760" lon="9.8413000">
	<ele>1337.40</ele>
	<time>2023-11-18T07:48:01.000Z</time>
</trkpt>
<trkpt lat="45.8820790" lon="9.8412990">
	<ele>1337.60</ele>
	<time>2023-11-18T07:48:02.000Z</time>
</trkpt>
<trkpt lat="45.8820820" lon="9.8412980">
	<ele>1337.60</ele>
	<time>2023-11-18T07:48:03.000Z</time>
</trkpt>
<trkpt lat="45.8820870" lon="9.8412950">
	<ele>1337.80</ele>
	<time>2023-11-18T07:48:04.000Z</time>
</trkpt>
<trkpt lat="45.8820930" lon="9.8412910">
	<ele>1337.80</ele>
	<time>2023-11-18T07:48:05.000Z</time>
</trkpt>
<trkpt lat="45.8820970" lon="9.8412880">
	<ele>1337.80</ele>
	<time>2023-11-18T07:48:06.000Z</time>
</trkpt>
<trkpt lat="45.8821050" lon="9.8412850">
	<ele>1338.00</ele>
	<time>2023-11-18T07:48:07.000Z</time>
</trkpt>
<trkpt lat="45.8821100" lon="9.8412820">
	<ele>1338.20</ele>
	<time>2023-11-18T07:48:08.000Z</time>
</trkpt>
<trkpt lat="45.8821140" lon="9.8412810">
	<ele>1338.20</ele>
	<time>2023-11-18T07:48:09.000Z</time>
</trkpt>
<trkpt lat="45.8821170" lon="9.8412800">
	<ele>1338.60</ele>
	<time>2023-11-18T07:48:10.000Z</time>
</trkpt>
<trkpt lat="45.8821220" lon="9.8412740">
	<ele>1339.00</ele>
	<time>2023-11-18T07:48:11.000Z</time>
</trkpt>
<trkpt lat="45.8821260" lon="9.8412690">
	<ele>1339.20</ele>
	<time>2023-11-18T07:48:12.000Z</time>
</trkpt>
<trkpt lat="45.8821290" lon="9.8412650">
	<ele>1339.20</ele>
	<time>2023-11-18T07:48:13.000Z</time>
</trkpt>
<trkpt lat="45.8821330" lon="9.8412610">
	<ele>1339.40</ele>
	<time>2023-11-18T07:48:14.000Z</time>
</trkpt>
<trkpt lat="45.8821380" lon="9.8412570">
	<ele>1339.40</ele>
	<time>2023-11-18T07:48:15.000Z</time>
</trkpt>
<trkpt lat="45.8821420" lon="9.8412560">
	<ele>1339.60</ele>
	<time>2023-11-18T07:48:16.000Z</time>
</trkpt>
<trkpt lat="45.8821460" lon="9.8412570">
	<ele>1339.80</ele>
	<time>2023-11-18T07:48:17.000Z</time>
</trkpt>
<trkpt lat="45.8821500" lon="9.8412550">
	<ele>1339.80</ele>
	<time>2023-11-18T07:48:18.000Z</time>
</trkpt>
<trkpt lat="45.8821550" lon="9.8412530">
	<ele>1340.00</ele>
	<time>2023-11-18T07:48:19.000Z</time>
</trkpt>
<trkpt lat="45.8821600" lon="9.8412530">
	<ele>1340.20</ele>
	<time>2023-11-18T07:48:20.000Z</time>
</trkpt>
<trkpt lat="45.8821670" lon="9.8412500">
	<ele>1340.40</ele>
	<time>2023-11-18T07:48:21.000Z</time>
</trkpt>
<trkpt lat="45.8821730" lon="9.8412460">
	<ele>1340.60</ele>
	<time>2023-11-18T07:48:22.000Z</time>
</trkpt>
<trkpt lat="45.8821750" lon="9.8412420">
	<ele>1340.80</ele>
	<time>2023-11-18T07:48:23.000Z</time>
</trkpt>
<trkpt lat="45.8821750" lon="9.8412410">
	<ele>1341.20</ele>
	<time>2023-11-18T07:48:24.000Z</time>
</trkpt>
<trkpt lat="45.8821790" lon="9.8412390">
	<ele>1341.40</ele>
	<time>2023-11-18T07:48:25.000Z</time>
</trkpt>
<trkpt lat="45.8821830" lon="9.8412430">
	<ele>1341.60</ele>
	<time>2023-11-18T07:48:26.000Z</time>
</trkpt>
<trkpt lat="45.8821860" lon="9.8412460">
	<ele>1341.80</ele>
	<time>2023-11-18T07:48:27.000Z</time>
</trkpt>
<trkpt lat="45.8821880" lon="9.8412490">
	<ele>1341.80</ele>
	<time>2023-11-18T07:48:28.000Z</time>
</trkpt>
<trkpt lat="45.8821890" lon="9.8412490">
	<ele>1342.00</ele>
	<time>2023-11-18T07:48:29.000Z</time>
</trkpt>
<trkpt lat="45.8821900" lon="9.8412530">
	<ele>1342.20</ele>
	<time>2023-11-18T07:48:30.000Z</time>
</trkpt>
<trkpt lat="45.8821940" lon="9.8412550">
	<ele>1342.20</ele>
	<time>2023-11-18T07:48:31.000Z</time>
</trkpt>
<trkpt lat="45.8821950" lon="9.8412570">
	<ele>1342.40</ele>
	<time>2023-11-18T07:48:32.000Z</time>
</trkpt>
<trkpt lat="45.8821990" lon="9.8412620">
	<ele>1342.40</ele>
	<time>2023-11-18T07:48:33.000Z</time>
</trkpt>
<trkpt lat="45.8822030" lon="9.8412650">
	<ele>1342.60</ele>
	<time>2023-11-18T07:48:34.000Z</time>
</trkpt>
<trkpt lat="45.8822060" lon="9.8412670">
	<ele>1342.60</ele>
	<time>2023-11-18T07:48:35.000Z</time>
</trkpt>
<trkpt lat="45.8822080" lon="9.8412700">
	<ele>1342.60</ele>
	<time>2023-11-18T07:48:36.000Z</time>
</trkpt>
<trkpt lat="45.8822090" lon="9.8412720">
	<ele>1342.80</ele>
	<time>2023-11-18T07:48:37.000Z</time>
</trkpt>
<trkpt lat="45.8822120" lon="9.8412720">
	<ele>1343.00</ele>
	<time>2023-11-18T07:48:38.000Z</time>
</trkpt>
<trkpt lat="45.8822180" lon="9.8412700">
	<ele>1343.20</ele>
	<time>2023-11-18T07:48:39.000Z</time>
</trkpt>
<trkpt lat="45.8822240" lon="9.8412670">
	<ele>1343.40</ele>
	<time>2023-11-18T07:48:40.000Z</time>
</trkpt>
<trkpt lat="45.8822290" lon="9.8412650">
	<ele>1343.60</ele>
	<time>2023-11-18T07:48:41.000Z</time>
</trkpt>
<trkpt lat="45.8822350" lon="9.8412630">
	<ele>1343.80</ele>
	<time>2023-11-18T07:48:42.000Z</time>
</trkpt>
<trkpt lat="45.8822410" lon="9.8412560">
	<ele>1344.00</ele>
	<time>2023-11-18T07:48:43.000Z</time>
</trkpt>
<trkpt lat="45.8822450" lon="9.8412510">
	<ele>1344.20</ele>
	<time>2023-11-18T07:48:44.000Z</time>
</trkpt>
<trkpt lat="45.8822490" lon="9.8412470">
	<ele>1344.40</ele>
	<time>2023-11-18T07:48:45.000Z</time>
</trkpt>
<trkpt lat="45.8822540" lon="9.8412400">
	<ele>1344.60</ele>
	<time>2023-11-18T07:48:46.000Z</time>
</trkpt>
<trkpt lat="45.8822560" lon="9.8412310">
	<ele>1344.60</ele>
	<time>2023-11-18T07:48:47.000Z</time>
</trkpt>
<trkpt lat="45.8822590" lon="9.8412260">
	<ele>1344.80</ele>
	<time>2023-11-18T07:48:48.000Z</time>
</trkpt>
<trkpt lat="45.8822600" lon="9.8412220">
	<ele>1345.00</ele>
	<time>2023-11-18T07:48:49.000Z</time>
</trkpt>
<trkpt lat="45.8822670" lon="9.8412160">
	<ele>1345.00</ele>
	<time>2023-11-18T07:48:50.000Z</time>
</trkpt>
<trkpt lat="45.8822700" lon="9.8412110">
	<ele>1345.40</ele>
	<time>2023-11-18T07:48:51.000Z</time>
</trkpt>
<trkpt lat="45.8822720" lon="9.8412070">
	<ele>1345.40</ele>
	<time>2023-11-18T07:48:52.000Z</time>
</trkpt>
<trkpt lat="45.8822730" lon="9.8412030">
	<ele>1345.60</ele>
	<time>2023-11-18T07:48:53.000Z</time>
</trkpt>
<trkpt lat="45.8822740" lon="9.8412010">
	<ele>1345.60</ele>
	<time>2023-11-18T07:48:54.000Z</time>
</trkpt>
<trkpt lat="45.8822760" lon="9.8411990">
	<ele>1345.80</ele>
	<time>2023-11-18T07:48:55.000Z</time>
</trkpt>
<trkpt lat="45.8822780" lon="9.8411980">
	<ele>1345.80</ele>
	<time>2023-11-18T07:48:56.000Z</time>
</trkpt>
<trkpt lat="45.8822820" lon="9.8411990">
	<ele>1346.00</ele>
	<time>2023-11-18T07:48:57.000Z</time>
</trkpt>
<trkpt lat="45.8822880" lon="9.8411980">
	<ele>1346.20</ele>
	<time>2023-11-18T07:48:58.000Z</time>
</trkpt>
<trkpt lat="45.8822940" lon="9.8411970">
	<ele>1346.40</ele>
	<time>2023-11-18T07:48:59.000Z</time>
</trkpt>
<trkpt lat="45.8822990" lon="9.8411960">
	<ele>1346.60</ele>
	<time>2023-11-18T07:49:00.000Z</time>
</trkpt>
<trkpt lat="45.8823000" lon="9.8411900">
	<ele>1346.80</ele>
	<time>2023-11-18T07:49:01.000Z</time>
</trkpt>
<trkpt lat="45.8823030" lon="9.8411890">
	<ele>1346.80</ele>
	<time>2023-11-18T07:49:02.000Z</time>
</trkpt>
<trkpt lat="45.8823070" lon="9.8411870">
	<ele>1347.00</ele>
	<time>2023-11-18T07:49:03.000Z</time>
</trkpt>
<trkpt lat="45.8823120" lon="9.8411850">
	<ele>1347.20</ele>
	<time>2023-11-18T07:49:04.000Z</time>
</trkpt>
<trkpt lat="45.8823190" lon="9.8411830">
	<ele>1347.40</ele>
	<time>2023-11-18T07:49:05.000Z</time>
</trkpt>
<trkpt lat="45.8823250" lon="9.8411800">
	<ele>1347.40</ele>
	<time>2023-11-18T07:49:06.000Z</time>
</trkpt>
<trkpt lat="45.8823270" lon="9.8411790">
	<ele>1347.80</ele>
	<time>2023-11-18T07:49:07.000Z</time>
</trkpt>
<trkpt lat="45.8823310" lon="9.8411780">
	<ele>1348.20</ele>
	<time>2023-11-18T07:49:08.000Z</time>
</trkpt>
<trkpt lat="45.8823360" lon="9.8411780">
	<ele>1348.40</ele>
	<time>2023-11-18T07:49:09.000Z</time>
</trkpt>
<trkpt lat="45.8823380" lon="9.8411780">
	<ele>1348.40</ele>
	<time>2023-11-18T07:49:10.000Z</time>
</trkpt>
<trkpt lat="45.8823390" lon="9.8411800">
	<ele>1348.40</ele>
	<time>2023-11-18T07:49:11.000Z</time>
</trkpt>
<trkpt lat="45.8823420" lon="9.8411850">
	<ele>1348.60</ele>
	<time>2023-11-18T07:49:12.000Z</time>
</trkpt>
<trkpt lat="45.8823450" lon="9.8411890">
	<ele>1348.60</ele>
	<time>2023-11-18T07:49:13.000Z</time>
</trkpt>
<trkpt lat="45.8823500" lon="9.8411920">
	<ele>1348.80</ele>
	<time>2023-11-18T07:49:14.000Z</time>
</trkpt>
<trkpt lat="45.8823540" lon="9.8411980">
	<ele>1348.80</ele>
	<time>2023-11-18T07:49:15.000Z</time>
</trkpt>
<trkpt lat="45.8823580" lon="9.8412030">
	<ele>1349.20</ele>
	<time>2023-11-18T07:49:16.000Z</time>
</trkpt>
<trkpt lat="45.8823610" lon="9.8412060">
	<ele>1349.40</ele>
	<time>2023-11-18T07:49:17.000Z</time>
</trkpt>
<trkpt lat="45.8823680" lon="9.8412090">
	<ele>1349.60</ele>
	<time>2023-11-18T07:49:18.000Z</time>
</trkpt>
<trkpt lat="45.8823700" lon="9.8412130">
	<ele>1349.60</ele>
	<time>2023-11-18T07:49:19.000Z</time>
</trkpt>
<trkpt lat="45.8823730" lon="9.8412100">
	<ele>1349.80</ele>
	<time>2023-11-18T07:49:20.000Z</time>
</trkpt>
<trkpt lat="45.8823780" lon="9.8412070">
	<ele>1350.00</ele>
	<time>2023-11-18T07:49:21.000Z</time>
</trkpt>
<trkpt lat="45.8823820" lon="9.8412030">
	<ele>1350.20</ele>
	<time>2023-11-18T07:49:22.000Z</time>
</trkpt>
<trkpt lat="45.8823800" lon="9.8411990">
	<ele>1350.40</ele>
	<time>2023-11-18T07:49:23.000Z</time>
</trkpt>
<trkpt lat="45.8823800" lon="9.8411950">
	<ele>1350.60</ele>
	<time>2023-11-18T07:49:24.000Z</time>
</trkpt>
<trkpt lat="45.8823810" lon="9.8411940">
	<ele>1350.60</ele>
	<time>2023-11-18T07:49:25.000Z</time>
</trkpt>
<trkpt lat="45.8823870" lon="9.8411930">
	<ele>1350.80</ele>
	<time>2023-11-18T07:49:26.000Z</time>
</trkpt>
<trkpt lat="45.8823920" lon="9.8411940">
	<ele>1350.80</ele>
	<time>2023-11-18T07:49:27.000Z</time>
</trkpt>
<trkpt lat="45.8823980" lon="9.8411940">
	<ele>1351.00</ele>
	<time>2023-11-18T07:49:28.000Z</time>
</trkpt>
<trkpt lat="45.8824010" lon="9.8411950">
	<ele>1351.00</ele>
	<time>2023-11-18T07:49:29.000Z</time>
</trkpt>
<trkpt lat="45.8824050" lon="9.8411930">
	<ele>1351.20</ele>
	<time>2023-11-18T07:49:30.000Z</time>
</trkpt>
<trkpt lat="45.8824090" lon="9.8411910">
	<ele>1351.40</ele>
	<time>2023-11-18T07:49:31.000Z</time>
</trkpt>
<trkpt lat="45.8824130" lon="9.8411890">
	<ele>1351.60</ele>
	<time>2023-11-18T07:49:32.000Z</time>
</trkpt>
<trkpt lat="45.8824170" lon="9.8411880">
	<ele>1351.80</ele>
	<time>2023-11-18T07:49:33.000Z</time>
</trkpt>
<trkpt lat="45.8824240" lon="9.8411850">
	<ele>1352.00</ele>
	<time>2023-11-18T07:49:34.000Z</time>
</trkpt>
<trkpt lat="45.8824320" lon="9.8411840">
	<ele>1352.20</ele>
	<time>2023-11-18T07:49:35.000Z</time>
</trkpt>
<trkpt lat="45.8824380" lon="9.8411820">
	<ele>1352.40</ele>
	<time>2023-11-18T07:49:36.000Z</time>
</trkpt>
<trkpt lat="45.8824410" lon="9.8411830">
	<ele>1352.60</ele>
	<time>2023-11-18T07:49:37.000Z</time>
</trkpt>
<trkpt lat="45.8824450" lon="9.8411820">
	<ele>1353.00</ele>
	<time>2023-11-18T07:49:38.000Z</time>
</trkpt>
<trkpt lat="45.8824510" lon="9.8411830">
	<ele>1353.00</ele>
	<time>2023-11-18T07:49:39.000Z</time>
</trkpt>
<trkpt lat="45.8824550" lon="9.8411860">
	<ele>1353.20</ele>
	<time>2023-11-18T07:49:40.000Z</time>
</trkpt>
<trkpt lat="45.8824620" lon="9.8411880">
	<ele>1353.20</ele>
	<time>2023-11-18T07:49:41.000Z</time>
</trkpt>
<trkpt lat="45.8824640" lon="9.8411900">
	<ele>1353.40</ele>
	<time>2023-11-18T07:49:42.000Z</time>
</trkpt>
<trkpt lat="45.8824670" lon="9.8411920">
	<ele>1353.40</ele>
	<time>2023-11-18T07:49:43.000Z</time>
</trkpt>
<trkpt lat="45.8824700" lon="9.8411980">
	<ele>1353.60</ele>
	<time>2023-11-18T07:49:44.000Z</time>
</trkpt>
<trkpt lat="45.8824740" lon="9.8412000">
	<ele>1353.60</ele>
	<time>2023-11-18T07:49:45.000Z</time>
</trkpt>
<trkpt lat="45.8824770" lon="9.8411970">
	<ele>1353.60</ele>
	<time>2023-11-18T07:49:46.000Z</time>
</trkpt>
<trkpt lat="45.8824800" lon="9.8411970">
	<ele>1353.80</ele>
	<time>2023-11-18T07:49:47.000Z</time>
</trkpt>
<trkpt lat="45.8824850" lon="9.8411980">
	<ele>1353.80</ele>
	<time>2023-11-18T07:49:48.000Z</time>
</trkpt>
<trkpt lat="45.8824890" lon="9.8411970">
	<ele>1354.00</ele>
	<time>2023-11-18T07:49:49.000Z</time>
</trkpt>
<trkpt lat="45.8824930" lon="9.8412000">
	<ele>1354.00</ele>
	<time>2023-11-18T07:49:50.000Z</time>
</trkpt>
<trkpt lat="45.8824980" lon="9.8412010">
	<ele>1354.20</ele>
	<time>2023-11-18T07:49:51.000Z</time>
</trkpt>
<trkpt lat="45.8825040" lon="9.8412010">
	<ele>1354.20</ele>
	<time>2023-11-18T07:49:52.000Z</time>
</trkpt>
<trkpt lat="45.8825100" lon="9.8412000">
	<ele>1354.20</ele>
	<time>2023-11-18T07:49:53.000Z</time>
</trkpt>
<trkpt lat="45.8825180" lon="9.8412000">
	<ele>1354.40</ele>
	<time>2023-11-18T07:49:54.000Z</time>
</trkpt>
<trkpt lat="45.8825220" lon="9.8411970">
	<ele>1354.60</ele>
	<time>2023-11-18T07:49:55.000Z</time>
</trkpt>
<trkpt lat="45.8825230" lon="9.8411950">
	<ele>1354.60</ele>
	<time>2023-11-18T07:49:56.000Z</time>
</trkpt>
<trkpt lat="45.8825260" lon="9.8411970">
	<ele>1354.80</ele>
	<time>2023-11-18T07:49:57.000Z</time>
</trkpt>
<trkpt lat="45.8825300" lon="9.8412000">
	<ele>1355.00</ele>
	<time>2023-11-18T07:49:58.000Z</time>
</trkpt>
<trkpt lat="45.8825340" lon="9.8412010">
	<ele>1355.20</ele>
	<time>2023-11-18T07:49:59.000Z</time>
</trkpt>
<trkpt lat="45.8825360" lon="9.8412020">
	<ele>1355.40</ele>
	<time>2023-11-18T07:50:00.000Z</time>
</trkpt>
<trkpt lat="45.8825410" lon="9.8412050">
	<ele>1355.60</ele>
	<time>2023-11-18T07:50:01.000Z</time>
</trkpt>
<trkpt lat="45.8825470" lon="9.8412110">
	<ele>1355.60</ele>
	<time>2023-11-18T07:50:02.000Z</time>
</trkpt>
<trkpt lat="45.8825510" lon="9.8412130">
	<ele>1355.80</ele>
	<time>2023-11-18T07:50:03.000Z</time>
</trkpt>
<trkpt lat="45.8825560" lon="9.8412160">
	<ele>1356.00</ele>
	<time>2023-11-18T07:50:04.000Z</time>
</trkpt>
<trkpt lat="45.8825630" lon="9.8412190">
	<ele>1356.00</ele>
	<time>2023-11-18T07:50:05.000Z</time>
</trkpt>
<trkpt lat="45.8825710" lon="9.8412210">
	<ele>1356.20</ele>
	<time>2023-11-18T07:50:06.000Z</time>
</trkpt>
<trkpt lat="45.8825790" lon="9.8412200">
	<ele>1356.20</ele>
	<time>2023-11-18T07:50:07.000Z</time>
</trkpt>
<trkpt lat="45.8825860" lon="9.8412180">
	<ele>1356.40</ele>
	<time>2023-11-18T07:50:08.000Z</time>
</trkpt>
<trkpt lat="45.8825890" lon="9.8412150">
	<ele>1356.40</ele>
	<time>2023-11-18T07:50:09.000Z</time>
</trkpt>
<trkpt lat="45.8825930" lon="9.8412140">
	<ele>1356.60</ele>
	<time>2023-11-18T07:50:10.000Z</time>
</trkpt>
<trkpt lat="45.8825990" lon="9.8412160">
	<ele>1356.80</ele>
	<time>2023-11-18T07:50:11.000Z</time>
</trkpt>
<trkpt lat="45.8826060" lon="9.8412190">
	<ele>1357.00</ele>
	<time>2023-11-18T07:50:12.000Z</time>
</trkpt>
<trkpt lat="45.8826140" lon="9.8412190">
	<ele>1357.00</ele>
	<time>2023-11-18T07:50:13.000Z</time>
</trkpt>
<trkpt lat="45.8826200" lon="9.8412180">
	<ele>1357.20</ele>
	<time>2023-11-18T07:50:14.000Z</time>
</trkpt>
<trkpt lat="45.8826250" lon="9.8412150">
	<ele>1357.20</ele>
	<time>2023-11-18T07:50:15.000Z</time>
</trkpt>
<trkpt lat="45.8826360" lon="9.8412120">
	<ele>1357.20</ele>
	<time>2023-11-18T07:50:16.000Z</time>
</trkpt>
<trkpt lat="45.8826470" lon="9.8412060">
	<ele>1357.40</ele>
	<time>2023-11-18T07:50:17.000Z</time>
</trkpt>
<trkpt lat="45.8826530" lon="9.8412030">
	<ele>1357.60</ele>
	<time>2023-11-18T07:50:18.000Z</time>
</trkpt>
<trkpt lat="45.8826600" lon="9.8411950">
	<ele>1357.60</ele>
	<time>2023-11-18T07:50:19.000Z</time>
</trkpt>
<trkpt lat="45.8826660" lon="9.8411890">
	<ele>1357.80</ele>
	<time>2023-11-18T07:50:20.000Z</time>
</trkpt>
<trkpt lat="45.8826710" lon="9.8411870">
	<ele>1357.80</ele>
	<time>2023-11-18T07:50:21.000Z</time>
</trkpt>
<trkpt lat="45.8826760" lon="9.8411850">
	<ele>1358.20</ele>
	<time>2023-11-18T07:50:22.000Z</time>
</trkpt>
<trkpt lat="45.8826830" lon="9.8411830">
	<ele>1358.40</ele>
	<time>2023-11-18T07:50:23.000Z</time>
</trkpt>
<trkpt lat="45.8826880" lon="9.8411810">
	<ele>1358.60</ele>
	<time>2023-11-18T07:50:24.000Z</time>
</trkpt>
<trkpt lat="45.8826930" lon="9.8411770">
	<ele>1358.80</ele>
	<time>2023-11-18T07:50:25.000Z</time>
</trkpt>
<trkpt lat="45.8826980" lon="9.8411710">
	<ele>1358.80</ele>
	<time>2023-11-18T07:50:26.000Z</time>
</trkpt>
<trkpt lat="45.8827020" lon="9.8411640">
	<ele>1359.00</ele>
	<time>2023-11-18T07:50:27.000Z</time>
</trkpt>
<trkpt lat="45.8827080" lon="9.8411590">
	<ele>1359.00</ele>
	<time>2023-11-18T07:50:28.000Z</time>
</trkpt>
<trkpt lat="45.8827150" lon="9.8411540">
	<ele>1359.20</ele>
	<time>2023-11-18T07:50:29.000Z</time>
</trkpt>
<trkpt lat="45.8827210" lon="9.8411510">
	<ele>1359.20</ele>
	<time>2023-11-18T07:50:30.000Z</time>
</trkpt>
<trkpt lat="45.8827280" lon="9.8411460">
	<ele>1359.60</ele>
	<time>2023-11-18T07:50:31.000Z</time>
</trkpt>
<trkpt lat="45.8827360" lon="9.8411400">
	<ele>1359.80</ele>
	<time>2023-11-18T07:50:32.000Z</time>
</trkpt>
<trkpt lat="45.8827400" lon="9.8411340">
	<ele>1359.80</ele>
	<time>2023-11-18T07:50:33.000Z</time>
</trkpt>
<trkpt lat="45.8827430" lon="9.8411300">
	<ele>1359.80</ele>
	<time>2023-11-18T07:50:34.000Z</time>
</trkpt>
<trkpt lat="45.8827480" lon="9.8411210">
	<ele>1360.00</ele>
	<time>2023-11-18T07:50:35.000Z</time>
</trkpt>
<trkpt lat="45.8827530" lon="9.8411150">
	<ele>1360.20</ele>
	<time>2023-11-18T07:50:36.000Z</time>
</trkpt>
<trkpt lat="45.8827590" lon="9.8411080">
	<ele>1360.40</ele>
	<time>2023-11-18T07:50:37.000Z</time>
</trkpt>
<trkpt lat="45.8827660" lon="9.8411030">
	<ele>1360.60</ele>
	<time>2023-11-18T07:50:38.000Z</time>
</trkpt>
<trkpt lat="45.8827720" lon="9.8410980">
	<ele>1360.60</ele>
	<time>2023-11-18T07:50:39.000Z</time>
</trkpt>
<trkpt lat="45.8827790" lon="9.8410910">
	<ele>1360.80</ele>
	<time>2023-11-18T07:50:40.000Z</time>
</trkpt>
<trkpt lat="45.8827830" lon="9.8410820">
	<ele>1360.80</ele>
	<time>2023-11-18T07:50:41.000Z</time>
</trkpt>
<trkpt lat="45.8827890" lon="9.8410730">
	<ele>1361.00</ele>
	<time>2023-11-18T07:50:42.000Z</time>
</trkpt>
<trkpt lat="45.8827950" lon="9.8410690">
	<ele>1361.20</ele>
	<time>2023-11-18T07:50:43.000Z</time>
</trkpt>
<trkpt lat="45.8828000" lon="9.8410630">
	<ele>1361.40</ele>
	<time>2023-11-18T07:50:44.000Z</time>
</trkpt>
<trkpt lat="45.8828070" lon="9.8410560">
	<ele>1361.60</ele>
	<time>2023-11-18T07:50:45.000Z</time>
</trkpt>
<trkpt lat="45.8828150" lon="9.8410540">
	<ele>1361.80</ele>
	<time>2023-11-18T07:50:46.000Z</time>
</trkpt>
<trkpt lat="45.8828230" lon="9.8410500">
	<ele>1361.80</ele>
	<time>2023-11-18T07:50:47.000Z</time>
</trkpt>
<trkpt lat="45.8828300" lon="9.8410440">
	<ele>1361.80</ele>
	<time>2023-11-18T07:50:48.000Z</time>
</trkpt>
<trkpt lat="45.8828360" lon="9.8410380">
	<ele>1361.80</ele>
	<time>2023-11-18T07:50:49.000Z</time>
</trkpt>
<trkpt lat="45.8828410" lon="9.8410360">
	<ele>1362.00</ele>
	<time>2023-11-18T07:50:50.000Z</time>
</trkpt>
<trkpt lat="45.8828490" lon="9.8410320">
	<ele>1362.00</ele>
	<time>2023-11-18T07:50:51.000Z</time>
</trkpt>
<trkpt lat="45.8828570" lon="9.8410290">
	<ele>1362.00</ele>
	<time>2023-11-18T07:50:52.000Z</time>
</trkpt>
<trkpt lat="45.8828610" lon="9.8410240">
	<ele>1362.20</ele>
	<time>2023-11-18T07:50:53.000Z</time>
</trkpt>
<trkpt lat="45.8828650" lon="9.8410210">
	<ele>1362.40</ele>
	<time>2023-11-18T07:50:54.000Z</time>
</trkpt>
<trkpt lat="45.8828740" lon="9.8410130">
	<ele>1362.60</ele>
	<time>2023-11-18T07:50:55.000Z</time>
</trkpt>
<trkpt lat="45.8828790" lon="9.8410050">
	<ele>1362.60</ele>
	<time>2023-11-18T07:50:56.000Z</time>
</trkpt>
<trkpt lat="45.8828810" lon="9.8410000">
	<ele>1362.80</ele>
	<time>2023-11-18T07:50:57.000Z</time>
</trkpt>
<trkpt lat="45.8828860" lon="9.8409960">
	<ele>1362.80</ele>
	<time>2023-11-18T07:50:58.000Z</time>
</trkpt>
<trkpt lat="45.8828920" lon="9.8409940">
	<ele>1363.00</ele>
	<time>2023-11-18T07:50:59.000Z</time>
</trkpt>
<trkpt lat="45.8828990" lon="9.8409910">
	<ele>1363.00</ele>
	<time>2023-11-18T07:51:00.000Z</time>
</trkpt>
<trkpt lat="45.8829080" lon="9.8409840">
	<ele>1363.20</ele>
	<time>2023-11-18T07:51:01.000Z</time>
</trkpt>
<trkpt lat="45.8829140" lon="9.8409760">
	<ele>1363.20</ele>
	<time>2023-11-18T07:51:02.000Z</time>
</trkpt>
<trkpt lat="45.8829190" lon="9.8409680">
	<ele>1363.40</ele>
	<time>2023-11-18T07:51:03.000Z</time>
</trkpt>
<trkpt lat="45.8829250" lon="9.8409610">
	<ele>1363.40</ele>
	<time>2023-11-18T07:51:04.000Z</time>
</trkpt>
<trkpt lat="45.8829300" lon="9.8409530">
	<ele>1363.60</ele>
	<time>2023-11-18T07:51:05.000Z</time>
</trkpt>
<trkpt lat="45.8829370" lon="9.8409460">
	<ele>1363.80</ele>
	<time>2023-11-18T07:51:06.000Z</time>
</trkpt>
<trkpt lat="45.8829440" lon="9.8409410">
	<ele>1364.00</ele>
	<time>2023-11-18T07:51:07.000Z</time>
</trkpt>
<trkpt lat="45.8829510" lon="9.8409330">
	<ele>1364.20</ele>
	<time>2023-11-18T07:51:08.000Z</time>
</trkpt>
<trkpt lat="45.8829600" lon="9.8409280">
	<ele>1364.40</ele>
	<time>2023-11-18T07:51:09.000Z</time>
</trkpt>
<trkpt lat="45.8829680" lon="9.8409220">
	<ele>1364.40</ele>
	<time>2023-11-18T07:51:10.000Z</time>
</trkpt>
<trkpt lat="45.8829750" lon="9.8409140">
	<ele>1364.40</ele>
	<time>2023-11-18T07:51:11.000Z</time>
</trkpt>
<trkpt lat="45.8829800" lon="9.8409020">
	<ele>1364.40</ele>
	<time>2023-11-18T07:51:12.000Z</time>
</trkpt>
<trkpt lat="45.8829850" lon="9.8408890">
	<ele>1364.60</ele>
	<time>2023-11-18T07:51:13.000Z</time>
</trkpt>
<trkpt lat="45.8829890" lon="9.8408780">
	<ele>1364.60</ele>
	<time>2023-11-18T07:51:14.000Z</time>
</trkpt>
<trkpt lat="45.8829950" lon="9.8408720">
	<ele>1364.60</ele>
	<time>2023-11-18T07:51:15.000Z</time>
</trkpt>
<trkpt lat="45.8829970" lon="9.8408650">
	<ele>1364.80</ele>
	<time>2023-11-18T07:51:16.000Z</time>
</trkpt>
<trkpt lat="45.8830020" lon="9.8408550">
	<ele>1364.80</ele>
	<time>2023-11-18T07:51:17.000Z</time>
</trkpt>
<trkpt lat="45.8830090" lon="9.8408480">
	<ele>1364.80</ele>
	<time>2023-11-18T07:51:18.000Z</time>
</trkpt>
<trkpt lat="45.8830150" lon="9.8408410">
	<ele>1364.80</ele>
	<time>2023-11-18T07:51:19.000Z</time>
</trkpt>
<trkpt lat="45.8830180" lon="9.8408380">
	<ele>1364.80</ele>
	<time>2023-11-18T07:51:20.000Z</time>
</trkpt>
<trkpt lat="45.8830190" lon="9.8408360">
	<ele>1364.80</ele>
	<time>2023-11-18T07:51:21.000Z</time>
</trkpt>
<trkpt lat="45.8830190" lon="9.8408360">
	<ele>1365.00</ele>
	<time>2023-11-18T07:51:22.000Z</time>
</trkpt>
<trkpt lat="45.8830200" lon="9.8408370">
	<ele>1365.00</ele>
	<time>2023-11-18T07:51:23.000Z</time>
</trkpt>
<trkpt lat="45.8830200" lon="9.8408390">
	<ele>1365.00</ele>
	<time>2023-11-18T07:51:24.000Z</time>
</trkpt>
<trkpt lat="45.8830200" lon="9.8408390">
	<ele>1365.20</ele>
	<time>2023-11-18T07:51:25.000Z</time>
</trkpt>
<trkpt lat="45.8830200" lon="9.8408380">
	<ele>1365.20</ele>
	<time>2023-11-18T07:51:26.000Z</time>
</trkpt>
<trkpt lat="45.8830210" lon="9.8408300">
	<ele>1365.20</ele>
	<time>2023-11-18T07:51:27.000Z</time>
</trkpt>
<trkpt lat="45.8830290" lon="9.8408230">
	<ele>1365.20</ele>
	<time>2023-11-18T07:51:28.000Z</time>
</trkpt>
<trkpt lat="45.8830350" lon="9.8408130">
	<ele>1365.20</ele>
	<time>2023-11-18T07:51:29.000Z</time>
</trkpt>
<trkpt lat="45.8830430" lon="9.8408050">
	<ele>1365.20</ele>
	<time>2023-11-18T07:51:30.000Z</time>
</trkpt>
<trkpt lat="45.8830530" lon="9.8407990">
	<ele>1365.20</ele>
	<time>2023-11-18T07:51:31.000Z</time>
</trkpt>
<trkpt lat="45.8830640" lon="9.8407940">
	<ele>1365.20</ele>
	<time>2023-11-18T07:51:32.000Z</time>
</trkpt>
<trkpt lat="45.8830750" lon="9.8407870">
	<ele>1365.20</ele>
	<time>2023-11-18T07:51:33.000Z</time>
</trkpt>
<trkpt lat="45.8830820" lon="9.8407780">
	<ele>1365.20</ele>
	<time>2023-11-18T07:51:34.000Z</time>
</trkpt>
<trkpt lat="45.8830900" lon="9.8407680">
	<ele>1365.20</ele>
	<time>2023-11-18T07:51:35.000Z</time>
</trkpt>
<trkpt lat="45.8830980" lon="9.8407590">
	<ele>1365.40</ele>
	<time>2023-11-18T07:51:36.000Z</time>
</trkpt>
<trkpt lat="45.8831070" lon="9.8407540">
	<ele>1365.40</ele>
	<time>2023-11-18T07:51:37.000Z</time>
</trkpt>
<trkpt lat="45.8831160" lon="9.8407490">
	<ele>1365.40</ele>
	<time>2023-11-18T07:51:38.000Z</time>
</trkpt>
<trkpt lat="45.8831240" lon="9.8407430">
	<ele>1365.60</ele>
	<time>2023-11-18T07:51:39.000Z</time>
</trkpt>
<trkpt lat="45.8831350" lon="9.8407380">
	<ele>1365.60</ele>
	<time>2023-11-18T07:51:40.000Z</time>
</trkpt>
<trkpt lat="45.8831430" lon="9.8407310">
	<ele>1365.60</ele>
	<time>2023-11-18T07:51:41.000Z</time>
</trkpt>
<trkpt lat="45.8831510" lon="9.8407280">
	<ele>1365.80</ele>
	<time>2023-11-18T07:51:42.000Z</time>
</trkpt>
<trkpt lat="45.8831590" lon="9.8407250">
	<ele>1366.00</ele>
	<time>2023-11-18T07:51:43.000Z</time>
</trkpt>
<trkpt lat="45.8831670" lon="9.8407210">
	<ele>1366.00</ele>
	<time>2023-11-18T07:51:44.000Z</time>
</trkpt>
<trkpt lat="45.8831750" lon="9.8407140">
	<ele>1366.20</ele>
	<time>2023-11-18T07:51:45.000Z</time>
</trkpt>
<trkpt lat="45.8831850" lon="9.8407050">
	<ele>1366.20</ele>
	<time>2023-11-18T07:51:46.000Z</time>
</trkpt>
<trkpt lat="45.8831940" lon="9.8406970">
	<ele>1366.20</ele>
	<time>2023-11-18T07:51:47.000Z</time>
</trkpt>
<trkpt lat="45.8831960" lon="9.8406930">
	<ele>1366.20</ele>
	<time>2023-11-18T07:51:48.000Z</time>
</trkpt>
<trkpt lat="45.8831960" lon="9.8406930">
	<ele>1366.20</ele>
	<time>2023-11-18T07:51:49.000Z</time>
</trkpt>
<trkpt lat="45.8831970" lon="9.8406940">
	<ele>1366.40</ele>
	<time>2023-11-18T07:51:50.000Z</time>
</trkpt>
<trkpt lat="45.8831970" lon="9.8406950">
	<ele>1366.40</ele>
	<time>2023-11-18T07:51:51.000Z</time>
</trkpt>
<trkpt lat="45.8831970" lon="9.8406950">
	<ele>1366.40</ele>
	<time>2023-11-18T07:51:52.000Z</time>
</trkpt>
<trkpt lat="45.8831970" lon="9.8406950">
	<ele>1366.40</ele>
	<time>2023-11-18T07:51:53.000Z</time>
</trkpt>
<trkpt lat="45.8832000" lon="9.8406940">
	<ele>1366.40</ele>
	<time>2023-11-18T07:51:54.000Z</time>
</trkpt>
<trkpt lat="45.8832050" lon="9.8406940">
	<ele>1366.20</ele>
	<time>2023-11-18T07:51:55.000Z</time>
</trkpt>
<trkpt lat="45.8832120" lon="9.8406880">
	<ele>1366.20</ele>
	<time>2023-11-18T07:51:56.000Z</time>
</trkpt>
<trkpt lat="45.8832180" lon="9.8406810">
	<ele>1366.40</ele>
	<time>2023-11-18T07:51:57.000Z</time>
</trkpt>
<trkpt lat="45.8832240" lon="9.8406730">
	<ele>1366.40</ele>
	<time>2023-11-18T07:51:58.000Z</time>
</trkpt>
<trkpt lat="45.8832280" lon="9.8406660">
	<ele>1366.40</ele>
	<time>2023-11-18T07:51:59.000Z</time>
</trkpt>
<trkpt lat="45.8832310" lon="9.8406600">
	<ele>1366.40</ele>
	<time>2023-11-18T07:52:00.000Z</time>
</trkpt>
<trkpt lat="45.8832360" lon="9.8406530">
	<ele>1366.40</ele>
	<time>2023-11-18T07:52:01.000Z</time>
</trkpt>
<trkpt lat="45.8832420" lon="9.8406470">
	<ele>1366.40</ele>
	<time>2023-11-18T07:52:02.000Z</time>
</trkpt>
<trkpt lat="45.8832480" lon="9.8406420">
	<ele>1366.40</ele>
	<time>2023-11-18T07:52:03.000Z</time>
</trkpt>
<trkpt lat="45.8832520" lon="9.8406360">
	<ele>1366.40</ele>
	<time>2023-11-18T07:52:04.000Z</time>
</trkpt>
<trkpt lat="45.8832570" lon="9.8406290">
	<ele>1366.40</ele>
	<time>2023-11-18T07:52:05.000Z</time>
</trkpt>
<trkpt lat="45.8832680" lon="9.8406220">
	<ele>1366.40</ele>
	<time>2023-11-18T07:52:06.000Z</time>
</trkpt>
<trkpt lat="45.8832810" lon="9.8406170">
	<ele>1366.60</ele>
	<time>2023-11-18T07:52:07.000Z</time>
</trkpt>
<trkpt lat="45.8832870" lon="9.8406080">
	<ele>1366.60</ele>
	<time>2023-11-18T07:52:08.000Z</time>
</trkpt>
<trkpt lat="45.8832920" lon="9.8406030">
	<ele>1366.60</ele>
	<time>2023-11-18T07:52:09.000Z</time>
</trkpt>
<trkpt lat="45.8832970" lon="9.8405960">
	<ele>1366.80</ele>
	<time>2023-11-18T07:52:10.000Z</time>
</trkpt>
<trkpt lat="45.8833050" lon="9.8405910">
	<ele>1366.80</ele>
	<time>2023-11-18T07:52:11.000Z</time>
</trkpt>
<trkpt lat="45.8833120" lon="9.8405870">
	<ele>1367.00</ele>
	<time>2023-11-18T07:52:12.000Z</time>
</trkpt>
<trkpt lat="45.8833180" lon="9.8405820">
	<ele>1367.00</ele>
	<time>2023-11-18T07:52:13.000Z</time>
</trkpt>
<trkpt lat="45.8833240" lon="9.8405760">
	<ele>1367.20</ele>
	<time>2023-11-18T07:52:14.000Z</time>
</trkpt>
<trkpt lat="45.8833280" lon="9.8405730">
	<ele>1367.20</ele>
	<time>2023-11-18T07:52:15.000Z</time>
</trkpt>
<trkpt lat="45.8833330" lon="9.8405690">
	<ele>1367.20</ele>
	<time>2023-11-18T07:52:16.000Z</time>
</trkpt>
<trkpt lat="45.8833390" lon="9.8405620">
	<ele>1367.20</ele>
	<time>2023-11-18T07:52:17.000Z</time>
</trkpt>
<trkpt lat="45.8833440" lon="9.8405540">
	<ele>1367.40</ele>
	<time>2023-11-18T07:52:18.000Z</time>
</trkpt>
<trkpt lat="45.8833500" lon="9.8405460">
	<ele>1367.40</ele>
	<time>2023-11-18T07:52:19.000Z</time>
</trkpt>
<trkpt lat="45.8833540" lon="9.8405370">
	<ele>1367.20</ele>
	<time>2023-11-18T07:52:20.000Z</time>
</trkpt>
<trkpt lat="45.8833620" lon="9.8405300">
	<ele>1367.20</ele>
	<time>2023-11-18T07:52:21.000Z</time>
</trkpt>
<trkpt lat="45.8833710" lon="9.8405250">
	<ele>1367.20</ele>
	<time>2023-11-18T07:52:22.000Z</time>
</trkpt>
<trkpt lat="45.8833810" lon="9.8405200">
	<ele>1367.20</ele>
	<time>2023-11-18T07:52:23.000Z</time>
</trkpt>
<trkpt lat="45.8833880" lon="9.8405110">
	<ele>1367.20</ele>
	<time>2023-11-18T07:52:24.000Z</time>
</trkpt>
<trkpt lat="45.8833970" lon="9.8404970">
	<ele>1367.00</ele>
	<time>2023-11-18T07:52:25.000Z</time>
</trkpt>
<trkpt lat="45.8834090" lon="9.8404840">
	<ele>1367.00</ele>
	<time>2023-11-18T07:52:26.000Z</time>
</trkpt>
<trkpt lat="45.8834180" lon="9.8404720">
	<ele>1367.00</ele>
	<time>2023-11-18T07:52:27.000Z</time>
</trkpt>
<trkpt lat="45.8834300" lon="9.8404580">
	<ele>1367.00</ele>
	<time>2023-11-18T07:52:28.000Z</time>
</trkpt>
<trkpt lat="45.8834400" lon="9.8404470">
	<ele>1367.00</ele>
	<time>2023-11-18T07:52:29.000Z</time>
</trkpt>
<trkpt lat="45.8834450" lon="9.8404370">
	<ele>1366.80</ele>
	<time>2023-11-18T07:52:30.000Z</time>
</trkpt>
<trkpt lat="45.8834490" lon="9.8404270">
	<ele>1366.80</ele>
	<time>2023-11-18T07:52:31.000Z</time>
</trkpt>
<trkpt lat="45.8834560" lon="9.8404170">
	<ele>1366.80</ele>
	<time>2023-11-18T07:52:32.000Z</time>
</trkpt>
<trkpt lat="45.8834630" lon="9.8404100">
	<ele>1366.60</ele>
	<time>2023-11-18T07:52:33.000Z</time>
</trkpt>
<trkpt lat="45.8834700" lon="9.8404040">
	<ele>1366.60</ele>
	<time>2023-11-18T07:52:34.000Z</time>
</trkpt>
<trkpt lat="45.8834750" lon="9.8403930">
	<ele>1366.60</ele>
	<time>2023-11-18T07:52:35.000Z</time>
</trkpt>
<trkpt lat="45.8834780" lon="9.8403860">
	<ele>1366.60</ele>
	<time>2023-11-18T07:52:36.000Z</time>
</trkpt>
<trkpt lat="45.8834790" lon="9.8403830">
	<ele>1366.60</ele>
	<time>2023-11-18T07:52:37.000Z</time>
</trkpt>
<trkpt lat="45.8834790" lon="9.8403830">
	<ele>1366.80</ele>
	<time>2023-11-18T07:52:38.000Z</time>
</trkpt>
<trkpt lat="45.8834780" lon="9.8403830">
	<ele>1366.80</ele>
	<time>2023-11-18T07:52:39.000Z</time>
</trkpt>
<trkpt lat="45.8834790" lon="9.8403790">
	<ele>1366.80</ele>
	<time>2023-11-18T07:52:40.000Z</time>
</trkpt>
<trkpt lat="45.8834820" lon="9.8403760">
	<ele>1366.80</ele>
	<time>2023-11-18T07:52:41.000Z</time>
</trkpt>
<trkpt lat="45.8834870" lon="9.8403720">
	<ele>1366.80</ele>
	<time>2023-11-18T07:52:42.000Z</time>
</trkpt>
<trkpt lat="45.8834950" lon="9.8403680">
	<ele>1367.00</ele>
	<time>2023-11-18T07:52:43.000Z</time>
</trkpt>
<trkpt lat="45.8835050" lon="9.8403690">
	<ele>1367.00</ele>
	<time>2023-11-18T07:52:44.000Z</time>
</trkpt>
<trkpt lat="45.8835130" lon="9.8403670">
	<ele>1367.00</ele>
	<time>2023-11-18T07:52:45.000Z</time>
</trkpt>
<trkpt lat="45.8835190" lon="9.8403630">
	<ele>1367.00</ele>
	<time>2023-11-18T07:52:46.000Z</time>
</trkpt>
<trkpt lat="45.8835220" lon="9.8403590">
	<ele>1367.00</ele>
	<time>2023-11-18T07:52:47.000Z</time>
</trkpt>
<trkpt lat="45.8835220" lon="9.8403570">
	<ele>1367.00</ele>
	<time>2023-11-18T07:52:48.000Z</time>
</trkpt>
<trkpt lat="45.8835230" lon="9.8403570">
	<ele>1367.00</ele>
	<time>2023-11-18T07:52:49.000Z</time>
</trkpt>
<trkpt lat="45.8835270" lon="9.8403580">
	<ele>1367.00</ele>
	<time>2023-11-18T07:52:50.000Z</time>
</trkpt>
<trkpt lat="45.8835330" lon="9.8403540">
	<ele>1367.20</ele>
	<time>2023-11-18T07:52:51.000Z</time>
</trkpt>
<trkpt lat="45.8835370" lon="9.8403490">
	<ele>1367.20</ele>
	<time>2023-11-18T07:52:52.000Z</time>
</trkpt>
<trkpt lat="45.8835380" lon="9.8403400">
	<ele>1367.20</ele>
	<time>2023-11-18T07:52:53.000Z</time>
</trkpt>
<trkpt lat="45.8835430" lon="9.8403320">
	<ele>1367.20</ele>
	<time>2023-11-18T07:52:54.000Z</time>
</trkpt>
<trkpt lat="45.8835500" lon="9.8403220">
	<ele>1367.20</ele>
	<time>2023-11-18T07:52:55.000Z</time>
</trkpt>
<trkpt lat="45.8835550" lon="9.8403200">
	<ele>1366.80</ele>
	<time>2023-11-18T07:52:56.000Z</time>
</trkpt>
<trkpt lat="45.8835600" lon="9.8403160">
	<ele>1366.80</ele>
	<time>2023-11-18T07:52:57.000Z</time>
</trkpt>
<trkpt lat="45.8835670" lon="9.8403140">
	<ele>1366.80</ele>
	<time>2023-11-18T07:52:58.000Z</time>
</trkpt>
<trkpt lat="45.8835730" lon="9.8403100">
	<ele>1366.80</ele>
	<time>2023-11-18T07:52:59.000Z</time>
</trkpt>
<trkpt lat="45.8835820" lon="9.8403070">
	<ele>1366.80</ele>
	<time>2023-11-18T07:53:00.000Z</time>
</trkpt>
<trkpt lat="45.8835920" lon="9.8402980">
	<ele>1366.80</ele>
	<time>2023-11-18T07:53:01.000Z</time>
</trkpt>
<trkpt lat="45.8835960" lon="9.8402930">
	<ele>1366.80</ele>
	<time>2023-11-18T07:53:02.000Z</time>
</trkpt>
<trkpt lat="45.8836030" lon="9.8402870">
	<ele>1366.80</ele>
	<time>2023-11-18T07:53:03.000Z</time>
</trkpt>
<trkpt lat="45.8836120" lon="9.8402790">
	<ele>1366.80</ele>
	<time>2023-11-18T07:53:04.000Z</time>
</trkpt>
<trkpt lat="45.8836210" lon="9.8402670">
	<ele>1366.80</ele>
	<time>2023-11-18T07:53:05.000Z</time>
</trkpt>
<trkpt lat="45.8836270" lon="9.8402670">
	<ele>1366.80</ele>
	<time>2023-11-18T07:53:06.000Z</time>
</trkpt>
<trkpt lat="45.8836360" lon="9.8402650">
	<ele>1366.80</ele>
	<time>2023-11-18T07:53:07.000Z</time>
</trkpt>
<trkpt lat="45.8836490" lon="9.8402580">
	<ele>1366.80</ele>
	<time>2023-11-18T07:53:08.000Z</time>
</trkpt>
<trkpt lat="45.8836600" lon="9.8402510">
	<ele>1366.80</ele>
	<time>2023-11-18T07:53:09.000Z</time>
</trkpt>
<trkpt lat="45.8836710" lon="9.8402470">
	<ele>1366.80</ele>
	<time>2023-11-18T07:53:10.000Z</time>
</trkpt>
<trkpt lat="45.8836840" lon="9.8402420">
	<ele>1366.80</ele>
	<time>2023-11-18T07:53:11.000Z</time>
</trkpt>
<trkpt lat="45.8836980" lon="9.8402430">
	<ele>1366.80</ele>
	<time>2023-11-18T07:53:12.000Z</time>
</trkpt>
<trkpt lat="45.8837040" lon="9.8402320">
	<ele>1366.80</ele>
	<time>2023-11-18T07:53:13.000Z</time>
</trkpt>
<trkpt lat="45.8837110" lon="9.8402280">
	<ele>1366.80</ele>
	<time>2023-11-18T07:53:14.000Z</time>
</trkpt>
<trkpt lat="45.8837180" lon="9.8402230">
	<ele>1366.80</ele>
	<time>2023-11-18T07:53:15.000Z</time>
</trkpt>
<trkpt lat="45.8837280" lon="9.8402180">
	<ele>1366.60</ele>
	<time>2023-11-18T07:53:16.000Z</time>
</trkpt>
<trkpt lat="45.8837380" lon="9.8402100">
	<ele>1366.60</ele>
	<time>2023-11-18T07:53:17.000Z</time>
</trkpt>
<trkpt lat="45.8837520" lon="9.8402060">
	<ele>1366.40</ele>
	<time>2023-11-18T07:53:18.000Z</time>
</trkpt>
<trkpt lat="45.8837650" lon="9.8402000">
	<ele>1366.40</ele>
	<time>2023-11-18T07:53:19.000Z</time>
</trkpt>
<trkpt lat="45.8837820" lon="9.8401810">
	<ele>1366.60</ele>
	<time>2023-11-18T07:53:20.000Z</time>
</trkpt>
<trkpt lat="45.8837960" lon="9.8401750">
	<ele>1366.60</ele>
	<time>2023-11-18T07:53:21.000Z</time>
</trkpt>
<trkpt lat="45.8838080" lon="9.8401670">
	<ele>1366.60</ele>
	<time>2023-11-18T07:53:22.000Z</time>
</trkpt>
<trkpt lat="45.8838130" lon="9.8401620">
	<ele>1366.60</ele>
	<time>2023-11-18T07:53:23.000Z</time>
</trkpt>
<trkpt lat="45.8838180" lon="9.8401480">
	<ele>1366.80</ele>
	<time>2023-11-18T07:53:24.000Z</time>
</trkpt>
<trkpt lat="45.8838250" lon="9.8401350">
	<ele>1366.80</ele>
	<time>2023-11-18T07:53:25.000Z</time>
</trkpt>
<trkpt lat="45.8838380" lon="9.8401280">
	<ele>1366.80</ele>
	<time>2023-11-18T07:53:26.000Z</time>
</trkpt>
<trkpt lat="45.8838430" lon="9.8401290">
	<ele>1366.80</ele>
	<time>2023-11-18T07:53:27.000Z</time>
</trkpt>
<trkpt lat="45.8838470" lon="9.8401280">
	<ele>1366.80</ele>
	<time>2023-11-18T07:53:28.000Z</time>
</trkpt>
<trkpt lat="45.8838510" lon="9.8401220">
	<ele>1366.80</ele>
	<time>2023-11-18T07:53:29.000Z</time>
</trkpt>
<trkpt lat="45.8838550" lon="9.8401140">
	<ele>1366.80</ele>
	<time>2023-11-18T07:53:30.000Z</time>
</trkpt>
<trkpt lat="45.8838620" lon="9.8401030">
	<ele>1366.80</ele>
	<time>2023-11-18T07:53:31.000Z</time>
</trkpt>
<trkpt lat="45.8838700" lon="9.8400970">
	<ele>1366.80</ele>
	<time>2023-11-18T07:53:32.000Z</time>
</trkpt>
<trkpt lat="45.8838740" lon="9.8400940">
	<ele>1366.80</ele>
	<time>2023-11-18T07:53:33.000Z</time>
</trkpt>
<trkpt lat="45.8838760" lon="9.8400920">
	<ele>1366.80</ele>
	<time>2023-11-18T07:53:34.000Z</time>
</trkpt>
<trkpt lat="45.8838840" lon="9.8400880">
	<ele>1366.80</ele>
	<time>2023-11-18T07:53:35.000Z</time>
</trkpt>
<trkpt lat="45.8838900" lon="9.8400770">
	<ele>1367.00</ele>
	<time>2023-11-18T07:53:36.000Z</time>
</trkpt>
<trkpt lat="45.8838940" lon="9.8400650">
	<ele>1367.00</ele>
	<time>2023-11-18T07:53:37.000Z</time>
</trkpt>
<trkpt lat="45.8838990" lon="9.8400590">
	<ele>1367.00</ele>
	<time>2023-11-18T07:53:38.000Z</time>
</trkpt>
<trkpt lat="45.8839040" lon="9.8400520">
	<ele>1367.00</ele>
	<time>2023-11-18T07:53:39.000Z</time>
</trkpt>
<trkpt lat="45.8839060" lon="9.8400520">
	<ele>1367.20</ele>
	<time>2023-11-18T07:53:40.000Z</time>
</trkpt>
<trkpt lat="45.8839160" lon="9.8400430">
	<ele>1367.20</ele>
	<time>2023-11-18T07:53:41.000Z</time>
</trkpt>
<trkpt lat="45.8839210" lon="9.8400410">
	<ele>1367.20</ele>
	<time>2023-11-18T07:53:42.000Z</time>
</trkpt>
<trkpt lat="45.8839230" lon="9.8400360">
	<ele>1367.20</ele>
	<time>2023-11-18T07:53:43.000Z</time>
</trkpt>
<trkpt lat="45.8839360" lon="9.8400280">
	<ele>1367.20</ele>
	<time>2023-11-18T07:53:44.000Z</time>
</trkpt>
<trkpt lat="45.8839500" lon="9.8400160">
	<ele>1367.40</ele>
	<time>2023-11-18T07:53:45.000Z</time>
</trkpt>
<trkpt lat="45.8839620" lon="9.8400000">
	<ele>1367.40</ele>
	<time>2023-11-18T07:53:46.000Z</time>
</trkpt>
<trkpt lat="45.8839750" lon="9.8399870">
	<ele>1367.40</ele>
	<time>2023-11-18T07:53:47.000Z</time>
</trkpt>
<trkpt lat="45.8839880" lon="9.8399780">
	<ele>1367.60</ele>
	<time>2023-11-18T07:53:48.000Z</time>
</trkpt>
<trkpt lat="45.8840000" lon="9.8399680">
	<ele>1367.60</ele>
	<time>2023-11-18T07:53:49.000Z</time>
</trkpt>
<trkpt lat="45.8840090" lon="9.8399610">
	<ele>1367.80</ele>
	<time>2023-11-18T07:53:50.000Z</time>
</trkpt>
<trkpt lat="45.8840120" lon="9.8399600">
	<ele>1367.80</ele>
	<time>2023-11-18T07:53:51.000Z</time>
</trkpt>
<trkpt lat="45.8840140" lon="9.8399590">
	<ele>1368.00</ele>
	<time>2023-11-18T07:53:52.000Z</time>
</trkpt>
<trkpt lat="45.8840220" lon="9.8399510">
	<ele>1368.20</ele>
	<time>2023-11-18T07:53:53.000Z</time>
</trkpt>
<trkpt lat="45.8840290" lon="9.8399440">
	<ele>1368.40</ele>
	<time>2023-11-18T07:53:54.000Z</time>
</trkpt>
<trkpt lat="45.8840340" lon="9.8399380">
	<ele>1368.40</ele>
	<time>2023-11-18T07:53:55.000Z</time>
</trkpt>
<trkpt lat="45.8840410" lon="9.8399340">
	<ele>1368.60</ele>
	<time>2023-11-18T07:53:56.000Z</time>
</trkpt>
<trkpt lat="45.8840500" lon="9.8399300">
	<ele>1368.60</ele>
	<time>2023-11-18T07:53:57.000Z</time>
</trkpt>
<trkpt lat="45.8840570" lon="9.8399200">
	<ele>1368.80</ele>
	<time>2023-11-18T07:53:58.000Z</time>
</trkpt>
<trkpt lat="45.8840690" lon="9.8399150">
	<ele>1368.80</ele>
	<time>2023-11-18T07:53:59.000Z</time>
</trkpt>
<trkpt lat="45.8840820" lon="9.8399060">
	<ele>1368.80</ele>
	<time>2023-11-18T07:54:00.000Z</time>
</trkpt>
<trkpt lat="45.8840990" lon="9.8398960">
	<ele>1368.80</ele>
	<time>2023-11-18T07:54:01.000Z</time>
</trkpt>
<trkpt lat="45.8841120" lon="9.8398890">
	<ele>1369.00</ele>
	<time>2023-11-18T07:54:02.000Z</time>
</trkpt>
<trkpt lat="45.8841210" lon="9.8398790">
	<ele>1369.20</ele>
	<time>2023-11-18T07:54:03.000Z</time>
</trkpt>
<trkpt lat="45.8841250" lon="9.8398570">
	<ele>1369.20</ele>
	<time>2023-11-18T07:54:04.000Z</time>
</trkpt>
<trkpt lat="45.8841320" lon="9.8398440">
	<ele>1369.20</ele>
	<time>2023-11-18T07:54:05.000Z</time>
</trkpt>
<trkpt lat="45.8841430" lon="9.8398330">
	<ele>1369.40</ele>
	<time>2023-11-18T07:54:06.000Z</time>
</trkpt>
<trkpt lat="45.8841500" lon="9.8398270">
	<ele>1369.60</ele>
	<time>2023-11-18T07:54:07.000Z</time>
</trkpt>
<trkpt lat="45.8841590" lon="9.8398230">
	<ele>1369.80</ele>
	<time>2023-11-18T07:54:08.000Z</time>
</trkpt>
<trkpt lat="45.8841660" lon="9.8398260">
	<ele>1370.00</ele>
	<time>2023-11-18T07:54:09.000Z</time>
</trkpt>
<trkpt lat="45.8841740" lon="9.8398210">
	<ele>1370.20</ele>
	<time>2023-11-18T07:54:10.000Z</time>
</trkpt>
<trkpt lat="45.8841830" lon="9.8398170">
	<ele>1370.20</ele>
	<time>2023-11-18T07:54:11.000Z</time>
</trkpt>
<trkpt lat="45.8841920" lon="9.8398140">
	<ele>1370.40</ele>
	<time>2023-11-18T07:54:12.000Z</time>
</trkpt>
<trkpt lat="45.8841980" lon="9.8398120">
	<ele>1370.60</ele>
	<time>2023-11-18T07:54:13.000Z</time>
</trkpt>
<trkpt lat="45.8842030" lon="9.8398110">
	<ele>1370.80</ele>
	<time>2023-11-18T07:54:14.000Z</time>
</trkpt>
<trkpt lat="45.8842100" lon="9.8398100">
	<ele>1370.80</ele>
	<time>2023-11-18T07:54:15.000Z</time>
</trkpt>
<trkpt lat="45.8842130" lon="9.8398100">
	<ele>1370.80</ele>
	<time>2023-11-18T07:54:16.000Z</time>
</trkpt>
<trkpt lat="45.8842120" lon="9.8398110">
	<ele>1371.00</ele>
	<time>2023-11-18T07:54:17.000Z</time>
</trkpt>
<trkpt lat="45.8842170" lon="9.8398070">
	<ele>1371.00</ele>
	<time>2023-11-18T07:54:18.000Z</time>
</trkpt>
<trkpt lat="45.8842250" lon="9.8397850">
	<ele>1371.20</ele>
	<time>2023-11-18T07:54:19.000Z</time>
</trkpt>
<trkpt lat="45.8842320" lon="9.8397720">
	<ele>1371.20</ele>
	<time>2023-11-18T07:54:20.000Z</time>
</trkpt>
<trkpt lat="45.8842400" lon="9.8397660">
	<ele>1371.20</ele>
	<time>2023-11-18T07:54:21.000Z</time>
</trkpt>
<trkpt lat="45.8842530" lon="9.8397640">
	<ele>1371.20</ele>
	<time>2023-11-18T07:54:22.000Z</time>
</trkpt>
<trkpt lat="45.8842650" lon="9.8397620">
	<ele>1371.20</ele>
	<time>2023-11-18T07:54:23.000Z</time>
</trkpt>
<trkpt lat="45.8842770" lon="9.8397640">
	<ele>1371.20</ele>
	<time>2023-11-18T07:54:24.000Z</time>
</trkpt>
<trkpt lat="45.8842790" lon="9.8397640">
	<ele>1371.20</ele>
	<time>2023-11-18T07:54:25.000Z</time>
</trkpt>
<trkpt lat="45.8842900" lon="9.8397570">
	<ele>1371.20</ele>
	<time>2023-11-18T07:54:26.000Z</time>
</trkpt>
<trkpt lat="45.8842980" lon="9.8397510">
	<ele>1371.40</ele>
	<time>2023-11-18T07:54:27.000Z</time>
</trkpt>
<trkpt lat="45.8843070" lon="9.8397430">
	<ele>1371.40</ele>
	<time>2023-11-18T07:54:28.000Z</time>
</trkpt>
<trkpt lat="45.8843180" lon="9.8397380">
	<ele>1371.40</ele>
	<time>2023-11-18T07:54:29.000Z</time>
</trkpt>
<trkpt lat="45.8843260" lon="9.8397360">
	<ele>1371.40</ele>
	<time>2023-11-18T07:54:30.000Z</time>
</trkpt>
<trkpt lat="45.8843350" lon="9.8397330">
	<ele>1371.40</ele>
	<time>2023-11-18T07:54:31.000Z</time>
</trkpt>
<trkpt lat="45.8843400" lon="9.8397350">
	<ele>1371.40</ele>
	<time>2023-11-18T07:54:32.000Z</time>
</trkpt>
<trkpt lat="45.8843500" lon="9.8397280">
	<ele>1371.60</ele>
	<time>2023-11-18T07:54:33.000Z</time>
</trkpt>
<trkpt lat="45.8843620" lon="9.8397180">
	<ele>1371.80</ele>
	<time>2023-11-18T07:54:34.000Z</time>
</trkpt>
<trkpt lat="45.8843750" lon="9.8397030">
	<ele>1371.80</ele>
	<time>2023-11-18T07:54:35.000Z</time>
</trkpt>
<trkpt lat="45.8843770" lon="9.8397000">
	<ele>1372.00</ele>
	<time>2023-11-18T07:54:36.000Z</time>
</trkpt>
<trkpt lat="45.8843780" lon="9.8396970">
	<ele>1372.00</ele>
	<time>2023-11-18T07:54:37.000Z</time>
</trkpt>
<trkpt lat="45.8843800" lon="9.8396900">
	<ele>1372.20</ele>
	<time>2023-11-18T07:54:38.000Z</time>
</trkpt>
<trkpt lat="45.8843880" lon="9.8396860">
	<ele>1372.40</ele>
	<time>2023-11-18T07:54:39.000Z</time>
</trkpt>
<trkpt lat="45.8844010" lon="9.8396870">
	<ele>1372.40</ele>
	<time>2023-11-18T07:54:40.000Z</time>
</trkpt>
<trkpt lat="45.8844170" lon="9.8396830">
	<ele>1372.60</ele>
	<time>2023-11-18T07:54:41.000Z</time>
</trkpt>
<trkpt lat="45.8844310" lon="9.8396800">
	<ele>1372.60</ele>
	<time>2023-11-18T07:54:42.000Z</time>
</trkpt>
<trkpt lat="45.8844430" lon="9.8396770">
	<ele>1372.60</ele>
	<time>2023-11-18T07:54:43.000Z</time>
</trkpt>
<trkpt lat="45.8844520" lon="9.8396670">
	<ele>1372.60</ele>
	<time>2023-11-18T07:54:44.000Z</time>
</trkpt>
<trkpt lat="45.8844620" lon="9.8396580">
	<ele>1372.60</ele>
	<time>2023-11-18T07:54:45.000Z</time>
</trkpt>
<trkpt lat="45.8844710" lon="9.8396500">
	<ele>1372.80</ele>
	<time>2023-11-18T07:54:46.000Z</time>
</trkpt>
<trkpt lat="45.8844790" lon="9.8396470">
	<ele>1372.80</ele>
	<time>2023-11-18T07:54:47.000Z</time>
</trkpt>
<trkpt lat="45.8844900" lon="9.8396440">
	<ele>1373.00</ele>
	<time>2023-11-18T07:54:48.000Z</time>
</trkpt>
<trkpt lat="45.8844980" lon="9.8396400">
	<ele>1373.00</ele>
	<time>2023-11-18T07:54:49.000Z</time>
</trkpt>
<trkpt lat="45.8845020" lon="9.8396320">
	<ele>1373.00</ele>
	<time>2023-11-18T07:54:50.000Z</time>
</trkpt>
<trkpt lat="45.8845040" lon="9.8396220">
	<ele>1373.20</ele>
	<time>2023-11-18T07:54:51.000Z</time>
</trkpt>
<trkpt lat="45.8845060" lon="9.8396180">
	<ele>1373.20</ele>
	<time>2023-11-18T07:54:52.000Z</time>
</trkpt>
<trkpt lat="45.8845100" lon="9.8396100">
	<ele>1373.40</ele>
	<time>2023-11-18T07:54:53.000Z</time>
</trkpt>
<trkpt lat="45.8845120" lon="9.8396060">
	<ele>1373.40</ele>
	<time>2023-11-18T07:54:54.000Z</time>
</trkpt>
<trkpt lat="45.8845140" lon="9.8396030">
	<ele>1373.60</ele>
	<time>2023-11-18T07:54:55.000Z</time>
</trkpt>
<trkpt lat="45.8845140" lon="9.8396040">
	<ele>1373.80</ele>
	<time>2023-11-18T07:54:56.000Z</time>
</trkpt>
<trkpt lat="45.8845230" lon="9.8395820">
	<ele>1373.80</ele>
	<time>2023-11-18T07:54:57.000Z</time>
</trkpt>
<trkpt lat="45.8845350" lon="9.8395740">
	<ele>1373.80</ele>
	<time>2023-11-18T07:54:58.000Z</time>
</trkpt>
<trkpt lat="45.8845520" lon="9.8395620">
	<ele>1374.00</ele>
	<time>2023-11-18T07:54:59.000Z</time>
</trkpt>
<trkpt lat="45.8845700" lon="9.8395560">
	<ele>1374.00</ele>
	<time>2023-11-18T07:55:00.000Z</time>
</trkpt>
<trkpt lat="45.8845810" lon="9.8395480">
	<ele>1374.00</ele>
	<time>2023-11-18T07:55:01.000Z</time>
</trkpt>
<trkpt lat="45.8845950" lon="9.8395310">
	<ele>1374.00</ele>
	<time>2023-11-18T07:55:02.000Z</time>
</trkpt>
<trkpt lat="45.8846070" lon="9.8395130">
	<ele>1374.00</ele>
	<time>2023-11-18T07:55:03.000Z</time>
</trkpt>
<trkpt lat="45.8846200" lon="9.8394980">
	<ele>1374.00</ele>
	<time>2023-11-18T07:55:04.000Z</time>
</trkpt>
<trkpt lat="45.8846320" lon="9.8394870">
	<ele>1374.20</ele>
	<time>2023-11-18T07:55:05.000Z</time>
</trkpt>
<trkpt lat="45.8846400" lon="9.8394770">
	<ele>1374.20</ele>
	<time>2023-11-18T07:55:06.000Z</time>
</trkpt>
<trkpt lat="45.8846500" lon="9.8394690">
	<ele>1374.20</ele>
	<time>2023-11-18T07:55:07.000Z</time>
</trkpt>
<trkpt lat="45.8846590" lon="9.8394570">
	<ele>1374.20</ele>
	<time>2023-11-18T07:55:08.000Z</time>
</trkpt>
<trkpt lat="45.8846650" lon="9.8394520">
	<ele>1374.20</ele>
	<time>2023-11-18T07:55:09.000Z</time>
</trkpt>
<trkpt lat="45.8846640" lon="9.8394450">
	<ele>1374.40</ele>
	<time>2023-11-18T07:55:10.000Z</time>
</trkpt>
<trkpt lat="45.8846690" lon="9.8394350">
	<ele>1374.40</ele>
	<time>2023-11-18T07:55:11.000Z</time>
</trkpt>
<trkpt lat="45.8846750" lon="9.8394260">
	<ele>1374.40</ele>
	<time>2023-11-18T07:55:12.000Z</time>
</trkpt>
<trkpt lat="45.8846880" lon="9.8394230">
	<ele>1374.40</ele>
	<time>2023-11-18T07:55:13.000Z</time>
</trkpt>
<trkpt lat="45.8847060" lon="9.8394240">
	<ele>1374.40</ele>
	<time>2023-11-18T07:55:14.000Z</time>
</trkpt>
<trkpt lat="45.8847190" lon="9.8394260">
	<ele>1374.40</ele>
	<time>2023-11-18T07:55:15.000Z</time>
</trkpt>
<trkpt lat="45.8847240" lon="9.8394240">
	<ele>1374.40</ele>
	<time>2023-11-18T07:55:16.000Z</time>
</trkpt>
<trkpt lat="45.8847330" lon="9.8394240">
	<ele>1374.40</ele>
	<time>2023-11-18T07:55:17.000Z</time>
</trkpt>
<trkpt lat="45.8847360" lon="9.8394270">
	<ele>1374.40</ele>
	<time>2023-11-18T07:55:18.000Z</time>
</trkpt>
<trkpt lat="45.8847370" lon="9.8394240">
	<ele>1374.40</ele>
	<time>2023-11-18T07:55:19.000Z</time>
</trkpt>
<trkpt lat="45.8847390" lon="9.8394160">
	<ele>1374.40</ele>
	<time>2023-11-18T07:55:20.000Z</time>
</trkpt>
<trkpt lat="45.8847490" lon="9.8394130">
	<ele>1374.40</ele>
	<time>2023-11-18T07:55:21.000Z</time>
</trkpt>
<trkpt lat="45.8847640" lon="9.8394110">
	<ele>1374.40</ele>
	<time>2023-11-18T07:55:22.000Z</time>
</trkpt>
<trkpt lat="45.8847680" lon="9.8394100">
	<ele>1374.60</ele>
	<time>2023-11-18T07:55:23.000Z</time>
</trkpt>
<trkpt lat="45.8847700" lon="9.8394080">
	<ele>1374.60</ele>
	<time>2023-11-18T07:55:24.000Z</time>
</trkpt>
<trkpt lat="45.8847720" lon="9.8394090">
	<ele>1374.80</ele>
	<time>2023-11-18T07:55:25.000Z</time>
</trkpt>
<trkpt lat="45.8847760" lon="9.8394150">
	<ele>1374.80</ele>
	<time>2023-11-18T07:55:26.000Z</time>
</trkpt>
<trkpt lat="45.8847760" lon="9.8394210">
	<ele>1374.80</ele>
	<time>2023-11-18T07:55:27.000Z</time>
</trkpt>
<trkpt lat="45.8847770" lon="9.8394230">
	<ele>1374.80</ele>
	<time>2023-11-18T07:55:28.000Z</time>
</trkpt>
<trkpt lat="45.8847770" lon="9.8394210">
	<ele>1374.80</ele>
	<time>2023-11-18T07:55:29.000Z</time>
</trkpt>
<trkpt lat="45.8847780" lon="9.8394150">
	<ele>1374.80</ele>
	<time>2023-11-18T07:55:30.000Z</time>
</trkpt>
<trkpt lat="45.8847790" lon="9.8394110">
	<ele>1374.80</ele>
	<time>2023-11-18T07:55:31.000Z</time>
</trkpt>
<trkpt lat="45.8847790" lon="9.8394060">
	<ele>1375.00</ele>
	<time>2023-11-18T07:55:32.000Z</time>
</trkpt>
<trkpt lat="45.8847810" lon="9.8394030">
	<ele>1375.00</ele>
	<time>2023-11-18T07:55:33.000Z</time>
</trkpt>
<trkpt lat="45.8847860" lon="9.8394050">
	<ele>1375.00</ele>
	<time>2023-11-18T07:55:34.000Z</time>
</trkpt>
<trkpt lat="45.8847910" lon="9.8394080">
	<ele>1375.00</ele>
	<time>2023-11-18T07:55:35.000Z</time>
</trkpt>
<trkpt lat="45.8847950" lon="9.8394030">
	<ele>1375.00</ele>
	<time>2023-11-18T07:55:36.000Z</time>
</trkpt>
<trkpt lat="45.8847980" lon="9.8394000">
	<ele>1375.00</ele>
	<time>2023-11-18T07:55:37.000Z</time>
</trkpt>
<trkpt lat="45.8848120" lon="9.8393950">
	<ele>1375.20</ele>
	<time>2023-11-18T07:55:38.000Z</time>
</trkpt>
<trkpt lat="45.8848210" lon="9.8393900">
	<ele>1375.20</ele>
	<time>2023-11-18T07:55:39.000Z</time>
</trkpt>
<trkpt lat="45.8848300" lon="9.8393830">
	<ele>1375.20</ele>
	<time>2023-11-18T07:55:40.000Z</time>
</trkpt>
<trkpt lat="45.8848440" lon="9.8393710">
	<ele>1375.20</ele>
	<time>2023-11-18T07:55:41.000Z</time>
</trkpt>
<trkpt lat="45.8848520" lon="9.8393640">
	<ele>1375.40</ele>
	<time>2023-11-18T07:55:42.000Z</time>
</trkpt>
<trkpt lat="45.8848610" lon="9.8393600">
	<ele>1375.40</ele>
	<time>2023-11-18T07:55:43.000Z</time>
</trkpt>
<trkpt lat="45.8848700" lon="9.8393550">
	<ele>1375.60</ele>
	<time>2023-11-18T07:55:44.000Z</time>
</trkpt>
<trkpt lat="45.8848810" lon="9.8393450">
	<ele>1375.60</ele>
	<time>2023-11-18T07:55:45.000Z</time>
</trkpt>
<trkpt lat="45.8848970" lon="9.8393380">
	<ele>1375.80</ele>
	<time>2023-11-18T07:55:46.000Z</time>
</trkpt>
<trkpt lat="45.8849090" lon="9.8393300">
	<ele>1375.80</ele>
	<time>2023-11-18T07:55:47.000Z</time>
</trkpt>
<trkpt lat="45.8849180" lon="9.8393210">
	<ele>1376.00</ele>
	<time>2023-11-18T07:55:48.000Z</time>
</trkpt>
<trkpt lat="45.8849290" lon="9.8393100">
	<ele>1376.20</ele>
	<time>2023-11-18T07:55:49.000Z</time>
</trkpt>
<trkpt lat="45.8849430" lon="9.8393050">
	<ele>1376.40</ele>
	<time>2023-11-18T07:55:50.000Z</time>
</trkpt>
<trkpt lat="45.8849560" lon="9.8393020">
	<ele>1376.40</ele>
	<time>2023-11-18T07:55:51.000Z</time>
</trkpt>
<trkpt lat="45.8849700" lon="9.8393000">
	<ele>1376.40</ele>
	<time>2023-11-18T07:55:52.000Z</time>
</trkpt>
<trkpt lat="45.8849820" lon="9.8392940">
	<ele>1376.60</ele>
	<time>2023-11-18T07:55:53.000Z</time>
</trkpt>
<trkpt lat="45.8849910" lon="9.8392930">
	<ele>1376.60</ele>
	<time>2023-11-18T07:55:54.000Z</time>
</trkpt>
<trkpt lat="45.8850030" lon="9.8392930">
	<ele>1376.80</ele>
	<time>2023-11-18T07:55:55.000Z</time>
</trkpt>
<trkpt lat="45.8850130" lon="9.8392800">
	<ele>1377.00</ele>
	<time>2023-11-18T07:55:56.000Z</time>
</trkpt>
<trkpt lat="45.8850210" lon="9.8392680">
	<ele>1377.00</ele>
	<time>2023-11-18T07:55:57.000Z</time>
</trkpt>
<trkpt lat="45.8850310" lon="9.8392540">
	<ele>1377.00</ele>
	<time>2023-11-18T07:55:58.000Z</time>
</trkpt>
<trkpt lat="45.8850430" lon="9.8392490">
	<ele>1377.00</ele>
	<time>2023-11-18T07:55:59.000Z</time>
</trkpt>
<trkpt lat="45.8850540" lon="9.8392580">
	<ele>1377.20</ele>
	<time>2023-11-18T07:56:00.000Z</time>
</trkpt>
<trkpt lat="45.8850590" lon="9.8392610">
	<ele>1377.20</ele>
	<time>2023-11-18T07:56:01.000Z</time>
</trkpt>
<trkpt lat="45.8850630" lon="9.8392650">
	<ele>1377.20</ele>
	<time>2023-11-18T07:56:02.000Z</time>
</trkpt>
<trkpt lat="45.8850710" lon="9.8392690">
	<ele>1377.20</ele>
	<time>2023-11-18T07:56:03.000Z</time>
</trkpt>
<trkpt lat="45.8850800" lon="9.8392680">
	<ele>1377.20</ele>
	<time>2023-11-18T07:56:04.000Z</time>
</trkpt>
<trkpt lat="45.8850870" lon="9.8392600">
	<ele>1377.20</ele>
	<time>2023-11-18T07:56:05.000Z</time>
</trkpt>
<trkpt lat="45.8850940" lon="9.8392460">
	<ele>1377.20</ele>
	<time>2023-11-18T07:56:06.000Z</time>
</trkpt>
<trkpt lat="45.8851060" lon="9.8392400">
	<ele>1377.20</ele>
	<time>2023-11-18T07:56:07.000Z</time>
</trkpt>
<trkpt lat="45.8851150" lon="9.8392280">
	<ele>1377.40</ele>
	<time>2023-11-18T07:56:08.000Z</time>
</trkpt>
<trkpt lat="45.8851270" lon="9.8392150">
	<ele>1377.40</ele>
	<time>2023-11-18T07:56:09.000Z</time>
</trkpt>
<trkpt lat="45.8851360" lon="9.8391920">
	<ele>1377.40</ele>
	<time>2023-11-18T07:56:10.000Z</time>
</trkpt>
<trkpt lat="45.8851490" lon="9.8391880">
	<ele>1377.60</ele>
	<time>2023-11-18T07:56:11.000Z</time>
</trkpt>
<trkpt lat="45.8851520" lon="9.8391880">
	<ele>1377.60</ele>
	<time>2023-11-18T07:56:12.000Z</time>
</trkpt>
<trkpt lat="45.8851600" lon="9.8391900">
	<ele>1377.80</ele>
	<time>2023-11-18T07:56:13.000Z</time>
</trkpt>
<trkpt lat="45.8851640" lon="9.8391930">
	<ele>1377.80</ele>
	<time>2023-11-18T07:56:14.000Z</time>
</trkpt>
<trkpt lat="45.8851680" lon="9.8392010">
	<ele>1377.80</ele>
	<time>2023-11-18T07:56:15.000Z</time>
</trkpt>
<trkpt lat="45.8851670" lon="9.8392040">
	<ele>1377.80</ele>
	<time>2023-11-18T07:56:16.000Z</time>
</trkpt>
<trkpt lat="45.8851700" lon="9.8392030">
	<ele>1377.80</ele>
	<time>2023-11-18T07:56:17.000Z</time>
</trkpt>
<trkpt lat="45.8851780" lon="9.8392010">
	<ele>1377.80</ele>
	<time>2023-11-18T07:56:18.000Z</time>
</trkpt>
<trkpt lat="45.8851900" lon="9.8392020">
	<ele>1377.80</ele>
	<time>2023-11-18T07:56:19.000Z</time>
</trkpt>
<trkpt lat="45.8852010" lon="9.8392020">
	<ele>1377.80</ele>
	<time>2023-11-18T07:56:20.000Z</time>
</trkpt>
<trkpt lat="45.8852110" lon="9.8392060">
	<ele>1377.80</ele>
	<time>2023-11-18T07:56:21.000Z</time>
</trkpt>
<trkpt lat="45.8852240" lon="9.8392070">
	<ele>1378.00</ele>
	<time>2023-11-18T07:56:22.000Z</time>
</trkpt>
<trkpt lat="45.8852380" lon="9.8392110">
	<ele>1378.00</ele>
	<time>2023-11-18T07:56:23.000Z</time>
</trkpt>
<trkpt lat="45.8852490" lon="9.8392070">
	<ele>1378.00</ele>
	<time>2023-11-18T07:56:24.000Z</time>
</trkpt>
<trkpt lat="45.8852630" lon="9.8391950">
	<ele>1378.00</ele>
	<time>2023-11-18T07:56:25.000Z</time>
</trkpt>
<trkpt lat="45.8852680" lon="9.8391930">
	<ele>1378.00</ele>
	<time>2023-11-18T07:56:26.000Z</time>
</trkpt>
<trkpt lat="45.8852690" lon="9.8391900">
	<ele>1378.00</ele>
	<time>2023-11-18T07:56:27.000Z</time>
</trkpt>
<trkpt lat="45.8852690" lon="9.8391900">
	<ele>1378.00</ele>
	<time>2023-11-18T07:56:28.000Z</time>
</trkpt>
<trkpt lat="45.8852730" lon="9.8391860">
	<ele>1378.20</ele>
	<time>2023-11-18T07:56:29.000Z</time>
</trkpt>
<trkpt lat="45.8852700" lon="9.8391780">
	<ele>1378.20</ele>
	<time>2023-11-18T07:56:30.000Z</time>
</trkpt>
<trkpt lat="45.8852680" lon="9.8391710">
	<ele>1378.20</ele>
	<time>2023-11-18T07:56:31.000Z</time>
</trkpt>
<trkpt lat="45.8852730" lon="9.8391660">
	<ele>1378.40</ele>
	<time>2023-11-18T07:56:32.000Z</time>
</trkpt>
<trkpt lat="45.8852780" lon="9.8391640">
	<ele>1378.60</ele>
	<time>2023-11-18T07:56:33.000Z</time>
</trkpt>
<trkpt lat="45.8852840" lon="9.8391640">
	<ele>1378.60</ele>
	<time>2023-11-18T07:56:34.000Z</time>
</trkpt>
<trkpt lat="45.8852950" lon="9.8391630">
	<ele>1378.80</ele>
	<time>2023-11-18T07:56:35.000Z</time>
</trkpt>
<trkpt lat="45.8853040" lon="9.8391640">
	<ele>1379.00</ele>
	<time>2023-11-18T07:56:36.000Z</time>
</trkpt>
<trkpt lat="45.8853110" lon="9.8391650">
	<ele>1379.20</ele>
	<time>2023-11-18T07:56:37.000Z</time>
</trkpt>
<trkpt lat="45.8853190" lon="9.8391600">
	<ele>1379.20</ele>
	<time>2023-11-18T07:56:38.000Z</time>
</trkpt>
<trkpt lat="45.8853270" lon="9.8391550">
	<ele>1379.20</ele>
	<time>2023-11-18T07:56:39.000Z</time>
</trkpt>
<trkpt lat="45.8853380" lon="9.8391490">
	<ele>1379.40</ele>
	<time>2023-11-18T07:56:40.000Z</time>
</trkpt>
<trkpt lat="45.8853460" lon="9.8391390">
	<ele>1379.40</ele>
	<time>2023-11-18T07:56:41.000Z</time>
</trkpt>
<trkpt lat="45.8853550" lon="9.8391270">
	<ele>1379.40</ele>
	<time>2023-11-18T07:56:42.000Z</time>
</trkpt>
<trkpt lat="45.8853640" lon="9.8391220">
	<ele>1379.40</ele>
	<time>2023-11-18T07:56:43.000Z</time>
</trkpt>
<trkpt lat="45.8853750" lon="9.8391150">
	<ele>1379.60</ele>
	<time>2023-11-18T07:56:44.000Z</time>
</trkpt>
<trkpt lat="45.8853890" lon="9.8391070">
	<ele>1379.60</ele>
	<time>2023-11-18T07:56:45.000Z</time>
</trkpt>
<trkpt lat="45.8853990" lon="9.8390990">
	<ele>1379.80</ele>
	<time>2023-11-18T07:56:46.000Z</time>
</trkpt>
<trkpt lat="45.8854040" lon="9.8390950">
	<ele>1379.80</ele>
	<time>2023-11-18T07:56:47.000Z</time>
</trkpt>
<trkpt lat="45.8854140" lon="9.8390930">
	<ele>1380.00</ele>
	<time>2023-11-18T07:56:48.000Z</time>
</trkpt>
<trkpt lat="45.8854230" lon="9.8390930">
	<ele>1380.00</ele>
	<time>2023-11-18T07:56:49.000Z</time>
</trkpt>
<trkpt lat="45.8854270" lon="9.8390930">
	<ele>1380.20</ele>
	<time>2023-11-18T07:56:50.000Z</time>
</trkpt>
<trkpt lat="45.8854350" lon="9.8390880">
	<ele>1380.40</ele>
	<time>2023-11-18T07:56:51.000Z</time>
</trkpt>
<trkpt lat="45.8854470" lon="9.8390830">
	<ele>1380.40</ele>
	<time>2023-11-18T07:56:52.000Z</time>
</trkpt>
<trkpt lat="45.8854550" lon="9.8390800">
	<ele>1380.60</ele>
	<time>2023-11-18T07:56:53.000Z</time>
</trkpt>
<trkpt lat="45.8854630" lon="9.8390850">
	<ele>1380.60</ele>
	<time>2023-11-18T07:56:54.000Z</time>
</trkpt>
<trkpt lat="45.8854700" lon="9.8390920">
	<ele>1380.80</ele>
	<time>2023-11-18T07:56:55.000Z</time>
</trkpt>
<trkpt lat="45.8854790" lon="9.8390960">
	<ele>1380.80</ele>
	<time>2023-11-18T07:56:56.000Z</time>
</trkpt>
<trkpt lat="45.8854870" lon="9.8390960">
	<ele>1381.00</ele>
	<time>2023-11-18T07:56:57.000Z</time>
</trkpt>
<trkpt lat="45.8854920" lon="9.8390970">
	<ele>1381.00</ele>
	<time>2023-11-18T07:56:58.000Z</time>
</trkpt>
<trkpt lat="45.8854970" lon="9.8390950">
	<ele>1381.20</ele>
	<time>2023-11-18T07:56:59.000Z</time>
</trkpt>
<trkpt lat="45.8855100" lon="9.8390770">
	<ele>1381.20</ele>
	<time>2023-11-18T07:57:00.000Z</time>
</trkpt>
<trkpt lat="45.8855230" lon="9.8390670">
	<ele>1381.20</ele>
	<time>2023-11-18T07:57:01.000Z</time>
</trkpt>
<trkpt lat="45.8855330" lon="9.8390640">
	<ele>1381.20</ele>
	<time>2023-11-18T07:57:02.000Z</time>
</trkpt>
<trkpt lat="45.8855420" lon="9.8390560">
	<ele>1381.40</ele>
	<time>2023-11-18T07:57:03.000Z</time>
</trkpt>
<trkpt lat="45.8855500" lon="9.8390540">
	<ele>1381.40</ele>
	<time>2023-11-18T07:57:04.000Z</time>
</trkpt>
<trkpt lat="45.8855550" lon="9.8390530">
	<ele>1381.40</ele>
	<time>2023-11-18T07:57:05.000Z</time>
</trkpt>
<trkpt lat="45.8855600" lon="9.8390560">
	<ele>1381.40</ele>
	<time>2023-11-18T07:57:06.000Z</time>
</trkpt>
<trkpt lat="45.8855710" lon="9.8390620">
	<ele>1381.40</ele>
	<time>2023-11-18T07:57:07.000Z</time>
</trkpt>
<trkpt lat="45.8855780" lon="9.8390650">
	<ele>1381.40</ele>
	<time>2023-11-18T07:57:08.000Z</time>
</trkpt>
<trkpt lat="45.8855850" lon="9.8390630">
	<ele>1381.40</ele>
	<time>2023-11-18T07:57:09.000Z</time>
</trkpt>
<trkpt lat="45.8855920" lon="9.8390590">
	<ele>1381.40</ele>
	<time>2023-11-18T07:57:10.000Z</time>
</trkpt>
<trkpt lat="45.8856010" lon="9.8390570">
	<ele>1381.40</ele>
	<time>2023-11-18T07:57:11.000Z</time>
</trkpt>
<trkpt lat="45.8856110" lon="9.8390540">
	<ele>1381.40</ele>
	<time>2023-11-18T07:57:12.000Z</time>
</trkpt>
<trkpt lat="45.8856200" lon="9.8390520">
	<ele>1381.40</ele>
	<time>2023-11-18T07:57:13.000Z</time>
</trkpt>
<trkpt lat="45.8856330" lon="9.8390500">
	<ele>1381.40</ele>
	<time>2023-11-18T07:57:14.000Z</time>
</trkpt>
<trkpt lat="45.8856470" lon="9.8390450">
	<ele>1381.40</ele>
	<time>2023-11-18T07:57:15.000Z</time>
</trkpt>
<trkpt lat="45.8856610" lon="9.8390400">
	<ele>1381.40</ele>
	<time>2023-11-18T07:57:16.000Z</time>
</trkpt>
<trkpt lat="45.8856770" lon="9.8390370">
	<ele>1381.40</ele>
	<time>2023-11-18T07:57:17.000Z</time>
</trkpt>
<trkpt lat="45.8856910" lon="9.8390340">
	<ele>1381.40</ele>
	<time>2023-11-18T07:57:18.000Z</time>
</trkpt>
<trkpt lat="45.8857070" lon="9.8390330">
	<ele>1381.40</ele>
	<time>2023-11-18T07:57:19.000Z</time>
</trkpt>
<trkpt lat="45.8857200" lon="9.8390360">
	<ele>1381.40</ele>
	<time>2023-11-18T07:57:20.000Z</time>
</trkpt>
<trkpt lat="45.8857240" lon="9.8390410">
	<ele>1381.40</ele>
	<time>2023-11-18T07:57:21.000Z</time>
</trkpt>
<trkpt lat="45.8857290" lon="9.8390400">
	<ele>1381.40</ele>
	<time>2023-11-18T07:57:22.000Z</time>
</trkpt>
<trkpt lat="45.8857360" lon="9.8390340">
	<ele>1381.40</ele>
	<time>2023-11-18T07:57:23.000Z</time>
</trkpt>
<trkpt lat="45.8857460" lon="9.8390370">
	<ele>1381.40</ele>
	<time>2023-11-18T07:57:24.000Z</time>
</trkpt>
<trkpt lat="45.8857570" lon="9.8390390">
	<ele>1381.40</ele>
	<time>2023-11-18T07:57:25.000Z</time>
</trkpt>
<trkpt lat="45.8857660" lon="9.8390390">
	<ele>1381.40</ele>
	<time>2023-11-18T07:57:26.000Z</time>
</trkpt>
<trkpt lat="45.8857760" lon="9.8390390">
	<ele>1381.60</ele>
	<time>2023-11-18T07:57:27.000Z</time>
</trkpt>
<trkpt lat="45.8857860" lon="9.8390450">
	<ele>1381.60</ele>
	<time>2023-11-18T07:57:28.000Z</time>
</trkpt>
<trkpt lat="45.8857960" lon="9.8390530">
	<ele>1381.60</ele>
	<time>2023-11-18T07:57:29.000Z</time>
</trkpt>
<trkpt lat="45.8858090" lon="9.8390600">
	<ele>1381.40</ele>
	<time>2023-11-18T07:57:30.000Z</time>
</trkpt>
<trkpt lat="45.8858130" lon="9.8390630">
	<ele>1381.40</ele>
	<time>2023-11-18T07:57:31.000Z</time>
</trkpt>
<trkpt lat="45.8858240" lon="9.8390680">
	<ele>1381.40</ele>
	<time>2023-11-18T07:57:32.000Z</time>
</trkpt>
<trkpt lat="45.8858370" lon="9.8390670">
	<ele>1381.40</ele>
	<time>2023-11-18T07:57:33.000Z</time>
</trkpt>
<trkpt lat="45.8858500" lon="9.8390630">
	<ele>1381.40</ele>
	<time>2023-11-18T07:57:34.000Z</time>
</trkpt>
<trkpt lat="45.8858630" lon="9.8390640">
	<ele>1381.40</ele>
	<time>2023-11-18T07:57:35.000Z</time>
</trkpt>
<trkpt lat="45.8858740" lon="9.8390670">
	<ele>1381.60</ele>
	<time>2023-11-18T07:57:36.000Z</time>
</trkpt>
<trkpt lat="45.8858790" lon="9.8390650">
	<ele>1381.60</ele>
	<time>2023-11-18T07:57:37.000Z</time>
</trkpt>
<trkpt lat="45.8858860" lon="9.8390680">
	<ele>1381.60</ele>
	<time>2023-11-18T07:57:38.000Z</time>
</trkpt>
<trkpt lat="45.8858940" lon="9.8390730">
	<ele>1381.80</ele>
	<time>2023-11-18T07:57:39.000Z</time>
</trkpt>
<trkpt lat="45.8859020" lon="9.8390720">
	<ele>1381.80</ele>
	<time>2023-11-18T07:57:40.000Z</time>
</trkpt>
<trkpt lat="45.8859110" lon="9.8390710">
	<ele>1381.80</ele>
	<time>2023-11-18T07:57:41.000Z</time>
</trkpt>
<trkpt lat="45.8859150" lon="9.8390680">
	<ele>1381.80</ele>
	<time>2023-11-18T07:57:42.000Z</time>
</trkpt>
<trkpt lat="45.8859250" lon="9.8390750">
	<ele>1381.80</ele>
	<time>2023-11-18T07:57:43.000Z</time>
</trkpt>
<trkpt lat="45.8859340" lon="9.8390840">
	<ele>1381.80</ele>
	<time>2023-11-18T07:57:44.000Z</time>
</trkpt>
<trkpt lat="45.8859380" lon="9.8390820">
	<ele>1382.00</ele>
	<time>2023-11-18T07:57:45.000Z</time>
</trkpt>
<trkpt lat="45.8859530" lon="9.8390770">
	<ele>1382.20</ele>
	<time>2023-11-18T07:57:46.000Z</time>
</trkpt>
<trkpt lat="45.8859650" lon="9.8390700">
	<ele>1382.40</ele>
	<time>2023-11-18T07:57:47.000Z</time>
</trkpt>
<trkpt lat="45.8859830" lon="9.8390630">
	<ele>1382.40</ele>
	<time>2023-11-18T07:57:48.000Z</time>
</trkpt>
<trkpt lat="45.8859880" lon="9.8390650">
	<ele>1382.40</ele>
	<time>2023-11-18T07:57:49.000Z</time>
</trkpt>
<trkpt lat="45.8859900" lon="9.8390680">
	<ele>1382.60</ele>
	<time>2023-11-18T07:57:50.000Z</time>
</trkpt>
<trkpt lat="45.8860020" lon="9.8390720">
	<ele>1382.60</ele>
	<time>2023-11-18T07:57:51.000Z</time>
</trkpt>
<trkpt lat="45.8860150" lon="9.8390730">
	<ele>1382.60</ele>
	<time>2023-11-18T07:57:52.000Z</time>
</trkpt>
<trkpt lat="45.8860230" lon="9.8390740">
	<ele>1382.60</ele>
	<time>2023-11-18T07:57:53.000Z</time>
</trkpt>
<trkpt lat="45.8860280" lon="9.8390750">
	<ele>1382.60</ele>
	<time>2023-11-18T07:57:54.000Z</time>
</trkpt>
<trkpt lat="45.8860310" lon="9.8390770">
	<ele>1382.60</ele>
	<time>2023-11-18T07:57:55.000Z</time>
</trkpt>
<trkpt lat="45.8860390" lon="9.8390750">
	<ele>1382.60</ele>
	<time>2023-11-18T07:57:56.000Z</time>
</trkpt>
<trkpt lat="45.8860500" lon="9.8390760">
	<ele>1382.80</ele>
	<time>2023-11-18T07:57:57.000Z</time>
</trkpt>
<trkpt lat="45.8860600" lon="9.8390770">
	<ele>1382.80</ele>
	<time>2023-11-18T07:57:58.000Z</time>
</trkpt>
<trkpt lat="45.8860710" lon="9.8390810">
	<ele>1382.80</ele>
	<time>2023-11-18T07:57:59.000Z</time>
</trkpt>
<trkpt lat="45.8860810" lon="9.8390880">
	<ele>1382.80</ele>
	<time>2023-11-18T07:58:00.000Z</time>
</trkpt>
<trkpt lat="45.8860900" lon="9.8390960">
	<ele>1383.00</ele>
	<time>2023-11-18T07:58:01.000Z</time>
</trkpt>
<trkpt lat="45.8860990" lon="9.8391050">
	<ele>1383.20</ele>
	<time>2023-11-18T07:58:02.000Z</time>
</trkpt>
<trkpt lat="45.8861110" lon="9.8391070">
	<ele>1383.40</ele>
	<time>2023-11-18T07:58:03.000Z</time>
</trkpt>
<trkpt lat="45.8861200" lon="9.8391080">
	<ele>1383.60</ele>
	<time>2023-11-18T07:58:04.000Z</time>
</trkpt>
<trkpt lat="45.8861290" lon="9.8391090">
	<ele>1383.60</ele>
	<time>2023-11-18T07:58:05.000Z</time>
</trkpt>
<trkpt lat="45.8861370" lon="9.8391140">
	<ele>1383.60</ele>
	<time>2023-11-18T07:58:06.000Z</time>
</trkpt>
<trkpt lat="45.8861450" lon="9.8391140">
	<ele>1383.80</ele>
	<time>2023-11-18T07:58:07.000Z</time>
</trkpt>
<trkpt lat="45.8861560" lon="9.8391070">
	<ele>1384.00</ele>
	<time>2023-11-18T07:58:08.000Z</time>
</trkpt>
<trkpt lat="45.8861710" lon="9.8391030">
	<ele>1384.20</ele>
	<time>2023-11-18T07:58:09.000Z</time>
</trkpt>
<trkpt lat="45.8861820" lon="9.8391070">
	<ele>1384.20</ele>
	<time>2023-11-18T07:58:10.000Z</time>
</trkpt>
<trkpt lat="45.8861880" lon="9.8391120">
	<ele>1384.40</ele>
	<time>2023-11-18T07:58:11.000Z</time>
</trkpt>
<trkpt lat="45.8861930" lon="9.8391160">
	<ele>1384.60</ele>
	<time>2023-11-18T07:58:12.000Z</time>
</trkpt>
<trkpt lat="45.8861970" lon="9.8391170">
	<ele>1384.60</ele>
	<time>2023-11-18T07:58:13.000Z</time>
</trkpt>
<trkpt lat="45.8861990" lon="9.8391180">
	<ele>1385.00</ele>
	<time>2023-11-18T07:58:14.000Z</time>
</trkpt>
<trkpt lat="45.8862030" lon="9.8391190">
	<ele>1385.20</ele>
	<time>2023-11-18T07:58:15.000Z</time>
</trkpt>
<trkpt lat="45.8862170" lon="9.8391130">
	<ele>1385.40</ele>
	<time>2023-11-18T07:58:16.000Z</time>
</trkpt>
<trkpt lat="45.8862340" lon="9.8391120">
	<ele>1385.60</ele>
	<time>2023-11-18T07:58:17.000Z</time>
</trkpt>
<trkpt lat="45.8862430" lon="9.8391130">
	<ele>1385.80</ele>
	<time>2023-11-18T07:58:18.000Z</time>
</trkpt>
<trkpt lat="45.8862500" lon="9.8391150">
	<ele>1386.00</ele>
	<time>2023-11-18T07:58:19.000Z</time>
</trkpt>
<trkpt lat="45.8862550" lon="9.8391170">
	<ele>1386.20</ele>
	<time>2023-11-18T07:58:20.000Z</time>
</trkpt>
<trkpt lat="45.8862590" lon="9.8391210">
	<ele>1386.40</ele>
	<time>2023-11-18T07:58:21.000Z</time>
</trkpt>
<trkpt lat="45.8862630" lon="9.8391230">
	<ele>1386.60</ele>
	<time>2023-11-18T07:58:22.000Z</time>
</trkpt>
<trkpt lat="45.8862690" lon="9.8391250">
	<ele>1386.80</ele>
	<time>2023-11-18T07:58:23.000Z</time>
</trkpt>
<trkpt lat="45.8862720" lon="9.8391240">
	<ele>1387.00</ele>
	<time>2023-11-18T07:58:24.000Z</time>
</trkpt>
<trkpt lat="45.8862750" lon="9.8391240">
	<ele>1387.00</ele>
	<time>2023-11-18T07:58:25.000Z</time>
</trkpt>
<trkpt lat="45.8862770" lon="9.8391240">
	<ele>1387.20</ele>
	<time>2023-11-18T07:58:26.000Z</time>
</trkpt>
<trkpt lat="45.8862830" lon="9.8391270">
	<ele>1387.40</ele>
	<time>2023-11-18T07:58:27.000Z</time>
</trkpt>
<trkpt lat="45.8862900" lon="9.8391310">
	<ele>1387.40</ele>
	<time>2023-11-18T07:58:28.000Z</time>
</trkpt>
<trkpt lat="45.8862980" lon="9.8391330">
	<ele>1387.40</ele>
	<time>2023-11-18T07:58:29.000Z</time>
</trkpt>
<trkpt lat="45.8863020" lon="9.8391330">
	<ele>1387.60</ele>
	<time>2023-11-18T07:58:30.000Z</time>
</trkpt>
<trkpt lat="45.8863090" lon="9.8391350">
	<ele>1387.80</ele>
	<time>2023-11-18T07:58:31.000Z</time>
</trkpt>
<trkpt lat="45.8863130" lon="9.8391370">
	<ele>1388.00</ele>
	<time>2023-11-18T07:58:32.000Z</time>
</trkpt>
<trkpt lat="45.8863160" lon="9.8391400">
	<ele>1388.20</ele>
	<time>2023-11-18T07:58:33.000Z</time>
</trkpt>
<trkpt lat="45.8863170" lon="9.8391410">
	<ele>1388.20</ele>
	<time>2023-11-18T07:58:34.000Z</time>
</trkpt>
<trkpt lat="45.8863200" lon="9.8391400">
	<ele>1388.20</ele>
	<time>2023-11-18T07:58:35.000Z</time>
</trkpt>
<trkpt lat="45.8863210" lon="9.8391390">
	<ele>1388.20</ele>
	<time>2023-11-18T07:58:36.000Z</time>
</trkpt>
<trkpt lat="45.8863210" lon="9.8391370">
	<ele>1388.40</ele>
	<time>2023-11-18T07:58:37.000Z</time>
</trkpt>
<trkpt lat="45.8863180" lon="9.8391440">
	<ele>1388.40</ele>
	<time>2023-11-18T07:58:38.000Z</time>
</trkpt>
<trkpt lat="45.8863180" lon="9.8391450">
	<ele>1388.40</ele>
	<time>2023-11-18T07:58:39.000Z</time>
</trkpt>
<trkpt lat="45.8863170" lon="9.8391450">
	<ele>1388.40</ele>
	<time>2023-11-18T07:58:40.000Z</time>
</trkpt>
<trkpt lat="45.8863200" lon="9.8391430">
	<ele>1388.60</ele>
	<time>2023-11-18T07:58:41.000Z</time>
</trkpt>
<trkpt lat="45.8863200" lon="9.8391420">
	<ele>1388.60</ele>
	<time>2023-11-18T07:58:42.000Z</time>
</trkpt>
<trkpt lat="45.8863200" lon="9.8391420">
	<ele>1388.60</ele>
	<time>2023-11-18T07:58:43.000Z</time>
</trkpt>
<trkpt lat="45.8863200" lon="9.8391420">
	<ele>1388.80</ele>
	<time>2023-11-18T07:58:44.000Z</time>
</trkpt>
<trkpt lat="45.8863200" lon="9.8391420">
	<ele>1388.80</ele>
	<time>2023-11-18T07:58:45.000Z</time>
</trkpt>
<trkpt lat="45.8863200" lon="9.8391420">
	<ele>1388.80</ele>
	<time>2023-11-18T07:58:46.000Z</time>
</trkpt>
<trkpt lat="45.8863200" lon="9.8391420">
	<ele>1388.80</ele>
	<time>2023-11-18T07:58:47.000Z</time>
</trkpt>
<trkpt lat="45.8863200" lon="9.8391420">
	<ele>1388.80</ele>
	<time>2023-11-18T07:58:48.000Z</time>
</trkpt>
<trkpt lat="45.8863200" lon="9.8391420">
	<ele>1388.80</ele>
	<time>2023-11-18T07:58:49.000Z</time>
</trkpt>
<trkpt lat="45.8863200" lon="9.8391420">
	<ele>1388.80</ele>
	<time>2023-11-18T07:58:50.000Z</time>
</trkpt>
<trkpt lat="45.8863200" lon="9.8391420">
	<ele>1388.80</ele>
	<time>2023-11-18T07:58:51.000Z</time>
</trkpt>
<trkpt lat="45.8863200" lon="9.8391420">
	<ele>1388.80</ele>
	<time>2023-11-18T07:58:52.000Z</time>
</trkpt>
<trkpt lat="45.8863200" lon="9.8391420">
	<ele>1388.80</ele>
	<time>2023-11-18T07:58:53.000Z</time>
</trkpt>
<trkpt lat="45.8863200" lon="9.8391420">
	<ele>1389.00</ele>
	<time>2023-11-18T07:58:54.000Z</time>
</trkpt>
<trkpt lat="45.8863200" lon="9.8391420">
	<ele>1389.20</ele>
	<time>2023-11-18T07:58:55.000Z</time>
</trkpt>
<trkpt lat="45.8863200" lon="9.8391420">
	<ele>1389.40</ele>
	<time>2023-11-18T07:58:56.000Z</time>
</trkpt>
<trkpt lat="45.8863200" lon="9.8391420">
	<ele>1389.60</ele>
	<time>2023-11-18T07:58:57.000Z</time>
</trkpt>
<trkpt lat="45.8863200" lon="9.8391420">
	<ele>1389.80</ele>
	<time>2023-11-18T07:58:58.000Z</time>
</trkpt>
<trkpt lat="45.8863200" lon="9.8391420">
	<ele>1390.00</ele>
	<time>2023-11-18T07:58:59.000Z</time>
</trkpt>
<trkpt lat="45.8863200" lon="9.8391420">
	<ele>1390.00</ele>
	<time>2023-11-18T07:59:00.000Z</time>
</trkpt>
<trkpt lat="45.8863200" lon="9.8391420">
	<ele>1390.20</ele>
	<time>2023-11-18T07:59:01.000Z</time>
</trkpt>
<trkpt lat="45.8863200" lon="9.8391420">
	<ele>1390.40</ele>
	<time>2023-11-18T07:59:02.000Z</time>
</trkpt>
<trkpt lat="45.8863200" lon="9.8391430">
	<ele>1390.40</ele>
	<time>2023-11-18T07:59:03.000Z</time>
</trkpt>
<trkpt lat="45.8863200" lon="9.8391430">
	<ele>1390.60</ele>
	<time>2023-11-18T07:59:04.000Z</time>
</trkpt>
<trkpt lat="45.8863200" lon="9.8391440">
	<ele>1390.80</ele>
	<time>2023-11-18T07:59:05.000Z</time>
</trkpt>
<trkpt lat="45.8863200" lon="9.8391450">
	<ele>1391.00</ele>
	<time>2023-11-18T07:59:06.000Z</time>
</trkpt>
<trkpt lat="45.8863200" lon="9.8391450">
	<ele>1391.00</ele>
	<time>2023-11-18T07:59:07.000Z</time>
</trkpt>
<trkpt lat="45.8863240" lon="9.8391470">
	<ele>1391.00</ele>
	<time>2023-11-18T07:59:08.000Z</time>
</trkpt>
<trkpt lat="45.8863260" lon="9.8391500">
	<ele>1391.20</ele>
	<time>2023-11-18T07:59:09.000Z</time>
</trkpt>
<trkpt lat="45.8863260" lon="9.8391510">
	<ele>1391.20</ele>
	<time>2023-11-18T07:59:10.000Z</time>
</trkpt>
<trkpt lat="45.8863270" lon="9.8391510">
	<ele>1391.20</ele>
	<time>2023-11-18T07:59:11.000Z</time>
</trkpt>
<trkpt lat="45.8863270" lon="9.8391540">
	<ele>1391.20</ele>
	<time>2023-11-18T07:59:12.000Z</time>
</trkpt>
<trkpt lat="45.8863280" lon="9.8391540">
	<ele>1391.20</ele>
	<time>2023-11-18T07:59:13.000Z</time>
</trkpt>
<trkpt lat="45.8863280" lon="9.8391550">
	<ele>1391.40</ele>
	<time>2023-11-18T07:59:14.000Z</time>
</trkpt>
<trkpt lat="45.8863320" lon="9.8391580">
	<ele>1391.40</ele>
	<time>2023-11-18T07:59:15.000Z</time>
</trkpt>
<trkpt lat="45.8863350" lon="9.8391610">
	<ele>1391.40</ele>
	<time>2023-11-18T07:59:16.000Z</time>
</trkpt>
<trkpt lat="45.8863400" lon="9.8391660">
	<ele>1391.40</ele>
	<time>2023-11-18T07:59:17.000Z</time>
</trkpt>
<trkpt lat="45.8863430" lon="9.8391680">
	<ele>1391.40</ele>
	<time>2023-11-18T07:59:18.000Z</time>
</trkpt>
<trkpt lat="45.8863460" lon="9.8391680">
	<ele>1391.40</ele>
	<time>2023-11-18T07:59:19.000Z</time>
</trkpt>
<trkpt lat="45.8863480" lon="9.8391680">
	<ele>1391.60</ele>
	<time>2023-11-18T07:59:20.000Z</time>
</trkpt>
<trkpt lat="45.8863490" lon="9.8391680">
	<ele>1391.80</ele>
	<time>2023-11-18T07:59:21.000Z</time>
</trkpt>
<trkpt lat="45.8863510" lon="9.8391680">
	<ele>1391.80</ele>
	<time>2023-11-18T07:59:22.000Z</time>
</trkpt>
<trkpt lat="45.8863510" lon="9.8391690">
	<ele>1391.80</ele>
	<time>2023-11-18T07:59:23.000Z</time>
</trkpt>
<trkpt lat="45.8863520" lon="9.8391690">
	<ele>1392.00</ele>
	<time>2023-11-18T07:59:24.000Z</time>
</trkpt>
<trkpt lat="45.8863530" lon="9.8391690">
	<ele>1392.00</ele>
	<time>2023-11-18T07:59:25.000Z</time>
</trkpt>
<trkpt lat="45.8863540" lon="9.8391700">
	<ele>1392.00</ele>
	<time>2023-11-18T07:59:26.000Z</time>
</trkpt>
<trkpt lat="45.8863550" lon="9.8391700">
	<ele>1391.80</ele>
	<time>2023-11-18T07:59:27.000Z</time>
</trkpt>
<trkpt lat="45.8863550" lon="9.8391700">
	<ele>1391.80</ele>
	<time>2023-11-18T07:59:28.000Z</time>
</trkpt>
<trkpt lat="45.8863550" lon="9.8391700">
	<ele>1391.60</ele>
	<time>2023-11-18T07:59:29.000Z</time>
</trkpt>
<trkpt lat="45.8863550" lon="9.8391700">
	<ele>1391.40</ele>
	<time>2023-11-18T07:59:30.000Z</time>
</trkpt>
<trkpt lat="45.8863550" lon="9.8391700">
	<ele>1391.40</ele>
	<time>2023-11-18T07:59:31.000Z</time>
</trkpt>
<trkpt lat="45.8863550" lon="9.8391700">
	<ele>1391.40</ele>
	<time>2023-11-18T07:59:32.000Z</time>
</trkpt>
<trkpt lat="45.8863550" lon="9.8391700">
	<ele>1391.20</ele>
	<time>2023-11-18T07:59:33.000Z</time>
</trkpt>
<trkpt lat="45.8863550" lon="9.8391700">
	<ele>1391.20</ele>
	<time>2023-11-18T07:59:34.000Z</time>
</trkpt>
<trkpt lat="45.8863550" lon="9.8391700">
	<ele>1391.20</ele>
	<time>2023-11-18T07:59:35.000Z</time>
</trkpt>
<trkpt lat="45.8863550" lon="9.8391700">
	<ele>1391.20</ele>
	<time>2023-11-18T07:59:36.000Z</time>
</trkpt>
<trkpt lat="45.8863550" lon="9.8391700">
	<ele>1391.20</ele>
	<time>2023-11-18T07:59:37.000Z</time>
</trkpt>
<trkpt lat="45.8863550" lon="9.8391700">
	<ele>1391.20</ele>
	<time>2023-11-18T07:59:38.000Z</time>
</trkpt>
<trkpt lat="45.8863550" lon="9.8391700">
	<ele>1391.20</ele>
	<time>2023-11-18T07:59:39.000Z</time>
</trkpt>
<trkpt lat="45.8863550" lon="9.8391700">
	<ele>1391.20</ele>
	<time>2023-11-18T07:59:40.000Z</time>
</trkpt>
<trkpt lat="45.8863560" lon="9.8391700">
	<ele>1391.20</ele>
	<time>2023-11-18T07:59:41.000Z</time>
</trkpt>
<trkpt lat="45.8863560" lon="9.8391700">
	<ele>1391.40</ele>
	<time>2023-11-18T07:59:42.000Z</time>
</trkpt>
<trkpt lat="45.8863560" lon="9.8391700">
	<ele>1391.40</ele>
	<time>2023-11-18T07:59:43.000Z</time>
</trkpt>
<trkpt lat="45.8863560" lon="9.8391700">
	<ele>1391.40</ele>
	<time>2023-11-18T07:59:44.000Z</time>
</trkpt>
<trkpt lat="45.8863550" lon="9.8391700">
	<ele>1391.40</ele>
	<time>2023-11-18T07:59:45.000Z</time>
</trkpt>
<trkpt lat="45.8863550" lon="9.8391700">
	<ele>1391.40</ele>
	<time>2023-11-18T07:59:46.000Z</time>
</trkpt>
<trkpt lat="45.8863550" lon="9.8391700">
	<ele>1391.40</ele>
	<time>2023-11-18T07:59:47.000Z</time>
</trkpt>
<trkpt lat="45.8863550" lon="9.8391710">
	<ele>1391.40</ele>
	<time>2023-11-18T07:59:48.000Z</time>
</trkpt>
<trkpt lat="45.8863550" lon="9.8391710">
	<ele>1391.40</ele>
	<time>2023-11-18T07:59:49.000Z</time>
</trkpt>
<trkpt lat="45.8863550" lon="9.8391710">
	<ele>1391.40</ele>
	<time>2023-11-18T07:59:50.000Z</time>
</trkpt>
<trkpt lat="45.8863550" lon="9.8391710">
	<ele>1391.40</ele>
	<time>2023-11-18T07:59:51.000Z</time>
</trkpt>
<trkpt lat="45.8863550" lon="9.8391720">
	<ele>1391.40</ele>
	<time>2023-11-18T07:59:52.000Z</time>
</trkpt>
<trkpt lat="45.8863550" lon="9.8391720">
	<ele>1391.40</ele>
	<time>2023-11-18T07:59:53.000Z</time>
</trkpt>
<trkpt lat="45.8863550" lon="9.8391720">
	<ele>1391.80</ele>
	<time>2023-11-18T07:59:54.000Z</time>
</trkpt>
<trkpt lat="45.8863550" lon="9.8391720">
	<ele>1392.00</ele>
	<time>2023-11-18T07:59:55.000Z</time>
</trkpt>
<trkpt lat="45.8863560" lon="9.8391730">
	<ele>1392.20</ele>
	<time>2023-11-18T07:59:56.000Z</time>
</trkpt>
<trkpt lat="45.8863610" lon="9.8391850">
	<ele>1392.40</ele>
	<time>2023-11-18T07:59:57.000Z</time>
</trkpt>
<trkpt lat="45.8863700" lon="9.8392120">
	<ele>1392.40</ele>
	<time>2023-11-18T07:59:58.000Z</time>
</trkpt>
<trkpt lat="45.8863850" lon="9.8392310">
	<ele>1392.60</ele>
	<time>2023-11-18T07:59:59.000Z</time>
</trkpt>
<trkpt lat="45.8863940" lon="9.8392560">
	<ele>1392.60</ele>
	<time>2023-11-18T08:00:00.000Z</time>
</trkpt>
<trkpt lat="45.8864030" lon="9.8392800">
	<ele>1392.80</ele>
	<time>2023-11-18T08:00:01.000Z</time>
</trkpt>
<trkpt lat="45.8864160" lon="9.8393010">
	<ele>1393.00</ele>
	<time>2023-11-18T08:00:02.000Z</time>
</trkpt>
<trkpt lat="45.8864320" lon="9.8393220">
	<ele>1393.40</ele>
	<time>2023-11-18T08:00:03.000Z</time>
</trkpt>
<trkpt lat="45.8864470" lon="9.8393450">
	<ele>1393.40</ele>
	<time>2023-11-18T08:00:04.000Z</time>
</trkpt>
<trkpt lat="45.8864550" lon="9.8393660">
	<ele>1393.60</ele>
	<time>2023-11-18T08:00:05.000Z</time>
</trkpt>
<trkpt lat="45.8864620" lon="9.8393880">
	<ele>1393.80</ele>
	<time>2023-11-18T08:00:06.000Z</time>
</trkpt>
<trkpt lat="45.8864650" lon="9.8394030">
	<ele>1394.00</ele>
	<time>2023-11-18T08:00:07.000Z</time>
</trkpt>
<trkpt lat="45.8864680" lon="9.8394180">
	<ele>1394.00</ele>
	<time>2023-11-18T08:00:08.000Z</time>
</trkpt>
<trkpt lat="45.8864740" lon="9.8394300">
	<ele>1394.00</ele>
	<time>2023-11-18T08:00:09.000Z</time>
</trkpt>
<trkpt lat="45.8864790" lon="9.8394410">
	<ele>1394.00</ele>
	<time>2023-11-18T08:00:10.000Z</time>
</trkpt>
<trkpt lat="45.8864830" lon="9.8394530">
	<ele>1394.00</ele>
	<time>2023-11-18T08:00:11.000Z</time>
</trkpt>
<trkpt lat="45.8864880" lon="9.8394640">
	<ele>1394.00</ele>
	<time>2023-11-18T08:00:12.000Z</time>
</trkpt>
<trkpt lat="45.8864920" lon="9.8394760">
	<ele>1394.00</ele>
	<time>2023-11-18T08:00:13.000Z</time>
</trkpt>
<trkpt lat="45.8864980" lon="9.8394830">
	<ele>1394.00</ele>
	<time>2023-11-18T08:00:14.000Z</time>
</trkpt>
<trkpt lat="45.8865020" lon="9.8394900">
	<ele>1394.20</ele>
	<time>2023-11-18T08:00:15.000Z</time>
</trkpt>
<trkpt lat="45.8865070" lon="9.8394970">
	<ele>1394.40</ele>
	<time>2023-11-18T08:00:16.000Z</time>
</trkpt>
<trkpt lat="45.8865130" lon="9.8395020">
	<ele>1394.40</ele>
	<time>2023-11-18T08:00:17.000Z</time>
</trkpt>
<trkpt lat="45.8865160" lon="9.8395030">
	<ele>1394.40</ele>
	<time>2023-11-18T08:00:18.000Z</time>
</trkpt>
<trkpt lat="45.8865180" lon="9.8395040">
	<ele>1394.40</ele>
	<time>2023-11-18T08:00:19.000Z</time>
</trkpt>
<trkpt lat="45.8865190" lon="9.8395040">
	<ele>1394.60</ele>
	<time>2023-11-18T08:00:20.000Z</time>
</trkpt>
<trkpt lat="45.8865210" lon="9.8395030">
	<ele>1394.60</ele>
	<time>2023-11-18T08:00:21.000Z</time>
</trkpt>
<trkpt lat="45.8865220" lon="9.8394990">
	<ele>1394.80</ele>
	<time>2023-11-18T08:00:22.000Z</time>
</trkpt>
<trkpt lat="45.8865240" lon="9.8394950">
	<ele>1394.80</ele>
	<time>2023-11-18T08:00:23.000Z</time>
</trkpt>
<trkpt lat="45.8865260" lon="9.8394900">
	<ele>1395.00</ele>
	<time>2023-11-18T08:00:24.000Z</time>
</trkpt>
<trkpt lat="45.8865290" lon="9.8394960">
	<ele>1395.00</ele>
	<time>2023-11-18T08:00:25.000Z</time>
</trkpt>
<trkpt lat="45.8865310" lon="9.8394970">
	<ele>1395.00</ele>
	<time>2023-11-18T08:00:26.000Z</time>
</trkpt>
<trkpt lat="45.8865320" lon="9.8395000">
	<ele>1395.00</ele>
	<time>2023-11-18T08:00:27.000Z</time>
</trkpt>
<trkpt lat="45.8865370" lon="9.8395060">
	<ele>1394.80</ele>
	<time>2023-11-18T08:00:28.000Z</time>
</trkpt>
<trkpt lat="45.8865440" lon="9.8395110">
	<ele>1394.80</ele>
	<time>2023-11-18T08:00:29.000Z</time>
</trkpt>
<trkpt lat="45.8865480" lon="9.8395210">
	<ele>1394.80</ele>
	<time>2023-11-18T08:00:30.000Z</time>
</trkpt>
<trkpt lat="45.8865490" lon="9.8395310">
	<ele>1394.60</ele>
	<time>2023-11-18T08:00:31.000Z</time>
</trkpt>
<trkpt lat="45.8865510" lon="9.8395410">
	<ele>1394.80</ele>
	<time>2023-11-18T08:00:32.000Z</time>
</trkpt>
<trkpt lat="45.8865560" lon="9.8395520">
	<ele>1394.80</ele>
	<time>2023-11-18T08:00:33.000Z</time>
</trkpt>
<trkpt lat="45.8865620" lon="9.8395620">
	<ele>1395.00</ele>
	<time>2023-11-18T08:00:34.000Z</time>
</trkpt>
<trkpt lat="45.8865660" lon="9.8395720">
	<ele>1395.20</ele>
	<time>2023-11-18T08:00:35.000Z</time>
</trkpt>
<trkpt lat="45.8865690" lon="9.8395830">
	<ele>1395.40</ele>
	<time>2023-11-18T08:00:36.000Z</time>
</trkpt>
<trkpt lat="45.8865730" lon="9.8395990">
	<ele>1395.60</ele>
	<time>2023-11-18T08:00:37.000Z</time>
</trkpt>
<trkpt lat="45.8865760" lon="9.8396150">
	<ele>1395.80</ele>
	<time>2023-11-18T08:00:38.000Z</time>
</trkpt>
<trkpt lat="45.8865810" lon="9.8396290">
	<ele>1395.80</ele>
	<time>2023-11-18T08:00:39.000Z</time>
</trkpt>
<trkpt lat="45.8865860" lon="9.8396440">
	<ele>1396.00</ele>
	<time>2023-11-18T08:00:40.000Z</time>
</trkpt>
<trkpt lat="45.8865890" lon="9.8396580">
	<ele>1396.00</ele>
	<time>2023-11-18T08:00:41.000Z</time>
</trkpt>
<trkpt lat="45.8865900" lon="9.8396710">
	<ele>1396.00</ele>
	<time>2023-11-18T08:00:42.000Z</time>
</trkpt>
<trkpt lat="45.8865930" lon="9.8396830">
	<ele>1396.00</ele>
	<time>2023-11-18T08:00:43.000Z</time>
</trkpt>
<trkpt lat="45.8865950" lon="9.8396900">
	<ele>1395.80</ele>
	<time>2023-11-18T08:00:44.000Z</time>
</trkpt>
<trkpt lat="45.8865950" lon="9.8396950">
	<ele>1395.80</ele>
	<time>2023-11-18T08:00:45.000Z</time>
</trkpt>
<trkpt lat="45.8865940" lon="9.8397010">
	<ele>1395.80</ele>
	<time>2023-11-18T08:00:46.000Z</time>
</trkpt>
<trkpt lat="45.8865940" lon="9.8397030">
	<ele>1395.80</ele>
	<time>2023-11-18T08:00:47.000Z</time>
</trkpt>
<trkpt lat="45.8865950" lon="9.8397030">
	<ele>1395.80</ele>
	<time>2023-11-18T08:00:48.000Z</time>
</trkpt>
<trkpt lat="45.8865940" lon="9.8397030">
	<ele>1395.80</ele>
	<time>2023-11-18T08:00:49.000Z</time>
</trkpt>
<trkpt lat="45.8865930" lon="9.8397010">
	<ele>1395.80</ele>
	<time>2023-11-18T08:00:50.000Z</time>
</trkpt>
<trkpt lat="45.8865940" lon="9.8397000">
	<ele>1395.80</ele>
	<time>2023-11-18T08:00:51.000Z</time>
</trkpt>
<trkpt lat="45.8865950" lon="9.8396990">
	<ele>1395.80</ele>
	<time>2023-11-18T08:00:52.000Z</time>
</trkpt>
<trkpt lat="45.8865960" lon="9.8396970">
	<ele>1396.00</ele>
	<time>2023-11-18T08:00:53.000Z</time>
</trkpt>
<trkpt lat="45.8865910" lon="9.8396910">
	<ele>1396.00</ele>
	<time>2023-11-18T08:00:54.000Z</time>
</trkpt>
<trkpt lat="45.8865870" lon="9.8396890">
	<ele>1396.00</ele>
	<time>2023-11-18T08:00:55.000Z</time>
</trkpt>
<trkpt lat="45.8865840" lon="9.8396910">
	<ele>1396.00</ele>
	<time>2023-11-18T08:00:56.000Z</time>
</trkpt>
<trkpt lat="45.8865810" lon="9.8396930">
	<ele>1396.00</ele>
	<time>2023-11-18T08:00:57.000Z</time>
</trkpt>
<trkpt lat="45.8865830" lon="9.8396950">
	<ele>1395.80</ele>
	<time>2023-11-18T08:00:58.000Z</time>
</trkpt>
<trkpt lat="45.8865850" lon="9.8396970">
	<ele>1395.80</ele>
	<time>2023-11-18T08:00:59.000Z</time>
</trkpt>
<trkpt lat="45.8865860" lon="9.8397010">
	<ele>1395.80</ele>
	<time>2023-11-18T08:01:00.000Z</time>
</trkpt>
<trkpt lat="45.8865880" lon="9.8397070">
	<ele>1395.80</ele>
	<time>2023-11-18T08:01:01.000Z</time>
</trkpt>
<trkpt lat="45.8865910" lon="9.8397180">
	<ele>1395.80</ele>
	<time>2023-11-18T08:01:02.000Z</time>
</trkpt>
<trkpt lat="45.8865940" lon="9.8397270">
	<ele>1395.80</ele>
	<time>2023-11-18T08:01:03.000Z</time>
</trkpt>
<trkpt lat="45.8865980" lon="9.8397280">
	<ele>1395.80</ele>
	<time>2023-11-18T08:01:04.000Z</time>
</trkpt>
<trkpt lat="45.8866000" lon="9.8397330">
	<ele>1395.80</ele>
	<time>2023-11-18T08:01:05.000Z</time>
</trkpt>
<trkpt lat="45.8866000" lon="9.8397360">
	<ele>1395.80</ele>
	<time>2023-11-18T08:01:06.000Z</time>
</trkpt>
<trkpt lat="45.8866000" lon="9.8397440">
	<ele>1396.00</ele>
	<time>2023-11-18T08:01:07.000Z</time>
</trkpt>
<trkpt lat="45.8865980" lon="9.8397480">
	<ele>1396.00</ele>
	<time>2023-11-18T08:01:08.000Z</time>
</trkpt>
<trkpt lat="45.8865960" lon="9.8397500">
	<ele>1396.00</ele>
	<time>2023-11-18T08:01:09.000Z</time>
</trkpt>
<trkpt lat="45.8865960" lon="9.8397500">
	<ele>1396.40</ele>
	<time>2023-11-18T08:01:10.000Z</time>
</trkpt>
<trkpt lat="45.8865960" lon="9.8397500">
	<ele>1396.40</ele>
	<time>2023-11-18T08:01:11.000Z</time>
</trkpt>
<trkpt lat="45.8865960" lon="9.8397500">
	<ele>1396.40</ele>
	<time>2023-11-18T08:01:12.000Z</time>
</trkpt>
<trkpt lat="45.8865960" lon="9.8397500">
	<ele>1396.60</ele>
	<time>2023-11-18T08:01:13.000Z</time>
</trkpt>
<trkpt lat="45.8865960" lon="9.8397500">
	<ele>1396.60</ele>
	<time>2023-11-18T08:01:14.000Z</time>
</trkpt>
<trkpt lat="45.8865960" lon="9.8397500">
	<ele>1396.60</ele>
	<time>2023-11-18T08:01:15.000Z</time>
</trkpt>
<trkpt lat="45.8865960" lon="9.8397500">
	<ele>1396.60</ele>
	<time>2023-11-18T08:01:16.000Z</time>
</trkpt>
<trkpt lat="45.8865960" lon="9.8397500">
	<ele>1396.40</ele>
	<time>2023-11-18T08:01:17.000Z</time>
</trkpt>
<trkpt lat="45.8865960" lon="9.8397500">
	<ele>1396.40</ele>
	<time>2023-11-18T08:01:18.000Z</time>
</trkpt>
<trkpt lat="45.8865960" lon="9.8397500">
	<ele>1396.40</ele>
	<time>2023-11-18T08:01:19.000Z</time>
</trkpt>
<trkpt lat="45.8865960" lon="9.8397500">
	<ele>1396.40</ele>
	<time>2023-11-18T08:01:20.000Z</time>
</trkpt>
<trkpt lat="45.8865960" lon="9.8397500">
	<ele>1396.40</ele>
	<time>2023-11-18T08:01:21.000Z</time>
</trkpt>
<trkpt lat="45.8865970" lon="9.8397500">
	<ele>1396.40</ele>
	<time>2023-11-18T08:01:22.000Z</time>
</trkpt>
<trkpt lat="45.8865970" lon="9.8397500">
	<ele>1396.20</ele>
	<time>2023-11-18T08:01:23.000Z</time>
</trkpt>
<trkpt lat="45.8865970" lon="9.8397490">
	<ele>1396.20</ele>
	<time>2023-11-18T08:01:24.000Z</time>
</trkpt>
<trkpt lat="45.8866010" lon="9.8397500">
	<ele>1396.40</ele>
	<time>2023-11-18T08:01:25.000Z</time>
</trkpt>
<trkpt lat="45.8866110" lon="9.8397530">
	<ele>1396.40</ele>
	<time>2023-11-18T08:01:26.000Z</time>
</trkpt>
<trkpt lat="45.8866200" lon="9.8397590">
	<ele>1396.40</ele>
	<time>2023-11-18T08:01:27.000Z</time>
</trkpt>
<trkpt lat="45.8866280" lon="9.8397620">
	<ele>1396.60</ele>
	<time>2023-11-18T08:01:28.000Z</time>
</trkpt>
<trkpt lat="45.8866380" lon="9.8397690">
	<ele>1396.60</ele>
	<time>2023-11-18T08:01:29.000Z</time>
</trkpt>
<trkpt lat="45.8866500" lon="9.8397770">
	<ele>1396.60</ele>
	<time>2023-11-18T08:01:30.000Z</time>
</trkpt>
<trkpt lat="45.8866610" lon="9.8397830">
	<ele>1396.80</ele>
	<time>2023-11-18T08:01:31.000Z</time>
</trkpt>
<trkpt lat="45.8866700" lon="9.8397840">
	<ele>1396.80</ele>
	<time>2023-11-18T08:01:32.000Z</time>
</trkpt>
<trkpt lat="45.8866780" lon="9.8397860">
	<ele>1397.00</ele>
	<time>2023-11-18T08:01:33.000Z</time>
</trkpt>
<trkpt lat="45.8866910" lon="9.8397900">
	<ele>1397.20</ele>
	<time>2023-11-18T08:01:34.000Z</time>
</trkpt>
<trkpt lat="45.8866970" lon="9.8397910">
	<ele>1397.40</ele>
	<time>2023-11-18T08:01:35.000Z</time>
</trkpt>
<trkpt lat="45.8867020" lon="9.8397930">
	<ele>1397.40</ele>
	<time>2023-11-18T08:01:36.000Z</time>
</trkpt>
<trkpt lat="45.8867070" lon="9.8397940">
	<ele>1397.60</ele>
	<time>2023-11-18T08:01:37.000Z</time>
</trkpt>
<trkpt lat="45.8867110" lon="9.8398040">
	<ele>1397.60</ele>
	<time>2023-11-18T08:01:38.000Z</time>
</trkpt>
<trkpt lat="45.8867150" lon="9.8398130">
	<ele>1397.60</ele>
	<time>2023-11-18T08:01:39.000Z</time>
</trkpt>
<trkpt lat="45.8867180" lon="9.8398190">
	<ele>1397.80</ele>
	<time>2023-11-18T08:01:40.000Z</time>
</trkpt>
<trkpt lat="45.8867230" lon="9.8398230">
	<ele>1398.00</ele>
	<time>2023-11-18T08:01:41.000Z</time>
</trkpt>
<trkpt lat="45.8867240" lon="9.8398250">
	<ele>1398.00</ele>
	<time>2023-11-18T08:01:42.000Z</time>
</trkpt>
<trkpt lat="45.8867230" lon="9.8398250">
	<ele>1398.20</ele>
	<time>2023-11-18T08:01:43.000Z</time>
</trkpt>
<trkpt lat="45.8867220" lon="9.8398240">
	<ele>1398.20</ele>
	<time>2023-11-18T08:01:44.000Z</time>
</trkpt>
<trkpt lat="45.8867210" lon="9.8398230">
	<ele>1398.20</ele>
	<time>2023-11-18T08:01:45.000Z</time>
</trkpt>
<trkpt lat="45.8867210" lon="9.8398220">
	<ele>1398.40</ele>
	<time>2023-11-18T08:01:46.000Z</time>
</trkpt>
<trkpt lat="45.8867200" lon="9.8398210">
	<ele>1398.40</ele>
	<time>2023-11-18T08:01:47.000Z</time>
</trkpt>
<trkpt lat="45.8867190" lon="9.8398220">
	<ele>1398.40</ele>
	<time>2023-11-18T08:01:48.000Z</time>
</trkpt>
<trkpt lat="45.8867190" lon="9.8398220">
	<ele>1398.40</ele>
	<time>2023-11-18T08:01:49.000Z</time>
</trkpt>
<trkpt lat="45.8867190" lon="9.8398220">
	<ele>1398.40</ele>
	<time>2023-11-18T08:01:50.000Z</time>
</trkpt>
<trkpt lat="45.8867190" lon="9.8398220">
	<ele>1398.40</ele>
	<time>2023-11-18T08:01:51.000Z</time>
</trkpt>
<trkpt lat="45.8867190" lon="9.8398220">
	<ele>1398.20</ele>
	<time>2023-11-18T08:01:52.000Z</time>
</trkpt>
<trkpt lat="45.8867190" lon="9.8398220">
	<ele>1398.20</ele>
	<time>2023-11-18T08:01:53.000Z</time>
</trkpt>
<trkpt lat="45.8867190" lon="9.8398220">
	<ele>1398.20</ele>
	<time>2023-11-18T08:01:54.000Z</time>
</trkpt>
<trkpt lat="45.8867190" lon="9.8398220">
	<ele>1398.20</ele>
	<time>2023-11-18T08:01:55.000Z</time>
</trkpt>
<trkpt lat="45.8867190" lon="9.8398220">
	<ele>1398.20</ele>
	<time>2023-11-18T08:01:56.000Z</time>
</trkpt>
<trkpt lat="45.8867190" lon="9.8398220">
	<ele>1398.20</ele>
	<time>2023-11-18T08:01:57.000Z</time>
</trkpt>
<trkpt lat="45.8867190" lon="9.8398220">
	<ele>1398.20</ele>
	<time>2023-11-18T08:01:58.000Z</time>
</trkpt>
<trkpt lat="45.8867190" lon="9.8398220">
	<ele>1398.40</ele>
	<time>2023-11-18T08:01:59.000Z</time>
</trkpt>
<trkpt lat="45.8867190" lon="9.8398220">
	<ele>1398.40</ele>
	<time>2023-11-18T08:02:00.000Z</time>
</trkpt>
<trkpt lat="45.8867190" lon="9.8398220">
	<ele>1398.40</ele>
	<time>2023-11-18T08:02:01.000Z</time>
</trkpt>
<trkpt lat="45.8867200" lon="9.8398220">
	<ele>1398.60</ele>
	<time>2023-11-18T08:02:02.000Z</time>
</trkpt>
<trkpt lat="45.8867200" lon="9.8398220">
	<ele>1398.60</ele>
	<time>2023-11-18T08:02:03.000Z</time>
</trkpt>
<trkpt lat="45.8867210" lon="9.8398220">
	<ele>1398.60</ele>
	<time>2023-11-18T08:02:04.000Z</time>
</trkpt>
<trkpt lat="45.8867210" lon="9.8398220">
	<ele>1398.80</ele>
	<time>2023-11-18T08:02:05.000Z</time>
</trkpt>
<trkpt lat="45.8867210" lon="9.8398220">
	<ele>1398.80</ele>
	<time>2023-11-18T08:02:06.000Z</time>
</trkpt>
<trkpt lat="45.8867210" lon="9.8398220">
	<ele>1398.80</ele>
	<time>2023-11-18T08:02:07.000Z</time>
</trkpt>
<trkpt lat="45.8867220" lon="9.8398220">
	<ele>1398.80</ele>
	<time>2023-11-18T08:02:08.000Z</time>
</trkpt>
<trkpt lat="45.8867230" lon="9.8398220">
	<ele>1398.80</ele>
	<time>2023-11-18T08:02:09.000Z</time>
</trkpt>
<trkpt lat="45.8867230" lon="9.8398220">
	<ele>1398.80</ele>
	<time>2023-11-18T08:02:10.000Z</time>
</trkpt>
<trkpt lat="45.8867240" lon="9.8398230">
	<ele>1398.60</ele>
	<time>2023-11-18T08:02:11.000Z</time>
</trkpt>
<trkpt lat="45.8867290" lon="9.8398230">
	<ele>1398.60</ele>
	<time>2023-11-18T08:02:12.000Z</time>
</trkpt>
<trkpt lat="45.8867350" lon="9.8398230">
	<ele>1398.60</ele>
	<time>2023-11-18T08:02:13.000Z</time>
</trkpt>
<trkpt lat="45.8867390" lon="9.8398230">
	<ele>1398.60</ele>
	<time>2023-11-18T08:02:14.000Z</time>
</trkpt>
<trkpt lat="45.8867430" lon="9.8398230">
	<ele>1398.60</ele>
	<time>2023-11-18T08:02:15.000Z</time>
</trkpt>
<trkpt lat="45.8867480" lon="9.8398280">
	<ele>1398.60</ele>
	<time>2023-11-18T08:02:16.000Z</time>
</trkpt>
<trkpt lat="45.8867540" lon="9.8398360">
	<ele>1398.60</ele>
	<time>2023-11-18T08:02:17.000Z</time>
</trkpt>
<trkpt lat="45.8867570" lon="9.8398400">
	<ele>1398.60</ele>
	<time>2023-11-18T08:02:18.000Z</time>
</trkpt>
<trkpt lat="45.8867590" lon="9.8398410">
	<ele>1398.60</ele>
	<time>2023-11-18T08:02:19.000Z</time>
</trkpt>
<trkpt lat="45.8867620" lon="9.8398420">
	<ele>1398.60</ele>
	<time>2023-11-18T08:02:20.000Z</time>
</trkpt>
<trkpt lat="45.8867630" lon="9.8398430">
	<ele>1398.60</ele>
	<time>2023-11-18T08:02:21.000Z</time>
</trkpt>
<trkpt lat="45.8867630" lon="9.8398440">
	<ele>1398.60</ele>
	<time>2023-11-18T08:02:22.000Z</time>
</trkpt>
<trkpt lat="45.8867640" lon="9.8398460">
	<ele>1398.60</ele>
	<time>2023-11-18T08:02:23.000Z</time>
</trkpt>
<trkpt lat="45.8867640" lon="9.8398480">
	<ele>1398.60</ele>
	<time>2023-11-18T08:02:24.000Z</time>
</trkpt>
<trkpt lat="45.8867640" lon="9.8398510">
	<ele>1398.60</ele>
	<time>2023-11-18T08:02:25.000Z</time>
</trkpt>
<trkpt lat="45.8867650" lon="9.8398570">
	<ele>1398.40</ele>
	<time>2023-11-18T08:02:26.000Z</time>
</trkpt>
<trkpt lat="45.8867650" lon="9.8398640">
	<ele>1398.40</ele>
	<time>2023-11-18T08:02:27.000Z</time>
</trkpt>
<trkpt lat="45.8867660" lon="9.8398730">
	<ele>1398.40</ele>
	<time>2023-11-18T08:02:28.000Z</time>
</trkpt>
<trkpt lat="45.8867700" lon="9.8398980">
	<ele>1398.40</ele>
	<time>2023-11-18T08:02:29.000Z</time>
</trkpt>
<trkpt lat="45.8867760" lon="9.8399200">
	<ele>1398.40</ele>
	<time>2023-11-18T08:02:30.000Z</time>
</trkpt>
<trkpt lat="45.8867830" lon="9.8399400">
	<ele>1398.40</ele>
	<time>2023-11-18T08:02:31.000Z</time>
</trkpt>
<trkpt lat="45.8867900" lon="9.8399600">
	<ele>1398.40</ele>
	<time>2023-11-18T08:02:32.000Z</time>
</trkpt>
<trkpt lat="45.8867970" lon="9.8399800">
	<ele>1398.40</ele>
	<time>2023-11-18T08:02:33.000Z</time>
</trkpt>
<trkpt lat="45.8868010" lon="9.8400010">
	<ele>1398.40</ele>
	<time>2023-11-18T08:02:34.000Z</time>
</trkpt>
<trkpt lat="45.8868040" lon="9.8400190">
	<ele>1398.60</ele>
	<time>2023-11-18T08:02:35.000Z</time>
</trkpt>
<trkpt lat="45.8868050" lon="9.8400390">
	<ele>1398.60</ele>
	<time>2023-11-18T08:02:36.000Z</time>
</trkpt>
<trkpt lat="45.8868070" lon="9.8400660">
	<ele>1398.80</ele>
	<time>2023-11-18T08:02:37.000Z</time>
</trkpt>
<trkpt lat="45.8868090" lon="9.8400850">
	<ele>1398.80</ele>
	<time>2023-11-18T08:02:38.000Z</time>
</trkpt>
<trkpt lat="45.8868100" lon="9.8401040">
	<ele>1398.60</ele>
	<time>2023-11-18T08:02:39.000Z</time>
</trkpt>
<trkpt lat="45.8868140" lon="9.8401180">
	<ele>1398.80</ele>
	<time>2023-11-18T08:02:40.000Z</time>
</trkpt>
<trkpt lat="45.8868180" lon="9.8401290">
	<ele>1398.80</ele>
	<time>2023-11-18T08:02:41.000Z</time>
</trkpt>
<trkpt lat="45.8868230" lon="9.8401390">
	<ele>1398.80</ele>
	<time>2023-11-18T08:02:42.000Z</time>
</trkpt>
<trkpt lat="45.8868270" lon="9.8401510">
	<ele>1398.80</ele>
	<time>2023-11-18T08:02:43.000Z</time>
</trkpt>
<trkpt lat="45.8868280" lon="9.8401570">
	<ele>1398.80</ele>
	<time>2023-11-18T08:02:44.000Z</time>
</trkpt>
<trkpt lat="45.8868290" lon="9.8401680">
	<ele>1398.80</ele>
	<time>2023-11-18T08:02:45.000Z</time>
</trkpt>
<trkpt lat="45.8868310" lon="9.8401800">
	<ele>1399.00</ele>
	<time>2023-11-18T08:02:46.000Z</time>
</trkpt>
<trkpt lat="45.8868340" lon="9.8401970">
	<ele>1399.00</ele>
	<time>2023-11-18T08:02:47.000Z</time>
</trkpt>
<trkpt lat="45.8868370" lon="9.8402130">
	<ele>1399.20</ele>
	<time>2023-11-18T08:02:48.000Z</time>
</trkpt>
<trkpt lat="45.8868420" lon="9.8402240">
	<ele>1399.20</ele>
	<time>2023-11-18T08:02:49.000Z</time>
</trkpt>
<trkpt lat="45.8868420" lon="9.8402390">
	<ele>1399.20</ele>
	<time>2023-11-18T08:02:50.000Z</time>
</trkpt>
<trkpt lat="45.8868410" lon="9.8402530">
	<ele>1399.20</ele>
	<time>2023-11-18T08:02:51.000Z</time>
</trkpt>
<trkpt lat="45.8868400" lon="9.8402650">
	<ele>1399.20</ele>
	<time>2023-11-18T08:02:52.000Z</time>
</trkpt>
<trkpt lat="45.8868410" lon="9.8402810">
	<ele>1399.20</ele>
	<time>2023-11-18T08:02:53.000Z</time>
</trkpt>
<trkpt lat="45.8868420" lon="9.8402960">
	<ele>1399.40</ele>
	<time>2023-11-18T08:02:54.000Z</time>
</trkpt>
<trkpt lat="45.8868460" lon="9.8403060">
	<ele>1399.40</ele>
	<time>2023-11-18T08:02:55.000Z</time>
</trkpt>
<trkpt lat="45.8868500" lon="9.8403150">
	<ele>1399.40</ele>
	<time>2023-11-18T08:02:56.000Z</time>
</trkpt>
<trkpt lat="45.8868540" lon="9.8403240">
	<ele>1399.40</ele>
	<time>2023-11-18T08:02:57.000Z</time>
</trkpt>
<trkpt lat="45.8868560" lon="9.8403360">
	<ele>1399.60</ele>
	<time>2023-11-18T08:02:58.000Z</time>
</trkpt>
<trkpt lat="45.8868600" lon="9.8403480">
	<ele>1399.60</ele>
	<time>2023-11-18T08:02:59.000Z</time>
</trkpt>
<trkpt lat="45.8868610" lon="9.8403620">
	<ele>1399.80</ele>
	<time>2023-11-18T08:03:00.000Z</time>
</trkpt>
<trkpt lat="45.8868630" lon="9.8403720">
	<ele>1399.80</ele>
	<time>2023-11-18T08:03:01.000Z</time>
</trkpt>
<trkpt lat="45.8868690" lon="9.8403800">
	<ele>1400.00</ele>
	<time>2023-11-18T08:03:02.000Z</time>
</trkpt>
<trkpt lat="45.8868740" lon="9.8403850">
	<ele>1400.00</ele>
	<time>2023-11-18T08:03:03.000Z</time>
</trkpt>
<trkpt lat="45.8868780" lon="9.8403900">
	<ele>1400.00</ele>
	<time>2023-11-18T08:03:04.000Z</time>
</trkpt>
<trkpt lat="45.8868830" lon="9.8403960">
	<ele>1400.20</ele>
	<time>2023-11-18T08:03:05.000Z</time>
</trkpt>
<trkpt lat="45.8868910" lon="9.8404000">
	<ele>1400.20</ele>
	<time>2023-11-18T08:03:06.000Z</time>
</trkpt>
<trkpt lat="45.8868960" lon="9.8404020">
	<ele>1400.40</ele>
	<time>2023-11-18T08:03:07.000Z</time>
</trkpt>
<trkpt lat="45.8869060" lon="9.8404050">
	<ele>1400.60</ele>
	<time>2023-11-18T08:03:08.000Z</time>
</trkpt>
<trkpt lat="45.8869110" lon="9.8404100">
	<ele>1400.80</ele>
	<time>2023-11-18T08:03:09.000Z</time>
</trkpt>
<trkpt lat="45.8869150" lon="9.8404180">
	<ele>1401.00</ele>
	<time>2023-11-18T08:03:10.000Z</time>
</trkpt>
<trkpt lat="45.8869200" lon="9.8404260">
	<ele>1401.20</ele>
	<time>2023-11-18T08:03:11.000Z</time>
</trkpt>
<trkpt lat="45.8869270" lon="9.8404330">
	<ele>1401.40</ele>
	<time>2023-11-18T08:03:12.000Z</time>
</trkpt>
<trkpt lat="45.8869360" lon="9.8404380">
	<ele>1401.40</ele>
	<time>2023-11-18T08:03:13.000Z</time>
</trkpt>
<trkpt lat="45.8869430" lon="9.8404400">
	<ele>1401.60</ele>
	<time>2023-11-18T08:03:14.000Z</time>
</trkpt>
<trkpt lat="45.8869470" lon="9.8404460">
	<ele>1401.80</ele>
	<time>2023-11-18T08:03:15.000Z</time>
</trkpt>
<trkpt lat="45.8869550" lon="9.8404500">
	<ele>1401.80</ele>
	<time>2023-11-18T08:03:16.000Z</time>
</trkpt>
<trkpt lat="45.8869620" lon="9.8404550">
	<ele>1402.00</ele>
	<time>2023-11-18T08:03:17.000Z</time>
</trkpt>
<trkpt lat="45.8869680" lon="9.8404580">
	<ele>1402.00</ele>
	<time>2023-11-18T08:03:18.000Z</time>
</trkpt>
<trkpt lat="45.8869720" lon="9.8404590">
	<ele>1402.00</ele>
	<time>2023-11-18T08:03:19.000Z</time>
</trkpt>
<trkpt lat="45.8869780" lon="9.8404640">
	<ele>1402.40</ele>
	<time>2023-11-18T08:03:20.000Z</time>
</trkpt>
<trkpt lat="45.8869840" lon="9.8404660">
	<ele>1402.40</ele>
	<time>2023-11-18T08:03:21.000Z</time>
</trkpt>
<trkpt lat="45.8869900" lon="9.8404640">
	<ele>1402.80</ele>
	<time>2023-11-18T08:03:22.000Z</time>
</trkpt>
<trkpt lat="45.8869930" lon="9.8404650">
	<ele>1402.80</ele>
	<time>2023-11-18T08:03:23.000Z</time>
</trkpt>
<trkpt lat="45.8869970" lon="9.8404660">
	<ele>1403.00</ele>
	<time>2023-11-18T08:03:24.000Z</time>
</trkpt>
<trkpt lat="45.8870020" lon="9.8404680">
	<ele>1403.20</ele>
	<time>2023-11-18T08:03:25.000Z</time>
</trkpt>
<trkpt lat="45.8870060" lon="9.8404670">
	<ele>1403.20</ele>
	<time>2023-11-18T08:03:26.000Z</time>
</trkpt>
<trkpt lat="45.8870140" lon="9.8404630">
	<ele>1403.20</ele>
	<time>2023-11-18T08:03:27.000Z</time>
</trkpt>
<trkpt lat="45.8870170" lon="9.8404670">
	<ele>1403.40</ele>
	<time>2023-11-18T08:03:28.000Z</time>
</trkpt>
<trkpt lat="45.8870200" lon="9.8404690">
	<ele>1403.60</ele>
	<time>2023-11-18T08:03:29.000Z</time>
</trkpt>
<trkpt lat="45.8870250" lon="9.8404720">
	<ele>1403.60</ele>
	<time>2023-11-18T08:03:30.000Z</time>
</trkpt>
<trkpt lat="45.8870290" lon="9.8404760">
	<ele>1403.80</ele>
	<time>2023-11-18T08:03:31.000Z</time>
</trkpt>
<trkpt lat="45.8870350" lon="9.8404780">
	<ele>1404.00</ele>
	<time>2023-11-18T08:03:32.000Z</time>
</trkpt>
<trkpt lat="45.8870390" lon="9.8404780">
	<ele>1404.00</ele>
	<time>2023-11-18T08:03:33.000Z</time>
</trkpt>
<trkpt lat="45.8870420" lon="9.8404780">
	<ele>1404.20</ele>
	<time>2023-11-18T08:03:34.000Z</time>
</trkpt>
<trkpt lat="45.8870460" lon="9.8404800">
	<ele>1404.40</ele>
	<time>2023-11-18T08:03:35.000Z</time>
</trkpt>
<trkpt lat="45.8870500" lon="9.8404820">
	<ele>1404.60</ele>
	<time>2023-11-18T08:03:36.000Z</time>
</trkpt>
<trkpt lat="45.8870580" lon="9.8404850">
	<ele>1404.80</ele>
	<time>2023-11-18T08:03:37.000Z</time>
</trkpt>
<trkpt lat="45.8870630" lon="9.8404840">
	<ele>1405.00</ele>
	<time>2023-11-18T08:03:38.000Z</time>
</trkpt>
<trkpt lat="45.8870670" lon="9.8404860">
	<ele>1405.00</ele>
	<time>2023-11-18T08:03:39.000Z</time>
</trkpt>
<trkpt lat="45.8870730" lon="9.8404870">
	<ele>1405.20</ele>
	<time>2023-11-18T08:03:40.000Z</time>
</trkpt>
<trkpt lat="45.8870780" lon="9.8404900">
	<ele>1405.20</ele>
	<time>2023-11-18T08:03:41.000Z</time>
</trkpt>
<trkpt lat="45.8870810" lon="9.8404950">
	<ele>1405.40</ele>
	<time>2023-11-18T08:03:42.000Z</time>
</trkpt>
<trkpt lat="45.8870870" lon="9.8404900">
	<ele>1405.60</ele>
	<time>2023-11-18T08:03:43.000Z</time>
</trkpt>
<trkpt lat="45.8870930" lon="9.8404820">
	<ele>1406.00</ele>
	<time>2023-11-18T08:03:44.000Z</time>
</trkpt>
<trkpt lat="45.8870980" lon="9.8404770">
	<ele>1406.00</ele>
	<time>2023-11-18T08:03:45.000Z</time>
</trkpt>
<trkpt lat="45.8871030" lon="9.8404750">
	<ele>1406.20</ele>
	<time>2023-11-18T08:03:46.000Z</time>
</trkpt>
<trkpt lat="45.8871070" lon="9.8404740">
	<ele>1406.40</ele>
	<time>2023-11-18T08:03:47.000Z</time>
</trkpt>
<trkpt lat="45.8871130" lon="9.8404720">
	<ele>1406.60</ele>
	<time>2023-11-18T08:03:48.000Z</time>
</trkpt>
<trkpt lat="45.8871200" lon="9.8404740">
	<ele>1406.80</ele>
	<time>2023-11-18T08:03:49.000Z</time>
</trkpt>
<trkpt lat="45.8871260" lon="9.8404740">
	<ele>1406.80</ele>
	<time>2023-11-18T08:03:50.000Z</time>
</trkpt>
<trkpt lat="45.8871320" lon="9.8404660">
	<ele>1407.00</ele>
	<time>2023-11-18T08:03:51.000Z</time>
</trkpt>
<trkpt lat="45.8871360" lon="9.8404620">
	<ele>1407.00</ele>
	<time>2023-11-18T08:03:52.000Z</time>
</trkpt>
<trkpt lat="45.8871390" lon="9.8404610">
	<ele>1407.00</ele>
	<time>2023-11-18T08:03:53.000Z</time>
</trkpt>
<trkpt lat="45.8871420" lon="9.8404630">
	<ele>1407.20</ele>
	<time>2023-11-18T08:03:54.000Z</time>
</trkpt>
<trkpt lat="45.8871480" lon="9.8404670">
	<ele>1407.40</ele>
	<time>2023-11-18T08:03:55.000Z</time>
</trkpt>
<trkpt lat="45.8871520" lon="9.8404750">
	<ele>1407.60</ele>
	<time>2023-11-18T08:03:56.000Z</time>
</trkpt>
<trkpt lat="45.8871590" lon="9.8404840">
	<ele>1407.60</ele>
	<time>2023-11-18T08:03:57.000Z</time>
</trkpt>
<trkpt lat="45.8871680" lon="9.8404860">
	<ele>1407.80</ele>
	<time>2023-11-18T08:03:58.000Z</time>
</trkpt>
<trkpt lat="45.8871770" lon="9.8404810">
	<ele>1407.80</ele>
	<time>2023-11-18T08:03:59.000Z</time>
</trkpt>
<trkpt lat="45.8871870" lon="9.8404750">
	<ele>1408.00</ele>
	<time>2023-11-18T08:04:00.000Z</time>
</trkpt>
<trkpt lat="45.8871950" lon="9.8404720">
	<ele>1408.20</ele>
	<time>2023-11-18T08:04:01.000Z</time>
</trkpt>
<trkpt lat="45.8872030" lon="9.8404690">
	<ele>1408.20</ele>
	<time>2023-11-18T08:04:02.000Z</time>
</trkpt>
<trkpt lat="45.8872110" lon="9.8404700">
	<ele>1408.40</ele>
	<time>2023-11-18T08:04:03.000Z</time>
</trkpt>
<trkpt lat="45.8872200" lon="9.8404690">
	<ele>1408.40</ele>
	<time>2023-11-18T08:04:04.000Z</time>
</trkpt>
<trkpt lat="45.8872270" lon="9.8404620">
	<ele>1408.40</ele>
	<time>2023-11-18T08:04:05.000Z</time>
</trkpt>
<trkpt lat="45.8872300" lon="9.8404560">
	<ele>1408.60</ele>
	<time>2023-11-18T08:04:06.000Z</time>
</trkpt>
<trkpt lat="45.8872350" lon="9.8404500">
	<ele>1408.80</ele>
	<time>2023-11-18T08:04:07.000Z</time>
</trkpt>
<trkpt lat="45.8872380" lon="9.8404450">
	<ele>1409.20</ele>
	<time>2023-11-18T08:04:08.000Z</time>
</trkpt>
<trkpt lat="45.8872400" lon="9.8404380">
	<ele>1409.60</ele>
	<time>2023-11-18T08:04:09.000Z</time>
</trkpt>
<trkpt lat="45.8872420" lon="9.8404360">
	<ele>1409.60</ele>
	<time>2023-11-18T08:04:10.000Z</time>
</trkpt>
<trkpt lat="45.8872480" lon="9.8404320">
	<ele>1410.00</ele>
	<time>2023-11-18T08:04:11.000Z</time>
</trkpt>
<trkpt lat="45.8872530" lon="9.8404250">
	<ele>1410.00</ele>
	<time>2023-11-18T08:04:12.000Z</time>
</trkpt>
<trkpt lat="45.8872580" lon="9.8404160">
	<ele>1410.20</ele>
	<time>2023-11-18T08:04:13.000Z</time>
</trkpt>
<trkpt lat="45.8872650" lon="9.8404120">
	<ele>1410.40</ele>
	<time>2023-11-18T08:04:14.000Z</time>
</trkpt>
<trkpt lat="45.8872710" lon="9.8404100">
	<ele>1410.40</ele>
	<time>2023-11-18T08:04:15.000Z</time>
</trkpt>
<trkpt lat="45.8872780" lon="9.8404120">
	<ele>1410.40</ele>
	<time>2023-11-18T08:04:16.000Z</time>
</trkpt>
<trkpt lat="45.8872850" lon="9.8404130">
	<ele>1410.60</ele>
	<time>2023-11-18T08:04:17.000Z</time>
</trkpt>
<trkpt lat="45.8872950" lon="9.8404100">
	<ele>1410.60</ele>
	<time>2023-11-18T08:04:18.000Z</time>
</trkpt>
<trkpt lat="45.8873000" lon="9.8404100">
	<ele>1410.60</ele>
	<time>2023-11-18T08:04:19.000Z</time>
</trkpt>
<trkpt lat="45.8873040" lon="9.8404070">
	<ele>1410.80</ele>
	<time>2023-11-18T08:04:20.000Z</time>
</trkpt>
<trkpt lat="45.8873110" lon="9.8404050">
	<ele>1411.00</ele>
	<time>2023-11-18T08:04:21.000Z</time>
</trkpt>
<trkpt lat="45.8873150" lon="9.8404040">
	<ele>1411.00</ele>
	<time>2023-11-18T08:04:22.000Z</time>
</trkpt>
<trkpt lat="45.8873210" lon="9.8403990">
	<ele>1411.20</ele>
	<time>2023-11-18T08:04:23.000Z</time>
</trkpt>
<trkpt lat="45.8873270" lon="9.8403970">
	<ele>1411.40</ele>
	<time>2023-11-18T08:04:24.000Z</time>
</trkpt>
<trkpt lat="45.8873330" lon="9.8404010">
	<ele>1411.60</ele>
	<time>2023-11-18T08:04:25.000Z</time>
</trkpt>
<trkpt lat="45.8873420" lon="9.8404000">
	<ele>1411.80</ele>
	<time>2023-11-18T08:04:26.000Z</time>
</trkpt>
<trkpt lat="45.8873530" lon="9.8403980">
	<ele>1411.80</ele>
	<time>2023-11-18T08:04:27.000Z</time>
</trkpt>
<trkpt lat="45.8873620" lon="9.8403940">
	<ele>1411.80</ele>
	<time>2023-11-18T08:04:28.000Z</time>
</trkpt>
<trkpt lat="45.8873660" lon="9.8403890">
	<ele>1412.00</ele>
	<time>2023-11-18T08:04:29.000Z</time>
</trkpt>
<trkpt lat="45.8873680" lon="9.8403840">
	<ele>1412.20</ele>
	<time>2023-11-18T08:04:30.000Z</time>
</trkpt>
<trkpt lat="45.8873730" lon="9.8403770">
	<ele>1412.40</ele>
	<time>2023-11-18T08:04:31.000Z</time>
</trkpt>
<trkpt lat="45.8873800" lon="9.8403740">
	<ele>1412.40</ele>
	<time>2023-11-18T08:04:32.000Z</time>
</trkpt>
<trkpt lat="45.8873890" lon="9.8403740">
	<ele>1412.40</ele>
	<time>2023-11-18T08:04:33.000Z</time>
</trkpt>
<trkpt lat="45.8873940" lon="9.8403770">
	<ele>1412.60</ele>
	<time>2023-11-18T08:04:34.000Z</time>
</trkpt>
<trkpt lat="45.8873990" lon="9.8403780">
	<ele>1412.80</ele>
	<time>2023-11-18T08:04:35.000Z</time>
</trkpt>
<trkpt lat="45.8874050" lon="9.8403760">
	<ele>1413.00</ele>
	<time>2023-11-18T08:04:36.000Z</time>
</trkpt>
<trkpt lat="45.8874100" lon="9.8403780">
	<ele>1413.20</ele>
	<time>2023-11-18T08:04:37.000Z</time>
</trkpt>
<trkpt lat="45.8874120" lon="9.8403740">
	<ele>1413.40</ele>
	<time>2023-11-18T08:04:38.000Z</time>
</trkpt>
<trkpt lat="45.8874180" lon="9.8403750">
	<ele>1413.40</ele>
	<time>2023-11-18T08:04:39.000Z</time>
</trkpt>
<trkpt lat="45.8874240" lon="9.8403750">
	<ele>1413.40</ele>
	<time>2023-11-18T08:04:40.000Z</time>
</trkpt>
<trkpt lat="45.8874300" lon="9.8403720">
	<ele>1413.60</ele>
	<time>2023-11-18T08:04:41.000Z</time>
</trkpt>
<trkpt lat="45.8874400" lon="9.8403660">
	<ele>1413.60</ele>
	<time>2023-11-18T08:04:42.000Z</time>
</trkpt>
<trkpt lat="45.8874460" lon="9.8403680">
	<ele>1413.80</ele>
	<time>2023-11-18T08:04:43.000Z</time>
</trkpt>
<trkpt lat="45.8874540" lon="9.8403640">
	<ele>1414.00</ele>
	<time>2023-11-18T08:04:44.000Z</time>
</trkpt>
<trkpt lat="45.8874610" lon="9.8403610">
	<ele>1414.20</ele>
	<time>2023-11-18T08:04:45.000Z</time>
</trkpt>
<trkpt lat="45.8874620" lon="9.8403610">
	<ele>1414.40</ele>
	<time>2023-11-18T08:04:46.000Z</time>
</trkpt>
<trkpt lat="45.8874670" lon="9.8403550">
	<ele>1414.60</ele>
	<time>2023-11-18T08:04:47.000Z</time>
</trkpt>
<trkpt lat="45.8874740" lon="9.8403500">
	<ele>1414.80</ele>
	<time>2023-11-18T08:04:48.000Z</time>
</trkpt>
<trkpt lat="45.8874760" lon="9.8403460">
	<ele>1415.00</ele>
	<time>2023-11-18T08:04:49.000Z</time>
</trkpt>
<trkpt lat="45.8874810" lon="9.8403410">
	<ele>1415.00</ele>
	<time>2023-11-18T08:04:50.000Z</time>
</trkpt>
<trkpt lat="45.8874900" lon="9.8403370">
	<ele>1415.20</ele>
	<time>2023-11-18T08:04:51.000Z</time>
</trkpt>
<trkpt lat="45.8874930" lon="9.8403320">
	<ele>1415.20</ele>
	<time>2023-11-18T08:04:52.000Z</time>
</trkpt>
<trkpt lat="45.8874960" lon="9.8403220">
	<ele>1415.20</ele>
	<time>2023-11-18T08:04:53.000Z</time>
</trkpt>
<trkpt lat="45.8875000" lon="9.8403130">
	<ele>1415.40</ele>
	<time>2023-11-18T08:04:54.000Z</time>
</trkpt>
<trkpt lat="45.8875010" lon="9.8403080">
	<ele>1415.60</ele>
	<time>2023-11-18T08:04:55.000Z</time>
</trkpt>
<trkpt lat="45.8875020" lon="9.8403050">
	<ele>1415.80</ele>
	<time>2023-11-18T08:04:56.000Z</time>
</trkpt>
<trkpt lat="45.8875050" lon="9.8403020">
	<ele>1415.80</ele>
	<time>2023-11-18T08:04:57.000Z</time>
</trkpt>
<trkpt lat="45.8875100" lon="9.8403000">
	<ele>1416.00</ele>
	<time>2023-11-18T08:04:58.000Z</time>
</trkpt>
<trkpt lat="45.8875210" lon="9.8403040">
	<ele>1416.00</ele>
	<time>2023-11-18T08:04:59.000Z</time>
</trkpt>
<trkpt lat="45.8875250" lon="9.8403010">
	<ele>1416.20</ele>
	<time>2023-11-18T08:05:00.000Z</time>
</trkpt>
<trkpt lat="45.8875280" lon="9.8403000">
	<ele>1416.20</ele>
	<time>2023-11-18T08:05:01.000Z</time>
</trkpt>
<trkpt lat="45.8875330" lon="9.8403020">
	<ele>1416.40</ele>
	<time>2023-11-18T08:05:02.000Z</time>
</trkpt>
<trkpt lat="45.8875370" lon="9.8403080">
	<ele>1416.60</ele>
	<time>2023-11-18T08:05:03.000Z</time>
</trkpt>
<trkpt lat="45.8875390" lon="9.8403140">
	<ele>1416.60</ele>
	<time>2023-11-18T08:05:04.000Z</time>
</trkpt>
<trkpt lat="45.8875410" lon="9.8403020">
	<ele>1416.80</ele>
	<time>2023-11-18T08:05:05.000Z</time>
</trkpt>
<trkpt lat="45.8875400" lon="9.8402980">
	<ele>1416.80</ele>
	<time>2023-11-18T08:05:06.000Z</time>
</trkpt>
<trkpt lat="45.8875410" lon="9.8402950">
	<ele>1417.20</ele>
	<time>2023-11-18T08:05:07.000Z</time>
</trkpt>
<trkpt lat="45.8875440" lon="9.8402840">
	<ele>1417.40</ele>
	<time>2023-11-18T08:05:08.000Z</time>
</trkpt>
<trkpt lat="45.8875470" lon="9.8402790">
	<ele>1417.60</ele>
	<time>2023-11-18T08:05:09.000Z</time>
</trkpt>
<trkpt lat="45.8875490" lon="9.8402740">
	<ele>1417.60</ele>
	<time>2023-11-18T08:05:10.000Z</time>
</trkpt>
<trkpt lat="45.8875520" lon="9.8402710">
	<ele>1417.80</ele>
	<time>2023-11-18T08:05:11.000Z</time>
</trkpt>
<trkpt lat="45.8875590" lon="9.8402700">
	<ele>1417.80</ele>
	<time>2023-11-18T08:05:12.000Z</time>
</trkpt>
<trkpt lat="45.8875670" lon="9.8402670">
	<ele>1418.00</ele>
	<time>2023-11-18T08:05:13.000Z</time>
</trkpt>
<trkpt lat="45.8875750" lon="9.8402590">
	<ele>1418.00</ele>
	<time>2023-11-18T08:05:14.000Z</time>
</trkpt>
<trkpt lat="45.8875800" lon="9.8402540">
	<ele>1418.20</ele>
	<time>2023-11-18T08:05:15.000Z</time>
</trkpt>
<trkpt lat="45.8875850" lon="9.8402490">
	<ele>1418.20</ele>
	<time>2023-11-18T08:05:16.000Z</time>
</trkpt>
<trkpt lat="45.8875880" lon="9.8402440">
	<ele>1418.40</ele>
	<time>2023-11-18T08:05:17.000Z</time>
</trkpt>
<trkpt lat="45.8875920" lon="9.8402370">
	<ele>1418.60</ele>
	<time>2023-11-18T08:05:18.000Z</time>
</trkpt>
<trkpt lat="45.8875950" lon="9.8402280">
	<ele>1418.80</ele>
	<time>2023-11-18T08:05:19.000Z</time>
</trkpt>
<trkpt lat="45.8875990" lon="9.8402230">
	<ele>1419.00</ele>
	<time>2023-11-18T08:05:20.000Z</time>
</trkpt>
<trkpt lat="45.8876080" lon="9.8402210">
	<ele>1419.20</ele>
	<time>2023-11-18T08:05:21.000Z</time>
</trkpt>
<trkpt lat="45.8876170" lon="9.8402210">
	<ele>1419.40</ele>
	<time>2023-11-18T08:05:22.000Z</time>
</trkpt>
<trkpt lat="45.8876240" lon="9.8402210">
	<ele>1419.40</ele>
	<time>2023-11-18T08:05:23.000Z</time>
</trkpt>
<trkpt lat="45.8876310" lon="9.8402190">
	<ele>1419.60</ele>
	<time>2023-11-18T08:05:24.000Z</time>
</trkpt>
<trkpt lat="45.8876390" lon="9.8402170">
	<ele>1419.60</ele>
	<time>2023-11-18T08:05:25.000Z</time>
</trkpt>
<trkpt lat="45.8876460" lon="9.8402170">
	<ele>1419.60</ele>
	<time>2023-11-18T08:05:26.000Z</time>
</trkpt>
<trkpt lat="45.8876520" lon="9.8402140">
	<ele>1419.80</ele>
	<time>2023-11-18T08:05:27.000Z</time>
</trkpt>
<trkpt lat="45.8876590" lon="9.8402080">
	<ele>1420.00</ele>
	<time>2023-11-18T08:05:28.000Z</time>
</trkpt>
<trkpt lat="45.8876670" lon="9.8402040">
	<ele>1420.20</ele>
	<time>2023-11-18T08:05:29.000Z</time>
</trkpt>
<trkpt lat="45.8876760" lon="9.8402010">
	<ele>1420.40</ele>
	<time>2023-11-18T08:05:30.000Z</time>
</trkpt>
<trkpt lat="45.8876850" lon="9.8401930">
	<ele>1420.60</ele>
	<time>2023-11-18T08:05:31.000Z</time>
</trkpt>
<trkpt lat="45.8876920" lon="9.8401840">
	<ele>1420.80</ele>
	<time>2023-11-18T08:05:32.000Z</time>
</trkpt>
<trkpt lat="45.8877000" lon="9.8401760">
	<ele>1420.80</ele>
	<time>2023-11-18T08:05:33.000Z</time>
</trkpt>
<trkpt lat="45.8877080" lon="9.8401700">
	<ele>1421.00</ele>
	<time>2023-11-18T08:05:34.000Z</time>
</trkpt>
<trkpt lat="45.8877140" lon="9.8401630">
	<ele>1421.00</ele>
	<time>2023-11-18T08:05:35.000Z</time>
</trkpt>
<trkpt lat="45.8877210" lon="9.8401520">
	<ele>1421.00</ele>
	<time>2023-11-18T08:05:36.000Z</time>
</trkpt>
<trkpt lat="45.8877260" lon="9.8401440">
	<ele>1421.20</ele>
	<time>2023-11-18T08:05:37.000Z</time>
</trkpt>
<trkpt lat="45.8877290" lon="9.8401390">
	<ele>1421.60</ele>
	<time>2023-11-18T08:05:38.000Z</time>
</trkpt>
<trkpt lat="45.8877320" lon="9.8401340">
	<ele>1421.80</ele>
	<time>2023-11-18T08:05:39.000Z</time>
</trkpt>
<trkpt lat="45.8877390" lon="9.8401280">
	<ele>1422.00</ele>
	<time>2023-11-18T08:05:40.000Z</time>
</trkpt>
<trkpt lat="45.8877500" lon="9.8401240">
	<ele>1422.00</ele>
	<time>2023-11-18T08:05:41.000Z</time>
</trkpt>
<trkpt lat="45.8877590" lon="9.8401180">
	<ele>1422.20</ele>
	<time>2023-11-18T08:05:42.000Z</time>
</trkpt>
<trkpt lat="45.8877700" lon="9.8401090">
	<ele>1422.20</ele>
	<time>2023-11-18T08:05:43.000Z</time>
</trkpt>
<trkpt lat="45.8877830" lon="9.8400950">
	<ele>1422.40</ele>
	<time>2023-11-18T08:05:44.000Z</time>
</trkpt>
<trkpt lat="45.8877890" lon="9.8400840">
	<ele>1422.60</ele>
	<time>2023-11-18T08:05:45.000Z</time>
</trkpt>
<trkpt lat="45.8877950" lon="9.8400800">
	<ele>1422.60</ele>
	<time>2023-11-18T08:05:46.000Z</time>
</trkpt>
<trkpt lat="45.8878000" lon="9.8400710">
	<ele>1422.80</ele>
	<time>2023-11-18T08:05:47.000Z</time>
</trkpt>
<trkpt lat="45.8878080" lon="9.8400630">
	<ele>1422.80</ele>
	<time>2023-11-18T08:05:48.000Z</time>
</trkpt>
<trkpt lat="45.8878140" lon="9.8400630">
	<ele>1423.00</ele>
	<time>2023-11-18T08:05:49.000Z</time>
</trkpt>
<trkpt lat="45.8878190" lon="9.8400560">
	<ele>1423.20</ele>
	<time>2023-11-18T08:05:50.000Z</time>
</trkpt>
<trkpt lat="45.8878260" lon="9.8400450">
	<ele>1423.20</ele>
	<time>2023-11-18T08:05:51.000Z</time>
</trkpt>
<trkpt lat="45.8878300" lon="9.8400370">
	<ele>1423.40</ele>
	<time>2023-11-18T08:05:52.000Z</time>
</trkpt>
<trkpt lat="45.8878320" lon="9.8400290">
	<ele>1423.40</ele>
	<time>2023-11-18T08:05:53.000Z</time>
</trkpt>
<trkpt lat="45.8878340" lon="9.8400230">
	<ele>1423.60</ele>
	<time>2023-11-18T08:05:54.000Z</time>
</trkpt>
<trkpt lat="45.8878420" lon="9.8400180">
	<ele>1424.00</ele>
	<time>2023-11-18T08:05:55.000Z</time>
</trkpt>
<trkpt lat="45.8878550" lon="9.8400150">
	<ele>1424.20</ele>
	<time>2023-11-18T08:05:56.000Z</time>
</trkpt>
<trkpt lat="45.8878590" lon="9.8400100">
	<ele>1424.20</ele>
	<time>2023-11-18T08:05:57.000Z</time>
</trkpt>
<trkpt lat="45.8878650" lon="9.8400030">
	<ele>1424.20</ele>
	<time>2023-11-18T08:05:58.000Z</time>
</trkpt>
<trkpt lat="45.8878730" lon="9.8399930">
	<ele>1424.40</ele>
	<time>2023-11-18T08:05:59.000Z</time>
</trkpt>
<trkpt lat="45.8878770" lon="9.8399830">
	<ele>1424.40</ele>
	<time>2023-11-18T08:06:00.000Z</time>
</trkpt>
<trkpt lat="45.8878840" lon="9.8399700">
	<ele>1424.80</ele>
	<time>2023-11-18T08:06:01.000Z</time>
</trkpt>
<trkpt lat="45.8878900" lon="9.8399550">
	<ele>1424.80</ele>
	<time>2023-11-18T08:06:02.000Z</time>
</trkpt>
<trkpt lat="45.8878930" lon="9.8399480">
	<ele>1425.00</ele>
	<time>2023-11-18T08:06:03.000Z</time>
</trkpt>
<trkpt lat="45.8878960" lon="9.8399380">
	<ele>1425.00</ele>
	<time>2023-11-18T08:06:04.000Z</time>
</trkpt>
<trkpt lat="45.8878990" lon="9.8399280">
	<ele>1425.20</ele>
	<time>2023-11-18T08:06:05.000Z</time>
</trkpt>
<trkpt lat="45.8879040" lon="9.8399190">
	<ele>1425.40</ele>
	<time>2023-11-18T08:06:06.000Z</time>
</trkpt>
<trkpt lat="45.8879110" lon="9.8399110">
	<ele>1425.40</ele>
	<time>2023-11-18T08:06:07.000Z</time>
</trkpt>
<trkpt lat="45.8879170" lon="9.8399050">
	<ele>1425.60</ele>
	<time>2023-11-18T08:06:08.000Z</time>
</trkpt>
<trkpt lat="45.8879200" lon="9.8398990">
	<ele>1425.80</ele>
	<time>2023-11-18T08:06:09.000Z</time>
</trkpt>
<trkpt lat="45.8879240" lon="9.8398920">
	<ele>1426.00</ele>
	<time>2023-11-18T08:06:10.000Z</time>
</trkpt>
<trkpt lat="45.8879320" lon="9.8398860">
	<ele>1426.00</ele>
	<time>2023-11-18T08:06:11.000Z</time>
</trkpt>
<trkpt lat="45.8879420" lon="9.8398810">
	<ele>1426.20</ele>
	<time>2023-11-18T08:06:12.000Z</time>
</trkpt>
<trkpt lat="45.8879490" lon="9.8398760">
	<ele>1426.20</ele>
	<time>2023-11-18T08:06:13.000Z</time>
</trkpt>
<trkpt lat="45.8879590" lon="9.8398700">
	<ele>1426.20</ele>
	<time>2023-11-18T08:06:14.000Z</time>
</trkpt>
<trkpt lat="45.8879670" lon="9.8398630">
	<ele>1426.20</ele>
	<time>2023-11-18T08:06:15.000Z</time>
</trkpt>
<trkpt lat="45.8879770" lon="9.8398580">
	<ele>1426.40</ele>
	<time>2023-11-18T08:06:16.000Z</time>
</trkpt>
<trkpt lat="45.8879870" lon="9.8398510">
	<ele>1426.40</ele>
	<time>2023-11-18T08:06:17.000Z</time>
</trkpt>
<trkpt lat="45.8879920" lon="9.8398450">
	<ele>1426.40</ele>
	<time>2023-11-18T08:06:18.000Z</time>
</trkpt>
<trkpt lat="45.8880010" lon="9.8398400">
	<ele>1426.60</ele>
	<time>2023-11-18T08:06:19.000Z</time>
</trkpt>
<trkpt lat="45.8880100" lon="9.8398320">
	<ele>1426.60</ele>
	<time>2023-11-18T08:06:20.000Z</time>
</trkpt>
<trkpt lat="45.8880180" lon="9.8398230">
	<ele>1426.60</ele>
	<time>2023-11-18T08:06:21.000Z</time>
</trkpt>
<trkpt lat="45.8880250" lon="9.8398190">
	<ele>1426.80</ele>
	<time>2023-11-18T08:06:22.000Z</time>
</trkpt>
<trkpt lat="45.8880320" lon="9.8398120">
	<ele>1427.00</ele>
	<time>2023-11-18T08:06:23.000Z</time>
</trkpt>
<trkpt lat="45.8880370" lon="9.8398040">
	<ele>1427.00</ele>
	<time>2023-11-18T08:06:24.000Z</time>
</trkpt>
<trkpt lat="45.8880430" lon="9.8398000">
	<ele>1427.20</ele>
	<time>2023-11-18T08:06:25.000Z</time>
</trkpt>
<trkpt lat="45.8880470" lon="9.8397970">
	<ele>1427.40</ele>
	<time>2023-11-18T08:06:26.000Z</time>
</trkpt>
<trkpt lat="45.8880520" lon="9.8398000">
	<ele>1427.40</ele>
	<time>2023-11-18T08:06:27.000Z</time>
</trkpt>
<trkpt lat="45.8880570" lon="9.8398030">
	<ele>1427.40</ele>
	<time>2023-11-18T08:06:28.000Z</time>
</trkpt>
<trkpt lat="45.8880630" lon="9.8398020">
	<ele>1427.40</ele>
	<time>2023-11-18T08:06:29.000Z</time>
</trkpt>
<trkpt lat="45.8880710" lon="9.8398000">
	<ele>1427.40</ele>
	<time>2023-11-18T08:06:30.000Z</time>
</trkpt>
<trkpt lat="45.8880820" lon="9.8397940">
	<ele>1427.20</ele>
	<time>2023-11-18T08:06:31.000Z</time>
</trkpt>
<trkpt lat="45.8880920" lon="9.8397830">
	<ele>1427.20</ele>
	<time>2023-11-18T08:06:32.000Z</time>
</trkpt>
<trkpt lat="45.8881040" lon="9.8397760">
	<ele>1427.20</ele>
	<time>2023-11-18T08:06:33.000Z</time>
</trkpt>
<trkpt lat="45.8881130" lon="9.8397720">
	<ele>1427.20</ele>
	<time>2023-11-18T08:06:34.000Z</time>
</trkpt>
<trkpt lat="45.8881170" lon="9.8397670">
	<ele>1427.20</ele>
	<time>2023-11-18T08:06:35.000Z</time>
</trkpt>
<trkpt lat="45.8881200" lon="9.8397620">
	<ele>1427.40</ele>
	<time>2023-11-18T08:06:36.000Z</time>
</trkpt>
<trkpt lat="45.8881230" lon="9.8397520">
	<ele>1427.40</ele>
	<time>2023-11-18T08:06:37.000Z</time>
</trkpt>
<trkpt lat="45.8881240" lon="9.8397460">
	<ele>1427.40</ele>
	<time>2023-11-18T08:06:38.000Z</time>
</trkpt>
<trkpt lat="45.8881310" lon="9.8397400">
	<ele>1427.60</ele>
	<time>2023-11-18T08:06:39.000Z</time>
</trkpt>
<trkpt lat="45.8881360" lon="9.8397340">
	<ele>1427.80</ele>
	<time>2023-11-18T08:06:40.000Z</time>
</trkpt>
<trkpt lat="45.8881380" lon="9.8397300">
	<ele>1427.80</ele>
	<time>2023-11-18T08:06:41.000Z</time>
</trkpt>
<trkpt lat="45.8881430" lon="9.8397280">
	<ele>1428.00</ele>
	<time>2023-11-18T08:06:42.000Z</time>
</trkpt>
<trkpt lat="45.8881480" lon="9.8397240">
	<ele>1428.00</ele>
	<time>2023-11-18T08:06:43.000Z</time>
</trkpt>
<trkpt lat="45.8881540" lon="9.8397200">
	<ele>1428.20</ele>
	<time>2023-11-18T08:06:44.000Z</time>
</trkpt>
<trkpt lat="45.8881620" lon="9.8397160">
	<ele>1428.20</ele>
	<time>2023-11-18T08:06:45.000Z</time>
</trkpt>
<trkpt lat="45.8881710" lon="9.8397120">
	<ele>1428.20</ele>
	<time>2023-11-18T08:06:46.000Z</time>
</trkpt>
<trkpt lat="45.8881800" lon="9.8397070">
	<ele>1428.20</ele>
	<time>2023-11-18T08:06:47.000Z</time>
</trkpt>
<trkpt lat="45.8881890" lon="9.8397060">
	<ele>1428.20</ele>
	<time>2023-11-18T08:06:48.000Z</time>
</trkpt>
<trkpt lat="45.8881970" lon="9.8397000">
	<ele>1428.20</ele>
	<time>2023-11-18T08:06:49.000Z</time>
</trkpt>
<trkpt lat="45.8882020" lon="9.8396920">
	<ele>1428.20</ele>
	<time>2023-11-18T08:06:50.000Z</time>
</trkpt>
<trkpt lat="45.8882070" lon="9.8396840">
	<ele>1428.20</ele>
	<time>2023-11-18T08:06:51.000Z</time>
</trkpt>
<trkpt lat="45.8882150" lon="9.8396740">
	<ele>1428.20</ele>
	<time>2023-11-18T08:06:52.000Z</time>
</trkpt>
<trkpt lat="45.8882190" lon="9.8396650">
	<ele>1428.20</ele>
	<time>2023-11-18T08:06:53.000Z</time>
</trkpt>
<trkpt lat="45.8882220" lon="9.8396550">
	<ele>1428.40</ele>
	<time>2023-11-18T08:06:54.000Z</time>
</trkpt>
<trkpt lat="45.8882240" lon="9.8396500">
	<ele>1428.40</ele>
	<time>2023-11-18T08:06:55.000Z</time>
</trkpt>
<trkpt lat="45.8882320" lon="9.8396500">
	<ele>1428.60</ele>
	<time>2023-11-18T08:06:56.000Z</time>
</trkpt>
<trkpt lat="45.8882440" lon="9.8396470">
	<ele>1428.80</ele>
	<time>2023-11-18T08:06:57.000Z</time>
</trkpt>
<trkpt lat="45.8882530" lon="9.8396390">
	<ele>1428.80</ele>
	<time>2023-11-18T08:06:58.000Z</time>
</trkpt>
<trkpt lat="45.8882610" lon="9.8396330">
	<ele>1428.80</ele>
	<time>2023-11-18T08:06:59.000Z</time>
</trkpt>
<trkpt lat="45.8882670" lon="9.8396290">
	<ele>1429.00</ele>
	<time>2023-11-18T08:07:00.000Z</time>
</trkpt>
<trkpt lat="45.8882700" lon="9.8396250">
	<ele>1429.00</ele>
	<time>2023-11-18T08:07:01.000Z</time>
</trkpt>
<trkpt lat="45.8882740" lon="9.8396220">
	<ele>1429.00</ele>
	<time>2023-11-18T08:07:02.000Z</time>
</trkpt>
<trkpt lat="45.8882760" lon="9.8396160">
	<ele>1429.00</ele>
	<time>2023-11-18T08:07:03.000Z</time>
</trkpt>
<trkpt lat="45.8882800" lon="9.8396130">
	<ele>1429.00</ele>
	<time>2023-11-18T08:07:04.000Z</time>
</trkpt>
<trkpt lat="45.8882840" lon="9.8396090">
	<ele>1429.00</ele>
	<time>2023-11-18T08:07:05.000Z</time>
</trkpt>
<trkpt lat="45.8882910" lon="9.8396150">
	<ele>1429.20</ele>
	<time>2023-11-18T08:07:06.000Z</time>
</trkpt>
<trkpt lat="45.8882990" lon="9.8396180">
	<ele>1429.20</ele>
	<time>2023-11-18T08:07:07.000Z</time>
</trkpt>
<trkpt lat="45.8883070" lon="9.8396270">
	<ele>1429.40</ele>
	<time>2023-11-18T08:07:08.000Z</time>
</trkpt>
<trkpt lat="45.8883180" lon="9.8396250">
	<ele>1429.40</ele>
	<time>2023-11-18T08:07:09.000Z</time>
</trkpt>
<trkpt lat="45.8883310" lon="9.8396130">
	<ele>1429.60</ele>
	<time>2023-11-18T08:07:10.000Z</time>
</trkpt>
<trkpt lat="45.8883340" lon="9.8396100">
	<ele>1429.60</ele>
	<time>2023-11-18T08:07:11.000Z</time>
</trkpt>
<trkpt lat="45.8883410" lon="9.8396030">
	<ele>1429.60</ele>
	<time>2023-11-18T08:07:12.000Z</time>
</trkpt>
<trkpt lat="45.8883470" lon="9.8396000">
	<ele>1429.60</ele>
	<time>2023-11-18T08:07:13.000Z</time>
</trkpt>
<trkpt lat="45.8883540" lon="9.8395950">
	<ele>1429.80</ele>
	<time>2023-11-18T08:07:14.000Z</time>
</trkpt>
<trkpt lat="45.8883620" lon="9.8395890">
	<ele>1429.80</ele>
	<time>2023-11-18T08:07:15.000Z</time>
</trkpt>
<trkpt lat="45.8883700" lon="9.8395790">
	<ele>1429.80</ele>
	<time>2023-11-18T08:07:16.000Z</time>
</trkpt>
<trkpt lat="45.8883800" lon="9.8395770">
	<ele>1430.00</ele>
	<time>2023-11-18T08:07:17.000Z</time>
</trkpt>
<trkpt lat="45.8883880" lon="9.8395780">
	<ele>1430.00</ele>
	<time>2023-11-18T08:07:18.000Z</time>
</trkpt>
<trkpt lat="45.8883990" lon="9.8395800">
	<ele>1430.00</ele>
	<time>2023-11-18T08:07:19.000Z</time>
</trkpt>
<trkpt lat="45.8884080" lon="9.8395810">
	<ele>1430.00</ele>
	<time>2023-11-18T08:07:20.000Z</time>
</trkpt>
<trkpt lat="45.8884160" lon="9.8395830">
	<ele>1430.00</ele>
	<time>2023-11-18T08:07:21.000Z</time>
</trkpt>
<trkpt lat="45.8884250" lon="9.8395830">
	<ele>1430.00</ele>
	<time>2023-11-18T08:07:22.000Z</time>
</trkpt>
<trkpt lat="45.8884330" lon="9.8395840">
	<ele>1430.00</ele>
	<time>2023-11-18T08:07:23.000Z</time>
</trkpt>
<trkpt lat="45.8884430" lon="9.8395830">
	<ele>1430.00</ele>
	<time>2023-11-18T08:07:24.000Z</time>
</trkpt>
<trkpt lat="45.8884550" lon="9.8395750">
	<ele>1430.20</ele>
	<time>2023-11-18T08:07:25.000Z</time>
</trkpt>
<trkpt lat="45.8884630" lon="9.8395710">
	<ele>1430.20</ele>
	<time>2023-11-18T08:07:26.000Z</time>
</trkpt>
<trkpt lat="45.8884670" lon="9.8395720">
	<ele>1430.20</ele>
	<time>2023-11-18T08:07:27.000Z</time>
</trkpt>
<trkpt lat="45.8884730" lon="9.8395680">
	<ele>1430.20</ele>
	<time>2023-11-18T08:07:28.000Z</time>
</trkpt>
<trkpt lat="45.8884750" lon="9.8395660">
	<ele>1430.20</ele>
	<time>2023-11-18T08:07:29.000Z</time>
</trkpt>
<trkpt lat="45.8884760" lon="9.8395640">
	<ele>1430.40</ele>
	<time>2023-11-18T08:07:30.000Z</time>
</trkpt>
<trkpt lat="45.8884780" lon="9.8395590">
	<ele>1430.40</ele>
	<time>2023-11-18T08:07:31.000Z</time>
</trkpt>
<trkpt lat="45.8884790" lon="9.8395550">
	<ele>1430.40</ele>
	<time>2023-11-18T08:07:32.000Z</time>
</trkpt>
<trkpt lat="45.8884830" lon="9.8395550">
	<ele>1430.60</ele>
	<time>2023-11-18T08:07:33.000Z</time>
</trkpt>
<trkpt lat="45.8884880" lon="9.8395520">
	<ele>1430.80</ele>
	<time>2023-11-18T08:07:34.000Z</time>
</trkpt>
<trkpt lat="45.8884900" lon="9.8395460">
	<ele>1430.80</ele>
	<time>2023-11-18T08:07:35.000Z</time>
</trkpt>
<trkpt lat="45.8885050" lon="9.8395420">
	<ele>1431.00</ele>
	<time>2023-11-18T08:07:36.000Z</time>
</trkpt>
<trkpt lat="45.8885160" lon="9.8395430">
	<ele>1431.20</ele>
	<time>2023-11-18T08:07:37.000Z</time>
</trkpt>
<trkpt lat="45.8885270" lon="9.8395370">
	<ele>1431.20</ele>
	<time>2023-11-18T08:07:38.000Z</time>
</trkpt>
<trkpt lat="45.8885360" lon="9.8395290">
	<ele>1431.40</ele>
	<time>2023-11-18T08:07:39.000Z</time>
</trkpt>
<trkpt lat="45.8885470" lon="9.8395200">
	<ele>1431.60</ele>
	<time>2023-11-18T08:07:40.000Z</time>
</trkpt>
<trkpt lat="45.8885540" lon="9.8395110">
	<ele>1431.60</ele>
	<time>2023-11-18T08:07:41.000Z</time>
</trkpt>
<trkpt lat="45.8885600" lon="9.8395010">
	<ele>1431.80</ele>
	<time>2023-11-18T08:07:42.000Z</time>
</trkpt>
<trkpt lat="45.8885690" lon="9.8394930">
	<ele>1431.80</ele>
	<time>2023-11-18T08:07:43.000Z</time>
</trkpt>
<trkpt lat="45.8885810" lon="9.8394840">
	<ele>1432.00</ele>
	<time>2023-11-18T08:07:44.000Z</time>
</trkpt>
<trkpt lat="45.8885840" lon="9.8394810">
	<ele>1432.20</ele>
	<time>2023-11-18T08:07:45.000Z</time>
</trkpt>
<trkpt lat="45.8885930" lon="9.8394710">
	<ele>1432.20</ele>
	<time>2023-11-18T08:07:46.000Z</time>
</trkpt>
<trkpt lat="45.8886000" lon="9.8394640">
	<ele>1432.40</ele>
	<time>2023-11-18T08:07:47.000Z</time>
</trkpt>
<trkpt lat="45.8886090" lon="9.8394560">
	<ele>1432.40</ele>
	<time>2023-11-18T08:07:48.000Z</time>
</trkpt>
<trkpt lat="45.8886130" lon="9.8394500">
	<ele>1432.60</ele>
	<time>2023-11-18T08:07:49.000Z</time>
</trkpt>
<trkpt lat="45.8886190" lon="9.8394490">
	<ele>1432.60</ele>
	<time>2023-11-18T08:07:50.000Z</time>
</trkpt>
<trkpt lat="45.8886340" lon="9.8394250">
	<ele>1432.80</ele>
	<time>2023-11-18T08:07:51.000Z</time>
</trkpt>
<trkpt lat="45.8886520" lon="9.8394140">
	<ele>1432.80</ele>
	<time>2023-11-18T08:07:52.000Z</time>
</trkpt>
<trkpt lat="45.8886570" lon="9.8394110">
	<ele>1433.00</ele>
	<time>2023-11-18T08:07:53.000Z</time>
</trkpt>
<trkpt lat="45.8886600" lon="9.8394090">
	<ele>1433.00</ele>
	<time>2023-11-18T08:07:54.000Z</time>
</trkpt>
<trkpt lat="45.8886650" lon="9.8394050">
	<ele>1433.20</ele>
	<time>2023-11-18T08:07:55.000Z</time>
</trkpt>
<trkpt lat="45.8886760" lon="9.8393980">
	<ele>1433.20</ele>
	<time>2023-11-18T08:07:56.000Z</time>
</trkpt>
<trkpt lat="45.8886940" lon="9.8393950">
	<ele>1433.20</ele>
	<time>2023-11-18T08:07:57.000Z</time>
</trkpt>
<trkpt lat="45.8887080" lon="9.8393910">
	<ele>1433.40</ele>
	<time>2023-11-18T08:07:58.000Z</time>
</trkpt>
<trkpt lat="45.8887190" lon="9.8393830">
	<ele>1433.60</ele>
	<time>2023-11-18T08:07:59.000Z</time>
</trkpt>
<trkpt lat="45.8887280" lon="9.8393790">
	<ele>1433.80</ele>
	<time>2023-11-18T08:08:00.000Z</time>
</trkpt>
<trkpt lat="45.8887340" lon="9.8393790">
	<ele>1433.80</ele>
	<time>2023-11-18T08:08:01.000Z</time>
</trkpt>
<trkpt lat="45.8887360" lon="9.8393760">
	<ele>1433.80</ele>
	<time>2023-11-18T08:08:02.000Z</time>
</trkpt>
<trkpt lat="45.8887410" lon="9.8393720">
	<ele>1434.00</ele>
	<time>2023-11-18T08:08:03.000Z</time>
</trkpt>
<trkpt lat="45.8887560" lon="9.8393730">
	<ele>1434.00</ele>
	<time>2023-11-18T08:08:04.000Z</time>
</trkpt>
<trkpt lat="45.8887650" lon="9.8393760">
	<ele>1434.00</ele>
	<time>2023-11-18T08:08:05.000Z</time>
</trkpt>
<trkpt lat="45.8887760" lon="9.8393860">
	<ele>1434.00</ele>
	<time>2023-11-18T08:08:06.000Z</time>
</trkpt>
<trkpt lat="45.8887900" lon="9.8393840">
	<ele>1434.00</ele>
	<time>2023-11-18T08:08:07.000Z</time>
</trkpt>
<trkpt lat="45.8887970" lon="9.8393790">
	<ele>1434.20</ele>
	<time>2023-11-18T08:08:08.000Z</time>
</trkpt>
<trkpt lat="45.8888010" lon="9.8393660">
	<ele>1434.40</ele>
	<time>2023-11-18T08:08:09.000Z</time>
</trkpt>
<trkpt lat="45.8888060" lon="9.8393560">
	<ele>1434.60</ele>
	<time>2023-11-18T08:08:10.000Z</time>
</trkpt>
<trkpt lat="45.8888110" lon="9.8393550">
	<ele>1434.80</ele>
	<time>2023-11-18T08:08:11.000Z</time>
</trkpt>
<trkpt lat="45.8888160" lon="9.8393590">
	<ele>1435.00</ele>
	<time>2023-11-18T08:08:12.000Z</time>
</trkpt>
<trkpt lat="45.8888230" lon="9.8393640">
	<ele>1435.00</ele>
	<time>2023-11-18T08:08:13.000Z</time>
</trkpt>
<trkpt lat="45.8888290" lon="9.8393630">
	<ele>1435.20</ele>
	<time>2023-11-18T08:08:14.000Z</time>
</trkpt>
<trkpt lat="45.8888360" lon="9.8393650">
	<ele>1435.20</ele>
	<time>2023-11-18T08:08:15.000Z</time>
</trkpt>
<trkpt lat="45.8888410" lon="9.8393680">
	<ele>1435.20</ele>
	<time>2023-11-18T08:08:16.000Z</time>
</trkpt>
<trkpt lat="45.8888480" lon="9.8393680">
	<ele>1435.20</ele>
	<time>2023-11-18T08:08:17.000Z</time>
</trkpt>
<trkpt lat="45.8888550" lon="9.8393680">
	<ele>1435.40</ele>
	<time>2023-11-18T08:08:18.000Z</time>
</trkpt>
<trkpt lat="45.8888620" lon="9.8393660">
	<ele>1435.60</ele>
	<time>2023-11-18T08:08:19.000Z</time>
</trkpt>
<trkpt lat="45.8888690" lon="9.8393630">
	<ele>1435.80</ele>
	<time>2023-11-18T08:08:20.000Z</time>
</trkpt>
<trkpt lat="45.8888740" lon="9.8393670">
	<ele>1435.80</ele>
	<time>2023-11-18T08:08:21.000Z</time>
</trkpt>
<trkpt lat="45.8888800" lon="9.8393710">
	<ele>1436.00</ele>
	<time>2023-11-18T08:08:22.000Z</time>
</trkpt>
<trkpt lat="45.8888860" lon="9.8393740">
	<ele>1436.00</ele>
	<time>2023-11-18T08:08:23.000Z</time>
</trkpt>
<trkpt lat="45.8888910" lon="9.8393790">
	<ele>1436.20</ele>
	<time>2023-11-18T08:08:24.000Z</time>
</trkpt>
<trkpt lat="45.8888950" lon="9.8393800">
	<ele>1436.20</ele>
	<time>2023-11-18T08:08:25.000Z</time>
</trkpt>
<trkpt lat="45.8888990" lon="9.8393760">
	<ele>1436.40</ele>
	<time>2023-11-18T08:08:26.000Z</time>
</trkpt>
<trkpt lat="45.8889040" lon="9.8393750">
	<ele>1436.60</ele>
	<time>2023-11-18T08:08:27.000Z</time>
</trkpt>
<trkpt lat="45.8889060" lon="9.8393740">
	<ele>1436.80</ele>
	<time>2023-11-18T08:08:28.000Z</time>
</trkpt>
<trkpt lat="45.8889130" lon="9.8393700">
	<ele>1436.80</ele>
	<time>2023-11-18T08:08:29.000Z</time>
</trkpt>
<trkpt lat="45.8889200" lon="9.8393690">
	<ele>1436.80</ele>
	<time>2023-11-18T08:08:30.000Z</time>
</trkpt>
<trkpt lat="45.8889270" lon="9.8393620">
	<ele>1437.00</ele>
	<time>2023-11-18T08:08:31.000Z</time>
</trkpt>
<trkpt lat="45.8889360" lon="9.8393560">
	<ele>1437.00</ele>
	<time>2023-11-18T08:08:32.000Z</time>
</trkpt>
<trkpt lat="45.8889370" lon="9.8393500">
	<ele>1437.00</ele>
	<time>2023-11-18T08:08:33.000Z</time>
</trkpt>
<trkpt lat="45.8889450" lon="9.8393470">
	<ele>1437.00</ele>
	<time>2023-11-18T08:08:34.000Z</time>
</trkpt>
<trkpt lat="45.8889480" lon="9.8393430">
	<ele>1437.20</ele>
	<time>2023-11-18T08:08:35.000Z</time>
</trkpt>
<trkpt lat="45.8889600" lon="9.8393270">
	<ele>1437.40</ele>
	<time>2023-11-18T08:08:36.000Z</time>
</trkpt>
<trkpt lat="45.8889630" lon="9.8393200">
	<ele>1437.40</ele>
	<time>2023-11-18T08:08:37.000Z</time>
</trkpt>
<trkpt lat="45.8889630" lon="9.8393140">
	<ele>1437.60</ele>
	<time>2023-11-18T08:08:38.000Z</time>
</trkpt>
<trkpt lat="45.8889640" lon="9.8393110">
	<ele>1437.60</ele>
	<time>2023-11-18T08:08:39.000Z</time>
</trkpt>
<trkpt lat="45.8889630" lon="9.8393110">
	<ele>1437.60</ele>
	<time>2023-11-18T08:08:40.000Z</time>
</trkpt>
<trkpt lat="45.8889620" lon="9.8393110">
	<ele>1437.60</ele>
	<time>2023-11-18T08:08:41.000Z</time>
</trkpt>
<trkpt lat="45.8889660" lon="9.8393120">
	<ele>1437.60</ele>
	<time>2023-11-18T08:08:42.000Z</time>
</trkpt>
<trkpt lat="45.8889650" lon="9.8393090">
	<ele>1437.60</ele>
	<time>2023-11-18T08:08:43.000Z</time>
</trkpt>
<trkpt lat="45.8889650" lon="9.8393070">
	<ele>1437.60</ele>
	<time>2023-11-18T08:08:44.000Z</time>
</trkpt>
<trkpt lat="45.8889650" lon="9.8393050">
	<ele>1437.40</ele>
	<time>2023-11-18T08:08:45.000Z</time>
</trkpt>
<trkpt lat="45.8889640" lon="9.8393010">
	<ele>1437.40</ele>
	<time>2023-11-18T08:08:46.000Z</time>
</trkpt>
<trkpt lat="45.8889640" lon="9.8392950">
	<ele>1437.20</ele>
	<time>2023-11-18T08:08:47.000Z</time>
</trkpt>
<trkpt lat="45.8889720" lon="9.8392890">
	<ele>1437.20</ele>
	<time>2023-11-18T08:08:48.000Z</time>
</trkpt>
<trkpt lat="45.8889760" lon="9.8392880">
	<ele>1437.20</ele>
	<time>2023-11-18T08:08:49.000Z</time>
</trkpt>
<trkpt lat="45.8889840" lon="9.8392850">
	<ele>1437.40</ele>
	<time>2023-11-18T08:08:50.000Z</time>
</trkpt>
<trkpt lat="45.8889910" lon="9.8392850">
	<ele>1437.40</ele>
	<time>2023-11-18T08:08:51.000Z</time>
</trkpt>
<trkpt lat="45.8889920" lon="9.8392830">
	<ele>1437.40</ele>
	<time>2023-11-18T08:08:52.000Z</time>
</trkpt>
<trkpt lat="45.8890000" lon="9.8392780">
	<ele>1437.40</ele>
	<time>2023-11-18T08:08:53.000Z</time>
</trkpt>
<trkpt lat="45.8890000" lon="9.8392790">
	<ele>1437.40</ele>
	<time>2023-11-18T08:08:54.000Z</time>
</trkpt>
<trkpt lat="45.8890020" lon="9.8392790">
	<ele>1437.40</ele>
	<time>2023-11-18T08:08:55.000Z</time>
</trkpt>
<trkpt lat="45.8890030" lon="9.8392790">
	<ele>1437.40</ele>
	<time>2023-11-18T08:08:56.000Z</time>
</trkpt>
<trkpt lat="45.8890030" lon="9.8392790">
	<ele>1437.40</ele>
	<time>2023-11-18T08:08:57.000Z</time>
</trkpt>
<trkpt lat="45.8890030" lon="9.8392790">
	<ele>1437.60</ele>
	<time>2023-11-18T08:08:58.000Z</time>
</trkpt>
<trkpt lat="45.8890030" lon="9.8392790">
	<ele>1437.60</ele>
	<time>2023-11-18T08:08:59.000Z</time>
</trkpt>
<trkpt lat="45.8890030" lon="9.8392790">
	<ele>1437.60</ele>
	<time>2023-11-18T08:09:00.000Z</time>
</trkpt>
<trkpt lat="45.8890030" lon="9.8392790">
	<ele>1437.60</ele>
	<time>2023-11-18T08:09:01.000Z</time>
</trkpt>
<trkpt lat="45.8890030" lon="9.8392790">
	<ele>1437.60</ele>
	<time>2023-11-18T08:09:02.000Z</time>
</trkpt>
<trkpt lat="45.8890030" lon="9.8392790">
	<ele>1437.60</ele>
	<time>2023-11-18T08:09:03.000Z</time>
</trkpt>
<trkpt lat="45.8890030" lon="9.8392790">
	<ele>1437.60</ele>
	<time>2023-11-18T08:09:04.000Z</time>
</trkpt>
<trkpt lat="45.8890030" lon="9.8392790">
	<ele>1437.40</ele>
	<time>2023-11-18T08:09:05.000Z</time>
</trkpt>
<trkpt lat="45.8890030" lon="9.8392790">
	<ele>1437.40</ele>
	<time>2023-11-18T08:09:06.000Z</time>
</trkpt>
<trkpt lat="45.8890030" lon="9.8392820">
	<ele>1437.40</ele>
	<time>2023-11-18T08:09:07.000Z</time>
</trkpt>
<trkpt lat="45.8890030" lon="9.8392830">
	<ele>1437.40</ele>
	<time>2023-11-18T08:09:08.000Z</time>
</trkpt>
<trkpt lat="45.8890030" lon="9.8392830">
	<ele>1437.40</ele>
	<time>2023-11-18T08:09:09.000Z</time>
</trkpt>
<trkpt lat="45.8890030" lon="9.8392850">
	<ele>1437.40</ele>
	<time>2023-11-18T08:09:10.000Z</time>
</trkpt>
<trkpt lat="45.8890030" lon="9.8392850">
	<ele>1437.40</ele>
	<time>2023-11-18T08:09:11.000Z</time>
</trkpt>
<trkpt lat="45.8890060" lon="9.8392850">
	<ele>1437.40</ele>
	<time>2023-11-18T08:09:12.000Z</time>
</trkpt>
<trkpt lat="45.8890080" lon="9.8392850">
	<ele>1437.40</ele>
	<time>2023-11-18T08:09:13.000Z</time>
</trkpt>
<trkpt lat="45.8890080" lon="9.8392850">
	<ele>1437.40</ele>
	<time>2023-11-18T08:09:14.000Z</time>
</trkpt>
<trkpt lat="45.8890080" lon="9.8392850">
	<ele>1437.40</ele>
	<time>2023-11-18T08:09:15.000Z</time>
</trkpt>
<trkpt lat="45.8890090" lon="9.8392850">
	<ele>1437.40</ele>
	<time>2023-11-18T08:09:16.000Z</time>
</trkpt>
<trkpt lat="45.8890090" lon="9.8392850">
	<ele>1437.40</ele>
	<time>2023-11-18T08:09:17.000Z</time>
</trkpt>
<trkpt lat="45.8890090" lon="9.8392830">
	<ele>1437.40</ele>
	<time>2023-11-18T08:09:18.000Z</time>
</trkpt>
<trkpt lat="45.8890090" lon="9.8392830">
	<ele>1437.40</ele>
	<time>2023-11-18T08:09:19.000Z</time>
</trkpt>
<trkpt lat="45.8890090" lon="9.8392820">
	<ele>1437.40</ele>
	<time>2023-11-18T08:09:20.000Z</time>
</trkpt>
<trkpt lat="45.8890100" lon="9.8392800">
	<ele>1437.20</ele>
	<time>2023-11-18T08:09:21.000Z</time>
</trkpt>
<trkpt lat="45.8890100" lon="9.8392790">
	<ele>1437.20</ele>
	<time>2023-11-18T08:09:22.000Z</time>
</trkpt>
<trkpt lat="45.8890100" lon="9.8392790">
	<ele>1437.20</ele>
	<time>2023-11-18T08:09:23.000Z</time>
</trkpt>
<trkpt lat="45.8890100" lon="9.8392790">
	<ele>1437.20</ele>
	<time>2023-11-18T08:09:24.000Z</time>
</trkpt>
<trkpt lat="45.8890100" lon="9.8392780">
	<ele>1437.20</ele>
	<time>2023-11-18T08:09:25.000Z</time>
</trkpt>
<trkpt lat="45.8890110" lon="9.8392760">
	<ele>1437.20</ele>
	<time>2023-11-18T08:09:26.000Z</time>
</trkpt>
<trkpt lat="45.8890110" lon="9.8392730">
	<ele>1437.20</ele>
	<time>2023-11-18T08:09:27.000Z</time>
</trkpt>
<trkpt lat="45.8890130" lon="9.8392690">
	<ele>1437.60</ele>
	<time>2023-11-18T08:09:28.000Z</time>
</trkpt>
<trkpt lat="45.8890240" lon="9.8392570">
	<ele>1437.80</ele>
	<time>2023-11-18T08:09:29.000Z</time>
</trkpt>
<trkpt lat="45.8890500" lon="9.8392400">
	<ele>1438.00</ele>
	<time>2023-11-18T08:09:30.000Z</time>
</trkpt>
<trkpt lat="45.8890730" lon="9.8392140">
	<ele>1438.00</ele>
	<time>2023-11-18T08:09:31.000Z</time>
</trkpt>
<trkpt lat="45.8890970" lon="9.8391820">
	<ele>1438.00</ele>
	<time>2023-11-18T08:09:32.000Z</time>
</trkpt>
<trkpt lat="45.8891210" lon="9.8391570">
	<ele>1438.00</ele>
	<time>2023-11-18T08:09:33.000Z</time>
</trkpt>
<trkpt lat="45.8891450" lon="9.8391370">
	<ele>1438.00</ele>
	<time>2023-11-18T08:09:34.000Z</time>
</trkpt>
<trkpt lat="45.8891600" lon="9.8391210">
	<ele>1438.00</ele>
	<time>2023-11-18T08:09:35.000Z</time>
</trkpt>
<trkpt lat="45.8891780" lon="9.8390980">
	<ele>1438.00</ele>
	<time>2023-11-18T08:09:36.000Z</time>
</trkpt>
<trkpt lat="45.8891940" lon="9.8390730">
	<ele>1438.20</ele>
	<time>2023-11-18T08:09:37.000Z</time>
</trkpt>
<trkpt lat="45.8892130" lon="9.8390500">
	<ele>1438.20</ele>
	<time>2023-11-18T08:09:38.000Z</time>
</trkpt>
<trkpt lat="45.8892140" lon="9.8390350">
	<ele>1438.40</ele>
	<time>2023-11-18T08:09:39.000Z</time>
</trkpt>
<trkpt lat="45.8892160" lon="9.8390280">
	<ele>1438.40</ele>
	<time>2023-11-18T08:09:40.000Z</time>
</trkpt>
<trkpt lat="45.8892210" lon="9.8390240">
	<ele>1438.60</ele>
	<time>2023-11-18T08:09:41.000Z</time>
</trkpt>
<trkpt lat="45.8892250" lon="9.8390230">
	<ele>1438.60</ele>
	<time>2023-11-18T08:09:42.000Z</time>
</trkpt>
<trkpt lat="45.8892290" lon="9.8390240">
	<ele>1438.80</ele>
	<time>2023-11-18T08:09:43.000Z</time>
</trkpt>
<trkpt lat="45.8892290" lon="9.8390240">
	<ele>1438.80</ele>
	<time>2023-11-18T08:09:44.000Z</time>
</trkpt>
<trkpt lat="45.8892310" lon="9.8390220">
	<ele>1438.80</ele>
	<time>2023-11-18T08:09:45.000Z</time>
</trkpt>
<trkpt lat="45.8892410" lon="9.8390260">
	<ele>1438.80</ele>
	<time>2023-11-18T08:09:46.000Z</time>
</trkpt>
<trkpt lat="45.8892510" lon="9.8390300">
	<ele>1438.80</ele>
	<time>2023-11-18T08:09:47.000Z</time>
</trkpt>
<trkpt lat="45.8892620" lon="9.8390290">
	<ele>1438.80</ele>
	<time>2023-11-18T08:09:48.000Z</time>
</trkpt>
<trkpt lat="45.8892720" lon="9.8390260">
	<ele>1438.80</ele>
	<time>2023-11-18T08:09:49.000Z</time>
</trkpt>
<trkpt lat="45.8892830" lon="9.8390180">
	<ele>1438.80</ele>
	<time>2023-11-18T08:09:50.000Z</time>
</trkpt>
<trkpt lat="45.8892960" lon="9.8390160">
	<ele>1438.80</ele>
	<time>2023-11-18T08:09:51.000Z</time>
</trkpt>
<trkpt lat="45.8893070" lon="9.8390180">
	<ele>1438.80</ele>
	<time>2023-11-18T08:09:52.000Z</time>
</trkpt>
<trkpt lat="45.8893230" lon="9.8390190">
	<ele>1438.80</ele>
	<time>2023-11-18T08:09:53.000Z</time>
</trkpt>
<trkpt lat="45.8893310" lon="9.8390180">
	<ele>1438.60</ele>
	<time>2023-11-18T08:09:54.000Z</time>
</trkpt>
<trkpt lat="45.8893420" lon="9.8390060">
	<ele>1438.80</ele>
	<time>2023-11-18T08:09:55.000Z</time>
</trkpt>
<trkpt lat="45.8893520" lon="9.8390000">
	<ele>1439.00</ele>
	<time>2023-11-18T08:09:56.000Z</time>
</trkpt>
<trkpt lat="45.8893520" lon="9.8389970">
	<ele>1439.00</ele>
	<time>2023-11-18T08:09:57.000Z</time>
</trkpt>
<trkpt lat="45.8893540" lon="9.8389930">
	<ele>1439.00</ele>
	<time>2023-11-18T08:09:58.000Z</time>
</trkpt>
<trkpt lat="45.8893570" lon="9.8389890">
	<ele>1439.20</ele>
	<time>2023-11-18T08:09:59.000Z</time>
</trkpt>
<trkpt lat="45.8893580" lon="9.8389840">
	<ele>1439.20</ele>
	<time>2023-11-18T08:10:00.000Z</time>
</trkpt>
<trkpt lat="45.8893590" lon="9.8389820">
	<ele>1439.20</ele>
	<time>2023-11-18T08:10:01.000Z</time>
</trkpt>
<trkpt lat="45.8893710" lon="9.8389720">
	<ele>1439.40</ele>
	<time>2023-11-18T08:10:02.000Z</time>
</trkpt>
<trkpt lat="45.8893760" lon="9.8389650">
	<ele>1439.40</ele>
	<time>2023-11-18T08:10:03.000Z</time>
</trkpt>
<trkpt lat="45.8893840" lon="9.8389540">
	<ele>1439.40</ele>
	<time>2023-11-18T08:10:04.000Z</time>
</trkpt>
<trkpt lat="45.8893940" lon="9.8389430">
	<ele>1439.40</ele>
	<time>2023-11-18T08:10:05.000Z</time>
</trkpt>
<trkpt lat="45.8894030" lon="9.8389330">
	<ele>1439.60</ele>
	<time>2023-11-18T08:10:06.000Z</time>
</trkpt>
<trkpt lat="45.8894040" lon="9.8389320">
	<ele>1439.60</ele>
	<time>2023-11-18T08:10:07.000Z</time>
</trkpt>
<trkpt lat="45.8894070" lon="9.8389320">
	<ele>1439.80</ele>
	<time>2023-11-18T08:10:08.000Z</time>
</trkpt>
<trkpt lat="45.8894140" lon="9.8389260">
	<ele>1440.00</ele>
	<time>2023-11-18T08:10:09.000Z</time>
</trkpt>
<trkpt lat="45.8894160" lon="9.8389200">
	<ele>1440.20</ele>
	<time>2023-11-18T08:10:10.000Z</time>
</trkpt>
<trkpt lat="45.8894240" lon="9.8389150">
	<ele>1440.40</ele>
	<time>2023-11-18T08:10:11.000Z</time>
</trkpt>
<trkpt lat="45.8894320" lon="9.8389120">
	<ele>1440.40</ele>
	<time>2023-11-18T08:10:12.000Z</time>
</trkpt>
<trkpt lat="45.8894420" lon="9.8389070">
	<ele>1440.60</ele>
	<time>2023-11-18T08:10:13.000Z</time>
</trkpt>
<trkpt lat="45.8894530" lon="9.8388980">
	<ele>1440.60</ele>
	<time>2023-11-18T08:10:14.000Z</time>
</trkpt>
<trkpt lat="45.8894600" lon="9.8388920">
	<ele>1440.80</ele>
	<time>2023-11-18T08:10:15.000Z</time>
</trkpt>
<trkpt lat="45.8894670" lon="9.8388900">
	<ele>1440.80</ele>
	<time>2023-11-18T08:10:16.000Z</time>
</trkpt>
<trkpt lat="45.8894710" lon="9.8388940">
	<ele>1441.00</ele>
	<time>2023-11-18T08:10:17.000Z</time>
</trkpt>
<trkpt lat="45.8894690" lon="9.8389030">
	<ele>1441.00</ele>
	<time>2023-11-18T08:10:18.000Z</time>
</trkpt>
<trkpt lat="45.8894670" lon="9.8389050">
	<ele>1441.20</ele>
	<time>2023-11-18T08:10:19.000Z</time>
</trkpt>
<trkpt lat="45.8894680" lon="9.8389030">
	<ele>1441.40</ele>
	<time>2023-11-18T08:10:20.000Z</time>
</trkpt>
<trkpt lat="45.8894700" lon="9.8388980">
	<ele>1441.40</ele>
	<time>2023-11-18T08:10:21.000Z</time>
</trkpt>
<trkpt lat="45.8894800" lon="9.8388920">
	<ele>1441.60</ele>
	<time>2023-11-18T08:10:22.000Z</time>
</trkpt>
<trkpt lat="45.8894910" lon="9.8388810">
	<ele>1441.80</ele>
	<time>2023-11-18T08:10:23.000Z</time>
</trkpt>
<trkpt lat="45.8894970" lon="9.8388710">
	<ele>1442.20</ele>
	<time>2023-11-18T08:10:24.000Z</time>
</trkpt>
<trkpt lat="45.8895010" lon="9.8388600">
	<ele>1442.40</ele>
	<time>2023-11-18T08:10:25.000Z</time>
</trkpt>
<trkpt lat="45.8895090" lon="9.8388450">
	<ele>1442.60</ele>
	<time>2023-11-18T08:10:26.000Z</time>
</trkpt>
<trkpt lat="45.8895160" lon="9.8388340">
	<ele>1442.80</ele>
	<time>2023-11-18T08:10:27.000Z</time>
</trkpt>
<trkpt lat="45.8895190" lon="9.8388260">
	<ele>1443.00</ele>
	<time>2023-11-18T08:10:28.000Z</time>
</trkpt>
<trkpt lat="45.8895210" lon="9.8388230">
	<ele>1443.00</ele>
	<time>2023-11-18T08:10:29.000Z</time>
</trkpt>
<trkpt lat="45.8895310" lon="9.8388200">
	<ele>1443.20</ele>
	<time>2023-11-18T08:10:30.000Z</time>
</trkpt>
<trkpt lat="45.8895300" lon="9.8388220">
	<ele>1443.40</ele>
	<time>2023-11-18T08:10:31.000Z</time>
</trkpt>
<trkpt lat="45.8895280" lon="9.8388250">
	<ele>1443.60</ele>
	<time>2023-11-18T08:10:32.000Z</time>
</trkpt>
<trkpt lat="45.8895390" lon="9.8388220">
	<ele>1444.00</ele>
	<time>2023-11-18T08:10:33.000Z</time>
</trkpt>
<trkpt lat="45.8895420" lon="9.8388200">
	<ele>1444.00</ele>
	<time>2023-11-18T08:10:34.000Z</time>
</trkpt>
<trkpt lat="45.8895410" lon="9.8388180">
	<ele>1444.20</ele>
	<time>2023-11-18T08:10:35.000Z</time>
</trkpt>
<trkpt lat="45.8895550" lon="9.8388120">
	<ele>1444.40</ele>
	<time>2023-11-18T08:10:36.000Z</time>
</trkpt>
<trkpt lat="45.8895780" lon="9.8388120">
	<ele>1444.40</ele>
	<time>2023-11-18T08:10:37.000Z</time>
</trkpt>
<trkpt lat="45.8896030" lon="9.8388120">
	<ele>1444.40</ele>
	<time>2023-11-18T08:10:38.000Z</time>
</trkpt>
<trkpt lat="45.8896050" lon="9.8388100">
	<ele>1444.60</ele>
	<time>2023-11-18T08:10:39.000Z</time>
</trkpt>
<trkpt lat="45.8896140" lon="9.8388130">
	<ele>1444.60</ele>
	<time>2023-11-18T08:10:40.000Z</time>
</trkpt>
<trkpt lat="45.8896220" lon="9.8388080">
	<ele>1444.60</ele>
	<time>2023-11-18T08:10:41.000Z</time>
</trkpt>
<trkpt lat="45.8896370" lon="9.8388050">
	<ele>1444.60</ele>
	<time>2023-11-18T08:10:42.000Z</time>
</trkpt>
<trkpt lat="45.8896260" lon="9.8387940">
	<ele>1444.60</ele>
	<time>2023-11-18T08:10:43.000Z</time>
</trkpt>
<trkpt lat="45.8896290" lon="9.8387920">
	<ele>1444.60</ele>
	<time>2023-11-18T08:10:44.000Z</time>
</trkpt>
<trkpt lat="45.8896490" lon="9.8387760">
	<ele>1444.60</ele>
	<time>2023-11-18T08:10:45.000Z</time>
</trkpt>
<trkpt lat="45.8896520" lon="9.8387720">
	<ele>1444.60</ele>
	<time>2023-11-18T08:10:46.000Z</time>
</trkpt>
<trkpt lat="45.8896540" lon="9.8387680">
	<ele>1444.60</ele>
	<time>2023-11-18T08:10:47.000Z</time>
</trkpt>
<trkpt lat="45.8896740" lon="9.8387520">
	<ele>1444.80</ele>
	<time>2023-11-18T08:10:48.000Z</time>
</trkpt>
<trkpt lat="45.8896910" lon="9.8387450">
	<ele>1444.80</ele>
	<time>2023-11-18T08:10:49.000Z</time>
</trkpt>
<trkpt lat="45.8896980" lon="9.8387360">
	<ele>1445.00</ele>
	<time>2023-11-18T08:10:50.000Z</time>
</trkpt>
<trkpt lat="45.8897040" lon="9.8387250">
	<ele>1445.20</ele>
	<time>2023-11-18T08:10:51.000Z</time>
</trkpt>
<trkpt lat="45.8897070" lon="9.8387130">
	<ele>1445.40</ele>
	<time>2023-11-18T08:10:52.000Z</time>
</trkpt>
<trkpt lat="45.8897090" lon="9.8387080">
	<ele>1445.60</ele>
	<time>2023-11-18T08:10:53.000Z</time>
</trkpt>
<trkpt lat="45.8897160" lon="9.8387080">
	<ele>1446.00</ele>
	<time>2023-11-18T08:10:54.000Z</time>
</trkpt>
<trkpt lat="45.8897230" lon="9.8387060">
	<ele>1446.20</ele>
	<time>2023-11-18T08:10:55.000Z</time>
</trkpt>
<trkpt lat="45.8897320" lon="9.8386980">
	<ele>1446.40</ele>
	<time>2023-11-18T08:10:56.000Z</time>
</trkpt>
<trkpt lat="45.8897440" lon="9.8386900">
	<ele>1446.40</ele>
	<time>2023-11-18T08:10:57.000Z</time>
</trkpt>
<trkpt lat="45.8897570" lon="9.8386820">
	<ele>1446.40</ele>
	<time>2023-11-18T08:10:58.000Z</time>
</trkpt>
<trkpt lat="45.8897690" lon="9.8386770">
	<ele>1446.60</ele>
	<time>2023-11-18T08:10:59.000Z</time>
</trkpt>
<trkpt lat="45.8897770" lon="9.8386760">
	<ele>1446.60</ele>
	<time>2023-11-18T08:11:00.000Z</time>
</trkpt>
<trkpt lat="45.8897900" lon="9.8386740">
	<ele>1446.60</ele>
	<time>2023-11-18T08:11:01.000Z</time>
</trkpt>
<trkpt lat="45.8897990" lon="9.8386720">
	<ele>1446.80</ele>
	<time>2023-11-18T08:11:02.000Z</time>
</trkpt>
<trkpt lat="45.8898080" lon="9.8386610">
	<ele>1446.80</ele>
	<time>2023-11-18T08:11:03.000Z</time>
</trkpt>
<trkpt lat="45.8898170" lon="9.8386490">
	<ele>1447.00</ele>
	<time>2023-11-18T08:11:04.000Z</time>
</trkpt>
<trkpt lat="45.8898290" lon="9.8386390">
	<ele>1447.20</ele>
	<time>2023-11-18T08:11:05.000Z</time>
</trkpt>
<trkpt lat="45.8898430" lon="9.8386280">
	<ele>1447.40</ele>
	<time>2023-11-18T08:11:06.000Z</time>
</trkpt>
<trkpt lat="45.8898560" lon="9.8386190">
	<ele>1447.40</ele>
	<time>2023-11-18T08:11:07.000Z</time>
</trkpt>
<trkpt lat="45.8898660" lon="9.8386030">
	<ele>1447.60</ele>
	<time>2023-11-18T08:11:08.000Z</time>
</trkpt>
<trkpt lat="45.8898730" lon="9.8385930">
	<ele>1447.80</ele>
	<time>2023-11-18T08:11:09.000Z</time>
</trkpt>
<trkpt lat="45.8898760" lon="9.8386020">
	<ele>1447.80</ele>
	<time>2023-11-18T08:11:10.000Z</time>
</trkpt>
<trkpt lat="45.8898770" lon="9.8386180">
	<ele>1447.80</ele>
	<time>2023-11-18T08:11:11.000Z</time>
</trkpt>
<trkpt lat="45.8898750" lon="9.8386260">
	<ele>1448.00</ele>
	<time>2023-11-18T08:11:12.000Z</time>
</trkpt>
<trkpt lat="45.8898770" lon="9.8386260">
	<ele>1448.00</ele>
	<time>2023-11-18T08:11:13.000Z</time>
</trkpt>
<trkpt lat="45.8898860" lon="9.8386270">
	<ele>1447.80</ele>
	<time>2023-11-18T08:11:14.000Z</time>
</trkpt>
<trkpt lat="45.8898930" lon="9.8386360">
	<ele>1447.80</ele>
	<time>2023-11-18T08:11:15.000Z</time>
</trkpt>
<trkpt lat="45.8899040" lon="9.8386490">
	<ele>1447.80</ele>
	<time>2023-11-18T08:11:16.000Z</time>
</trkpt>
<trkpt lat="45.8899160" lon="9.8386590">
	<ele>1447.80</ele>
	<time>2023-11-18T08:11:17.000Z</time>
</trkpt>
<trkpt lat="45.8899260" lon="9.8386680">
	<ele>1447.60</ele>
	<time>2023-11-18T08:11:18.000Z</time>
</trkpt>
<trkpt lat="45.8899340" lon="9.8386680">
	<ele>1447.60</ele>
	<time>2023-11-18T08:11:19.000Z</time>
</trkpt>
<trkpt lat="45.8899480" lon="9.8386640">
	<ele>1447.60</ele>
	<time>2023-11-18T08:11:20.000Z</time>
</trkpt>
<trkpt lat="45.8899600" lon="9.8386560">
	<ele>1447.60</ele>
	<time>2023-11-18T08:11:21.000Z</time>
</trkpt>
<trkpt lat="45.8899730" lon="9.8386450">
	<ele>1447.60</ele>
	<time>2023-11-18T08:11:22.000Z</time>
</trkpt>
<trkpt lat="45.8899820" lon="9.8386420">
	<ele>1447.40</ele>
	<time>2023-11-18T08:11:23.000Z</time>
</trkpt>
<trkpt lat="45.8899870" lon="9.8386420">
	<ele>1447.40</ele>
	<time>2023-11-18T08:11:24.000Z</time>
</trkpt>
<trkpt lat="45.8899920" lon="9.8386400">
	<ele>1447.40</ele>
	<time>2023-11-18T08:11:25.000Z</time>
</trkpt>
<trkpt lat="45.8900030" lon="9.8386340">
	<ele>1447.40</ele>
	<time>2023-11-18T08:11:26.000Z</time>
</trkpt>
<trkpt lat="45.8900140" lon="9.8386220">
	<ele>1447.40</ele>
	<time>2023-11-18T08:11:27.000Z</time>
</trkpt>
<trkpt lat="45.8900180" lon="9.8386160">
	<ele>1447.40</ele>
	<time>2023-11-18T08:11:28.000Z</time>
</trkpt>
<trkpt lat="45.8900310" lon="9.8386100">
	<ele>1447.40</ele>
	<time>2023-11-18T08:11:29.000Z</time>
</trkpt>
<trkpt lat="45.8900340" lon="9.8386030">
	<ele>1447.40</ele>
	<time>2023-11-18T08:11:30.000Z</time>
</trkpt>
<trkpt lat="45.8900410" lon="9.8386010">
	<ele>1447.60</ele>
	<time>2023-11-18T08:11:31.000Z</time>
</trkpt>
<trkpt lat="45.8900420" lon="9.8385940">
	<ele>1447.60</ele>
	<time>2023-11-18T08:11:32.000Z</time>
</trkpt>
<trkpt lat="45.8900460" lon="9.8385840">
	<ele>1447.60</ele>
	<time>2023-11-18T08:11:33.000Z</time>
</trkpt>
<trkpt lat="45.8900540" lon="9.8385780">
	<ele>1447.80</ele>
	<time>2023-11-18T08:11:34.000Z</time>
</trkpt>
<trkpt lat="45.8900610" lon="9.8385800">
	<ele>1448.00</ele>
	<time>2023-11-18T08:11:35.000Z</time>
</trkpt>
<trkpt lat="45.8900690" lon="9.8385760">
	<ele>1448.20</ele>
	<time>2023-11-18T08:11:36.000Z</time>
</trkpt>
<trkpt lat="45.8900710" lon="9.8385730">
	<ele>1448.20</ele>
	<time>2023-11-18T08:11:37.000Z</time>
</trkpt>
<trkpt lat="45.8900750" lon="9.8385720">
	<ele>1448.40</ele>
	<time>2023-11-18T08:11:38.000Z</time>
</trkpt>
<trkpt lat="45.8900830" lon="9.8385730">
	<ele>1448.60</ele>
	<time>2023-11-18T08:11:39.000Z</time>
</trkpt>
<trkpt lat="45.8900940" lon="9.8385810">
	<ele>1448.60</ele>
	<time>2023-11-18T08:11:40.000Z</time>
</trkpt>
<trkpt lat="45.8901000" lon="9.8385750">
	<ele>1448.80</ele>
	<time>2023-11-18T08:11:41.000Z</time>
</trkpt>
<trkpt lat="45.8901090" lon="9.8385710">
	<ele>1449.00</ele>
	<time>2023-11-18T08:11:42.000Z</time>
</trkpt>
<trkpt lat="45.8901170" lon="9.8385670">
	<ele>1449.20</ele>
	<time>2023-11-18T08:11:43.000Z</time>
</trkpt>
<trkpt lat="45.8901290" lon="9.8385660">
	<ele>1449.40</ele>
	<time>2023-11-18T08:11:44.000Z</time>
</trkpt>
<trkpt lat="45.8901410" lon="9.8385620">
	<ele>1449.40</ele>
	<time>2023-11-18T08:11:45.000Z</time>
</trkpt>
<trkpt lat="45.8901510" lon="9.8385590">
	<ele>1449.60</ele>
	<time>2023-11-18T08:11:46.000Z</time>
</trkpt>
<trkpt lat="45.8901570" lon="9.8385570">
	<ele>1449.60</ele>
	<time>2023-11-18T08:11:47.000Z</time>
</trkpt>
<trkpt lat="45.8901700" lon="9.8385450">
	<ele>1449.60</ele>
	<time>2023-11-18T08:11:48.000Z</time>
</trkpt>
<trkpt lat="45.8901820" lon="9.8385320">
	<ele>1449.80</ele>
	<time>2023-11-18T08:11:49.000Z</time>
</trkpt>
<trkpt lat="45.8901840" lon="9.8385280">
	<ele>1449.80</ele>
	<time>2023-11-18T08:11:50.000Z</time>
</trkpt>
<trkpt lat="45.8901880" lon="9.8385240">
	<ele>1450.00</ele>
	<time>2023-11-18T08:11:51.000Z</time>
</trkpt>
<trkpt lat="45.8901880" lon="9.8385220">
	<ele>1450.20</ele>
	<time>2023-11-18T08:11:52.000Z</time>
</trkpt>
<trkpt lat="45.8901930" lon="9.8385180">
	<ele>1450.20</ele>
	<time>2023-11-18T08:11:53.000Z</time>
</trkpt>
<trkpt lat="45.8902020" lon="9.8385150">
	<ele>1450.20</ele>
	<time>2023-11-18T08:11:54.000Z</time>
</trkpt>
<trkpt lat="45.8902140" lon="9.8385180">
	<ele>1450.20</ele>
	<time>2023-11-18T08:11:55.000Z</time>
</trkpt>
<trkpt lat="45.8902260" lon="9.8385150">
	<ele>1450.20</ele>
	<time>2023-11-18T08:11:56.000Z</time>
</trkpt>
<trkpt lat="45.8902360" lon="9.8385150">
	<ele>1450.20</ele>
	<time>2023-11-18T08:11:57.000Z</time>
</trkpt>
<trkpt lat="45.8902490" lon="9.8385090">
	<ele>1450.00</ele>
	<time>2023-11-18T08:11:58.000Z</time>
</trkpt>
<trkpt lat="45.8902530" lon="9.8385110">
	<ele>1449.80</ele>
	<time>2023-11-18T08:11:59.000Z</time>
</trkpt>
<trkpt lat="45.8902520" lon="9.8385150">
	<ele>1449.60</ele>
	<time>2023-11-18T08:12:00.000Z</time>
</trkpt>
<trkpt lat="45.8902590" lon="9.8385140">
	<ele>1449.60</ele>
	<time>2023-11-18T08:12:01.000Z</time>
</trkpt>
<trkpt lat="45.8902640" lon="9.8385200">
	<ele>1449.40</ele>
	<time>2023-11-18T08:12:02.000Z</time>
</trkpt>
<trkpt lat="45.8902730" lon="9.8385240">
	<ele>1449.20</ele>
	<time>2023-11-18T08:12:03.000Z</time>
</trkpt>
<trkpt lat="45.8902830" lon="9.8385180">
	<ele>1449.00</ele>
	<time>2023-11-18T08:12:04.000Z</time>
</trkpt>
<trkpt lat="45.8902970" lon="9.8385120">
	<ele>1448.80</ele>
	<time>2023-11-18T08:12:05.000Z</time>
</trkpt>
<trkpt lat="45.8903120" lon="9.8385090">
	<ele>1448.80</ele>
	<time>2023-11-18T08:12:06.000Z</time>
</trkpt>
<trkpt lat="45.8903200" lon="9.8385030">
	<ele>1448.60</ele>
	<time>2023-11-18T08:12:07.000Z</time>
</trkpt>
<trkpt lat="45.8903260" lon="9.8384970">
	<ele>1448.60</ele>
	<time>2023-11-18T08:12:08.000Z</time>
</trkpt>
<trkpt lat="45.8903320" lon="9.8384930">
	<ele>1448.40</ele>
	<time>2023-11-18T08:12:09.000Z</time>
</trkpt>
<trkpt lat="45.8903400" lon="9.8384930">
	<ele>1448.40</ele>
	<time>2023-11-18T08:12:10.000Z</time>
</trkpt>
<trkpt lat="45.8903460" lon="9.8384960">
	<ele>1448.40</ele>
	<time>2023-11-18T08:12:11.000Z</time>
</trkpt>
<trkpt lat="45.8903550" lon="9.8384990">
	<ele>1448.00</ele>
	<time>2023-11-18T08:12:12.000Z</time>
</trkpt>
<trkpt lat="45.8903630" lon="9.8384990">
	<ele>1447.80</ele>
	<time>2023-11-18T08:12:13.000Z</time>
</trkpt>
<trkpt lat="45.8903710" lon="9.8384990">
	<ele>1447.60</ele>
	<time>2023-11-18T08:12:14.000Z</time>
</trkpt>
<trkpt lat="45.8903810" lon="9.8384950">
	<ele>1447.40</ele>
	<time>2023-11-18T08:12:15.000Z</time>
</trkpt>
<trkpt lat="45.8903870" lon="9.8384920">
	<ele>1447.20</ele>
	<time>2023-11-18T08:12:16.000Z</time>
</trkpt>
<trkpt lat="45.8903970" lon="9.8384850">
	<ele>1447.00</ele>
	<time>2023-11-18T08:12:17.000Z</time>
</trkpt>
<trkpt lat="45.8904100" lon="9.8384750">
	<ele>1446.80</ele>
	<time>2023-11-18T08:12:18.000Z</time>
</trkpt>
<trkpt lat="45.8904210" lon="9.8384710">
	<ele>1446.80</ele>
	<time>2023-11-18T08:12:19.000Z</time>
</trkpt>
<trkpt lat="45.8904310" lon="9.8384730">
	<ele>1446.80</ele>
	<time>2023-11-18T08:12:20.000Z</time>
</trkpt>
<trkpt lat="45.8904400" lon="9.8384700">
	<ele>1446.60</ele>
	<time>2023-11-18T08:12:21.000Z</time>
</trkpt>
<trkpt lat="45.8904520" lon="9.8384670">
	<ele>1446.80</ele>
	<time>2023-11-18T08:12:22.000Z</time>
</trkpt>
<trkpt lat="45.8904630" lon="9.8384630">
	<ele>1446.80</ele>
	<time>2023-11-18T08:12:23.000Z</time>
</trkpt>
<trkpt lat="45.8904770" lon="9.8384570">
	<ele>1447.00</ele>
	<time>2023-11-18T08:12:24.000Z</time>
</trkpt>
<trkpt lat="45.8904870" lon="9.8384510">
	<ele>1447.00</ele>
	<time>2023-11-18T08:12:25.000Z</time>
</trkpt>
<trkpt lat="45.8904950" lon="9.8384400">
	<ele>1447.20</ele>
	<time>2023-11-18T08:12:26.000Z</time>
</trkpt>
<trkpt lat="45.8905020" lon="9.8384320">
	<ele>1447.40</ele>
	<time>2023-11-18T08:12:27.000Z</time>
</trkpt>
<trkpt lat="45.8905150" lon="9.8384320">
	<ele>1447.40</ele>
	<time>2023-11-18T08:12:28.000Z</time>
</trkpt>
<trkpt lat="45.8905270" lon="9.8384340">
	<ele>1447.60</ele>
	<time>2023-11-18T08:12:29.000Z</time>
</trkpt>
<trkpt lat="45.8905430" lon="9.8384280">
	<ele>1447.80</ele>
	<time>2023-11-18T08:12:30.000Z</time>
</trkpt>
<trkpt lat="45.8905570" lon="9.8384280">
	<ele>1447.80</ele>
	<time>2023-11-18T08:12:31.000Z</time>
</trkpt>
<trkpt lat="45.8905650" lon="9.8384320">
	<ele>1447.80</ele>
	<time>2023-11-18T08:12:32.000Z</time>
</trkpt>
<trkpt lat="45.8905700" lon="9.8384290">
	<ele>1447.80</ele>
	<time>2023-11-18T08:12:33.000Z</time>
</trkpt>
<trkpt lat="45.8905720" lon="9.8384260">
	<ele>1448.00</ele>
	<time>2023-11-18T08:12:34.000Z</time>
</trkpt>
<trkpt lat="45.8905780" lon="9.8384230">
	<ele>1448.00</ele>
	<time>2023-11-18T08:12:35.000Z</time>
</trkpt>
<trkpt lat="45.8905870" lon="9.8384170">
	<ele>1448.20</ele>
	<time>2023-11-18T08:12:36.000Z</time>
</trkpt>
<trkpt lat="45.8905990" lon="9.8384120">
	<ele>1448.20</ele>
	<time>2023-11-18T08:12:37.000Z</time>
</trkpt>
<trkpt lat="45.8906160" lon="9.8383990">
	<ele>1448.20</ele>
	<time>2023-11-18T08:12:38.000Z</time>
</trkpt>
<trkpt lat="45.8906250" lon="9.8383900">
	<ele>1448.20</ele>
	<time>2023-11-18T08:12:39.000Z</time>
</trkpt>
<trkpt lat="45.8906360" lon="9.8383780">
	<ele>1448.40</ele>
	<time>2023-11-18T08:12:40.000Z</time>
</trkpt>
<trkpt lat="45.8906460" lon="9.8383630">
	<ele>1448.80</ele>
	<time>2023-11-18T08:12:41.000Z</time>
</trkpt>
<trkpt lat="45.8906490" lon="9.8383590">
	<ele>1448.80</ele>
	<time>2023-11-18T08:12:42.000Z</time>
</trkpt>
<trkpt lat="45.8906500" lon="9.8383580">
	<ele>1449.00</ele>
	<time>2023-11-18T08:12:43.000Z</time>
</trkpt>
<trkpt lat="45.8906650" lon="9.8383460">
	<ele>1449.20</ele>
	<time>2023-11-18T08:12:44.000Z</time>
</trkpt>
<trkpt lat="45.8906790" lon="9.8383320">
	<ele>1449.20</ele>
	<time>2023-11-18T08:12:45.000Z</time>
</trkpt>
<trkpt lat="45.8906880" lon="9.8383290">
	<ele>1449.20</ele>
	<time>2023-11-18T08:12:46.000Z</time>
</trkpt>
<trkpt lat="45.8906910" lon="9.8383250">
	<ele>1449.40</ele>
	<time>2023-11-18T08:12:47.000Z</time>
</trkpt>
<trkpt lat="45.8906960" lon="9.8383250">
	<ele>1449.40</ele>
	<time>2023-11-18T08:12:48.000Z</time>
</trkpt>
<trkpt lat="45.8907040" lon="9.8383180">
	<ele>1449.40</ele>
	<time>2023-11-18T08:12:49.000Z</time>
</trkpt>
<trkpt lat="45.8907110" lon="9.8383050">
	<ele>1449.60</ele>
	<time>2023-11-18T08:12:50.000Z</time>
</trkpt>
<trkpt lat="45.8907140" lon="9.8382980">
	<ele>1449.80</ele>
	<time>2023-11-18T08:12:51.000Z</time>
</trkpt>
<trkpt lat="45.8907240" lon="9.8382890">
	<ele>1449.80</ele>
	<time>2023-11-18T08:12:52.000Z</time>
</trkpt>
<trkpt lat="45.8907360" lon="9.8382850">
	<ele>1450.00</ele>
	<time>2023-11-18T08:12:53.000Z</time>
</trkpt>
<trkpt lat="45.8907440" lon="9.8382770">
	<ele>1450.00</ele>
	<time>2023-11-18T08:12:54.000Z</time>
</trkpt>
<trkpt lat="45.8907550" lon="9.8382730">
	<ele>1450.20</ele>
	<time>2023-11-18T08:12:55.000Z</time>
</trkpt>
<trkpt lat="45.8907630" lon="9.8382640">
	<ele>1450.20</ele>
	<time>2023-11-18T08:12:56.000Z</time>
</trkpt>
<trkpt lat="45.8907700" lon="9.8382510">
	<ele>1450.40</ele>
	<time>2023-11-18T08:12:57.000Z</time>
</trkpt>
<trkpt lat="45.8907760" lon="9.8382420">
	<ele>1450.40</ele>
	<time>2023-11-18T08:12:58.000Z</time>
</trkpt>
<trkpt lat="45.8907860" lon="9.8382370">
	<ele>1450.60</ele>
	<time>2023-11-18T08:12:59.000Z</time>
</trkpt>
<trkpt lat="45.8907920" lon="9.8382320">
	<ele>1450.80</ele>
	<time>2023-11-18T08:13:00.000Z</time>
</trkpt>
<trkpt lat="45.8907970" lon="9.8382240">
	<ele>1451.00</ele>
	<time>2023-11-18T08:13:01.000Z</time>
</trkpt>
<trkpt lat="45.8907970" lon="9.8382180">
	<ele>1451.20</ele>
	<time>2023-11-18T08:13:02.000Z</time>
</trkpt>
<trkpt lat="45.8907960" lon="9.8382140">
	<ele>1451.40</ele>
	<time>2023-11-18T08:13:03.000Z</time>
</trkpt>
<trkpt lat="45.8908010" lon="9.8382130">
	<ele>1451.60</ele>
	<time>2023-11-18T08:13:04.000Z</time>
</trkpt>
<trkpt lat="45.8908090" lon="9.8382140">
	<ele>1451.80</ele>
	<time>2023-11-18T08:13:05.000Z</time>
</trkpt>
<trkpt lat="45.8908180" lon="9.8382110">
	<ele>1451.80</ele>
	<time>2023-11-18T08:13:06.000Z</time>
</trkpt>
<trkpt lat="45.8908300" lon="9.8382090">
	<ele>1452.00</ele>
	<time>2023-11-18T08:13:07.000Z</time>
</trkpt>
<trkpt lat="45.8908460" lon="9.8382030">
	<ele>1452.00</ele>
	<time>2023-11-18T08:13:08.000Z</time>
</trkpt>
<trkpt lat="45.8908510" lon="9.8382010">
	<ele>1452.20</ele>
	<time>2023-11-18T08:13:09.000Z</time>
</trkpt>
<trkpt lat="45.8908620" lon="9.8381840">
	<ele>1452.20</ele>
	<time>2023-11-18T08:13:10.000Z</time>
</trkpt>
<trkpt lat="45.8908710" lon="9.8381730">
	<ele>1452.40</ele>
	<time>2023-11-18T08:13:11.000Z</time>
</trkpt>
<trkpt lat="45.8908800" lon="9.8381660">
	<ele>1452.40</ele>
	<time>2023-11-18T08:13:12.000Z</time>
</trkpt>
<trkpt lat="45.8908950" lon="9.8381620">
	<ele>1452.40</ele>
	<time>2023-11-18T08:13:13.000Z</time>
</trkpt>
<trkpt lat="45.8909110" lon="9.8381560">
	<ele>1452.60</ele>
	<time>2023-11-18T08:13:14.000Z</time>
</trkpt>
<trkpt lat="45.8909190" lon="9.8381480">
	<ele>1452.60</ele>
	<time>2023-11-18T08:13:15.000Z</time>
</trkpt>
<trkpt lat="45.8909270" lon="9.8381370">
	<ele>1452.80</ele>
	<time>2023-11-18T08:13:16.000Z</time>
</trkpt>
<trkpt lat="45.8909370" lon="9.8381300">
	<ele>1453.00</ele>
	<time>2023-11-18T08:13:17.000Z</time>
</trkpt>
<trkpt lat="45.8909450" lon="9.8381260">
	<ele>1453.20</ele>
	<time>2023-11-18T08:13:18.000Z</time>
</trkpt>
<trkpt lat="45.8909520" lon="9.8381210">
	<ele>1453.40</ele>
	<time>2023-11-18T08:13:19.000Z</time>
</trkpt>
<trkpt lat="45.8909590" lon="9.8381160">
	<ele>1453.60</ele>
	<time>2023-11-18T08:13:20.000Z</time>
</trkpt>
<trkpt lat="45.8909650" lon="9.8381150">
	<ele>1453.80</ele>
	<time>2023-11-18T08:13:21.000Z</time>
</trkpt>
<trkpt lat="45.8909680" lon="9.8381130">
	<ele>1453.80</ele>
	<time>2023-11-18T08:13:22.000Z</time>
</trkpt>
<trkpt lat="45.8909710" lon="9.8381120">
	<ele>1454.20</ele>
	<time>2023-11-18T08:13:23.000Z</time>
</trkpt>
<trkpt lat="45.8909730" lon="9.8381080">
	<ele>1454.40</ele>
	<time>2023-11-18T08:13:24.000Z</time>
</trkpt>
<trkpt lat="45.8909770" lon="9.8381060">
	<ele>1454.40</ele>
	<time>2023-11-18T08:13:25.000Z</time>
</trkpt>
<trkpt lat="45.8909880" lon="9.8380880">
	<ele>1454.60</ele>
	<time>2023-11-18T08:13:26.000Z</time>
</trkpt>
<trkpt lat="45.8909980" lon="9.8380730">
	<ele>1454.80</ele>
	<time>2023-11-18T08:13:27.000Z</time>
</trkpt>
<trkpt lat="45.8910090" lon="9.8380650">
	<ele>1454.80</ele>
	<time>2023-11-18T08:13:28.000Z</time>
</trkpt>
<trkpt lat="45.8910200" lon="9.8380560">
	<ele>1455.00</ele>
	<time>2023-11-18T08:13:29.000Z</time>
</trkpt>
<trkpt lat="45.8910340" lon="9.8380520">
	<ele>1455.20</ele>
	<time>2023-11-18T08:13:30.000Z</time>
</trkpt>
<trkpt lat="45.8910450" lon="9.8380520">
	<ele>1455.20</ele>
	<time>2023-11-18T08:13:31.000Z</time>
</trkpt>
<trkpt lat="45.8910570" lon="9.8380490">
	<ele>1455.60</ele>
	<time>2023-11-18T08:13:32.000Z</time>
</trkpt>
<trkpt lat="45.8910680" lon="9.8380460">
	<ele>1455.60</ele>
	<time>2023-11-18T08:13:33.000Z</time>
</trkpt>
<trkpt lat="45.8910780" lon="9.8380390">
	<ele>1455.80</ele>
	<time>2023-11-18T08:13:34.000Z</time>
</trkpt>
<trkpt lat="45.8910860" lon="9.8380340">
	<ele>1456.00</ele>
	<time>2023-11-18T08:13:35.000Z</time>
</trkpt>
<trkpt lat="45.8910940" lon="9.8380280">
	<ele>1456.00</ele>
	<time>2023-11-18T08:13:36.000Z</time>
</trkpt>
<trkpt lat="45.8911020" lon="9.8380170">
	<ele>1456.00</ele>
	<time>2023-11-18T08:13:37.000Z</time>
</trkpt>
<trkpt lat="45.8911090" lon="9.8380050">
	<ele>1456.20</ele>
	<time>2023-11-18T08:13:38.000Z</time>
</trkpt>
<trkpt lat="45.8911140" lon="9.8380040">
	<ele>1456.40</ele>
	<time>2023-11-18T08:13:39.000Z</time>
</trkpt>
<trkpt lat="45.8911220" lon="9.8379980">
	<ele>1456.60</ele>
	<time>2023-11-18T08:13:40.000Z</time>
</trkpt>
<trkpt lat="45.8911310" lon="9.8379910">
	<ele>1456.60</ele>
	<time>2023-11-18T08:13:41.000Z</time>
</trkpt>
<trkpt lat="45.8911390" lon="9.8379840">
	<ele>1456.80</ele>
	<time>2023-11-18T08:13:42.000Z</time>
</trkpt>
<trkpt lat="45.8911450" lon="9.8379790">
	<ele>1456.80</ele>
	<time>2023-11-18T08:13:43.000Z</time>
</trkpt>
<trkpt lat="45.8911440" lon="9.8379730">
	<ele>1457.20</ele>
	<time>2023-11-18T08:13:44.000Z</time>
</trkpt>
<trkpt lat="45.8911440" lon="9.8379700">
	<ele>1457.20</ele>
	<time>2023-11-18T08:13:45.000Z</time>
</trkpt>
<trkpt lat="45.8911460" lon="9.8379680">
	<ele>1457.40</ele>
	<time>2023-11-18T08:13:46.000Z</time>
</trkpt>
<trkpt lat="45.8911490" lon="9.8379710">
	<ele>1457.60</ele>
	<time>2023-11-18T08:13:47.000Z</time>
</trkpt>
<trkpt lat="45.8911570" lon="9.8379680">
	<ele>1457.80</ele>
	<time>2023-11-18T08:13:48.000Z</time>
</trkpt>
<trkpt lat="45.8911630" lon="9.8379660">
	<ele>1457.80</ele>
	<time>2023-11-18T08:13:49.000Z</time>
</trkpt>
<trkpt lat="45.8911690" lon="9.8379650">
	<ele>1458.00</ele>
	<time>2023-11-18T08:13:50.000Z</time>
</trkpt>
<trkpt lat="45.8911780" lon="9.8379670">
	<ele>1458.20</ele>
	<time>2023-11-18T08:13:51.000Z</time>
</trkpt>
<trkpt lat="45.8911820" lon="9.8379680">
	<ele>1458.60</ele>
	<time>2023-11-18T08:13:52.000Z</time>
</trkpt>
<trkpt lat="45.8911850" lon="9.8379710">
	<ele>1458.80</ele>
	<time>2023-11-18T08:13:53.000Z</time>
</trkpt>
<trkpt lat="45.8911900" lon="9.8379710">
	<ele>1458.80</ele>
	<time>2023-11-18T08:13:54.000Z</time>
</trkpt>
<trkpt lat="45.8911960" lon="9.8379730">
	<ele>1458.80</ele>
	<time>2023-11-18T08:13:55.000Z</time>
</trkpt>
<trkpt lat="45.8912010" lon="9.8379700">
	<ele>1459.00</ele>
	<time>2023-11-18T08:13:56.000Z</time>
</trkpt>
<trkpt lat="45.8912070" lon="9.8379650">
	<ele>1459.20</ele>
	<time>2023-11-18T08:13:57.000Z</time>
</trkpt>
<trkpt lat="45.8912110" lon="9.8379590">
	<ele>1459.40</ele>
	<time>2023-11-18T08:13:58.000Z</time>
</trkpt>
<trkpt lat="45.8912160" lon="9.8379570">
	<ele>1459.60</ele>
	<time>2023-11-18T08:13:59.000Z</time>
</trkpt>
<trkpt lat="45.8912240" lon="9.8379530">
	<ele>1459.80</ele>
	<time>2023-11-18T08:14:00.000Z</time>
</trkpt>
<trkpt lat="45.8912300" lon="9.8379550">
	<ele>1459.80</ele>
	<time>2023-11-18T08:14:01.000Z</time>
</trkpt>
<trkpt lat="45.8912350" lon="9.8379550">
	<ele>1460.00</ele>
	<time>2023-11-18T08:14:02.000Z</time>
</trkpt>
<trkpt lat="45.8912390" lon="9.8379530">
	<ele>1460.20</ele>
	<time>2023-11-18T08:14:03.000Z</time>
</trkpt>
<trkpt lat="45.8912460" lon="9.8379480">
	<ele>1460.20</ele>
	<time>2023-11-18T08:14:04.000Z</time>
</trkpt>
<trkpt lat="45.8912530" lon="9.8379420">
	<ele>1460.40</ele>
	<time>2023-11-18T08:14:05.000Z</time>
</trkpt>
<trkpt lat="45.8912590" lon="9.8379370">
	<ele>1460.40</ele>
	<time>2023-11-18T08:14:06.000Z</time>
</trkpt>
<trkpt lat="45.8912640" lon="9.8379310">
	<ele>1460.60</ele>
	<time>2023-11-18T08:14:07.000Z</time>
</trkpt>
<trkpt lat="45.8912650" lon="9.8379320">
	<ele>1460.80</ele>
	<time>2023-11-18T08:14:08.000Z</time>
</trkpt>
<trkpt lat="45.8912640" lon="9.8379380">
	<ele>1461.20</ele>
	<time>2023-11-18T08:14:09.000Z</time>
</trkpt>
<trkpt lat="45.8912690" lon="9.8379390">
	<ele>1461.20</ele>
	<time>2023-11-18T08:14:10.000Z</time>
</trkpt>
<trkpt lat="45.8912780" lon="9.8379380">
	<ele>1461.40</ele>
	<time>2023-11-18T08:14:11.000Z</time>
</trkpt>
<trkpt lat="45.8912850" lon="9.8379370">
	<ele>1461.40</ele>
	<time>2023-11-18T08:14:12.000Z</time>
</trkpt>
<trkpt lat="45.8912920" lon="9.8379270">
	<ele>1461.60</ele>
	<time>2023-11-18T08:14:13.000Z</time>
</trkpt>
<trkpt lat="45.8912980" lon="9.8379110">
	<ele>1461.60</ele>
	<time>2023-11-18T08:14:14.000Z</time>
</trkpt>
<trkpt lat="45.8913020" lon="9.8379040">
	<ele>1461.80</ele>
	<time>2023-11-18T08:14:15.000Z</time>
</trkpt>
<trkpt lat="45.8913060" lon="9.8379030">
	<ele>1462.00</ele>
	<time>2023-11-18T08:14:16.000Z</time>
</trkpt>
<trkpt lat="45.8913060" lon="9.8379060">
	<ele>1462.00</ele>
	<time>2023-11-18T08:14:17.000Z</time>
</trkpt>
<trkpt lat="45.8913080" lon="9.8379080">
	<ele>1462.40</ele>
	<time>2023-11-18T08:14:18.000Z</time>
</trkpt>
<trkpt lat="45.8913180" lon="9.8379130">
	<ele>1462.60</ele>
	<time>2023-11-18T08:14:19.000Z</time>
</trkpt>
<trkpt lat="45.8913310" lon="9.8379150">
	<ele>1462.80</ele>
	<time>2023-11-18T08:14:20.000Z</time>
</trkpt>
<trkpt lat="45.8913370" lon="9.8379190">
	<ele>1463.00</ele>
	<time>2023-11-18T08:14:21.000Z</time>
</trkpt>
<trkpt lat="45.8913440" lon="9.8379190">
	<ele>1463.00</ele>
	<time>2023-11-18T08:14:22.000Z</time>
</trkpt>
<trkpt lat="45.8913510" lon="9.8379160">
	<ele>1463.00</ele>
	<time>2023-11-18T08:14:23.000Z</time>
</trkpt>
<trkpt lat="45.8913600" lon="9.8379160">
	<ele>1463.20</ele>
	<time>2023-11-18T08:14:24.000Z</time>
</trkpt>
<trkpt lat="45.8913620" lon="9.8379160">
	<ele>1463.60</ele>
	<time>2023-11-18T08:14:25.000Z</time>
</trkpt>
<trkpt lat="45.8913680" lon="9.8379090">
	<ele>1463.80</ele>
	<time>2023-11-18T08:14:26.000Z</time>
</trkpt>
<trkpt lat="45.8913760" lon="9.8379030">
	<ele>1463.80</ele>
	<time>2023-11-18T08:14:27.000Z</time>
</trkpt>
<trkpt lat="45.8913780" lon="9.8378950">
	<ele>1464.00</ele>
	<time>2023-11-18T08:14:28.000Z</time>
</trkpt>
<trkpt lat="45.8913810" lon="9.8378920">
	<ele>1464.00</ele>
	<time>2023-11-18T08:14:29.000Z</time>
</trkpt>
<trkpt lat="45.8913810" lon="9.8378850">
	<ele>1464.20</ele>
	<time>2023-11-18T08:14:30.000Z</time>
</trkpt>
<trkpt lat="45.8913830" lon="9.8378750">
	<ele>1464.60</ele>
	<time>2023-11-18T08:14:31.000Z</time>
</trkpt>
<trkpt lat="45.8913860" lon="9.8378640">
	<ele>1464.80</ele>
	<time>2023-11-18T08:14:32.000Z</time>
</trkpt>
<trkpt lat="45.8913910" lon="9.8378570">
	<ele>1465.00</ele>
	<time>2023-11-18T08:14:33.000Z</time>
</trkpt>
<trkpt lat="45.8913980" lon="9.8378540">
	<ele>1465.20</ele>
	<time>2023-11-18T08:14:34.000Z</time>
</trkpt>
<trkpt lat="45.8914030" lon="9.8378530">
	<ele>1465.20</ele>
	<time>2023-11-18T08:14:35.000Z</time>
</trkpt>
<trkpt lat="45.8914100" lon="9.8378450">
	<ele>1465.40</ele>
	<time>2023-11-18T08:14:36.000Z</time>
</trkpt>
<trkpt lat="45.8914180" lon="9.8378380">
	<ele>1465.60</ele>
	<time>2023-11-18T08:14:37.000Z</time>
</trkpt>
<trkpt lat="45.8914250" lon="9.8378290">
	<ele>1465.80</ele>
	<time>2023-11-18T08:14:38.000Z</time>
</trkpt>
<trkpt lat="45.8914330" lon="9.8378240">
	<ele>1465.80</ele>
	<time>2023-11-18T08:14:39.000Z</time>
</trkpt>
<trkpt lat="45.8914390" lon="9.8378280">
	<ele>1466.20</ele>
	<time>2023-11-18T08:14:40.000Z</time>
</trkpt>
<trkpt lat="45.8914410" lon="9.8378310">
	<ele>1466.20</ele>
	<time>2023-11-18T08:14:41.000Z</time>
</trkpt>
<trkpt lat="45.8914440" lon="9.8378340">
	<ele>1466.40</ele>
	<time>2023-11-18T08:14:42.000Z</time>
</trkpt>
<trkpt lat="45.8914440" lon="9.8378300">
	<ele>1466.60</ele>
	<time>2023-11-18T08:14:43.000Z</time>
</trkpt>
<trkpt lat="45.8914430" lon="9.8378300">
	<ele>1466.80</ele>
	<time>2023-11-18T08:14:44.000Z</time>
</trkpt>
<trkpt lat="45.8914440" lon="9.8378230">
	<ele>1467.00</ele>
	<time>2023-11-18T08:14:45.000Z</time>
</trkpt>
<trkpt lat="45.8914450" lon="9.8378130">
	<ele>1467.20</ele>
	<time>2023-11-18T08:14:46.000Z</time>
</trkpt>
<trkpt lat="45.8914430" lon="9.8378150">
	<ele>1467.60</ele>
	<time>2023-11-18T08:14:47.000Z</time>
</trkpt>
<trkpt lat="45.8914430" lon="9.8378150">
	<ele>1467.80</ele>
	<time>2023-11-18T08:14:48.000Z</time>
</trkpt>
<trkpt lat="45.8914450" lon="9.8378120">
	<ele>1468.00</ele>
	<time>2023-11-18T08:14:49.000Z</time>
</trkpt>
<trkpt lat="45.8914500" lon="9.8378100">
	<ele>1468.00</ele>
	<time>2023-11-18T08:14:50.000Z</time>
</trkpt>
<trkpt lat="45.8914540" lon="9.8378110">
	<ele>1468.20</ele>
	<time>2023-11-18T08:14:51.000Z</time>
</trkpt>
<trkpt lat="45.8914600" lon="9.8378120">
	<ele>1468.40</ele>
	<time>2023-11-18T08:14:52.000Z</time>
</trkpt>
<trkpt lat="45.8914670" lon="9.8378040">
	<ele>1468.40</ele>
	<time>2023-11-18T08:14:53.000Z</time>
</trkpt>
<trkpt lat="45.8914770" lon="9.8377940">
	<ele>1468.60</ele>
	<time>2023-11-18T08:14:54.000Z</time>
</trkpt>
<trkpt lat="45.8914850" lon="9.8377850">
	<ele>1468.80</ele>
	<time>2023-11-18T08:14:55.000Z</time>
</trkpt>
<trkpt lat="45.8914910" lon="9.8377780">
	<ele>1469.00</ele>
	<time>2023-11-18T08:14:56.000Z</time>
</trkpt>
<trkpt lat="45.8915020" lon="9.8377660">
	<ele>1469.00</ele>
	<time>2023-11-18T08:14:57.000Z</time>
</trkpt>
<trkpt lat="45.8915110" lon="9.8377670">
	<ele>1469.20</ele>
	<time>2023-11-18T08:14:58.000Z</time>
</trkpt>
<trkpt lat="45.8915210" lon="9.8377680">
	<ele>1469.40</ele>
	<time>2023-11-18T08:14:59.000Z</time>
</trkpt>
<trkpt lat="45.8915370" lon="9.8377890">
	<ele>1469.40</ele>
	<time>2023-11-18T08:15:00.000Z</time>
</trkpt>
<trkpt lat="45.8915540" lon="9.8377920">
	<ele>1469.60</ele>
	<time>2023-11-18T08:15:01.000Z</time>
</trkpt>
<trkpt lat="45.8915680" lon="9.8378010">
	<ele>1469.80</ele>
	<time>2023-11-18T08:15:02.000Z</time>
</trkpt>
<trkpt lat="45.8915800" lon="9.8378100">
	<ele>1470.00</ele>
	<time>2023-11-18T08:15:03.000Z</time>
</trkpt>
<trkpt lat="45.8915860" lon="9.8378070">
	<ele>1470.20</ele>
	<time>2023-11-18T08:15:04.000Z</time>
</trkpt>
<trkpt lat="45.8915930" lon="9.8377990">
	<ele>1470.20</ele>
	<time>2023-11-18T08:15:05.000Z</time>
</trkpt>
<trkpt lat="45.8915990" lon="9.8377770">
	<ele>1470.40</ele>
	<time>2023-11-18T08:15:06.000Z</time>
</trkpt>
<trkpt lat="45.8916030" lon="9.8377540">
	<ele>1470.60</ele>
	<time>2023-11-18T08:15:07.000Z</time>
</trkpt>
<trkpt lat="45.8916030" lon="9.8377420">
	<ele>1470.60</ele>
	<time>2023-11-18T08:15:08.000Z</time>
</trkpt>
<trkpt lat="45.8916090" lon="9.8377380">
	<ele>1470.80</ele>
	<time>2023-11-18T08:15:09.000Z</time>
</trkpt>
<trkpt lat="45.8916190" lon="9.8377370">
	<ele>1471.00</ele>
	<time>2023-11-18T08:15:10.000Z</time>
</trkpt>
<trkpt lat="45.8916270" lon="9.8377330">
	<ele>1471.20</ele>
	<time>2023-11-18T08:15:11.000Z</time>
</trkpt>
<trkpt lat="45.8916320" lon="9.8377240">
	<ele>1471.40</ele>
	<time>2023-11-18T08:15:12.000Z</time>
</trkpt>
<trkpt lat="45.8916400" lon="9.8377130">
	<ele>1471.80</ele>
	<time>2023-11-18T08:15:13.000Z</time>
</trkpt>
<trkpt lat="45.8916480" lon="9.8376990">
	<ele>1471.80</ele>
	<time>2023-11-18T08:15:14.000Z</time>
</trkpt>
<trkpt lat="45.8916530" lon="9.8376880">
	<ele>1472.20</ele>
	<time>2023-11-18T08:15:15.000Z</time>
</trkpt>
<trkpt lat="45.8916580" lon="9.8376760">
	<ele>1472.40</ele>
	<time>2023-11-18T08:15:16.000Z</time>
</trkpt>
<trkpt lat="45.8916650" lon="9.8376620">
	<ele>1472.40</ele>
	<time>2023-11-18T08:15:17.000Z</time>
</trkpt>
<trkpt lat="45.8916730" lon="9.8376450">
	<ele>1472.60</ele>
	<time>2023-11-18T08:15:18.000Z</time>
</trkpt>
<trkpt lat="45.8916800" lon="9.8376220">
	<ele>1472.60</ele>
	<time>2023-11-18T08:15:19.000Z</time>
</trkpt>
<trkpt lat="45.8916830" lon="9.8376010">
	<ele>1472.60</ele>
	<time>2023-11-18T08:15:20.000Z</time>
</trkpt>
<trkpt lat="45.8916830" lon="9.8375940">
	<ele>1472.80</ele>
	<time>2023-11-18T08:15:21.000Z</time>
</trkpt>
<trkpt lat="45.8916830" lon="9.8375900">
	<ele>1473.20</ele>
	<time>2023-11-18T08:15:22.000Z</time>
</trkpt>
<trkpt lat="45.8916850" lon="9.8375830">
	<ele>1473.40</ele>
	<time>2023-11-18T08:15:23.000Z</time>
</trkpt>
<trkpt lat="45.8916870" lon="9.8375820">
	<ele>1473.40</ele>
	<time>2023-11-18T08:15:24.000Z</time>
</trkpt>
<trkpt lat="45.8916960" lon="9.8375790">
	<ele>1473.60</ele>
	<time>2023-11-18T08:15:25.000Z</time>
</trkpt>
<trkpt lat="45.8917010" lon="9.8375730">
	<ele>1473.60</ele>
	<time>2023-11-18T08:15:26.000Z</time>
</trkpt>
<trkpt lat="45.8917070" lon="9.8375640">
	<ele>1473.80</ele>
	<time>2023-11-18T08:15:27.000Z</time>
</trkpt>
<trkpt lat="45.8917150" lon="9.8375510">
	<ele>1474.00</ele>
	<time>2023-11-18T08:15:28.000Z</time>
</trkpt>
<trkpt lat="45.8917250" lon="9.8375380">
	<ele>1474.00</ele>
	<time>2023-11-18T08:15:29.000Z</time>
</trkpt>
<trkpt lat="45.8917330" lon="9.8375250">
	<ele>1474.20</ele>
	<time>2023-11-18T08:15:30.000Z</time>
</trkpt>
<trkpt lat="45.8917410" lon="9.8375160">
	<ele>1474.20</ele>
	<time>2023-11-18T08:15:31.000Z</time>
</trkpt>
<trkpt lat="45.8917510" lon="9.8375050">
	<ele>1474.40</ele>
	<time>2023-11-18T08:15:32.000Z</time>
</trkpt>
<trkpt lat="45.8917580" lon="9.8374950">
	<ele>1474.60</ele>
	<time>2023-11-18T08:15:33.000Z</time>
</trkpt>
<trkpt lat="45.8917650" lon="9.8374770">
	<ele>1474.80</ele>
	<time>2023-11-18T08:15:34.000Z</time>
</trkpt>
<trkpt lat="45.8917710" lon="9.8374570">
	<ele>1475.00</ele>
	<time>2023-11-18T08:15:35.000Z</time>
</trkpt>
<trkpt lat="45.8917780" lon="9.8374380">
	<ele>1475.00</ele>
	<time>2023-11-18T08:15:36.000Z</time>
</trkpt>
<trkpt lat="45.8917810" lon="9.8374180">
	<ele>1475.40</ele>
	<time>2023-11-18T08:15:37.000Z</time>
</trkpt>
<trkpt lat="45.8917850" lon="9.8374020">
	<ele>1475.60</ele>
	<time>2023-11-18T08:15:38.000Z</time>
</trkpt>
<trkpt lat="45.8917890" lon="9.8373890">
	<ele>1475.60</ele>
	<time>2023-11-18T08:15:39.000Z</time>
</trkpt>
<trkpt lat="45.8917920" lon="9.8373850">
	<ele>1475.80</ele>
	<time>2023-11-18T08:15:40.000Z</time>
</trkpt>
<trkpt lat="45.8917990" lon="9.8373790">
	<ele>1476.00</ele>
	<time>2023-11-18T08:15:41.000Z</time>
</trkpt>
<trkpt lat="45.8918050" lon="9.8373710">
	<ele>1476.00</ele>
	<time>2023-11-18T08:15:42.000Z</time>
</trkpt>
<trkpt lat="45.8918110" lon="9.8373650">
	<ele>1476.20</ele>
	<time>2023-11-18T08:15:43.000Z</time>
</trkpt>
<trkpt lat="45.8918160" lon="9.8373560">
	<ele>1476.40</ele>
	<time>2023-11-18T08:15:44.000Z</time>
</trkpt>
<trkpt lat="45.8918180" lon="9.8373430">
	<ele>1476.60</ele>
	<time>2023-11-18T08:15:45.000Z</time>
</trkpt>
<trkpt lat="45.8918180" lon="9.8373360">
	<ele>1476.60</ele>
	<time>2023-11-18T08:15:46.000Z</time>
</trkpt>
<trkpt lat="45.8918180" lon="9.8373300">
	<ele>1476.80</ele>
	<time>2023-11-18T08:15:47.000Z</time>
</trkpt>
<trkpt lat="45.8918210" lon="9.8373200">
	<ele>1476.80</ele>
	<time>2023-11-18T08:15:48.000Z</time>
</trkpt>
<trkpt lat="45.8918240" lon="9.8373120">
	<ele>1477.00</ele>
	<time>2023-11-18T08:15:49.000Z</time>
</trkpt>
<trkpt lat="45.8918260" lon="9.8373070">
	<ele>1477.00</ele>
	<time>2023-11-18T08:15:50.000Z</time>
</trkpt>
<trkpt lat="45.8918270" lon="9.8373050">
	<ele>1477.00</ele>
	<time>2023-11-18T08:15:51.000Z</time>
</trkpt>
<trkpt lat="45.8918300" lon="9.8372980">
	<ele>1477.40</ele>
	<time>2023-11-18T08:15:52.000Z</time>
</trkpt>
<trkpt lat="45.8918390" lon="9.8372760">
	<ele>1477.60</ele>
	<time>2023-11-18T08:15:53.000Z</time>
</trkpt>
<trkpt lat="45.8918430" lon="9.8372600">
	<ele>1477.80</ele>
	<time>2023-11-18T08:15:54.000Z</time>
</trkpt>
<trkpt lat="45.8918460" lon="9.8372500">
	<ele>1478.00</ele>
	<time>2023-11-18T08:15:55.000Z</time>
</trkpt>
<trkpt lat="45.8918500" lon="9.8372500">
	<ele>1478.20</ele>
	<time>2023-11-18T08:15:56.000Z</time>
</trkpt>
<trkpt lat="45.8918560" lon="9.8372450">
	<ele>1478.40</ele>
	<time>2023-11-18T08:15:57.000Z</time>
</trkpt>
<trkpt lat="45.8918650" lon="9.8372390">
	<ele>1478.40</ele>
	<time>2023-11-18T08:15:58.000Z</time>
</trkpt>
<trkpt lat="45.8918720" lon="9.8372320">
	<ele>1478.40</ele>
	<time>2023-11-18T08:15:59.000Z</time>
</trkpt>
<trkpt lat="45.8918770" lon="9.8372270">
	<ele>1478.60</ele>
	<time>2023-11-18T08:16:00.000Z</time>
</trkpt>
<trkpt lat="45.8918820" lon="9.8372250">
	<ele>1478.80</ele>
	<time>2023-11-18T08:16:01.000Z</time>
</trkpt>
<trkpt lat="45.8918870" lon="9.8372170">
	<ele>1479.00</ele>
	<time>2023-11-18T08:16:02.000Z</time>
</trkpt>
<trkpt lat="45.8918900" lon="9.8372110">
	<ele>1479.20</ele>
	<time>2023-11-18T08:16:03.000Z</time>
</trkpt>
<trkpt lat="45.8918970" lon="9.8372030">
	<ele>1479.40</ele>
	<time>2023-11-18T08:16:04.000Z</time>
</trkpt>
<trkpt lat="45.8919000" lon="9.8372010">
	<ele>1479.60</ele>
	<time>2023-11-18T08:16:05.000Z</time>
</trkpt>
<trkpt lat="45.8919050" lon="9.8372020">
	<ele>1479.60</ele>
	<time>2023-11-18T08:16:06.000Z</time>
</trkpt>
<trkpt lat="45.8919080" lon="9.8371980">
	<ele>1479.80</ele>
	<time>2023-11-18T08:16:07.000Z</time>
</trkpt>
<trkpt lat="45.8919100" lon="9.8371930">
	<ele>1480.00</ele>
	<time>2023-11-18T08:16:08.000Z</time>
</trkpt>
<trkpt lat="45.8919140" lon="9.8371860">
	<ele>1480.20</ele>
	<time>2023-11-18T08:16:09.000Z</time>
</trkpt>
<trkpt lat="45.8919170" lon="9.8371780">
	<ele>1480.40</ele>
	<time>2023-11-18T08:16:10.000Z</time>
</trkpt>
<trkpt lat="45.8919190" lon="9.8371730">
	<ele>1480.60</ele>
	<time>2023-11-18T08:16:11.000Z</time>
</trkpt>
<trkpt lat="45.8919250" lon="9.8371710">
	<ele>1480.60</ele>
	<time>2023-11-18T08:16:12.000Z</time>
</trkpt>
<trkpt lat="45.8919290" lon="9.8371700">
	<ele>1480.80</ele>
	<time>2023-11-18T08:16:13.000Z</time>
</trkpt>
<trkpt lat="45.8919310" lon="9.8371680">
	<ele>1481.00</ele>
	<time>2023-11-18T08:16:14.000Z</time>
</trkpt>
<trkpt lat="45.8919320" lon="9.8371710">
	<ele>1481.00</ele>
	<time>2023-11-18T08:16:15.000Z</time>
</trkpt>
<trkpt lat="45.8919380" lon="9.8371740">
	<ele>1481.20</ele>
	<time>2023-11-18T08:16:16.000Z</time>
</trkpt>
<trkpt lat="45.8919400" lon="9.8371720">
	<ele>1481.20</ele>
	<time>2023-11-18T08:16:17.000Z</time>
</trkpt>
<trkpt lat="45.8919450" lon="9.8371710">
	<ele>1481.40</ele>
	<time>2023-11-18T08:16:18.000Z</time>
</trkpt>
<trkpt lat="45.8919490" lon="9.8371670">
	<ele>1481.60</ele>
	<time>2023-11-18T08:16:19.000Z</time>
</trkpt>
<trkpt lat="45.8919540" lon="9.8371630">
	<ele>1481.80</ele>
	<time>2023-11-18T08:16:20.000Z</time>
</trkpt>
<trkpt lat="45.8919620" lon="9.8371590">
	<ele>1482.00</ele>
	<time>2023-11-18T08:16:21.000Z</time>
</trkpt>
<trkpt lat="45.8919710" lon="9.8371550">
	<ele>1482.00</ele>
	<time>2023-11-18T08:16:22.000Z</time>
</trkpt>
<trkpt lat="45.8919810" lon="9.8371510">
	<ele>1482.20</ele>
	<time>2023-11-18T08:16:23.000Z</time>
</trkpt>
<trkpt lat="45.8919850" lon="9.8371480">
	<ele>1482.20</ele>
	<time>2023-11-18T08:16:24.000Z</time>
</trkpt>
<trkpt lat="45.8919900" lon="9.8371410">
	<ele>1482.40</ele>
	<time>2023-11-18T08:16:25.000Z</time>
</trkpt>
<trkpt lat="45.8919970" lon="9.8371320">
	<ele>1482.60</ele>
	<time>2023-11-18T08:16:26.000Z</time>
</trkpt>
<trkpt lat="45.8920010" lon="9.8371280">
	<ele>1482.60</ele>
	<time>2023-11-18T08:16:27.000Z</time>
</trkpt>
<trkpt lat="45.8920040" lon="9.8371260">
	<ele>1482.80</ele>
	<time>2023-11-18T08:16:28.000Z</time>
</trkpt>
<trkpt lat="45.8920050" lon="9.8371220">
	<ele>1482.80</ele>
	<time>2023-11-18T08:16:29.000Z</time>
</trkpt>
<trkpt lat="45.8920040" lon="9.8371160">
	<ele>1483.00</ele>
	<time>2023-11-18T08:16:30.000Z</time>
</trkpt>
<trkpt lat="45.8920060" lon="9.8371100">
	<ele>1483.20</ele>
	<time>2023-11-18T08:16:31.000Z</time>
</trkpt>
<trkpt lat="45.8920100" lon="9.8371070">
	<ele>1483.40</ele>
	<time>2023-11-18T08:16:32.000Z</time>
</trkpt>
<trkpt lat="45.8920170" lon="9.8371030">
	<ele>1483.60</ele>
	<time>2023-11-18T08:16:33.000Z</time>
</trkpt>
<trkpt lat="45.8920200" lon="9.8371010">
	<ele>1483.60</ele>
	<time>2023-11-18T08:16:34.000Z</time>
</trkpt>
<trkpt lat="45.8920290" lon="9.8371020">
	<ele>1483.80</ele>
	<time>2023-11-18T08:16:35.000Z</time>
</trkpt>
<trkpt lat="45.8920380" lon="9.8370990">
	<ele>1484.20</ele>
	<time>2023-11-18T08:16:36.000Z</time>
</trkpt>
<trkpt lat="45.8920490" lon="9.8370960">
	<ele>1484.60</ele>
	<time>2023-11-18T08:16:37.000Z</time>
</trkpt>
<trkpt lat="45.8920560" lon="9.8370910">
	<ele>1484.60</ele>
	<time>2023-11-18T08:16:38.000Z</time>
</trkpt>
<trkpt lat="45.8920610" lon="9.8370860">
	<ele>1484.80</ele>
	<time>2023-11-18T08:16:39.000Z</time>
</trkpt>
<trkpt lat="45.8920650" lon="9.8370830">
	<ele>1484.80</ele>
	<time>2023-11-18T08:16:40.000Z</time>
</trkpt>
<trkpt lat="45.8920710" lon="9.8370790">
	<ele>1484.80</ele>
	<time>2023-11-18T08:16:41.000Z</time>
</trkpt>
<trkpt lat="45.8920790" lon="9.8370700">
	<ele>1485.20</ele>
	<time>2023-11-18T08:16:42.000Z</time>
</trkpt>
<trkpt lat="45.8920880" lon="9.8370600">
	<ele>1485.40</ele>
	<time>2023-11-18T08:16:43.000Z</time>
</trkpt>
<trkpt lat="45.8920890" lon="9.8370560">
	<ele>1485.60</ele>
	<time>2023-11-18T08:16:44.000Z</time>
</trkpt>
<trkpt lat="45.8920900" lon="9.8370540">
	<ele>1485.60</ele>
	<time>2023-11-18T08:16:45.000Z</time>
</trkpt>
<trkpt lat="45.8920930" lon="9.8370500">
	<ele>1485.80</ele>
	<time>2023-11-18T08:16:46.000Z</time>
</trkpt>
<trkpt lat="45.8920980" lon="9.8370490">
	<ele>1486.00</ele>
	<time>2023-11-18T08:16:47.000Z</time>
</trkpt>
<trkpt lat="45.8921040" lon="9.8370490">
	<ele>1486.00</ele>
	<time>2023-11-18T08:16:48.000Z</time>
</trkpt>
<trkpt lat="45.8921160" lon="9.8370380">
	<ele>1486.20</ele>
	<time>2023-11-18T08:16:49.000Z</time>
</trkpt>
<trkpt lat="45.8921210" lon="9.8370290">
	<ele>1486.40</ele>
	<time>2023-11-18T08:16:50.000Z</time>
</trkpt>
<trkpt lat="45.8921190" lon="9.8370210">
	<ele>1486.60</ele>
	<time>2023-11-18T08:16:51.000Z</time>
</trkpt>
<trkpt lat="45.8921160" lon="9.8370180">
	<ele>1486.80</ele>
	<time>2023-11-18T08:16:52.000Z</time>
</trkpt>
<trkpt lat="45.8921200" lon="9.8370090">
	<ele>1487.00</ele>
	<time>2023-11-18T08:16:53.000Z</time>
</trkpt>
<trkpt lat="45.8921240" lon="9.8370050">
	<ele>1487.20</ele>
	<time>2023-11-18T08:16:54.000Z</time>
</trkpt>
<trkpt lat="45.8921310" lon="9.8370000">
	<ele>1487.40</ele>
	<time>2023-11-18T08:16:55.000Z</time>
</trkpt>
<trkpt lat="45.8921400" lon="9.8369930">
	<ele>1487.60</ele>
	<time>2023-11-18T08:16:56.000Z</time>
</trkpt>
<trkpt lat="45.8921470" lon="9.8369860">
	<ele>1487.80</ele>
	<time>2023-11-18T08:16:57.000Z</time>
</trkpt>
<trkpt lat="45.8921530" lon="9.8369860">
	<ele>1488.00</ele>
	<time>2023-11-18T08:16:58.000Z</time>
</trkpt>
<trkpt lat="45.8921600" lon="9.8369850">
	<ele>1488.20</ele>
	<time>2023-11-18T08:16:59.000Z</time>
</trkpt>
<trkpt lat="45.8921680" lon="9.8369800">
	<ele>1488.20</ele>
	<time>2023-11-18T08:17:00.000Z</time>
</trkpt>
<trkpt lat="45.8921770" lon="9.8369750">
	<ele>1488.40</ele>
	<time>2023-11-18T08:17:01.000Z</time>
</trkpt>
<trkpt lat="45.8921870" lon="9.8369700">
	<ele>1488.40</ele>
	<time>2023-11-18T08:17:02.000Z</time>
</trkpt>
<trkpt lat="45.8921960" lon="9.8369580">
	<ele>1488.60</ele>
	<time>2023-11-18T08:17:03.000Z</time>
</trkpt>
<trkpt lat="45.8922030" lon="9.8369490">
	<ele>1488.60</ele>
	<time>2023-11-18T08:17:04.000Z</time>
</trkpt>
<trkpt lat="45.8922120" lon="9.8369380">
	<ele>1488.80</ele>
	<time>2023-11-18T08:17:05.000Z</time>
</trkpt>
<trkpt lat="45.8922130" lon="9.8369250">
	<ele>1488.80</ele>
	<time>2023-11-18T08:17:06.000Z</time>
</trkpt>
<trkpt lat="45.8922130" lon="9.8369180">
	<ele>1489.00</ele>
	<time>2023-11-18T08:17:07.000Z</time>
</trkpt>
<trkpt lat="45.8922140" lon="9.8369100">
	<ele>1489.20</ele>
	<time>2023-11-18T08:17:08.000Z</time>
</trkpt>
<trkpt lat="45.8922130" lon="9.8369040">
	<ele>1489.40</ele>
	<time>2023-11-18T08:17:09.000Z</time>
</trkpt>
<trkpt lat="45.8922150" lon="9.8368970">
	<ele>1489.60</ele>
	<time>2023-11-18T08:17:10.000Z</time>
</trkpt>
<trkpt lat="45.8922180" lon="9.8368900">
	<ele>1489.80</ele>
	<time>2023-11-18T08:17:11.000Z</time>
</trkpt>
<trkpt lat="45.8922220" lon="9.8368820">
	<ele>1489.80</ele>
	<time>2023-11-18T08:17:12.000Z</time>
</trkpt>
<trkpt lat="45.8922240" lon="9.8368740">
	<ele>1489.80</ele>
	<time>2023-11-18T08:17:13.000Z</time>
</trkpt>
<trkpt lat="45.8922240" lon="9.8368670">
	<ele>1490.00</ele>
	<time>2023-11-18T08:17:14.000Z</time>
</trkpt>
<trkpt lat="45.8922250" lon="9.8368580">
	<ele>1490.20</ele>
	<time>2023-11-18T08:17:15.000Z</time>
</trkpt>
<trkpt lat="45.8922250" lon="9.8368490">
	<ele>1490.40</ele>
	<time>2023-11-18T08:17:16.000Z</time>
</trkpt>
<trkpt lat="45.8922260" lon="9.8368440">
	<ele>1490.60</ele>
	<time>2023-11-18T08:17:17.000Z</time>
</trkpt>
<trkpt lat="45.8922300" lon="9.8368370">
	<ele>1490.80</ele>
	<time>2023-11-18T08:17:18.000Z</time>
</trkpt>
<trkpt lat="45.8922330" lon="9.8368320">
	<ele>1491.00</ele>
	<time>2023-11-18T08:17:19.000Z</time>
</trkpt>
<trkpt lat="45.8922340" lon="9.8368280">
	<ele>1491.00</ele>
	<time>2023-11-18T08:17:20.000Z</time>
</trkpt>
<trkpt lat="45.8922360" lon="9.8368240">
	<ele>1491.00</ele>
	<time>2023-11-18T08:17:21.000Z</time>
</trkpt>
<trkpt lat="45.8922400" lon="9.8368220">
	<ele>1491.20</ele>
	<time>2023-11-18T08:17:22.000Z</time>
</trkpt>
<trkpt lat="45.8922430" lon="9.8368210">
	<ele>1491.20</ele>
	<time>2023-11-18T08:17:23.000Z</time>
</trkpt>
<trkpt lat="45.8922470" lon="9.8368190">
	<ele>1491.40</ele>
	<time>2023-11-18T08:17:24.000Z</time>
</trkpt>
<trkpt lat="45.8922560" lon="9.8368180">
	<ele>1491.80</ele>
	<time>2023-11-18T08:17:25.000Z</time>
</trkpt>
<trkpt lat="45.8922610" lon="9.8368130">
	<ele>1492.00</ele>
	<time>2023-11-18T08:17:26.000Z</time>
</trkpt>
<trkpt lat="45.8922630" lon="9.8368100">
	<ele>1492.20</ele>
	<time>2023-11-18T08:17:27.000Z</time>
</trkpt>
<trkpt lat="45.8922620" lon="9.8368060">
	<ele>1492.20</ele>
	<time>2023-11-18T08:17:28.000Z</time>
</trkpt>
<trkpt lat="45.8922620" lon="9.8368010">
	<ele>1492.40</ele>
	<time>2023-11-18T08:17:29.000Z</time>
</trkpt>
<trkpt lat="45.8922650" lon="9.8367860">
	<ele>1492.40</ele>
	<time>2023-11-18T08:17:30.000Z</time>
</trkpt>
<trkpt lat="45.8922680" lon="9.8367710">
	<ele>1492.60</ele>
	<time>2023-11-18T08:17:31.000Z</time>
</trkpt>
<trkpt lat="45.8922700" lon="9.8367600">
	<ele>1492.80</ele>
	<time>2023-11-18T08:17:32.000Z</time>
</trkpt>
<trkpt lat="45.8922700" lon="9.8367530">
	<ele>1493.00</ele>
	<time>2023-11-18T08:17:33.000Z</time>
</trkpt>
<trkpt lat="45.8922730" lon="9.8367460">
	<ele>1493.20</ele>
	<time>2023-11-18T08:17:34.000Z</time>
</trkpt>
<trkpt lat="45.8922740" lon="9.8367390">
	<ele>1493.40</ele>
	<time>2023-11-18T08:17:35.000Z</time>
</trkpt>
<trkpt lat="45.8922790" lon="9.8367360">
	<ele>1493.60</ele>
	<time>2023-11-18T08:17:36.000Z</time>
</trkpt>
<trkpt lat="45.8922840" lon="9.8367320">
	<ele>1493.60</ele>
	<time>2023-11-18T08:17:37.000Z</time>
</trkpt>
<trkpt lat="45.8922850" lon="9.8367280">
	<ele>1493.80</ele>
	<time>2023-11-18T08:17:38.000Z</time>
</trkpt>
<trkpt lat="45.8922880" lon="9.8367280">
	<ele>1493.80</ele>
	<time>2023-11-18T08:17:39.000Z</time>
</trkpt>
<trkpt lat="45.8922920" lon="9.8367200">
	<ele>1493.80</ele>
	<time>2023-11-18T08:17:40.000Z</time>
</trkpt>
<trkpt lat="45.8922970" lon="9.8367100">
	<ele>1494.00</ele>
	<time>2023-11-18T08:17:41.000Z</time>
</trkpt>
<trkpt lat="45.8922990" lon="9.8367060">
	<ele>1494.00</ele>
	<time>2023-11-18T08:17:42.000Z</time>
</trkpt>
<trkpt lat="45.8922970" lon="9.8366960">
	<ele>1494.00</ele>
	<time>2023-11-18T08:17:43.000Z</time>
</trkpt>
<trkpt lat="45.8922950" lon="9.8366900">
	<ele>1494.20</ele>
	<time>2023-11-18T08:17:44.000Z</time>
</trkpt>
<trkpt lat="45.8922980" lon="9.8366910">
	<ele>1494.40</ele>
	<time>2023-11-18T08:17:45.000Z</time>
</trkpt>
<trkpt lat="45.8922960" lon="9.8366870">
	<ele>1494.40</ele>
	<time>2023-11-18T08:17:46.000Z</time>
</trkpt>
<trkpt lat="45.8922960" lon="9.8366840">
	<ele>1494.60</ele>
	<time>2023-11-18T08:17:47.000Z</time>
</trkpt>
<trkpt lat="45.8922960" lon="9.8366820">
	<ele>1494.80</ele>
	<time>2023-11-18T08:17:48.000Z</time>
</trkpt>
<trkpt lat="45.8922970" lon="9.8366800">
	<ele>1494.80</ele>
	<time>2023-11-18T08:17:49.000Z</time>
</trkpt>
<trkpt lat="45.8922960" lon="9.8366800">
	<ele>1494.80</ele>
	<time>2023-11-18T08:17:50.000Z</time>
</trkpt>
<trkpt lat="45.8922940" lon="9.8366820">
	<ele>1495.00</ele>
	<time>2023-11-18T08:17:51.000Z</time>
</trkpt>
<trkpt lat="45.8922940" lon="9.8366840">
	<ele>1495.00</ele>
	<time>2023-11-18T08:17:52.000Z</time>
</trkpt>
<trkpt lat="45.8922950" lon="9.8366850">
	<ele>1494.80</ele>
	<time>2023-11-18T08:17:53.000Z</time>
</trkpt>
<trkpt lat="45.8922950" lon="9.8366850">
	<ele>1494.80</ele>
	<time>2023-11-18T08:17:54.000Z</time>
</trkpt>
<trkpt lat="45.8922950" lon="9.8366850">
	<ele>1494.60</ele>
	<time>2023-11-18T08:17:55.000Z</time>
</trkpt>
<trkpt lat="45.8922950" lon="9.8366850">
	<ele>1494.60</ele>
	<time>2023-11-18T08:17:56.000Z</time>
</trkpt>
<trkpt lat="45.8922950" lon="9.8366850">
	<ele>1494.60</ele>
	<time>2023-11-18T08:17:57.000Z</time>
</trkpt>
<trkpt lat="45.8922950" lon="9.8366850">
	<ele>1494.60</ele>
	<time>2023-11-18T08:17:58.000Z</time>
</trkpt>
<trkpt lat="45.8922950" lon="9.8366850">
	<ele>1494.80</ele>
	<time>2023-11-18T08:17:59.000Z</time>
</trkpt>
<trkpt lat="45.8922950" lon="9.8366850">
	<ele>1495.00</ele>
	<time>2023-11-18T08:18:00.000Z</time>
</trkpt>
<trkpt lat="45.8922950" lon="9.8366850">
	<ele>1495.20</ele>
	<time>2023-11-18T08:18:01.000Z</time>
</trkpt>
<trkpt lat="45.8922950" lon="9.8366850">
	<ele>1495.40</ele>
	<time>2023-11-18T08:18:02.000Z</time>
</trkpt>
<trkpt lat="45.8922960" lon="9.8366840">
	<ele>1495.60</ele>
	<time>2023-11-18T08:18:03.000Z</time>
</trkpt>
<trkpt lat="45.8922960" lon="9.8366840">
	<ele>1495.80</ele>
	<time>2023-11-18T08:18:04.000Z</time>
</trkpt>
<trkpt lat="45.8922960" lon="9.8366840">
	<ele>1496.00</ele>
	<time>2023-11-18T08:18:05.000Z</time>
</trkpt>
<trkpt lat="45.8922960" lon="9.8366830">
	<ele>1496.00</ele>
	<time>2023-11-18T08:18:06.000Z</time>
</trkpt>
<trkpt lat="45.8922970" lon="9.8366820">
	<ele>1496.20</ele>
	<time>2023-11-18T08:18:07.000Z</time>
</trkpt>
<trkpt lat="45.8922980" lon="9.8366820">
	<ele>1496.20</ele>
	<time>2023-11-18T08:18:08.000Z</time>
</trkpt>
<trkpt lat="45.8922980" lon="9.8366820">
	<ele>1496.20</ele>
	<time>2023-11-18T08:18:09.000Z</time>
</trkpt>
<trkpt lat="45.8922990" lon="9.8366810">
	<ele>1496.40</ele>
	<time>2023-11-18T08:18:10.000Z</time>
</trkpt>
<trkpt lat="45.8923020" lon="9.8366800">
	<ele>1496.60</ele>
	<time>2023-11-18T08:18:11.000Z</time>
</trkpt>
<trkpt lat="45.8923060" lon="9.8366800">
	<ele>1496.80</ele>
	<time>2023-11-18T08:18:12.000Z</time>
</trkpt>
<trkpt lat="45.8923090" lon="9.8366800">
	<ele>1496.80</ele>
	<time>2023-11-18T08:18:13.000Z</time>
</trkpt>
<trkpt lat="45.8923120" lon="9.8366740">
	<ele>1497.00</ele>
	<time>2023-11-18T08:18:14.000Z</time>
</trkpt>
<trkpt lat="45.8923150" lon="9.8366650">
	<ele>1497.00</ele>
	<time>2023-11-18T08:18:15.000Z</time>
</trkpt>
<trkpt lat="45.8923170" lon="9.8366600">
	<ele>1497.40</ele>
	<time>2023-11-18T08:18:16.000Z</time>
</trkpt>
<trkpt lat="45.8923190" lon="9.8366540">
	<ele>1497.40</ele>
	<time>2023-11-18T08:18:17.000Z</time>
</trkpt>
<trkpt lat="45.8923210" lon="9.8366500">
	<ele>1497.60</ele>
	<time>2023-11-18T08:18:18.000Z</time>
</trkpt>
<trkpt lat="45.8923270" lon="9.8366460">
	<ele>1497.80</ele>
	<time>2023-11-18T08:18:19.000Z</time>
</trkpt>
<trkpt lat="45.8923400" lon="9.8366400">
	<ele>1497.80</ele>
	<time>2023-11-18T08:18:20.000Z</time>
</trkpt>
<trkpt lat="45.8923500" lon="9.8366340">
	<ele>1497.80</ele>
	<time>2023-11-18T08:18:21.000Z</time>
</trkpt>
<trkpt lat="45.8923600" lon="9.8366290">
	<ele>1498.20</ele>
	<time>2023-11-18T08:18:22.000Z</time>
</trkpt>
<trkpt lat="45.8923720" lon="9.8366230">
	<ele>1498.40</ele>
	<time>2023-11-18T08:18:23.000Z</time>
</trkpt>
<trkpt lat="45.8923810" lon="9.8366170">
	<ele>1498.40</ele>
	<time>2023-11-18T08:18:24.000Z</time>
</trkpt>
<trkpt lat="45.8923940" lon="9.8366060">
	<ele>1498.60</ele>
	<time>2023-11-18T08:18:25.000Z</time>
</trkpt>
<trkpt lat="45.8924030" lon="9.8365920">
	<ele>1498.60</ele>
	<time>2023-11-18T08:18:26.000Z</time>
</trkpt>
<trkpt lat="45.8924100" lon="9.8365790">
	<ele>1498.80</ele>
	<time>2023-11-18T08:18:27.000Z</time>
</trkpt>
<trkpt lat="45.8924160" lon="9.8365690">
	<ele>1499.00</ele>
	<time>2023-11-18T08:18:28.000Z</time>
</trkpt>
<trkpt lat="45.8924200" lon="9.8365620">
	<ele>1499.20</ele>
	<time>2023-11-18T08:18:29.000Z</time>
</trkpt>
<trkpt lat="45.8924200" lon="9.8365540">
	<ele>1499.40</ele>
	<time>2023-11-18T08:18:30.000Z</time>
</trkpt>
<trkpt lat="45.8924280" lon="9.8365510">
	<ele>1499.60</ele>
	<time>2023-11-18T08:18:31.000Z</time>
</trkpt>
<trkpt lat="45.8924370" lon="9.8365460">
	<ele>1499.80</ele>
	<time>2023-11-18T08:18:32.000Z</time>
</trkpt>
<trkpt lat="45.8924400" lon="9.8365410">
	<ele>1499.80</ele>
	<time>2023-11-18T08:18:33.000Z</time>
</trkpt>
<trkpt lat="45.8924420" lon="9.8365380">
	<ele>1500.20</ele>
	<time>2023-11-18T08:18:34.000Z</time>
</trkpt>
<trkpt lat="45.8924460" lon="9.8365380">
	<ele>1500.20</ele>
	<time>2023-11-18T08:18:35.000Z</time>
</trkpt>
<trkpt lat="45.8924510" lon="9.8365350">
	<ele>1500.40</ele>
	<time>2023-11-18T08:18:36.000Z</time>
</trkpt>
<trkpt lat="45.8924600" lon="9.8365290">
	<ele>1500.40</ele>
	<time>2023-11-18T08:18:37.000Z</time>
</trkpt>
<trkpt lat="45.8924700" lon="9.8365220">
	<ele>1500.40</ele>
	<time>2023-11-18T08:18:38.000Z</time>
</trkpt>
<trkpt lat="45.8924770" lon="9.8365200">
	<ele>1500.60</ele>
	<time>2023-11-18T08:18:39.000Z</time>
</trkpt>
<trkpt lat="45.8924800" lon="9.8365120">
	<ele>1500.80</ele>
	<time>2023-11-18T08:18:40.000Z</time>
</trkpt>
<trkpt lat="45.8924840" lon="9.8365100">
	<ele>1500.80</ele>
	<time>2023-11-18T08:18:41.000Z</time>
</trkpt>
<trkpt lat="45.8924870" lon="9.8365070">
	<ele>1501.00</ele>
	<time>2023-11-18T08:18:42.000Z</time>
</trkpt>
<trkpt lat="45.8924940" lon="9.8365020">
	<ele>1501.00</ele>
	<time>2023-11-18T08:18:43.000Z</time>
</trkpt>
<trkpt lat="45.8924980" lon="9.8364930">
	<ele>1501.20</ele>
	<time>2023-11-18T08:18:44.000Z</time>
</trkpt>
<trkpt lat="45.8925010" lon="9.8364870">
	<ele>1501.20</ele>
	<time>2023-11-18T08:18:45.000Z</time>
</trkpt>
<trkpt lat="45.8925030" lon="9.8364870">
	<ele>1501.40</ele>
	<time>2023-11-18T08:18:46.000Z</time>
</trkpt>
<trkpt lat="45.8925040" lon="9.8364860">
	<ele>1501.60</ele>
	<time>2023-11-18T08:18:47.000Z</time>
</trkpt>
<trkpt lat="45.8925040" lon="9.8364840">
	<ele>1501.60</ele>
	<time>2023-11-18T08:18:48.000Z</time>
</trkpt>
<trkpt lat="45.8925040" lon="9.8364850">
	<ele>1501.60</ele>
	<time>2023-11-18T08:18:49.000Z</time>
</trkpt>
<trkpt lat="45.8925050" lon="9.8364840">
	<ele>1501.60</ele>
	<time>2023-11-18T08:18:50.000Z</time>
</trkpt>
<trkpt lat="45.8925050" lon="9.8364840">
	<ele>1501.60</ele>
	<time>2023-11-18T08:18:51.000Z</time>
</trkpt>
<trkpt lat="45.8925050" lon="9.8364830">
	<ele>1501.60</ele>
	<time>2023-11-18T08:18:52.000Z</time>
</trkpt>
<trkpt lat="45.8925040" lon="9.8364820">
	<ele>1501.60</ele>
	<time>2023-11-18T08:18:53.000Z</time>
</trkpt>
<trkpt lat="45.8925040" lon="9.8364830">
	<ele>1501.60</ele>
	<time>2023-11-18T08:18:54.000Z</time>
</trkpt>
<trkpt lat="45.8925030" lon="9.8364830">
	<ele>1501.60</ele>
	<time>2023-11-18T08:18:55.000Z</time>
</trkpt>
<trkpt lat="45.8925000" lon="9.8364840">
	<ele>1501.60</ele>
	<time>2023-11-18T08:18:56.000Z</time>
</trkpt>
<trkpt lat="45.8924970" lon="9.8364850">
	<ele>1501.60</ele>
	<time>2023-11-18T08:18:57.000Z</time>
</trkpt>
<trkpt lat="45.8924940" lon="9.8364840">
	<ele>1501.60</ele>
	<time>2023-11-18T08:18:58.000Z</time>
</trkpt>
<trkpt lat="45.8924910" lon="9.8364830">
	<ele>1501.60</ele>
	<time>2023-11-18T08:18:59.000Z</time>
</trkpt>
<trkpt lat="45.8924900" lon="9.8364820">
	<ele>1501.60</ele>
	<time>2023-11-18T08:19:00.000Z</time>
</trkpt>
<trkpt lat="45.8924900" lon="9.8364820">
	<ele>1501.60</ele>
	<time>2023-11-18T08:19:01.000Z</time>
</trkpt>
<trkpt lat="45.8924900" lon="9.8364820">
	<ele>1501.60</ele>
	<time>2023-11-18T08:19:02.000Z</time>
</trkpt>
<trkpt lat="45.8924900" lon="9.8364820">
	<ele>1501.60</ele>
	<time>2023-11-18T08:19:03.000Z</time>
</trkpt>
<trkpt lat="45.8924900" lon="9.8364820">
	<ele>1501.60</ele>
	<time>2023-11-18T08:19:04.000Z</time>
</trkpt>
<trkpt lat="45.8924900" lon="9.8364820">
	<ele>1501.60</ele>
	<time>2023-11-18T08:19:05.000Z</time>
</trkpt>
<trkpt lat="45.8924900" lon="9.8364820">
	<ele>1501.60</ele>
	<time>2023-11-18T08:19:06.000Z</time>
</trkpt>
<trkpt lat="45.8924900" lon="9.8364820">
	<ele>1501.80</ele>
	<time>2023-11-18T08:19:07.000Z</time>
</trkpt>
<trkpt lat="45.8924900" lon="9.8364820">
	<ele>1501.80</ele>
	<time>2023-11-18T08:19:08.000Z</time>
</trkpt>
<trkpt lat="45.8924900" lon="9.8364820">
	<ele>1501.80</ele>
	<time>2023-11-18T08:19:09.000Z</time>
</trkpt>
<trkpt lat="45.8924900" lon="9.8364820">
	<ele>1501.80</ele>
	<time>2023-11-18T08:19:10.000Z</time>
</trkpt>
<trkpt lat="45.8924900" lon="9.8364820">
	<ele>1502.00</ele>
	<time>2023-11-18T08:19:11.000Z</time>
</trkpt>
<trkpt lat="45.8924900" lon="9.8364820">
	<ele>1502.00</ele>
	<time>2023-11-18T08:19:12.000Z</time>
</trkpt>
<trkpt lat="45.8924900" lon="9.8364820">
	<ele>1502.00</ele>
	<time>2023-11-18T08:19:13.000Z</time>
</trkpt>
<trkpt lat="45.8924900" lon="9.8364820">
	<ele>1502.00</ele>
	<time>2023-11-18T08:19:14.000Z</time>
</trkpt>
<trkpt lat="45.8924900" lon="9.8364820">
	<ele>1502.00</ele>
	<time>2023-11-18T08:19:15.000Z</time>
</trkpt>
<trkpt lat="45.8924900" lon="9.8364820">
	<ele>1502.00</ele>
	<time>2023-11-18T08:19:16.000Z</time>
</trkpt>
<trkpt lat="45.8924900" lon="9.8364820">
	<ele>1501.60</ele>
	<time>2023-11-18T08:19:17.000Z</time>
</trkpt>
<trkpt lat="45.8924900" lon="9.8364820">
	<ele>1501.60</ele>
	<time>2023-11-18T08:19:18.000Z</time>
</trkpt>
<trkpt lat="45.8924900" lon="9.8364820">
	<ele>1501.60</ele>
	<time>2023-11-18T08:19:19.000Z</time>
</trkpt>
<trkpt lat="45.8924900" lon="9.8364820">
	<ele>1501.40</ele>
	<time>2023-11-18T08:19:20.000Z</time>
</trkpt>
<trkpt lat="45.8924890" lon="9.8364830">
	<ele>1501.40</ele>
	<time>2023-11-18T08:19:21.000Z</time>
</trkpt>
<trkpt lat="45.8924890" lon="9.8364830">
	<ele>1501.60</ele>
	<time>2023-11-18T08:19:22.000Z</time>
</trkpt>
<trkpt lat="45.8924890" lon="9.8364830">
	<ele>1501.60</ele>
	<time>2023-11-18T08:19:23.000Z</time>
</trkpt>
<trkpt lat="45.8924880" lon="9.8364830">
	<ele>1501.60</ele>
	<time>2023-11-18T08:19:24.000Z</time>
</trkpt>
<trkpt lat="45.8924870" lon="9.8364830">
	<ele>1501.60</ele>
	<time>2023-11-18T08:19:25.000Z</time>
</trkpt>
<trkpt lat="45.8924860" lon="9.8364830">
	<ele>1501.60</ele>
	<time>2023-11-18T08:19:26.000Z</time>
</trkpt>
<trkpt lat="45.8924850" lon="9.8364830">
	<ele>1501.60</ele>
	<time>2023-11-18T08:19:27.000Z</time>
</trkpt>
<trkpt lat="45.8924850" lon="9.8364830">
	<ele>1501.60</ele>
	<time>2023-11-18T08:19:28.000Z</time>
</trkpt>
<trkpt lat="45.8924840" lon="9.8364830">
	<ele>1501.60</ele>
	<time>2023-11-18T08:19:29.000Z</time>
</trkpt>
<trkpt lat="45.8924840" lon="9.8364840">
	<ele>1501.40</ele>
	<time>2023-11-18T08:19:30.000Z</time>
</trkpt>
<trkpt lat="45.8924840" lon="9.8364850">
	<ele>1501.60</ele>
	<time>2023-11-18T08:19:31.000Z</time>
</trkpt>
<trkpt lat="45.8924830" lon="9.8364870">
	<ele>1501.60</ele>
	<time>2023-11-18T08:19:32.000Z</time>
</trkpt>
<trkpt lat="45.8924830" lon="9.8364930">
	<ele>1501.60</ele>
	<time>2023-11-18T08:19:33.000Z</time>
</trkpt>
<trkpt lat="45.8924830" lon="9.8364960">
	<ele>1501.60</ele>
	<time>2023-11-18T08:19:34.000Z</time>
</trkpt>
<trkpt lat="45.8924830" lon="9.8365000">
	<ele>1501.60</ele>
	<time>2023-11-18T08:19:35.000Z</time>
</trkpt>
<trkpt lat="45.8924830" lon="9.8365020">
	<ele>1501.60</ele>
	<time>2023-11-18T08:19:36.000Z</time>
</trkpt>
<trkpt lat="45.8924820" lon="9.8365030">
	<ele>1501.60</ele>
	<time>2023-11-18T08:19:37.000Z</time>
</trkpt>
<trkpt lat="45.8924820" lon="9.8365050">
	<ele>1501.60</ele>
	<time>2023-11-18T08:19:38.000Z</time>
</trkpt>
<trkpt lat="45.8924810" lon="9.8365080">
	<ele>1501.60</ele>
	<time>2023-11-18T08:19:39.000Z</time>
</trkpt>
<trkpt lat="45.8924780" lon="9.8365100">
	<ele>1501.60</ele>
	<time>2023-11-18T08:19:40.000Z</time>
</trkpt>
<trkpt lat="45.8924760" lon="9.8365110">
	<ele>1501.40</ele>
	<time>2023-11-18T08:19:41.000Z</time>
</trkpt>
<trkpt lat="45.8924750" lon="9.8365110">
	<ele>1501.40</ele>
	<time>2023-11-18T08:19:42.000Z</time>
</trkpt>
<trkpt lat="45.8924740" lon="9.8365120">
	<ele>1501.40</ele>
	<time>2023-11-18T08:19:43.000Z</time>
</trkpt>
<trkpt lat="45.8924730" lon="9.8365130">
	<ele>1501.40</ele>
	<time>2023-11-18T08:19:44.000Z</time>
</trkpt>
<trkpt lat="45.8924710" lon="9.8365160">
	<ele>1501.40</ele>
	<time>2023-11-18T08:19:45.000Z</time>
</trkpt>
<trkpt lat="45.8924710" lon="9.8365180">
	<ele>1501.40</ele>
	<time>2023-11-18T08:19:46.000Z</time>
</trkpt>
<trkpt lat="45.8924710" lon="9.8365190">
	<ele>1501.40</ele>
	<time>2023-11-18T08:19:47.000Z</time>
</trkpt>
<trkpt lat="45.8924700" lon="9.8365230">
	<ele>1501.40</ele>
	<time>2023-11-18T08:19:48.000Z</time>
</trkpt>
<trkpt lat="45.8924690" lon="9.8365230">
	<ele>1501.40</ele>
	<time>2023-11-18T08:19:49.000Z</time>
</trkpt>
<trkpt lat="45.8924680" lon="9.8365240">
	<ele>1501.40</ele>
	<time>2023-11-18T08:19:50.000Z</time>
</trkpt>
<trkpt lat="45.8924680" lon="9.8365240">
	<ele>1501.40</ele>
	<time>2023-11-18T08:19:51.000Z</time>
</trkpt>
<trkpt lat="45.8924680" lon="9.8365240">
	<ele>1501.40</ele>
	<time>2023-11-18T08:19:52.000Z</time>
</trkpt>
<trkpt lat="45.8924680" lon="9.8365240">
	<ele>1501.40</ele>
	<time>2023-11-18T08:19:53.000Z</time>
</trkpt>
<trkpt lat="45.8924680" lon="9.8365240">
	<ele>1501.40</ele>
	<time>2023-11-18T08:19:54.000Z</time>
</trkpt>
<trkpt lat="45.8924680" lon="9.8365240">
	<ele>1501.40</ele>
	<time>2023-11-18T08:19:55.000Z</time>
</trkpt>
<trkpt lat="45.8924680" lon="9.8365240">
	<ele>1501.40</ele>
	<time>2023-11-18T08:19:56.000Z</time>
</trkpt>
<trkpt lat="45.8924680" lon="9.8365240">
	<ele>1501.40</ele>
	<time>2023-11-18T08:19:57.000Z</time>
</trkpt>
<trkpt lat="45.8924680" lon="9.8365240">
	<ele>1501.40</ele>
	<time>2023-11-18T08:19:58.000Z</time>
</trkpt>
<trkpt lat="45.8924680" lon="9.8365240">
	<ele>1501.40</ele>
	<time>2023-11-18T08:19:59.000Z</time>
</trkpt>
<trkpt lat="45.8924680" lon="9.8365240">
	<ele>1501.40</ele>
	<time>2023-11-18T08:20:00.000Z</time>
</trkpt>
<trkpt lat="45.8924680" lon="9.8365240">
	<ele>1501.40</ele>
	<time>2023-11-18T08:20:01.000Z</time>
</trkpt>
<trkpt lat="45.8924680" lon="9.8365240">
	<ele>1501.40</ele>
	<time>2023-11-18T08:20:02.000Z</time>
</trkpt>
<trkpt lat="45.8924680" lon="9.8365210">
	<ele>1501.40</ele>
	<time>2023-11-18T08:20:03.000Z</time>
</trkpt>
<trkpt lat="45.8924690" lon="9.8365150">
	<ele>1501.40</ele>
	<time>2023-11-18T08:20:04.000Z</time>
</trkpt>
<trkpt lat="45.8924700" lon="9.8365120">
	<ele>1501.40</ele>
	<time>2023-11-18T08:20:05.000Z</time>
</trkpt>
<trkpt lat="45.8924700" lon="9.8365070">
	<ele>1501.40</ele>
	<time>2023-11-18T08:20:06.000Z</time>
</trkpt>
<trkpt lat="45.8924710" lon="9.8365050">
	<ele>1501.40</ele>
	<time>2023-11-18T08:20:07.000Z</time>
</trkpt>
<trkpt lat="45.8924710" lon="9.8365030">
	<ele>1501.40</ele>
	<time>2023-11-18T08:20:08.000Z</time>
</trkpt>
<trkpt lat="45.8924710" lon="9.8365020">
	<ele>1501.40</ele>
	<time>2023-11-18T08:20:09.000Z</time>
</trkpt>
<trkpt lat="45.8924720" lon="9.8365020">
	<ele>1501.40</ele>
	<time>2023-11-18T08:20:10.000Z</time>
</trkpt>
<trkpt lat="45.8924720" lon="9.8365000">
	<ele>1501.40</ele>
	<time>2023-11-18T08:20:11.000Z</time>
</trkpt>
<trkpt lat="45.8924730" lon="9.8364980">
	<ele>1501.40</ele>
	<time>2023-11-18T08:20:12.000Z</time>
</trkpt>
<trkpt lat="45.8924730" lon="9.8364970">
	<ele>1501.40</ele>
	<time>2023-11-18T08:20:13.000Z</time>
</trkpt>
<trkpt lat="45.8924740" lon="9.8364950">
	<ele>1501.40</ele>
	<time>2023-11-18T08:20:14.000Z</time>
</trkpt>
<trkpt lat="45.8924800" lon="9.8364900">
	<ele>1501.40</ele>
	<time>2023-11-18T08:20:15.000Z</time>
</trkpt>
<trkpt lat="45.8924840" lon="9.8364880">
	<ele>1501.40</ele>
	<time>2023-11-18T08:20:16.000Z</time>
</trkpt>
<trkpt lat="45.8924860" lon="9.8364870">
	<ele>1501.40</ele>
	<time>2023-11-18T08:20:17.000Z</time>
</trkpt>
<trkpt lat="45.8924880" lon="9.8364870">
	<ele>1501.40</ele>
	<time>2023-11-18T08:20:18.000Z</time>
</trkpt>
<trkpt lat="45.8924890" lon="9.8364870">
	<ele>1501.40</ele>
	<time>2023-11-18T08:20:19.000Z</time>
</trkpt>
<trkpt lat="45.8924890" lon="9.8364870">
	<ele>1501.40</ele>
	<time>2023-11-18T08:20:20.000Z</time>
</trkpt>
<trkpt lat="45.8924900" lon="9.8364870">
	<ele>1501.40</ele>
	<time>2023-11-18T08:20:21.000Z</time>
</trkpt>
<trkpt lat="45.8924900" lon="9.8364870">
	<ele>1501.40</ele>
	<time>2023-11-18T08:20:22.000Z</time>
</trkpt>
<trkpt lat="45.8924900" lon="9.8364860">
	<ele>1501.40</ele>
	<time>2023-11-18T08:20:23.000Z</time>
</trkpt>
<trkpt lat="45.8924900" lon="9.8364860">
	<ele>1501.40</ele>
	<time>2023-11-18T08:20:24.000Z</time>
</trkpt>
<trkpt lat="45.8924910" lon="9.8364860">
	<ele>1501.40</ele>
	<time>2023-11-18T08:20:25.000Z</time>
</trkpt>
<trkpt lat="45.8924910" lon="9.8364850">
	<ele>1501.40</ele>
	<time>2023-11-18T08:20:26.000Z</time>
</trkpt>
<trkpt lat="45.8924910" lon="9.8364850">
	<ele>1501.40</ele>
	<time>2023-11-18T08:20:27.000Z</time>
</trkpt>
<trkpt lat="45.8924910" lon="9.8364850">
	<ele>1501.40</ele>
	<time>2023-11-18T08:20:28.000Z</time>
</trkpt>
<trkpt lat="45.8924920" lon="9.8364850">
	<ele>1501.40</ele>
	<time>2023-11-18T08:20:29.000Z</time>
</trkpt>
<trkpt lat="45.8924920" lon="9.8364840">
	<ele>1501.40</ele>
	<time>2023-11-18T08:20:30.000Z</time>
</trkpt>
<trkpt lat="45.8924920" lon="9.8364840">
	<ele>1501.40</ele>
	<time>2023-11-18T08:20:31.000Z</time>
</trkpt>
<trkpt lat="45.8924920" lon="9.8364840">
	<ele>1501.40</ele>
	<time>2023-11-18T08:20:32.000Z</time>
</trkpt>
<trkpt lat="45.8924930" lon="9.8364840">
	<ele>1501.40</ele>
	<time>2023-11-18T08:20:33.000Z</time>
</trkpt>
<trkpt lat="45.8924930" lon="9.8364840">
	<ele>1501.40</ele>
	<time>2023-11-18T08:20:34.000Z</time>
</trkpt>
<trkpt lat="45.8924930" lon="9.8364840">
	<ele>1501.40</ele>
	<time>2023-11-18T08:20:35.000Z</time>
</trkpt>
<trkpt lat="45.8924930" lon="9.8364830">
	<ele>1501.40</ele>
	<time>2023-11-18T08:20:36.000Z</time>
</trkpt>
<trkpt lat="45.8924930" lon="9.8364830">
	<ele>1501.40</ele>
	<time>2023-11-18T08:20:37.000Z</time>
</trkpt>
<trkpt lat="45.8924940" lon="9.8364830">
	<ele>1501.40</ele>
	<time>2023-11-18T08:20:38.000Z</time>
</trkpt>
<trkpt lat="45.8924940" lon="9.8364830">
	<ele>1501.40</ele>
	<time>2023-11-18T08:20:39.000Z</time>
</trkpt>
<trkpt lat="45.8924940" lon="9.8364830">
	<ele>1501.40</ele>
	<time>2023-11-18T08:20:40.000Z</time>
</trkpt>
<trkpt lat="45.8924950" lon="9.8364830">
	<ele>1501.40</ele>
	<time>2023-11-18T08:20:41.000Z</time>
</trkpt>
<trkpt lat="45.8924950" lon="9.8364830">
	<ele>1501.40</ele>
	<time>2023-11-18T08:20:42.000Z</time>
</trkpt>
<trkpt lat="45.8924950" lon="9.8364830">
	<ele>1501.40</ele>
	<time>2023-11-18T08:20:43.000Z</time>
</trkpt>
<trkpt lat="45.8924950" lon="9.8364830">
	<ele>1501.40</ele>
	<time>2023-11-18T08:20:44.000Z</time>
</trkpt>
<trkpt lat="45.8924960" lon="9.8364830">
	<ele>1501.40</ele>
	<time>2023-11-18T08:20:45.000Z</time>
</trkpt>
<trkpt lat="45.8924960" lon="9.8364830">
	<ele>1501.40</ele>
	<time>2023-11-18T08:20:46.000Z</time>
</trkpt>
<trkpt lat="45.8924960" lon="9.8364830">
	<ele>1501.40</ele>
	<time>2023-11-18T08:20:47.000Z</time>
</trkpt>
<trkpt lat="45.8924960" lon="9.8364820">
	<ele>1501.40</ele>
	<time>2023-11-18T08:20:48.000Z</time>
</trkpt>
<trkpt lat="45.8924960" lon="9.8364820">
	<ele>1501.40</ele>
	<time>2023-11-18T08:20:49.000Z</time>
</trkpt>
<trkpt lat="45.8924960" lon="9.8364820">
	<ele>1501.40</ele>
	<time>2023-11-18T08:20:50.000Z</time>
</trkpt>
<trkpt lat="45.8924960" lon="9.8364820">
	<ele>1501.40</ele>
	<time>2023-11-18T08:20:51.000Z</time>
</trkpt>
<trkpt lat="45.8924970" lon="9.8364820">
	<ele>1501.40</ele>
	<time>2023-11-18T08:20:52.000Z</time>
</trkpt>
<trkpt lat="45.8924970" lon="9.8364820">
	<ele>1501.40</ele>
	<time>2023-11-18T08:20:53.000Z</time>
</trkpt>
<trkpt lat="45.8924970" lon="9.8364820">
	<ele>1501.40</ele>
	<time>2023-11-18T08:20:54.000Z</time>
</trkpt>
<trkpt lat="45.8924970" lon="9.8364820">
	<ele>1501.40</ele>
	<time>2023-11-18T08:20:55.000Z</time>
</trkpt>
<trkpt lat="45.8924970" lon="9.8364830">
	<ele>1501.40</ele>
	<time>2023-11-18T08:20:56.000Z</time>
</trkpt>
<trkpt lat="45.8924970" lon="9.8364830">
	<ele>1501.40</ele>
	<time>2023-11-18T08:20:57.000Z</time>
</trkpt>
<trkpt lat="45.8924980" lon="9.8364830">
	<ele>1501.40</ele>
	<time>2023-11-18T08:20:58.000Z</time>
</trkpt>
<trkpt lat="45.8924980" lon="9.8364830">
	<ele>1501.40</ele>
	<time>2023-11-18T08:20:59.000Z</time>
</trkpt>
<trkpt lat="45.8924980" lon="9.8364830">
	<ele>1501.40</ele>
	<time>2023-11-18T08:21:00.000Z</time>
</trkpt>
<trkpt lat="45.8924980" lon="9.8364840">
	<ele>1501.40</ele>
	<time>2023-11-18T08:21:01.000Z</time>
</trkpt>
<trkpt lat="45.8924990" lon="9.8364840">
	<ele>1501.40</ele>
	<time>2023-11-18T08:21:02.000Z</time>
</trkpt>
<trkpt lat="45.8924990" lon="9.8364850">
	<ele>1501.40</ele>
	<time>2023-11-18T08:21:03.000Z</time>
</trkpt>
<trkpt lat="45.8925000" lon="9.8364850">
	<ele>1501.40</ele>
	<time>2023-11-18T08:21:04.000Z</time>
</trkpt>
<trkpt lat="45.8925010" lon="9.8364860">
	<ele>1501.40</ele>
	<time>2023-11-18T08:21:05.000Z</time>
</trkpt>
<trkpt lat="45.8925010" lon="9.8364880">
	<ele>1501.40</ele>
	<time>2023-11-18T08:21:06.000Z</time>
</trkpt>
<trkpt lat="45.8925010" lon="9.8364880">
	<ele>1501.40</ele>
	<time>2023-11-18T08:21:07.000Z</time>
</trkpt>
<trkpt lat="45.8925010" lon="9.8364890">
	<ele>1501.40</ele>
	<time>2023-11-18T08:21:08.000Z</time>
</trkpt>
<trkpt lat="45.8925020" lon="9.8364890">
	<ele>1501.40</ele>
	<time>2023-11-18T08:21:09.000Z</time>
</trkpt>
<trkpt lat="45.8925020" lon="9.8364890">
	<ele>1501.40</ele>
	<time>2023-11-18T08:21:10.000Z</time>
</trkpt>
<trkpt lat="45.8925030" lon="9.8364900">
	<ele>1501.40</ele>
	<time>2023-11-18T08:21:11.000Z</time>
</trkpt>
<trkpt lat="45.8925030" lon="9.8364900">
	<ele>1501.40</ele>
	<time>2023-11-18T08:21:12.000Z</time>
</trkpt>
<trkpt lat="45.8925030" lon="9.8364910">
	<ele>1501.40</ele>
	<time>2023-11-18T08:21:13.000Z</time>
</trkpt>
<trkpt lat="45.8925040" lon="9.8364920">
	<ele>1501.40</ele>
	<time>2023-11-18T08:21:14.000Z</time>
</trkpt>
<trkpt lat="45.8925050" lon="9.8364920">
	<ele>1501.40</ele>
	<time>2023-11-18T08:21:15.000Z</time>
</trkpt>
<trkpt lat="45.8925050" lon="9.8364920">
	<ele>1501.40</ele>
	<time>2023-11-18T08:21:16.000Z</time>
</trkpt>
<trkpt lat="45.8925060" lon="9.8364930">
	<ele>1501.40</ele>
	<time>2023-11-18T08:21:17.000Z</time>
</trkpt>
<trkpt lat="45.8925060" lon="9.8364930">
	<ele>1501.40</ele>
	<time>2023-11-18T08:21:18.000Z</time>
</trkpt>
<trkpt lat="45.8925070" lon="9.8364930">
	<ele>1501.40</ele>
	<time>2023-11-18T08:21:19.000Z</time>
</trkpt>
<trkpt lat="45.8925070" lon="9.8364940">
	<ele>1501.40</ele>
	<time>2023-11-18T08:21:20.000Z</time>
</trkpt>
<trkpt lat="45.8925070" lon="9.8364940">
	<ele>1501.40</ele>
	<time>2023-11-18T08:21:21.000Z</time>
</trkpt>
<trkpt lat="45.8925080" lon="9.8364940">
	<ele>1501.40</ele>
	<time>2023-11-18T08:21:22.000Z</time>
</trkpt>
<trkpt lat="45.8925080" lon="9.8364940">
	<ele>1501.40</ele>
	<time>2023-11-18T08:21:23.000Z</time>
</trkpt>
<trkpt lat="45.8925090" lon="9.8364940">
	<ele>1501.40</ele>
	<time>2023-11-18T08:21:24.000Z</time>
</trkpt>
<trkpt lat="45.8925090" lon="9.8364940">
	<ele>1501.40</ele>
	<time>2023-11-18T08:21:25.000Z</time>
</trkpt>
<trkpt lat="45.8925100" lon="9.8364940">
	<ele>1501.40</ele>
	<time>2023-11-18T08:21:26.000Z</time>
</trkpt>
<trkpt lat="45.8925100" lon="9.8364940">
	<ele>1501.40</ele>
	<time>2023-11-18T08:21:27.000Z</time>
</trkpt>
<trkpt lat="45.8925110" lon="9.8364940">
	<ele>1501.40</ele>
	<time>2023-11-18T08:21:28.000Z</time>
</trkpt>
<trkpt lat="45.8925110" lon="9.8364940">
	<ele>1501.40</ele>
	<time>2023-11-18T08:21:29.000Z</time>
</trkpt>
<trkpt lat="45.8925120" lon="9.8364940">
	<ele>1501.40</ele>
	<time>2023-11-18T08:21:30.000Z</time>
</trkpt>
<trkpt lat="45.8925120" lon="9.8364940">
	<ele>1501.40</ele>
	<time>2023-11-18T08:21:31.000Z</time>
</trkpt>
<trkpt lat="45.8925130" lon="9.8364950">
	<ele>1501.40</ele>
	<time>2023-11-18T08:21:32.000Z</time>
</trkpt>
<trkpt lat="45.8925130" lon="9.8364950">
	<ele>1501.40</ele>
	<time>2023-11-18T08:21:33.000Z</time>
</trkpt>
<trkpt lat="45.8925140" lon="9.8364950">
	<ele>1501.40</ele>
	<time>2023-11-18T08:21:34.000Z</time>
</trkpt>
<trkpt lat="45.8925140" lon="9.8364960">
	<ele>1501.40</ele>
	<time>2023-11-18T08:21:35.000Z</time>
</trkpt>
<trkpt lat="45.8925150" lon="9.8364980">
	<ele>1501.40</ele>
	<time>2023-11-18T08:21:36.000Z</time>
</trkpt>
<trkpt lat="45.8925160" lon="9.8364990">
	<ele>1501.40</ele>
	<time>2023-11-18T08:21:37.000Z</time>
</trkpt>
<trkpt lat="45.8925170" lon="9.8364990">
	<ele>1501.40</ele>
	<time>2023-11-18T08:21:38.000Z</time>
</trkpt>
<trkpt lat="45.8925180" lon="9.8365000">
	<ele>1501.40</ele>
	<time>2023-11-18T08:21:39.000Z</time>
</trkpt>
<trkpt lat="45.8925200" lon="9.8365010">
	<ele>1501.40</ele>
	<time>2023-11-18T08:21:40.000Z</time>
</trkpt>
<trkpt lat="45.8925220" lon="9.8365010">
	<ele>1501.40</ele>
	<time>2023-11-18T08:21:41.000Z</time>
</trkpt>
<trkpt lat="45.8925260" lon="9.8365020">
	<ele>1501.40</ele>
	<time>2023-11-18T08:21:42.000Z</time>
</trkpt>
<trkpt lat="45.8925300" lon="9.8365030">
	<ele>1501.40</ele>
	<time>2023-11-18T08:21:43.000Z</time>
</trkpt>
<trkpt lat="45.8925340" lon="9.8365030">
	<ele>1501.40</ele>
	<time>2023-11-18T08:21:44.000Z</time>
</trkpt>
<trkpt lat="45.8925380" lon="9.8365030">
	<ele>1501.40</ele>
	<time>2023-11-18T08:21:45.000Z</time>
</trkpt>
<trkpt lat="45.8925430" lon="9.8365040">
	<ele>1501.40</ele>
	<time>2023-11-18T08:21:46.000Z</time>
</trkpt>
<trkpt lat="45.8925480" lon="9.8365040">
	<ele>1501.40</ele>
	<time>2023-11-18T08:21:47.000Z</time>
</trkpt>
<trkpt lat="45.8925520" lon="9.8365040">
	<ele>1501.40</ele>
	<time>2023-11-18T08:21:48.000Z</time>
</trkpt>
<trkpt lat="45.8925570" lon="9.8365040">
	<ele>1501.40</ele>
	<time>2023-11-18T08:21:49.000Z</time>
</trkpt>
<trkpt lat="45.8925610" lon="9.8365050">
	<ele>1501.40</ele>
	<time>2023-11-18T08:21:50.000Z</time>
</trkpt>
<trkpt lat="45.8925640" lon="9.8365050">
	<ele>1501.40</ele>
	<time>2023-11-18T08:21:51.000Z</time>
</trkpt>
<trkpt lat="45.8925680" lon="9.8365060">
	<ele>1501.40</ele>
	<time>2023-11-18T08:21:52.000Z</time>
</trkpt>
<trkpt lat="45.8925720" lon="9.8365060">
	<ele>1501.40</ele>
	<time>2023-11-18T08:21:53.000Z</time>
</trkpt>
<trkpt lat="45.8925750" lon="9.8365060">
	<ele>1501.40</ele>
	<time>2023-11-18T08:21:54.000Z</time>
</trkpt>
<trkpt lat="45.8925790" lon="9.8365060">
	<ele>1501.40</ele>
	<time>2023-11-18T08:21:55.000Z</time>
</trkpt>
<trkpt lat="45.8925830" lon="9.8365060">
	<ele>1501.40</ele>
	<time>2023-11-18T08:21:56.000Z</time>
</trkpt>
<trkpt lat="45.8925870" lon="9.8365060">
	<ele>1501.40</ele>
	<time>2023-11-18T08:21:57.000Z</time>
</trkpt>
<trkpt lat="45.8925910" lon="9.8365060">
	<ele>1501.40</ele>
	<time>2023-11-18T08:21:58.000Z</time>
</trkpt>
<trkpt lat="45.8925950" lon="9.8365060">
	<ele>1501.40</ele>
	<time>2023-11-18T08:21:59.000Z</time>
</trkpt>
<trkpt lat="45.8925990" lon="9.8365050">
	<ele>1501.40</ele>
	<time>2023-11-18T08:22:00.000Z</time>
</trkpt>
<trkpt lat="45.8926030" lon="9.8365050">
	<ele>1501.40</ele>
	<time>2023-11-18T08:22:01.000Z</time>
</trkpt>
<trkpt lat="45.8926070" lon="9.8365050">
	<ele>1501.40</ele>
	<time>2023-11-18T08:22:02.000Z</time>
</trkpt>
<trkpt lat="45.8926110" lon="9.8365050">
	<ele>1501.40</ele>
	<time>2023-11-18T08:22:03.000Z</time>
</trkpt>
<trkpt lat="45.8926150" lon="9.8365050">
	<ele>1501.40</ele>
	<time>2023-11-18T08:22:04.000Z</time>
</trkpt>
<trkpt lat="45.8926180" lon="9.8365050">
	<ele>1501.40</ele>
	<time>2023-11-18T08:22:05.000Z</time>
</trkpt>
<trkpt lat="45.8926220" lon="9.8365050">
	<ele>1501.40</ele>
	<time>2023-11-18T08:22:06.000Z</time>
</trkpt>
<trkpt lat="45.8926250" lon="9.8365040">
	<ele>1501.40</ele>
	<time>2023-11-18T08:22:07.000Z</time>
</trkpt>
<trkpt lat="45.8926280" lon="9.8365040">
	<ele>1501.40</ele>
	<time>2023-11-18T08:22:08.000Z</time>
</trkpt>
<trkpt lat="45.8926300" lon="9.8365040">
	<ele>1501.40</ele>
	<time>2023-11-18T08:22:09.000Z</time>
</trkpt>
<trkpt lat="45.8926330" lon="9.8365040">
	<ele>1501.40</ele>
	<time>2023-11-18T08:22:10.000Z</time>
</trkpt>
<trkpt lat="45.8926350" lon="9.8365040">
	<ele>1501.40</ele>
	<time>2023-11-18T08:22:11.000Z</time>
</trkpt>
<trkpt lat="45.8926380" lon="9.8365030">
	<ele>1501.40</ele>
	<time>2023-11-18T08:22:12.000Z</time>
</trkpt>
<trkpt lat="45.8926400" lon="9.8365030">
	<ele>1501.40</ele>
	<time>2023-11-18T08:22:13.000Z</time>
</trkpt>
<trkpt lat="45.8926420" lon="9.8365030">
	<ele>1501.40</ele>
	<time>2023-11-18T08:22:14.000Z</time>
</trkpt>
<trkpt lat="45.8926440" lon="9.8365030">
	<ele>1501.40</ele>
	<time>2023-11-18T08:22:15.000Z</time>
</trkpt>
<trkpt lat="45.8926450" lon="9.8365030">
	<ele>1501.40</ele>
	<time>2023-11-18T08:22:16.000Z</time>
</trkpt>
<trkpt lat="45.8926460" lon="9.8365030">
	<ele>1501.40</ele>
	<time>2023-11-18T08:22:17.000Z</time>
</trkpt>
<trkpt lat="45.8926470" lon="9.8365030">
	<ele>1501.40</ele>
	<time>2023-11-18T08:22:18.000Z</time>
</trkpt>
<trkpt lat="45.8926480" lon="9.8365030">
	<ele>1501.40</ele>
	<time>2023-11-18T08:22:19.000Z</time>
</trkpt>
<trkpt lat="45.8926480" lon="9.8365030">
	<ele>1501.40</ele>
	<time>2023-11-18T08:22:20.000Z</time>
</trkpt>
<trkpt lat="45.8926480" lon="9.8365040">
	<ele>1501.40</ele>
	<time>2023-11-18T08:22:21.000Z</time>
</trkpt>
<trkpt lat="45.8926490" lon="9.8365030">
	<ele>1501.40</ele>
	<time>2023-11-18T08:22:22.000Z</time>
</trkpt>
<trkpt lat="45.8926490" lon="9.8365030">
	<ele>1501.40</ele>
	<time>2023-11-18T08:22:23.000Z</time>
</trkpt>
<trkpt lat="45.8926490" lon="9.8365030">
	<ele>1501.40</ele>
	<time>2023-11-18T08:22:24.000Z</time>
</trkpt>
<trkpt lat="45.8926490" lon="9.8365030">
	<ele>1501.40</ele>
	<time>2023-11-18T08:22:25.000Z</time>
</trkpt>
<trkpt lat="45.8926500" lon="9.8365030">
	<ele>1501.40</ele>
	<time>2023-11-18T08:22:26.000Z</time>
</trkpt>
<trkpt lat="45.8926500" lon="9.8365030">
	<ele>1501.40</ele>
	<time>2023-11-18T08:22:27.000Z</time>
</trkpt>
<trkpt lat="45.8926500" lon="9.8365030">
	<ele>1501.40</ele>
	<time>2023-11-18T08:22:28.000Z</time>
</trkpt>
<trkpt lat="45.8926510" lon="9.8365030">
	<ele>1501.40</ele>
	<time>2023-11-18T08:22:29.000Z</time>
</trkpt>
<trkpt lat="45.8926510" lon="9.8365030">
	<ele>1501.40</ele>
	<time>2023-11-18T08:22:30.000Z</time>
</trkpt>
<trkpt lat="45.8926510" lon="9.8365030">
	<ele>1501.40</ele>
	<time>2023-11-18T08:22:31.000Z</time>
</trkpt>
<trkpt lat="45.8926510" lon="9.8365030">
	<ele>1501.40</ele>
	<time>2023-11-18T08:22:32.000Z</time>
</trkpt>
<trkpt lat="45.8926510" lon="9.8365030">
	<ele>1501.40</ele>
	<time>2023-11-18T08:22:33.000Z</time>
</trkpt>
<trkpt lat="45.8926520" lon="9.8365030">
	<ele>1501.40</ele>
	<time>2023-11-18T08:22:34.000Z</time>
</trkpt>
<trkpt lat="45.8926520" lon="9.8365040">
	<ele>1501.40</ele>
	<time>2023-11-18T08:22:35.000Z</time>
</trkpt>
<trkpt lat="45.8926520" lon="9.8365040">
	<ele>1501.40</ele>
	<time>2023-11-18T08:22:36.000Z</time>
</trkpt>
<trkpt lat="45.8926530" lon="9.8365040">
	<ele>1501.40</ele>
	<time>2023-11-18T08:22:37.000Z</time>
</trkpt>
<trkpt lat="45.8926530" lon="9.8365040">
	<ele>1501.40</ele>
	<time>2023-11-18T08:22:38.000Z</time>
</trkpt>
<trkpt lat="45.8926530" lon="9.8365040">
	<ele>1501.40</ele>
	<time>2023-11-18T08:22:39.000Z</time>
</trkpt>
<trkpt lat="45.8926530" lon="9.8365040">
	<ele>1501.40</ele>
	<time>2023-11-18T08:22:40.000Z</time>
</trkpt>
<trkpt lat="45.8926540" lon="9.8365040">
	<ele>1501.40</ele>
	<time>2023-11-18T08:22:41.000Z</time>
</trkpt>
<trkpt lat="45.8926540" lon="9.8365040">
	<ele>1501.40</ele>
	<time>2023-11-18T08:22:42.000Z</time>
</trkpt>
<trkpt lat="45.8926540" lon="9.8365040">
	<ele>1501.40</ele>
	<time>2023-11-18T08:22:43.000Z</time>
</trkpt>
<trkpt lat="45.8926550" lon="9.8365040">
	<ele>1512.00</ele>
	<time>2023-11-18T08:22:44.000Z</time>
</trkpt>
<trkpt lat="45.8926550" lon="9.8365040">
	<ele>1512.00</ele>
	<time>2023-11-18T08:22:45.000Z</time>
</trkpt>
<trkpt lat="45.8926550" lon="9.8365040">
	<ele>1512.00</ele>
	<time>2023-11-18T08:22:46.000Z</time>
</trkpt>
<trkpt lat="45.8926560" lon="9.8365040">
	<ele>1512.00</ele>
	<time>2023-11-18T08:22:47.000Z</time>
</trkpt>
<trkpt lat="45.8926560" lon="9.8365040">
	<ele>1512.00</ele>
	<time>2023-11-18T08:22:48.000Z</time>
</trkpt>
<trkpt lat="45.8926560" lon="9.8365040">
	<ele>1512.40</ele>
	<time>2023-11-18T08:22:49.000Z</time>
</trkpt>
<trkpt lat="45.8926570" lon="9.8365040">
	<ele>1512.40</ele>
	<time>2023-11-18T08:22:50.000Z</time>
</trkpt>
<trkpt lat="45.8926570" lon="9.8365040">
	<ele>1512.60</ele>
	<time>2023-11-18T08:22:51.000Z</time>
</trkpt>
<trkpt lat="45.8926580" lon="9.8365040">
	<ele>1512.80</ele>
	<time>2023-11-18T08:22:52.000Z</time>
</trkpt>
<trkpt lat="45.8926580" lon="9.8365040">
	<ele>1513.00</ele>
	<time>2023-11-18T08:22:53.000Z</time>
</trkpt>
<trkpt lat="45.8926580" lon="9.8365030">
	<ele>1513.20</ele>
	<time>2023-11-18T08:22:54.000Z</time>
</trkpt>
<trkpt lat="45.8926590" lon="9.8365030">
	<ele>1513.40</ele>
	<time>2023-11-18T08:22:55.000Z</time>
</trkpt>
<trkpt lat="45.8926590" lon="9.8365030">
	<ele>1513.60</ele>
	<time>2023-11-18T08:22:56.000Z</time>
</trkpt>
<trkpt lat="45.8926600" lon="9.8365030">
	<ele>1514.00</ele>
	<time>2023-11-18T08:22:57.000Z</time>
</trkpt>
<trkpt lat="45.8926600" lon="9.8365030">
	<ele>1514.00</ele>
	<time>2023-11-18T08:22:58.000Z</time>
</trkpt>
<trkpt lat="45.8926600" lon="9.8365020">
	<ele>1514.20</ele>
	<time>2023-11-18T08:22:59.000Z</time>
</trkpt>
<trkpt lat="45.8926610" lon="9.8365020">
	<ele>1514.20</ele>
	<time>2023-11-18T08:23:00.000Z</time>
</trkpt>
<trkpt lat="45.8926610" lon="9.8365020">
	<ele>1514.20</ele>
	<time>2023-11-18T08:23:01.000Z</time>
</trkpt>
<trkpt lat="45.8926620" lon="9.8365020">
	<ele>1514.20</ele>
	<time>2023-11-18T08:23:02.000Z</time>
</trkpt>
<trkpt lat="45.8926620" lon="9.8365020">
	<ele>1514.40</ele>
	<time>2023-11-18T08:23:03.000Z</time>
</trkpt>
<trkpt lat="45.8926630" lon="9.8365020">
	<ele>1514.40</ele>
	<time>2023-11-18T08:23:04.000Z</time>
</trkpt>
<trkpt lat="45.8926630" lon="9.8365020">
	<ele>1514.40</ele>
	<time>2023-11-18T08:23:05.000Z</time>
</trkpt>
<trkpt lat="45.8926640" lon="9.8365020">
	<ele>1514.40</ele>
	<time>2023-11-18T08:23:06.000Z</time>
</trkpt>
<trkpt lat="45.8926640" lon="9.8365020">
	<ele>1514.40</ele>
	<time>2023-11-18T08:23:07.000Z</time>
</trkpt>
<trkpt lat="45.8926640" lon="9.8365010">
	<ele>1514.40</ele>
	<time>2023-11-18T08:23:08.000Z</time>
</trkpt>
<trkpt lat="45.8926650" lon="9.8365010">
	<ele>1514.40</ele>
	<time>2023-11-18T08:23:09.000Z</time>
</trkpt>
<trkpt lat="45.8926650" lon="9.8365010">
	<ele>1514.40</ele>
	<time>2023-11-18T08:23:10.000Z</time>
</trkpt>
<trkpt lat="45.8926660" lon="9.8365010">
	<ele>1514.60</ele>
	<time>2023-11-18T08:23:11.000Z</time>
</trkpt>
<trkpt lat="45.8926660" lon="9.8365010">
	<ele>1514.60</ele>
	<time>2023-11-18T08:23:12.000Z</time>
</trkpt>
<trkpt lat="45.8926670" lon="9.8365000">
	<ele>1514.80</ele>
	<time>2023-11-18T08:23:13.000Z</time>
</trkpt>
<trkpt lat="45.8926670" lon="9.8365000">
	<ele>1515.00</ele>
	<time>2023-11-18T08:23:14.000Z</time>
</trkpt>
<trkpt lat="45.8926670" lon="9.8365000">
	<ele>1515.20</ele>
	<time>2023-11-18T08:23:15.000Z</time>
</trkpt>
<trkpt lat="45.8926680" lon="9.8365000">
	<ele>1515.20</ele>
	<time>2023-11-18T08:23:16.000Z</time>
</trkpt>
<trkpt lat="45.8926680" lon="9.8364990">
	<ele>1515.60</ele>
	<time>2023-11-18T08:23:17.000Z</time>
</trkpt>
<trkpt lat="45.8926690" lon="9.8364990">
	<ele>1515.80</ele>
	<time>2023-11-18T08:23:18.000Z</time>
</trkpt>
<trkpt lat="45.8926700" lon="9.8364990">
	<ele>1516.00</ele>
	<time>2023-11-18T08:23:19.000Z</time>
</trkpt>
<trkpt lat="45.8926700" lon="9.8364990">
	<ele>1516.00</ele>
	<time>2023-11-18T08:23:20.000Z</time>
</trkpt>
<trkpt lat="45.8926710" lon="9.8364980">
	<ele>1516.00</ele>
	<time>2023-11-18T08:23:21.000Z</time>
</trkpt>
<trkpt lat="45.8926710" lon="9.8364980">
	<ele>1516.00</ele>
	<time>2023-11-18T08:23:22.000Z</time>
</trkpt>
<trkpt lat="45.8926720" lon="9.8364980">
	<ele>1515.80</ele>
	<time>2023-11-18T08:23:23.000Z</time>
</trkpt>
<trkpt lat="45.8926720" lon="9.8364980">
	<ele>1515.80</ele>
	<time>2023-11-18T08:23:24.000Z</time>
</trkpt>
<trkpt lat="45.8926730" lon="9.8364980">
	<ele>1515.60</ele>
	<time>2023-11-18T08:23:25.000Z</time>
</trkpt>
<trkpt lat="45.8926730" lon="9.8364970">
	<ele>1515.60</ele>
	<time>2023-11-18T08:23:26.000Z</time>
</trkpt>
<trkpt lat="45.8926730" lon="9.8364970">
	<ele>1515.40</ele>
	<time>2023-11-18T08:23:27.000Z</time>
</trkpt>
<trkpt lat="45.8926740" lon="9.8364970">
	<ele>1515.20</ele>
	<time>2023-11-18T08:23:28.000Z</time>
</trkpt>
<trkpt lat="45.8926740" lon="9.8364970">
	<ele>1515.20</ele>
	<time>2023-11-18T08:23:29.000Z</time>
</trkpt>
<trkpt lat="45.8926750" lon="9.8364970">
	<ele>1515.20</ele>
	<time>2023-11-18T08:23:30.000Z</time>
</trkpt>
<trkpt lat="45.8926750" lon="9.8364960">
	<ele>1515.20</ele>
	<time>2023-11-18T08:23:31.000Z</time>
</trkpt>
<trkpt lat="45.8926760" lon="9.8364960">
	<ele>1515.20</ele>
	<time>2023-11-18T08:23:32.000Z</time>
</trkpt>
<trkpt lat="45.8926760" lon="9.8364960">
	<ele>1515.40</ele>
	<time>2023-11-18T08:23:33.000Z</time>
</trkpt>
<trkpt lat="45.8926770" lon="9.8364960">
	<ele>1515.60</ele>
	<time>2023-11-18T08:23:34.000Z</time>
</trkpt>
<trkpt lat="45.8926770" lon="9.8364960">
	<ele>1515.60</ele>
	<time>2023-11-18T08:23:35.000Z</time>
</trkpt>
<trkpt lat="45.8926780" lon="9.8364950">
	<ele>1515.80</ele>
	<time>2023-11-18T08:23:36.000Z</time>
</trkpt>
<trkpt lat="45.8926780" lon="9.8364950">
	<ele>1515.80</ele>
	<time>2023-11-18T08:23:37.000Z</time>
</trkpt>
<trkpt lat="45.8926790" lon="9.8364950">
	<ele>1515.80</ele>
	<time>2023-11-18T08:23:38.000Z</time>
</trkpt>
<trkpt lat="45.8926790" lon="9.8364950">
	<ele>1515.80</ele>
	<time>2023-11-18T08:23:39.000Z</time>
</trkpt>
<trkpt lat="45.8926800" lon="9.8364940">
	<ele>1515.80</ele>
	<time>2023-11-18T08:23:40.000Z</time>
</trkpt>
<trkpt lat="45.8926800" lon="9.8364940">
	<ele>1516.00</ele>
	<time>2023-11-18T08:23:41.000Z</time>
</trkpt>
<trkpt lat="45.8926810" lon="9.8364940">
	<ele>1516.00</ele>
	<time>2023-11-18T08:23:42.000Z</time>
</trkpt>
<trkpt lat="45.8926810" lon="9.8364940">
	<ele>1516.00</ele>
	<time>2023-11-18T08:23:43.000Z</time>
</trkpt>
<trkpt lat="45.8926810" lon="9.8364930">
	<ele>1516.20</ele>
	<time>2023-11-18T08:23:44.000Z</time>
</trkpt>
<trkpt lat="45.8926820" lon="9.8364930">
	<ele>1516.20</ele>
	<time>2023-11-18T08:23:45.000Z</time>
</trkpt>
<trkpt lat="45.8926830" lon="9.8364930">
	<ele>1516.40</ele>
	<time>2023-11-18T08:23:46.000Z</time>
</trkpt>
<trkpt lat="45.8926830" lon="9.8364930">
	<ele>1516.40</ele>
	<time>2023-11-18T08:23:47.000Z</time>
</trkpt>
<trkpt lat="45.8926830" lon="9.8364920">
	<ele>1516.60</ele>
	<time>2023-11-18T08:23:48.000Z</time>
</trkpt>
<trkpt lat="45.8926840" lon="9.8364920">
	<ele>1516.60</ele>
	<time>2023-11-18T08:23:49.000Z</time>
</trkpt>
<trkpt lat="45.8926840" lon="9.8364920">
	<ele>1516.80</ele>
	<time>2023-11-18T08:23:50.000Z</time>
</trkpt>
<trkpt lat="45.8926850" lon="9.8364910">
	<ele>1517.00</ele>
	<time>2023-11-18T08:23:51.000Z</time>
</trkpt>
<trkpt lat="45.8926850" lon="9.8364910">
	<ele>1517.00</ele>
	<time>2023-11-18T08:23:52.000Z</time>
</trkpt>
<trkpt lat="45.8926860" lon="9.8364900">
	<ele>1517.20</ele>
	<time>2023-11-18T08:23:53.000Z</time>
</trkpt>
<trkpt lat="45.8926860" lon="9.8364900">
	<ele>1517.20</ele>
	<time>2023-11-18T08:23:54.000Z</time>
</trkpt>
<trkpt lat="45.8926870" lon="9.8364900">
	<ele>1517.40</ele>
	<time>2023-11-18T08:23:55.000Z</time>
</trkpt>
<trkpt lat="45.8926880" lon="9.8364890">
	<ele>1517.40</ele>
	<time>2023-11-18T08:23:56.000Z</time>
</trkpt>
<trkpt lat="45.8926880" lon="9.8364890">
	<ele>1517.60</ele>
	<time>2023-11-18T08:23:57.000Z</time>
</trkpt>
<trkpt lat="45.8926890" lon="9.8364890">
	<ele>1517.80</ele>
	<time>2023-11-18T08:23:58.000Z</time>
</trkpt>
<trkpt lat="45.8926890" lon="9.8364880">
	<ele>1517.80</ele>
	<time>2023-11-18T08:23:59.000Z</time>
</trkpt>
<trkpt lat="45.8926900" lon="9.8364880">
	<ele>1518.00</ele>
	<time>2023-11-18T08:24:00.000Z</time>
</trkpt>
<trkpt lat="45.8926900" lon="9.8364870">
	<ele>1518.20</ele>
	<time>2023-11-18T08:24:01.000Z</time>
</trkpt>
<trkpt lat="45.8926910" lon="9.8364870">
	<ele>1518.40</ele>
	<time>2023-11-18T08:24:02.000Z</time>
</trkpt>
<trkpt lat="45.8926910" lon="9.8364860">
	<ele>1518.60</ele>
	<time>2023-11-18T08:24:03.000Z</time>
</trkpt>
<trkpt lat="45.8926920" lon="9.8364860">
	<ele>1518.80</ele>
	<time>2023-11-18T08:24:04.000Z</time>
</trkpt>
<trkpt lat="45.8926920" lon="9.8364850">
	<ele>1518.80</ele>
	<time>2023-11-18T08:24:05.000Z</time>
</trkpt>
<trkpt lat="45.8926930" lon="9.8364850">
	<ele>1519.00</ele>
	<time>2023-11-18T08:24:06.000Z</time>
</trkpt>
<trkpt lat="45.8926930" lon="9.8364840">
	<ele>1519.00</ele>
	<time>2023-11-18T08:24:07.000Z</time>
</trkpt>
<trkpt lat="45.8926940" lon="9.8364840">
	<ele>1519.20</ele>
	<time>2023-11-18T08:24:08.000Z</time>
</trkpt>
<trkpt lat="45.8926950" lon="9.8364830">
	<ele>1519.20</ele>
	<time>2023-11-18T08:24:09.000Z</time>
</trkpt>
<trkpt lat="45.8926950" lon="9.8364830">
	<ele>1519.20</ele>
	<time>2023-11-18T08:24:10.000Z</time>
</trkpt>
<trkpt lat="45.8927320" lon="9.8364440">
	<ele>1519.40</ele>
	<time>2023-11-18T08:24:11.000Z</time>
</trkpt>
<trkpt lat="45.8927690" lon="9.8363930">
	<ele>1519.40</ele>
	<time>2023-11-18T08:24:12.000Z</time>
</trkpt>
<trkpt lat="45.8928040" lon="9.8363420">
	<ele>1519.40</ele>
	<time>2023-11-18T08:24:13.000Z</time>
</trkpt>
<trkpt lat="45.8928390" lon="9.8362900">
	<ele>1519.40</ele>
	<time>2023-11-18T08:24:14.000Z</time>
</trkpt>
<trkpt lat="45.8928770" lon="9.8362400">
	<ele>1519.60</ele>
	<time>2023-11-18T08:24:15.000Z</time>
</trkpt>
<trkpt lat="45.8929180" lon="9.8361900">
	<ele>1519.60</ele>
	<time>2023-11-18T08:24:16.000Z</time>
</trkpt>
<trkpt lat="45.8929600" lon="9.8361370">
	<ele>1519.60</ele>
	<time>2023-11-18T08:24:17.000Z</time>
</trkpt>
<trkpt lat="45.8930010" lon="9.8360860">
	<ele>1519.80</ele>
	<time>2023-11-18T08:24:18.000Z</time>
</trkpt>
<trkpt lat="45.8930440" lon="9.8360360">
	<ele>1519.80</ele>
	<time>2023-11-18T08:24:19.000Z</time>
</trkpt>
<trkpt lat="45.8930870" lon="9.8359930">
	<ele>1519.80</ele>
	<time>2023-11-18T08:24:20.000Z</time>
</trkpt>
<trkpt lat="45.8930930" lon="9.8359850">
	<ele>1520.00</ele>
	<time>2023-11-18T08:24:21.000Z</time>
</trkpt>
<trkpt lat="45.8931000" lon="9.8359760">
	<ele>1520.20</ele>
	<time>2023-11-18T08:24:22.000Z</time>
</trkpt>
<trkpt lat="45.8931070" lon="9.8359660">
	<ele>1520.20</ele>
	<time>2023-11-18T08:24:23.000Z</time>
</trkpt>
<trkpt lat="45.8931130" lon="9.8359540">
	<ele>1520.40</ele>
	<time>2023-11-18T08:24:24.000Z</time>
</trkpt>
<trkpt lat="45.8931180" lon="9.8359440">
	<ele>1520.40</ele>
	<time>2023-11-18T08:24:25.000Z</time>
</trkpt>
<trkpt lat="45.8931240" lon="9.8359340">
	<ele>1520.60</ele>
	<time>2023-11-18T08:24:26.000Z</time>
</trkpt>
<trkpt lat="45.8931280" lon="9.8359250">
	<ele>1520.80</ele>
	<time>2023-11-18T08:24:27.000Z</time>
</trkpt>
<trkpt lat="45.8931320" lon="9.8359190">
	<ele>1521.00</ele>
	<time>2023-11-18T08:24:28.000Z</time>
</trkpt>
<trkpt lat="45.8931340" lon="9.8359110">
	<ele>1521.00</ele>
	<time>2023-11-18T08:24:29.000Z</time>
</trkpt>
<trkpt lat="45.8931360" lon="9.8359050">
	<ele>1521.00</ele>
	<time>2023-11-18T08:24:30.000Z</time>
</trkpt>
<trkpt lat="45.8931380" lon="9.8359000">
	<ele>1521.20</ele>
	<time>2023-11-18T08:24:31.000Z</time>
</trkpt>
<trkpt lat="45.8931400" lon="9.8358930">
	<ele>1521.20</ele>
	<time>2023-11-18T08:24:32.000Z</time>
</trkpt>
<trkpt lat="45.8931440" lon="9.8358900">
	<ele>1521.40</ele>
	<time>2023-11-18T08:24:33.000Z</time>
</trkpt>
<trkpt lat="45.8931500" lon="9.8358830">
	<ele>1521.80</ele>
	<time>2023-11-18T08:24:34.000Z</time>
</trkpt>
<trkpt lat="45.8931540" lon="9.8358760">
	<ele>1522.00</ele>
	<time>2023-11-18T08:24:35.000Z</time>
</trkpt>
<trkpt lat="45.8931580" lon="9.8358670">
	<ele>1522.20</ele>
	<time>2023-11-18T08:24:36.000Z</time>
</trkpt>
<trkpt lat="45.8931650" lon="9.8358610">
	<ele>1522.40</ele>
	<time>2023-11-18T08:24:37.000Z</time>
</trkpt>
<trkpt lat="45.8931690" lon="9.8358590">
	<ele>1522.60</ele>
	<time>2023-11-18T08:24:38.000Z</time>
</trkpt>
<trkpt lat="45.8931740" lon="9.8358570">
	<ele>1522.80</ele>
	<time>2023-11-18T08:24:39.000Z</time>
</trkpt>
<trkpt lat="45.8931810" lon="9.8358480">
	<ele>1522.80</ele>
	<time>2023-11-18T08:24:40.000Z</time>
</trkpt>
<trkpt lat="45.8931870" lon="9.8358420">
	<ele>1523.20</ele>
	<time>2023-11-18T08:24:41.000Z</time>
</trkpt>
<trkpt lat="45.8931950" lon="9.8358320">
	<ele>1523.20</ele>
	<time>2023-11-18T08:24:42.000Z</time>
</trkpt>
<trkpt lat="45.8932000" lon="9.8358190">
	<ele>1523.40</ele>
	<time>2023-11-18T08:24:43.000Z</time>
</trkpt>
<trkpt lat="45.8932020" lon="9.8358040">
	<ele>1523.40</ele>
	<time>2023-11-18T08:24:44.000Z</time>
</trkpt>
<trkpt lat="45.8932030" lon="9.8357880">
	<ele>1523.60</ele>
	<time>2023-11-18T08:24:45.000Z</time>
</trkpt>
<trkpt lat="45.8932040" lon="9.8357740">
	<ele>1523.80</ele>
	<time>2023-11-18T08:24:46.000Z</time>
</trkpt>
<trkpt lat="45.8932060" lon="9.8357640">
	<ele>1523.80</ele>
	<time>2023-11-18T08:24:47.000Z</time>
</trkpt>
<trkpt lat="45.8932090" lon="9.8357530">
	<ele>1524.00</ele>
	<time>2023-11-18T08:24:48.000Z</time>
</trkpt>
<trkpt lat="45.8932130" lon="9.8357420">
	<ele>1524.20</ele>
	<time>2023-11-18T08:24:49.000Z</time>
</trkpt>
<trkpt lat="45.8932160" lon="9.8357340">
	<ele>1524.40</ele>
	<time>2023-11-18T08:24:50.000Z</time>
</trkpt>
<trkpt lat="45.8932180" lon="9.8357280">
	<ele>1524.40</ele>
	<time>2023-11-18T08:24:51.000Z</time>
</trkpt>
<trkpt lat="45.8932270" lon="9.8357210">
	<ele>1524.40</ele>
	<time>2023-11-18T08:24:52.000Z</time>
</trkpt>
<trkpt lat="45.8932400" lon="9.8357090">
	<ele>1524.60</ele>
	<time>2023-11-18T08:24:53.000Z</time>
</trkpt>
<trkpt lat="45.8932490" lon="9.8357030">
	<ele>1524.80</ele>
	<time>2023-11-18T08:24:54.000Z</time>
</trkpt>
<trkpt lat="45.8932540" lon="9.8356960">
	<ele>1524.80</ele>
	<time>2023-11-18T08:24:55.000Z</time>
</trkpt>
<trkpt lat="45.8932570" lon="9.8356930">
	<ele>1525.00</ele>
	<time>2023-11-18T08:24:56.000Z</time>
</trkpt>
<trkpt lat="45.8932610" lon="9.8356920">
	<ele>1525.20</ele>
	<time>2023-11-18T08:24:57.000Z</time>
</trkpt>
<trkpt lat="45.8932660" lon="9.8356900">
	<ele>1525.40</ele>
	<time>2023-11-18T08:24:58.000Z</time>
</trkpt>
<trkpt lat="45.8932690" lon="9.8356880">
	<ele>1525.40</ele>
	<time>2023-11-18T08:24:59.000Z</time>
</trkpt>
<trkpt lat="45.8932740" lon="9.8356880">
	<ele>1525.60</ele>
	<time>2023-11-18T08:25:00.000Z</time>
</trkpt>
<trkpt lat="45.8932840" lon="9.8356800">
	<ele>1525.60</ele>
	<time>2023-11-18T08:25:01.000Z</time>
</trkpt>
<trkpt lat="45.8932870" lon="9.8356760">
	<ele>1525.80</ele>
	<time>2023-11-18T08:25:02.000Z</time>
</trkpt>
<trkpt lat="45.8932880" lon="9.8356730">
	<ele>1526.20</ele>
	<time>2023-11-18T08:25:03.000Z</time>
</trkpt>
<trkpt lat="45.8932880" lon="9.8356630">
	<ele>1526.40</ele>
	<time>2023-11-18T08:25:04.000Z</time>
</trkpt>
<trkpt lat="45.8932900" lon="9.8356590">
	<ele>1526.60</ele>
	<time>2023-11-18T08:25:05.000Z</time>
</trkpt>
<trkpt lat="45.8932930" lon="9.8356520">
	<ele>1526.80</ele>
	<time>2023-11-18T08:25:06.000Z</time>
</trkpt>
<trkpt lat="45.8932990" lon="9.8356440">
	<ele>1526.80</ele>
	<time>2023-11-18T08:25:07.000Z</time>
</trkpt>
<trkpt lat="45.8933040" lon="9.8356360">
	<ele>1527.00</ele>
	<time>2023-11-18T08:25:08.000Z</time>
</trkpt>
<trkpt lat="45.8933070" lon="9.8356360">
	<ele>1527.20</ele>
	<time>2023-11-18T08:25:09.000Z</time>
</trkpt>
<trkpt lat="45.8933100" lon="9.8356370">
	<ele>1527.60</ele>
	<time>2023-11-18T08:25:10.000Z</time>
</trkpt>
<trkpt lat="45.8933130" lon="9.8356360">
	<ele>1527.60</ele>
	<time>2023-11-18T08:25:11.000Z</time>
</trkpt>
<trkpt lat="45.8933150" lon="9.8356330">
	<ele>1527.80</ele>
	<time>2023-11-18T08:25:12.000Z</time>
</trkpt>
<trkpt lat="45.8933180" lon="9.8356300">
	<ele>1528.00</ele>
	<time>2023-11-18T08:25:13.000Z</time>
</trkpt>
<trkpt lat="45.8933240" lon="9.8356280">
	<ele>1528.00</ele>
	<time>2023-11-18T08:25:14.000Z</time>
</trkpt>
<trkpt lat="45.8933290" lon="9.8356200">
	<ele>1528.20</ele>
	<time>2023-11-18T08:25:15.000Z</time>
</trkpt>
<trkpt lat="45.8933350" lon="9.8356120">
	<ele>1528.40</ele>
	<time>2023-11-18T08:25:16.000Z</time>
</trkpt>
<trkpt lat="45.8933390" lon="9.8356110">
	<ele>1528.40</ele>
	<time>2023-11-18T08:25:17.000Z</time>
</trkpt>
<trkpt lat="45.8933390" lon="9.8356030">
	<ele>1529.00</ele>
	<time>2023-11-18T08:25:18.000Z</time>
</trkpt>
<trkpt lat="45.8933380" lon="9.8355950">
	<ele>1529.20</ele>
	<time>2023-11-18T08:25:19.000Z</time>
</trkpt>
<trkpt lat="45.8933390" lon="9.8355900">
	<ele>1529.40</ele>
	<time>2023-11-18T08:25:20.000Z</time>
</trkpt>
<trkpt lat="45.8933420" lon="9.8355780">
	<ele>1529.60</ele>
	<time>2023-11-18T08:25:21.000Z</time>
</trkpt>
<trkpt lat="45.8933460" lon="9.8355690">
	<ele>1529.60</ele>
	<time>2023-11-18T08:25:22.000Z</time>
</trkpt>
<trkpt lat="45.8933490" lon="9.8355640">
	<ele>1529.80</ele>
	<time>2023-11-18T08:25:23.000Z</time>
</trkpt>
<trkpt lat="45.8933520" lon="9.8355560">
	<ele>1529.80</ele>
	<time>2023-11-18T08:25:24.000Z</time>
</trkpt>
<trkpt lat="45.8933560" lon="9.8355450">
	<ele>1529.80</ele>
	<time>2023-11-18T08:25:25.000Z</time>
</trkpt>
<trkpt lat="45.8933590" lon="9.8355380">
	<ele>1530.00</ele>
	<time>2023-11-18T08:25:26.000Z</time>
</trkpt>
<trkpt lat="45.8933620" lon="9.8355280">
	<ele>1530.20</ele>
	<time>2023-11-18T08:25:27.000Z</time>
</trkpt>
<trkpt lat="45.8933640" lon="9.8355180">
	<ele>1530.20</ele>
	<time>2023-11-18T08:25:28.000Z</time>
</trkpt>
<trkpt lat="45.8933640" lon="9.8355130">
	<ele>1530.20</ele>
	<time>2023-11-18T08:25:29.000Z</time>
</trkpt>
<trkpt lat="45.8933670" lon="9.8355080">
	<ele>1530.40</ele>
	<time>2023-11-18T08:25:30.000Z</time>
</trkpt>
<trkpt lat="45.8933710" lon="9.8355040">
	<ele>1530.60</ele>
	<time>2023-11-18T08:25:31.000Z</time>
</trkpt>
<trkpt lat="45.8933740" lon="9.8354990">
	<ele>1530.60</ele>
	<time>2023-11-18T08:25:32.000Z</time>
</trkpt>
<trkpt lat="45.8933780" lon="9.8354960">
	<ele>1530.80</ele>
	<time>2023-11-18T08:25:33.000Z</time>
</trkpt>
<trkpt lat="45.8933820" lon="9.8354880">
	<ele>1530.80</ele>
	<time>2023-11-18T08:25:34.000Z</time>
</trkpt>
<trkpt lat="45.8933860" lon="9.8354840">
	<ele>1531.00</ele>
	<time>2023-11-18T08:25:35.000Z</time>
</trkpt>
<trkpt lat="45.8933920" lon="9.8354790">
	<ele>1531.00</ele>
	<time>2023-11-18T08:25:36.000Z</time>
</trkpt>
<trkpt lat="45.8933950" lon="9.8354770">
	<ele>1531.20</ele>
	<time>2023-11-18T08:25:37.000Z</time>
</trkpt>
<trkpt lat="45.8933980" lon="9.8354730">
	<ele>1531.60</ele>
	<time>2023-11-18T08:25:38.000Z</time>
</trkpt>
<trkpt lat="45.8934020" lon="9.8354660">
	<ele>1531.80</ele>
	<time>2023-11-18T08:25:39.000Z</time>
</trkpt>
<trkpt lat="45.8934060" lon="9.8354640">
	<ele>1532.00</ele>
	<time>2023-11-18T08:25:40.000Z</time>
</trkpt>
<trkpt lat="45.8934090" lon="9.8354620">
	<ele>1532.20</ele>
	<time>2023-11-18T08:25:41.000Z</time>
</trkpt>
<trkpt lat="45.8934110" lon="9.8354600">
	<ele>1532.40</ele>
	<time>2023-11-18T08:25:42.000Z</time>
</trkpt>
<trkpt lat="45.8934140" lon="9.8354590">
	<ele>1532.60</ele>
	<time>2023-11-18T08:25:43.000Z</time>
</trkpt>
<trkpt lat="45.8934170" lon="9.8354550">
	<ele>1532.60</ele>
	<time>2023-11-18T08:25:44.000Z</time>
</trkpt>
<trkpt lat="45.8934200" lon="9.8354510">
	<ele>1532.80</ele>
	<time>2023-11-18T08:25:45.000Z</time>
</trkpt>
<trkpt lat="45.8934240" lon="9.8354490">
	<ele>1533.00</ele>
	<time>2023-11-18T08:25:46.000Z</time>
</trkpt>
<trkpt lat="45.8934300" lon="9.8354470">
	<ele>1533.20</ele>
	<time>2023-11-18T08:25:47.000Z</time>
</trkpt>
<trkpt lat="45.8934340" lon="9.8354450">
	<ele>1533.40</ele>
	<time>2023-11-18T08:25:48.000Z</time>
</trkpt>
<trkpt lat="45.8934360" lon="9.8354410">
	<ele>1533.40</ele>
	<time>2023-11-18T08:25:49.000Z</time>
</trkpt>
<trkpt lat="45.8934380" lon="9.8354360">
	<ele>1533.80</ele>
	<time>2023-11-18T08:25:50.000Z</time>
</trkpt>
<trkpt lat="45.8934440" lon="9.8354390">
	<ele>1533.80</ele>
	<time>2023-11-18T08:25:51.000Z</time>
</trkpt>
<trkpt lat="45.8934480" lon="9.8354430">
	<ele>1534.00</ele>
	<time>2023-11-18T08:25:52.000Z</time>
</trkpt>
<trkpt lat="45.8934510" lon="9.8354460">
	<ele>1534.20</ele>
	<time>2023-11-18T08:25:53.000Z</time>
</trkpt>
<trkpt lat="45.8934550" lon="9.8354480">
	<ele>1534.20</ele>
	<time>2023-11-18T08:25:54.000Z</time>
</trkpt>
<trkpt lat="45.8934600" lon="9.8354520">
	<ele>1534.40</ele>
	<time>2023-11-18T08:25:55.000Z</time>
</trkpt>
<trkpt lat="45.8934620" lon="9.8354550">
	<ele>1534.60</ele>
	<time>2023-11-18T08:25:56.000Z</time>
</trkpt>
<trkpt lat="45.8934660" lon="9.8354570">
	<ele>1534.80</ele>
	<time>2023-11-18T08:25:57.000Z</time>
</trkpt>
<trkpt lat="45.8934700" lon="9.8354550">
	<ele>1535.00</ele>
	<time>2023-11-18T08:25:58.000Z</time>
</trkpt>
<trkpt lat="45.8934710" lon="9.8354480">
	<ele>1535.20</ele>
	<time>2023-11-18T08:25:59.000Z</time>
</trkpt>
<trkpt lat="45.8934740" lon="9.8354440">
	<ele>1535.40</ele>
	<time>2023-11-18T08:26:00.000Z</time>
</trkpt>
<trkpt lat="45.8934760" lon="9.8354300">
	<ele>1535.60</ele>
	<time>2023-11-18T08:26:01.000Z</time>
</trkpt>
<trkpt lat="45.8934810" lon="9.8354230">
	<ele>1535.60</ele>
	<time>2023-11-18T08:26:02.000Z</time>
</trkpt>
<trkpt lat="45.8934830" lon="9.8354160">
	<ele>1535.60</ele>
	<time>2023-11-18T08:26:03.000Z</time>
</trkpt>
<trkpt lat="45.8934850" lon="9.8354120">
	<ele>1535.80</ele>
	<time>2023-11-18T08:26:04.000Z</time>
</trkpt>
<trkpt lat="45.8934870" lon="9.8354130">
	<ele>1536.00</ele>
	<time>2023-11-18T08:26:05.000Z</time>
</trkpt>
<trkpt lat="45.8934920" lon="9.8354110">
	<ele>1536.20</ele>
	<time>2023-11-18T08:26:06.000Z</time>
</trkpt>
<trkpt lat="45.8934950" lon="9.8354070">
	<ele>1536.20</ele>
	<time>2023-11-18T08:26:07.000Z</time>
</trkpt>
<trkpt lat="45.8934980" lon="9.8353970">
	<ele>1536.60</ele>
	<time>2023-11-18T08:26:08.000Z</time>
</trkpt>
<trkpt lat="45.8935010" lon="9.8353930">
	<ele>1536.80</ele>
	<time>2023-11-18T08:26:09.000Z</time>
</trkpt>
<trkpt lat="45.8935040" lon="9.8353890">
	<ele>1537.20</ele>
	<time>2023-11-18T08:26:10.000Z</time>
</trkpt>
<trkpt lat="45.8935070" lon="9.8353900">
	<ele>1537.20</ele>
	<time>2023-11-18T08:26:11.000Z</time>
</trkpt>
<trkpt lat="45.8935100" lon="9.8353940">
	<ele>1537.40</ele>
	<time>2023-11-18T08:26:12.000Z</time>
</trkpt>
<trkpt lat="45.8935130" lon="9.8353970">
	<ele>1537.60</ele>
	<time>2023-11-18T08:26:13.000Z</time>
</trkpt>
<trkpt lat="45.8935180" lon="9.8353960">
	<ele>1537.80</ele>
	<time>2023-11-18T08:26:14.000Z</time>
</trkpt>
<trkpt lat="45.8935230" lon="9.8353950">
	<ele>1537.80</ele>
	<time>2023-11-18T08:26:15.000Z</time>
</trkpt>
<trkpt lat="45.8935300" lon="9.8353910">
	<ele>1538.00</ele>
	<time>2023-11-18T08:26:16.000Z</time>
</trkpt>
<trkpt lat="45.8935360" lon="9.8353840">
	<ele>1538.20</ele>
	<time>2023-11-18T08:26:17.000Z</time>
</trkpt>
<trkpt lat="45.8935420" lon="9.8353730">
	<ele>1538.20</ele>
	<time>2023-11-18T08:26:18.000Z</time>
</trkpt>
<trkpt lat="45.8935460" lon="9.8353670">
	<ele>1538.40</ele>
	<time>2023-11-18T08:26:19.000Z</time>
</trkpt>
<trkpt lat="45.8935470" lon="9.8353610">
	<ele>1538.80</ele>
	<time>2023-11-18T08:26:20.000Z</time>
</trkpt>
<trkpt lat="45.8935480" lon="9.8353550">
	<ele>1539.00</ele>
	<time>2023-11-18T08:26:21.000Z</time>
</trkpt>
<trkpt lat="45.8935500" lon="9.8353490">
	<ele>1539.20</ele>
	<time>2023-11-18T08:26:22.000Z</time>
</trkpt>
<trkpt lat="45.8935540" lon="9.8353410">
	<ele>1539.40</ele>
	<time>2023-11-18T08:26:23.000Z</time>
</trkpt>
<trkpt lat="45.8935590" lon="9.8353360">
	<ele>1539.40</ele>
	<time>2023-11-18T08:26:24.000Z</time>
</trkpt>
<trkpt lat="45.8935650" lon="9.8353330">
	<ele>1539.40</ele>
	<time>2023-11-18T08:26:25.000Z</time>
</trkpt>
<trkpt lat="45.8935710" lon="9.8353280">
	<ele>1539.40</ele>
	<time>2023-11-18T08:26:26.000Z</time>
</trkpt>
<trkpt lat="45.8935770" lon="9.8353240">
	<ele>1539.60</ele>
	<time>2023-11-18T08:26:27.000Z</time>
</trkpt>
<trkpt lat="45.8935820" lon="9.8353200">
	<ele>1539.80</ele>
	<time>2023-11-18T08:26:28.000Z</time>
</trkpt>
<trkpt lat="45.8935850" lon="9.8353160">
	<ele>1540.00</ele>
	<time>2023-11-18T08:26:29.000Z</time>
</trkpt>
<trkpt lat="45.8935880" lon="9.8353100">
	<ele>1540.20</ele>
	<time>2023-11-18T08:26:30.000Z</time>
</trkpt>
<trkpt lat="45.8935950" lon="9.8353030">
	<ele>1540.20</ele>
	<time>2023-11-18T08:26:31.000Z</time>
</trkpt>
<trkpt lat="45.8936000" lon="9.8352950">
	<ele>1540.40</ele>
	<time>2023-11-18T08:26:32.000Z</time>
</trkpt>
<trkpt lat="45.8936030" lon="9.8352900">
	<ele>1540.60</ele>
	<time>2023-11-18T08:26:33.000Z</time>
</trkpt>
<trkpt lat="45.8936060" lon="9.8352880">
	<ele>1540.60</ele>
	<time>2023-11-18T08:26:34.000Z</time>
</trkpt>
<trkpt lat="45.8936100" lon="9.8352880">
	<ele>1540.60</ele>
	<time>2023-11-18T08:26:35.000Z</time>
</trkpt>
<trkpt lat="45.8936150" lon="9.8352940">
	<ele>1540.80</ele>
	<time>2023-11-18T08:26:36.000Z</time>
</trkpt>
<trkpt lat="45.8936200" lon="9.8353000">
	<ele>1541.00</ele>
	<time>2023-11-18T08:26:37.000Z</time>
</trkpt>
<trkpt lat="45.8936250" lon="9.8353020">
	<ele>1541.20</ele>
	<time>2023-11-18T08:26:38.000Z</time>
</trkpt>
<trkpt lat="45.8936290" lon="9.8353030">
	<ele>1541.20</ele>
	<time>2023-11-18T08:26:39.000Z</time>
</trkpt>
<trkpt lat="45.8936340" lon="9.8353030">
	<ele>1541.40</ele>
	<time>2023-11-18T08:26:40.000Z</time>
</trkpt>
<trkpt lat="45.8936380" lon="9.8353020">
	<ele>1541.40</ele>
	<time>2023-11-18T08:26:41.000Z</time>
</trkpt>
<trkpt lat="45.8936410" lon="9.8352990">
	<ele>1541.60</ele>
	<time>2023-11-18T08:26:42.000Z</time>
</trkpt>
<trkpt lat="45.8936420" lon="9.8352970">
	<ele>1541.80</ele>
	<time>2023-11-18T08:26:43.000Z</time>
</trkpt>
<trkpt lat="45.8936400" lon="9.8352960">
	<ele>1542.20</ele>
	<time>2023-11-18T08:26:44.000Z</time>
</trkpt>
<trkpt lat="45.8936380" lon="9.8352960">
	<ele>1542.20</ele>
	<time>2023-11-18T08:26:45.000Z</time>
</trkpt>
<trkpt lat="45.8936380" lon="9.8352960">
	<ele>1542.20</ele>
	<time>2023-11-18T08:26:46.000Z</time>
</trkpt>
<trkpt lat="45.8936380" lon="9.8352950">
	<ele>1542.20</ele>
	<time>2023-11-18T08:26:47.000Z</time>
</trkpt>
<trkpt lat="45.8936390" lon="9.8352940">
	<ele>1542.20</ele>
	<time>2023-11-18T08:26:48.000Z</time>
</trkpt>
<trkpt lat="45.8936380" lon="9.8352950">
	<ele>1542.20</ele>
	<time>2023-11-18T08:26:49.000Z</time>
</trkpt>
<trkpt lat="45.8936380" lon="9.8352950">
	<ele>1542.20</ele>
	<time>2023-11-18T08:26:50.000Z</time>
</trkpt>
<trkpt lat="45.8936380" lon="9.8352950">
	<ele>1542.20</ele>
	<time>2023-11-18T08:26:51.000Z</time>
</trkpt>
<trkpt lat="45.8936380" lon="9.8352950">
	<ele>1542.40</ele>
	<time>2023-11-18T08:26:52.000Z</time>
</trkpt>
<trkpt lat="45.8936380" lon="9.8352950">
	<ele>1542.60</ele>
	<time>2023-11-18T08:26:53.000Z</time>
</trkpt>
<trkpt lat="45.8936380" lon="9.8352950">
	<ele>1542.60</ele>
	<time>2023-11-18T08:26:54.000Z</time>
</trkpt>
<trkpt lat="45.8936380" lon="9.8352950">
	<ele>1542.80</ele>
	<time>2023-11-18T08:26:55.000Z</time>
</trkpt>
<trkpt lat="45.8936380" lon="9.8352950">
	<ele>1542.60</ele>
	<time>2023-11-18T08:26:56.000Z</time>
</trkpt>
<trkpt lat="45.8936380" lon="9.8352950">
	<ele>1542.60</ele>
	<time>2023-11-18T08:26:57.000Z</time>
</trkpt>
<trkpt lat="45.8936380" lon="9.8352950">
	<ele>1542.60</ele>
	<time>2023-11-18T08:26:58.000Z</time>
</trkpt>
<trkpt lat="45.8936380" lon="9.8352960">
	<ele>1542.60</ele>
	<time>2023-11-18T08:26:59.000Z</time>
</trkpt>
<trkpt lat="45.8936380" lon="9.8352960">
	<ele>1542.60</ele>
	<time>2023-11-18T08:27:00.000Z</time>
</trkpt>
<trkpt lat="45.8936390" lon="9.8352960">
	<ele>1542.60</ele>
	<time>2023-11-18T08:27:01.000Z</time>
</trkpt>
<trkpt lat="45.8936390" lon="9.8352960">
	<ele>1542.60</ele>
	<time>2023-11-18T08:27:02.000Z</time>
</trkpt>
<trkpt lat="45.8936390" lon="9.8352960">
	<ele>1542.80</ele>
	<time>2023-11-18T08:27:03.000Z</time>
</trkpt>
<trkpt lat="45.8936400" lon="9.8352960">
	<ele>1543.20</ele>
	<time>2023-11-18T08:27:04.000Z</time>
</trkpt>
<trkpt lat="45.8936400" lon="9.8352960">
	<ele>1543.20</ele>
	<time>2023-11-18T08:27:05.000Z</time>
</trkpt>
<trkpt lat="45.8936400" lon="9.8352960">
	<ele>1543.40</ele>
	<time>2023-11-18T08:27:06.000Z</time>
</trkpt>
<trkpt lat="45.8936400" lon="9.8352960">
	<ele>1543.60</ele>
	<time>2023-11-18T08:27:07.000Z</time>
</trkpt>
<trkpt lat="45.8936400" lon="9.8352960">
	<ele>1543.80</ele>
	<time>2023-11-18T08:27:08.000Z</time>
</trkpt>
<trkpt lat="45.8936410" lon="9.8352960">
	<ele>1544.00</ele>
	<time>2023-11-18T08:27:09.000Z</time>
</trkpt>
<trkpt lat="45.8936410" lon="9.8352960">
	<ele>1544.20</ele>
	<time>2023-11-18T08:27:10.000Z</time>
</trkpt>
<trkpt lat="45.8936410" lon="9.8352960">
	<ele>1544.20</ele>
	<time>2023-11-18T08:27:11.000Z</time>
</trkpt>
<trkpt lat="45.8936420" lon="9.8352960">
	<ele>1544.40</ele>
	<time>2023-11-18T08:27:12.000Z</time>
</trkpt>
<trkpt lat="45.8936420" lon="9.8352950">
	<ele>1544.80</ele>
	<time>2023-11-18T08:27:13.000Z</time>
</trkpt>
<trkpt lat="45.8936440" lon="9.8352950">
	<ele>1545.20</ele>
	<time>2023-11-18T08:27:14.000Z</time>
</trkpt>
<trkpt lat="45.8936510" lon="9.8352940">
	<ele>1545.40</ele>
	<time>2023-11-18T08:27:15.000Z</time>
</trkpt>
<trkpt lat="45.8936560" lon="9.8352920">
	<ele>1545.60</ele>
	<time>2023-11-18T08:27:16.000Z</time>
</trkpt>
<trkpt lat="45.8936590" lon="9.8352920">
	<ele>1545.80</ele>
	<time>2023-11-18T08:27:17.000Z</time>
</trkpt>
<trkpt lat="45.8936630" lon="9.8352910">
	<ele>1545.80</ele>
	<time>2023-11-18T08:27:18.000Z</time>
</trkpt>
<trkpt lat="45.8936680" lon="9.8352870">
	<ele>1546.20</ele>
	<time>2023-11-18T08:27:19.000Z</time>
</trkpt>
<trkpt lat="45.8936710" lon="9.8352830">
	<ele>1546.40</ele>
	<time>2023-11-18T08:27:20.000Z</time>
</trkpt>
<trkpt lat="45.8936740" lon="9.8352800">
	<ele>1546.60</ele>
	<time>2023-11-18T08:27:21.000Z</time>
</trkpt>
<trkpt lat="45.8936780" lon="9.8352790">
	<ele>1546.80</ele>
	<time>2023-11-18T08:27:22.000Z</time>
</trkpt>
<trkpt lat="45.8936820" lon="9.8352790">
	<ele>1547.00</ele>
	<time>2023-11-18T08:27:23.000Z</time>
</trkpt>
<trkpt lat="45.8936860" lon="9.8352780">
	<ele>1547.20</ele>
	<time>2023-11-18T08:27:24.000Z</time>
</trkpt>
<trkpt lat="45.8936890" lon="9.8352780">
	<ele>1547.40</ele>
	<time>2023-11-18T08:27:25.000Z</time>
</trkpt>
<trkpt lat="45.8936940" lon="9.8352740">
	<ele>1547.40</ele>
	<time>2023-11-18T08:27:26.000Z</time>
</trkpt>
<trkpt lat="45.8936980" lon="9.8352740">
	<ele>1547.60</ele>
	<time>2023-11-18T08:27:27.000Z</time>
</trkpt>
<trkpt lat="45.8937010" lon="9.8352720">
	<ele>1547.60</ele>
	<time>2023-11-18T08:27:28.000Z</time>
</trkpt>
<trkpt lat="45.8937050" lon="9.8352720">
	<ele>1547.80</ele>
	<time>2023-11-18T08:27:29.000Z</time>
</trkpt>
<trkpt lat="45.8937090" lon="9.8352700">
	<ele>1548.20</ele>
	<time>2023-11-18T08:27:30.000Z</time>
</trkpt>
<trkpt lat="45.8937120" lon="9.8352690">
	<ele>1548.60</ele>
	<time>2023-11-18T08:27:31.000Z</time>
</trkpt>
<trkpt lat="45.8937170" lon="9.8352660">
	<ele>1548.80</ele>
	<time>2023-11-18T08:27:32.000Z</time>
</trkpt>
<trkpt lat="45.8937210" lon="9.8352620">
	<ele>1549.00</ele>
	<time>2023-11-18T08:27:33.000Z</time>
</trkpt>
<trkpt lat="45.8937270" lon="9.8352570">
	<ele>1549.20</ele>
	<time>2023-11-18T08:27:34.000Z</time>
</trkpt>
<trkpt lat="45.8937330" lon="9.8352550">
	<ele>1549.40</ele>
	<time>2023-11-18T08:27:35.000Z</time>
</trkpt>
<trkpt lat="45.8937370" lon="9.8352540">
	<ele>1549.40</ele>
	<time>2023-11-18T08:27:36.000Z</time>
</trkpt>
<trkpt lat="45.8937400" lon="9.8352530">
	<ele>1549.60</ele>
	<time>2023-11-18T08:27:37.000Z</time>
</trkpt>
<trkpt lat="45.8937440" lon="9.8352510">
	<ele>1549.60</ele>
	<time>2023-11-18T08:27:38.000Z</time>
</trkpt>
<trkpt lat="45.8937470" lon="9.8352500">
	<ele>1549.80</ele>
	<time>2023-11-18T08:27:39.000Z</time>
</trkpt>
<trkpt lat="45.8937500" lon="9.8352490">
	<ele>1550.00</ele>
	<time>2023-11-18T08:27:40.000Z</time>
</trkpt>
<trkpt lat="45.8937520" lon="9.8352490">
	<ele>1550.00</ele>
	<time>2023-11-18T08:27:41.000Z</time>
</trkpt>
<trkpt lat="45.8937550" lon="9.8352490">
	<ele>1550.20</ele>
	<time>2023-11-18T08:27:42.000Z</time>
</trkpt>
<trkpt lat="45.8937600" lon="9.8352490">
	<ele>1550.20</ele>
	<time>2023-11-18T08:27:43.000Z</time>
</trkpt>
<trkpt lat="45.8937660" lon="9.8352480">
	<ele>1550.20</ele>
	<time>2023-11-18T08:27:44.000Z</time>
</trkpt>
<trkpt lat="45.8937710" lon="9.8352470">
	<ele>1550.40</ele>
	<time>2023-11-18T08:27:45.000Z</time>
</trkpt>
<trkpt lat="45.8937770" lon="9.8352450">
	<ele>1550.40</ele>
	<time>2023-11-18T08:27:46.000Z</time>
</trkpt>
<trkpt lat="45.8937810" lon="9.8352390">
	<ele>1550.40</ele>
	<time>2023-11-18T08:27:47.000Z</time>
</trkpt>
<trkpt lat="45.8937850" lon="9.8352310">
	<ele>1550.40</ele>
	<time>2023-11-18T08:27:48.000Z</time>
</trkpt>
<trkpt lat="45.8937890" lon="9.8352240">
	<ele>1550.40</ele>
	<time>2023-11-18T08:27:49.000Z</time>
</trkpt>
<trkpt lat="45.8937920" lon="9.8352180">
	<ele>1550.40</ele>
	<time>2023-11-18T08:27:50.000Z</time>
</trkpt>
<trkpt lat="45.8937960" lon="9.8352140">
	<ele>1550.40</ele>
	<time>2023-11-18T08:27:51.000Z</time>
</trkpt>
<trkpt lat="45.8937980" lon="9.8352110">
	<ele>1550.40</ele>
	<time>2023-11-18T08:27:52.000Z</time>
</trkpt>
<trkpt lat="45.8938040" lon="9.8352080">
	<ele>1550.40</ele>
	<time>2023-11-18T08:27:53.000Z</time>
</trkpt>
<trkpt lat="45.8938100" lon="9.8352030">
	<ele>1550.40</ele>
	<time>2023-11-18T08:27:54.000Z</time>
</trkpt>
<trkpt lat="45.8938150" lon="9.8352000">
	<ele>1550.40</ele>
	<time>2023-11-18T08:27:55.000Z</time>
</trkpt>
<trkpt lat="45.8938170" lon="9.8351980">
	<ele>1550.40</ele>
	<time>2023-11-18T08:27:56.000Z</time>
</trkpt>
<trkpt lat="45.8938180" lon="9.8351970">
	<ele>1550.40</ele>
	<time>2023-11-18T08:27:57.000Z</time>
</trkpt>
<trkpt lat="45.8938190" lon="9.8351970">
	<ele>1550.40</ele>
	<time>2023-11-18T08:27:58.000Z</time>
</trkpt>
<trkpt lat="45.8938200" lon="9.8351960">
	<ele>1550.40</ele>
	<time>2023-11-18T08:27:59.000Z</time>
</trkpt>
<trkpt lat="45.8938200" lon="9.8351960">
	<ele>1550.40</ele>
	<time>2023-11-18T08:28:00.000Z</time>
</trkpt>
<trkpt lat="45.8938210" lon="9.8351960">
	<ele>1550.40</ele>
	<time>2023-11-18T08:28:01.000Z</time>
</trkpt>
<trkpt lat="45.8938210" lon="9.8351960">
	<ele>1550.40</ele>
	<time>2023-11-18T08:28:02.000Z</time>
</trkpt>
<trkpt lat="45.8938210" lon="9.8351960">
	<ele>1550.60</ele>
	<time>2023-11-18T08:28:03.000Z</time>
</trkpt>
<trkpt lat="45.8938210" lon="9.8351960">
	<ele>1550.60</ele>
	<time>2023-11-18T08:28:04.000Z</time>
</trkpt>
<trkpt lat="45.8938210" lon="9.8351960">
	<ele>1550.60</ele>
	<time>2023-11-18T08:28:05.000Z</time>
</trkpt>
<trkpt lat="45.8938220" lon="9.8351950">
	<ele>1550.60</ele>
	<time>2023-11-18T08:28:06.000Z</time>
</trkpt>
<trkpt lat="45.8938220" lon="9.8351950">
	<ele>1550.60</ele>
	<time>2023-11-18T08:28:07.000Z</time>
</trkpt>
<trkpt lat="45.8938220" lon="9.8351950">
	<ele>1550.60</ele>
	<time>2023-11-18T08:28:08.000Z</time>
</trkpt>
<trkpt lat="45.8938220" lon="9.8351940">
	<ele>1550.80</ele>
	<time>2023-11-18T08:28:09.000Z</time>
</trkpt>
<trkpt lat="45.8938220" lon="9.8351940">
	<ele>1550.80</ele>
	<time>2023-11-18T08:28:10.000Z</time>
</trkpt>
<trkpt lat="45.8938230" lon="9.8351930">
	<ele>1550.80</ele>
	<time>2023-11-18T08:28:11.000Z</time>
</trkpt>
<trkpt lat="45.8938230" lon="9.8351930">
	<ele>1550.80</ele>
	<time>2023-11-18T08:28:12.000Z</time>
</trkpt>
<trkpt lat="45.8938230" lon="9.8351920">
	<ele>1550.80</ele>
	<time>2023-11-18T08:28:13.000Z</time>
</trkpt>
<trkpt lat="45.8938230" lon="9.8351920">
	<ele>1550.80</ele>
	<time>2023-11-18T08:28:14.000Z</time>
</trkpt>
<trkpt lat="45.8938240" lon="9.8351920">
	<ele>1550.80</ele>
	<time>2023-11-18T08:28:15.000Z</time>
</trkpt>
<trkpt lat="45.8938240" lon="9.8351920">
	<ele>1550.60</ele>
	<time>2023-11-18T08:28:16.000Z</time>
</trkpt>
<trkpt lat="45.8938240" lon="9.8351910">
	<ele>1550.80</ele>
	<time>2023-11-18T08:28:17.000Z</time>
</trkpt>
<trkpt lat="45.8938240" lon="9.8351900">
	<ele>1551.00</ele>
	<time>2023-11-18T08:28:18.000Z</time>
</trkpt>
<trkpt lat="45.8938250" lon="9.8351890">
	<ele>1551.00</ele>
	<time>2023-11-18T08:28:19.000Z</time>
</trkpt>
<trkpt lat="45.8938250" lon="9.8351890">
	<ele>1551.20</ele>
	<time>2023-11-18T08:28:20.000Z</time>
</trkpt>
<trkpt lat="45.8938260" lon="9.8351880">
	<ele>1551.60</ele>
	<time>2023-11-18T08:28:21.000Z</time>
</trkpt>
<trkpt lat="45.8938260" lon="9.8351880">
	<ele>1551.80</ele>
	<time>2023-11-18T08:28:22.000Z</time>
</trkpt>
<trkpt lat="45.8938260" lon="9.8351870">
	<ele>1551.80</ele>
	<time>2023-11-18T08:28:23.000Z</time>
</trkpt>
<trkpt lat="45.8938270" lon="9.8351870">
	<ele>1552.00</ele>
	<time>2023-11-18T08:28:24.000Z</time>
</trkpt>
<trkpt lat="45.8938270" lon="9.8351870">
	<ele>1552.00</ele>
	<time>2023-11-18T08:28:25.000Z</time>
</trkpt>
<trkpt lat="45.8938270" lon="9.8351860">
	<ele>1552.00</ele>
	<time>2023-11-18T08:28:26.000Z</time>
</trkpt>
<trkpt lat="45.8938270" lon="9.8351860">
	<ele>1552.40</ele>
	<time>2023-11-18T08:28:27.000Z</time>
</trkpt>
<trkpt lat="45.8938280" lon="9.8351860">
	<ele>1552.60</ele>
	<time>2023-11-18T08:28:28.000Z</time>
</trkpt>
<trkpt lat="45.8938280" lon="9.8351850">
	<ele>1552.80</ele>
	<time>2023-11-18T08:28:29.000Z</time>
</trkpt>
<trkpt lat="45.8938290" lon="9.8351850">
	<ele>1553.00</ele>
	<time>2023-11-18T08:28:30.000Z</time>
</trkpt>
<trkpt lat="45.8938290" lon="9.8351850">
	<ele>1553.00</ele>
	<time>2023-11-18T08:28:31.000Z</time>
</trkpt>
<trkpt lat="45.8938360" lon="9.8351740">
	<ele>1553.00</ele>
	<time>2023-11-18T08:28:32.000Z</time>
</trkpt>
<trkpt lat="45.8938480" lon="9.8351570">
	<ele>1553.20</ele>
	<time>2023-11-18T08:28:33.000Z</time>
</trkpt>
<trkpt lat="45.8938580" lon="9.8351400">
	<ele>1553.40</ele>
	<time>2023-11-18T08:28:34.000Z</time>
</trkpt>
<trkpt lat="45.8938700" lon="9.8351240">
	<ele>1553.60</ele>
	<time>2023-11-18T08:28:35.000Z</time>
</trkpt>
<trkpt lat="45.8938830" lon="9.8351090">
	<ele>1553.80</ele>
	<time>2023-11-18T08:28:36.000Z</time>
</trkpt>
<trkpt lat="45.8938950" lon="9.8350920">
	<ele>1553.80</ele>
	<time>2023-11-18T08:28:37.000Z</time>
</trkpt>
<trkpt lat="45.8939070" lon="9.8350730">
	<ele>1554.00</ele>
	<time>2023-11-18T08:28:38.000Z</time>
</trkpt>
<trkpt lat="45.8939180" lon="9.8350530">
	<ele>1554.00</ele>
	<time>2023-11-18T08:28:39.000Z</time>
</trkpt>
<trkpt lat="45.8939310" lon="9.8350310">
	<ele>1554.20</ele>
	<time>2023-11-18T08:28:40.000Z</time>
</trkpt>
<trkpt lat="45.8939410" lon="9.8350080">
	<ele>1554.40</ele>
	<time>2023-11-18T08:28:41.000Z</time>
</trkpt>
<trkpt lat="45.8939480" lon="9.8349980">
	<ele>1554.40</ele>
	<time>2023-11-18T08:28:42.000Z</time>
</trkpt>
<trkpt lat="45.8939560" lon="9.8349910">
	<ele>1554.60</ele>
	<time>2023-11-18T08:28:43.000Z</time>
</trkpt>
<trkpt lat="45.8939610" lon="9.8349830">
	<ele>1554.80</ele>
	<time>2023-11-18T08:28:44.000Z</time>
</trkpt>
<trkpt lat="45.8939660" lon="9.8349760">
	<ele>1555.00</ele>
	<time>2023-11-18T08:28:45.000Z</time>
</trkpt>
<trkpt lat="45.8939720" lon="9.8349690">
	<ele>1555.00</ele>
	<time>2023-11-18T08:28:46.000Z</time>
</trkpt>
<trkpt lat="45.8939760" lon="9.8349630">
	<ele>1555.20</ele>
	<time>2023-11-18T08:28:47.000Z</time>
</trkpt>
<trkpt lat="45.8939820" lon="9.8349560">
	<ele>1555.20</ele>
	<time>2023-11-18T08:28:48.000Z</time>
</trkpt>
<trkpt lat="45.8939890" lon="9.8349480">
	<ele>1555.40</ele>
	<time>2023-11-18T08:28:49.000Z</time>
</trkpt>
<trkpt lat="45.8939950" lon="9.8349420">
	<ele>1555.40</ele>
	<time>2023-11-18T08:28:50.000Z</time>
</trkpt>
<trkpt lat="45.8939990" lon="9.8349350">
	<ele>1555.60</ele>
	<time>2023-11-18T08:28:51.000Z</time>
</trkpt>
<trkpt lat="45.8940040" lon="9.8349270">
	<ele>1555.80</ele>
	<time>2023-11-18T08:28:52.000Z</time>
</trkpt>
<trkpt lat="45.8940100" lon="9.8349210">
	<ele>1556.00</ele>
	<time>2023-11-18T08:28:53.000Z</time>
</trkpt>
<trkpt lat="45.8940150" lon="9.8349130">
	<ele>1556.20</ele>
	<time>2023-11-18T08:28:54.000Z</time>
</trkpt>
<trkpt lat="45.8940220" lon="9.8349080">
	<ele>1556.20</ele>
	<time>2023-11-18T08:28:55.000Z</time>
</trkpt>
<trkpt lat="45.8940290" lon="9.8349030">
	<ele>1556.40</ele>
	<time>2023-11-18T08:28:56.000Z</time>
</trkpt>
<trkpt lat="45.8940330" lon="9.8348940">
	<ele>1556.60</ele>
	<time>2023-11-18T08:28:57.000Z</time>
</trkpt>
<trkpt lat="45.8940370" lon="9.8348860">
	<ele>1556.80</ele>
	<time>2023-11-18T08:28:58.000Z</time>
</trkpt>
<trkpt lat="45.8940410" lon="9.8348770">
	<ele>1557.00</ele>
	<time>2023-11-18T08:28:59.000Z</time>
</trkpt>
<trkpt lat="45.8940440" lon="9.8348720">
	<ele>1557.00</ele>
	<time>2023-11-18T08:29:00.000Z</time>
</trkpt>
<trkpt lat="45.8940470" lon="9.8348660">
	<ele>1557.20</ele>
	<time>2023-11-18T08:29:01.000Z</time>
</trkpt>
<trkpt lat="45.8940530" lon="9.8348610">
	<ele>1557.20</ele>
	<time>2023-11-18T08:29:02.000Z</time>
</trkpt>
<trkpt lat="45.8940570" lon="9.8348530">
	<ele>1557.40</ele>
	<time>2023-11-18T08:29:03.000Z</time>
</trkpt>
<trkpt lat="45.8940600" lon="9.8348470">
	<ele>1557.40</ele>
	<time>2023-11-18T08:29:04.000Z</time>
</trkpt>
<trkpt lat="45.8940660" lon="9.8348410">
	<ele>1557.40</ele>
	<time>2023-11-18T08:29:05.000Z</time>
</trkpt>
<trkpt lat="45.8940690" lon="9.8348340">
	<ele>1557.60</ele>
	<time>2023-11-18T08:29:06.000Z</time>
</trkpt>
<trkpt lat="45.8940710" lon="9.8348290">
	<ele>1557.80</ele>
	<time>2023-11-18T08:29:07.000Z</time>
</trkpt>
<trkpt lat="45.8940790" lon="9.8348260">
	<ele>1557.80</ele>
	<time>2023-11-18T08:29:08.000Z</time>
</trkpt>
<trkpt lat="45.8940860" lon="9.8348300">
	<ele>1557.80</ele>
	<time>2023-11-18T08:29:09.000Z</time>
</trkpt>
<trkpt lat="45.8940930" lon="9.8348310">
	<ele>1558.00</ele>
	<time>2023-11-18T08:29:10.000Z</time>
</trkpt>
<trkpt lat="45.8940980" lon="9.8348300">
	<ele>1558.20</ele>
	<time>2023-11-18T08:29:11.000Z</time>
</trkpt>
<trkpt lat="45.8941050" lon="9.8348290">
	<ele>1558.40</ele>
	<time>2023-11-18T08:29:12.000Z</time>
</trkpt>
<trkpt lat="45.8941140" lon="9.8348280">
	<ele>1558.60</ele>
	<time>2023-11-18T08:29:13.000Z</time>
</trkpt>
<trkpt lat="45.8941170" lon="9.8348270">
	<ele>1558.80</ele>
	<time>2023-11-18T08:29:14.000Z</time>
</trkpt>
<trkpt lat="45.8941190" lon="9.8348260">
	<ele>1558.80</ele>
	<time>2023-11-18T08:29:15.000Z</time>
</trkpt>
<trkpt lat="45.8941200" lon="9.8348240">
	<ele>1559.00</ele>
	<time>2023-11-18T08:29:16.000Z</time>
</trkpt>
<trkpt lat="45.8941200" lon="9.8348230">
	<ele>1559.00</ele>
	<time>2023-11-18T08:29:17.000Z</time>
</trkpt>
<trkpt lat="45.8941200" lon="9.8348230">
	<ele>1559.00</ele>
	<time>2023-11-18T08:29:18.000Z</time>
</trkpt>
<trkpt lat="45.8941200" lon="9.8348230">
	<ele>1559.00</ele>
	<time>2023-11-18T08:29:19.000Z</time>
</trkpt>
<trkpt lat="45.8941200" lon="9.8348230">
	<ele>1559.00</ele>
	<time>2023-11-18T08:29:20.000Z</time>
</trkpt>
<trkpt lat="45.8941200" lon="9.8348240">
	<ele>1559.00</ele>
	<time>2023-11-18T08:29:21.000Z</time>
</trkpt>
<trkpt lat="45.8941200" lon="9.8348240">
	<ele>1559.20</ele>
	<time>2023-11-18T08:29:22.000Z</time>
</trkpt>
<trkpt lat="45.8941200" lon="9.8348230">
	<ele>1559.40</ele>
	<time>2023-11-18T08:29:23.000Z</time>
</trkpt>
<trkpt lat="45.8941210" lon="9.8348230">
	<ele>1559.40</ele>
	<time>2023-11-18T08:29:24.000Z</time>
</trkpt>
<trkpt lat="45.8941210" lon="9.8348230">
	<ele>1559.40</ele>
	<time>2023-11-18T08:29:25.000Z</time>
</trkpt>
<trkpt lat="45.8941210" lon="9.8348230">
	<ele>1559.40</ele>
	<time>2023-11-18T08:29:26.000Z</time>
</trkpt>
<trkpt lat="45.8941210" lon="9.8348230">
	<ele>1559.20</ele>
	<time>2023-11-18T08:29:27.000Z</time>
</trkpt>
<trkpt lat="45.8941210" lon="9.8348230">
	<ele>1559.20</ele>
	<time>2023-11-18T08:29:28.000Z</time>
</trkpt>
<trkpt lat="45.8941210" lon="9.8348230">
	<ele>1559.00</ele>
	<time>2023-11-18T08:29:29.000Z</time>
</trkpt>
<trkpt lat="45.8941210" lon="9.8348230">
	<ele>1559.00</ele>
	<time>2023-11-18T08:29:30.000Z</time>
</trkpt>
<trkpt lat="45.8941210" lon="9.8348230">
	<ele>1559.00</ele>
	<time>2023-11-18T08:29:31.000Z</time>
</trkpt>
<trkpt lat="45.8941210" lon="9.8348230">
	<ele>1559.00</ele>
	<time>2023-11-18T08:29:32.000Z</time>
</trkpt>
<trkpt lat="45.8941210" lon="9.8348230">
	<ele>1558.80</ele>
	<time>2023-11-18T08:29:33.000Z</time>
</trkpt>
<trkpt lat="45.8941210" lon="9.8348230">
	<ele>1558.80</ele>
	<time>2023-11-18T08:29:34.000Z</time>
</trkpt>
<trkpt lat="45.8941210" lon="9.8348230">
	<ele>1558.80</ele>
	<time>2023-11-18T08:29:35.000Z</time>
</trkpt>
<trkpt lat="45.8941210" lon="9.8348230">
	<ele>1558.80</ele>
	<time>2023-11-18T08:29:36.000Z</time>
</trkpt>
<trkpt lat="45.8941210" lon="9.8348230">
	<ele>1558.80</ele>
	<time>2023-11-18T08:29:37.000Z</time>
</trkpt>
<trkpt lat="45.8941210" lon="9.8348230">
	<ele>1558.80</ele>
	<time>2023-11-18T08:29:38.000Z</time>
</trkpt>
<trkpt lat="45.8941210" lon="9.8348230">
	<ele>1558.80</ele>
	<time>2023-11-18T08:29:39.000Z</time>
</trkpt>
<trkpt lat="45.8941210" lon="9.8348230">
	<ele>1558.80</ele>
	<time>2023-11-18T08:29:40.000Z</time>
</trkpt>
<trkpt lat="45.8941210" lon="9.8348220">
	<ele>1558.80</ele>
	<time>2023-11-18T08:29:41.000Z</time>
</trkpt>
<trkpt lat="45.8941230" lon="9.8348120">
	<ele>1558.80</ele>
	<time>2023-11-18T08:29:42.000Z</time>
</trkpt>
<trkpt lat="45.8941310" lon="9.8347880">
	<ele>1558.80</ele>
	<time>2023-11-18T08:29:43.000Z</time>
</trkpt>
<trkpt lat="45.8941380" lon="9.8347640">
	<ele>1558.80</ele>
	<time>2023-11-18T08:29:44.000Z</time>
</trkpt>
<trkpt lat="45.8941430" lon="9.8347390">
	<ele>1558.80</ele>
	<time>2023-11-18T08:29:45.000Z</time>
</trkpt>
<trkpt lat="45.8941480" lon="9.8347130">
	<ele>1558.80</ele>
	<time>2023-11-18T08:29:46.000Z</time>
</trkpt>
<trkpt lat="45.8941550" lon="9.8346880">
	<ele>1558.80</ele>
	<time>2023-11-18T08:29:47.000Z</time>
</trkpt>
<trkpt lat="45.8941580" lon="9.8346640">
	<ele>1558.80</ele>
	<time>2023-11-18T08:29:48.000Z</time>
</trkpt>
<trkpt lat="45.8941590" lon="9.8346380">
	<ele>1558.80</ele>
	<time>2023-11-18T08:29:49.000Z</time>
</trkpt>
<trkpt lat="45.8941620" lon="9.8346110">
	<ele>1559.00</ele>
	<time>2023-11-18T08:29:50.000Z</time>
</trkpt>
<trkpt lat="45.8941630" lon="9.8345830">
	<ele>1559.00</ele>
	<time>2023-11-18T08:29:51.000Z</time>
</trkpt>
<trkpt lat="45.8941590" lon="9.8345680">
	<ele>1559.00</ele>
	<time>2023-11-18T08:29:52.000Z</time>
</trkpt>
<trkpt lat="45.8941560" lon="9.8345530">
	<ele>1559.20</ele>
	<time>2023-11-18T08:29:53.000Z</time>
</trkpt>
<trkpt lat="45.8941490" lon="9.8345390">
	<ele>1559.20</ele>
	<time>2023-11-18T08:29:54.000Z</time>
</trkpt>
<trkpt lat="45.8941450" lon="9.8345280">
	<ele>1559.20</ele>
	<time>2023-11-18T08:29:55.000Z</time>
</trkpt>
<trkpt lat="45.8941410" lon="9.8345170">
	<ele>1559.20</ele>
	<time>2023-11-18T08:29:56.000Z</time>
</trkpt>
<trkpt lat="45.8941410" lon="9.8345090">
	<ele>1559.20</ele>
	<time>2023-11-18T08:29:57.000Z</time>
</trkpt>
<trkpt lat="45.8941450" lon="9.8344990">
	<ele>1559.20</ele>
	<time>2023-11-18T08:29:58.000Z</time>
</trkpt>
<trkpt lat="45.8941510" lon="9.8344910">
	<ele>1559.20</ele>
	<time>2023-11-18T08:29:59.000Z</time>
</trkpt>
<trkpt lat="45.8941560" lon="9.8344820">
	<ele>1559.20</ele>
	<time>2023-11-18T08:30:00.000Z</time>
</trkpt>
<trkpt lat="45.8941600" lon="9.8344750">
	<ele>1559.40</ele>
	<time>2023-11-18T08:30:01.000Z</time>
</trkpt>
<trkpt lat="45.8941680" lon="9.8344660">
	<ele>1559.60</ele>
	<time>2023-11-18T08:30:02.000Z</time>
</trkpt>
<trkpt lat="45.8941750" lon="9.8344610">
	<ele>1559.80</ele>
	<time>2023-11-18T08:30:03.000Z</time>
</trkpt>
<trkpt lat="45.8941800" lon="9.8344560">
	<ele>1560.00</ele>
	<time>2023-11-18T08:30:04.000Z</time>
</trkpt>
<trkpt lat="45.8941840" lon="9.8344520">
	<ele>1560.20</ele>
	<time>2023-11-18T08:30:05.000Z</time>
</trkpt>
<trkpt lat="45.8941900" lon="9.8344450">
	<ele>1560.20</ele>
	<time>2023-11-18T08:30:06.000Z</time>
</trkpt>
<trkpt lat="45.8941980" lon="9.8344390">
	<ele>1560.40</ele>
	<time>2023-11-18T08:30:07.000Z</time>
</trkpt>
<trkpt lat="45.8942000" lon="9.8344340">
	<ele>1560.60</ele>
	<time>2023-11-18T08:30:08.000Z</time>
</trkpt>
<trkpt lat="45.8942050" lon="9.8344250">
	<ele>1560.80</ele>
	<time>2023-11-18T08:30:09.000Z</time>
</trkpt>
<trkpt lat="45.8942120" lon="9.8344180">
	<ele>1561.00</ele>
	<time>2023-11-18T08:30:10.000Z</time>
</trkpt>
<trkpt lat="45.8942180" lon="9.8344070">
	<ele>1561.20</ele>
	<time>2023-11-18T08:30:11.000Z</time>
</trkpt>
<trkpt lat="45.8942220" lon="9.8343960">
	<ele>1561.40</ele>
	<time>2023-11-18T08:30:12.000Z</time>
</trkpt>
<trkpt lat="45.8942260" lon="9.8343870">
	<ele>1561.60</ele>
	<time>2023-11-18T08:30:13.000Z</time>
</trkpt>
<trkpt lat="45.8942260" lon="9.8343730">
	<ele>1561.60</ele>
	<time>2023-11-18T08:30:14.000Z</time>
</trkpt>
<trkpt lat="45.8942290" lon="9.8343640">
	<ele>1561.80</ele>
	<time>2023-11-18T08:30:15.000Z</time>
</trkpt>
<trkpt lat="45.8942330" lon="9.8343530">
	<ele>1561.80</ele>
	<time>2023-11-18T08:30:16.000Z</time>
</trkpt>
<trkpt lat="45.8942350" lon="9.8343450">
	<ele>1562.00</ele>
	<time>2023-11-18T08:30:17.000Z</time>
</trkpt>
<trkpt lat="45.8942350" lon="9.8343370">
	<ele>1562.00</ele>
	<time>2023-11-18T08:30:18.000Z</time>
</trkpt>
<trkpt lat="45.8942370" lon="9.8343270">
	<ele>1562.20</ele>
	<time>2023-11-18T08:30:19.000Z</time>
</trkpt>
<trkpt lat="45.8942400" lon="9.8343150">
	<ele>1562.40</ele>
	<time>2023-11-18T08:30:20.000Z</time>
</trkpt>
<trkpt lat="45.8942420" lon="9.8343030">
	<ele>1562.60</ele>
	<time>2023-11-18T08:30:21.000Z</time>
</trkpt>
<trkpt lat="45.8942460" lon="9.8342950">
	<ele>1562.80</ele>
	<time>2023-11-18T08:30:22.000Z</time>
</trkpt>
<trkpt lat="45.8942480" lon="9.8342840">
	<ele>1562.80</ele>
	<time>2023-11-18T08:30:23.000Z</time>
</trkpt>
<trkpt lat="45.8942510" lon="9.8342730">
	<ele>1563.00</ele>
	<time>2023-11-18T08:30:24.000Z</time>
</trkpt>
<trkpt lat="45.8942540" lon="9.8342640">
	<ele>1563.00</ele>
	<time>2023-11-18T08:30:25.000Z</time>
</trkpt>
<trkpt lat="45.8942600" lon="9.8342580">
	<ele>1563.20</ele>
	<time>2023-11-18T08:30:26.000Z</time>
</trkpt>
<trkpt lat="45.8942650" lon="9.8342510">
	<ele>1563.40</ele>
	<time>2023-11-18T08:30:27.000Z</time>
</trkpt>
<trkpt lat="45.8942710" lon="9.8342440">
	<ele>1563.40</ele>
	<time>2023-11-18T08:30:28.000Z</time>
</trkpt>
<trkpt lat="45.8942760" lon="9.8342350">
	<ele>1563.60</ele>
	<time>2023-11-18T08:30:29.000Z</time>
</trkpt>
<trkpt lat="45.8942810" lon="9.8342240">
	<ele>1563.80</ele>
	<time>2023-11-18T08:30:30.000Z</time>
</trkpt>
<trkpt lat="45.8942820" lon="9.8342110">
	<ele>1564.20</ele>
	<time>2023-11-18T08:30:31.000Z</time>
</trkpt>
<trkpt lat="45.8942810" lon="9.8341990">
	<ele>1564.20</ele>
	<time>2023-11-18T08:30:32.000Z</time>
</trkpt>
<trkpt lat="45.8942790" lon="9.8341880">
	<ele>1564.40</ele>
	<time>2023-11-18T08:30:33.000Z</time>
</trkpt>
<trkpt lat="45.8942780" lon="9.8341770">
	<ele>1564.40</ele>
	<time>2023-11-18T08:30:34.000Z</time>
</trkpt>
<trkpt lat="45.8942800" lon="9.8341650">
	<ele>1564.60</ele>
	<time>2023-11-18T08:30:35.000Z</time>
</trkpt>
<trkpt lat="45.8942820" lon="9.8341530">
	<ele>1564.60</ele>
	<time>2023-11-18T08:30:36.000Z</time>
</trkpt>
<trkpt lat="45.8942790" lon="9.8341420">
	<ele>1564.80</ele>
	<time>2023-11-18T08:30:37.000Z</time>
</trkpt>
<trkpt lat="45.8942780" lon="9.8341340">
	<ele>1564.80</ele>
	<time>2023-11-18T08:30:38.000Z</time>
</trkpt>
<trkpt lat="45.8942790" lon="9.8341240">
	<ele>1565.00</ele>
	<time>2023-11-18T08:30:39.000Z</time>
</trkpt>
<trkpt lat="45.8942830" lon="9.8341160">
	<ele>1565.20</ele>
	<time>2023-11-18T08:30:40.000Z</time>
</trkpt>
<trkpt lat="45.8942910" lon="9.8341060">
	<ele>1565.40</ele>
	<time>2023-11-18T08:30:41.000Z</time>
</trkpt>
<trkpt lat="45.8942960" lon="9.8340970">
	<ele>1565.60</ele>
	<time>2023-11-18T08:30:42.000Z</time>
</trkpt>
<trkpt lat="45.8942980" lon="9.8340890">
	<ele>1565.80</ele>
	<time>2023-11-18T08:30:43.000Z</time>
</trkpt>
<trkpt lat="45.8943010" lon="9.8340770">
	<ele>1566.20</ele>
	<time>2023-11-18T08:30:44.000Z</time>
</trkpt>
<trkpt lat="45.8943040" lon="9.8340670">
	<ele>1566.20</ele>
	<time>2023-11-18T08:30:45.000Z</time>
</trkpt>
<trkpt lat="45.8943070" lon="9.8340610">
	<ele>1566.40</ele>
	<time>2023-11-18T08:30:46.000Z</time>
</trkpt>
<trkpt lat="45.8943100" lon="9.8340560">
	<ele>1566.40</ele>
	<time>2023-11-18T08:30:47.000Z</time>
</trkpt>
<trkpt lat="45.8943130" lon="9.8340490">
	<ele>1566.60</ele>
	<time>2023-11-18T08:30:48.000Z</time>
</trkpt>
<trkpt lat="45.8943170" lon="9.8340450">
	<ele>1566.80</ele>
	<time>2023-11-18T08:30:49.000Z</time>
</trkpt>
<trkpt lat="45.8943220" lon="9.8340420">
	<ele>1567.00</ele>
	<time>2023-11-18T08:30:50.000Z</time>
</trkpt>
<trkpt lat="45.8943260" lon="9.8340330">
	<ele>1567.20</ele>
	<time>2023-11-18T08:30:51.000Z</time>
</trkpt>
<trkpt lat="45.8943310" lon="9.8340240">
	<ele>1567.20</ele>
	<time>2023-11-18T08:30:52.000Z</time>
</trkpt>
<trkpt lat="45.8943350" lon="9.8340150">
	<ele>1567.40</ele>
	<time>2023-11-18T08:30:53.000Z</time>
</trkpt>
<trkpt lat="45.8943390" lon="9.8340050">
	<ele>1567.60</ele>
	<time>2023-11-18T08:30:54.000Z</time>
</trkpt>
<trkpt lat="45.8943440" lon="9.8339970">
	<ele>1567.80</ele>
	<time>2023-11-18T08:30:55.000Z</time>
</trkpt>
<trkpt lat="45.8943460" lon="9.8339860">
	<ele>1567.80</ele>
	<time>2023-11-18T08:30:56.000Z</time>
</trkpt>
<trkpt lat="45.8943500" lon="9.8339730">
	<ele>1568.00</ele>
	<time>2023-11-18T08:30:57.000Z</time>
</trkpt>
<trkpt lat="45.8943510" lon="9.8339620">
	<ele>1568.20</ele>
	<time>2023-11-18T08:30:58.000Z</time>
</trkpt>
<trkpt lat="45.8943540" lon="9.8339540">
	<ele>1568.40</ele>
	<time>2023-11-18T08:30:59.000Z</time>
</trkpt>
<trkpt lat="45.8943570" lon="9.8339430">
	<ele>1568.40</ele>
	<time>2023-11-18T08:31:00.000Z</time>
</trkpt>
<trkpt lat="45.8943580" lon="9.8339350">
	<ele>1568.60</ele>
	<time>2023-11-18T08:31:01.000Z</time>
</trkpt>
<trkpt lat="45.8943620" lon="9.8339250">
	<ele>1568.80</ele>
	<time>2023-11-18T08:31:02.000Z</time>
</trkpt>
<trkpt lat="45.8943650" lon="9.8339190">
	<ele>1569.00</ele>
	<time>2023-11-18T08:31:03.000Z</time>
</trkpt>
<trkpt lat="45.8943650" lon="9.8339090">
	<ele>1569.00</ele>
	<time>2023-11-18T08:31:04.000Z</time>
</trkpt>
<trkpt lat="45.8943690" lon="9.8339000">
	<ele>1569.40</ele>
	<time>2023-11-18T08:31:05.000Z</time>
</trkpt>
<trkpt lat="45.8943730" lon="9.8338910">
	<ele>1569.60</ele>
	<time>2023-11-18T08:31:06.000Z</time>
</trkpt>
<trkpt lat="45.8943740" lon="9.8338830">
	<ele>1569.60</ele>
	<time>2023-11-18T08:31:07.000Z</time>
</trkpt>
<trkpt lat="45.8943720" lon="9.8338730">
	<ele>1569.80</ele>
	<time>2023-11-18T08:31:08.000Z</time>
</trkpt>
<trkpt lat="45.8943730" lon="9.8338630">
	<ele>1570.20</ele>
	<time>2023-11-18T08:31:09.000Z</time>
</trkpt>
<trkpt lat="45.8943750" lon="9.8338550">
	<ele>1570.20</ele>
	<time>2023-11-18T08:31:10.000Z</time>
</trkpt>
<trkpt lat="45.8943810" lon="9.8338490">
	<ele>1570.40</ele>
	<time>2023-11-18T08:31:11.000Z</time>
</trkpt>
<trkpt lat="45.8943850" lon="9.8338400">
	<ele>1570.60</ele>
	<time>2023-11-18T08:31:12.000Z</time>
</trkpt>
<trkpt lat="45.8943880" lon="9.8338300">
	<ele>1570.80</ele>
	<time>2023-11-18T08:31:13.000Z</time>
</trkpt>
<trkpt lat="45.8943920" lon="9.8338220">
	<ele>1571.00</ele>
	<time>2023-11-18T08:31:14.000Z</time>
</trkpt>
<trkpt lat="45.8943980" lon="9.8338170">
	<ele>1571.20</ele>
	<time>2023-11-18T08:31:15.000Z</time>
</trkpt>
<trkpt lat="45.8944010" lon="9.8338110">
	<ele>1571.40</ele>
	<time>2023-11-18T08:31:16.000Z</time>
</trkpt>
<trkpt lat="45.8944040" lon="9.8338060">
	<ele>1571.60</ele>
	<time>2023-11-18T08:31:17.000Z</time>
</trkpt>
<trkpt lat="45.8944100" lon="9.8337990">
	<ele>1571.60</ele>
	<time>2023-11-18T08:31:18.000Z</time>
</trkpt>
<trkpt lat="45.8944160" lon="9.8337930">
	<ele>1572.00</ele>
	<time>2023-11-18T08:31:19.000Z</time>
</trkpt>
<trkpt lat="45.8944190" lon="9.8337870">
	<ele>1572.20</ele>
	<time>2023-11-18T08:31:20.000Z</time>
</trkpt>
<trkpt lat="45.8944230" lon="9.8337840">
	<ele>1572.40</ele>
	<time>2023-11-18T08:31:21.000Z</time>
</trkpt>
<trkpt lat="45.8944280" lon="9.8337770">
	<ele>1572.60</ele>
	<time>2023-11-18T08:31:22.000Z</time>
</trkpt>
<trkpt lat="45.8944330" lon="9.8337690">
	<ele>1572.60</ele>
	<time>2023-11-18T08:31:23.000Z</time>
</trkpt>
<trkpt lat="45.8944390" lon="9.8337630">
	<ele>1572.80</ele>
	<time>2023-11-18T08:31:24.000Z</time>
</trkpt>
<trkpt lat="45.8944460" lon="9.8337570">
	<ele>1572.80</ele>
	<time>2023-11-18T08:31:25.000Z</time>
</trkpt>
<trkpt lat="45.8944530" lon="9.8337480">
	<ele>1573.00</ele>
	<time>2023-11-18T08:31:26.000Z</time>
</trkpt>
<trkpt lat="45.8944610" lon="9.8337420">
	<ele>1573.00</ele>
	<time>2023-11-18T08:31:27.000Z</time>
</trkpt>
<trkpt lat="45.8944650" lon="9.8337350">
	<ele>1573.40</ele>
	<time>2023-11-18T08:31:28.000Z</time>
</trkpt>
<trkpt lat="45.8944670" lon="9.8337230">
	<ele>1573.60</ele>
	<time>2023-11-18T08:31:29.000Z</time>
</trkpt>
<trkpt lat="45.8944690" lon="9.8337150">
	<ele>1573.80</ele>
	<time>2023-11-18T08:31:30.000Z</time>
</trkpt>
<trkpt lat="45.8944720" lon="9.8337070">
	<ele>1574.00</ele>
	<time>2023-11-18T08:31:31.000Z</time>
</trkpt>
<trkpt lat="45.8944760" lon="9.8337010">
	<ele>1574.00</ele>
	<time>2023-11-18T08:31:32.000Z</time>
</trkpt>
<trkpt lat="45.8944780" lon="9.8336960">
	<ele>1574.20</ele>
	<time>2023-11-18T08:31:33.000Z</time>
</trkpt>
<trkpt lat="45.8944800" lon="9.8336930">
	<ele>1574.40</ele>
	<time>2023-11-18T08:31:34.000Z</time>
</trkpt>
<trkpt lat="45.8944800" lon="9.8336900">
	<ele>1574.40</ele>
	<time>2023-11-18T08:31:35.000Z</time>
</trkpt>
<trkpt lat="45.8944810" lon="9.8336870">
	<ele>1574.60</ele>
	<time>2023-11-18T08:31:36.000Z</time>
</trkpt>
<trkpt lat="45.8944800" lon="9.8336880">
	<ele>1574.60</ele>
	<time>2023-11-18T08:31:37.000Z</time>
</trkpt>
<trkpt lat="45.8944800" lon="9.8336870">
	<ele>1574.60</ele>
	<time>2023-11-18T08:31:38.000Z</time>
</trkpt>
<trkpt lat="45.8944820" lon="9.8336870">
	<ele>1574.80</ele>
	<time>2023-11-18T08:31:39.000Z</time>
</trkpt>
<trkpt lat="45.8944820" lon="9.8336870">
	<ele>1574.80</ele>
	<time>2023-11-18T08:31:40.000Z</time>
</trkpt>
<trkpt lat="45.8944840" lon="9.8336870">
	<ele>1574.80</ele>
	<time>2023-11-18T08:31:41.000Z</time>
</trkpt>
<trkpt lat="45.8944870" lon="9.8336850">
	<ele>1574.60</ele>
	<time>2023-11-18T08:31:42.000Z</time>
</trkpt>
<trkpt lat="45.8944910" lon="9.8336810">
	<ele>1574.60</ele>
	<time>2023-11-18T08:31:43.000Z</time>
</trkpt>
<trkpt lat="45.8944930" lon="9.8336790">
	<ele>1574.60</ele>
	<time>2023-11-18T08:31:44.000Z</time>
</trkpt>
<trkpt lat="45.8944940" lon="9.8336790">
	<ele>1574.60</ele>
	<time>2023-11-18T08:31:45.000Z</time>
</trkpt>
<trkpt lat="45.8944940" lon="9.8336790">
	<ele>1574.60</ele>
	<time>2023-11-18T08:31:46.000Z</time>
</trkpt>
<trkpt lat="45.8944940" lon="9.8336790">
	<ele>1574.60</ele>
	<time>2023-11-18T08:31:47.000Z</time>
</trkpt>
<trkpt lat="45.8944940" lon="9.8336790">
	<ele>1574.60</ele>
	<time>2023-11-18T08:31:48.000Z</time>
</trkpt>
<trkpt lat="45.8944940" lon="9.8336790">
	<ele>1574.80</ele>
	<time>2023-11-18T08:31:49.000Z</time>
</trkpt>
<trkpt lat="45.8944940" lon="9.8336790">
	<ele>1574.80</ele>
	<time>2023-11-18T08:31:50.000Z</time>
</trkpt>
<trkpt lat="45.8944940" lon="9.8336790">
	<ele>1574.60</ele>
	<time>2023-11-18T08:31:51.000Z</time>
</trkpt>
<trkpt lat="45.8944940" lon="9.8336790">
	<ele>1574.60</ele>
	<time>2023-11-18T08:31:52.000Z</time>
</trkpt>
<trkpt lat="45.8944940" lon="9.8336790">
	<ele>1574.60</ele>
	<time>2023-11-18T08:31:53.000Z</time>
</trkpt>
<trkpt lat="45.8944940" lon="9.8336790">
	<ele>1574.60</ele>
	<time>2023-11-18T08:31:54.000Z</time>
</trkpt>
<trkpt lat="45.8944940" lon="9.8336790">
	<ele>1574.60</ele>
	<time>2023-11-18T08:31:55.000Z</time>
</trkpt>
<trkpt lat="45.8944940" lon="9.8336790">
	<ele>1574.60</ele>
	<time>2023-11-18T08:31:56.000Z</time>
</trkpt>
<trkpt lat="45.8944940" lon="9.8336790">
	<ele>1574.80</ele>
	<time>2023-11-18T08:31:57.000Z</time>
</trkpt>
<trkpt lat="45.8944940" lon="9.8336790">
	<ele>1574.80</ele>
	<time>2023-11-18T08:31:58.000Z</time>
</trkpt>
<trkpt lat="45.8944940" lon="9.8336790">
	<ele>1575.00</ele>
	<time>2023-11-18T08:31:59.000Z</time>
</trkpt>
<trkpt lat="45.8944940" lon="9.8336790">
	<ele>1575.00</ele>
	<time>2023-11-18T08:32:00.000Z</time>
</trkpt>
<trkpt lat="45.8944960" lon="9.8336790">
	<ele>1575.00</ele>
	<time>2023-11-18T08:32:01.000Z</time>
</trkpt>
<trkpt lat="45.8944960" lon="9.8336790">
	<ele>1575.00</ele>
	<time>2023-11-18T08:32:02.000Z</time>
</trkpt>
<trkpt lat="45.8944970" lon="9.8336790">
	<ele>1575.00</ele>
	<time>2023-11-18T08:32:03.000Z</time>
</trkpt>
<trkpt lat="45.8944980" lon="9.8336790">
	<ele>1575.20</ele>
	<time>2023-11-18T08:32:04.000Z</time>
</trkpt>
<trkpt lat="45.8944980" lon="9.8336790">
	<ele>1575.20</ele>
	<time>2023-11-18T08:32:05.000Z</time>
</trkpt>
<trkpt lat="45.8944990" lon="9.8336790">
	<ele>1575.20</ele>
	<time>2023-11-18T08:32:06.000Z</time>
</trkpt>
<trkpt lat="45.8945000" lon="9.8336790">
	<ele>1575.20</ele>
	<time>2023-11-18T08:32:07.000Z</time>
</trkpt>
<trkpt lat="45.8945000" lon="9.8336790">
	<ele>1575.20</ele>
	<time>2023-11-18T08:32:08.000Z</time>
</trkpt>
<trkpt lat="45.8945010" lon="9.8336790">
	<ele>1575.20</ele>
	<time>2023-11-18T08:32:09.000Z</time>
</trkpt>
<trkpt lat="45.8945010" lon="9.8336790">
	<ele>1575.20</ele>
	<time>2023-11-18T08:32:10.000Z</time>
</trkpt>
<trkpt lat="45.8945010" lon="9.8336790">
	<ele>1575.00</ele>
	<time>2023-11-18T08:32:11.000Z</time>
</trkpt>
<trkpt lat="45.8945010" lon="9.8336790">
	<ele>1574.80</ele>
	<time>2023-11-18T08:32:12.000Z</time>
</trkpt>
<trkpt lat="45.8945010" lon="9.8336790">
	<ele>1574.80</ele>
	<time>2023-11-18T08:32:13.000Z</time>
</trkpt>
<trkpt lat="45.8945010" lon="9.8336790">
	<ele>1574.80</ele>
	<time>2023-11-18T08:32:14.000Z</time>
</trkpt>
<trkpt lat="45.8945010" lon="9.8336790">
	<ele>1574.80</ele>
	<time>2023-11-18T08:32:15.000Z</time>
</trkpt>
<trkpt lat="45.8945010" lon="9.8336790">
	<ele>1574.80</ele>
	<time>2023-11-18T08:32:16.000Z</time>
</trkpt>
<trkpt lat="45.8945010" lon="9.8336790">
	<ele>1575.00</ele>
	<time>2023-11-18T08:32:17.000Z</time>
</trkpt>
<trkpt lat="45.8945010" lon="9.8336790">
	<ele>1575.20</ele>
	<time>2023-11-18T08:32:18.000Z</time>
</trkpt>
<trkpt lat="45.8945010" lon="9.8336790">
	<ele>1575.40</ele>
	<time>2023-11-18T08:32:19.000Z</time>
</trkpt>
<trkpt lat="45.8945010" lon="9.8336800">
	<ele>1575.40</ele>
	<time>2023-11-18T08:32:20.000Z</time>
</trkpt>
<trkpt lat="45.8945010" lon="9.8336800">
	<ele>1575.40</ele>
	<time>2023-11-18T08:32:21.000Z</time>
</trkpt>
<trkpt lat="45.8945010" lon="9.8336810">
	<ele>1575.40</ele>
	<time>2023-11-18T08:32:22.000Z</time>
</trkpt>
<trkpt lat="45.8945010" lon="9.8336810">
	<ele>1575.20</ele>
	<time>2023-11-18T08:32:23.000Z</time>
</trkpt>
<trkpt lat="45.8945010" lon="9.8336820">
	<ele>1575.20</ele>
	<time>2023-11-18T08:32:24.000Z</time>
</trkpt>
<trkpt lat="45.8945010" lon="9.8336820">
	<ele>1575.20</ele>
	<time>2023-11-18T08:32:25.000Z</time>
</trkpt>
<trkpt lat="45.8945010" lon="9.8336810">
	<ele>1575.20</ele>
	<time>2023-11-18T08:32:26.000Z</time>
</trkpt>
<trkpt lat="45.8945010" lon="9.8336800">
	<ele>1575.40</ele>
	<time>2023-11-18T08:32:27.000Z</time>
</trkpt>
<trkpt lat="45.8945010" lon="9.8336800">
	<ele>1575.40</ele>
	<time>2023-11-18T08:32:28.000Z</time>
</trkpt>
<trkpt lat="45.8945010" lon="9.8336800">
	<ele>1575.60</ele>
	<time>2023-11-18T08:32:29.000Z</time>
</trkpt>
<trkpt lat="45.8945010" lon="9.8336790">
	<ele>1575.80</ele>
	<time>2023-11-18T08:32:30.000Z</time>
</trkpt>
<trkpt lat="45.8945010" lon="9.8336790">
	<ele>1575.80</ele>
	<time>2023-11-18T08:32:31.000Z</time>
</trkpt>
<trkpt lat="45.8945010" lon="9.8336790">
	<ele>1576.00</ele>
	<time>2023-11-18T08:32:32.000Z</time>
</trkpt>
<trkpt lat="45.8945010" lon="9.8336790">
	<ele>1576.40</ele>
	<time>2023-11-18T08:32:33.000Z</time>
</trkpt>
<trkpt lat="45.8945010" lon="9.8336790">
	<ele>1576.60</ele>
	<time>2023-11-18T08:32:34.000Z</time>
</trkpt>
<trkpt lat="45.8945010" lon="9.8336790">
	<ele>1576.60</ele>
	<time>2023-11-18T08:32:35.000Z</time>
</trkpt>
<trkpt lat="45.8945010" lon="9.8336790">
	<ele>1576.80</ele>
	<time>2023-11-18T08:32:36.000Z</time>
</trkpt>
<trkpt lat="45.8945010" lon="9.8336790">
	<ele>1576.80</ele>
	<time>2023-11-18T08:32:37.000Z</time>
</trkpt>
<trkpt lat="45.8945010" lon="9.8336790">
	<ele>1577.00</ele>
	<time>2023-11-18T08:32:38.000Z</time>
</trkpt>
<trkpt lat="45.8945010" lon="9.8336790">
	<ele>1577.00</ele>
	<time>2023-11-18T08:32:39.000Z</time>
</trkpt>
<trkpt lat="45.8945020" lon="9.8336760">
	<ele>1577.20</ele>
	<time>2023-11-18T08:32:40.000Z</time>
</trkpt>
<trkpt lat="45.8945020" lon="9.8336700">
	<ele>1577.40</ele>
	<time>2023-11-18T08:32:41.000Z</time>
</trkpt>
<trkpt lat="45.8945020" lon="9.8336630">
	<ele>1577.60</ele>
	<time>2023-11-18T08:32:42.000Z</time>
</trkpt>
<trkpt lat="45.8945040" lon="9.8336570">
	<ele>1577.80</ele>
	<time>2023-11-18T08:32:43.000Z</time>
</trkpt>
<trkpt lat="45.8945050" lon="9.8336520">
	<ele>1578.00</ele>
	<time>2023-11-18T08:32:44.000Z</time>
</trkpt>
<trkpt lat="45.8945060" lon="9.8336480">
	<ele>1578.00</ele>
	<time>2023-11-18T08:32:45.000Z</time>
</trkpt>
<trkpt lat="45.8945080" lon="9.8336460">
	<ele>1578.20</ele>
	<time>2023-11-18T08:32:46.000Z</time>
</trkpt>
<trkpt lat="45.8945120" lon="9.8336440">
	<ele>1578.40</ele>
	<time>2023-11-18T08:32:47.000Z</time>
</trkpt>
<trkpt lat="45.8945190" lon="9.8336350">
	<ele>1578.40</ele>
	<time>2023-11-18T08:32:48.000Z</time>
</trkpt>
<trkpt lat="45.8945300" lon="9.8336230">
	<ele>1578.80</ele>
	<time>2023-11-18T08:32:49.000Z</time>
</trkpt>
<trkpt lat="45.8945430" lon="9.8336110">
	<ele>1579.00</ele>
	<time>2023-11-18T08:32:50.000Z</time>
</trkpt>
<trkpt lat="45.8945590" lon="9.8335970">
	<ele>1579.20</ele>
	<time>2023-11-18T08:32:51.000Z</time>
</trkpt>
<trkpt lat="45.8945720" lon="9.8335810">
	<ele>1579.40</ele>
	<time>2023-11-18T08:32:52.000Z</time>
</trkpt>
<trkpt lat="45.8945840" lon="9.8335600">
	<ele>1579.60</ele>
	<time>2023-11-18T08:32:53.000Z</time>
</trkpt>
<trkpt lat="45.8945950" lon="9.8335430">
	<ele>1579.80</ele>
	<time>2023-11-18T08:32:54.000Z</time>
</trkpt>
<trkpt lat="45.8946080" lon="9.8335270">
	<ele>1580.00</ele>
	<time>2023-11-18T08:32:55.000Z</time>
</trkpt>
<trkpt lat="45.8946180" lon="9.8335120">
	<ele>1580.20</ele>
	<time>2023-11-18T08:32:56.000Z</time>
</trkpt>
<trkpt lat="45.8946290" lon="9.8334950">
	<ele>1580.40</ele>
	<time>2023-11-18T08:32:57.000Z</time>
</trkpt>
<trkpt lat="45.8946340" lon="9.8334870">
	<ele>1580.40</ele>
	<time>2023-11-18T08:32:58.000Z</time>
</trkpt>
<trkpt lat="45.8946380" lon="9.8334780">
	<ele>1580.60</ele>
	<time>2023-11-18T08:32:59.000Z</time>
</trkpt>
<trkpt lat="45.8946410" lon="9.8334690">
	<ele>1580.80</ele>
	<time>2023-11-18T08:33:00.000Z</time>
</trkpt>
<trkpt lat="45.8946430" lon="9.8334610">
	<ele>1581.00</ele>
	<time>2023-11-18T08:33:01.000Z</time>
</trkpt>
<trkpt lat="45.8946440" lon="9.8334570">
	<ele>1581.20</ele>
	<time>2023-11-18T08:33:02.000Z</time>
</trkpt>
<trkpt lat="45.8946470" lon="9.8334510">
	<ele>1581.40</ele>
	<time>2023-11-18T08:33:03.000Z</time>
</trkpt>
<trkpt lat="45.8946510" lon="9.8334450">
	<ele>1581.40</ele>
	<time>2023-11-18T08:33:04.000Z</time>
</trkpt>
<trkpt lat="45.8946560" lon="9.8334390">
	<ele>1581.60</ele>
	<time>2023-11-18T08:33:05.000Z</time>
</trkpt>
<trkpt lat="45.8946590" lon="9.8334350">
	<ele>1581.60</ele>
	<time>2023-11-18T08:33:06.000Z</time>
</trkpt>
<trkpt lat="45.8946620" lon="9.8334320">
	<ele>1582.00</ele>
	<time>2023-11-18T08:33:07.000Z</time>
</trkpt>
<trkpt lat="45.8946640" lon="9.8334280">
	<ele>1582.20</ele>
	<time>2023-11-18T08:33:08.000Z</time>
</trkpt>
<trkpt lat="45.8946680" lon="9.8334260">
	<ele>1582.20</ele>
	<time>2023-11-18T08:33:09.000Z</time>
</trkpt>
<trkpt lat="45.8946740" lon="9.8334260">
	<ele>1582.40</ele>
	<time>2023-11-18T08:33:10.000Z</time>
</trkpt>
<trkpt lat="45.8946820" lon="9.8334250">
	<ele>1582.40</ele>
	<time>2023-11-18T08:33:11.000Z</time>
</trkpt>
<trkpt lat="45.8946900" lon="9.8334210">
	<ele>1582.60</ele>
	<time>2023-11-18T08:33:12.000Z</time>
</trkpt>
<trkpt lat="45.8946940" lon="9.8334160">
	<ele>1582.80</ele>
	<time>2023-11-18T08:33:13.000Z</time>
</trkpt>
<trkpt lat="45.8946970" lon="9.8334070">
	<ele>1583.00</ele>
	<time>2023-11-18T08:33:14.000Z</time>
</trkpt>
<trkpt lat="45.8946990" lon="9.8334030">
	<ele>1583.40</ele>
	<time>2023-11-18T08:33:15.000Z</time>
</trkpt>
<trkpt lat="45.8947010" lon="9.8333990">
	<ele>1583.60</ele>
	<time>2023-11-18T08:33:16.000Z</time>
</trkpt>
<trkpt lat="45.8947040" lon="9.8333950">
	<ele>1583.80</ele>
	<time>2023-11-18T08:33:17.000Z</time>
</trkpt>
<trkpt lat="45.8947070" lon="9.8333890">
	<ele>1584.00</ele>
	<time>2023-11-18T08:33:18.000Z</time>
</trkpt>
<trkpt lat="45.8947070" lon="9.8333830">
	<ele>1584.20</ele>
	<time>2023-11-18T08:33:19.000Z</time>
</trkpt>
<trkpt lat="45.8947100" lon="9.8333760">
	<ele>1584.20</ele>
	<time>2023-11-18T08:33:20.000Z</time>
</trkpt>
<trkpt lat="45.8947150" lon="9.8333660">
	<ele>1584.40</ele>
	<time>2023-11-18T08:33:21.000Z</time>
</trkpt>
<trkpt lat="45.8947180" lon="9.8333600">
	<ele>1584.40</ele>
	<time>2023-11-18T08:33:22.000Z</time>
</trkpt>
<trkpt lat="45.8947220" lon="9.8333550">
	<ele>1584.80</ele>
	<time>2023-11-18T08:33:23.000Z</time>
</trkpt>
<trkpt lat="45.8947230" lon="9.8333480">
	<ele>1585.20</ele>
	<time>2023-11-18T08:33:24.000Z</time>
</trkpt>
<trkpt lat="45.8947220" lon="9.8333450">
	<ele>1585.20</ele>
	<time>2023-11-18T08:33:25.000Z</time>
</trkpt>
<trkpt lat="45.8947220" lon="9.8333400">
	<ele>1585.40</ele>
	<time>2023-11-18T08:33:26.000Z</time>
</trkpt>
<trkpt lat="45.8947250" lon="9.8333330">
	<ele>1585.40</ele>
	<time>2023-11-18T08:33:27.000Z</time>
</trkpt>
<trkpt lat="45.8947310" lon="9.8333270">
	<ele>1585.40</ele>
	<time>2023-11-18T08:33:28.000Z</time>
</trkpt>
<trkpt lat="45.8947370" lon="9.8333200">
	<ele>1585.60</ele>
	<time>2023-11-18T08:33:29.000Z</time>
</trkpt>
<trkpt lat="45.8947410" lon="9.8333130">
	<ele>1585.60</ele>
	<time>2023-11-18T08:33:30.000Z</time>
</trkpt>
<trkpt lat="45.8947440" lon="9.8333050">
	<ele>1585.80</ele>
	<time>2023-11-18T08:33:31.000Z</time>
</trkpt>
<trkpt lat="45.8947460" lon="9.8332950">
	<ele>1586.00</ele>
	<time>2023-11-18T08:33:32.000Z</time>
</trkpt>
<trkpt lat="45.8947470" lon="9.8332850">
	<ele>1586.20</ele>
	<time>2023-11-18T08:33:33.000Z</time>
</trkpt>
<trkpt lat="45.8947490" lon="9.8332800">
	<ele>1586.20</ele>
	<time>2023-11-18T08:33:34.000Z</time>
</trkpt>
<trkpt lat="45.8947490" lon="9.8332760">
	<ele>1586.40</ele>
	<time>2023-11-18T08:33:35.000Z</time>
</trkpt>
<trkpt lat="45.8947520" lon="9.8332710">
	<ele>1586.60</ele>
	<time>2023-11-18T08:33:36.000Z</time>
</trkpt>
<trkpt lat="45.8947600" lon="9.8332710">
	<ele>1586.80</ele>
	<time>2023-11-18T08:33:37.000Z</time>
</trkpt>
<trkpt lat="45.8947680" lon="9.8332700">
	<ele>1586.80</ele>
	<time>2023-11-18T08:33:38.000Z</time>
</trkpt>
<trkpt lat="45.8947740" lon="9.8332630">
	<ele>1587.00</ele>
	<time>2023-11-18T08:33:39.000Z</time>
</trkpt>
<trkpt lat="45.8947770" lon="9.8332540">
	<ele>1587.00</ele>
	<time>2023-11-18T08:33:40.000Z</time>
</trkpt>
<trkpt lat="45.8947800" lon="9.8332460">
	<ele>1587.20</ele>
	<time>2023-11-18T08:33:41.000Z</time>
</trkpt>
<trkpt lat="45.8947840" lon="9.8332400">
	<ele>1587.40</ele>
	<time>2023-11-18T08:33:42.000Z</time>
</trkpt>
<trkpt lat="45.8947880" lon="9.8332340">
	<ele>1587.60</ele>
	<time>2023-11-18T08:33:43.000Z</time>
</trkpt>
<trkpt lat="45.8947930" lon="9.8332290">
	<ele>1587.60</ele>
	<time>2023-11-18T08:33:44.000Z</time>
</trkpt>
<trkpt lat="45.8947990" lon="9.8332240">
	<ele>1587.60</ele>
	<time>2023-11-18T08:33:45.000Z</time>
</trkpt>
<trkpt lat="45.8948020" lon="9.8332200">
	<ele>1587.80</ele>
	<time>2023-11-18T08:33:46.000Z</time>
</trkpt>
<trkpt lat="45.8948070" lon="9.8332180">
	<ele>1587.80</ele>
	<time>2023-11-18T08:33:47.000Z</time>
</trkpt>
<trkpt lat="45.8948120" lon="9.8332140">
	<ele>1588.20</ele>
	<time>2023-11-18T08:33:48.000Z</time>
</trkpt>
<trkpt lat="45.8948150" lon="9.8332090">
	<ele>1588.40</ele>
	<time>2023-11-18T08:33:49.000Z</time>
</trkpt>
<trkpt lat="45.8948200" lon="9.8332050">
	<ele>1588.60</ele>
	<time>2023-11-18T08:33:50.000Z</time>
</trkpt>
<trkpt lat="45.8948270" lon="9.8331980">
	<ele>1588.80</ele>
	<time>2023-11-18T08:33:51.000Z</time>
</trkpt>
<trkpt lat="45.8948330" lon="9.8331930">
	<ele>1589.00</ele>
	<time>2023-11-18T08:33:52.000Z</time>
</trkpt>
<trkpt lat="45.8948360" lon="9.8331870">
	<ele>1589.20</ele>
	<time>2023-11-18T08:33:53.000Z</time>
</trkpt>
<trkpt lat="45.8948410" lon="9.8331810">
	<ele>1589.40</ele>
	<time>2023-11-18T08:33:54.000Z</time>
</trkpt>
<trkpt lat="45.8948450" lon="9.8331760">
	<ele>1589.60</ele>
	<time>2023-11-18T08:33:55.000Z</time>
</trkpt>
<trkpt lat="45.8948490" lon="9.8331710">
	<ele>1589.60</ele>
	<time>2023-11-18T08:33:56.000Z</time>
</trkpt>
<trkpt lat="45.8948540" lon="9.8331660">
	<ele>1589.80</ele>
	<time>2023-11-18T08:33:57.000Z</time>
</trkpt>
<trkpt lat="45.8948600" lon="9.8331590">
	<ele>1589.80</ele>
	<time>2023-11-18T08:33:58.000Z</time>
</trkpt>
<trkpt lat="45.8948650" lon="9.8331510">
	<ele>1590.00</ele>
	<time>2023-11-18T08:33:59.000Z</time>
</trkpt>
<trkpt lat="45.8948690" lon="9.8331470">
	<ele>1590.00</ele>
	<time>2023-11-18T08:34:00.000Z</time>
</trkpt>
<trkpt lat="45.8948710" lon="9.8331420">
	<ele>1590.40</ele>
	<time>2023-11-18T08:34:01.000Z</time>
</trkpt>
<trkpt lat="45.8948720" lon="9.8331360">
	<ele>1590.60</ele>
	<time>2023-11-18T08:34:02.000Z</time>
</trkpt>
<trkpt lat="45.8948740" lon="9.8331280">
	<ele>1590.80</ele>
	<time>2023-11-18T08:34:03.000Z</time>
</trkpt>
<trkpt lat="45.8948780" lon="9.8331180">
	<ele>1591.00</ele>
	<time>2023-11-18T08:34:04.000Z</time>
</trkpt>
<trkpt lat="45.8948830" lon="9.8331060">
	<ele>1591.00</ele>
	<time>2023-11-18T08:34:05.000Z</time>
</trkpt>
<trkpt lat="45.8948860" lon="9.8330970">
	<ele>1591.20</ele>
	<time>2023-11-18T08:34:06.000Z</time>
</trkpt>
<trkpt lat="45.8948880" lon="9.8330880">
	<ele>1591.40</ele>
	<time>2023-11-18T08:34:07.000Z</time>
</trkpt>
<trkpt lat="45.8948920" lon="9.8330810">
	<ele>1591.60</ele>
	<time>2023-11-18T08:34:08.000Z</time>
</trkpt>
<trkpt lat="45.8948950" lon="9.8330750">
	<ele>1591.60</ele>
	<time>2023-11-18T08:34:09.000Z</time>
</trkpt>
<trkpt lat="45.8949000" lon="9.8330660">
	<ele>1591.80</ele>
	<time>2023-11-18T08:34:10.000Z</time>
</trkpt>
<trkpt lat="45.8949040" lon="9.8330560">
	<ele>1592.00</ele>
	<time>2023-11-18T08:34:11.000Z</time>
</trkpt>
<trkpt lat="45.8949100" lon="9.8330520">
	<ele>1592.20</ele>
	<time>2023-11-18T08:34:12.000Z</time>
</trkpt>
<trkpt lat="45.8949130" lon="9.8330450">
	<ele>1592.40</ele>
	<time>2023-11-18T08:34:13.000Z</time>
</trkpt>
<trkpt lat="45.8949160" lon="9.8330360">
	<ele>1592.60</ele>
	<time>2023-11-18T08:34:14.000Z</time>
</trkpt>
<trkpt lat="45.8949170" lon="9.8330260">
	<ele>1592.80</ele>
	<time>2023-11-18T08:34:15.000Z</time>
</trkpt>
<trkpt lat="45.8949160" lon="9.8330180">
	<ele>1592.80</ele>
	<time>2023-11-18T08:34:16.000Z</time>
</trkpt>
<trkpt lat="45.8949170" lon="9.8330120">
	<ele>1593.20</ele>
	<time>2023-11-18T08:34:17.000Z</time>
</trkpt>
<trkpt lat="45.8949200" lon="9.8330040">
	<ele>1593.20</ele>
	<time>2023-11-18T08:34:18.000Z</time>
</trkpt>
<trkpt lat="45.8949250" lon="9.8329950">
	<ele>1593.40</ele>
	<time>2023-11-18T08:34:19.000Z</time>
</trkpt>
<trkpt lat="45.8949290" lon="9.8329860">
	<ele>1593.40</ele>
	<time>2023-11-18T08:34:20.000Z</time>
</trkpt>
<trkpt lat="45.8949310" lon="9.8329790">
	<ele>1593.60</ele>
	<time>2023-11-18T08:34:21.000Z</time>
</trkpt>
<trkpt lat="45.8949360" lon="9.8329710">
	<ele>1594.00</ele>
	<time>2023-11-18T08:34:22.000Z</time>
</trkpt>
<trkpt lat="45.8949420" lon="9.8329640">
	<ele>1594.00</ele>
	<time>2023-11-18T08:34:23.000Z</time>
</trkpt>
<trkpt lat="45.8949450" lon="9.8329580">
	<ele>1594.20</ele>
	<time>2023-11-18T08:34:24.000Z</time>
</trkpt>
<trkpt lat="45.8949480" lon="9.8329500">
	<ele>1594.60</ele>
	<time>2023-11-18T08:34:25.000Z</time>
</trkpt>
<trkpt lat="45.8949510" lon="9.8329450">
	<ele>1594.60</ele>
	<time>2023-11-18T08:34:26.000Z</time>
</trkpt>
<trkpt lat="45.8949550" lon="9.8329400">
	<ele>1594.80</ele>
	<time>2023-11-18T08:34:27.000Z</time>
</trkpt>
<trkpt lat="45.8949590" lon="9.8329340">
	<ele>1595.00</ele>
	<time>2023-11-18T08:34:28.000Z</time>
</trkpt>
<trkpt lat="45.8949610" lon="9.8329290">
	<ele>1595.20</ele>
	<time>2023-11-18T08:34:29.000Z</time>
</trkpt>
<trkpt lat="45.8949640" lon="9.8329240">
	<ele>1595.20</ele>
	<time>2023-11-18T08:34:30.000Z</time>
</trkpt>
<trkpt lat="45.8949670" lon="9.8329180">
	<ele>1595.40</ele>
	<time>2023-11-18T08:34:31.000Z</time>
</trkpt>
<trkpt lat="45.8949700" lon="9.8329110">
	<ele>1595.40</ele>
	<time>2023-11-18T08:34:32.000Z</time>
</trkpt>
<trkpt lat="45.8949750" lon="9.8329030">
	<ele>1595.60</ele>
	<time>2023-11-18T08:34:33.000Z</time>
</trkpt>
<trkpt lat="45.8949790" lon="9.8328950">
	<ele>1595.80</ele>
	<time>2023-11-18T08:34:34.000Z</time>
</trkpt>
<trkpt lat="45.8949830" lon="9.8328880">
	<ele>1596.00</ele>
	<time>2023-11-18T08:34:35.000Z</time>
</trkpt>
<trkpt lat="45.8949860" lon="9.8328800">
	<ele>1596.20</ele>
	<time>2023-11-18T08:34:36.000Z</time>
</trkpt>
<trkpt lat="45.8949890" lon="9.8328690">
	<ele>1596.40</ele>
	<time>2023-11-18T08:34:37.000Z</time>
</trkpt>
<trkpt lat="45.8949910" lon="9.8328600">
	<ele>1596.60</ele>
	<time>2023-11-18T08:34:38.000Z</time>
</trkpt>
<trkpt lat="45.8949930" lon="9.8328550">
	<ele>1597.00</ele>
	<time>2023-11-18T08:34:39.000Z</time>
</trkpt>
<trkpt lat="45.8949960" lon="9.8328510">
	<ele>1597.00</ele>
	<time>2023-11-18T08:34:40.000Z</time>
</trkpt>
<trkpt lat="45.8950000" lon="9.8328480">
	<ele>1597.20</ele>
	<time>2023-11-18T08:34:41.000Z</time>
</trkpt>
<trkpt lat="45.8950030" lon="9.8328480">
	<ele>1597.60</ele>
	<time>2023-11-18T08:34:42.000Z</time>
</trkpt>
<trkpt lat="45.8950080" lon="9.8328460">
	<ele>1597.80</ele>
	<time>2023-11-18T08:34:43.000Z</time>
</trkpt>
<trkpt lat="45.8950120" lon="9.8328440">
	<ele>1598.00</ele>
	<time>2023-11-18T08:34:44.000Z</time>
</trkpt>
<trkpt lat="45.8950180" lon="9.8328460">
	<ele>1598.00</ele>
	<time>2023-11-18T08:34:45.000Z</time>
</trkpt>
<trkpt lat="45.8950210" lon="9.8328460">
	<ele>1598.20</ele>
	<time>2023-11-18T08:34:46.000Z</time>
</trkpt>
<trkpt lat="45.8950280" lon="9.8328440">
	<ele>1598.40</ele>
	<time>2023-11-18T08:34:47.000Z</time>
</trkpt>
<trkpt lat="45.8950330" lon="9.8328380">
	<ele>1598.60</ele>
	<time>2023-11-18T08:34:48.000Z</time>
</trkpt>
<trkpt lat="45.8950390" lon="9.8328340">
	<ele>1598.60</ele>
	<time>2023-11-18T08:34:49.000Z</time>
</trkpt>
<trkpt lat="45.8950420" lon="9.8328320">
	<ele>1599.00</ele>
	<time>2023-11-18T08:34:50.000Z</time>
</trkpt>
<trkpt lat="45.8950470" lon="9.8328270">
	<ele>1599.40</ele>
	<time>2023-11-18T08:34:51.000Z</time>
</trkpt>
<trkpt lat="45.8950520" lon="9.8328190">
	<ele>1599.80</ele>
	<time>2023-11-18T08:34:52.000Z</time>
</trkpt>
<trkpt lat="45.8950560" lon="9.8328120">
	<ele>1599.80</ele>
	<time>2023-11-18T08:34:53.000Z</time>
</trkpt>
<trkpt lat="45.8950560" lon="9.8328050">
	<ele>1600.00</ele>
	<time>2023-11-18T08:34:54.000Z</time>
</trkpt>
<trkpt lat="45.8950600" lon="9.8327970">
	<ele>1600.20</ele>
	<time>2023-11-18T08:34:55.000Z</time>
</trkpt>
<trkpt lat="45.8950610" lon="9.8327890">
	<ele>1600.40</ele>
	<time>2023-11-18T08:34:56.000Z</time>
</trkpt>
<trkpt lat="45.8950610" lon="9.8327830">
	<ele>1600.60</ele>
	<time>2023-11-18T08:34:57.000Z</time>
</trkpt>
<trkpt lat="45.8950610" lon="9.8327800">
	<ele>1600.80</ele>
	<time>2023-11-18T08:34:58.000Z</time>
</trkpt>
<trkpt lat="45.8950650" lon="9.8327750">
	<ele>1600.80</ele>
	<time>2023-11-18T08:34:59.000Z</time>
</trkpt>
<trkpt lat="45.8950680" lon="9.8327700">
	<ele>1601.00</ele>
	<time>2023-11-18T08:35:00.000Z</time>
</trkpt>
<trkpt lat="45.8950720" lon="9.8327670">
	<ele>1601.00</ele>
	<time>2023-11-18T08:35:01.000Z</time>
</trkpt>
<trkpt lat="45.8950780" lon="9.8327620">
	<ele>1601.20</ele>
	<time>2023-11-18T08:35:02.000Z</time>
</trkpt>
<trkpt lat="45.8950820" lon="9.8327580">
	<ele>1601.40</ele>
	<time>2023-11-18T08:35:03.000Z</time>
</trkpt>
<trkpt lat="45.8950860" lon="9.8327550">
	<ele>1601.40</ele>
	<time>2023-11-18T08:35:04.000Z</time>
</trkpt>
<trkpt lat="45.8950890" lon="9.8327500">
	<ele>1601.80</ele>
	<time>2023-11-18T08:35:05.000Z</time>
</trkpt>
<trkpt lat="45.8950930" lon="9.8327440">
	<ele>1602.00</ele>
	<time>2023-11-18T08:35:06.000Z</time>
</trkpt>
<trkpt lat="45.8950980" lon="9.8327420">
	<ele>1602.20</ele>
	<time>2023-11-18T08:35:07.000Z</time>
</trkpt>
<trkpt lat="45.8951030" lon="9.8327400">
	<ele>1602.40</ele>
	<time>2023-11-18T08:35:08.000Z</time>
</trkpt>
<trkpt lat="45.8951080" lon="9.8327360">
	<ele>1602.60</ele>
	<time>2023-11-18T08:35:09.000Z</time>
</trkpt>
<trkpt lat="45.8951110" lon="9.8327320">
	<ele>1602.80</ele>
	<time>2023-11-18T08:35:10.000Z</time>
</trkpt>
<trkpt lat="45.8951140" lon="9.8327290">
	<ele>1603.00</ele>
	<time>2023-11-18T08:35:11.000Z</time>
</trkpt>
<trkpt lat="45.8951190" lon="9.8327260">
	<ele>1603.20</ele>
	<time>2023-11-18T08:35:12.000Z</time>
</trkpt>
<trkpt lat="45.8951240" lon="9.8327240">
	<ele>1603.40</ele>
	<time>2023-11-18T08:35:13.000Z</time>
</trkpt>
<trkpt lat="45.8951270" lon="9.8327220">
	<ele>1603.60</ele>
	<time>2023-11-18T08:35:14.000Z</time>
</trkpt>
<trkpt lat="45.8951300" lon="9.8327200">
	<ele>1603.60</ele>
	<time>2023-11-18T08:35:15.000Z</time>
</trkpt>
<trkpt lat="45.8951350" lon="9.8327160">
	<ele>1603.60</ele>
	<time>2023-11-18T08:35:16.000Z</time>
</trkpt>
<trkpt lat="45.8951390" lon="9.8327080">
	<ele>1603.80</ele>
	<time>2023-11-18T08:35:17.000Z</time>
</trkpt>
<trkpt lat="45.8951400" lon="9.8327010">
	<ele>1604.00</ele>
	<time>2023-11-18T08:35:18.000Z</time>
</trkpt>
<trkpt lat="45.8951430" lon="9.8326950">
	<ele>1604.20</ele>
	<time>2023-11-18T08:35:19.000Z</time>
</trkpt>
<trkpt lat="45.8951450" lon="9.8326880">
	<ele>1604.60</ele>
	<time>2023-11-18T08:35:20.000Z</time>
</trkpt>
<trkpt lat="45.8951480" lon="9.8326830">
	<ele>1604.60</ele>
	<time>2023-11-18T08:35:21.000Z</time>
</trkpt>
<trkpt lat="45.8951500" lon="9.8326800">
	<ele>1605.00</ele>
	<time>2023-11-18T08:35:22.000Z</time>
</trkpt>
<trkpt lat="45.8951530" lon="9.8326780">
	<ele>1605.20</ele>
	<time>2023-11-18T08:35:23.000Z</time>
</trkpt>
<trkpt lat="45.8951560" lon="9.8326770">
	<ele>1605.20</ele>
	<time>2023-11-18T08:35:24.000Z</time>
</trkpt>
<trkpt lat="45.8951580" lon="9.8326720">
	<ele>1605.60</ele>
	<time>2023-11-18T08:35:25.000Z</time>
</trkpt>
<trkpt lat="45.8951590" lon="9.8326670">
	<ele>1605.60</ele>
	<time>2023-11-18T08:35:26.000Z</time>
</trkpt>
<trkpt lat="45.8951590" lon="9.8326630">
	<ele>1605.80</ele>
	<time>2023-11-18T08:35:27.000Z</time>
</trkpt>
<trkpt lat="45.8951610" lon="9.8326600">
	<ele>1606.20</ele>
	<time>2023-11-18T08:35:28.000Z</time>
</trkpt>
<trkpt lat="45.8951650" lon="9.8326580">
	<ele>1606.20</ele>
	<time>2023-11-18T08:35:29.000Z</time>
</trkpt>
<trkpt lat="45.8951690" lon="9.8326550">
	<ele>1606.40</ele>
	<time>2023-11-18T08:35:30.000Z</time>
</trkpt>
<trkpt lat="45.8951720" lon="9.8326510">
	<ele>1606.40</ele>
	<time>2023-11-18T08:35:31.000Z</time>
</trkpt>
<trkpt lat="45.8951750" lon="9.8326470">
	<ele>1606.60</ele>
	<time>2023-11-18T08:35:32.000Z</time>
</trkpt>
<trkpt lat="45.8951790" lon="9.8326450">
	<ele>1606.60</ele>
	<time>2023-11-18T08:35:33.000Z</time>
</trkpt>
<trkpt lat="45.8951820" lon="9.8326440">
	<ele>1606.80</ele>
	<time>2023-11-18T08:35:34.000Z</time>
</trkpt>
<trkpt lat="45.8951850" lon="9.8326430">
	<ele>1607.00</ele>
	<time>2023-11-18T08:35:35.000Z</time>
</trkpt>
<trkpt lat="45.8951880" lon="9.8326430">
	<ele>1607.20</ele>
	<time>2023-11-18T08:35:36.000Z</time>
</trkpt>
<trkpt lat="45.8951910" lon="9.8326430">
	<ele>1607.60</ele>
	<time>2023-11-18T08:35:37.000Z</time>
</trkpt>
<trkpt lat="45.8951970" lon="9.8326420">
	<ele>1607.80</ele>
	<time>2023-11-18T08:35:38.000Z</time>
</trkpt>
<trkpt lat="45.8952000" lon="9.8326400">
	<ele>1608.00</ele>
	<time>2023-11-18T08:35:39.000Z</time>
</trkpt>
<trkpt lat="45.8952030" lon="9.8326350">
	<ele>1608.00</ele>
	<time>2023-11-18T08:35:40.000Z</time>
</trkpt>
<trkpt lat="45.8952070" lon="9.8326280">
	<ele>1608.20</ele>
	<time>2023-11-18T08:35:41.000Z</time>
</trkpt>
<trkpt lat="45.8952090" lon="9.8326220">
	<ele>1608.40</ele>
	<time>2023-11-18T08:35:42.000Z</time>
</trkpt>
<trkpt lat="45.8952110" lon="9.8326180">
	<ele>1608.40</ele>
	<time>2023-11-18T08:35:43.000Z</time>
</trkpt>
<trkpt lat="45.8952150" lon="9.8326120">
	<ele>1608.60</ele>
	<time>2023-11-18T08:35:44.000Z</time>
</trkpt>
<trkpt lat="45.8952170" lon="9.8326060">
	<ele>1608.80</ele>
	<time>2023-11-18T08:35:45.000Z</time>
</trkpt>
<trkpt lat="45.8952220" lon="9.8325980">
	<ele>1609.00</ele>
	<time>2023-11-18T08:35:46.000Z</time>
</trkpt>
<trkpt lat="45.8952240" lon="9.8325880">
	<ele>1609.20</ele>
	<time>2023-11-18T08:35:47.000Z</time>
</trkpt>
<trkpt lat="45.8952250" lon="9.8325780">
	<ele>1609.40</ele>
	<time>2023-11-18T08:35:48.000Z</time>
</trkpt>
<trkpt lat="45.8952260" lon="9.8325710">
	<ele>1609.60</ele>
	<time>2023-11-18T08:35:49.000Z</time>
</trkpt>
<trkpt lat="45.8952250" lon="9.8325640">
	<ele>1609.80</ele>
	<time>2023-11-18T08:35:50.000Z</time>
</trkpt>
<trkpt lat="45.8952270" lon="9.8325560">
	<ele>1609.80</ele>
	<time>2023-11-18T08:35:51.000Z</time>
</trkpt>
<trkpt lat="45.8952290" lon="9.8325450">
	<ele>1610.00</ele>
	<time>2023-11-18T08:35:52.000Z</time>
</trkpt>
<trkpt lat="45.8952310" lon="9.8325390">
	<ele>1610.20</ele>
	<time>2023-11-18T08:35:53.000Z</time>
</trkpt>
<trkpt lat="45.8952300" lon="9.8325360">
	<ele>1610.40</ele>
	<time>2023-11-18T08:35:54.000Z</time>
</trkpt>
<trkpt lat="45.8952300" lon="9.8325340">
	<ele>1610.40</ele>
	<time>2023-11-18T08:35:55.000Z</time>
</trkpt>
<trkpt lat="45.8952310" lon="9.8325330">
	<ele>1610.40</ele>
	<time>2023-11-18T08:35:56.000Z</time>
</trkpt>
<trkpt lat="45.8952300" lon="9.8325300">
	<ele>1610.60</ele>
	<time>2023-11-18T08:35:57.000Z</time>
</trkpt>
<trkpt lat="45.8952290" lon="9.8325240">
	<ele>1610.60</ele>
	<time>2023-11-18T08:35:58.000Z</time>
</trkpt>
<trkpt lat="45.8952300" lon="9.8325160">
	<ele>1610.60</ele>
	<time>2023-11-18T08:35:59.000Z</time>
</trkpt>
<trkpt lat="45.8952280" lon="9.8325090">
	<ele>1610.60</ele>
	<time>2023-11-18T08:36:00.000Z</time>
</trkpt>
<trkpt lat="45.8952260" lon="9.8324990">
	<ele>1610.60</ele>
	<time>2023-11-18T08:36:01.000Z</time>
</trkpt>
<trkpt lat="45.8952210" lon="9.8324910">
	<ele>1610.80</ele>
	<time>2023-11-18T08:36:02.000Z</time>
</trkpt>
<trkpt lat="45.8952140" lon="9.8324840">
	<ele>1610.80</ele>
	<time>2023-11-18T08:36:03.000Z</time>
</trkpt>
<trkpt lat="45.8952070" lon="9.8324780">
	<ele>1610.80</ele>
	<time>2023-11-18T08:36:04.000Z</time>
</trkpt>
<trkpt lat="45.8951990" lon="9.8324700">
	<ele>1610.80</ele>
	<time>2023-11-18T08:36:05.000Z</time>
</trkpt>
<trkpt lat="45.8951930" lon="9.8324630">
	<ele>1611.00</ele>
	<time>2023-11-18T08:36:06.000Z</time>
</trkpt>
<trkpt lat="45.8951870" lon="9.8324570">
	<ele>1611.00</ele>
	<time>2023-11-18T08:36:07.000Z</time>
</trkpt>
<trkpt lat="45.8951810" lon="9.8324490">
	<ele>1611.20</ele>
	<time>2023-11-18T08:36:08.000Z</time>
</trkpt>
<trkpt lat="45.8951770" lon="9.8324430">
	<ele>1611.40</ele>
	<time>2023-11-18T08:36:09.000Z</time>
</trkpt>
<trkpt lat="45.8951720" lon="9.8324350">
	<ele>1611.40</ele>
	<time>2023-11-18T08:36:10.000Z</time>
</trkpt>
<trkpt lat="45.8951640" lon="9.8324280">
	<ele>1611.40</ele>
	<time>2023-11-18T08:36:11.000Z</time>
</trkpt>
<trkpt lat="45.8951580" lon="9.8324230">
	<ele>1611.60</ele>
	<time>2023-11-18T08:36:12.000Z</time>
</trkpt>
<trkpt lat="45.8951540" lon="9.8324200">
	<ele>1611.60</ele>
	<time>2023-11-18T08:36:13.000Z</time>
</trkpt>
<trkpt lat="45.8951530" lon="9.8324180">
	<ele>1611.60</ele>
	<time>2023-11-18T08:36:14.000Z</time>
</trkpt>
<trkpt lat="45.8951520" lon="9.8324170">
	<ele>1611.60</ele>
	<time>2023-11-18T08:36:15.000Z</time>
</trkpt>
<trkpt lat="45.8951510" lon="9.8324170">
	<ele>1611.80</ele>
	<time>2023-11-18T08:36:16.000Z</time>
</trkpt>
<trkpt lat="45.8951520" lon="9.8324170">
	<ele>1611.80</ele>
	<time>2023-11-18T08:36:17.000Z</time>
</trkpt>
<trkpt lat="45.8951520" lon="9.8324160">
	<ele>1611.80</ele>
	<time>2023-11-18T08:36:18.000Z</time>
</trkpt>
<trkpt lat="45.8951510" lon="9.8324140">
	<ele>1611.80</ele>
	<time>2023-11-18T08:36:19.000Z</time>
</trkpt>
<trkpt lat="45.8951510" lon="9.8324130">
	<ele>1611.80</ele>
	<time>2023-11-18T08:36:20.000Z</time>
</trkpt>
<trkpt lat="45.8951510" lon="9.8324120">
	<ele>1611.80</ele>
	<time>2023-11-18T08:36:21.000Z</time>
</trkpt>
<trkpt lat="45.8951500" lon="9.8324110">
	<ele>1611.80</ele>
	<time>2023-11-18T08:36:22.000Z</time>
</trkpt>
<trkpt lat="45.8951510" lon="9.8324110">
	<ele>1611.80</ele>
	<time>2023-11-18T08:36:23.000Z</time>
</trkpt>
<trkpt lat="45.8951530" lon="9.8324120">
	<ele>1611.60</ele>
	<time>2023-11-18T08:36:24.000Z</time>
</trkpt>
<trkpt lat="45.8951550" lon="9.8324120">
	<ele>1611.60</ele>
	<time>2023-11-18T08:36:25.000Z</time>
</trkpt>
<trkpt lat="45.8951560" lon="9.8324150">
	<ele>1611.60</ele>
	<time>2023-11-18T08:36:26.000Z</time>
</trkpt>
<trkpt lat="45.8951570" lon="9.8324170">
	<ele>1611.60</ele>
	<time>2023-11-18T08:36:27.000Z</time>
</trkpt>
<trkpt lat="45.8951620" lon="9.8324210">
	<ele>1611.60</ele>
	<time>2023-11-18T08:36:28.000Z</time>
</trkpt>
<trkpt lat="45.8951710" lon="9.8324250">
	<ele>1611.60</ele>
	<time>2023-11-18T08:36:29.000Z</time>
</trkpt>
<trkpt lat="45.8951820" lon="9.8324270">
	<ele>1611.60</ele>
	<time>2023-11-18T08:36:30.000Z</time>
</trkpt>
<trkpt lat="45.8951910" lon="9.8324330">
	<ele>1611.60</ele>
	<time>2023-11-18T08:36:31.000Z</time>
</trkpt>
<trkpt lat="45.8952000" lon="9.8324350">
	<ele>1611.60</ele>
	<time>2023-11-18T08:36:32.000Z</time>
</trkpt>
<trkpt lat="45.8952050" lon="9.8324370">
	<ele>1611.60</ele>
	<time>2023-11-18T08:36:33.000Z</time>
</trkpt>
<trkpt lat="45.8952100" lon="9.8324360">
	<ele>1611.60</ele>
	<time>2023-11-18T08:36:34.000Z</time>
</trkpt>
<trkpt lat="45.8952140" lon="9.8324390">
	<ele>1611.60</ele>
	<time>2023-11-18T08:36:35.000Z</time>
</trkpt>
<trkpt lat="45.8952170" lon="9.8324420">
	<ele>1611.60</ele>
	<time>2023-11-18T08:36:36.000Z</time>
</trkpt>
<trkpt lat="45.8952200" lon="9.8324430">
	<ele>1611.60</ele>
	<time>2023-11-18T08:36:37.000Z</time>
</trkpt>
<trkpt lat="45.8952220" lon="9.8324440">
	<ele>1611.60</ele>
	<time>2023-11-18T08:36:38.000Z</time>
</trkpt>
<trkpt lat="45.8952250" lon="9.8324460">
	<ele>1611.40</ele>
	<time>2023-11-18T08:36:39.000Z</time>
</trkpt>
<trkpt lat="45.8952280" lon="9.8324540">
	<ele>1611.40</ele>
	<time>2023-11-18T08:36:40.000Z</time>
</trkpt>
<trkpt lat="45.8952350" lon="9.8324650">
	<ele>1611.40</ele>
	<time>2023-11-18T08:36:41.000Z</time>
</trkpt>
<trkpt lat="45.8952390" lon="9.8324740">
	<ele>1611.40</ele>
	<time>2023-11-18T08:36:42.000Z</time>
</trkpt>
<trkpt lat="45.8952410" lon="9.8324790">
	<ele>1611.40</ele>
	<time>2023-11-18T08:36:43.000Z</time>
</trkpt>
<trkpt lat="45.8952420" lon="9.8324820">
	<ele>1611.40</ele>
	<time>2023-11-18T08:36:44.000Z</time>
</trkpt>
<trkpt lat="45.8952420" lon="9.8324840">
	<ele>1611.40</ele>
	<time>2023-11-18T08:36:45.000Z</time>
</trkpt>
<trkpt lat="45.8952420" lon="9.8324840">
	<ele>1611.40</ele>
	<time>2023-11-18T08:36:46.000Z</time>
</trkpt>
<trkpt lat="45.8952410" lon="9.8324840">
	<ele>1611.40</ele>
	<time>2023-11-18T08:36:47.000Z</time>
</trkpt>
<trkpt lat="45.8952410" lon="9.8324840">
	<ele>1611.40</ele>
	<time>2023-11-18T08:36:48.000Z</time>
</trkpt>
<trkpt lat="45.8952410" lon="9.8324830">
	<ele>1611.40</ele>
	<time>2023-11-18T08:36:49.000Z</time>
</trkpt>
<trkpt lat="45.8952410" lon="9.8324830">
	<ele>1611.60</ele>
	<time>2023-11-18T08:36:50.000Z</time>
</trkpt>
<trkpt lat="45.8952400" lon="9.8324810">
	<ele>1611.60</ele>
	<time>2023-11-18T08:36:51.000Z</time>
</trkpt>
<trkpt lat="45.8952390" lon="9.8324770">
	<ele>1611.60</ele>
	<time>2023-11-18T08:36:52.000Z</time>
</trkpt>
<trkpt lat="45.8952390" lon="9.8324760">
	<ele>1611.60</ele>
	<time>2023-11-18T08:36:53.000Z</time>
</trkpt>
<trkpt lat="45.8952390" lon="9.8324790">
	<ele>1611.60</ele>
	<time>2023-11-18T08:36:54.000Z</time>
</trkpt>
<trkpt lat="45.8952380" lon="9.8324810">
	<ele>1611.60</ele>
	<time>2023-11-18T08:36:55.000Z</time>
</trkpt>
<trkpt lat="45.8952380" lon="9.8324820">
	<ele>1611.60</ele>
	<time>2023-11-18T08:36:56.000Z</time>
</trkpt>
<trkpt lat="45.8952380" lon="9.8324820">
	<ele>1611.60</ele>
	<time>2023-11-18T08:36:57.000Z</time>
</trkpt>
<trkpt lat="45.8952380" lon="9.8324820">
	<ele>1611.60</ele>
	<time>2023-11-18T08:36:58.000Z</time>
</trkpt>
<trkpt lat="45.8952380" lon="9.8324820">
	<ele>1611.60</ele>
	<time>2023-11-18T08:36:59.000Z</time>
</trkpt>
<trkpt lat="45.8952380" lon="9.8324820">
	<ele>1611.60</ele>
	<time>2023-11-18T08:37:00.000Z</time>
</trkpt>
<trkpt lat="45.8952380" lon="9.8324820">
	<ele>1611.60</ele>
	<time>2023-11-18T08:37:01.000Z</time>
</trkpt>
<trkpt lat="45.8952380" lon="9.8324820">
	<ele>1611.60</ele>
	<time>2023-11-18T08:37:02.000Z</time>
</trkpt>
<trkpt lat="45.8952380" lon="9.8324820">
	<ele>1611.80</ele>
	<time>2023-11-18T08:37:03.000Z</time>
</trkpt>
<trkpt lat="45.8952380" lon="9.8324820">
	<ele>1611.80</ele>
	<time>2023-11-18T08:37:04.000Z</time>
</trkpt>
<trkpt lat="45.8952380" lon="9.8324820">
	<ele>1612.00</ele>
	<time>2023-11-18T08:37:05.000Z</time>
</trkpt>
<trkpt lat="45.8952380" lon="9.8324820">
	<ele>1612.00</ele>
	<time>2023-11-18T08:37:06.000Z</time>
</trkpt>
<trkpt lat="45.8952380" lon="9.8324820">
	<ele>1612.20</ele>
	<time>2023-11-18T08:37:07.000Z</time>
</trkpt>
<trkpt lat="45.8952380" lon="9.8324810">
	<ele>1612.20</ele>
	<time>2023-11-18T08:37:08.000Z</time>
</trkpt>
<trkpt lat="45.8952380" lon="9.8324810">
	<ele>1612.40</ele>
	<time>2023-11-18T08:37:09.000Z</time>
</trkpt>
<trkpt lat="45.8952380" lon="9.8324800">
	<ele>1612.60</ele>
	<time>2023-11-18T08:37:10.000Z</time>
</trkpt>
<trkpt lat="45.8952380" lon="9.8324800">
	<ele>1612.60</ele>
	<time>2023-11-18T08:37:11.000Z</time>
</trkpt>
<trkpt lat="45.8952390" lon="9.8324800">
	<ele>1612.60</ele>
	<time>2023-11-18T08:37:12.000Z</time>
</trkpt>
<trkpt lat="45.8952390" lon="9.8324800">
	<ele>1612.60</ele>
	<time>2023-11-18T08:37:13.000Z</time>
</trkpt>
<trkpt lat="45.8952390" lon="9.8324800">
	<ele>1612.60</ele>
	<time>2023-11-18T08:37:14.000Z</time>
</trkpt>
<trkpt lat="45.8952400" lon="9.8324790">
	<ele>1612.60</ele>
	<time>2023-11-18T08:37:15.000Z</time>
</trkpt>
<trkpt lat="45.8952400" lon="9.8324790">
	<ele>1612.60</ele>
	<time>2023-11-18T08:37:16.000Z</time>
</trkpt>
<trkpt lat="45.8952400" lon="9.8324790">
	<ele>1612.60</ele>
	<time>2023-11-18T08:37:17.000Z</time>
</trkpt>
<trkpt lat="45.8952400" lon="9.8324790">
	<ele>1612.60</ele>
	<time>2023-11-18T08:37:18.000Z</time>
</trkpt>
<trkpt lat="45.8952400" lon="9.8324790">
	<ele>1612.80</ele>
	<time>2023-11-18T08:37:19.000Z</time>
</trkpt>
<trkpt lat="45.8952400" lon="9.8324790">
	<ele>1612.80</ele>
	<time>2023-11-18T08:37:20.000Z</time>
</trkpt>
<trkpt lat="45.8952400" lon="9.8324790">
	<ele>1612.80</ele>
	<time>2023-11-18T08:37:21.000Z</time>
</trkpt>
<trkpt lat="45.8952390" lon="9.8324790">
	<ele>1612.80</ele>
	<time>2023-11-18T08:37:22.000Z</time>
</trkpt>
<trkpt lat="45.8952390" lon="9.8324800">
	<ele>1612.60</ele>
	<time>2023-11-18T08:37:23.000Z</time>
</trkpt>
<trkpt lat="45.8952390" lon="9.8324800">
	<ele>1612.60</ele>
	<time>2023-11-18T08:37:24.000Z</time>
</trkpt>
<trkpt lat="45.8952390" lon="9.8324800">
	<ele>1612.40</ele>
	<time>2023-11-18T08:37:25.000Z</time>
</trkpt>
<trkpt lat="45.8952390" lon="9.8324800">
	<ele>1612.40</ele>
	<time>2023-11-18T08:37:26.000Z</time>
</trkpt>
<trkpt lat="45.8952390" lon="9.8324800">
	<ele>1612.20</ele>
	<time>2023-11-18T08:37:27.000Z</time>
</trkpt>
<trkpt lat="45.8952390" lon="9.8324800">
	<ele>1612.20</ele>
	<time>2023-11-18T08:37:28.000Z</time>
</trkpt>
<trkpt lat="45.8952390" lon="9.8324800">
	<ele>1612.40</ele>
	<time>2023-11-18T08:37:29.000Z</time>
</trkpt>
<trkpt lat="45.8952390" lon="9.8324800">
	<ele>1612.40</ele>
	<time>2023-11-18T08:37:30.000Z</time>
</trkpt>
<trkpt lat="45.8952390" lon="9.8324810">
	<ele>1612.40</ele>
	<time>2023-11-18T08:37:31.000Z</time>
</trkpt>
<trkpt lat="45.8952390" lon="9.8324820">
	<ele>1612.40</ele>
	<time>2023-11-18T08:37:32.000Z</time>
</trkpt>
<trkpt lat="45.8952390" lon="9.8324820">
	<ele>1612.40</ele>
	<time>2023-11-18T08:37:33.000Z</time>
</trkpt>
<trkpt lat="45.8952390" lon="9.8324820">
	<ele>1612.60</ele>
	<time>2023-11-18T08:37:34.000Z</time>
</trkpt>
<trkpt lat="45.8952390" lon="9.8324820">
	<ele>1612.60</ele>
	<time>2023-11-18T08:37:35.000Z</time>
</trkpt>
<trkpt lat="45.8952390" lon="9.8324820">
	<ele>1612.60</ele>
	<time>2023-11-18T08:37:36.000Z</time>
</trkpt>
<trkpt lat="45.8952380" lon="9.8324830">
	<ele>1612.60</ele>
	<time>2023-11-18T08:37:37.000Z</time>
</trkpt>
<trkpt lat="45.8952380" lon="9.8324830">
	<ele>1612.60</ele>
	<time>2023-11-18T08:37:38.000Z</time>
</trkpt>
<trkpt lat="45.8952380" lon="9.8324830">
	<ele>1612.60</ele>
	<time>2023-11-18T08:37:39.000Z</time>
</trkpt>
<trkpt lat="45.8952370" lon="9.8324830">
	<ele>1612.60</ele>
	<time>2023-11-18T08:37:40.000Z</time>
</trkpt>
<trkpt lat="45.8952360" lon="9.8324830">
	<ele>1612.60</ele>
	<time>2023-11-18T08:37:41.000Z</time>
</trkpt>
<trkpt lat="45.8952340" lon="9.8324830">
	<ele>1612.40</ele>
	<time>2023-11-18T08:37:42.000Z</time>
</trkpt>
<trkpt lat="45.8952340" lon="9.8324830">
	<ele>1612.40</ele>
	<time>2023-11-18T08:37:43.000Z</time>
</trkpt>
<trkpt lat="45.8952340" lon="9.8324830">
	<ele>1612.20</ele>
	<time>2023-11-18T08:37:44.000Z</time>
</trkpt>
<trkpt lat="45.8952330" lon="9.8324830">
	<ele>1612.20</ele>
	<time>2023-11-18T08:37:45.000Z</time>
</trkpt>
<trkpt lat="45.8952330" lon="9.8324830">
	<ele>1612.00</ele>
	<time>2023-11-18T08:37:46.000Z</time>
</trkpt>
<trkpt lat="45.8952330" lon="9.8324830">
	<ele>1612.00</ele>
	<time>2023-11-18T08:37:47.000Z</time>
</trkpt>
<trkpt lat="45.8952330" lon="9.8324830">
	<ele>1612.00</ele>
	<time>2023-11-18T08:37:48.000Z</time>
</trkpt>
<trkpt lat="45.8952330" lon="9.8324830">
	<ele>1611.80</ele>
	<time>2023-11-18T08:37:49.000Z</time>
</trkpt>
<trkpt lat="45.8952330" lon="9.8324830">
	<ele>1612.00</ele>
	<time>2023-11-18T08:37:50.000Z</time>
</trkpt>
<trkpt lat="45.8952330" lon="9.8324820">
	<ele>1612.00</ele>
	<time>2023-11-18T08:37:51.000Z</time>
</trkpt>
<trkpt lat="45.8952330" lon="9.8324820">
	<ele>1612.00</ele>
	<time>2023-11-18T08:37:52.000Z</time>
</trkpt>
<trkpt lat="45.8952330" lon="9.8324810">
	<ele>1612.20</ele>
	<time>2023-11-18T08:37:53.000Z</time>
</trkpt>
<trkpt lat="45.8952330" lon="9.8324810">
	<ele>1612.20</ele>
	<time>2023-11-18T08:37:54.000Z</time>
</trkpt>
<trkpt lat="45.8952330" lon="9.8324810">
	<ele>1612.20</ele>
	<time>2023-11-18T08:37:55.000Z</time>
</trkpt>
<trkpt lat="45.8952330" lon="9.8324810">
	<ele>1612.20</ele>
	<time>2023-11-18T08:37:56.000Z</time>
</trkpt>
<trkpt lat="45.8952330" lon="9.8324810">
	<ele>1612.20</ele>
	<time>2023-11-18T08:37:57.000Z</time>
</trkpt>
<trkpt lat="45.8952330" lon="9.8324810">
	<ele>1612.20</ele>
	<time>2023-11-18T08:37:58.000Z</time>
</trkpt>
<trkpt lat="45.8952330" lon="9.8324810">
	<ele>1612.40</ele>
	<time>2023-11-18T08:37:59.000Z</time>
</trkpt>
<trkpt lat="45.8952330" lon="9.8324810">
	<ele>1612.80</ele>
	<time>2023-11-18T08:38:00.000Z</time>
</trkpt>
<trkpt lat="45.8952330" lon="9.8324810">
	<ele>1613.20</ele>
	<time>2023-11-18T08:38:01.000Z</time>
</trkpt>
<trkpt lat="45.8952350" lon="9.8324810">
	<ele>1613.40</ele>
	<time>2023-11-18T08:38:02.000Z</time>
</trkpt>
<trkpt lat="45.8952360" lon="9.8324810">
	<ele>1613.40</ele>
	<time>2023-11-18T08:38:03.000Z</time>
</trkpt>
<trkpt lat="45.8952360" lon="9.8324810">
	<ele>1613.40</ele>
	<time>2023-11-18T08:38:04.000Z</time>
</trkpt>
<trkpt lat="45.8952360" lon="9.8324810">
	<ele>1613.40</ele>
	<time>2023-11-18T08:38:05.000Z</time>
</trkpt>
<trkpt lat="45.8952370" lon="9.8324810">
	<ele>1613.20</ele>
	<time>2023-11-18T08:38:06.000Z</time>
</trkpt>
<trkpt lat="45.8952380" lon="9.8324810">
	<ele>1613.00</ele>
	<time>2023-11-18T08:38:07.000Z</time>
</trkpt>
<trkpt lat="45.8952390" lon="9.8324820">
	<ele>1612.80</ele>
	<time>2023-11-18T08:38:08.000Z</time>
</trkpt>
<trkpt lat="45.8952400" lon="9.8324850">
	<ele>1612.80</ele>
	<time>2023-11-18T08:38:09.000Z</time>
</trkpt>
<trkpt lat="45.8952400" lon="9.8324860">
	<ele>1612.80</ele>
	<time>2023-11-18T08:38:10.000Z</time>
</trkpt>
<trkpt lat="45.8952450" lon="9.8324860">
	<ele>1612.80</ele>
	<time>2023-11-18T08:38:11.000Z</time>
</trkpt>
<trkpt lat="45.8952490" lon="9.8324860">
	<ele>1612.80</ele>
	<time>2023-11-18T08:38:12.000Z</time>
</trkpt>
<trkpt lat="45.8952510" lon="9.8324870">
	<ele>1612.80</ele>
	<time>2023-11-18T08:38:13.000Z</time>
</trkpt>
<trkpt lat="45.8952510" lon="9.8324880">
	<ele>1612.80</ele>
	<time>2023-11-18T08:38:14.000Z</time>
</trkpt>
<trkpt lat="45.8952520" lon="9.8324890">
	<ele>1612.80</ele>
	<time>2023-11-18T08:38:15.000Z</time>
</trkpt>
<trkpt lat="45.8952520" lon="9.8324890">
	<ele>1612.80</ele>
	<time>2023-11-18T08:38:16.000Z</time>
</trkpt>
<trkpt lat="45.8952520" lon="9.8324900">
	<ele>1612.80</ele>
	<time>2023-11-18T08:38:17.000Z</time>
</trkpt>
<trkpt lat="45.8952520" lon="9.8324900">
	<ele>1612.80</ele>
	<time>2023-11-18T08:38:18.000Z</time>
</trkpt>
<trkpt lat="45.8952520" lon="9.8324900">
	<ele>1612.80</ele>
	<time>2023-11-18T08:38:19.000Z</time>
</trkpt>
<trkpt lat="45.8952520" lon="9.8324900">
	<ele>1612.80</ele>
	<time>2023-11-18T08:38:20.000Z</time>
</trkpt>
<trkpt lat="45.8952530" lon="9.8324900">
	<ele>1612.80</ele>
	<time>2023-11-18T08:38:21.000Z</time>
</trkpt>
<trkpt lat="45.8952530" lon="9.8324900">
	<ele>1612.80</ele>
	<time>2023-11-18T08:38:22.000Z</time>
</trkpt>
<trkpt lat="45.8952530" lon="9.8324900">
	<ele>1612.80</ele>
	<time>2023-11-18T08:38:23.000Z</time>
</trkpt>
<trkpt lat="45.8952540" lon="9.8324900">
	<ele>1613.00</ele>
	<time>2023-11-18T08:38:24.000Z</time>
</trkpt>
<trkpt lat="45.8952540" lon="9.8324900">
	<ele>1613.20</ele>
	<time>2023-11-18T08:38:25.000Z</time>
</trkpt>
<trkpt lat="45.8952550" lon="9.8324900">
	<ele>1613.20</ele>
	<time>2023-11-18T08:38:26.000Z</time>
</trkpt>
<trkpt lat="45.8952550" lon="9.8324900">
	<ele>1613.20</ele>
	<time>2023-11-18T08:38:27.000Z</time>
</trkpt>
<trkpt lat="45.8952550" lon="9.8324900">
	<ele>1613.00</ele>
	<time>2023-11-18T08:38:28.000Z</time>
</trkpt>
<trkpt lat="45.8952550" lon="9.8324900">
	<ele>1612.80</ele>
	<time>2023-11-18T08:38:29.000Z</time>
</trkpt>
<trkpt lat="45.8952560" lon="9.8324900">
	<ele>1612.80</ele>
	<time>2023-11-18T08:38:30.000Z</time>
</trkpt>
<trkpt lat="45.8952560" lon="9.8324900">
	<ele>1612.80</ele>
	<time>2023-11-18T08:38:31.000Z</time>
</trkpt>
<trkpt lat="45.8952560" lon="9.8324900">
	<ele>1612.80</ele>
	<time>2023-11-18T08:38:32.000Z</time>
</trkpt>
<trkpt lat="45.8952560" lon="9.8324900">
	<ele>1612.80</ele>
	<time>2023-11-18T08:38:33.000Z</time>
</trkpt>
<trkpt lat="45.8952560" lon="9.8324910">
	<ele>1612.80</ele>
	<time>2023-11-18T08:38:34.000Z</time>
</trkpt>
<trkpt lat="45.8952560" lon="9.8324910">
	<ele>1612.80</ele>
	<time>2023-11-18T08:38:35.000Z</time>
</trkpt>
<trkpt lat="45.8952570" lon="9.8324910">
	<ele>1613.00</ele>
	<time>2023-11-18T08:38:36.000Z</time>
</trkpt>
<trkpt lat="45.8952570" lon="9.8324910">
	<ele>1613.00</ele>
	<time>2023-11-18T08:38:37.000Z</time>
</trkpt>
<trkpt lat="45.8952570" lon="9.8324920">
	<ele>1613.00</ele>
	<time>2023-11-18T08:38:38.000Z</time>
</trkpt>
<trkpt lat="45.8952570" lon="9.8324920">
	<ele>1612.80</ele>
	<time>2023-11-18T08:38:39.000Z</time>
</trkpt>
<trkpt lat="45.8952600" lon="9.8324920">
	<ele>1612.80</ele>
	<time>2023-11-18T08:38:40.000Z</time>
</trkpt>
<trkpt lat="45.8952620" lon="9.8325020">
	<ele>1612.80</ele>
	<time>2023-11-18T08:38:41.000Z</time>
</trkpt>
<trkpt lat="45.8952670" lon="9.8325270">
	<ele>1612.80</ele>
	<time>2023-11-18T08:38:42.000Z</time>
</trkpt>
<trkpt lat="45.8952720" lon="9.8325470">
	<ele>1612.80</ele>
	<time>2023-11-18T08:38:43.000Z</time>
</trkpt>
<trkpt lat="45.8952780" lon="9.8325670">
	<ele>1613.00</ele>
	<time>2023-11-18T08:38:44.000Z</time>
</trkpt>
<trkpt lat="45.8952850" lon="9.8325920">
	<ele>1613.00</ele>
	<time>2023-11-18T08:38:45.000Z</time>
</trkpt>
<trkpt lat="45.8952900" lon="9.8326180">
	<ele>1613.00</ele>
	<time>2023-11-18T08:38:46.000Z</time>
</trkpt>
<trkpt lat="45.8952940" lon="9.8326420">
	<ele>1613.00</ele>
	<time>2023-11-18T08:38:47.000Z</time>
</trkpt>
<trkpt lat="45.8952970" lon="9.8326610">
	<ele>1613.20</ele>
	<time>2023-11-18T08:38:48.000Z</time>
</trkpt>
<trkpt lat="45.8953010" lon="9.8326820">
	<ele>1613.20</ele>
	<time>2023-11-18T08:38:49.000Z</time>
</trkpt>
<trkpt lat="45.8953050" lon="9.8327050">
	<ele>1613.20</ele>
	<time>2023-11-18T08:38:50.000Z</time>
</trkpt>
<trkpt lat="45.8953050" lon="9.8327190">
	<ele>1613.20</ele>
	<time>2023-11-18T08:38:51.000Z</time>
</trkpt>
<trkpt lat="45.8953050" lon="9.8327300">
	<ele>1613.20</ele>
	<time>2023-11-18T08:38:52.000Z</time>
</trkpt>
<trkpt lat="45.8953050" lon="9.8327440">
	<ele>1613.40</ele>
	<time>2023-11-18T08:38:53.000Z</time>
</trkpt>
<trkpt lat="45.8953070" lon="9.8327580">
	<ele>1613.60</ele>
	<time>2023-11-18T08:38:54.000Z</time>
</trkpt>
<trkpt lat="45.8953090" lon="9.8327760">
	<ele>1613.60</ele>
	<time>2023-11-18T08:38:55.000Z</time>
</trkpt>
<trkpt lat="45.8953120" lon="9.8327920">
	<ele>1613.60</ele>
	<time>2023-11-18T08:38:56.000Z</time>
</trkpt>
<trkpt lat="45.8953130" lon="9.8328070">
	<ele>1613.60</ele>
	<time>2023-11-18T08:38:57.000Z</time>
</trkpt>
<trkpt lat="45.8953140" lon="9.8328240">
	<ele>1613.60</ele>
	<time>2023-11-18T08:38:58.000Z</time>
</trkpt>
<trkpt lat="45.8953140" lon="9.8328390">
	<ele>1613.60</ele>
	<time>2023-11-18T08:38:59.000Z</time>
</trkpt>
<trkpt lat="45.8953150" lon="9.8328520">
	<ele>1613.60</ele>
	<time>2023-11-18T08:39:00.000Z</time>
</trkpt>
<trkpt lat="45.8953180" lon="9.8328650">
	<ele>1613.80</ele>
	<time>2023-11-18T08:39:01.000Z</time>
</trkpt>
<trkpt lat="45.8953190" lon="9.8328770">
	<ele>1613.80</ele>
	<time>2023-11-18T08:39:02.000Z</time>
</trkpt>
<trkpt lat="45.8953190" lon="9.8328770">
	<ele>1613.80</ele>
	<time>2023-11-18T08:39:03.000Z</time>
</trkpt>
<trkpt lat="45.8953250" lon="9.8328940">
	<ele>1614.00</ele>
	<time>2023-11-18T08:39:04.000Z</time>
</trkpt>
<trkpt lat="45.8953280" lon="9.8329030">
	<ele>1614.00</ele>
	<time>2023-11-18T08:39:05.000Z</time>
</trkpt>
<trkpt lat="45.8953310" lon="9.8329080">
	<ele>1614.20</ele>
	<time>2023-11-18T08:39:06.000Z</time>
</trkpt>
<trkpt lat="45.8953330" lon="9.8329120">
	<ele>1614.40</ele>
	<time>2023-11-18T08:39:07.000Z</time>
</trkpt>
<trkpt lat="45.8953330" lon="9.8329190">
	<ele>1614.60</ele>
	<time>2023-11-18T08:39:08.000Z</time>
</trkpt>
<trkpt lat="45.8953370" lon="9.8329250">
	<ele>1614.80</ele>
	<time>2023-11-18T08:39:09.000Z</time>
</trkpt>
<trkpt lat="45.8953410" lon="9.8329340">
	<ele>1615.00</ele>
	<time>2023-11-18T08:39:10.000Z</time>
</trkpt>
<trkpt lat="45.8953470" lon="9.8329450">
	<ele>1615.00</ele>
	<time>2023-11-18T08:39:11.000Z</time>
</trkpt>
<trkpt lat="45.8953490" lon="9.8329540">
	<ele>1615.00</ele>
	<time>2023-11-18T08:39:12.000Z</time>
</trkpt>
<trkpt lat="45.8953500" lon="9.8329650">
	<ele>1615.20</ele>
	<time>2023-11-18T08:39:13.000Z</time>
</trkpt>
<trkpt lat="45.8953500" lon="9.8329770">
	<ele>1615.20</ele>
	<time>2023-11-18T08:39:14.000Z</time>
</trkpt>
<trkpt lat="45.8953490" lon="9.8329910">
	<ele>1615.20</ele>
	<time>2023-11-18T08:39:15.000Z</time>
</trkpt>
<trkpt lat="45.8953510" lon="9.8330060">
	<ele>1615.20</ele>
	<time>2023-11-18T08:39:16.000Z</time>
</trkpt>
<trkpt lat="45.8953560" lon="9.8330190">
	<ele>1615.40</ele>
	<time>2023-11-18T08:39:17.000Z</time>
</trkpt>
<trkpt lat="45.8953560" lon="9.8330340">
	<ele>1615.60</ele>
	<time>2023-11-18T08:39:18.000Z</time>
</trkpt>
<trkpt lat="45.8953590" lon="9.8330490">
	<ele>1615.60</ele>
	<time>2023-11-18T08:39:19.000Z</time>
</trkpt>
<trkpt lat="45.8953600" lon="9.8330630">
	<ele>1615.60</ele>
	<time>2023-11-18T08:39:20.000Z</time>
</trkpt>
<trkpt lat="45.8953620" lon="9.8330760">
	<ele>1615.60</ele>
	<time>2023-11-18T08:39:21.000Z</time>
</trkpt>
<trkpt lat="45.8953640" lon="9.8330890">
	<ele>1615.60</ele>
	<time>2023-11-18T08:39:22.000Z</time>
</trkpt>
<trkpt lat="45.8953660" lon="9.8331020">
	<ele>1615.60</ele>
	<time>2023-11-18T08:39:23.000Z</time>
</trkpt>
<trkpt lat="45.8953680" lon="9.8331100">
	<ele>1615.80</ele>
	<time>2023-11-18T08:39:24.000Z</time>
</trkpt>
<trkpt lat="45.8953720" lon="9.8331210">
	<ele>1615.80</ele>
	<time>2023-11-18T08:39:25.000Z</time>
</trkpt>
<trkpt lat="45.8953750" lon="9.8331310">
	<ele>1616.00</ele>
	<time>2023-11-18T08:39:26.000Z</time>
</trkpt>
<trkpt lat="45.8953770" lon="9.8331430">
	<ele>1616.20</ele>
	<time>2023-11-18T08:39:27.000Z</time>
</trkpt>
<trkpt lat="45.8953800" lon="9.8331560">
	<ele>1616.20</ele>
	<time>2023-11-18T08:39:28.000Z</time>
</trkpt>
<trkpt lat="45.8953830" lon="9.8331680">
	<ele>1616.40</ele>
	<time>2023-11-18T08:39:29.000Z</time>
</trkpt>
<trkpt lat="45.8953830" lon="9.8331810">
	<ele>1616.40</ele>
	<time>2023-11-18T08:39:30.000Z</time>
</trkpt>
<trkpt lat="45.8953820" lon="9.8331940">
	<ele>1616.60</ele>
	<time>2023-11-18T08:39:31.000Z</time>
</trkpt>
<trkpt lat="45.8953790" lon="9.8332090">
	<ele>1616.80</ele>
	<time>2023-11-18T08:39:32.000Z</time>
</trkpt>
<trkpt lat="45.8953800" lon="9.8332230">
	<ele>1616.80</ele>
	<time>2023-11-18T08:39:33.000Z</time>
</trkpt>
<trkpt lat="45.8953860" lon="9.8332310">
	<ele>1616.80</ele>
	<time>2023-11-18T08:39:34.000Z</time>
</trkpt>
<trkpt lat="45.8953880" lon="9.8332360">
	<ele>1616.80</ele>
	<time>2023-11-18T08:39:35.000Z</time>
</trkpt>
<trkpt lat="45.8953870" lon="9.8332380">
	<ele>1616.80</ele>
	<time>2023-11-18T08:39:36.000Z</time>
</trkpt>
<trkpt lat="45.8953850" lon="9.8332370">
	<ele>1616.80</ele>
	<time>2023-11-18T08:39:37.000Z</time>
</trkpt>
<trkpt lat="45.8953850" lon="9.8332360">
	<ele>1616.80</ele>
	<time>2023-11-18T08:39:38.000Z</time>
</trkpt>
<trkpt lat="45.8953850" lon="9.8332350">
	<ele>1616.60</ele>
	<time>2023-11-18T08:39:39.000Z</time>
</trkpt>
<trkpt lat="45.8953840" lon="9.8332340">
	<ele>1616.60</ele>
	<time>2023-11-18T08:39:40.000Z</time>
</trkpt>
<trkpt lat="45.8953840" lon="9.8332350">
	<ele>1616.40</ele>
	<time>2023-11-18T08:39:41.000Z</time>
</trkpt>
<trkpt lat="45.8953850" lon="9.8332360">
	<ele>1616.40</ele>
	<time>2023-11-18T08:39:42.000Z</time>
</trkpt>
<trkpt lat="45.8953840" lon="9.8332370">
	<ele>1616.60</ele>
	<time>2023-11-18T08:39:43.000Z</time>
</trkpt>
<trkpt lat="45.8953820" lon="9.8332370">
	<ele>1616.60</ele>
	<time>2023-11-18T08:39:44.000Z</time>
</trkpt>
<trkpt lat="45.8953810" lon="9.8332350">
	<ele>1616.60</ele>
	<time>2023-11-18T08:39:45.000Z</time>
</trkpt>
<trkpt lat="45.8953800" lon="9.8332320">
	<ele>1616.60</ele>
	<time>2023-11-18T08:39:46.000Z</time>
</trkpt>
<trkpt lat="45.8953790" lon="9.8332310">
	<ele>1616.60</ele>
	<time>2023-11-18T08:39:47.000Z</time>
</trkpt>
<trkpt lat="45.8953780" lon="9.8332300">
	<ele>1616.60</ele>
	<time>2023-11-18T08:39:48.000Z</time>
</trkpt>
<trkpt lat="45.8953780" lon="9.8332300">
	<ele>1616.60</ele>
	<time>2023-11-18T08:39:49.000Z</time>
</trkpt>
<trkpt lat="45.8953780" lon="9.8332300">
	<ele>1616.60</ele>
	<time>2023-11-18T08:39:50.000Z</time>
</trkpt>
<trkpt lat="45.8953780" lon="9.8332300">
	<ele>1616.60</ele>
	<time>2023-11-18T08:39:51.000Z</time>
</trkpt>
<trkpt lat="45.8953780" lon="9.8332300">
	<ele>1616.60</ele>
	<time>2023-11-18T08:39:52.000Z</time>
</trkpt>
<trkpt lat="45.8953780" lon="9.8332300">
	<ele>1616.40</ele>
	<time>2023-11-18T08:39:53.000Z</time>
</trkpt>
<trkpt lat="45.8953780" lon="9.8332300">
	<ele>1616.40</ele>
	<time>2023-11-18T08:39:54.000Z</time>
</trkpt>
<trkpt lat="45.8953780" lon="9.8332300">
	<ele>1616.60</ele>
	<time>2023-11-18T08:39:55.000Z</time>
</trkpt>
<trkpt lat="45.8953780" lon="9.8332300">
	<ele>1616.60</ele>
	<time>2023-11-18T08:39:56.000Z</time>
</trkpt>
<trkpt lat="45.8953780" lon="9.8332300">
	<ele>1616.60</ele>
	<time>2023-11-18T08:39:57.000Z</time>
</trkpt>
<trkpt lat="45.8953780" lon="9.8332300">
	<ele>1616.80</ele>
	<time>2023-11-18T08:39:58.000Z</time>
</trkpt>
<trkpt lat="45.8953780" lon="9.8332300">
	<ele>1616.80</ele>
	<time>2023-11-18T08:39:59.000Z</time>
</trkpt>
<trkpt lat="45.8953780" lon="9.8332300">
	<ele>1616.80</ele>
	<time>2023-11-18T08:40:00.000Z</time>
</trkpt>
<trkpt lat="45.8953780" lon="9.8332300">
	<ele>1616.80</ele>
	<time>2023-11-18T08:40:01.000Z</time>
</trkpt>
<trkpt lat="45.8953780" lon="9.8332300">
	<ele>1616.80</ele>
	<time>2023-11-18T08:40:02.000Z</time>
</trkpt>
<trkpt lat="45.8953780" lon="9.8332300">
	<ele>1616.80</ele>
	<time>2023-11-18T08:40:03.000Z</time>
</trkpt>
<trkpt lat="45.8953770" lon="9.8332300">
	<ele>1616.80</ele>
	<time>2023-11-18T08:40:04.000Z</time>
</trkpt>
<trkpt lat="45.8953770" lon="9.8332300">
	<ele>1616.80</ele>
	<time>2023-11-18T08:40:05.000Z</time>
</trkpt>
<trkpt lat="45.8953760" lon="9.8332300">
	<ele>1616.80</ele>
	<time>2023-11-18T08:40:06.000Z</time>
</trkpt>
<trkpt lat="45.8953760" lon="9.8332310">
	<ele>1616.80</ele>
	<time>2023-11-18T08:40:07.000Z</time>
</trkpt>
<trkpt lat="45.8953760" lon="9.8332310">
	<ele>1616.80</ele>
	<time>2023-11-18T08:40:08.000Z</time>
</trkpt>
<trkpt lat="45.8953760" lon="9.8332310">
	<ele>1616.80</ele>
	<time>2023-11-18T08:40:09.000Z</time>
</trkpt>
<trkpt lat="45.8953760" lon="9.8332310">
	<ele>1616.80</ele>
	<time>2023-11-18T08:40:10.000Z</time>
</trkpt>
<trkpt lat="45.8953760" lon="9.8332310">
	<ele>1617.00</ele>
	<time>2023-11-18T08:40:11.000Z</time>
</trkpt>
<trkpt lat="45.8953760" lon="9.8332310">
	<ele>1617.00</ele>
	<time>2023-11-18T08:40:12.000Z</time>
</trkpt>
<trkpt lat="45.8953760" lon="9.8332310">
	<ele>1617.00</ele>
	<time>2023-11-18T08:40:13.000Z</time>
</trkpt>
<trkpt lat="45.8953760" lon="9.8332310">
	<ele>1617.00</ele>
	<time>2023-11-18T08:40:14.000Z</time>
</trkpt>
<trkpt lat="45.8953760" lon="9.8332310">
	<ele>1617.00</ele>
	<time>2023-11-18T08:40:15.000Z</time>
</trkpt>
<trkpt lat="45.8953760" lon="9.8332310">
	<ele>1616.80</ele>
	<time>2023-11-18T08:40:16.000Z</time>
</trkpt>
<trkpt lat="45.8953760" lon="9.8332310">
	<ele>1616.80</ele>
	<time>2023-11-18T08:40:17.000Z</time>
</trkpt>
<trkpt lat="45.8953760" lon="9.8332320">
	<ele>1616.80</ele>
	<time>2023-11-18T08:40:18.000Z</time>
</trkpt>
<trkpt lat="45.8953760" lon="9.8332320">
	<ele>1616.60</ele>
	<time>2023-11-18T08:40:19.000Z</time>
</trkpt>
<trkpt lat="45.8953760" lon="9.8332330">
	<ele>1616.60</ele>
	<time>2023-11-18T08:40:20.000Z</time>
</trkpt>
<trkpt lat="45.8953770" lon="9.8332330">
	<ele>1616.60</ele>
	<time>2023-11-18T08:40:21.000Z</time>
</trkpt>
<trkpt lat="45.8953780" lon="9.8332330">
	<ele>1616.60</ele>
	<time>2023-11-18T08:40:22.000Z</time>
</trkpt>
<trkpt lat="45.8953800" lon="9.8332330">
	<ele>1616.60</ele>
	<time>2023-11-18T08:40:23.000Z</time>
</trkpt>
<trkpt lat="45.8953810" lon="9.8332340">
	<ele>1616.60</ele>
	<time>2023-11-18T08:40:24.000Z</time>
</trkpt>
<trkpt lat="45.8953820" lon="9.8332340">
	<ele>1616.60</ele>
	<time>2023-11-18T08:40:25.000Z</time>
</trkpt>
<trkpt lat="45.8953820" lon="9.8332340">
	<ele>1616.60</ele>
	<time>2023-11-18T08:40:26.000Z</time>
</trkpt>
<trkpt lat="45.8953820" lon="9.8332340">
	<ele>1616.80</ele>
	<time>2023-11-18T08:40:27.000Z</time>
</trkpt>
<trkpt lat="45.8953820" lon="9.8332350">
	<ele>1616.80</ele>
	<time>2023-11-18T08:40:28.000Z</time>
</trkpt>
<trkpt lat="45.8953830" lon="9.8332360">
	<ele>1616.80</ele>
	<time>2023-11-18T08:40:29.000Z</time>
</trkpt>
<trkpt lat="45.8953830" lon="9.8332360">
	<ele>1617.00</ele>
	<time>2023-11-18T08:40:30.000Z</time>
</trkpt>
<trkpt lat="45.8953850" lon="9.8332420">
	<ele>1617.00</ele>
	<time>2023-11-18T08:40:31.000Z</time>
</trkpt>
<trkpt lat="45.8953900" lon="9.8332600">
	<ele>1617.00</ele>
	<time>2023-11-18T08:40:32.000Z</time>
</trkpt>
<trkpt lat="45.8953960" lon="9.8332760">
	<ele>1617.00</ele>
	<time>2023-11-18T08:40:33.000Z</time>
</trkpt>
<trkpt lat="45.8954000" lon="9.8332900">
	<ele>1617.20</ele>
	<time>2023-11-18T08:40:34.000Z</time>
</trkpt>
<trkpt lat="45.8954020" lon="9.8333050">
	<ele>1617.20</ele>
	<time>2023-11-18T08:40:35.000Z</time>
</trkpt>
<trkpt lat="45.8954030" lon="9.8333160">
	<ele>1617.20</ele>
	<time>2023-11-18T08:40:36.000Z</time>
</trkpt>
<trkpt lat="45.8954050" lon="9.8333280">
	<ele>1617.20</ele>
	<time>2023-11-18T08:40:37.000Z</time>
</trkpt>
<trkpt lat="45.8954060" lon="9.8333460">
	<ele>1617.20</ele>
	<time>2023-11-18T08:40:38.000Z</time>
</trkpt>
<trkpt lat="45.8954070" lon="9.8333700">
	<ele>1617.20</ele>
	<time>2023-11-18T08:40:39.000Z</time>
</trkpt>
<trkpt lat="45.8954100" lon="9.8333930">
	<ele>1617.40</ele>
	<time>2023-11-18T08:40:40.000Z</time>
</trkpt>
<trkpt lat="45.8954100" lon="9.8334100">
	<ele>1617.60</ele>
	<time>2023-11-18T08:40:41.000Z</time>
</trkpt>
<trkpt lat="45.8954110" lon="9.8334260">
	<ele>1617.60</ele>
	<time>2023-11-18T08:40:42.000Z</time>
</trkpt>
<trkpt lat="45.8954110" lon="9.8334420">
	<ele>1617.80</ele>
	<time>2023-11-18T08:40:43.000Z</time>
</trkpt>
<trkpt lat="45.8954120" lon="9.8334600">
	<ele>1617.80</ele>
	<time>2023-11-18T08:40:44.000Z</time>
</trkpt>
<trkpt lat="45.8954150" lon="9.8334750">
	<ele>1617.80</ele>
	<time>2023-11-18T08:40:45.000Z</time>
</trkpt>
<trkpt lat="45.8954160" lon="9.8334880">
	<ele>1617.80</ele>
	<time>2023-11-18T08:40:46.000Z</time>
</trkpt>
<trkpt lat="45.8954170" lon="9.8335020">
	<ele>1617.80</ele>
	<time>2023-11-18T08:40:47.000Z</time>
</trkpt>
<trkpt lat="45.8954190" lon="9.8335140">
	<ele>1617.80</ele>
	<time>2023-11-18T08:40:48.000Z</time>
</trkpt>
<trkpt lat="45.8954210" lon="9.8335220">
	<ele>1617.80</ele>
	<time>2023-11-18T08:40:49.000Z</time>
</trkpt>
<trkpt lat="45.8954220" lon="9.8335250">
	<ele>1617.80</ele>
	<time>2023-11-18T08:40:50.000Z</time>
</trkpt>
<trkpt lat="45.8954220" lon="9.8335270">
	<ele>1618.00</ele>
	<time>2023-11-18T08:40:51.000Z</time>
</trkpt>
<trkpt lat="45.8954200" lon="9.8335310">
	<ele>1618.00</ele>
	<time>2023-11-18T08:40:52.000Z</time>
</trkpt>
<trkpt lat="45.8954200" lon="9.8335420">
	<ele>1618.20</ele>
	<time>2023-11-18T08:40:53.000Z</time>
</trkpt>
<trkpt lat="45.8954210" lon="9.8335540">
	<ele>1618.20</ele>
	<time>2023-11-18T08:40:54.000Z</time>
</trkpt>
<trkpt lat="45.8954230" lon="9.8335630">
	<ele>1618.20</ele>
	<time>2023-11-18T08:40:55.000Z</time>
</trkpt>
<trkpt lat="45.8954280" lon="9.8335720">
	<ele>1618.20</ele>
	<time>2023-11-18T08:40:56.000Z</time>
</trkpt>
<trkpt lat="45.8954300" lon="9.8335780">
	<ele>1618.40</ele>
	<time>2023-11-18T08:40:57.000Z</time>
</trkpt>
<trkpt lat="45.8954310" lon="9.8335810">
	<ele>1618.60</ele>
	<time>2023-11-18T08:40:58.000Z</time>
</trkpt>
<trkpt lat="45.8954310" lon="9.8335820">
	<ele>1618.60</ele>
	<time>2023-11-18T08:40:59.000Z</time>
</trkpt>
<trkpt lat="45.8954320" lon="9.8335820">
	<ele>1618.60</ele>
	<time>2023-11-18T08:41:00.000Z</time>
</trkpt>
<trkpt lat="45.8954320" lon="9.8335820">
	<ele>1618.60</ele>
	<time>2023-11-18T08:41:01.000Z</time>
</trkpt>
<trkpt lat="45.8954320" lon="9.8335860">
	<ele>1618.60</ele>
	<time>2023-11-18T08:41:02.000Z</time>
</trkpt>
<trkpt lat="45.8954310" lon="9.8335940">
	<ele>1618.60</ele>
	<time>2023-11-18T08:41:03.000Z</time>
</trkpt>
<trkpt lat="45.8954330" lon="9.8336000">
	<ele>1618.60</ele>
	<time>2023-11-18T08:41:04.000Z</time>
</trkpt>
<trkpt lat="45.8954360" lon="9.8336110">
	<ele>1618.60</ele>
	<time>2023-11-18T08:41:05.000Z</time>
</trkpt>
<trkpt lat="45.8954380" lon="9.8336160">
	<ele>1618.60</ele>
	<time>2023-11-18T08:41:06.000Z</time>
</trkpt>
<trkpt lat="45.8954420" lon="9.8336240">
	<ele>1618.80</ele>
	<time>2023-11-18T08:41:07.000Z</time>
</trkpt>
<trkpt lat="45.8954440" lon="9.8336340">
	<ele>1618.80</ele>
	<time>2023-11-18T08:41:08.000Z</time>
</trkpt>
<trkpt lat="45.8954460" lon="9.8336430">
	<ele>1618.80</ele>
	<time>2023-11-18T08:41:09.000Z</time>
</trkpt>
<trkpt lat="45.8954480" lon="9.8336520">
	<ele>1618.80</ele>
	<time>2023-11-18T08:41:10.000Z</time>
</trkpt>
<trkpt lat="45.8954500" lon="9.8336620">
	<ele>1618.80</ele>
	<time>2023-11-18T08:41:11.000Z</time>
</trkpt>
<trkpt lat="45.8954500" lon="9.8336690">
	<ele>1618.80</ele>
	<time>2023-11-18T08:41:12.000Z</time>
</trkpt>
<trkpt lat="45.8954520" lon="9.8336830">
	<ele>1619.00</ele>
	<time>2023-11-18T08:41:13.000Z</time>
</trkpt>
<trkpt lat="45.8954520" lon="9.8336950">
	<ele>1619.00</ele>
	<time>2023-11-18T08:41:14.000Z</time>
</trkpt>
<trkpt lat="45.8954540" lon="9.8337020">
	<ele>1619.20</ele>
	<time>2023-11-18T08:41:15.000Z</time>
</trkpt>
<trkpt lat="45.8954560" lon="9.8337080">
	<ele>1619.40</ele>
	<time>2023-11-18T08:41:16.000Z</time>
</trkpt>
<trkpt lat="45.8954580" lon="9.8337200">
	<ele>1619.40</ele>
	<time>2023-11-18T08:41:17.000Z</time>
</trkpt>
<trkpt lat="45.8954610" lon="9.8337300">
	<ele>1619.40</ele>
	<time>2023-11-18T08:41:18.000Z</time>
</trkpt>
<trkpt lat="45.8954630" lon="9.8337420">
	<ele>1619.60</ele>
	<time>2023-11-18T08:41:19.000Z</time>
</trkpt>
<trkpt lat="45.8954660" lon="9.8337520">
	<ele>1619.60</ele>
	<time>2023-11-18T08:41:20.000Z</time>
</trkpt>
<trkpt lat="45.8954660" lon="9.8337630">
	<ele>1619.60</ele>
	<time>2023-11-18T08:41:21.000Z</time>
</trkpt>
<trkpt lat="45.8954670" lon="9.8337760">
	<ele>1619.80</ele>
	<time>2023-11-18T08:41:22.000Z</time>
</trkpt>
<trkpt lat="45.8954680" lon="9.8337840">
	<ele>1619.80</ele>
	<time>2023-11-18T08:41:23.000Z</time>
</trkpt>
<trkpt lat="45.8954700" lon="9.8337910">
	<ele>1620.00</ele>
	<time>2023-11-18T08:41:24.000Z</time>
</trkpt>
<trkpt lat="45.8954720" lon="9.8337990">
	<ele>1620.00</ele>
	<time>2023-11-18T08:41:25.000Z</time>
</trkpt>
<trkpt lat="45.8954730" lon="9.8338040">
	<ele>1620.20</ele>
	<time>2023-11-18T08:41:26.000Z</time>
</trkpt>
<trkpt lat="45.8954740" lon="9.8338120">
	<ele>1620.20</ele>
	<time>2023-11-18T08:41:27.000Z</time>
</trkpt>
<trkpt lat="45.8954750" lon="9.8338170">
	<ele>1620.20</ele>
	<time>2023-11-18T08:41:28.000Z</time>
</trkpt>
<trkpt lat="45.8954790" lon="9.8338200">
	<ele>1620.20</ele>
	<time>2023-11-18T08:41:29.000Z</time>
</trkpt>
<trkpt lat="45.8954810" lon="9.8338230">
	<ele>1620.40</ele>
	<time>2023-11-18T08:41:30.000Z</time>
</trkpt>
<trkpt lat="45.8954820" lon="9.8338250">
	<ele>1620.40</ele>
	<time>2023-11-18T08:41:31.000Z</time>
</trkpt>
<trkpt lat="45.8954800" lon="9.8338300">
	<ele>1620.40</ele>
	<time>2023-11-18T08:41:32.000Z</time>
</trkpt>
<trkpt lat="45.8954810" lon="9.8338370">
	<ele>1620.40</ele>
	<time>2023-11-18T08:41:33.000Z</time>
</trkpt>
<trkpt lat="45.8954790" lon="9.8338490">
	<ele>1620.40</ele>
	<time>2023-11-18T08:41:34.000Z</time>
</trkpt>
<trkpt lat="45.8954780" lon="9.8338620">
	<ele>1620.40</ele>
	<time>2023-11-18T08:41:35.000Z</time>
</trkpt>
<trkpt lat="45.8954790" lon="9.8338720">
	<ele>1620.60</ele>
	<time>2023-11-18T08:41:36.000Z</time>
</trkpt>
<trkpt lat="45.8954800" lon="9.8338800">
	<ele>1620.80</ele>
	<time>2023-11-18T08:41:37.000Z</time>
</trkpt>
<trkpt lat="45.8954820" lon="9.8338890">
	<ele>1621.00</ele>
	<time>2023-11-18T08:41:38.000Z</time>
</trkpt>
<trkpt lat="45.8954810" lon="9.8338970">
	<ele>1621.00</ele>
	<time>2023-11-18T08:41:39.000Z</time>
</trkpt>
<trkpt lat="45.8954790" lon="9.8339060">
	<ele>1621.20</ele>
	<time>2023-11-18T08:41:40.000Z</time>
</trkpt>
<trkpt lat="45.8954810" lon="9.8339170">
	<ele>1621.20</ele>
	<time>2023-11-18T08:41:41.000Z</time>
</trkpt>
<trkpt lat="45.8954830" lon="9.8339270">
	<ele>1621.20</ele>
	<time>2023-11-18T08:41:42.000Z</time>
</trkpt>
<trkpt lat="45.8954870" lon="9.8339350">
	<ele>1621.20</ele>
	<time>2023-11-18T08:41:43.000Z</time>
</trkpt>
<trkpt lat="45.8954900" lon="9.8339410">
	<ele>1621.40</ele>
	<time>2023-11-18T08:41:44.000Z</time>
</trkpt>
<trkpt lat="45.8954930" lon="9.8339500">
	<ele>1621.40</ele>
	<time>2023-11-18T08:41:45.000Z</time>
</trkpt>
<trkpt lat="45.8954970" lon="9.8339570">
	<ele>1621.60</ele>
	<time>2023-11-18T08:41:46.000Z</time>
</trkpt>
<trkpt lat="45.8954990" lon="9.8339630">
	<ele>1621.80</ele>
	<time>2023-11-18T08:41:47.000Z</time>
</trkpt>
<trkpt lat="45.8955010" lon="9.8339690">
	<ele>1621.80</ele>
	<time>2023-11-18T08:41:48.000Z</time>
</trkpt>
<trkpt lat="45.8955020" lon="9.8339750">
	<ele>1622.00</ele>
	<time>2023-11-18T08:41:49.000Z</time>
</trkpt>
<trkpt lat="45.8955020" lon="9.8339870">
	<ele>1622.20</ele>
	<time>2023-11-18T08:41:50.000Z</time>
</trkpt>
<trkpt lat="45.8954980" lon="9.8339940">
	<ele>1622.40</ele>
	<time>2023-11-18T08:41:51.000Z</time>
</trkpt>
<trkpt lat="45.8954980" lon="9.8340000">
	<ele>1622.40</ele>
	<time>2023-11-18T08:41:52.000Z</time>
</trkpt>
<trkpt lat="45.8954960" lon="9.8340110">
	<ele>1622.60</ele>
	<time>2023-11-18T08:41:53.000Z</time>
</trkpt>
<trkpt lat="45.8954940" lon="9.8340260">
	<ele>1622.40</ele>
	<time>2023-11-18T08:41:54.000Z</time>
</trkpt>
<trkpt lat="45.8954930" lon="9.8340430">
	<ele>1622.40</ele>
	<time>2023-11-18T08:41:55.000Z</time>
</trkpt>
<trkpt lat="45.8954920" lon="9.8340630">
	<ele>1622.40</ele>
	<time>2023-11-18T08:41:56.000Z</time>
</trkpt>
<trkpt lat="45.8954910" lon="9.8340790">
	<ele>1622.40</ele>
	<time>2023-11-18T08:41:57.000Z</time>
</trkpt>
<trkpt lat="45.8954880" lon="9.8340940">
	<ele>1622.40</ele>
	<time>2023-11-18T08:41:58.000Z</time>
</trkpt>
<trkpt lat="45.8954890" lon="9.8341100">
	<ele>1622.40</ele>
	<time>2023-11-18T08:41:59.000Z</time>
</trkpt>
<trkpt lat="45.8954890" lon="9.8341230">
	<ele>1622.40</ele>
	<time>2023-11-18T08:42:00.000Z</time>
</trkpt>
<trkpt lat="45.8954870" lon="9.8341380">
	<ele>1622.40</ele>
	<time>2023-11-18T08:42:01.000Z</time>
</trkpt>
<trkpt lat="45.8954850" lon="9.8341540">
	<ele>1622.60</ele>
	<time>2023-11-18T08:42:02.000Z</time>
</trkpt>
<trkpt lat="45.8954840" lon="9.8341690">
	<ele>1622.60</ele>
	<time>2023-11-18T08:42:03.000Z</time>
</trkpt>
<trkpt lat="45.8954820" lon="9.8341820">
	<ele>1622.80</ele>
	<time>2023-11-18T08:42:04.000Z</time>
</trkpt>
<trkpt lat="45.8954810" lon="9.8342020">
	<ele>1622.80</ele>
	<time>2023-11-18T08:42:05.000Z</time>
</trkpt>
<trkpt lat="45.8954800" lon="9.8342180">
	<ele>1622.80</ele>
	<time>2023-11-18T08:42:06.000Z</time>
</trkpt>
<trkpt lat="45.8954830" lon="9.8342310">
	<ele>1622.80</ele>
	<time>2023-11-18T08:42:07.000Z</time>
</trkpt>
<trkpt lat="45.8954870" lon="9.8342430">
	<ele>1623.00</ele>
	<time>2023-11-18T08:42:08.000Z</time>
</trkpt>
<trkpt lat="45.8954920" lon="9.8342550">
	<ele>1623.00</ele>
	<time>2023-11-18T08:42:09.000Z</time>
</trkpt>
<trkpt lat="45.8954970" lon="9.8342660">
	<ele>1623.00</ele>
	<time>2023-11-18T08:42:10.000Z</time>
</trkpt>
<trkpt lat="45.8954980" lon="9.8342730">
	<ele>1623.00</ele>
	<time>2023-11-18T08:42:11.000Z</time>
</trkpt>
<trkpt lat="45.8955000" lon="9.8342790">
	<ele>1623.20</ele>
	<time>2023-11-18T08:42:12.000Z</time>
</trkpt>
<trkpt lat="45.8955010" lon="9.8342880">
	<ele>1623.20</ele>
	<time>2023-11-18T08:42:13.000Z</time>
</trkpt>
<trkpt lat="45.8955030" lon="9.8343000">
	<ele>1623.40</ele>
	<time>2023-11-18T08:42:14.000Z</time>
</trkpt>
<trkpt lat="45.8955060" lon="9.8343100">
	<ele>1623.40</ele>
	<time>2023-11-18T08:42:15.000Z</time>
</trkpt>
<trkpt lat="45.8955070" lon="9.8343170">
	<ele>1623.40</ele>
	<time>2023-11-18T08:42:16.000Z</time>
</trkpt>
<trkpt lat="45.8955080" lon="9.8343250">
	<ele>1623.60</ele>
	<time>2023-11-18T08:42:17.000Z</time>
</trkpt>
<trkpt lat="45.8955050" lon="9.8343320">
	<ele>1623.80</ele>
	<time>2023-11-18T08:42:18.000Z</time>
</trkpt>
<trkpt lat="45.8955040" lon="9.8343420">
	<ele>1624.00</ele>
	<time>2023-11-18T08:42:19.000Z</time>
</trkpt>
<trkpt lat="45.8955060" lon="9.8343510">
	<ele>1624.00</ele>
	<time>2023-11-18T08:42:20.000Z</time>
</trkpt>
<trkpt lat="45.8955060" lon="9.8343640">
	<ele>1624.20</ele>
	<time>2023-11-18T08:42:21.000Z</time>
</trkpt>
<trkpt lat="45.8955060" lon="9.8343780">
	<ele>1624.40</ele>
	<time>2023-11-18T08:42:22.000Z</time>
</trkpt>
<trkpt lat="45.8955060" lon="9.8343920">
	<ele>1624.40</ele>
	<time>2023-11-18T08:42:23.000Z</time>
</trkpt>
<trkpt lat="45.8955070" lon="9.8344030">
	<ele>1624.40</ele>
	<time>2023-11-18T08:42:24.000Z</time>
</trkpt>
<trkpt lat="45.8955080" lon="9.8344140">
	<ele>1624.40</ele>
	<time>2023-11-18T08:42:25.000Z</time>
</trkpt>
<trkpt lat="45.8955100" lon="9.8344270">
	<ele>1624.40</ele>
	<time>2023-11-18T08:42:26.000Z</time>
</trkpt>
<trkpt lat="45.8955110" lon="9.8344400">
	<ele>1624.60</ele>
	<time>2023-11-18T08:42:27.000Z</time>
</trkpt>
<trkpt lat="45.8955110" lon="9.8344520">
	<ele>1624.60</ele>
	<time>2023-11-18T08:42:28.000Z</time>
</trkpt>
<trkpt lat="45.8955110" lon="9.8344610">
	<ele>1624.80</ele>
	<time>2023-11-18T08:42:29.000Z</time>
</trkpt>
<trkpt lat="45.8955120" lon="9.8344690">
	<ele>1624.80</ele>
	<time>2023-11-18T08:42:30.000Z</time>
</trkpt>
<trkpt lat="45.8955140" lon="9.8344780">
	<ele>1625.00</ele>
	<time>2023-11-18T08:42:31.000Z</time>
</trkpt>
<trkpt lat="45.8955140" lon="9.8344900">
	<ele>1625.00</ele>
	<time>2023-11-18T08:42:32.000Z</time>
</trkpt>
<trkpt lat="45.8955140" lon="9.8345020">
	<ele>1625.00</ele>
	<time>2023-11-18T08:42:33.000Z</time>
</trkpt>
<trkpt lat="45.8955160" lon="9.8345180">
	<ele>1625.20</ele>
	<time>2023-11-18T08:42:34.000Z</time>
</trkpt>
<trkpt lat="45.8955140" lon="9.8345320">
	<ele>1625.20</ele>
	<time>2023-11-18T08:42:35.000Z</time>
</trkpt>
<trkpt lat="45.8955130" lon="9.8345460">
	<ele>1625.40</ele>
	<time>2023-11-18T08:42:36.000Z</time>
</trkpt>
<trkpt lat="45.8955130" lon="9.8345600">
	<ele>1625.40</ele>
	<time>2023-11-18T08:42:37.000Z</time>
</trkpt>
<trkpt lat="45.8955130" lon="9.8345730">
	<ele>1625.40</ele>
	<time>2023-11-18T08:42:38.000Z</time>
</trkpt>
<trkpt lat="45.8955160" lon="9.8345840">
	<ele>1625.60</ele>
	<time>2023-11-18T08:42:39.000Z</time>
</trkpt>
<trkpt lat="45.8955200" lon="9.8345920">
	<ele>1625.80</ele>
	<time>2023-11-18T08:42:40.000Z</time>
</trkpt>
<trkpt lat="45.8955220" lon="9.8345980">
	<ele>1625.80</ele>
	<time>2023-11-18T08:42:41.000Z</time>
</trkpt>
<trkpt lat="45.8955230" lon="9.8346080">
	<ele>1626.00</ele>
	<time>2023-11-18T08:42:42.000Z</time>
</trkpt>
<trkpt lat="45.8955220" lon="9.8346200">
	<ele>1626.00</ele>
	<time>2023-11-18T08:42:43.000Z</time>
</trkpt>
<trkpt lat="45.8955210" lon="9.8346340">
	<ele>1626.20</ele>
	<time>2023-11-18T08:42:44.000Z</time>
</trkpt>
<trkpt lat="45.8955190" lon="9.8346480">
	<ele>1626.20</ele>
	<time>2023-11-18T08:42:45.000Z</time>
</trkpt>
<trkpt lat="45.8955190" lon="9.8346620">
	<ele>1626.20</ele>
	<time>2023-11-18T08:42:46.000Z</time>
</trkpt>
<trkpt lat="45.8955180" lon="9.8346760">
	<ele>1626.20</ele>
	<time>2023-11-18T08:42:47.000Z</time>
</trkpt>
<trkpt lat="45.8955180" lon="9.8346890">
	<ele>1626.40</ele>
	<time>2023-11-18T08:42:48.000Z</time>
</trkpt>
<trkpt lat="45.8955190" lon="9.8347030">
	<ele>1626.40</ele>
	<time>2023-11-18T08:42:49.000Z</time>
</trkpt>
<trkpt lat="45.8955190" lon="9.8347160">
	<ele>1626.40</ele>
	<time>2023-11-18T08:42:50.000Z</time>
</trkpt>
<trkpt lat="45.8955200" lon="9.8347270">
	<ele>1626.40</ele>
	<time>2023-11-18T08:42:51.000Z</time>
</trkpt>
<trkpt lat="45.8955210" lon="9.8347400">
	<ele>1626.60</ele>
	<time>2023-11-18T08:42:52.000Z</time>
</trkpt>
<trkpt lat="45.8955200" lon="9.8347520">
	<ele>1626.80</ele>
	<time>2023-11-18T08:42:53.000Z</time>
</trkpt>
<trkpt lat="45.8955180" lon="9.8347680">
	<ele>1626.80</ele>
	<time>2023-11-18T08:42:54.000Z</time>
</trkpt>
<trkpt lat="45.8955150" lon="9.8347830">
	<ele>1627.00</ele>
	<time>2023-11-18T08:42:55.000Z</time>
</trkpt>
<trkpt lat="45.8955130" lon="9.8347990">
	<ele>1627.00</ele>
	<time>2023-11-18T08:42:56.000Z</time>
</trkpt>
<trkpt lat="45.8955120" lon="9.8348130">
	<ele>1627.20</ele>
	<time>2023-11-18T08:42:57.000Z</time>
</trkpt>
<trkpt lat="45.8955110" lon="9.8348230">
	<ele>1627.40</ele>
	<time>2023-11-18T08:42:58.000Z</time>
</trkpt>
<trkpt lat="45.8955100" lon="9.8348300">
	<ele>1627.40</ele>
	<time>2023-11-18T08:42:59.000Z</time>
</trkpt>
<trkpt lat="45.8955090" lon="9.8348440">
	<ele>1627.80</ele>
	<time>2023-11-18T08:43:00.000Z</time>
</trkpt>
<trkpt lat="45.8955110" lon="9.8348600">
	<ele>1628.00</ele>
	<time>2023-11-18T08:43:01.000Z</time>
</trkpt>
<trkpt lat="45.8955140" lon="9.8348690">
	<ele>1628.00</ele>
	<time>2023-11-18T08:43:02.000Z</time>
</trkpt>
<trkpt lat="45.8955150" lon="9.8348770">
	<ele>1628.20</ele>
	<time>2023-11-18T08:43:03.000Z</time>
</trkpt>
<trkpt lat="45.8955130" lon="9.8348890">
	<ele>1628.20</ele>
	<time>2023-11-18T08:43:04.000Z</time>
</trkpt>
<trkpt lat="45.8955110" lon="9.8349030">
	<ele>1628.20</ele>
	<time>2023-11-18T08:43:05.000Z</time>
</trkpt>
<trkpt lat="45.8955110" lon="9.8349160">
	<ele>1628.20</ele>
	<time>2023-11-18T08:43:06.000Z</time>
</trkpt>
<trkpt lat="45.8955140" lon="9.8349270">
	<ele>1628.20</ele>
	<time>2023-11-18T08:43:07.000Z</time>
</trkpt>
<trkpt lat="45.8955170" lon="9.8349370">
	<ele>1628.20</ele>
	<time>2023-11-18T08:43:08.000Z</time>
</trkpt>
<trkpt lat="45.8955170" lon="9.8349500">
	<ele>1628.20</ele>
	<time>2023-11-18T08:43:09.000Z</time>
</trkpt>
<trkpt lat="45.8955160" lon="9.8349630">
	<ele>1628.20</ele>
	<time>2023-11-18T08:43:10.000Z</time>
</trkpt>
<trkpt lat="45.8955150" lon="9.8349750">
	<ele>1628.20</ele>
	<time>2023-11-18T08:43:11.000Z</time>
</trkpt>
<trkpt lat="45.8955130" lon="9.8349860">
	<ele>1628.20</ele>
	<time>2023-11-18T08:43:12.000Z</time>
</trkpt>
<trkpt lat="45.8955130" lon="9.8350020">
	<ele>1628.20</ele>
	<time>2023-11-18T08:43:13.000Z</time>
</trkpt>
<trkpt lat="45.8955130" lon="9.8350150">
	<ele>1628.20</ele>
	<time>2023-11-18T08:43:14.000Z</time>
</trkpt>
<trkpt lat="45.8955120" lon="9.8350290">
	<ele>1628.20</ele>
	<time>2023-11-18T08:43:15.000Z</time>
</trkpt>
<trkpt lat="45.8955120" lon="9.8350430">
	<ele>1628.20</ele>
	<time>2023-11-18T08:43:16.000Z</time>
</trkpt>
<trkpt lat="45.8955120" lon="9.8350430">
	<ele>1628.20</ele>
	<time>2023-11-18T08:43:17.000Z</time>
</trkpt>
<trkpt lat="45.8955130" lon="9.8350660">
	<ele>1628.40</ele>
	<time>2023-11-18T08:43:18.000Z</time>
</trkpt>
<trkpt lat="45.8955110" lon="9.8350800">
	<ele>1628.60</ele>
	<time>2023-11-18T08:43:19.000Z</time>
</trkpt>
<trkpt lat="45.8955110" lon="9.8350940">
	<ele>1628.60</ele>
	<time>2023-11-18T08:43:20.000Z</time>
</trkpt>
<trkpt lat="45.8955110" lon="9.8351090">
	<ele>1628.80</ele>
	<time>2023-11-18T08:43:21.000Z</time>
</trkpt>
<trkpt lat="45.8955110" lon="9.8351220">
	<ele>1628.80</ele>
	<time>2023-11-18T08:43:22.000Z</time>
</trkpt>
<trkpt lat="45.8955090" lon="9.8351350">
	<ele>1628.80</ele>
	<time>2023-11-18T08:43:23.000Z</time>
</trkpt>
<trkpt lat="45.8955090" lon="9.8351470">
	<ele>1629.00</ele>
	<time>2023-11-18T08:43:24.000Z</time>
</trkpt>
<trkpt lat="45.8955090" lon="9.8351580">
	<ele>1629.00</ele>
	<time>2023-11-18T08:43:25.000Z</time>
</trkpt>
<trkpt lat="45.8955090" lon="9.8351680">
	<ele>1629.20</ele>
	<time>2023-11-18T08:43:26.000Z</time>
</trkpt>
<trkpt lat="45.8955090" lon="9.8351790">
	<ele>1629.20</ele>
	<time>2023-11-18T08:43:27.000Z</time>
</trkpt>
<trkpt lat="45.8955110" lon="9.8351890">
	<ele>1629.40</ele>
	<time>2023-11-18T08:43:28.000Z</time>
</trkpt>
<trkpt lat="45.8955100" lon="9.8352010">
	<ele>1629.40</ele>
	<time>2023-11-18T08:43:29.000Z</time>
</trkpt>
<trkpt lat="45.8955100" lon="9.8352110">
	<ele>1629.80</ele>
	<time>2023-11-18T08:43:30.000Z</time>
</trkpt>
<trkpt lat="45.8955120" lon="9.8352180">
	<ele>1629.80</ele>
	<time>2023-11-18T08:43:31.000Z</time>
</trkpt>
<trkpt lat="45.8955140" lon="9.8352270">
	<ele>1630.00</ele>
	<time>2023-11-18T08:43:32.000Z</time>
</trkpt>
<trkpt lat="45.8955180" lon="9.8352350">
	<ele>1630.20</ele>
	<time>2023-11-18T08:43:33.000Z</time>
</trkpt>
<trkpt lat="45.8955190" lon="9.8352450">
	<ele>1630.40</ele>
	<time>2023-11-18T08:43:34.000Z</time>
</trkpt>
<trkpt lat="45.8955170" lon="9.8352550">
	<ele>1630.40</ele>
	<time>2023-11-18T08:43:35.000Z</time>
</trkpt>
<trkpt lat="45.8955150" lon="9.8352660">
	<ele>1630.40</ele>
	<time>2023-11-18T08:43:36.000Z</time>
</trkpt>
<trkpt lat="45.8955130" lon="9.8352770">
	<ele>1630.60</ele>
	<time>2023-11-18T08:43:37.000Z</time>
</trkpt>
<trkpt lat="45.8955100" lon="9.8352900">
	<ele>1630.60</ele>
	<time>2023-11-18T08:43:38.000Z</time>
</trkpt>
<trkpt lat="45.8955080" lon="9.8353020">
	<ele>1630.80</ele>
	<time>2023-11-18T08:43:39.000Z</time>
</trkpt>
<trkpt lat="45.8955070" lon="9.8353150">
	<ele>1630.80</ele>
	<time>2023-11-18T08:43:40.000Z</time>
</trkpt>
<trkpt lat="45.8955070" lon="9.8353280">
	<ele>1630.80</ele>
	<time>2023-11-18T08:43:41.000Z</time>
</trkpt>
<trkpt lat="45.8955070" lon="9.8353440">
	<ele>1630.80</ele>
	<time>2023-11-18T08:43:42.000Z</time>
</trkpt>
<trkpt lat="45.8955090" lon="9.8353570">
	<ele>1631.00</ele>
	<time>2023-11-18T08:43:43.000Z</time>
</trkpt>
<trkpt lat="45.8955110" lon="9.8353670">
	<ele>1631.00</ele>
	<time>2023-11-18T08:43:44.000Z</time>
</trkpt>
<trkpt lat="45.8955120" lon="9.8353750">
	<ele>1631.00</ele>
	<time>2023-11-18T08:43:45.000Z</time>
</trkpt>
<trkpt lat="45.8955150" lon="9.8353890">
	<ele>1631.20</ele>
	<time>2023-11-18T08:43:46.000Z</time>
</trkpt>
<trkpt lat="45.8955150" lon="9.8354000">
	<ele>1631.20</ele>
	<time>2023-11-18T08:43:47.000Z</time>
</trkpt>
<trkpt lat="45.8955140" lon="9.8354120">
	<ele>1631.20</ele>
	<time>2023-11-18T08:43:48.000Z</time>
</trkpt>
<trkpt lat="45.8955090" lon="9.8354240">
	<ele>1631.20</ele>
	<time>2023-11-18T08:43:49.000Z</time>
</trkpt>
<trkpt lat="45.8955050" lon="9.8354360">
	<ele>1631.40</ele>
	<time>2023-11-18T08:43:50.000Z</time>
</trkpt>
<trkpt lat="45.8955030" lon="9.8354460">
	<ele>1631.60</ele>
	<time>2023-11-18T08:43:51.000Z</time>
</trkpt>
<trkpt lat="45.8955020" lon="9.8354570">
	<ele>1631.40</ele>
	<time>2023-11-18T08:43:52.000Z</time>
</trkpt>
<trkpt lat="45.8955010" lon="9.8354700">
	<ele>1631.40</ele>
	<time>2023-11-18T08:43:53.000Z</time>
</trkpt>
<trkpt lat="45.8954990" lon="9.8354840">
	<ele>1631.40</ele>
	<time>2023-11-18T08:43:54.000Z</time>
</trkpt>
<trkpt lat="45.8954980" lon="9.8354980">
	<ele>1631.60</ele>
	<time>2023-11-18T08:43:55.000Z</time>
</trkpt>
<trkpt lat="45.8954980" lon="9.8355100">
	<ele>1631.60</ele>
	<time>2023-11-18T08:43:56.000Z</time>
</trkpt>
<trkpt lat="45.8954970" lon="9.8355220">
	<ele>1631.60</ele>
	<time>2023-11-18T08:43:57.000Z</time>
</trkpt>
<trkpt lat="45.8954980" lon="9.8355330">
	<ele>1631.60</ele>
	<time>2023-11-18T08:43:58.000Z</time>
</trkpt>
<trkpt lat="45.8955010" lon="9.8355440">
	<ele>1631.80</ele>
	<time>2023-11-18T08:43:59.000Z</time>
</trkpt>
<trkpt lat="45.8955030" lon="9.8355540">
	<ele>1631.80</ele>
	<time>2023-11-18T08:44:00.000Z</time>
</trkpt>
<trkpt lat="45.8955050" lon="9.8355650">
	<ele>1632.00</ele>
	<time>2023-11-18T08:44:01.000Z</time>
</trkpt>
<trkpt lat="45.8955090" lon="9.8355770">
	<ele>1632.00</ele>
	<time>2023-11-18T08:44:02.000Z</time>
</trkpt>
<trkpt lat="45.8955120" lon="9.8355840">
	<ele>1632.00</ele>
	<time>2023-11-18T08:44:03.000Z</time>
</trkpt>
<trkpt lat="45.8955140" lon="9.8355910">
	<ele>1632.20</ele>
	<time>2023-11-18T08:44:04.000Z</time>
</trkpt>
<trkpt lat="45.8955170" lon="9.8355990">
	<ele>1632.40</ele>
	<time>2023-11-18T08:44:05.000Z</time>
</trkpt>
<trkpt lat="45.8955180" lon="9.8356080">
	<ele>1632.40</ele>
	<time>2023-11-18T08:44:06.000Z</time>
</trkpt>
<trkpt lat="45.8955180" lon="9.8356170">
	<ele>1632.60</ele>
	<time>2023-11-18T08:44:07.000Z</time>
</trkpt>
<trkpt lat="45.8955160" lon="9.8356260">
	<ele>1632.60</ele>
	<time>2023-11-18T08:44:08.000Z</time>
</trkpt>
<trkpt lat="45.8955150" lon="9.8356360">
	<ele>1632.80</ele>
	<time>2023-11-18T08:44:09.000Z</time>
</trkpt>
<trkpt lat="45.8955150" lon="9.8356510">
	<ele>1632.80</ele>
	<time>2023-11-18T08:44:10.000Z</time>
</trkpt>
<trkpt lat="45.8955160" lon="9.8356670">
	<ele>1633.00</ele>
	<time>2023-11-18T08:44:11.000Z</time>
</trkpt>
<trkpt lat="45.8955180" lon="9.8356740">
	<ele>1633.00</ele>
	<time>2023-11-18T08:44:12.000Z</time>
</trkpt>
<trkpt lat="45.8955190" lon="9.8356800">
	<ele>1633.00</ele>
	<time>2023-11-18T08:44:13.000Z</time>
</trkpt>
<trkpt lat="45.8955200" lon="9.8356860">
	<ele>1633.20</ele>
	<time>2023-11-18T08:44:14.000Z</time>
</trkpt>
<trkpt lat="45.8955200" lon="9.8356910">
	<ele>1633.40</ele>
	<time>2023-11-18T08:44:15.000Z</time>
</trkpt>
<trkpt lat="45.8955210" lon="9.8356990">
	<ele>1633.60</ele>
	<time>2023-11-18T08:44:16.000Z</time>
</trkpt>
<trkpt lat="45.8955210" lon="9.8357070">
	<ele>1633.80</ele>
	<time>2023-11-18T08:44:17.000Z</time>
</trkpt>
<trkpt lat="45.8955200" lon="9.8357150">
	<ele>1634.00</ele>
	<time>2023-11-18T08:44:18.000Z</time>
</trkpt>
<trkpt lat="45.8955180" lon="9.8357220">
	<ele>1634.00</ele>
	<time>2023-11-18T08:44:19.000Z</time>
</trkpt>
<trkpt lat="45.8955190" lon="9.8357320">
	<ele>1634.00</ele>
	<time>2023-11-18T08:44:20.000Z</time>
</trkpt>
<trkpt lat="45.8955200" lon="9.8357410">
	<ele>1634.00</ele>
	<time>2023-11-18T08:44:21.000Z</time>
</trkpt>
<trkpt lat="45.8955240" lon="9.8357490">
	<ele>1634.00</ele>
	<time>2023-11-18T08:44:22.000Z</time>
</trkpt>
<trkpt lat="45.8955250" lon="9.8357560">
	<ele>1634.20</ele>
	<time>2023-11-18T08:44:23.000Z</time>
</trkpt>
<trkpt lat="45.8955270" lon="9.8357610">
	<ele>1634.40</ele>
	<time>2023-11-18T08:44:24.000Z</time>
</trkpt>
<trkpt lat="45.8955270" lon="9.8357680">
	<ele>1634.60</ele>
	<time>2023-11-18T08:44:25.000Z</time>
</trkpt>
<trkpt lat="45.8955270" lon="9.8357810">
	<ele>1634.60</ele>
	<time>2023-11-18T08:44:26.000Z</time>
</trkpt>
<trkpt lat="45.8955300" lon="9.8357910">
	<ele>1634.60</ele>
	<time>2023-11-18T08:44:27.000Z</time>
</trkpt>
<trkpt lat="45.8955320" lon="9.8358020">
	<ele>1635.00</ele>
	<time>2023-11-18T08:44:28.000Z</time>
</trkpt>
<trkpt lat="45.8955300" lon="9.8358130">
	<ele>1635.00</ele>
	<time>2023-11-18T08:44:29.000Z</time>
</trkpt>
<trkpt lat="45.8955290" lon="9.8358220">
	<ele>1635.20</ele>
	<time>2023-11-18T08:44:30.000Z</time>
</trkpt>
<trkpt lat="45.8955300" lon="9.8358340">
	<ele>1635.20</ele>
	<time>2023-11-18T08:44:31.000Z</time>
</trkpt>
<trkpt lat="45.8955320" lon="9.8358450">
	<ele>1635.20</ele>
	<time>2023-11-18T08:44:32.000Z</time>
</trkpt>
<trkpt lat="45.8955330" lon="9.8358540">
	<ele>1635.40</ele>
	<time>2023-11-18T08:44:33.000Z</time>
</trkpt>
<trkpt lat="45.8955330" lon="9.8358650">
	<ele>1635.40</ele>
	<time>2023-11-18T08:44:34.000Z</time>
</trkpt>
<trkpt lat="45.8955330" lon="9.8358750">
	<ele>1635.40</ele>
	<time>2023-11-18T08:44:35.000Z</time>
</trkpt>
<trkpt lat="45.8955330" lon="9.8358850">
	<ele>1635.60</ele>
	<time>2023-11-18T08:44:36.000Z</time>
</trkpt>
<trkpt lat="45.8955320" lon="9.8358950">
	<ele>1635.80</ele>
	<time>2023-11-18T08:44:37.000Z</time>
</trkpt>
<trkpt lat="45.8955310" lon="9.8359070">
	<ele>1635.80</ele>
	<time>2023-11-18T08:44:38.000Z</time>
</trkpt>
<trkpt lat="45.8955330" lon="9.8359150">
	<ele>1636.00</ele>
	<time>2023-11-18T08:44:39.000Z</time>
</trkpt>
<trkpt lat="45.8955350" lon="9.8359210">
	<ele>1636.20</ele>
	<time>2023-11-18T08:44:40.000Z</time>
</trkpt>
<trkpt lat="45.8955360" lon="9.8359240">
	<ele>1636.40</ele>
	<time>2023-11-18T08:44:41.000Z</time>
</trkpt>
<trkpt lat="45.8955340" lon="9.8359320">
	<ele>1636.60</ele>
	<time>2023-11-18T08:44:42.000Z</time>
</trkpt>
<trkpt lat="45.8955320" lon="9.8359410">
	<ele>1636.80</ele>
	<time>2023-11-18T08:44:43.000Z</time>
</trkpt>
<trkpt lat="45.8955330" lon="9.8359480">
	<ele>1637.00</ele>
	<time>2023-11-18T08:44:44.000Z</time>
</trkpt>
<trkpt lat="45.8955330" lon="9.8359550">
	<ele>1637.00</ele>
	<time>2023-11-18T08:44:45.000Z</time>
</trkpt>
<trkpt lat="45.8955330" lon="9.8359640">
	<ele>1637.20</ele>
	<time>2023-11-18T08:44:46.000Z</time>
</trkpt>
<trkpt lat="45.8955330" lon="9.8359750">
	<ele>1637.40</ele>
	<time>2023-11-18T08:44:47.000Z</time>
</trkpt>
<trkpt lat="45.8955340" lon="9.8359820">
	<ele>1637.40</ele>
	<time>2023-11-18T08:44:48.000Z</time>
</trkpt>
<trkpt lat="45.8955340" lon="9.8359930">
	<ele>1637.60</ele>
	<time>2023-11-18T08:44:49.000Z</time>
</trkpt>
<trkpt lat="45.8955330" lon="9.8360040">
	<ele>1637.60</ele>
	<time>2023-11-18T08:44:50.000Z</time>
</trkpt>
<trkpt lat="45.8955350" lon="9.8360100">
	<ele>1637.80</ele>
	<time>2023-11-18T08:44:51.000Z</time>
</trkpt>
<trkpt lat="45.8955370" lon="9.8360160">
	<ele>1637.80</ele>
	<time>2023-11-18T08:44:52.000Z</time>
</trkpt>
<trkpt lat="45.8955370" lon="9.8360250">
	<ele>1638.00</ele>
	<time>2023-11-18T08:44:53.000Z</time>
</trkpt>
<trkpt lat="45.8955360" lon="9.8360370">
	<ele>1638.00</ele>
	<time>2023-11-18T08:44:54.000Z</time>
</trkpt>
<trkpt lat="45.8955350" lon="9.8360490">
	<ele>1638.20</ele>
	<time>2023-11-18T08:44:55.000Z</time>
</trkpt>
<trkpt lat="45.8955320" lon="9.8360630">
	<ele>1638.40</ele>
	<time>2023-11-18T08:44:56.000Z</time>
</trkpt>
<trkpt lat="45.8955320" lon="9.8360710">
	<ele>1638.40</ele>
	<time>2023-11-18T08:44:57.000Z</time>
</trkpt>
<trkpt lat="45.8955310" lon="9.8360800">
	<ele>1638.60</ele>
	<time>2023-11-18T08:44:58.000Z</time>
</trkpt>
<trkpt lat="45.8955330" lon="9.8360880">
	<ele>1638.80</ele>
	<time>2023-11-18T08:44:59.000Z</time>
</trkpt>
<trkpt lat="45.8955340" lon="9.8360930">
	<ele>1639.00</ele>
	<time>2023-11-18T08:45:00.000Z</time>
</trkpt>
<trkpt lat="45.8955340" lon="9.8360990">
	<ele>1639.20</ele>
	<time>2023-11-18T08:45:01.000Z</time>
</trkpt>
<trkpt lat="45.8955330" lon="9.8361080">
	<ele>1639.40</ele>
	<time>2023-11-18T08:45:02.000Z</time>
</trkpt>
<trkpt lat="45.8955390" lon="9.8361140">
	<ele>1639.60</ele>
	<time>2023-11-18T08:45:03.000Z</time>
</trkpt>
<trkpt lat="45.8955420" lon="9.8361150">
	<ele>1639.80</ele>
	<time>2023-11-18T08:45:04.000Z</time>
</trkpt>
<trkpt lat="45.8955480" lon="9.8361140">
	<ele>1640.00</ele>
	<time>2023-11-18T08:45:05.000Z</time>
</trkpt>
<trkpt lat="45.8955520" lon="9.8361130">
	<ele>1640.00</ele>
	<time>2023-11-18T08:45:06.000Z</time>
</trkpt>
<trkpt lat="45.8955570" lon="9.8361110">
	<ele>1640.20</ele>
	<time>2023-11-18T08:45:07.000Z</time>
</trkpt>
<trkpt lat="45.8955630" lon="9.8361110">
	<ele>1640.60</ele>
	<time>2023-11-18T08:45:08.000Z</time>
</trkpt>
<trkpt lat="45.8955640" lon="9.8361140">
	<ele>1640.80</ele>
	<time>2023-11-18T08:45:09.000Z</time>
</trkpt>
<trkpt lat="45.8955650" lon="9.8361210">
	<ele>1641.00</ele>
	<time>2023-11-18T08:45:10.000Z</time>
</trkpt>
<trkpt lat="45.8955640" lon="9.8361310">
	<ele>1641.00</ele>
	<time>2023-11-18T08:45:11.000Z</time>
</trkpt>
<trkpt lat="45.8955630" lon="9.8361440">
	<ele>1641.20</ele>
	<time>2023-11-18T08:45:12.000Z</time>
</trkpt>
<trkpt lat="45.8955610" lon="9.8361550">
	<ele>1641.20</ele>
	<time>2023-11-18T08:45:13.000Z</time>
</trkpt>
<trkpt lat="45.8955610" lon="9.8361690">
	<ele>1641.20</ele>
	<time>2023-11-18T08:45:14.000Z</time>
</trkpt>
<trkpt lat="45.8955590" lon="9.8361800">
	<ele>1641.40</ele>
	<time>2023-11-18T08:45:15.000Z</time>
</trkpt>
<trkpt lat="45.8955560" lon="9.8361880">
	<ele>1641.60</ele>
	<time>2023-11-18T08:45:16.000Z</time>
</trkpt>
<trkpt lat="45.8955530" lon="9.8361970">
	<ele>1641.80</ele>
	<time>2023-11-18T08:45:17.000Z</time>
</trkpt>
<trkpt lat="45.8955490" lon="9.8362080">
	<ele>1642.00</ele>
	<time>2023-11-18T08:45:18.000Z</time>
</trkpt>
<trkpt lat="45.8955430" lon="9.8362170">
	<ele>1642.20</ele>
	<time>2023-11-18T08:45:19.000Z</time>
</trkpt>
<trkpt lat="45.8955410" lon="9.8362260">
	<ele>1642.20</ele>
	<time>2023-11-18T08:45:20.000Z</time>
</trkpt>
<trkpt lat="45.8955380" lon="9.8362370">
	<ele>1642.40</ele>
	<time>2023-11-18T08:45:21.000Z</time>
</trkpt>
<trkpt lat="45.8955350" lon="9.8362480">
	<ele>1642.40</ele>
	<time>2023-11-18T08:45:22.000Z</time>
</trkpt>
<trkpt lat="45.8955340" lon="9.8362580">
	<ele>1642.40</ele>
	<time>2023-11-18T08:45:23.000Z</time>
</trkpt>
<trkpt lat="45.8955310" lon="9.8362670">
	<ele>1642.40</ele>
	<time>2023-11-18T08:45:24.000Z</time>
</trkpt>
<trkpt lat="45.8955250" lon="9.8362750">
	<ele>1642.60</ele>
	<time>2023-11-18T08:45:25.000Z</time>
</trkpt>
<trkpt lat="45.8955200" lon="9.8362850">
	<ele>1642.80</ele>
	<time>2023-11-18T08:45:26.000Z</time>
</trkpt>
<trkpt lat="45.8955140" lon="9.8362960">
	<ele>1642.80</ele>
	<time>2023-11-18T08:45:27.000Z</time>
</trkpt>
<trkpt lat="45.8955100" lon="9.8363080">
	<ele>1643.00</ele>
	<time>2023-11-18T08:45:28.000Z</time>
</trkpt>
<trkpt lat="45.8955090" lon="9.8363200">
	<ele>1643.00</ele>
	<time>2023-11-18T08:45:29.000Z</time>
</trkpt>
<trkpt lat="45.8955080" lon="9.8363320">
	<ele>1643.00</ele>
	<time>2023-11-18T08:45:30.000Z</time>
</trkpt>
<trkpt lat="45.8955080" lon="9.8363430">
	<ele>1643.00</ele>
	<time>2023-11-18T08:45:31.000Z</time>
</trkpt>
<trkpt lat="45.8955050" lon="9.8363580">
	<ele>1643.00</ele>
	<time>2023-11-18T08:45:32.000Z</time>
</trkpt>
<trkpt lat="45.8955050" lon="9.8363710">
	<ele>1643.20</ele>
	<time>2023-11-18T08:45:33.000Z</time>
</trkpt>
<trkpt lat="45.8955040" lon="9.8363840">
	<ele>1643.20</ele>
	<time>2023-11-18T08:45:34.000Z</time>
</trkpt>
<trkpt lat="45.8955050" lon="9.8363990">
	<ele>1643.20</ele>
	<time>2023-11-18T08:45:35.000Z</time>
</trkpt>
<trkpt lat="45.8955060" lon="9.8364160">
	<ele>1643.20</ele>
	<time>2023-11-18T08:45:36.000Z</time>
</trkpt>
<trkpt lat="45.8955020" lon="9.8364300">
	<ele>1643.20</ele>
	<time>2023-11-18T08:45:37.000Z</time>
</trkpt>
<trkpt lat="45.8954980" lon="9.8364410">
	<ele>1643.40</ele>
	<time>2023-11-18T08:45:38.000Z</time>
</trkpt>
<trkpt lat="45.8954950" lon="9.8364480">
	<ele>1643.60</ele>
	<time>2023-11-18T08:45:39.000Z</time>
</trkpt>
<trkpt lat="45.8954920" lon="9.8364580">
	<ele>1643.80</ele>
	<time>2023-11-18T08:45:40.000Z</time>
</trkpt>
<trkpt lat="45.8954880" lon="9.8364660">
	<ele>1644.00</ele>
	<time>2023-11-18T08:45:41.000Z</time>
</trkpt>
<trkpt lat="45.8954860" lon="9.8364780">
	<ele>1644.00</ele>
	<time>2023-11-18T08:45:42.000Z</time>
</trkpt>
<trkpt lat="45.8954830" lon="9.8364870">
	<ele>1644.00</ele>
	<time>2023-11-18T08:45:43.000Z</time>
</trkpt>
<trkpt lat="45.8954820" lon="9.8364990">
	<ele>1644.00</ele>
	<time>2023-11-18T08:45:44.000Z</time>
</trkpt>
<trkpt lat="45.8954800" lon="9.8365120">
	<ele>1644.00</ele>
	<time>2023-11-18T08:45:45.000Z</time>
</trkpt>
<trkpt lat="45.8954800" lon="9.8365200">
	<ele>1644.20</ele>
	<time>2023-11-18T08:45:46.000Z</time>
</trkpt>
<trkpt lat="45.8954790" lon="9.8365310">
	<ele>1644.20</ele>
	<time>2023-11-18T08:45:47.000Z</time>
</trkpt>
<trkpt lat="45.8954780" lon="9.8365410">
	<ele>1644.20</ele>
	<time>2023-11-18T08:45:48.000Z</time>
</trkpt>
<trkpt lat="45.8954770" lon="9.8365490">
	<ele>1644.40</ele>
	<time>2023-11-18T08:45:49.000Z</time>
</trkpt>
<trkpt lat="45.8954770" lon="9.8365560">
	<ele>1644.80</ele>
	<time>2023-11-18T08:45:50.000Z</time>
</trkpt>
<trkpt lat="45.8954750" lon="9.8365620">
	<ele>1645.00</ele>
	<time>2023-11-18T08:45:51.000Z</time>
</trkpt>
<trkpt lat="45.8954740" lon="9.8365680">
	<ele>1645.20</ele>
	<time>2023-11-18T08:45:52.000Z</time>
</trkpt>
<trkpt lat="45.8954750" lon="9.8365740">
	<ele>1645.20</ele>
	<time>2023-11-18T08:45:53.000Z</time>
</trkpt>
<trkpt lat="45.8954750" lon="9.8365830">
	<ele>1645.40</ele>
	<time>2023-11-18T08:45:54.000Z</time>
</trkpt>
<trkpt lat="45.8954790" lon="9.8365920">
	<ele>1645.40</ele>
	<time>2023-11-18T08:45:55.000Z</time>
</trkpt>
<trkpt lat="45.8954840" lon="9.8365950">
	<ele>1645.60</ele>
	<time>2023-11-18T08:45:56.000Z</time>
</trkpt>
<trkpt lat="45.8954890" lon="9.8365990">
	<ele>1645.80</ele>
	<time>2023-11-18T08:45:57.000Z</time>
</trkpt>
<trkpt lat="45.8954930" lon="9.8366020">
	<ele>1645.80</ele>
	<time>2023-11-18T08:45:58.000Z</time>
</trkpt>
<trkpt lat="45.8954960" lon="9.8366080">
	<ele>1646.00</ele>
	<time>2023-11-18T08:45:59.000Z</time>
</trkpt>
<trkpt lat="45.8954980" lon="9.8366120">
	<ele>1646.40</ele>
	<time>2023-11-18T08:46:00.000Z</time>
</trkpt>
<trkpt lat="45.8954980" lon="9.8366170">
	<ele>1646.80</ele>
	<time>2023-11-18T08:46:01.000Z</time>
</trkpt>
<trkpt lat="45.8954980" lon="9.8366230">
	<ele>1647.00</ele>
	<time>2023-11-18T08:46:02.000Z</time>
</trkpt>
<trkpt lat="45.8954950" lon="9.8366310">
	<ele>1647.00</ele>
	<time>2023-11-18T08:46:03.000Z</time>
</trkpt>
<trkpt lat="45.8954940" lon="9.8366400">
	<ele>1647.00</ele>
	<time>2023-11-18T08:46:04.000Z</time>
</trkpt>
<trkpt lat="45.8954900" lon="9.8366490">
	<ele>1647.20</ele>
	<time>2023-11-18T08:46:05.000Z</time>
</trkpt>
<trkpt lat="45.8954850" lon="9.8366630">
	<ele>1647.20</ele>
	<time>2023-11-18T08:46:06.000Z</time>
</trkpt>
<trkpt lat="45.8954810" lon="9.8366720">
	<ele>1647.20</ele>
	<time>2023-11-18T08:46:07.000Z</time>
</trkpt>
<trkpt lat="45.8954800" lon="9.8366810">
	<ele>1647.40</ele>
	<time>2023-11-18T08:46:08.000Z</time>
</trkpt>
<trkpt lat="45.8954790" lon="9.8366890">
	<ele>1647.40</ele>
	<time>2023-11-18T08:46:09.000Z</time>
</trkpt>
<trkpt lat="45.8954770" lon="9.8366960">
	<ele>1647.40</ele>
	<time>2023-11-18T08:46:10.000Z</time>
</trkpt>
<trkpt lat="45.8954740" lon="9.8367020">
	<ele>1647.60</ele>
	<time>2023-11-18T08:46:11.000Z</time>
</trkpt>
<trkpt lat="45.8954680" lon="9.8367110">
	<ele>1647.60</ele>
	<time>2023-11-18T08:46:12.000Z</time>
</trkpt>
<trkpt lat="45.8954630" lon="9.8367180">
	<ele>1647.80</ele>
	<time>2023-11-18T08:46:13.000Z</time>
</trkpt>
<trkpt lat="45.8954590" lon="9.8367240">
	<ele>1647.80</ele>
	<time>2023-11-18T08:46:14.000Z</time>
</trkpt>
<trkpt lat="45.8954530" lon="9.8367330">
	<ele>1648.00</ele>
	<time>2023-11-18T08:46:15.000Z</time>
</trkpt>
<trkpt lat="45.8954490" lon="9.8367420">
	<ele>1648.00</ele>
	<time>2023-11-18T08:46:16.000Z</time>
</trkpt>
<trkpt lat="45.8954460" lon="9.8367520">
	<ele>1647.80</ele>
	<time>2023-11-18T08:46:17.000Z</time>
</trkpt>
<trkpt lat="45.8954430" lon="9.8367610">
	<ele>1647.80</ele>
	<time>2023-11-18T08:46:18.000Z</time>
</trkpt>
<trkpt lat="45.8954400" lon="9.8367700">
	<ele>1647.80</ele>
	<time>2023-11-18T08:46:19.000Z</time>
</trkpt>
<trkpt lat="45.8954380" lon="9.8367790">
	<ele>1647.80</ele>
	<time>2023-11-18T08:46:20.000Z</time>
</trkpt>
<trkpt lat="45.8954350" lon="9.8367870">
	<ele>1647.80</ele>
	<time>2023-11-18T08:46:21.000Z</time>
</trkpt>
<trkpt lat="45.8954300" lon="9.8367970">
	<ele>1647.80</ele>
	<time>2023-11-18T08:46:22.000Z</time>
</trkpt>
<trkpt lat="45.8954250" lon="9.8368080">
	<ele>1647.80</ele>
	<time>2023-11-18T08:46:23.000Z</time>
</trkpt>
<trkpt lat="45.8954220" lon="9.8368180">
	<ele>1647.80</ele>
	<time>2023-11-18T08:46:24.000Z</time>
</trkpt>
<trkpt lat="45.8954180" lon="9.8368270">
	<ele>1648.00</ele>
	<time>2023-11-18T08:46:25.000Z</time>
</trkpt>
<trkpt lat="45.8954160" lon="9.8368360">
	<ele>1648.00</ele>
	<time>2023-11-18T08:46:26.000Z</time>
</trkpt>
<trkpt lat="45.8954150" lon="9.8368440">
	<ele>1648.00</ele>
	<time>2023-11-18T08:46:27.000Z</time>
</trkpt>
<trkpt lat="45.8954150" lon="9.8368500">
	<ele>1648.00</ele>
	<time>2023-11-18T08:46:28.000Z</time>
</trkpt>
<trkpt lat="45.8954130" lon="9.8368580">
	<ele>1648.00</ele>
	<time>2023-11-18T08:46:29.000Z</time>
</trkpt>
<trkpt lat="45.8954100" lon="9.8368700">
	<ele>1648.20</ele>
	<time>2023-11-18T08:46:30.000Z</time>
</trkpt>
<trkpt lat="45.8954070" lon="9.8368850">
	<ele>1648.20</ele>
	<time>2023-11-18T08:46:31.000Z</time>
</trkpt>
<trkpt lat="45.8954060" lon="9.8368970">
	<ele>1648.40</ele>
	<time>2023-11-18T08:46:32.000Z</time>
</trkpt>
<trkpt lat="45.8954060" lon="9.8369060">
	<ele>1648.40</ele>
	<time>2023-11-18T08:46:33.000Z</time>
</trkpt>
<trkpt lat="45.8954070" lon="9.8369150">
	<ele>1648.60</ele>
	<time>2023-11-18T08:46:34.000Z</time>
</trkpt>
<trkpt lat="45.8954080" lon="9.8369210">
	<ele>1648.60</ele>
	<time>2023-11-18T08:46:35.000Z</time>
</trkpt>
<trkpt lat="45.8954080" lon="9.8369270">
	<ele>1648.80</ele>
	<time>2023-11-18T08:46:36.000Z</time>
</trkpt>
<trkpt lat="45.8954090" lon="9.8369310">
	<ele>1649.00</ele>
	<time>2023-11-18T08:46:37.000Z</time>
</trkpt>
<trkpt lat="45.8954090" lon="9.8369360">
	<ele>1649.00</ele>
	<time>2023-11-18T08:46:38.000Z</time>
</trkpt>
<trkpt lat="45.8954110" lon="9.8369380">
	<ele>1649.00</ele>
	<time>2023-11-18T08:46:39.000Z</time>
</trkpt>
<trkpt lat="45.8954130" lon="9.8369380">
	<ele>1649.20</ele>
	<time>2023-11-18T08:46:40.000Z</time>
</trkpt>
<trkpt lat="45.8954140" lon="9.8369380">
	<ele>1649.20</ele>
	<time>2023-11-18T08:46:41.000Z</time>
</trkpt>
<trkpt lat="45.8954130" lon="9.8369370">
	<ele>1649.20</ele>
	<time>2023-11-18T08:46:42.000Z</time>
</trkpt>
<trkpt lat="45.8954110" lon="9.8369370">
	<ele>1649.00</ele>
	<time>2023-11-18T08:46:43.000Z</time>
</trkpt>
<trkpt lat="45.8954130" lon="9.8369360">
	<ele>1649.00</ele>
	<time>2023-11-18T08:46:44.000Z</time>
</trkpt>
<trkpt lat="45.8954150" lon="9.8369330">
	<ele>1649.00</ele>
	<time>2023-11-18T08:46:45.000Z</time>
</trkpt>
<trkpt lat="45.8954150" lon="9.8369320">
	<ele>1649.00</ele>
	<time>2023-11-18T08:46:46.000Z</time>
</trkpt>
<trkpt lat="45.8954150" lon="9.8369320">
	<ele>1649.00</ele>
	<time>2023-11-18T08:46:47.000Z</time>
</trkpt>
<trkpt lat="45.8954150" lon="9.8369320">
	<ele>1649.00</ele>
	<time>2023-11-18T08:46:48.000Z</time>
</trkpt>
<trkpt lat="45.8954150" lon="9.8369320">
	<ele>1649.00</ele>
	<time>2023-11-18T08:46:49.000Z</time>
</trkpt>
<trkpt lat="45.8954150" lon="9.8369320">
	<ele>1649.00</ele>
	<time>2023-11-18T08:46:50.000Z</time>
</trkpt>
<trkpt lat="45.8954150" lon="9.8369320">
	<ele>1649.20</ele>
	<time>2023-11-18T08:46:51.000Z</time>
</trkpt>
<trkpt lat="45.8954150" lon="9.8369320">
	<ele>1649.40</ele>
	<time>2023-11-18T08:46:52.000Z</time>
</trkpt>
<trkpt lat="45.8954150" lon="9.8369320">
	<ele>1649.60</ele>
	<time>2023-11-18T08:46:53.000Z</time>
</trkpt>
<trkpt lat="45.8954150" lon="9.8369330">
	<ele>1649.60</ele>
	<time>2023-11-18T08:46:54.000Z</time>
</trkpt>
<trkpt lat="45.8954150" lon="9.8369330">
	<ele>1649.80</ele>
	<time>2023-11-18T08:46:55.000Z</time>
</trkpt>
<trkpt lat="45.8954150" lon="9.8369330">
	<ele>1649.80</ele>
	<time>2023-11-18T08:46:56.000Z</time>
</trkpt>
<trkpt lat="45.8954150" lon="9.8369340">
	<ele>1649.80</ele>
	<time>2023-11-18T08:46:57.000Z</time>
</trkpt>
<trkpt lat="45.8954140" lon="9.8369340">
	<ele>1649.80</ele>
	<time>2023-11-18T08:46:58.000Z</time>
</trkpt>
<trkpt lat="45.8954140" lon="9.8369340">
	<ele>1649.40</ele>
	<time>2023-11-18T08:46:59.000Z</time>
</trkpt>
<trkpt lat="45.8954140" lon="9.8369340">
	<ele>1649.40</ele>
	<time>2023-11-18T08:47:00.000Z</time>
</trkpt>
<trkpt lat="45.8954140" lon="9.8369350">
	<ele>1649.20</ele>
	<time>2023-11-18T08:47:01.000Z</time>
</trkpt>
<trkpt lat="45.8954140" lon="9.8369350">
	<ele>1649.20</ele>
	<time>2023-11-18T08:47:02.000Z</time>
</trkpt>
<trkpt lat="45.8954140" lon="9.8369360">
	<ele>1649.40</ele>
	<time>2023-11-18T08:47:03.000Z</time>
</trkpt>
<trkpt lat="45.8954140" lon="9.8369360">
	<ele>1649.80</ele>
	<time>2023-11-18T08:47:04.000Z</time>
</trkpt>
<trkpt lat="45.8954140" lon="9.8369360">
	<ele>1650.00</ele>
	<time>2023-11-18T08:47:05.000Z</time>
</trkpt>
<trkpt lat="45.8954140" lon="9.8369360">
	<ele>1650.20</ele>
	<time>2023-11-18T08:47:06.000Z</time>
</trkpt>
<trkpt lat="45.8954140" lon="9.8369360">
	<ele>1650.20</ele>
	<time>2023-11-18T08:47:07.000Z</time>
</trkpt>
<trkpt lat="45.8954140" lon="9.8369370">
	<ele>1650.40</ele>
	<time>2023-11-18T08:47:08.000Z</time>
</trkpt>
<trkpt lat="45.8954140" lon="9.8369370">
	<ele>1650.40</ele>
	<time>2023-11-18T08:47:09.000Z</time>
</trkpt>
<trkpt lat="45.8954150" lon="9.8369370">
	<ele>1650.60</ele>
	<time>2023-11-18T08:47:10.000Z</time>
</trkpt>
<trkpt lat="45.8954150" lon="9.8369370">
	<ele>1650.80</ele>
	<time>2023-11-18T08:47:11.000Z</time>
</trkpt>
<trkpt lat="45.8954150" lon="9.8369370">
	<ele>1651.00</ele>
	<time>2023-11-18T08:47:12.000Z</time>
</trkpt>
<trkpt lat="45.8954150" lon="9.8369380">
	<ele>1651.40</ele>
	<time>2023-11-18T08:47:13.000Z</time>
</trkpt>
<trkpt lat="45.8954150" lon="9.8369410">
	<ele>1651.60</ele>
	<time>2023-11-18T08:47:14.000Z</time>
</trkpt>
<trkpt lat="45.8954160" lon="9.8369440">
	<ele>1651.80</ele>
	<time>2023-11-18T08:47:15.000Z</time>
</trkpt>
<trkpt lat="45.8954200" lon="9.8369460">
	<ele>1651.80</ele>
	<time>2023-11-18T08:47:16.000Z</time>
</trkpt>
<trkpt lat="45.8954200" lon="9.8369550">
	<ele>1652.00</ele>
	<time>2023-11-18T08:47:17.000Z</time>
</trkpt>
<trkpt lat="45.8954200" lon="9.8369740">
	<ele>1652.20</ele>
	<time>2023-11-18T08:47:18.000Z</time>
</trkpt>
<trkpt lat="45.8954200" lon="9.8369930">
	<ele>1652.20</ele>
	<time>2023-11-18T08:47:19.000Z</time>
</trkpt>
<trkpt lat="45.8954240" lon="9.8370100">
	<ele>1652.40</ele>
	<time>2023-11-18T08:47:20.000Z</time>
</trkpt>
<trkpt lat="45.8954260" lon="9.8370270">
	<ele>1652.40</ele>
	<time>2023-11-18T08:47:21.000Z</time>
</trkpt>
<trkpt lat="45.8954250" lon="9.8370450">
	<ele>1652.60</ele>
	<time>2023-11-18T08:47:22.000Z</time>
</trkpt>
<trkpt lat="45.8954240" lon="9.8370640">
	<ele>1652.80</ele>
	<time>2023-11-18T08:47:23.000Z</time>
</trkpt>
<trkpt lat="45.8954240" lon="9.8370790">
	<ele>1653.00</ele>
	<time>2023-11-18T08:47:24.000Z</time>
</trkpt>
<trkpt lat="45.8954210" lon="9.8370960">
	<ele>1653.20</ele>
	<time>2023-11-18T08:47:25.000Z</time>
</trkpt>
<trkpt lat="45.8954190" lon="9.8371130">
	<ele>1653.20</ele>
	<time>2023-11-18T08:47:26.000Z</time>
</trkpt>
<trkpt lat="45.8954190" lon="9.8371210">
	<ele>1653.40</ele>
	<time>2023-11-18T08:47:27.000Z</time>
</trkpt>
<trkpt lat="45.8954200" lon="9.8371290">
	<ele>1653.60</ele>
	<time>2023-11-18T08:47:28.000Z</time>
</trkpt>
<trkpt lat="45.8954210" lon="9.8371360">
	<ele>1653.80</ele>
	<time>2023-11-18T08:47:29.000Z</time>
</trkpt>
<trkpt lat="45.8954210" lon="9.8371410">
	<ele>1653.80</ele>
	<time>2023-11-18T08:47:30.000Z</time>
</trkpt>
<trkpt lat="45.8954200" lon="9.8371470">
	<ele>1654.00</ele>
	<time>2023-11-18T08:47:31.000Z</time>
</trkpt>
<trkpt lat="45.8954200" lon="9.8371570">
	<ele>1654.20</ele>
	<time>2023-11-18T08:47:32.000Z</time>
</trkpt>
<trkpt lat="45.8954210" lon="9.8371650">
	<ele>1654.20</ele>
	<time>2023-11-18T08:47:33.000Z</time>
</trkpt>
<trkpt lat="45.8954230" lon="9.8371700">
	<ele>1654.40</ele>
	<time>2023-11-18T08:47:34.000Z</time>
</trkpt>
<trkpt lat="45.8954250" lon="9.8371770">
	<ele>1654.40</ele>
	<time>2023-11-18T08:47:35.000Z</time>
</trkpt>
<trkpt lat="45.8954250" lon="9.8371810">
	<ele>1654.60</ele>
	<time>2023-11-18T08:47:36.000Z</time>
</trkpt>
<trkpt lat="45.8954230" lon="9.8371910">
	<ele>1655.00</ele>
	<time>2023-11-18T08:47:37.000Z</time>
</trkpt>
<trkpt lat="45.8954220" lon="9.8371990">
	<ele>1655.20</ele>
	<time>2023-11-18T08:47:38.000Z</time>
</trkpt>
<trkpt lat="45.8954220" lon="9.8372090">
	<ele>1655.20</ele>
	<time>2023-11-18T08:47:39.000Z</time>
</trkpt>
<trkpt lat="45.8954220" lon="9.8372170">
	<ele>1655.40</ele>
	<time>2023-11-18T08:47:40.000Z</time>
</trkpt>
<trkpt lat="45.8954200" lon="9.8372250">
	<ele>1655.40</ele>
	<time>2023-11-18T08:47:41.000Z</time>
</trkpt>
<trkpt lat="45.8954150" lon="9.8372320">
	<ele>1655.60</ele>
	<time>2023-11-18T08:47:42.000Z</time>
</trkpt>
<trkpt lat="45.8954120" lon="9.8372390">
	<ele>1655.60</ele>
	<time>2023-11-18T08:47:43.000Z</time>
</trkpt>
<trkpt lat="45.8954130" lon="9.8372490">
	<ele>1655.80</ele>
	<time>2023-11-18T08:47:44.000Z</time>
</trkpt>
<trkpt lat="45.8954150" lon="9.8372590">
	<ele>1656.00</ele>
	<time>2023-11-18T08:47:45.000Z</time>
</trkpt>
<trkpt lat="45.8954170" lon="9.8372670">
	<ele>1656.00</ele>
	<time>2023-11-18T08:47:46.000Z</time>
</trkpt>
<trkpt lat="45.8954170" lon="9.8372730">
	<ele>1656.20</ele>
	<time>2023-11-18T08:47:47.000Z</time>
</trkpt>
<trkpt lat="45.8954180" lon="9.8372820">
	<ele>1656.40</ele>
	<time>2023-11-18T08:47:48.000Z</time>
</trkpt>
<trkpt lat="45.8954190" lon="9.8372910">
	<ele>1656.60</ele>
	<time>2023-11-18T08:47:49.000Z</time>
</trkpt>
<trkpt lat="45.8954210" lon="9.8372950">
	<ele>1656.80</ele>
	<time>2023-11-18T08:47:50.000Z</time>
</trkpt>
<trkpt lat="45.8954230" lon="9.8372980">
	<ele>1657.00</ele>
	<time>2023-11-18T08:47:51.000Z</time>
</trkpt>
<trkpt lat="45.8954250" lon="9.8373020">
	<ele>1657.20</ele>
	<time>2023-11-18T08:47:52.000Z</time>
</trkpt>
<trkpt lat="45.8954250" lon="9.8373080">
	<ele>1657.40</ele>
	<time>2023-11-18T08:47:53.000Z</time>
</trkpt>
<trkpt lat="45.8954250" lon="9.8373150">
	<ele>1657.60</ele>
	<time>2023-11-18T08:47:54.000Z</time>
</trkpt>
<trkpt lat="45.8954240" lon="9.8373280">
	<ele>1657.60</ele>
	<time>2023-11-18T08:47:55.000Z</time>
</trkpt>
<trkpt lat="45.8954240" lon="9.8373380">
	<ele>1657.80</ele>
	<time>2023-11-18T08:47:56.000Z</time>
</trkpt>
<trkpt lat="45.8954240" lon="9.8373440">
	<ele>1657.80</ele>
	<time>2023-11-18T08:47:57.000Z</time>
</trkpt>
<trkpt lat="45.8954210" lon="9.8373550">
	<ele>1658.00</ele>
	<time>2023-11-18T08:47:58.000Z</time>
</trkpt>
<trkpt lat="45.8954190" lon="9.8373640">
	<ele>1658.40</ele>
	<time>2023-11-18T08:47:59.000Z</time>
</trkpt>
<trkpt lat="45.8954160" lon="9.8373740">
	<ele>1658.40</ele>
	<time>2023-11-18T08:48:00.000Z</time>
</trkpt>
<trkpt lat="45.8954160" lon="9.8373870">
	<ele>1658.60</ele>
	<time>2023-11-18T08:48:01.000Z</time>
</trkpt>
<trkpt lat="45.8954140" lon="9.8373950">
	<ele>1658.80</ele>
	<time>2023-11-18T08:48:02.000Z</time>
</trkpt>
<trkpt lat="45.8954110" lon="9.8374040">
	<ele>1659.00</ele>
	<time>2023-11-18T08:48:03.000Z</time>
</trkpt>
<trkpt lat="45.8954080" lon="9.8374140">
	<ele>1659.00</ele>
	<time>2023-11-18T08:48:04.000Z</time>
</trkpt>
<trkpt lat="45.8954050" lon="9.8374250">
	<ele>1659.20</ele>
	<time>2023-11-18T08:48:05.000Z</time>
</trkpt>
<trkpt lat="45.8954030" lon="9.8374350">
	<ele>1659.40</ele>
	<time>2023-11-18T08:48:06.000Z</time>
</trkpt>
<trkpt lat="45.8954020" lon="9.8374470">
	<ele>1659.40</ele>
	<time>2023-11-18T08:48:07.000Z</time>
</trkpt>
<trkpt lat="45.8954000" lon="9.8374610">
	<ele>1659.60</ele>
	<time>2023-11-18T08:48:08.000Z</time>
</trkpt>
<trkpt lat="45.8953990" lon="9.8374710">
	<ele>1659.80</ele>
	<time>2023-11-18T08:48:09.000Z</time>
</trkpt>
<trkpt lat="45.8954010" lon="9.8374780">
	<ele>1660.00</ele>
	<time>2023-11-18T08:48:10.000Z</time>
</trkpt>
<trkpt lat="45.8954020" lon="9.8374850">
	<ele>1660.00</ele>
	<time>2023-11-18T08:48:11.000Z</time>
</trkpt>
<trkpt lat="45.8954070" lon="9.8374920">
	<ele>1660.20</ele>
	<time>2023-11-18T08:48:12.000Z</time>
</trkpt>
<trkpt lat="45.8954110" lon="9.8374950">
	<ele>1660.40</ele>
	<time>2023-11-18T08:48:13.000Z</time>
</trkpt>
<trkpt lat="45.8954140" lon="9.8374960">
	<ele>1660.60</ele>
	<time>2023-11-18T08:48:14.000Z</time>
</trkpt>
<trkpt lat="45.8954160" lon="9.8375010">
	<ele>1660.80</ele>
	<time>2023-11-18T08:48:15.000Z</time>
</trkpt>
<trkpt lat="45.8954140" lon="9.8375080">
	<ele>1661.00</ele>
	<time>2023-11-18T08:48:16.000Z</time>
</trkpt>
<trkpt lat="45.8954120" lon="9.8375160">
	<ele>1661.00</ele>
	<time>2023-11-18T08:48:17.000Z</time>
</trkpt>
<trkpt lat="45.8954120" lon="9.8375190">
	<ele>1661.40</ele>
	<time>2023-11-18T08:48:18.000Z</time>
</trkpt>
<trkpt lat="45.8954100" lon="9.8375280">
	<ele>1661.60</ele>
	<time>2023-11-18T08:48:19.000Z</time>
</trkpt>
<trkpt lat="45.8954100" lon="9.8375390">
	<ele>1661.80</ele>
	<time>2023-11-18T08:48:20.000Z</time>
</trkpt>
<trkpt lat="45.8954090" lon="9.8375500">
	<ele>1662.00</ele>
	<time>2023-11-18T08:48:21.000Z</time>
</trkpt>
<trkpt lat="45.8954110" lon="9.8375570">
	<ele>1662.20</ele>
	<time>2023-11-18T08:48:22.000Z</time>
</trkpt>
<trkpt lat="45.8954120" lon="9.8375660">
	<ele>1662.20</ele>
	<time>2023-11-18T08:48:23.000Z</time>
</trkpt>
<trkpt lat="45.8954150" lon="9.8375760">
	<ele>1662.40</ele>
	<time>2023-11-18T08:48:24.000Z</time>
</trkpt>
<trkpt lat="45.8954180" lon="9.8375810">
	<ele>1662.60</ele>
	<time>2023-11-18T08:48:25.000Z</time>
</trkpt>
<trkpt lat="45.8954220" lon="9.8375790">
	<ele>1663.00</ele>
	<time>2023-11-18T08:48:26.000Z</time>
</trkpt>
<trkpt lat="45.8954270" lon="9.8375800">
	<ele>1663.60</ele>
	<time>2023-11-18T08:48:27.000Z</time>
</trkpt>
<trkpt lat="45.8954300" lon="9.8375830">
	<ele>1663.80</ele>
	<time>2023-11-18T08:48:28.000Z</time>
</trkpt>
<trkpt lat="45.8954330" lon="9.8375860">
	<ele>1664.00</ele>
	<time>2023-11-18T08:48:29.000Z</time>
</trkpt>
<trkpt lat="45.8954350" lon="9.8375880">
	<ele>1664.20</ele>
	<time>2023-11-18T08:48:30.000Z</time>
</trkpt>
<trkpt lat="45.8954370" lon="9.8375930">
	<ele>1664.20</ele>
	<time>2023-11-18T08:48:31.000Z</time>
</trkpt>
<trkpt lat="45.8954410" lon="9.8375970">
	<ele>1664.20</ele>
	<time>2023-11-18T08:48:32.000Z</time>
</trkpt>
<trkpt lat="45.8954430" lon="9.8375990">
	<ele>1664.40</ele>
	<time>2023-11-18T08:48:33.000Z</time>
</trkpt>
<trkpt lat="45.8954440" lon="9.8375990">
	<ele>1664.60</ele>
	<time>2023-11-18T08:48:34.000Z</time>
</trkpt>
<trkpt lat="45.8954440" lon="9.8375990">
	<ele>1665.00</ele>
	<time>2023-11-18T08:48:35.000Z</time>
</trkpt>
<trkpt lat="45.8954430" lon="9.8376000">
	<ele>1665.00</ele>
	<time>2023-11-18T08:48:36.000Z</time>
</trkpt>
<trkpt lat="45.8954440" lon="9.8376020">
	<ele>1665.20</ele>
	<time>2023-11-18T08:48:37.000Z</time>
</trkpt>
<trkpt lat="45.8954440" lon="9.8376070">
	<ele>1665.20</ele>
	<time>2023-11-18T08:48:38.000Z</time>
</trkpt>
<trkpt lat="45.8954450" lon="9.8376100">
	<ele>1665.40</ele>
	<time>2023-11-18T08:48:39.000Z</time>
</trkpt>
<trkpt lat="45.8954450" lon="9.8376120">
	<ele>1665.60</ele>
	<time>2023-11-18T08:48:40.000Z</time>
</trkpt>
<trkpt lat="45.8954440" lon="9.8376200">
	<ele>1665.60</ele>
	<time>2023-11-18T08:48:41.000Z</time>
</trkpt>
<trkpt lat="45.8954400" lon="9.8376260">
	<ele>1665.80</ele>
	<time>2023-11-18T08:48:42.000Z</time>
</trkpt>
<trkpt lat="45.8954380" lon="9.8376350">
	<ele>1665.80</ele>
	<time>2023-11-18T08:48:43.000Z</time>
</trkpt>
<trkpt lat="45.8954330" lon="9.8376430">
	<ele>1666.00</ele>
	<time>2023-11-18T08:48:44.000Z</time>
</trkpt>
<trkpt lat="45.8954270" lon="9.8376500">
	<ele>1666.00</ele>
	<time>2023-11-18T08:48:45.000Z</time>
</trkpt>
<trkpt lat="45.8954260" lon="9.8376570">
	<ele>1666.00</ele>
	<time>2023-11-18T08:48:46.000Z</time>
</trkpt>
<trkpt lat="45.8954240" lon="9.8376620">
	<ele>1666.20</ele>
	<time>2023-11-18T08:48:47.000Z</time>
</trkpt>
<trkpt lat="45.8954210" lon="9.8376680">
	<ele>1666.40</ele>
	<time>2023-11-18T08:48:48.000Z</time>
</trkpt>
<trkpt lat="45.8954190" lon="9.8376710">
	<ele>1666.40</ele>
	<time>2023-11-18T08:48:49.000Z</time>
</trkpt>
<trkpt lat="45.8954170" lon="9.8376700">
	<ele>1666.40</ele>
	<time>2023-11-18T08:48:50.000Z</time>
</trkpt>
<trkpt lat="45.8954160" lon="9.8376680">
	<ele>1666.60</ele>
	<time>2023-11-18T08:48:51.000Z</time>
</trkpt>
<trkpt lat="45.8954160" lon="9.8376660">
	<ele>1666.60</ele>
	<time>2023-11-18T08:48:52.000Z</time>
</trkpt>
<trkpt lat="45.8954150" lon="9.8376650">
	<ele>1666.60</ele>
	<time>2023-11-18T08:48:53.000Z</time>
</trkpt>
<trkpt lat="45.8954150" lon="9.8376660">
	<ele>1666.60</ele>
	<time>2023-11-18T08:48:54.000Z</time>
</trkpt>
<trkpt lat="45.8954150" lon="9.8376680">
	<ele>1666.60</ele>
	<time>2023-11-18T08:48:55.000Z</time>
</trkpt>
<trkpt lat="45.8954130" lon="9.8376680">
	<ele>1666.60</ele>
	<time>2023-11-18T08:48:56.000Z</time>
</trkpt>
<trkpt lat="45.8954100" lon="9.8376720">
	<ele>1666.80</ele>
	<time>2023-11-18T08:48:57.000Z</time>
</trkpt>
<trkpt lat="45.8954100" lon="9.8376810">
	<ele>1666.80</ele>
	<time>2023-11-18T08:48:58.000Z</time>
</trkpt>
<trkpt lat="45.8954110" lon="9.8376870">
	<ele>1666.80</ele>
	<time>2023-11-18T08:48:59.000Z</time>
</trkpt>
<trkpt lat="45.8954140" lon="9.8376940">
	<ele>1667.00</ele>
	<time>2023-11-18T08:49:00.000Z</time>
</trkpt>
<trkpt lat="45.8954180" lon="9.8377000">
	<ele>1667.00</ele>
	<time>2023-11-18T08:49:01.000Z</time>
</trkpt>
<trkpt lat="45.8954220" lon="9.8377030">
	<ele>1667.20</ele>
	<time>2023-11-18T08:49:02.000Z</time>
</trkpt>
<trkpt lat="45.8954270" lon="9.8377090">
	<ele>1667.20</ele>
	<time>2023-11-18T08:49:03.000Z</time>
</trkpt>
<trkpt lat="45.8954290" lon="9.8377130">
	<ele>1667.60</ele>
	<time>2023-11-18T08:49:04.000Z</time>
</trkpt>
<trkpt lat="45.8954330" lon="9.8377170">
	<ele>1667.80</ele>
	<time>2023-11-18T08:49:05.000Z</time>
</trkpt>
<trkpt lat="45.8954350" lon="9.8377220">
	<ele>1668.00</ele>
	<time>2023-11-18T08:49:06.000Z</time>
</trkpt>
<trkpt lat="45.8954370" lon="9.8377290">
	<ele>1668.20</ele>
	<time>2023-11-18T08:49:07.000Z</time>
</trkpt>
<trkpt lat="45.8954390" lon="9.8377360">
	<ele>1668.60</ele>
	<time>2023-11-18T08:49:08.000Z</time>
</trkpt>
<trkpt lat="45.8954400" lon="9.8377450">
	<ele>1668.80</ele>
	<time>2023-11-18T08:49:09.000Z</time>
</trkpt>
<trkpt lat="45.8954430" lon="9.8377550">
	<ele>1668.80</ele>
	<time>2023-11-18T08:49:10.000Z</time>
</trkpt>
<trkpt lat="45.8954470" lon="9.8377650">
	<ele>1668.80</ele>
	<time>2023-11-18T08:49:11.000Z</time>
</trkpt>
<trkpt lat="45.8954490" lon="9.8377710">
	<ele>1669.00</ele>
	<time>2023-11-18T08:49:12.000Z</time>
</trkpt>
<trkpt lat="45.8954520" lon="9.8377740">
	<ele>1669.20</ele>
	<time>2023-11-18T08:49:13.000Z</time>
</trkpt>
<trkpt lat="45.8954540" lon="9.8377790">
	<ele>1669.40</ele>
	<time>2023-11-18T08:49:14.000Z</time>
</trkpt>
<trkpt lat="45.8954560" lon="9.8377870">
	<ele>1669.60</ele>
	<time>2023-11-18T08:49:15.000Z</time>
</trkpt>
<trkpt lat="45.8954590" lon="9.8377940">
	<ele>1669.80</ele>
	<time>2023-11-18T08:49:16.000Z</time>
</trkpt>
<trkpt lat="45.8954630" lon="9.8378000">
	<ele>1669.80</ele>
	<time>2023-11-18T08:49:17.000Z</time>
</trkpt>
<trkpt lat="45.8954700" lon="9.8378040">
	<ele>1670.00</ele>
	<time>2023-11-18T08:49:18.000Z</time>
</trkpt>
<trkpt lat="45.8954770" lon="9.8378070">
	<ele>1670.00</ele>
	<time>2023-11-18T08:49:19.000Z</time>
</trkpt>
<trkpt lat="45.8954810" lon="9.8378080">
	<ele>1670.20</ele>
	<time>2023-11-18T08:49:20.000Z</time>
</trkpt>
<trkpt lat="45.8954820" lon="9.8378080">
	<ele>1670.40</ele>
	<time>2023-11-18T08:49:21.000Z</time>
</trkpt>
<trkpt lat="45.8954790" lon="9.8378060">
	<ele>1670.60</ele>
	<time>2023-11-18T08:49:22.000Z</time>
</trkpt>
<trkpt lat="45.8954770" lon="9.8378060">
	<ele>1670.60</ele>
	<time>2023-11-18T08:49:23.000Z</time>
</trkpt>
<trkpt lat="45.8954780" lon="9.8378110">
	<ele>1670.60</ele>
	<time>2023-11-18T08:49:24.000Z</time>
</trkpt>
<trkpt lat="45.8954810" lon="9.8378130">
	<ele>1670.60</ele>
	<time>2023-11-18T08:49:25.000Z</time>
</trkpt>
<trkpt lat="45.8954850" lon="9.8378150">
	<ele>1670.80</ele>
	<time>2023-11-18T08:49:26.000Z</time>
</trkpt>
<trkpt lat="45.8954890" lon="9.8378150">
	<ele>1670.80</ele>
	<time>2023-11-18T08:49:27.000Z</time>
</trkpt>
<trkpt lat="45.8954910" lon="9.8378170">
	<ele>1670.80</ele>
	<time>2023-11-18T08:49:28.000Z</time>
</trkpt>
<trkpt lat="45.8954920" lon="9.8378200">
	<ele>1671.00</ele>
	<time>2023-11-18T08:49:29.000Z</time>
</trkpt>
<trkpt lat="45.8954910" lon="9.8378270">
	<ele>1671.00</ele>
	<time>2023-11-18T08:49:30.000Z</time>
</trkpt>
<trkpt lat="45.8954910" lon="9.8378310">
	<ele>1671.00</ele>
	<time>2023-11-18T08:49:31.000Z</time>
</trkpt>
<trkpt lat="45.8954910" lon="9.8378330">
	<ele>1671.20</ele>
	<time>2023-11-18T08:49:32.000Z</time>
</trkpt>
<trkpt lat="45.8954910" lon="9.8378340">
	<ele>1671.20</ele>
	<time>2023-11-18T08:49:33.000Z</time>
</trkpt>
<trkpt lat="45.8954910" lon="9.8378340">
	<ele>1671.40</ele>
	<time>2023-11-18T08:49:34.000Z</time>
</trkpt>
<trkpt lat="45.8954910" lon="9.8378340">
	<ele>1671.60</ele>
	<time>2023-11-18T08:49:35.000Z</time>
</trkpt>
<trkpt lat="45.8954910" lon="9.8378340">
	<ele>1671.60</ele>
	<time>2023-11-18T08:49:36.000Z</time>
</trkpt>
<trkpt lat="45.8954910" lon="9.8378340">
	<ele>1671.60</ele>
	<time>2023-11-18T08:49:37.000Z</time>
</trkpt>
<trkpt lat="45.8954910" lon="9.8378340">
	<ele>1671.60</ele>
	<time>2023-11-18T08:49:38.000Z</time>
</trkpt>
<trkpt lat="45.8954910" lon="9.8378340">
	<ele>1671.60</ele>
	<time>2023-11-18T08:49:39.000Z</time>
</trkpt>
<trkpt lat="45.8954910" lon="9.8378340">
	<ele>1671.80</ele>
	<time>2023-11-18T08:49:40.000Z</time>
</trkpt>
<trkpt lat="45.8954910" lon="9.8378340">
	<ele>1671.80</ele>
	<time>2023-11-18T08:49:41.000Z</time>
</trkpt>
<trkpt lat="45.8954910" lon="9.8378340">
	<ele>1671.80</ele>
	<time>2023-11-18T08:49:42.000Z</time>
</trkpt>
<trkpt lat="45.8954910" lon="9.8378340">
	<ele>1672.00</ele>
	<time>2023-11-18T08:49:43.000Z</time>
</trkpt>
<trkpt lat="45.8954910" lon="9.8378340">
	<ele>1672.00</ele>
	<time>2023-11-18T08:49:44.000Z</time>
</trkpt>
<trkpt lat="45.8954910" lon="9.8378340">
	<ele>1672.00</ele>
	<time>2023-11-18T08:49:45.000Z</time>
</trkpt>
<trkpt lat="45.8954910" lon="9.8378340">
	<ele>1672.00</ele>
	<time>2023-11-18T08:49:46.000Z</time>
</trkpt>
<trkpt lat="45.8954910" lon="9.8378340">
	<ele>1671.80</ele>
	<time>2023-11-18T08:49:47.000Z</time>
</trkpt>
<trkpt lat="45.8954910" lon="9.8378340">
	<ele>1671.80</ele>
	<time>2023-11-18T08:49:48.000Z</time>
</trkpt>
<trkpt lat="45.8954920" lon="9.8378340">
	<ele>1671.60</ele>
	<time>2023-11-18T08:49:49.000Z</time>
</trkpt>
<trkpt lat="45.8954920" lon="9.8378360">
	<ele>1671.60</ele>
	<time>2023-11-18T08:49:50.000Z</time>
</trkpt>
<trkpt lat="45.8954920" lon="9.8378360">
	<ele>1671.60</ele>
	<time>2023-11-18T08:49:51.000Z</time>
</trkpt>
<trkpt lat="45.8954920" lon="9.8378370">
	<ele>1671.80</ele>
	<time>2023-11-18T08:49:52.000Z</time>
</trkpt>
<trkpt lat="45.8954930" lon="9.8378390">
	<ele>1671.80</ele>
	<time>2023-11-18T08:49:53.000Z</time>
</trkpt>
<trkpt lat="45.8954940" lon="9.8378430">
	<ele>1672.00</ele>
	<time>2023-11-18T08:49:54.000Z</time>
</trkpt>
<trkpt lat="45.8954960" lon="9.8378440">
	<ele>1672.20</ele>
	<time>2023-11-18T08:49:55.000Z</time>
</trkpt>
<trkpt lat="45.8954980" lon="9.8378440">
	<ele>1672.40</ele>
	<time>2023-11-18T08:49:56.000Z</time>
</trkpt>
<trkpt lat="45.8954990" lon="9.8378440">
	<ele>1672.40</ele>
	<time>2023-11-18T08:49:57.000Z</time>
</trkpt>
<trkpt lat="45.8954990" lon="9.8378440">
	<ele>1672.40</ele>
	<time>2023-11-18T08:49:58.000Z</time>
</trkpt>
<trkpt lat="45.8954990" lon="9.8378440">
	<ele>1672.60</ele>
	<time>2023-11-18T08:49:59.000Z</time>
</trkpt>
<trkpt lat="45.8954990" lon="9.8378440">
	<ele>1672.60</ele>
	<time>2023-11-18T08:50:00.000Z</time>
</trkpt>
<trkpt lat="45.8954990" lon="9.8378450">
	<ele>1672.80</ele>
	<time>2023-11-18T08:50:01.000Z</time>
</trkpt>
<trkpt lat="45.8955010" lon="9.8378460">
	<ele>1673.00</ele>
	<time>2023-11-18T08:50:02.000Z</time>
</trkpt>
<trkpt lat="45.8955030" lon="9.8378470">
	<ele>1673.20</ele>
	<time>2023-11-18T08:50:03.000Z</time>
</trkpt>
<trkpt lat="45.8955050" lon="9.8378510">
	<ele>1673.40</ele>
	<time>2023-11-18T08:50:04.000Z</time>
</trkpt>
<trkpt lat="45.8955090" lon="9.8378550">
	<ele>1673.40</ele>
	<time>2023-11-18T08:50:05.000Z</time>
</trkpt>
<trkpt lat="45.8955130" lon="9.8378600">
	<ele>1673.60</ele>
	<time>2023-11-18T08:50:06.000Z</time>
</trkpt>
<trkpt lat="45.8955170" lon="9.8378650">
	<ele>1673.60</ele>
	<time>2023-11-18T08:50:07.000Z</time>
</trkpt>
<trkpt lat="45.8955200" lon="9.8378730">
	<ele>1673.60</ele>
	<time>2023-11-18T08:50:08.000Z</time>
</trkpt>
<trkpt lat="45.8955210" lon="9.8378820">
	<ele>1673.60</ele>
	<time>2023-11-18T08:50:09.000Z</time>
</trkpt>
<trkpt lat="45.8955230" lon="9.8378900">
	<ele>1673.60</ele>
	<time>2023-11-18T08:50:10.000Z</time>
</trkpt>
<trkpt lat="45.8955260" lon="9.8378950">
	<ele>1673.80</ele>
	<time>2023-11-18T08:50:11.000Z</time>
</trkpt>
<trkpt lat="45.8955280" lon="9.8378970">
	<ele>1673.80</ele>
	<time>2023-11-18T08:50:12.000Z</time>
</trkpt>
<trkpt lat="45.8955320" lon="9.8378980">
	<ele>1673.80</ele>
	<time>2023-11-18T08:50:13.000Z</time>
</trkpt>
<trkpt lat="45.8955360" lon="9.8378990">
	<ele>1673.80</ele>
	<time>2023-11-18T08:50:14.000Z</time>
</trkpt>
<trkpt lat="45.8955400" lon="9.8378990">
	<ele>1673.80</ele>
	<time>2023-11-18T08:50:15.000Z</time>
</trkpt>
<trkpt lat="45.8955430" lon="9.8379010">
	<ele>1673.80</ele>
	<time>2023-11-18T08:50:16.000Z</time>
</trkpt>
<trkpt lat="45.8955460" lon="9.8379010">
	<ele>1673.60</ele>
	<time>2023-11-18T08:50:17.000Z</time>
</trkpt>
<trkpt lat="45.8955470" lon="9.8379010">
	<ele>1673.60</ele>
	<time>2023-11-18T08:50:18.000Z</time>
</trkpt>
<trkpt lat="45.8955480" lon="9.8379010">
	<ele>1673.60</ele>
	<time>2023-11-18T08:50:19.000Z</time>
</trkpt>
<trkpt lat="45.8955480" lon="9.8379010">
	<ele>1673.60</ele>
	<time>2023-11-18T08:50:20.000Z</time>
</trkpt>
<trkpt lat="45.8955480" lon="9.8379010">
	<ele>1673.60</ele>
	<time>2023-11-18T08:50:21.000Z</time>
</trkpt>
<trkpt lat="45.8955480" lon="9.8379010">
	<ele>1673.60</ele>
	<time>2023-11-18T08:50:22.000Z</time>
</trkpt>
<trkpt lat="45.8955480" lon="9.8379010">
	<ele>1673.60</ele>
	<time>2023-11-18T08:50:23.000Z</time>
</trkpt>
<trkpt lat="45.8955480" lon="9.8379010">
	<ele>1673.60</ele>
	<time>2023-11-18T08:50:24.000Z</time>
</trkpt>
<trkpt lat="45.8955490" lon="9.8379010">
	<ele>1673.80</ele>
	<time>2023-11-18T08:50:25.000Z</time>
</trkpt>
<trkpt lat="45.8955490" lon="9.8379010">
	<ele>1673.80</ele>
	<time>2023-11-18T08:50:26.000Z</time>
</trkpt>
<trkpt lat="45.8955490" lon="9.8379010">
	<ele>1674.00</ele>
	<time>2023-11-18T08:50:27.000Z</time>
</trkpt>
<trkpt lat="45.8955490" lon="9.8379010">
	<ele>1674.00</ele>
	<time>2023-11-18T08:50:28.000Z</time>
</trkpt>
<trkpt lat="45.8955500" lon="9.8379000">
	<ele>1674.20</ele>
	<time>2023-11-18T08:50:29.000Z</time>
</trkpt>
<trkpt lat="45.8955500" lon="9.8378990">
	<ele>1674.20</ele>
	<time>2023-11-18T08:50:30.000Z</time>
</trkpt>
<trkpt lat="45.8955500" lon="9.8378990">
	<ele>1674.40</ele>
	<time>2023-11-18T08:50:31.000Z</time>
</trkpt>
<trkpt lat="45.8955500" lon="9.8378990">
	<ele>1674.40</ele>
	<time>2023-11-18T08:50:32.000Z</time>
</trkpt>
<trkpt lat="45.8955500" lon="9.8378990">
	<ele>1674.40</ele>
	<time>2023-11-18T08:50:33.000Z</time>
</trkpt>
<trkpt lat="45.8955510" lon="9.8378980">
	<ele>1674.60</ele>
	<time>2023-11-18T08:50:34.000Z</time>
</trkpt>
<trkpt lat="45.8955510" lon="9.8378980">
	<ele>1674.80</ele>
	<time>2023-11-18T08:50:35.000Z</time>
</trkpt>
<trkpt lat="45.8955530" lon="9.8378980">
	<ele>1674.80</ele>
	<time>2023-11-18T08:50:36.000Z</time>
</trkpt>
<trkpt lat="45.8955550" lon="9.8378970">
	<ele>1675.00</ele>
	<time>2023-11-18T08:50:37.000Z</time>
</trkpt>
<trkpt lat="45.8955580" lon="9.8378970">
	<ele>1675.20</ele>
	<time>2023-11-18T08:50:38.000Z</time>
</trkpt>
<trkpt lat="45.8955650" lon="9.8378880">
	<ele>1675.20</ele>
	<time>2023-11-18T08:50:39.000Z</time>
</trkpt>
<trkpt lat="45.8955790" lon="9.8378760">
	<ele>1675.20</ele>
	<time>2023-11-18T08:50:40.000Z</time>
</trkpt>
<trkpt lat="45.8955910" lon="9.8378670">
	<ele>1675.20</ele>
	<time>2023-11-18T08:50:41.000Z</time>
</trkpt>
<trkpt lat="45.8956050" lon="9.8378570">
	<ele>1675.20</ele>
	<time>2023-11-18T08:50:42.000Z</time>
</trkpt>
<trkpt lat="45.8956210" lon="9.8378470">
	<ele>1675.20</ele>
	<time>2023-11-18T08:50:43.000Z</time>
</trkpt>
<trkpt lat="45.8956340" lon="9.8378360">
	<ele>1675.40</ele>
	<time>2023-11-18T08:50:44.000Z</time>
</trkpt>
<trkpt lat="45.8956500" lon="9.8378220">
	<ele>1675.60</ele>
	<time>2023-11-18T08:50:45.000Z</time>
</trkpt>
<trkpt lat="45.8956650" lon="9.8378050">
	<ele>1675.60</ele>
	<time>2023-11-18T08:50:46.000Z</time>
</trkpt>
<trkpt lat="45.8956740" lon="9.8377900">
	<ele>1675.60</ele>
	<time>2023-11-18T08:50:47.000Z</time>
</trkpt>
<trkpt lat="45.8956870" lon="9.8377760">
	<ele>1675.60</ele>
	<time>2023-11-18T08:50:48.000Z</time>
</trkpt>
<trkpt lat="45.8956940" lon="9.8377700">
	<ele>1675.80</ele>
	<time>2023-11-18T08:50:49.000Z</time>
</trkpt>
<trkpt lat="45.8957000" lon="9.8377600">
	<ele>1675.80</ele>
	<time>2023-11-18T08:50:50.000Z</time>
</trkpt>
<trkpt lat="45.8957050" lon="9.8377530">
	<ele>1676.00</ele>
	<time>2023-11-18T08:50:51.000Z</time>
</trkpt>
<trkpt lat="45.8957120" lon="9.8377480">
	<ele>1676.00</ele>
	<time>2023-11-18T08:50:52.000Z</time>
</trkpt>
<trkpt lat="45.8957190" lon="9.8377430">
	<ele>1676.00</ele>
	<time>2023-11-18T08:50:53.000Z</time>
</trkpt>
<trkpt lat="45.8957260" lon="9.8377420">
	<ele>1676.20</ele>
	<time>2023-11-18T08:50:54.000Z</time>
</trkpt>
<trkpt lat="45.8957330" lon="9.8377420">
	<ele>1676.20</ele>
	<time>2023-11-18T08:50:55.000Z</time>
</trkpt>
<trkpt lat="45.8957410" lon="9.8377420">
	<ele>1676.40</ele>
	<time>2023-11-18T08:50:56.000Z</time>
</trkpt>
<trkpt lat="45.8957470" lon="9.8377410">
	<ele>1676.40</ele>
	<time>2023-11-18T08:50:57.000Z</time>
</trkpt>
<trkpt lat="45.8957510" lon="9.8377410">
	<ele>1676.40</ele>
	<time>2023-11-18T08:50:58.000Z</time>
</trkpt>
<trkpt lat="45.8957570" lon="9.8377430">
	<ele>1676.40</ele>
	<time>2023-11-18T08:50:59.000Z</time>
</trkpt>
<trkpt lat="45.8957630" lon="9.8377450">
	<ele>1676.60</ele>
	<time>2023-11-18T08:51:00.000Z</time>
</trkpt>
<trkpt lat="45.8957710" lon="9.8377450">
	<ele>1676.60</ele>
	<time>2023-11-18T08:51:01.000Z</time>
</trkpt>
<trkpt lat="45.8957770" lon="9.8377410">
	<ele>1676.80</ele>
	<time>2023-11-18T08:51:02.000Z</time>
</trkpt>
<trkpt lat="45.8957830" lon="9.8377370">
	<ele>1677.00</ele>
	<time>2023-11-18T08:51:03.000Z</time>
</trkpt>
<trkpt lat="45.8957910" lon="9.8377330">
	<ele>1677.00</ele>
	<time>2023-11-18T08:51:04.000Z</time>
</trkpt>
<trkpt lat="45.8957980" lon="9.8377300">
	<ele>1677.20</ele>
	<time>2023-11-18T08:51:05.000Z</time>
</trkpt>
<trkpt lat="45.8958040" lon="9.8377320">
	<ele>1677.20</ele>
	<time>2023-11-18T08:51:06.000Z</time>
</trkpt>
<trkpt lat="45.8958100" lon="9.8377330">
	<ele>1677.40</ele>
	<time>2023-11-18T08:51:07.000Z</time>
</trkpt>
<trkpt lat="45.8958160" lon="9.8377310">
	<ele>1677.40</ele>
	<time>2023-11-18T08:51:08.000Z</time>
</trkpt>
<trkpt lat="45.8958220" lon="9.8377280">
	<ele>1677.60</ele>
	<time>2023-11-18T08:51:09.000Z</time>
</trkpt>
<trkpt lat="45.8958260" lon="9.8377250">
	<ele>1677.80</ele>
	<time>2023-11-18T08:51:10.000Z</time>
</trkpt>
<trkpt lat="45.8958290" lon="9.8377180">
	<ele>1677.80</ele>
	<time>2023-11-18T08:51:11.000Z</time>
</trkpt>
<trkpt lat="45.8958320" lon="9.8377100">
	<ele>1678.00</ele>
	<time>2023-11-18T08:51:12.000Z</time>
</trkpt>
<trkpt lat="45.8958350" lon="9.8377020">
	<ele>1678.00</ele>
	<time>2023-11-18T08:51:13.000Z</time>
</trkpt>
<trkpt lat="45.8958390" lon="9.8376950">
	<ele>1678.40</ele>
	<time>2023-11-18T08:51:14.000Z</time>
</trkpt>
<trkpt lat="45.8958460" lon="9.8376890">
	<ele>1678.40</ele>
	<time>2023-11-18T08:51:15.000Z</time>
</trkpt>
<trkpt lat="45.8958510" lon="9.8376840">
	<ele>1678.60</ele>
	<time>2023-11-18T08:51:16.000Z</time>
</trkpt>
<trkpt lat="45.8958560" lon="9.8376840">
	<ele>1679.00</ele>
	<time>2023-11-18T08:51:17.000Z</time>
</trkpt>
<trkpt lat="45.8958600" lon="9.8376840">
	<ele>1679.20</ele>
	<time>2023-11-18T08:51:18.000Z</time>
</trkpt>
<trkpt lat="45.8958630" lon="9.8376870">
	<ele>1679.40</ele>
	<time>2023-11-18T08:51:19.000Z</time>
</trkpt>
<trkpt lat="45.8958630" lon="9.8376890">
	<ele>1679.60</ele>
	<time>2023-11-18T08:51:20.000Z</time>
</trkpt>
<trkpt lat="45.8958630" lon="9.8376900">
	<ele>1679.60</ele>
	<time>2023-11-18T08:51:21.000Z</time>
</trkpt>
<trkpt lat="45.8958720" lon="9.8376860">
	<ele>1679.60</ele>
	<time>2023-11-18T08:51:22.000Z</time>
</trkpt>
<trkpt lat="45.8958800" lon="9.8376800">
	<ele>1679.80</ele>
	<time>2023-11-18T08:51:23.000Z</time>
</trkpt>
<trkpt lat="45.8958930" lon="9.8376750">
	<ele>1679.80</ele>
	<time>2023-11-18T08:51:24.000Z</time>
</trkpt>
<trkpt lat="45.8958990" lon="9.8376760">
	<ele>1679.80</ele>
	<time>2023-11-18T08:51:25.000Z</time>
</trkpt>
<trkpt lat="45.8959050" lon="9.8376790">
	<ele>1680.00</ele>
	<time>2023-11-18T08:51:26.000Z</time>
</trkpt>
<trkpt lat="45.8959090" lon="9.8376840">
	<ele>1680.00</ele>
	<time>2023-11-18T08:51:27.000Z</time>
</trkpt>
<trkpt lat="45.8959140" lon="9.8376890">
	<ele>1680.20</ele>
	<time>2023-11-18T08:51:28.000Z</time>
</trkpt>
<trkpt lat="45.8959180" lon="9.8376890">
	<ele>1680.20</ele>
	<time>2023-11-18T08:51:29.000Z</time>
</trkpt>
<trkpt lat="45.8959250" lon="9.8376880">
	<ele>1680.40</ele>
	<time>2023-11-18T08:51:30.000Z</time>
</trkpt>
<trkpt lat="45.8959320" lon="9.8376860">
	<ele>1680.60</ele>
	<time>2023-11-18T08:51:31.000Z</time>
</trkpt>
<trkpt lat="45.8959380" lon="9.8376830">
	<ele>1680.80</ele>
	<time>2023-11-18T08:51:32.000Z</time>
</trkpt>
<trkpt lat="45.8959450" lon="9.8376840">
	<ele>1680.80</ele>
	<time>2023-11-18T08:51:33.000Z</time>
</trkpt>
<trkpt lat="45.8959520" lon="9.8376820">
	<ele>1681.00</ele>
	<time>2023-11-18T08:51:34.000Z</time>
</trkpt>
<trkpt lat="45.8959560" lon="9.8376780">
	<ele>1681.20</ele>
	<time>2023-11-18T08:51:35.000Z</time>
</trkpt>
<trkpt lat="45.8959590" lon="9.8376760">
	<ele>1681.20</ele>
	<time>2023-11-18T08:51:36.000Z</time>
</trkpt>
<trkpt lat="45.8959660" lon="9.8376740">
	<ele>1681.40</ele>
	<time>2023-11-18T08:51:37.000Z</time>
</trkpt>
<trkpt lat="45.8959700" lon="9.8376670">
	<ele>1681.60</ele>
	<time>2023-11-18T08:51:38.000Z</time>
</trkpt>
<trkpt lat="45.8959740" lon="9.8376620">
	<ele>1681.80</ele>
	<time>2023-11-18T08:51:39.000Z</time>
</trkpt>
<trkpt lat="45.8959770" lon="9.8376570">
	<ele>1682.20</ele>
	<time>2023-11-18T08:51:40.000Z</time>
</trkpt>
<trkpt lat="45.8959800" lon="9.8376530">
	<ele>1682.40</ele>
	<time>2023-11-18T08:51:41.000Z</time>
</trkpt>
<trkpt lat="45.8959810" lon="9.8376480">
	<ele>1682.40</ele>
	<time>2023-11-18T08:51:42.000Z</time>
</trkpt>
<trkpt lat="45.8959830" lon="9.8376440">
	<ele>1682.80</ele>
	<time>2023-11-18T08:51:43.000Z</time>
</trkpt>
<trkpt lat="45.8959850" lon="9.8376400">
	<ele>1683.00</ele>
	<time>2023-11-18T08:51:44.000Z</time>
</trkpt>
<trkpt lat="45.8959880" lon="9.8376340">
	<ele>1683.20</ele>
	<time>2023-11-18T08:51:45.000Z</time>
</trkpt>
<trkpt lat="45.8959900" lon="9.8376280">
	<ele>1683.40</ele>
	<time>2023-11-18T08:51:46.000Z</time>
</trkpt>
<trkpt lat="45.8959950" lon="9.8376220">
	<ele>1683.40</ele>
	<time>2023-11-18T08:51:47.000Z</time>
</trkpt>
<trkpt lat="45.8959990" lon="9.8376180">
	<ele>1683.60</ele>
	<time>2023-11-18T08:51:48.000Z</time>
</trkpt>
<trkpt lat="45.8960020" lon="9.8376210">
	<ele>1683.80</ele>
	<time>2023-11-18T08:51:49.000Z</time>
</trkpt>
<trkpt lat="45.8960070" lon="9.8376240">
	<ele>1683.80</ele>
	<time>2023-11-18T08:51:50.000Z</time>
</trkpt>
<trkpt lat="45.8960120" lon="9.8376310">
	<ele>1684.00</ele>
	<time>2023-11-18T08:51:51.000Z</time>
</trkpt>
<trkpt lat="45.8960190" lon="9.8376310">
	<ele>1684.40</ele>
	<time>2023-11-18T08:51:52.000Z</time>
</trkpt>
<trkpt lat="45.8960230" lon="9.8376330">
	<ele>1684.60</ele>
	<time>2023-11-18T08:51:53.000Z</time>
</trkpt>
<trkpt lat="45.8960270" lon="9.8376310">
	<ele>1684.80</ele>
	<time>2023-11-18T08:51:54.000Z</time>
</trkpt>
<trkpt lat="45.8960310" lon="9.8376340">
	<ele>1685.00</ele>
	<time>2023-11-18T08:51:55.000Z</time>
</trkpt>
<trkpt lat="45.8960310" lon="9.8376410">
	<ele>1685.00</ele>
	<time>2023-11-18T08:51:56.000Z</time>
</trkpt>
<trkpt lat="45.8960330" lon="9.8376470">
	<ele>1685.00</ele>
	<time>2023-11-18T08:51:57.000Z</time>
</trkpt>
<trkpt lat="45.8960400" lon="9.8376510">
	<ele>1685.20</ele>
	<time>2023-11-18T08:51:58.000Z</time>
</trkpt>
<trkpt lat="45.8960450" lon="9.8376540">
	<ele>1685.20</ele>
	<time>2023-11-18T08:51:59.000Z</time>
</trkpt>
<trkpt lat="45.8960500" lon="9.8376540">
	<ele>1685.20</ele>
	<time>2023-11-18T08:52:00.000Z</time>
</trkpt>
<trkpt lat="45.8960540" lon="9.8376500">
	<ele>1685.40</ele>
	<time>2023-11-18T08:52:01.000Z</time>
</trkpt>
<trkpt lat="45.8960590" lon="9.8376500">
	<ele>1685.60</ele>
	<time>2023-11-18T08:52:02.000Z</time>
</trkpt>
<trkpt lat="45.8960630" lon="9.8376520">
	<ele>1685.80</ele>
	<time>2023-11-18T08:52:03.000Z</time>
</trkpt>
<trkpt lat="45.8960660" lon="9.8376540">
	<ele>1686.00</ele>
	<time>2023-11-18T08:52:04.000Z</time>
</trkpt>
<trkpt lat="45.8960710" lon="9.8376530">
	<ele>1686.00</ele>
	<time>2023-11-18T08:52:05.000Z</time>
</trkpt>
<trkpt lat="45.8960770" lon="9.8376550">
	<ele>1686.20</ele>
	<time>2023-11-18T08:52:06.000Z</time>
</trkpt>
<trkpt lat="45.8960840" lon="9.8376570">
	<ele>1686.40</ele>
	<time>2023-11-18T08:52:07.000Z</time>
</trkpt>
<trkpt lat="45.8960890" lon="9.8376580">
	<ele>1686.40</ele>
	<time>2023-11-18T08:52:08.000Z</time>
</trkpt>
<trkpt lat="45.8960930" lon="9.8376600">
	<ele>1686.80</ele>
	<time>2023-11-18T08:52:09.000Z</time>
</trkpt>
<trkpt lat="45.8960980" lon="9.8376610">
	<ele>1687.20</ele>
	<time>2023-11-18T08:52:10.000Z</time>
</trkpt>
<trkpt lat="45.8961020" lon="9.8376620">
	<ele>1687.60</ele>
	<time>2023-11-18T08:52:11.000Z</time>
</trkpt>
<trkpt lat="45.8961030" lon="9.8376620">
	<ele>1687.60</ele>
	<time>2023-11-18T08:52:12.000Z</time>
</trkpt>
<trkpt lat="45.8961050" lon="9.8376620">
	<ele>1687.80</ele>
	<time>2023-11-18T08:52:13.000Z</time>
</trkpt>
<trkpt lat="45.8961110" lon="9.8376610">
	<ele>1687.80</ele>
	<time>2023-11-18T08:52:14.000Z</time>
</trkpt>
<trkpt lat="45.8961140" lon="9.8376610">
	<ele>1688.00</ele>
	<time>2023-11-18T08:52:15.000Z</time>
</trkpt>
<trkpt lat="45.8961170" lon="9.8376600">
	<ele>1688.00</ele>
	<time>2023-11-18T08:52:16.000Z</time>
</trkpt>
<trkpt lat="45.8961190" lon="9.8376610">
	<ele>1688.20</ele>
	<time>2023-11-18T08:52:17.000Z</time>
</trkpt>
<trkpt lat="45.8961220" lon="9.8376660">
	<ele>1688.20</ele>
	<time>2023-11-18T08:52:18.000Z</time>
</trkpt>
<trkpt lat="45.8961250" lon="9.8376690">
	<ele>1688.40</ele>
	<time>2023-11-18T08:52:19.000Z</time>
</trkpt>
<trkpt lat="45.8961270" lon="9.8376720">
	<ele>1688.40</ele>
	<time>2023-11-18T08:52:20.000Z</time>
</trkpt>
<trkpt lat="45.8961300" lon="9.8376730">
	<ele>1688.60</ele>
	<time>2023-11-18T08:52:21.000Z</time>
</trkpt>
<trkpt lat="45.8961340" lon="9.8376730">
	<ele>1688.60</ele>
	<time>2023-11-18T08:52:22.000Z</time>
</trkpt>
<trkpt lat="45.8961380" lon="9.8376740">
	<ele>1688.80</ele>
	<time>2023-11-18T08:52:23.000Z</time>
</trkpt>
<trkpt lat="45.8961450" lon="9.8376750">
	<ele>1689.00</ele>
	<time>2023-11-18T08:52:24.000Z</time>
</trkpt>
<trkpt lat="45.8961480" lon="9.8376720">
	<ele>1689.00</ele>
	<time>2023-11-18T08:52:25.000Z</time>
</trkpt>
<trkpt lat="45.8961500" lon="9.8376690">
	<ele>1689.40</ele>
	<time>2023-11-18T08:52:26.000Z</time>
</trkpt>
<trkpt lat="45.8961510" lon="9.8376700">
	<ele>1689.60</ele>
	<time>2023-11-18T08:52:27.000Z</time>
</trkpt>
<trkpt lat="45.8961550" lon="9.8376700">
	<ele>1689.80</ele>
	<time>2023-11-18T08:52:28.000Z</time>
</trkpt>
<trkpt lat="45.8961590" lon="9.8376710">
	<ele>1690.00</ele>
	<time>2023-11-18T08:52:29.000Z</time>
</trkpt>
<trkpt lat="45.8961640" lon="9.8376680">
	<ele>1690.20</ele>
	<time>2023-11-18T08:52:30.000Z</time>
</trkpt>
<trkpt lat="45.8961660" lon="9.8376660">
	<ele>1690.40</ele>
	<time>2023-11-18T08:52:31.000Z</time>
</trkpt>
<trkpt lat="45.8961720" lon="9.8376630">
	<ele>1690.60</ele>
	<time>2023-11-18T08:52:32.000Z</time>
</trkpt>
<trkpt lat="45.8961760" lon="9.8376630">
	<ele>1690.80</ele>
	<time>2023-11-18T08:52:33.000Z</time>
</trkpt>
<trkpt lat="45.8961830" lon="9.8376620">
	<ele>1691.00</ele>
	<time>2023-11-18T08:52:34.000Z</time>
</trkpt>
<trkpt lat="45.8961870" lon="9.8376620">
	<ele>1691.20</ele>
	<time>2023-11-18T08:52:35.000Z</time>
</trkpt>
<trkpt lat="45.8961900" lon="9.8376610">
	<ele>1691.40</ele>
	<time>2023-11-18T08:52:36.000Z</time>
</trkpt>
<trkpt lat="45.8961950" lon="9.8376590">
	<ele>1691.40</ele>
	<time>2023-11-18T08:52:37.000Z</time>
</trkpt>
<trkpt lat="45.8962010" lon="9.8376560">
	<ele>1691.60</ele>
	<time>2023-11-18T08:52:38.000Z</time>
</trkpt>
<trkpt lat="45.8962080" lon="9.8376540">
	<ele>1691.60</ele>
	<time>2023-11-18T08:52:39.000Z</time>
</trkpt>
<trkpt lat="45.8962130" lon="9.8376530">
	<ele>1691.80</ele>
	<time>2023-11-18T08:52:40.000Z</time>
</trkpt>
<trkpt lat="45.8962190" lon="9.8376510">
	<ele>1692.00</ele>
	<time>2023-11-18T08:52:41.000Z</time>
</trkpt>
<trkpt lat="45.8962250" lon="9.8376540">
	<ele>1692.00</ele>
	<time>2023-11-18T08:52:42.000Z</time>
</trkpt>
<trkpt lat="45.8962320" lon="9.8376550">
	<ele>1692.20</ele>
	<time>2023-11-18T08:52:43.000Z</time>
</trkpt>
<trkpt lat="45.8962390" lon="9.8376560">
	<ele>1692.40</ele>
	<time>2023-11-18T08:52:44.000Z</time>
</trkpt>
<trkpt lat="45.8962440" lon="9.8376550">
	<ele>1692.40</ele>
	<time>2023-11-18T08:52:45.000Z</time>
</trkpt>
<trkpt lat="45.8962470" lon="9.8376550">
	<ele>1692.40</ele>
	<time>2023-11-18T08:52:46.000Z</time>
</trkpt>
<trkpt lat="45.8962530" lon="9.8376560">
	<ele>1692.60</ele>
	<time>2023-11-18T08:52:47.000Z</time>
</trkpt>
<trkpt lat="45.8962590" lon="9.8376570">
	<ele>1692.80</ele>
	<time>2023-11-18T08:52:48.000Z</time>
</trkpt>
<trkpt lat="45.8962650" lon="9.8376560">
	<ele>1693.00</ele>
	<time>2023-11-18T08:52:49.000Z</time>
</trkpt>
<trkpt lat="45.8962710" lon="9.8376560">
	<ele>1693.20</ele>
	<time>2023-11-18T08:52:50.000Z</time>
</trkpt>
<trkpt lat="45.8962740" lon="9.8376540">
	<ele>1693.20</ele>
	<time>2023-11-18T08:52:51.000Z</time>
</trkpt>
<trkpt lat="45.8962770" lon="9.8376540">
	<ele>1693.40</ele>
	<time>2023-11-18T08:52:52.000Z</time>
</trkpt>
<trkpt lat="45.8962800" lon="9.8376540">
	<ele>1693.60</ele>
	<time>2023-11-18T08:52:53.000Z</time>
</trkpt>
<trkpt lat="45.8962800" lon="9.8376530">
	<ele>1693.60</ele>
	<time>2023-11-18T08:52:54.000Z</time>
</trkpt>
<trkpt lat="45.8962800" lon="9.8376520">
	<ele>1693.60</ele>
	<time>2023-11-18T08:52:55.000Z</time>
</trkpt>
<trkpt lat="45.8962820" lon="9.8376520">
	<ele>1693.80</ele>
	<time>2023-11-18T08:52:56.000Z</time>
</trkpt>
<trkpt lat="45.8962840" lon="9.8376530">
	<ele>1693.80</ele>
	<time>2023-11-18T08:52:57.000Z</time>
</trkpt>
<trkpt lat="45.8962860" lon="9.8376530">
	<ele>1693.80</ele>
	<time>2023-11-18T08:52:58.000Z</time>
</trkpt>
<trkpt lat="45.8962870" lon="9.8376520">
	<ele>1693.80</ele>
	<time>2023-11-18T08:52:59.000Z</time>
</trkpt>
<trkpt lat="45.8962880" lon="9.8376520">
	<ele>1693.80</ele>
	<time>2023-11-18T08:53:00.000Z</time>
</trkpt>
<trkpt lat="45.8962880" lon="9.8376510">
	<ele>1693.80</ele>
	<time>2023-11-18T08:53:01.000Z</time>
</trkpt>
<trkpt lat="45.8962880" lon="9.8376510">
	<ele>1693.80</ele>
	<time>2023-11-18T08:53:02.000Z</time>
</trkpt>
<trkpt lat="45.8962880" lon="9.8376510">
	<ele>1693.80</ele>
	<time>2023-11-18T08:53:03.000Z</time>
</trkpt>
<trkpt lat="45.8962880" lon="9.8376510">
	<ele>1693.80</ele>
	<time>2023-11-18T08:53:04.000Z</time>
</trkpt>
<trkpt lat="45.8962880" lon="9.8376510">
	<ele>1693.80</ele>
	<time>2023-11-18T08:53:05.000Z</time>
</trkpt>
<trkpt lat="45.8962880" lon="9.8376510">
	<ele>1694.00</ele>
	<time>2023-11-18T08:53:06.000Z</time>
</trkpt>
<trkpt lat="45.8962880" lon="9.8376510">
	<ele>1694.00</ele>
	<time>2023-11-18T08:53:07.000Z</time>
</trkpt>
<trkpt lat="45.8962880" lon="9.8376510">
	<ele>1694.20</ele>
	<time>2023-11-18T08:53:08.000Z</time>
</trkpt>
<trkpt lat="45.8962880" lon="9.8376510">
	<ele>1694.20</ele>
	<time>2023-11-18T08:53:09.000Z</time>
</trkpt>
<trkpt lat="45.8962880" lon="9.8376510">
	<ele>1694.20</ele>
	<time>2023-11-18T08:53:10.000Z</time>
</trkpt>
<trkpt lat="45.8962880" lon="9.8376510">
	<ele>1694.40</ele>
	<time>2023-11-18T08:53:11.000Z</time>
</trkpt>
<trkpt lat="45.8962870" lon="9.8376510">
	<ele>1694.40</ele>
	<time>2023-11-18T08:53:12.000Z</time>
</trkpt>
<trkpt lat="45.8962870" lon="9.8376510">
	<ele>1694.40</ele>
	<time>2023-11-18T08:53:13.000Z</time>
</trkpt>
<trkpt lat="45.8962870" lon="9.8376510">
	<ele>1694.60</ele>
	<time>2023-11-18T08:53:14.000Z</time>
</trkpt>
<trkpt lat="45.8962870" lon="9.8376510">
	<ele>1694.80</ele>
	<time>2023-11-18T08:53:15.000Z</time>
</trkpt>
<trkpt lat="45.8962870" lon="9.8376510">
	<ele>1694.80</ele>
	<time>2023-11-18T08:53:16.000Z</time>
</trkpt>
<trkpt lat="45.8962870" lon="9.8376510">
	<ele>1695.00</ele>
	<time>2023-11-18T08:53:17.000Z</time>
</trkpt>
<trkpt lat="45.8962870" lon="9.8376510">
	<ele>1695.20</ele>
	<time>2023-11-18T08:53:18.000Z</time>
</trkpt>
<trkpt lat="45.8962870" lon="9.8376510">
	<ele>1695.40</ele>
	<time>2023-11-18T08:53:19.000Z</time>
</trkpt>
<trkpt lat="45.8962870" lon="9.8376510">
	<ele>1695.60</ele>
	<time>2023-11-18T08:53:20.000Z</time>
</trkpt>
<trkpt lat="45.8962870" lon="9.8376510">
	<ele>1695.60</ele>
	<time>2023-11-18T08:53:21.000Z</time>
</trkpt>
<trkpt lat="45.8962870" lon="9.8376510">
	<ele>1695.80</ele>
	<time>2023-11-18T08:53:22.000Z</time>
</trkpt>
<trkpt lat="45.8962870" lon="9.8376510">
	<ele>1695.80</ele>
	<time>2023-11-18T08:53:23.000Z</time>
</trkpt>
<trkpt lat="45.8962870" lon="9.8376480">
	<ele>1695.80</ele>
	<time>2023-11-18T08:53:24.000Z</time>
</trkpt>
<trkpt lat="45.8962880" lon="9.8376420">
	<ele>1696.00</ele>
	<time>2023-11-18T08:53:25.000Z</time>
</trkpt>
<trkpt lat="45.8962880" lon="9.8376370">
	<ele>1696.20</ele>
	<time>2023-11-18T08:53:26.000Z</time>
</trkpt>
<trkpt lat="45.8962880" lon="9.8376320">
	<ele>1696.40</ele>
	<time>2023-11-18T08:53:27.000Z</time>
</trkpt>
<trkpt lat="45.8962900" lon="9.8376260">
	<ele>1696.60</ele>
	<time>2023-11-18T08:53:28.000Z</time>
</trkpt>
<trkpt lat="45.8962900" lon="9.8376180">
	<ele>1696.80</ele>
	<time>2023-11-18T08:53:29.000Z</time>
</trkpt>
<trkpt lat="45.8962900" lon="9.8376100">
	<ele>1697.00</ele>
	<time>2023-11-18T08:53:30.000Z</time>
</trkpt>
<trkpt lat="45.8962910" lon="9.8376030">
	<ele>1697.20</ele>
	<time>2023-11-18T08:53:31.000Z</time>
</trkpt>
<trkpt lat="45.8962920" lon="9.8375970">
	<ele>1697.40</ele>
	<time>2023-11-18T08:53:32.000Z</time>
</trkpt>
<trkpt lat="45.8962950" lon="9.8375930">
	<ele>1697.40</ele>
	<time>2023-11-18T08:53:33.000Z</time>
</trkpt>
<trkpt lat="45.8962980" lon="9.8375880">
	<ele>1697.60</ele>
	<time>2023-11-18T08:53:34.000Z</time>
</trkpt>
<trkpt lat="45.8963000" lon="9.8375810">
	<ele>1697.60</ele>
	<time>2023-11-18T08:53:35.000Z</time>
</trkpt>
<trkpt lat="45.8963040" lon="9.8375750">
	<ele>1697.60</ele>
	<time>2023-11-18T08:53:36.000Z</time>
</trkpt>
<trkpt lat="45.8963080" lon="9.8375690">
	<ele>1697.80</ele>
	<time>2023-11-18T08:53:37.000Z</time>
</trkpt>
<trkpt lat="45.8963110" lon="9.8375640">
	<ele>1698.00</ele>
	<time>2023-11-18T08:53:38.000Z</time>
</trkpt>
<trkpt lat="45.8963140" lon="9.8375610">
	<ele>1698.40</ele>
	<time>2023-11-18T08:53:39.000Z</time>
</trkpt>
<trkpt lat="45.8963180" lon="9.8375560">
	<ele>1698.60</ele>
	<time>2023-11-18T08:53:40.000Z</time>
</trkpt>
<trkpt lat="45.8963220" lon="9.8375520">
	<ele>1698.80</ele>
	<time>2023-11-18T08:53:41.000Z</time>
</trkpt>
<trkpt lat="45.8963250" lon="9.8375510">
	<ele>1699.00</ele>
	<time>2023-11-18T08:53:42.000Z</time>
</trkpt>
<trkpt lat="45.8963260" lon="9.8375500">
	<ele>1699.00</ele>
	<time>2023-11-18T08:53:43.000Z</time>
</trkpt>
<trkpt lat="45.8963320" lon="9.8375490">
	<ele>1699.40</ele>
	<time>2023-11-18T08:53:44.000Z</time>
</trkpt>
<trkpt lat="45.8963370" lon="9.8375460">
	<ele>1699.60</ele>
	<time>2023-11-18T08:53:45.000Z</time>
</trkpt>
<trkpt lat="45.8963420" lon="9.8375430">
	<ele>1699.60</ele>
	<time>2023-11-18T08:53:46.000Z</time>
</trkpt>
<trkpt lat="45.8963470" lon="9.8375390">
	<ele>1699.80</ele>
	<time>2023-11-18T08:53:47.000Z</time>
</trkpt>
<trkpt lat="45.8963520" lon="9.8375360">
	<ele>1700.00</ele>
	<time>2023-11-18T08:53:48.000Z</time>
</trkpt>
<trkpt lat="45.8963570" lon="9.8375320">
	<ele>1700.20</ele>
	<time>2023-11-18T08:53:49.000Z</time>
</trkpt>
<trkpt lat="45.8963620" lon="9.8375290">
	<ele>1700.20</ele>
	<time>2023-11-18T08:53:50.000Z</time>
</trkpt>
<trkpt lat="45.8963710" lon="9.8375200">
	<ele>1700.20</ele>
	<time>2023-11-18T08:53:51.000Z</time>
</trkpt>
<trkpt lat="45.8963860" lon="9.8375080">
	<ele>1700.40</ele>
	<time>2023-11-18T08:53:52.000Z</time>
</trkpt>
<trkpt lat="45.8963990" lon="9.8374950">
	<ele>1700.40</ele>
	<time>2023-11-18T08:53:53.000Z</time>
</trkpt>
<trkpt lat="45.8964120" lon="9.8374820">
	<ele>1700.60</ele>
	<time>2023-11-18T08:53:54.000Z</time>
</trkpt>
<trkpt lat="45.8964270" lon="9.8374680">
	<ele>1700.60</ele>
	<time>2023-11-18T08:53:55.000Z</time>
</trkpt>
<trkpt lat="45.8964420" lon="9.8374510">
	<ele>1700.80</ele>
	<time>2023-11-18T08:53:56.000Z</time>
</trkpt>
<trkpt lat="45.8964570" lon="9.8374360">
	<ele>1701.00</ele>
	<time>2023-11-18T08:53:57.000Z</time>
</trkpt>
<trkpt lat="45.8964700" lon="9.8374230">
	<ele>1701.00</ele>
	<time>2023-11-18T08:53:58.000Z</time>
</trkpt>
<trkpt lat="45.8964860" lon="9.8374090">
	<ele>1701.20</ele>
	<time>2023-11-18T08:53:59.000Z</time>
</trkpt>
<trkpt lat="45.8965050" lon="9.8373940">
	<ele>1701.40</ele>
	<time>2023-11-18T08:54:00.000Z</time>
</trkpt>
<trkpt lat="45.8965110" lon="9.8373870">
	<ele>1701.60</ele>
	<time>2023-11-18T08:54:01.000Z</time>
</trkpt>
<trkpt lat="45.8965180" lon="9.8373800">
	<ele>1701.80</ele>
	<time>2023-11-18T08:54:02.000Z</time>
</trkpt>
<trkpt lat="45.8965210" lon="9.8373740">
	<ele>1702.00</ele>
	<time>2023-11-18T08:54:03.000Z</time>
</trkpt>
<trkpt lat="45.8965240" lon="9.8373680">
	<ele>1702.40</ele>
	<time>2023-11-18T08:54:04.000Z</time>
</trkpt>
<trkpt lat="45.8965250" lon="9.8373620">
	<ele>1702.40</ele>
	<time>2023-11-18T08:54:05.000Z</time>
</trkpt>
<trkpt lat="45.8965290" lon="9.8373570">
	<ele>1702.60</ele>
	<time>2023-11-18T08:54:06.000Z</time>
</trkpt>
<trkpt lat="45.8965310" lon="9.8373510">
	<ele>1702.60</ele>
	<time>2023-11-18T08:54:07.000Z</time>
</trkpt>
<trkpt lat="45.8965350" lon="9.8373460">
	<ele>1702.60</ele>
	<time>2023-11-18T08:54:08.000Z</time>
</trkpt>
<trkpt lat="45.8965380" lon="9.8373420">
	<ele>1702.80</ele>
	<time>2023-11-18T08:54:09.000Z</time>
</trkpt>
<trkpt lat="45.8965440" lon="9.8373390">
	<ele>1702.80</ele>
	<time>2023-11-18T08:54:10.000Z</time>
</trkpt>
<trkpt lat="45.8965500" lon="9.8373380">
	<ele>1702.80</ele>
	<time>2023-11-18T08:54:11.000Z</time>
</trkpt>
<trkpt lat="45.8965560" lon="9.8373330">
	<ele>1702.80</ele>
	<time>2023-11-18T08:54:12.000Z</time>
</trkpt>
<trkpt lat="45.8965630" lon="9.8373240">
	<ele>1702.80</ele>
	<time>2023-11-18T08:54:13.000Z</time>
</trkpt>
<trkpt lat="45.8965680" lon="9.8373190">
	<ele>1702.80</ele>
	<time>2023-11-18T08:54:14.000Z</time>
</trkpt>
<trkpt lat="45.8965720" lon="9.8373130">
	<ele>1703.00</ele>
	<time>2023-11-18T08:54:15.000Z</time>
</trkpt>
<trkpt lat="45.8965770" lon="9.8373080">
	<ele>1703.20</ele>
	<time>2023-11-18T08:54:16.000Z</time>
</trkpt>
<trkpt lat="45.8965840" lon="9.8373010">
	<ele>1703.20</ele>
	<time>2023-11-18T08:54:17.000Z</time>
</trkpt>
<trkpt lat="45.8965930" lon="9.8372930">
	<ele>1703.40</ele>
	<time>2023-11-18T08:54:18.000Z</time>
</trkpt>
<trkpt lat="45.8966010" lon="9.8372840">
	<ele>1703.40</ele>
	<time>2023-11-18T08:54:19.000Z</time>
</trkpt>
<trkpt lat="45.8966070" lon="9.8372780">
	<ele>1703.60</ele>
	<time>2023-11-18T08:54:20.000Z</time>
</trkpt>
<trkpt lat="45.8966110" lon="9.8372730">
	<ele>1703.80</ele>
	<time>2023-11-18T08:54:21.000Z</time>
</trkpt>
<trkpt lat="45.8966130" lon="9.8372690">
	<ele>1704.00</ele>
	<time>2023-11-18T08:54:22.000Z</time>
</trkpt>
<trkpt lat="45.8966140" lon="9.8372640">
	<ele>1704.20</ele>
	<time>2023-11-18T08:54:23.000Z</time>
</trkpt>
<trkpt lat="45.8966120" lon="9.8372570">
	<ele>1704.20</ele>
	<time>2023-11-18T08:54:24.000Z</time>
</trkpt>
<trkpt lat="45.8966110" lon="9.8372520">
	<ele>1704.40</ele>
	<time>2023-11-18T08:54:25.000Z</time>
</trkpt>
<trkpt lat="45.8966110" lon="9.8372470">
	<ele>1704.60</ele>
	<time>2023-11-18T08:54:26.000Z</time>
</trkpt>
<trkpt lat="45.8966100" lon="9.8372400">
	<ele>1704.80</ele>
	<time>2023-11-18T08:54:27.000Z</time>
</trkpt>
<trkpt lat="45.8966140" lon="9.8372350">
	<ele>1705.00</ele>
	<time>2023-11-18T08:54:28.000Z</time>
</trkpt>
<trkpt lat="45.8966210" lon="9.8372290">
	<ele>1705.00</ele>
	<time>2023-11-18T08:54:29.000Z</time>
</trkpt>
<trkpt lat="45.8966260" lon="9.8372260">
	<ele>1705.40</ele>
	<time>2023-11-18T08:54:30.000Z</time>
</trkpt>
<trkpt lat="45.8966290" lon="9.8372230">
	<ele>1705.40</ele>
	<time>2023-11-18T08:54:31.000Z</time>
</trkpt>
<trkpt lat="45.8966360" lon="9.8372190">
	<ele>1705.60</ele>
	<time>2023-11-18T08:54:32.000Z</time>
</trkpt>
<trkpt lat="45.8966400" lon="9.8372110">
	<ele>1705.60</ele>
	<time>2023-11-18T08:54:33.000Z</time>
</trkpt>
<trkpt lat="45.8966430" lon="9.8372070">
	<ele>1705.80</ele>
	<time>2023-11-18T08:54:34.000Z</time>
</trkpt>
<trkpt lat="45.8966430" lon="9.8372050">
	<ele>1706.00</ele>
	<time>2023-11-18T08:54:35.000Z</time>
</trkpt>
<trkpt lat="45.8966450" lon="9.8372050">
	<ele>1706.00</ele>
	<time>2023-11-18T08:54:36.000Z</time>
</trkpt>
<trkpt lat="45.8966490" lon="9.8372000">
	<ele>1706.20</ele>
	<time>2023-11-18T08:54:37.000Z</time>
</trkpt>
<trkpt lat="45.8966550" lon="9.8371930">
	<ele>1706.20</ele>
	<time>2023-11-18T08:54:38.000Z</time>
</trkpt>
<trkpt lat="45.8966600" lon="9.8371830">
	<ele>1706.40</ele>
	<time>2023-11-18T08:54:39.000Z</time>
</trkpt>
<trkpt lat="45.8966630" lon="9.8371750">
	<ele>1706.40</ele>
	<time>2023-11-18T08:54:40.000Z</time>
</trkpt>
<trkpt lat="45.8966650" lon="9.8371680">
	<ele>1706.60</ele>
	<time>2023-11-18T08:54:41.000Z</time>
</trkpt>
<trkpt lat="45.8966700" lon="9.8371590">
	<ele>1707.00</ele>
	<time>2023-11-18T08:54:42.000Z</time>
</trkpt>
<trkpt lat="45.8966730" lon="9.8371530">
	<ele>1707.40</ele>
	<time>2023-11-18T08:54:43.000Z</time>
</trkpt>
<trkpt lat="45.8966790" lon="9.8371460">
	<ele>1707.40</ele>
	<time>2023-11-18T08:54:44.000Z</time>
</trkpt>
<trkpt lat="45.8966870" lon="9.8371370">
	<ele>1707.60</ele>
	<time>2023-11-18T08:54:45.000Z</time>
</trkpt>
<trkpt lat="45.8966940" lon="9.8371310">
	<ele>1707.60</ele>
	<time>2023-11-18T08:54:46.000Z</time>
</trkpt>
<trkpt lat="45.8967030" lon="9.8371240">
	<ele>1707.80</ele>
	<time>2023-11-18T08:54:47.000Z</time>
</trkpt>
<trkpt lat="45.8967070" lon="9.8371180">
	<ele>1707.80</ele>
	<time>2023-11-18T08:54:48.000Z</time>
</trkpt>
<trkpt lat="45.8967150" lon="9.8371100">
	<ele>1707.80</ele>
	<time>2023-11-18T08:54:49.000Z</time>
</trkpt>
<trkpt lat="45.8967210" lon="9.8371040">
	<ele>1708.00</ele>
	<time>2023-11-18T08:54:50.000Z</time>
</trkpt>
<trkpt lat="45.8967260" lon="9.8370960">
	<ele>1708.20</ele>
	<time>2023-11-18T08:54:51.000Z</time>
</trkpt>
<trkpt lat="45.8967300" lon="9.8370880">
	<ele>1708.20</ele>
	<time>2023-11-18T08:54:52.000Z</time>
</trkpt>
<trkpt lat="45.8967370" lon="9.8370820">
	<ele>1708.40</ele>
	<time>2023-11-18T08:54:53.000Z</time>
</trkpt>
<trkpt lat="45.8967420" lon="9.8370750">
	<ele>1708.40</ele>
	<time>2023-11-18T08:54:54.000Z</time>
</trkpt>
<trkpt lat="45.8967470" lon="9.8370660">
	<ele>1708.40</ele>
	<time>2023-11-18T08:54:55.000Z</time>
</trkpt>
<trkpt lat="45.8967520" lon="9.8370600">
	<ele>1708.60</ele>
	<time>2023-11-18T08:54:56.000Z</time>
</trkpt>
<trkpt lat="45.8967550" lon="9.8370570">
	<ele>1708.60</ele>
	<time>2023-11-18T08:54:57.000Z</time>
</trkpt>
<trkpt lat="45.8967600" lon="9.8370540">
	<ele>1708.60</ele>
	<time>2023-11-18T08:54:58.000Z</time>
</trkpt>
<trkpt lat="45.8967640" lon="9.8370500">
	<ele>1708.80</ele>
	<time>2023-11-18T08:54:59.000Z</time>
</trkpt>
<trkpt lat="45.8967680" lon="9.8370460">
	<ele>1708.80</ele>
	<time>2023-11-18T08:55:00.000Z</time>
</trkpt>
<trkpt lat="45.8967710" lon="9.8370430">
	<ele>1709.00</ele>
	<time>2023-11-18T08:55:01.000Z</time>
</trkpt>
<trkpt lat="45.8967760" lon="9.8370360">
	<ele>1709.00</ele>
	<time>2023-11-18T08:55:02.000Z</time>
</trkpt>
<trkpt lat="45.8967780" lon="9.8370290">
	<ele>1709.20</ele>
	<time>2023-11-18T08:55:03.000Z</time>
</trkpt>
<trkpt lat="45.8967820" lon="9.8370230">
	<ele>1709.40</ele>
	<time>2023-11-18T08:55:04.000Z</time>
</trkpt>
<trkpt lat="45.8967860" lon="9.8370180">
	<ele>1709.40</ele>
	<time>2023-11-18T08:55:05.000Z</time>
</trkpt>
<trkpt lat="45.8967890" lon="9.8370150">
	<ele>1709.80</ele>
	<time>2023-11-18T08:55:06.000Z</time>
</trkpt>
<trkpt lat="45.8967940" lon="9.8370100">
	<ele>1709.80</ele>
	<time>2023-11-18T08:55:07.000Z</time>
</trkpt>
<trkpt lat="45.8967990" lon="9.8370010">
	<ele>1710.00</ele>
	<time>2023-11-18T08:55:08.000Z</time>
</trkpt>
<trkpt lat="45.8968040" lon="9.8369970">
	<ele>1710.20</ele>
	<time>2023-11-18T08:55:09.000Z</time>
</trkpt>
<trkpt lat="45.8968120" lon="9.8369930">
	<ele>1710.20</ele>
	<time>2023-11-18T08:55:10.000Z</time>
</trkpt>
<trkpt lat="45.8968210" lon="9.8369880">
	<ele>1710.20</ele>
	<time>2023-11-18T08:55:11.000Z</time>
</trkpt>
<trkpt lat="45.8968270" lon="9.8369810">
	<ele>1710.40</ele>
	<time>2023-11-18T08:55:12.000Z</time>
</trkpt>
<trkpt lat="45.8968310" lon="9.8369720">
	<ele>1710.40</ele>
	<time>2023-11-18T08:55:13.000Z</time>
</trkpt>
<trkpt lat="45.8968320" lon="9.8369640">
	<ele>1710.40</ele>
	<time>2023-11-18T08:55:14.000Z</time>
</trkpt>
<trkpt lat="45.8968340" lon="9.8369570">
	<ele>1710.40</ele>
	<time>2023-11-18T08:55:15.000Z</time>
</trkpt>
<trkpt lat="45.8968390" lon="9.8369510">
	<ele>1710.60</ele>
	<time>2023-11-18T08:55:16.000Z</time>
</trkpt>
<trkpt lat="45.8968420" lon="9.8369450">
	<ele>1710.60</ele>
	<time>2023-11-18T08:55:17.000Z</time>
</trkpt>
<trkpt lat="45.8968460" lon="9.8369400">
	<ele>1710.80</ele>
	<time>2023-11-18T08:55:18.000Z</time>
</trkpt>
<trkpt lat="45.8968490" lon="9.8369350">
	<ele>1710.80</ele>
	<time>2023-11-18T08:55:19.000Z</time>
</trkpt>
<trkpt lat="45.8968500" lon="9.8369300">
	<ele>1711.00</ele>
	<time>2023-11-18T08:55:20.000Z</time>
</trkpt>
<trkpt lat="45.8968500" lon="9.8369240">
	<ele>1711.40</ele>
	<time>2023-11-18T08:55:21.000Z</time>
</trkpt>
<trkpt lat="45.8968500" lon="9.8369200">
	<ele>1711.60</ele>
	<time>2023-11-18T08:55:22.000Z</time>
</trkpt>
<trkpt lat="45.8968500" lon="9.8369160">
	<ele>1711.80</ele>
	<time>2023-11-18T08:55:23.000Z</time>
</trkpt>
<trkpt lat="45.8968490" lon="9.8369080">
	<ele>1712.00</ele>
	<time>2023-11-18T08:55:24.000Z</time>
</trkpt>
<trkpt lat="45.8968480" lon="9.8369020">
	<ele>1712.40</ele>
	<time>2023-11-18T08:55:25.000Z</time>
</trkpt>
<trkpt lat="45.8968460" lon="9.8369000">
	<ele>1712.60</ele>
	<time>2023-11-18T08:55:26.000Z</time>
</trkpt>
<trkpt lat="45.8968460" lon="9.8368960">
	<ele>1712.80</ele>
	<time>2023-11-18T08:55:27.000Z</time>
</trkpt>
<trkpt lat="45.8968490" lon="9.8368920">
	<ele>1713.00</ele>
	<time>2023-11-18T08:55:28.000Z</time>
</trkpt>
<trkpt lat="45.8968500" lon="9.8368880">
	<ele>1713.00</ele>
	<time>2023-11-18T08:55:29.000Z</time>
</trkpt>
<trkpt lat="45.8968550" lon="9.8368830">
	<ele>1713.20</ele>
	<time>2023-11-18T08:55:30.000Z</time>
</trkpt>
<trkpt lat="45.8968590" lon="9.8368770">
	<ele>1713.20</ele>
	<time>2023-11-18T08:55:31.000Z</time>
</trkpt>
<trkpt lat="45.8968620" lon="9.8368710">
	<ele>1713.40</ele>
	<time>2023-11-18T08:55:32.000Z</time>
</trkpt>
<trkpt lat="45.8968650" lon="9.8368670">
	<ele>1713.40</ele>
	<time>2023-11-18T08:55:33.000Z</time>
</trkpt>
<trkpt lat="45.8968700" lon="9.8368640">
	<ele>1713.60</ele>
	<time>2023-11-18T08:55:34.000Z</time>
</trkpt>
<trkpt lat="45.8968750" lon="9.8368580">
	<ele>1713.60</ele>
	<time>2023-11-18T08:55:35.000Z</time>
</trkpt>
<trkpt lat="45.8968790" lon="9.8368490">
	<ele>1713.60</ele>
	<time>2023-11-18T08:55:36.000Z</time>
</trkpt>
<trkpt lat="45.8968790" lon="9.8368440">
	<ele>1714.00</ele>
	<time>2023-11-18T08:55:37.000Z</time>
</trkpt>
<trkpt lat="45.8968790" lon="9.8368350">
	<ele>1714.20</ele>
	<time>2023-11-18T08:55:38.000Z</time>
</trkpt>
<trkpt lat="45.8968800" lon="9.8368300">
	<ele>1714.40</ele>
	<time>2023-11-18T08:55:39.000Z</time>
</trkpt>
<trkpt lat="45.8968810" lon="9.8368240">
	<ele>1714.60</ele>
	<time>2023-11-18T08:55:40.000Z</time>
</trkpt>
<trkpt lat="45.8968840" lon="9.8368180">
	<ele>1714.80</ele>
	<time>2023-11-18T08:55:41.000Z</time>
</trkpt>
<trkpt lat="45.8968850" lon="9.8368100">
	<ele>1715.00</ele>
	<time>2023-11-18T08:55:42.000Z</time>
</trkpt>
<trkpt lat="45.8968850" lon="9.8368030">
	<ele>1715.40</ele>
	<time>2023-11-18T08:55:43.000Z</time>
</trkpt>
<trkpt lat="45.8968900" lon="9.8367950">
	<ele>1715.60</ele>
	<time>2023-11-18T08:55:44.000Z</time>
</trkpt>
<trkpt lat="45.8968920" lon="9.8367890">
	<ele>1715.60</ele>
	<time>2023-11-18T08:55:45.000Z</time>
</trkpt>
<trkpt lat="45.8968960" lon="9.8367800">
	<ele>1715.80</ele>
	<time>2023-11-18T08:55:46.000Z</time>
</trkpt>
<trkpt lat="45.8968970" lon="9.8367720">
	<ele>1716.00</ele>
	<time>2023-11-18T08:55:47.000Z</time>
</trkpt>
<trkpt lat="45.8968990" lon="9.8367650">
	<ele>1716.00</ele>
	<time>2023-11-18T08:55:48.000Z</time>
</trkpt>
<trkpt lat="45.8969000" lon="9.8367590">
	<ele>1716.20</ele>
	<time>2023-11-18T08:55:49.000Z</time>
</trkpt>
<trkpt lat="45.8969010" lon="9.8367570">
	<ele>1716.20</ele>
	<time>2023-11-18T08:55:50.000Z</time>
</trkpt>
<trkpt lat="45.8969030" lon="9.8367520">
	<ele>1716.40</ele>
	<time>2023-11-18T08:55:51.000Z</time>
</trkpt>
<trkpt lat="45.8969030" lon="9.8367470">
	<ele>1716.60</ele>
	<time>2023-11-18T08:55:52.000Z</time>
</trkpt>
<trkpt lat="45.8969050" lon="9.8367430">
	<ele>1716.80</ele>
	<time>2023-11-18T08:55:53.000Z</time>
</trkpt>
<trkpt lat="45.8969070" lon="9.8367390">
	<ele>1717.20</ele>
	<time>2023-11-18T08:55:54.000Z</time>
</trkpt>
<trkpt lat="45.8969110" lon="9.8367370">
	<ele>1717.20</ele>
	<time>2023-11-18T08:55:55.000Z</time>
</trkpt>
<trkpt lat="45.8969160" lon="9.8367330">
	<ele>1717.40</ele>
	<time>2023-11-18T08:55:56.000Z</time>
</trkpt>
<trkpt lat="45.8969200" lon="9.8367290">
	<ele>1717.40</ele>
	<time>2023-11-18T08:55:57.000Z</time>
</trkpt>
<trkpt lat="45.8969240" lon="9.8367230">
	<ele>1717.60</ele>
	<time>2023-11-18T08:55:58.000Z</time>
</trkpt>
<trkpt lat="45.8969280" lon="9.8367170">
	<ele>1717.60</ele>
	<time>2023-11-18T08:55:59.000Z</time>
</trkpt>
<trkpt lat="45.8969320" lon="9.8367130">
	<ele>1717.80</ele>
	<time>2023-11-18T08:56:00.000Z</time>
</trkpt>
<trkpt lat="45.8969360" lon="9.8367100">
	<ele>1717.80</ele>
	<time>2023-11-18T08:56:01.000Z</time>
</trkpt>
<trkpt lat="45.8969420" lon="9.8367070">
	<ele>1717.80</ele>
	<time>2023-11-18T08:56:02.000Z</time>
</trkpt>
<trkpt lat="45.8969500" lon="9.8367060">
	<ele>1717.80</ele>
	<time>2023-11-18T08:56:03.000Z</time>
</trkpt>
<trkpt lat="45.8969540" lon="9.8367010">
	<ele>1718.00</ele>
	<time>2023-11-18T08:56:04.000Z</time>
</trkpt>
<trkpt lat="45.8969570" lon="9.8366970">
	<ele>1718.00</ele>
	<time>2023-11-18T08:56:05.000Z</time>
</trkpt>
<trkpt lat="45.8969600" lon="9.8366960">
	<ele>1718.00</ele>
	<time>2023-11-18T08:56:06.000Z</time>
</trkpt>
<trkpt lat="45.8969610" lon="9.8366960">
	<ele>1718.00</ele>
	<time>2023-11-18T08:56:07.000Z</time>
</trkpt>
<trkpt lat="45.8969570" lon="9.8366960">
	<ele>1718.00</ele>
	<time>2023-11-18T08:56:08.000Z</time>
</trkpt>
<trkpt lat="45.8969550" lon="9.8366970">
	<ele>1718.20</ele>
	<time>2023-11-18T08:56:09.000Z</time>
</trkpt>
<trkpt lat="45.8969570" lon="9.8366970">
	<ele>1718.20</ele>
	<time>2023-11-18T08:56:10.000Z</time>
</trkpt>
<trkpt lat="45.8969610" lon="9.8366990">
	<ele>1718.20</ele>
	<time>2023-11-18T08:56:11.000Z</time>
</trkpt>
<trkpt lat="45.8969630" lon="9.8366990">
	<ele>1718.20</ele>
	<time>2023-11-18T08:56:12.000Z</time>
</trkpt>
<trkpt lat="45.8969650" lon="9.8366990">
	<ele>1718.40</ele>
	<time>2023-11-18T08:56:13.000Z</time>
</trkpt>
<trkpt lat="45.8969670" lon="9.8367000">
	<ele>1718.40</ele>
	<time>2023-11-18T08:56:14.000Z</time>
</trkpt>
<trkpt lat="45.8969660" lon="9.8367010">
	<ele>1718.40</ele>
	<time>2023-11-18T08:56:15.000Z</time>
</trkpt>
<trkpt lat="45.8969650" lon="9.8367010">
	<ele>1718.40</ele>
	<time>2023-11-18T08:56:16.000Z</time>
</trkpt>
<trkpt lat="45.8969660" lon="9.8367040">
	<ele>1718.40</ele>
	<time>2023-11-18T08:56:17.000Z</time>
</trkpt>
<trkpt lat="45.8969660" lon="9.8367060">
	<ele>1718.40</ele>
	<time>2023-11-18T08:56:18.000Z</time>
</trkpt>
<trkpt lat="45.8969680" lon="9.8367010">
	<ele>1718.40</ele>
	<time>2023-11-18T08:56:19.000Z</time>
</trkpt>
<trkpt lat="45.8969690" lon="9.8366960">
	<ele>1718.40</ele>
	<time>2023-11-18T08:56:20.000Z</time>
</trkpt>
<trkpt lat="45.8969710" lon="9.8366910">
	<ele>1718.40</ele>
	<time>2023-11-18T08:56:21.000Z</time>
</trkpt>
<trkpt lat="45.8969720" lon="9.8366870">
	<ele>1718.40</ele>
	<time>2023-11-18T08:56:22.000Z</time>
</trkpt>
<trkpt lat="45.8969710" lon="9.8366860">
	<ele>1718.40</ele>
	<time>2023-11-18T08:56:23.000Z</time>
</trkpt>
<trkpt lat="45.8969710" lon="9.8366860">
	<ele>1718.60</ele>
	<time>2023-11-18T08:56:24.000Z</time>
</trkpt>
<trkpt lat="45.8969710" lon="9.8366860">
	<ele>1718.60</ele>
	<time>2023-11-18T08:56:25.000Z</time>
</trkpt>
<trkpt lat="45.8969710" lon="9.8366860">
	<ele>1718.60</ele>
	<time>2023-11-18T08:56:26.000Z</time>
</trkpt>
<trkpt lat="45.8969710" lon="9.8366860">
	<ele>1718.80</ele>
	<time>2023-11-18T08:56:27.000Z</time>
</trkpt>
<trkpt lat="45.8969710" lon="9.8366860">
	<ele>1719.00</ele>
	<time>2023-11-18T08:56:28.000Z</time>
</trkpt>
<trkpt lat="45.8969710" lon="9.8366860">
	<ele>1719.00</ele>
	<time>2023-11-18T08:56:29.000Z</time>
</trkpt>
<trkpt lat="45.8969710" lon="9.8366860">
	<ele>1719.00</ele>
	<time>2023-11-18T08:56:30.000Z</time>
</trkpt>
<trkpt lat="45.8969710" lon="9.8366860">
	<ele>1719.00</ele>
	<time>2023-11-18T08:56:31.000Z</time>
</trkpt>
<trkpt lat="45.8969710" lon="9.8366860">
	<ele>1719.00</ele>
	<time>2023-11-18T08:56:32.000Z</time>
</trkpt>
<trkpt lat="45.8969710" lon="9.8366860">
	<ele>1718.80</ele>
	<time>2023-11-18T08:56:33.000Z</time>
</trkpt>
<trkpt lat="45.8969710" lon="9.8366860">
	<ele>1718.80</ele>
	<time>2023-11-18T08:56:34.000Z</time>
</trkpt>
<trkpt lat="45.8969700" lon="9.8366860">
	<ele>1718.80</ele>
	<time>2023-11-18T08:56:35.000Z</time>
</trkpt>
<trkpt lat="45.8969690" lon="9.8366860">
	<ele>1718.80</ele>
	<time>2023-11-18T08:56:36.000Z</time>
</trkpt>
<trkpt lat="45.8969690" lon="9.8366860">
	<ele>1718.60</ele>
	<time>2023-11-18T08:56:37.000Z</time>
</trkpt>
<trkpt lat="45.8969690" lon="9.8366860">
	<ele>1718.80</ele>
	<time>2023-11-18T08:56:38.000Z</time>
</trkpt>
<trkpt lat="45.8969690" lon="9.8366850">
	<ele>1718.80</ele>
	<time>2023-11-18T08:56:39.000Z</time>
</trkpt>
<trkpt lat="45.8969690" lon="9.8366840">
	<ele>1719.00</ele>
	<time>2023-11-18T08:56:40.000Z</time>
</trkpt>
<trkpt lat="45.8969690" lon="9.8366840">
	<ele>1719.20</ele>
	<time>2023-11-18T08:56:41.000Z</time>
</trkpt>
<trkpt lat="45.8969690" lon="9.8366840">
	<ele>1719.40</ele>
	<time>2023-11-18T08:56:42.000Z</time>
</trkpt>
<trkpt lat="45.8969690" lon="9.8366840">
	<ele>1719.40</ele>
	<time>2023-11-18T08:56:43.000Z</time>
</trkpt>
<trkpt lat="45.8969690" lon="9.8366840">
	<ele>1719.40</ele>
	<time>2023-11-18T08:56:44.000Z</time>
</trkpt>
<trkpt lat="45.8969700" lon="9.8366830">
	<ele>1719.60</ele>
	<time>2023-11-18T08:56:45.000Z</time>
</trkpt>
<trkpt lat="45.8969710" lon="9.8366820">
	<ele>1719.60</ele>
	<time>2023-11-18T08:56:46.000Z</time>
</trkpt>
<trkpt lat="45.8969710" lon="9.8366820">
	<ele>1719.60</ele>
	<time>2023-11-18T08:56:47.000Z</time>
</trkpt>
<trkpt lat="45.8969720" lon="9.8366810">
	<ele>1719.60</ele>
	<time>2023-11-18T08:56:48.000Z</time>
</trkpt>
<trkpt lat="45.8969780" lon="9.8366770">
	<ele>1719.60</ele>
	<time>2023-11-18T08:56:49.000Z</time>
</trkpt>
<trkpt lat="45.8969930" lon="9.8366700">
	<ele>1719.60</ele>
	<time>2023-11-18T08:56:50.000Z</time>
</trkpt>
<trkpt lat="45.8970070" lon="9.8366610">
	<ele>1719.80</ele>
	<time>2023-11-18T08:56:51.000Z</time>
</trkpt>
<trkpt lat="45.8970230" lon="9.8366520">
	<ele>1719.80</ele>
	<time>2023-11-18T08:56:52.000Z</time>
</trkpt>
<trkpt lat="45.8970380" lon="9.8366430">
	<ele>1720.00</ele>
	<time>2023-11-18T08:56:53.000Z</time>
</trkpt>
<trkpt lat="45.8970520" lon="9.8366340">
	<ele>1720.00</ele>
	<time>2023-11-18T08:56:54.000Z</time>
</trkpt>
<trkpt lat="45.8970630" lon="9.8366270">
	<ele>1720.20</ele>
	<time>2023-11-18T08:56:55.000Z</time>
</trkpt>
<trkpt lat="45.8970760" lon="9.8366160">
	<ele>1720.20</ele>
	<time>2023-11-18T08:56:56.000Z</time>
</trkpt>
<trkpt lat="45.8970870" lon="9.8366050">
	<ele>1720.40</ele>
	<time>2023-11-18T08:56:57.000Z</time>
</trkpt>
<trkpt lat="45.8970960" lon="9.8365950">
	<ele>1720.60</ele>
	<time>2023-11-18T08:56:58.000Z</time>
</trkpt>
<trkpt lat="45.8970980" lon="9.8365920">
	<ele>1720.80</ele>
	<time>2023-11-18T08:56:59.000Z</time>
</trkpt>
<trkpt lat="45.8971000" lon="9.8365890">
	<ele>1721.00</ele>
	<time>2023-11-18T08:57:00.000Z</time>
</trkpt>
<trkpt lat="45.8971030" lon="9.8365850">
	<ele>1721.40</ele>
	<time>2023-11-18T08:57:01.000Z</time>
</trkpt>
<trkpt lat="45.8971100" lon="9.8365800">
	<ele>1721.60</ele>
	<time>2023-11-18T08:57:02.000Z</time>
</trkpt>
<trkpt lat="45.8971180" lon="9.8365760">
	<ele>1721.60</ele>
	<time>2023-11-18T08:57:03.000Z</time>
</trkpt>
<trkpt lat="45.8971240" lon="9.8365700">
	<ele>1721.80</ele>
	<time>2023-11-18T08:57:04.000Z</time>
</trkpt>
<trkpt lat="45.8971320" lon="9.8365640">
	<ele>1721.80</ele>
	<time>2023-11-18T08:57:05.000Z</time>
</trkpt>
<trkpt lat="45.8971400" lon="9.8365600">
	<ele>1721.80</ele>
	<time>2023-11-18T08:57:06.000Z</time>
</trkpt>
<trkpt lat="45.8971440" lon="9.8365530">
	<ele>1722.00</ele>
	<time>2023-11-18T08:57:07.000Z</time>
</trkpt>
<trkpt lat="45.8971500" lon="9.8365460">
	<ele>1722.20</ele>
	<time>2023-11-18T08:57:08.000Z</time>
</trkpt>
<trkpt lat="45.8971520" lon="9.8365370">
	<ele>1722.40</ele>
	<time>2023-11-18T08:57:09.000Z</time>
</trkpt>
<trkpt lat="45.8971570" lon="9.8365310">
	<ele>1722.80</ele>
	<time>2023-11-18T08:57:10.000Z</time>
</trkpt>
<trkpt lat="45.8971610" lon="9.8365270">
	<ele>1723.00</ele>
	<time>2023-11-18T08:57:11.000Z</time>
</trkpt>
<trkpt lat="45.8971650" lon="9.8365220">
	<ele>1723.00</ele>
	<time>2023-11-18T08:57:12.000Z</time>
</trkpt>
<trkpt lat="45.8971680" lon="9.8365180">
	<ele>1723.20</ele>
	<time>2023-11-18T08:57:13.000Z</time>
</trkpt>
<trkpt lat="45.8971720" lon="9.8365150">
	<ele>1723.40</ele>
	<time>2023-11-18T08:57:14.000Z</time>
</trkpt>
<trkpt lat="45.8971780" lon="9.8365150">
	<ele>1723.60</ele>
	<time>2023-11-18T08:57:15.000Z</time>
</trkpt>
<trkpt lat="45.8971850" lon="9.8365190">
	<ele>1723.80</ele>
	<time>2023-11-18T08:57:16.000Z</time>
</trkpt>
<trkpt lat="45.8971930" lon="9.8365220">
	<ele>1723.80</ele>
	<time>2023-11-18T08:57:17.000Z</time>
</trkpt>
<trkpt lat="45.8972020" lon="9.8365170">
	<ele>1724.00</ele>
	<time>2023-11-18T08:57:18.000Z</time>
</trkpt>
<trkpt lat="45.8972080" lon="9.8365100">
	<ele>1724.00</ele>
	<time>2023-11-18T08:57:19.000Z</time>
</trkpt>
<trkpt lat="45.8972150" lon="9.8365070">
	<ele>1724.20</ele>
	<time>2023-11-18T08:57:20.000Z</time>
</trkpt>
<trkpt lat="45.8972240" lon="9.8365020">
	<ele>1724.20</ele>
	<time>2023-11-18T08:57:21.000Z</time>
</trkpt>
<trkpt lat="45.8972320" lon="9.8364970">
	<ele>1724.20</ele>
	<time>2023-11-18T08:57:22.000Z</time>
</trkpt>
<trkpt lat="45.8972400" lon="9.8364910">
	<ele>1724.20</ele>
	<time>2023-11-18T08:57:23.000Z</time>
</trkpt>
<trkpt lat="45.8972490" lon="9.8364840">
	<ele>1724.40</ele>
	<time>2023-11-18T08:57:24.000Z</time>
</trkpt>
<trkpt lat="45.8972580" lon="9.8364760">
	<ele>1724.20</ele>
	<time>2023-11-18T08:57:25.000Z</time>
</trkpt>
<trkpt lat="45.8972670" lon="9.8364660">
	<ele>1724.00</ele>
	<time>2023-11-18T08:57:26.000Z</time>
</trkpt>
<trkpt lat="45.8972770" lon="9.8364560">
	<ele>1724.00</ele>
	<time>2023-11-18T08:57:27.000Z</time>
</trkpt>
<trkpt lat="45.8972860" lon="9.8364460">
	<ele>1724.20</ele>
	<time>2023-11-18T08:57:28.000Z</time>
</trkpt>
<trkpt lat="45.8972910" lon="9.8364390">
	<ele>1724.40</ele>
	<time>2023-11-18T08:57:29.000Z</time>
</trkpt>
<trkpt lat="45.8972970" lon="9.8364310">
	<ele>1724.40</ele>
	<time>2023-11-18T08:57:30.000Z</time>
</trkpt>
<trkpt lat="45.8973040" lon="9.8364270">
	<ele>1724.60</ele>
	<time>2023-11-18T08:57:31.000Z</time>
</trkpt>
<trkpt lat="45.8973140" lon="9.8364190">
	<ele>1724.60</ele>
	<time>2023-11-18T08:57:32.000Z</time>
</trkpt>
<trkpt lat="45.8973240" lon="9.8364150">
	<ele>1724.60</ele>
	<time>2023-11-18T08:57:33.000Z</time>
</trkpt>
<trkpt lat="45.8973310" lon="9.8364090">
	<ele>1724.60</ele>
	<time>2023-11-18T08:57:34.000Z</time>
</trkpt>
<trkpt lat="45.8973340" lon="9.8364020">
	<ele>1724.60</ele>
	<time>2023-11-18T08:57:35.000Z</time>
</trkpt>
<trkpt lat="45.8973380" lon="9.8363970">
	<ele>1724.60</ele>
	<time>2023-11-18T08:57:36.000Z</time>
</trkpt>
<trkpt lat="45.8973410" lon="9.8363940">
	<ele>1724.60</ele>
	<time>2023-11-18T08:57:37.000Z</time>
</trkpt>
<trkpt lat="45.8973470" lon="9.8363890">
	<ele>1724.60</ele>
	<time>2023-11-18T08:57:38.000Z</time>
</trkpt>
<trkpt lat="45.8973540" lon="9.8363800">
	<ele>1724.60</ele>
	<time>2023-11-18T08:57:39.000Z</time>
</trkpt>
<trkpt lat="45.8973630" lon="9.8363740">
	<ele>1724.60</ele>
	<time>2023-11-18T08:57:40.000Z</time>
</trkpt>
<trkpt lat="45.8973740" lon="9.8363690">
	<ele>1724.60</ele>
	<time>2023-11-18T08:57:41.000Z</time>
</trkpt>
<trkpt lat="45.8973820" lon="9.8363620">
	<ele>1724.60</ele>
	<time>2023-11-18T08:57:42.000Z</time>
</trkpt>
<trkpt lat="45.8973900" lon="9.8363530">
	<ele>1724.60</ele>
	<time>2023-11-18T08:57:43.000Z</time>
</trkpt>
<trkpt lat="45.8973980" lon="9.8363410">
	<ele>1724.60</ele>
	<time>2023-11-18T08:57:44.000Z</time>
</trkpt>
<trkpt lat="45.8974030" lon="9.8363310">
	<ele>1724.60</ele>
	<time>2023-11-18T08:57:45.000Z</time>
</trkpt>
<trkpt lat="45.8974110" lon="9.8363260">
	<ele>1724.60</ele>
	<time>2023-11-18T08:57:46.000Z</time>
</trkpt>
<trkpt lat="45.8974200" lon="9.8363200">
	<ele>1724.60</ele>
	<time>2023-11-18T08:57:47.000Z</time>
</trkpt>
<trkpt lat="45.8974280" lon="9.8363130">
	<ele>1724.60</ele>
	<time>2023-11-18T08:57:48.000Z</time>
</trkpt>
<trkpt lat="45.8974350" lon="9.8363060">
	<ele>1724.60</ele>
	<time>2023-11-18T08:57:49.000Z</time>
</trkpt>
<trkpt lat="45.8974460" lon="9.8362990">
	<ele>1724.80</ele>
	<time>2023-11-18T08:57:50.000Z</time>
</trkpt>
<trkpt lat="45.8974540" lon="9.8362920">
	<ele>1725.00</ele>
	<time>2023-11-18T08:57:51.000Z</time>
</trkpt>
<trkpt lat="45.8974610" lon="9.8362840">
	<ele>1725.00</ele>
	<time>2023-11-18T08:57:52.000Z</time>
</trkpt>
<trkpt lat="45.8974680" lon="9.8362770">
	<ele>1725.20</ele>
	<time>2023-11-18T08:57:53.000Z</time>
</trkpt>
<trkpt lat="45.8974760" lon="9.8362690">
	<ele>1725.20</ele>
	<time>2023-11-18T08:57:54.000Z</time>
</trkpt>
<trkpt lat="45.8974840" lon="9.8362620">
	<ele>1725.20</ele>
	<time>2023-11-18T08:57:55.000Z</time>
</trkpt>
<trkpt lat="45.8974930" lon="9.8362530">
	<ele>1725.00</ele>
	<time>2023-11-18T08:57:56.000Z</time>
</trkpt>
<trkpt lat="45.8975030" lon="9.8362440">
	<ele>1725.00</ele>
	<time>2023-11-18T08:57:57.000Z</time>
</trkpt>
<trkpt lat="45.8975110" lon="9.8362350">
	<ele>1725.00</ele>
	<time>2023-11-18T08:57:58.000Z</time>
</trkpt>
<trkpt lat="45.8975200" lon="9.8362240">
	<ele>1725.00</ele>
	<time>2023-11-18T08:57:59.000Z</time>
</trkpt>
<trkpt lat="45.8975250" lon="9.8362110">
	<ele>1725.00</ele>
	<time>2023-11-18T08:58:00.000Z</time>
</trkpt>
<trkpt lat="45.8975270" lon="9.8362060">
	<ele>1725.00</ele>
	<time>2023-11-18T08:58:01.000Z</time>
</trkpt>
<trkpt lat="45.8975290" lon="9.8362000">
	<ele>1725.20</ele>
	<time>2023-11-18T08:58:02.000Z</time>
</trkpt>
<trkpt lat="45.8975330" lon="9.8361930">
	<ele>1725.20</ele>
	<time>2023-11-18T08:58:03.000Z</time>
</trkpt>
<trkpt lat="45.8975400" lon="9.8361890">
	<ele>1725.20</ele>
	<time>2023-11-18T08:58:04.000Z</time>
</trkpt>
<trkpt lat="45.8975490" lon="9.8361800">
	<ele>1725.20</ele>
	<time>2023-11-18T08:58:05.000Z</time>
</trkpt>
<trkpt lat="45.8975550" lon="9.8361750">
	<ele>1725.40</ele>
	<time>2023-11-18T08:58:06.000Z</time>
</trkpt>
<trkpt lat="45.8975620" lon="9.8361680">
	<ele>1725.40</ele>
	<time>2023-11-18T08:58:07.000Z</time>
</trkpt>
<trkpt lat="45.8975670" lon="9.8361620">
	<ele>1725.80</ele>
	<time>2023-11-18T08:58:08.000Z</time>
</trkpt>
<trkpt lat="45.8975720" lon="9.8361570">
	<ele>1725.80</ele>
	<time>2023-11-18T08:58:09.000Z</time>
</trkpt>
<trkpt lat="45.8975750" lon="9.8361530">
	<ele>1726.00</ele>
	<time>2023-11-18T08:58:10.000Z</time>
</trkpt>
<trkpt lat="45.8975780" lon="9.8361500">
	<ele>1726.00</ele>
	<time>2023-11-18T08:58:11.000Z</time>
</trkpt>
<trkpt lat="45.8975820" lon="9.8361450">
	<ele>1726.00</ele>
	<time>2023-11-18T08:58:12.000Z</time>
</trkpt>
<trkpt lat="45.8975870" lon="9.8361410">
	<ele>1726.00</ele>
	<time>2023-11-18T08:58:13.000Z</time>
</trkpt>
<trkpt lat="45.8975930" lon="9.8361380">
	<ele>1726.00</ele>
	<time>2023-11-18T08:58:14.000Z</time>
</trkpt>
<trkpt lat="45.8975980" lon="9.8361340">
	<ele>1726.00</ele>
	<time>2023-11-18T08:58:15.000Z</time>
</trkpt>
<trkpt lat="45.8976000" lon="9.8361270">
	<ele>1726.00</ele>
	<time>2023-11-18T08:58:16.000Z</time>
</trkpt>
<trkpt lat="45.8976020" lon="9.8361230">
	<ele>1725.80</ele>
	<time>2023-11-18T08:58:17.000Z</time>
</trkpt>
<trkpt lat="45.8976030" lon="9.8361180">
	<ele>1725.80</ele>
	<time>2023-11-18T08:58:18.000Z</time>
</trkpt>
<trkpt lat="45.8976040" lon="9.8361150">
	<ele>1725.60</ele>
	<time>2023-11-18T08:58:19.000Z</time>
</trkpt>
<trkpt lat="45.8976040" lon="9.8361150">
	<ele>1725.60</ele>
	<time>2023-11-18T08:58:20.000Z</time>
</trkpt>
<trkpt lat="45.8976040" lon="9.8361140">
	<ele>1725.40</ele>
	<time>2023-11-18T08:58:21.000Z</time>
</trkpt>
<trkpt lat="45.8976040" lon="9.8361150">
	<ele>1725.40</ele>
	<time>2023-11-18T08:58:22.000Z</time>
</trkpt>
<trkpt lat="45.8976040" lon="9.8361150">
	<ele>1725.40</ele>
	<time>2023-11-18T08:58:23.000Z</time>
</trkpt>
<trkpt lat="45.8976040" lon="9.8361140">
	<ele>1725.40</ele>
	<time>2023-11-18T08:58:24.000Z</time>
</trkpt>
<trkpt lat="45.8976050" lon="9.8361120">
	<ele>1725.40</ele>
	<time>2023-11-18T08:58:25.000Z</time>
</trkpt>
<trkpt lat="45.8976050" lon="9.8361140">
	<ele>1725.40</ele>
	<time>2023-11-18T08:58:26.000Z</time>
</trkpt>
<trkpt lat="45.8976050" lon="9.8361140">
	<ele>1725.40</ele>
	<time>2023-11-18T08:58:27.000Z</time>
</trkpt>
<trkpt lat="45.8976050" lon="9.8361140">
	<ele>1725.20</ele>
	<time>2023-11-18T08:58:28.000Z</time>
</trkpt>
<trkpt lat="45.8976050" lon="9.8361140">
	<ele>1725.40</ele>
	<time>2023-11-18T08:58:29.000Z</time>
</trkpt>
<trkpt lat="45.8976050" lon="9.8361140">
	<ele>1725.40</ele>
	<time>2023-11-18T08:58:30.000Z</time>
</trkpt>
<trkpt lat="45.8976050" lon="9.8361140">
	<ele>1725.40</ele>
	<time>2023-11-18T08:58:31.000Z</time>
</trkpt>
<trkpt lat="45.8976050" lon="9.8361140">
	<ele>1725.40</ele>
	<time>2023-11-18T08:58:32.000Z</time>
</trkpt>
<trkpt lat="45.8976050" lon="9.8361140">
	<ele>1725.40</ele>
	<time>2023-11-18T08:58:33.000Z</time>
</trkpt>
<trkpt lat="45.8976050" lon="9.8361140">
	<ele>1725.60</ele>
	<time>2023-11-18T08:58:34.000Z</time>
</trkpt>
<trkpt lat="45.8976050" lon="9.8361140">
	<ele>1725.60</ele>
	<time>2023-11-18T08:58:35.000Z</time>
</trkpt>
<trkpt lat="45.8976050" lon="9.8361140">
	<ele>1725.80</ele>
	<time>2023-11-18T08:58:36.000Z</time>
</trkpt>
<trkpt lat="45.8976050" lon="9.8361140">
	<ele>1725.80</ele>
	<time>2023-11-18T08:58:37.000Z</time>
</trkpt>
<trkpt lat="45.8976050" lon="9.8361140">
	<ele>1725.80</ele>
	<time>2023-11-18T08:58:38.000Z</time>
</trkpt>
<trkpt lat="45.8976050" lon="9.8361140">
	<ele>1725.60</ele>
	<time>2023-11-18T08:58:39.000Z</time>
</trkpt>
<trkpt lat="45.8976050" lon="9.8361140">
	<ele>1725.60</ele>
	<time>2023-11-18T08:58:40.000Z</time>
</trkpt>
<trkpt lat="45.8976050" lon="9.8361140">
	<ele>1725.40</ele>
	<time>2023-11-18T08:58:41.000Z</time>
</trkpt>
<trkpt lat="45.8976060" lon="9.8361130">
	<ele>1725.20</ele>
	<time>2023-11-18T08:58:42.000Z</time>
</trkpt>
<trkpt lat="45.8976110" lon="9.8361060">
	<ele>1725.20</ele>
	<time>2023-11-18T08:58:43.000Z</time>
</trkpt>
<trkpt lat="45.8976210" lon="9.8360900">
	<ele>1725.20</ele>
	<time>2023-11-18T08:58:44.000Z</time>
</trkpt>
<trkpt lat="45.8976320" lon="9.8360700">
	<ele>1725.20</ele>
	<time>2023-11-18T08:58:45.000Z</time>
</trkpt>
<trkpt lat="45.8976400" lon="9.8360530">
	<ele>1725.20</ele>
	<time>2023-11-18T08:58:46.000Z</time>
</trkpt>
<trkpt lat="45.8976500" lon="9.8360420">
	<ele>1725.20</ele>
	<time>2023-11-18T08:58:47.000Z</time>
</trkpt>
<trkpt lat="45.8976590" lon="9.8360280">
	<ele>1725.20</ele>
	<time>2023-11-18T08:58:48.000Z</time>
</trkpt>
<trkpt lat="45.8976700" lon="9.8360200">
	<ele>1725.20</ele>
	<time>2023-11-18T08:58:49.000Z</time>
</trkpt>
<trkpt lat="45.8976800" lon="9.8360100">
	<ele>1725.20</ele>
	<time>2023-11-18T08:58:50.000Z</time>
</trkpt>
<trkpt lat="45.8976910" lon="9.8359960">
	<ele>1725.20</ele>
	<time>2023-11-18T08:58:51.000Z</time>
</trkpt>
<trkpt lat="45.8977030" lon="9.8359810">
	<ele>1725.20</ele>
	<time>2023-11-18T08:58:52.000Z</time>
</trkpt>
<trkpt lat="45.8977100" lon="9.8359730">
	<ele>1725.20</ele>
	<time>2023-11-18T08:58:53.000Z</time>
</trkpt>
<trkpt lat="45.8977140" lon="9.8359660">
	<ele>1725.20</ele>
	<time>2023-11-18T08:58:54.000Z</time>
</trkpt>
<trkpt lat="45.8977170" lon="9.8359570">
	<ele>1725.00</ele>
	<time>2023-11-18T08:58:55.000Z</time>
</trkpt>
<trkpt lat="45.8977220" lon="9.8359490">
	<ele>1725.00</ele>
	<time>2023-11-18T08:58:56.000Z</time>
</trkpt>
<trkpt lat="45.8977270" lon="9.8359390">
	<ele>1725.00</ele>
	<time>2023-11-18T08:58:57.000Z</time>
</trkpt>
<trkpt lat="45.8977300" lon="9.8359330">
	<ele>1724.80</ele>
	<time>2023-11-18T08:58:58.000Z</time>
</trkpt>
<trkpt lat="45.8977320" lon="9.8359280">
	<ele>1724.80</ele>
	<time>2023-11-18T08:58:59.000Z</time>
</trkpt>
<trkpt lat="45.8977360" lon="9.8359220">
	<ele>1724.80</ele>
	<time>2023-11-18T08:59:00.000Z</time>
</trkpt>
<trkpt lat="45.8977390" lon="9.8359170">
	<ele>1724.80</ele>
	<time>2023-11-18T08:59:01.000Z</time>
</trkpt>
<trkpt lat="45.8977450" lon="9.8359130">
	<ele>1724.80</ele>
	<time>2023-11-18T08:59:02.000Z</time>
</trkpt>
<trkpt lat="45.8977490" lon="9.8359100">
	<ele>1724.60</ele>
	<time>2023-11-18T08:59:03.000Z</time>
</trkpt>
<trkpt lat="45.8977560" lon="9.8359080">
	<ele>1724.40</ele>
	<time>2023-11-18T08:59:04.000Z</time>
</trkpt>
<trkpt lat="45.8977650" lon="9.8359050">
	<ele>1724.40</ele>
	<time>2023-11-18T08:59:05.000Z</time>
</trkpt>
<trkpt lat="45.8977720" lon="9.8358990">
	<ele>1724.20</ele>
	<time>2023-11-18T08:59:06.000Z</time>
</trkpt>
<trkpt lat="45.8977800" lon="9.8358960">
	<ele>1724.20</ele>
	<time>2023-11-18T08:59:07.000Z</time>
</trkpt>
<trkpt lat="45.8977900" lon="9.8358910">
	<ele>1724.00</ele>
	<time>2023-11-18T08:59:08.000Z</time>
</trkpt>
<trkpt lat="45.8977990" lon="9.8358800">
	<ele>1723.80</ele>
	<time>2023-11-18T08:59:09.000Z</time>
</trkpt>
<trkpt lat="45.8978100" lon="9.8358680">
	<ele>1723.80</ele>
	<time>2023-11-18T08:59:10.000Z</time>
</trkpt>
<trkpt lat="45.8978200" lon="9.8358530">
	<ele>1723.60</ele>
	<time>2023-11-18T08:59:11.000Z</time>
</trkpt>
<trkpt lat="45.8978250" lon="9.8358420">
	<ele>1723.60</ele>
	<time>2023-11-18T08:59:12.000Z</time>
</trkpt>
<trkpt lat="45.8978290" lon="9.8358300">
	<ele>1723.60</ele>
	<time>2023-11-18T08:59:13.000Z</time>
</trkpt>
<trkpt lat="45.8978310" lon="9.8358220">
	<ele>1723.60</ele>
	<time>2023-11-18T08:59:14.000Z</time>
</trkpt>
<trkpt lat="45.8978330" lon="9.8358130">
	<ele>1723.60</ele>
	<time>2023-11-18T08:59:15.000Z</time>
</trkpt>
<trkpt lat="45.8978370" lon="9.8358050">
	<ele>1723.60</ele>
	<time>2023-11-18T08:59:16.000Z</time>
</trkpt>
<trkpt lat="45.8978420" lon="9.8357970">
	<ele>1723.60</ele>
	<time>2023-11-18T08:59:17.000Z</time>
</trkpt>
<trkpt lat="45.8978470" lon="9.8357910">
	<ele>1723.60</ele>
	<time>2023-11-18T08:59:18.000Z</time>
</trkpt>
<trkpt lat="45.8978530" lon="9.8357850">
	<ele>1723.40</ele>
	<time>2023-11-18T08:59:19.000Z</time>
</trkpt>
<trkpt lat="45.8978580" lon="9.8357820">
	<ele>1723.40</ele>
	<time>2023-11-18T08:59:20.000Z</time>
</trkpt>
<trkpt lat="45.8978610" lon="9.8357800">
	<ele>1723.20</ele>
	<time>2023-11-18T08:59:21.000Z</time>
</trkpt>
<trkpt lat="45.8978650" lon="9.8357770">
	<ele>1723.20</ele>
	<time>2023-11-18T08:59:22.000Z</time>
</trkpt>
<trkpt lat="45.8978700" lon="9.8357730">
	<ele>1723.00</ele>
	<time>2023-11-18T08:59:23.000Z</time>
</trkpt>
<trkpt lat="45.8978800" lon="9.8357670">
	<ele>1723.00</ele>
	<time>2023-11-18T08:59:24.000Z</time>
</trkpt>
<trkpt lat="45.8978910" lon="9.8357590">
	<ele>1722.80</ele>
	<time>2023-11-18T08:59:25.000Z</time>
</trkpt>
<trkpt lat="45.8979030" lon="9.8357490">
	<ele>1722.60</ele>
	<time>2023-11-18T08:59:26.000Z</time>
</trkpt>
<trkpt lat="45.8979140" lon="9.8357440">
	<ele>1722.40</ele>
	<time>2023-11-18T08:59:27.000Z</time>
</trkpt>
<trkpt lat="45.8979230" lon="9.8357380">
	<ele>1722.40</ele>
	<time>2023-11-18T08:59:28.000Z</time>
</trkpt>
<trkpt lat="45.8979330" lon="9.8357310">
	<ele>1722.20</ele>
	<time>2023-11-18T08:59:29.000Z</time>
</trkpt>
<trkpt lat="45.8979410" lon="9.8357210">
	<ele>1722.00</ele>
	<time>2023-11-18T08:59:30.000Z</time>
</trkpt>
<trkpt lat="45.8979470" lon="9.8357110">
	<ele>1722.00</ele>
	<time>2023-11-18T08:59:31.000Z</time>
</trkpt>
<trkpt lat="45.8979480" lon="9.8356990">
	<ele>1722.00</ele>
	<time>2023-11-18T08:59:32.000Z</time>
</trkpt>
<trkpt lat="45.8979520" lon="9.8356850">
	<ele>1721.80</ele>
	<time>2023-11-18T08:59:33.000Z</time>
</trkpt>
<trkpt lat="45.8979590" lon="9.8356720">
	<ele>1721.80</ele>
	<time>2023-11-18T08:59:34.000Z</time>
</trkpt>
<trkpt lat="45.8979650" lon="9.8356580">
	<ele>1721.80</ele>
	<time>2023-11-18T08:59:35.000Z</time>
</trkpt>
<trkpt lat="45.8979700" lon="9.8356440">
	<ele>1722.00</ele>
	<time>2023-11-18T08:59:36.000Z</time>
</trkpt>
<trkpt lat="45.8979730" lon="9.8356300">
	<ele>1722.00</ele>
	<time>2023-11-18T08:59:37.000Z</time>
</trkpt>
<trkpt lat="45.8979750" lon="9.8356200">
	<ele>1722.20</ele>
	<time>2023-11-18T08:59:38.000Z</time>
</trkpt>
<trkpt lat="45.8979800" lon="9.8356110">
	<ele>1722.20</ele>
	<time>2023-11-18T08:59:39.000Z</time>
</trkpt>
<trkpt lat="45.8979860" lon="9.8355990">
	<ele>1722.20</ele>
	<time>2023-11-18T08:59:40.000Z</time>
</trkpt>
<trkpt lat="45.8979890" lon="9.8355900">
	<ele>1722.20</ele>
	<time>2023-11-18T08:59:41.000Z</time>
</trkpt>
<trkpt lat="45.8979920" lon="9.8355770">
	<ele>1722.40</ele>
	<time>2023-11-18T08:59:42.000Z</time>
</trkpt>
<trkpt lat="45.8979970" lon="9.8355630">
	<ele>1722.60</ele>
	<time>2023-11-18T08:59:43.000Z</time>
</trkpt>
<trkpt lat="45.8980010" lon="9.8355520">
	<ele>1722.60</ele>
	<time>2023-11-18T08:59:44.000Z</time>
</trkpt>
<trkpt lat="45.8980050" lon="9.8355410">
	<ele>1722.80</ele>
	<time>2023-11-18T08:59:45.000Z</time>
</trkpt>
<trkpt lat="45.8980070" lon="9.8355280">
	<ele>1722.80</ele>
	<time>2023-11-18T08:59:46.000Z</time>
</trkpt>
<trkpt lat="45.8980120" lon="9.8355160">
	<ele>1722.80</ele>
	<time>2023-11-18T08:59:47.000Z</time>
</trkpt>
<trkpt lat="45.8980160" lon="9.8355050">
	<ele>1722.80</ele>
	<time>2023-11-18T08:59:48.000Z</time>
</trkpt>
<trkpt lat="45.8980200" lon="9.8354970">
	<ele>1722.80</ele>
	<time>2023-11-18T08:59:49.000Z</time>
</trkpt>
<trkpt lat="45.8980270" lon="9.8354860">
	<ele>1723.00</ele>
	<time>2023-11-18T08:59:50.000Z</time>
</trkpt>
<trkpt lat="45.8980340" lon="9.8354730">
	<ele>1723.20</ele>
	<time>2023-11-18T08:59:51.000Z</time>
</trkpt>
<trkpt lat="45.8980400" lon="9.8354610">
	<ele>1723.20</ele>
	<time>2023-11-18T08:59:52.000Z</time>
</trkpt>
<trkpt lat="45.8980510" lon="9.8354500">
	<ele>1723.20</ele>
	<time>2023-11-18T08:59:53.000Z</time>
</trkpt>
<trkpt lat="45.8980580" lon="9.8354380">
	<ele>1723.20</ele>
	<time>2023-11-18T08:59:54.000Z</time>
</trkpt>
<trkpt lat="45.8980580" lon="9.8354300">
	<ele>1723.40</ele>
	<time>2023-11-18T08:59:55.000Z</time>
</trkpt>
<trkpt lat="45.8980560" lon="9.8354230">
	<ele>1723.40</ele>
	<time>2023-11-18T08:59:56.000Z</time>
</trkpt>
<trkpt lat="45.8980590" lon="9.8354190">
	<ele>1723.60</ele>
	<time>2023-11-18T08:59:57.000Z</time>
</trkpt>
<trkpt lat="45.8980610" lon="9.8354100">
	<ele>1724.00</ele>
	<time>2023-11-18T08:59:58.000Z</time>
</trkpt>
<trkpt lat="45.8980660" lon="9.8354000">
	<ele>1724.00</ele>
	<time>2023-11-18T08:59:59.000Z</time>
</trkpt>
<trkpt lat="45.8980670" lon="9.8353940">
	<ele>1724.20</ele>
	<time>2023-11-18T09:00:00.000Z</time>
</trkpt>
<trkpt lat="45.8980670" lon="9.8353910">
	<ele>1724.20</ele>
	<time>2023-11-18T09:00:01.000Z</time>
</trkpt>
<trkpt lat="45.8980690" lon="9.8353860">
	<ele>1724.40</ele>
	<time>2023-11-18T09:00:02.000Z</time>
</trkpt>
<trkpt lat="45.8980700" lon="9.8353810">
	<ele>1724.60</ele>
	<time>2023-11-18T09:00:03.000Z</time>
</trkpt>
<trkpt lat="45.8980710" lon="9.8353790">
	<ele>1724.60</ele>
	<time>2023-11-18T09:00:04.000Z</time>
</trkpt>
<trkpt lat="45.8980730" lon="9.8353780">
	<ele>1724.40</ele>
	<time>2023-11-18T09:00:05.000Z</time>
</trkpt>
<trkpt lat="45.8980740" lon="9.8353770">
	<ele>1724.40</ele>
	<time>2023-11-18T09:00:06.000Z</time>
</trkpt>
<trkpt lat="45.8980820" lon="9.8353800">
	<ele>1724.20</ele>
	<time>2023-11-18T09:00:07.000Z</time>
</trkpt>
<trkpt lat="45.8980920" lon="9.8353810">
	<ele>1724.20</ele>
	<time>2023-11-18T09:00:08.000Z</time>
</trkpt>
<trkpt lat="45.8980990" lon="9.8353760">
	<ele>1724.20</ele>
	<time>2023-11-18T09:00:09.000Z</time>
</trkpt>
<trkpt lat="45.8981030" lon="9.8353680">
	<ele>1724.00</ele>
	<time>2023-11-18T09:00:10.000Z</time>
</trkpt>
<trkpt lat="45.8981100" lon="9.8353580">
	<ele>1724.00</ele>
	<time>2023-11-18T09:00:11.000Z</time>
</trkpt>
<trkpt lat="45.8981140" lon="9.8353470">
	<ele>1724.00</ele>
	<time>2023-11-18T09:00:12.000Z</time>
</trkpt>
<trkpt lat="45.8981170" lon="9.8353410">
	<ele>1724.00</ele>
	<time>2023-11-18T09:00:13.000Z</time>
</trkpt>
<trkpt lat="45.8981210" lon="9.8353310">
	<ele>1724.00</ele>
	<time>2023-11-18T09:00:14.000Z</time>
</trkpt>
<trkpt lat="45.8981250" lon="9.8353220">
	<ele>1723.80</ele>
	<time>2023-11-18T09:00:15.000Z</time>
</trkpt>
<trkpt lat="45.8981270" lon="9.8353130">
	<ele>1723.80</ele>
	<time>2023-11-18T09:00:16.000Z</time>
</trkpt>
<trkpt lat="45.8981300" lon="9.8353020">
	<ele>1723.80</ele>
	<time>2023-11-18T09:00:17.000Z</time>
</trkpt>
<trkpt lat="45.8981340" lon="9.8352900">
	<ele>1723.60</ele>
	<time>2023-11-18T09:00:18.000Z</time>
</trkpt>
<trkpt lat="45.8981350" lon="9.8352810">
	<ele>1723.60</ele>
	<time>2023-11-18T09:00:19.000Z</time>
</trkpt>
<trkpt lat="45.8981380" lon="9.8352710">
	<ele>1723.60</ele>
	<time>2023-11-18T09:00:20.000Z</time>
</trkpt>
<trkpt lat="45.8981400" lon="9.8352630">
	<ele>1723.80</ele>
	<time>2023-11-18T09:00:21.000Z</time>
</trkpt>
<trkpt lat="45.8981460" lon="9.8352570">
	<ele>1723.80</ele>
	<time>2023-11-18T09:00:22.000Z</time>
</trkpt>
<trkpt lat="45.8981510" lon="9.8352520">
	<ele>1723.80</ele>
	<time>2023-11-18T09:00:23.000Z</time>
</trkpt>
<trkpt lat="45.8981540" lon="9.8352470">
	<ele>1724.00</ele>
	<time>2023-11-18T09:00:24.000Z</time>
</trkpt>
<trkpt lat="45.8981600" lon="9.8352410">
	<ele>1724.00</ele>
	<time>2023-11-18T09:00:25.000Z</time>
</trkpt>
<trkpt lat="45.8981630" lon="9.8352310">
	<ele>1724.00</ele>
	<time>2023-11-18T09:00:26.000Z</time>
</trkpt>
<trkpt lat="45.8981680" lon="9.8352210">
	<ele>1724.00</ele>
	<time>2023-11-18T09:00:27.000Z</time>
</trkpt>
<trkpt lat="45.8981700" lon="9.8352120">
	<ele>1724.00</ele>
	<time>2023-11-18T09:00:28.000Z</time>
</trkpt>
<trkpt lat="45.8981760" lon="9.8352030">
	<ele>1724.00</ele>
	<time>2023-11-18T09:00:29.000Z</time>
</trkpt>
<trkpt lat="45.8981780" lon="9.8351960">
	<ele>1724.00</ele>
	<time>2023-11-18T09:00:30.000Z</time>
</trkpt>
<trkpt lat="45.8981820" lon="9.8351910">
	<ele>1724.20</ele>
	<time>2023-11-18T09:00:31.000Z</time>
</trkpt>
<trkpt lat="45.8981840" lon="9.8351830">
	<ele>1724.20</ele>
	<time>2023-11-18T09:00:32.000Z</time>
</trkpt>
<trkpt lat="45.8981860" lon="9.8351770">
	<ele>1724.00</ele>
	<time>2023-11-18T09:00:33.000Z</time>
</trkpt>
<trkpt lat="45.8981910" lon="9.8351680">
	<ele>1724.00</ele>
	<time>2023-11-18T09:00:34.000Z</time>
</trkpt>
<trkpt lat="45.8981970" lon="9.8351600">
	<ele>1724.00</ele>
	<time>2023-11-18T09:00:35.000Z</time>
</trkpt>
<trkpt lat="45.8981970" lon="9.8351520">
	<ele>1724.20</ele>
	<time>2023-11-18T09:00:36.000Z</time>
</trkpt>
<trkpt lat="45.8981970" lon="9.8351430">
	<ele>1724.20</ele>
	<time>2023-11-18T09:00:37.000Z</time>
</trkpt>
<trkpt lat="45.8981960" lon="9.8351390">
	<ele>1724.20</ele>
	<time>2023-11-18T09:00:38.000Z</time>
</trkpt>
<trkpt lat="45.8981950" lon="9.8351340">
	<ele>1724.40</ele>
	<time>2023-11-18T09:00:39.000Z</time>
</trkpt>
<trkpt lat="45.8981970" lon="9.8351250">
	<ele>1724.40</ele>
	<time>2023-11-18T09:00:40.000Z</time>
</trkpt>
<trkpt lat="45.8982020" lon="9.8351190">
	<ele>1724.40</ele>
	<time>2023-11-18T09:00:41.000Z</time>
</trkpt>
<trkpt lat="45.8982090" lon="9.8351120">
	<ele>1724.60</ele>
	<time>2023-11-18T09:00:42.000Z</time>
</trkpt>
<trkpt lat="45.8982130" lon="9.8351070">
	<ele>1724.60</ele>
	<time>2023-11-18T09:00:43.000Z</time>
</trkpt>
<trkpt lat="45.8982190" lon="9.8351060">
	<ele>1724.60</ele>
	<time>2023-11-18T09:00:44.000Z</time>
</trkpt>
<trkpt lat="45.8982230" lon="9.8351050">
	<ele>1724.60</ele>
	<time>2023-11-18T09:00:45.000Z</time>
</trkpt>
<trkpt lat="45.8982250" lon="9.8351040">
	<ele>1724.60</ele>
	<time>2023-11-18T09:00:46.000Z</time>
</trkpt>
<trkpt lat="45.8982280" lon="9.8351010">
	<ele>1724.40</ele>
	<time>2023-11-18T09:00:47.000Z</time>
</trkpt>
<trkpt lat="45.8982310" lon="9.8350980">
	<ele>1724.20</ele>
	<time>2023-11-18T09:00:48.000Z</time>
</trkpt>
<trkpt lat="45.8982400" lon="9.8350950">
	<ele>1724.20</ele>
	<time>2023-11-18T09:00:49.000Z</time>
</trkpt>
<trkpt lat="45.8982470" lon="9.8350830">
	<ele>1724.00</ele>
	<time>2023-11-18T09:00:50.000Z</time>
</trkpt>
<trkpt lat="45.8982480" lon="9.8350780">
	<ele>1724.00</ele>
	<time>2023-11-18T09:00:51.000Z</time>
</trkpt>
<trkpt lat="45.8982590" lon="9.8350710">
	<ele>1724.00</ele>
	<time>2023-11-18T09:00:52.000Z</time>
</trkpt>
<trkpt lat="45.8982660" lon="9.8350640">
	<ele>1724.00</ele>
	<time>2023-11-18T09:00:53.000Z</time>
</trkpt>
<trkpt lat="45.8982740" lon="9.8350570">
	<ele>1723.80</ele>
	<time>2023-11-18T09:00:54.000Z</time>
</trkpt>
<trkpt lat="45.8982810" lon="9.8350510">
	<ele>1723.80</ele>
	<time>2023-11-18T09:00:55.000Z</time>
</trkpt>
<trkpt lat="45.8982890" lon="9.8350420">
	<ele>1723.60</ele>
	<time>2023-11-18T09:00:56.000Z</time>
</trkpt>
<trkpt lat="45.8982960" lon="9.8350310">
	<ele>1723.60</ele>
	<time>2023-11-18T09:00:57.000Z</time>
</trkpt>
<trkpt lat="45.8983020" lon="9.8350210">
	<ele>1723.60</ele>
	<time>2023-11-18T09:00:58.000Z</time>
</trkpt>
<trkpt lat="45.8983080" lon="9.8350130">
	<ele>1723.60</ele>
	<time>2023-11-18T09:00:59.000Z</time>
</trkpt>
<trkpt lat="45.8983120" lon="9.8350000">
	<ele>1723.60</ele>
	<time>2023-11-18T09:01:00.000Z</time>
</trkpt>
<trkpt lat="45.8983160" lon="9.8349920">
	<ele>1723.80</ele>
	<time>2023-11-18T09:01:01.000Z</time>
</trkpt>
<trkpt lat="45.8983180" lon="9.8349860">
	<ele>1723.80</ele>
	<time>2023-11-18T09:01:02.000Z</time>
</trkpt>
<trkpt lat="45.8983220" lon="9.8349780">
	<ele>1723.80</ele>
	<time>2023-11-18T09:01:03.000Z</time>
</trkpt>
<trkpt lat="45.8983250" lon="9.8349710">
	<ele>1723.80</ele>
	<time>2023-11-18T09:01:04.000Z</time>
</trkpt>
<trkpt lat="45.8983310" lon="9.8349630">
	<ele>1724.00</ele>
	<time>2023-11-18T09:01:05.000Z</time>
</trkpt>
<trkpt lat="45.8983360" lon="9.8349540">
	<ele>1724.00</ele>
	<time>2023-11-18T09:01:06.000Z</time>
</trkpt>
<trkpt lat="45.8983390" lon="9.8349440">
	<ele>1724.00</ele>
	<time>2023-11-18T09:01:07.000Z</time>
</trkpt>
<trkpt lat="45.8983430" lon="9.8349350">
	<ele>1724.20</ele>
	<time>2023-11-18T09:01:08.000Z</time>
</trkpt>
<trkpt lat="45.8983470" lon="9.8349280">
	<ele>1724.20</ele>
	<time>2023-11-18T09:01:09.000Z</time>
</trkpt>
<trkpt lat="45.8983490" lon="9.8349210">
	<ele>1724.40</ele>
	<time>2023-11-18T09:01:10.000Z</time>
</trkpt>
<trkpt lat="45.8983530" lon="9.8349130">
	<ele>1724.40</ele>
	<time>2023-11-18T09:01:11.000Z</time>
</trkpt>
<trkpt lat="45.8983570" lon="9.8349050">
	<ele>1724.40</ele>
	<time>2023-11-18T09:01:12.000Z</time>
</trkpt>
<trkpt lat="45.8983610" lon="9.8348990">
	<ele>1724.60</ele>
	<time>2023-11-18T09:01:13.000Z</time>
</trkpt>
<trkpt lat="45.8983670" lon="9.8348940">
	<ele>1724.60</ele>
	<time>2023-11-18T09:01:14.000Z</time>
</trkpt>
<trkpt lat="45.8983700" lon="9.8348850">
	<ele>1724.80</ele>
	<time>2023-11-18T09:01:15.000Z</time>
</trkpt>
<trkpt lat="45.8983720" lon="9.8348780">
	<ele>1724.80</ele>
	<time>2023-11-18T09:01:16.000Z</time>
</trkpt>
<trkpt lat="45.8983750" lon="9.8348700">
	<ele>1724.80</ele>
	<time>2023-11-18T09:01:17.000Z</time>
</trkpt>
<trkpt lat="45.8983760" lon="9.8348630">
	<ele>1724.80</ele>
	<time>2023-11-18T09:01:18.000Z</time>
</trkpt>
<trkpt lat="45.8983800" lon="9.8348550">
	<ele>1725.20</ele>
	<time>2023-11-18T09:01:19.000Z</time>
</trkpt>
<trkpt lat="45.8983800" lon="9.8348480">
	<ele>1725.40</ele>
	<time>2023-11-18T09:01:20.000Z</time>
</trkpt>
<trkpt lat="45.8983810" lon="9.8348420">
	<ele>1725.40</ele>
	<time>2023-11-18T09:01:21.000Z</time>
</trkpt>
<trkpt lat="45.8983830" lon="9.8348370">
	<ele>1725.60</ele>
	<time>2023-11-18T09:01:22.000Z</time>
</trkpt>
<trkpt lat="45.8983860" lon="9.8348340">
	<ele>1725.60</ele>
	<time>2023-11-18T09:01:23.000Z</time>
</trkpt>
<trkpt lat="45.8983880" lon="9.8348310">
	<ele>1725.80</ele>
	<time>2023-11-18T09:01:24.000Z</time>
</trkpt>
<trkpt lat="45.8983920" lon="9.8348300">
	<ele>1725.80</ele>
	<time>2023-11-18T09:01:25.000Z</time>
</trkpt>
<trkpt lat="45.8984010" lon="9.8348270">
	<ele>1725.80</ele>
	<time>2023-11-18T09:01:26.000Z</time>
</trkpt>
<trkpt lat="45.8984090" lon="9.8348250">
	<ele>1726.00</ele>
	<time>2023-11-18T09:01:27.000Z</time>
</trkpt>
<trkpt lat="45.8984140" lon="9.8348210">
	<ele>1726.00</ele>
	<time>2023-11-18T09:01:28.000Z</time>
</trkpt>
<trkpt lat="45.8984190" lon="9.8348150">
	<ele>1725.80</ele>
	<time>2023-11-18T09:01:29.000Z</time>
</trkpt>
<trkpt lat="45.8984220" lon="9.8348120">
	<ele>1725.80</ele>
	<time>2023-11-18T09:01:30.000Z</time>
</trkpt>
<trkpt lat="45.8984240" lon="9.8348080">
	<ele>1725.60</ele>
	<time>2023-11-18T09:01:31.000Z</time>
</trkpt>
<trkpt lat="45.8984270" lon="9.8348040">
	<ele>1725.60</ele>
	<time>2023-11-18T09:01:32.000Z</time>
</trkpt>
<trkpt lat="45.8984350" lon="9.8348000">
	<ele>1725.40</ele>
	<time>2023-11-18T09:01:33.000Z</time>
</trkpt>
<trkpt lat="45.8984420" lon="9.8347970">
	<ele>1725.20</ele>
	<time>2023-11-18T09:01:34.000Z</time>
</trkpt>
<trkpt lat="45.8984450" lon="9.8347990">
	<ele>1725.20</ele>
	<time>2023-11-18T09:01:35.000Z</time>
</trkpt>
<trkpt lat="45.8984500" lon="9.8347980">
	<ele>1725.00</ele>
	<time>2023-11-18T09:01:36.000Z</time>
</trkpt>
<trkpt lat="45.8984540" lon="9.8347970">
	<ele>1725.00</ele>
	<time>2023-11-18T09:01:37.000Z</time>
</trkpt>
<trkpt lat="45.8984620" lon="9.8347960">
	<ele>1724.80</ele>
	<time>2023-11-18T09:01:38.000Z</time>
</trkpt>
<trkpt lat="45.8984710" lon="9.8347870">
	<ele>1724.80</ele>
	<time>2023-11-18T09:01:39.000Z</time>
</trkpt>
<trkpt lat="45.8984800" lon="9.8347780">
	<ele>1724.60</ele>
	<time>2023-11-18T09:01:40.000Z</time>
</trkpt>
<trkpt lat="45.8984930" lon="9.8347730">
	<ele>1724.60</ele>
	<time>2023-11-18T09:01:41.000Z</time>
</trkpt>
<trkpt lat="45.8985030" lon="9.8347680">
	<ele>1724.40</ele>
	<time>2023-11-18T09:01:42.000Z</time>
</trkpt>
<trkpt lat="45.8985150" lon="9.8347610">
	<ele>1724.20</ele>
	<time>2023-11-18T09:01:43.000Z</time>
</trkpt>
<trkpt lat="45.8985250" lon="9.8347520">
	<ele>1724.20</ele>
	<time>2023-11-18T09:01:44.000Z</time>
</trkpt>
<trkpt lat="45.8985370" lon="9.8347450">
	<ele>1724.20</ele>
	<time>2023-11-18T09:01:45.000Z</time>
</trkpt>
<trkpt lat="45.8985450" lon="9.8347380">
	<ele>1724.20</ele>
	<time>2023-11-18T09:01:46.000Z</time>
</trkpt>
<trkpt lat="45.8985530" lon="9.8347290">
	<ele>1724.20</ele>
	<time>2023-11-18T09:01:47.000Z</time>
</trkpt>
<trkpt lat="45.8985610" lon="9.8347200">
	<ele>1724.20</ele>
	<time>2023-11-18T09:01:48.000Z</time>
</trkpt>
<trkpt lat="45.8985700" lon="9.8347140">
	<ele>1724.40</ele>
	<time>2023-11-18T09:01:49.000Z</time>
</trkpt>
<trkpt lat="45.8985780" lon="9.8347070">
	<ele>1724.60</ele>
	<time>2023-11-18T09:01:50.000Z</time>
</trkpt>
<trkpt lat="45.8985840" lon="9.8347000">
	<ele>1725.00</ele>
	<time>2023-11-18T09:01:51.000Z</time>
</trkpt>
<trkpt lat="45.8985900" lon="9.8346920">
	<ele>1725.00</ele>
	<time>2023-11-18T09:01:52.000Z</time>
</trkpt>
<trkpt lat="45.8985950" lon="9.8346850">
	<ele>1725.20</ele>
	<time>2023-11-18T09:01:53.000Z</time>
</trkpt>
<trkpt lat="45.8986040" lon="9.8346760">
	<ele>1725.40</ele>
	<time>2023-11-18T09:01:54.000Z</time>
</trkpt>
<trkpt lat="45.8986090" lon="9.8346660">
	<ele>1725.40</ele>
	<time>2023-11-18T09:01:55.000Z</time>
</trkpt>
<trkpt lat="45.8986130" lon="9.8346590">
	<ele>1725.60</ele>
	<time>2023-11-18T09:01:56.000Z</time>
</trkpt>
<trkpt lat="45.8986190" lon="9.8346540">
	<ele>1725.60</ele>
	<time>2023-11-18T09:01:57.000Z</time>
</trkpt>
<trkpt lat="45.8986230" lon="9.8346500">
	<ele>1725.60</ele>
	<time>2023-11-18T09:01:58.000Z</time>
</trkpt>
<trkpt lat="45.8986310" lon="9.8346430">
	<ele>1725.60</ele>
	<time>2023-11-18T09:01:59.000Z</time>
</trkpt>
<trkpt lat="45.8986360" lon="9.8346350">
	<ele>1725.60</ele>
	<time>2023-11-18T09:02:00.000Z</time>
</trkpt>
<trkpt lat="45.8986440" lon="9.8346270">
	<ele>1725.60</ele>
	<time>2023-11-18T09:02:01.000Z</time>
</trkpt>
<trkpt lat="45.8986540" lon="9.8346190">
	<ele>1725.60</ele>
	<time>2023-11-18T09:02:02.000Z</time>
</trkpt>
<trkpt lat="45.8986620" lon="9.8346110">
	<ele>1725.80</ele>
	<time>2023-11-18T09:02:03.000Z</time>
</trkpt>
<trkpt lat="45.8986700" lon="9.8346010">
	<ele>1725.80</ele>
	<time>2023-11-18T09:02:04.000Z</time>
</trkpt>
<trkpt lat="45.8986770" lon="9.8345910">
	<ele>1726.00</ele>
	<time>2023-11-18T09:02:05.000Z</time>
</trkpt>
<trkpt lat="45.8986870" lon="9.8345810">
	<ele>1726.00</ele>
	<time>2023-11-18T09:02:06.000Z</time>
</trkpt>
<trkpt lat="45.8986970" lon="9.8345750">
	<ele>1726.00</ele>
	<time>2023-11-18T09:02:07.000Z</time>
</trkpt>
<trkpt lat="45.8987000" lon="9.8345680">
	<ele>1726.00</ele>
	<time>2023-11-18T09:02:08.000Z</time>
</trkpt>
<trkpt lat="45.8987080" lon="9.8345590">
	<ele>1726.20</ele>
	<time>2023-11-18T09:02:09.000Z</time>
</trkpt>
<trkpt lat="45.8987160" lon="9.8345520">
	<ele>1726.20</ele>
	<time>2023-11-18T09:02:10.000Z</time>
</trkpt>
<trkpt lat="45.8987240" lon="9.8345450">
	<ele>1726.20</ele>
	<time>2023-11-18T09:02:11.000Z</time>
</trkpt>
<trkpt lat="45.8987340" lon="9.8345370">
	<ele>1726.20</ele>
	<time>2023-11-18T09:02:12.000Z</time>
</trkpt>
<trkpt lat="45.8987390" lon="9.8345330">
	<ele>1726.20</ele>
	<time>2023-11-18T09:02:13.000Z</time>
</trkpt>
<trkpt lat="45.8987420" lon="9.8345310">
	<ele>1726.00</ele>
	<time>2023-11-18T09:02:14.000Z</time>
</trkpt>
<trkpt lat="45.8987480" lon="9.8345280">
	<ele>1726.00</ele>
	<time>2023-11-18T09:02:15.000Z</time>
</trkpt>
<trkpt lat="45.8987590" lon="9.8345210">
	<ele>1726.00</ele>
	<time>2023-11-18T09:02:16.000Z</time>
</trkpt>
<trkpt lat="45.8987690" lon="9.8345090">
	<ele>1726.00</ele>
	<time>2023-11-18T09:02:17.000Z</time>
</trkpt>
<trkpt lat="45.8987750" lon="9.8345000">
	<ele>1726.00</ele>
	<time>2023-11-18T09:02:18.000Z</time>
</trkpt>
<trkpt lat="45.8987760" lon="9.8344920">
	<ele>1726.00</ele>
	<time>2023-11-18T09:02:19.000Z</time>
</trkpt>
<trkpt lat="45.8987820" lon="9.8344870">
	<ele>1726.00</ele>
	<time>2023-11-18T09:02:20.000Z</time>
</trkpt>
<trkpt lat="45.8987890" lon="9.8344820">
	<ele>1726.20</ele>
	<time>2023-11-18T09:02:21.000Z</time>
</trkpt>
<trkpt lat="45.8987960" lon="9.8344790">
	<ele>1726.20</ele>
	<time>2023-11-18T09:02:22.000Z</time>
</trkpt>
<trkpt lat="45.8988040" lon="9.8344790">
	<ele>1726.20</ele>
	<time>2023-11-18T09:02:23.000Z</time>
</trkpt>
<trkpt lat="45.8988120" lon="9.8344790">
	<ele>1726.20</ele>
	<time>2023-11-18T09:02:24.000Z</time>
</trkpt>
<trkpt lat="45.8988190" lon="9.8344780">
	<ele>1726.20</ele>
	<time>2023-11-18T09:02:25.000Z</time>
</trkpt>
<trkpt lat="45.8988260" lon="9.8344730">
	<ele>1726.20</ele>
	<time>2023-11-18T09:02:26.000Z</time>
</trkpt>
<trkpt lat="45.8988320" lon="9.8344690">
	<ele>1726.20</ele>
	<time>2023-11-18T09:02:27.000Z</time>
</trkpt>
<trkpt lat="45.8988400" lon="9.8344660">
	<ele>1726.20</ele>
	<time>2023-11-18T09:02:28.000Z</time>
</trkpt>
<trkpt lat="45.8988480" lon="9.8344610">
	<ele>1726.20</ele>
	<time>2023-11-18T09:02:29.000Z</time>
</trkpt>
<trkpt lat="45.8988580" lon="9.8344570">
	<ele>1726.20</ele>
	<time>2023-11-18T09:02:30.000Z</time>
</trkpt>
<trkpt lat="45.8988650" lon="9.8344530">
	<ele>1726.40</ele>
	<time>2023-11-18T09:02:31.000Z</time>
</trkpt>
<trkpt lat="45.8988730" lon="9.8344530">
	<ele>1726.60</ele>
	<time>2023-11-18T09:02:32.000Z</time>
</trkpt>
<trkpt lat="45.8988800" lon="9.8344500">
	<ele>1726.60</ele>
	<time>2023-11-18T09:02:33.000Z</time>
</trkpt>
<trkpt lat="45.8988860" lon="9.8344480">
	<ele>1726.80</ele>
	<time>2023-11-18T09:02:34.000Z</time>
</trkpt>
<trkpt lat="45.8988930" lon="9.8344450">
	<ele>1727.00</ele>
	<time>2023-11-18T09:02:35.000Z</time>
</trkpt>
<trkpt lat="45.8989010" lon="9.8344470">
	<ele>1727.00</ele>
	<time>2023-11-18T09:02:36.000Z</time>
</trkpt>
<trkpt lat="45.8989080" lon="9.8344520">
	<ele>1727.00</ele>
	<time>2023-11-18T09:02:37.000Z</time>
</trkpt>
<trkpt lat="45.8989190" lon="9.8344540">
	<ele>1727.00</ele>
	<time>2023-11-18T09:02:38.000Z</time>
</trkpt>
<trkpt lat="45.8989290" lon="9.8344500">
	<ele>1727.00</ele>
	<time>2023-11-18T09:02:39.000Z</time>
</trkpt>
<trkpt lat="45.8989380" lon="9.8344410">
	<ele>1727.20</ele>
	<time>2023-11-18T09:02:40.000Z</time>
</trkpt>
<trkpt lat="45.8989470" lon="9.8344330">
	<ele>1727.20</ele>
	<time>2023-11-18T09:02:41.000Z</time>
</trkpt>
<trkpt lat="45.8989530" lon="9.8344250">
	<ele>1727.40</ele>
	<time>2023-11-18T09:02:42.000Z</time>
</trkpt>
<trkpt lat="45.8989570" lon="9.8344210">
	<ele>1727.60</ele>
	<time>2023-11-18T09:02:43.000Z</time>
</trkpt>
<trkpt lat="45.8989640" lon="9.8344150">
	<ele>1728.00</ele>
	<time>2023-11-18T09:02:44.000Z</time>
</trkpt>
<trkpt lat="45.8989730" lon="9.8344100">
	<ele>1728.20</ele>
	<time>2023-11-18T09:02:45.000Z</time>
</trkpt>
<trkpt lat="45.8989820" lon="9.8344060">
	<ele>1728.40</ele>
	<time>2023-11-18T09:02:46.000Z</time>
</trkpt>
<trkpt lat="45.8989880" lon="9.8344040">
	<ele>1728.40</ele>
	<time>2023-11-18T09:02:47.000Z</time>
</trkpt>
<trkpt lat="45.8989950" lon="9.8344010">
	<ele>1728.80</ele>
	<time>2023-11-18T09:02:48.000Z</time>
</trkpt>
<trkpt lat="45.8990030" lon="9.8343980">
	<ele>1729.00</ele>
	<time>2023-11-18T09:02:49.000Z</time>
</trkpt>
<trkpt lat="45.8990160" lon="9.8343930">
	<ele>1729.00</ele>
	<time>2023-11-18T09:02:50.000Z</time>
</trkpt>
<trkpt lat="45.8990240" lon="9.8343860">
	<ele>1729.20</ele>
	<time>2023-11-18T09:02:51.000Z</time>
</trkpt>
<trkpt lat="45.8990300" lon="9.8343800">
	<ele>1729.20</ele>
	<time>2023-11-18T09:02:52.000Z</time>
</trkpt>
<trkpt lat="45.8990380" lon="9.8343740">
	<ele>1729.20</ele>
	<time>2023-11-18T09:02:53.000Z</time>
</trkpt>
<trkpt lat="45.8990470" lon="9.8343670">
	<ele>1729.40</ele>
	<time>2023-11-18T09:02:54.000Z</time>
</trkpt>
<trkpt lat="45.8990530" lon="9.8343610">
	<ele>1729.40</ele>
	<time>2023-11-18T09:02:55.000Z</time>
</trkpt>
<trkpt lat="45.8990580" lon="9.8343550">
	<ele>1729.40</ele>
	<time>2023-11-18T09:02:56.000Z</time>
</trkpt>
<trkpt lat="45.8990640" lon="9.8343500">
	<ele>1729.40</ele>
	<time>2023-11-18T09:02:57.000Z</time>
</trkpt>
<trkpt lat="45.8990690" lon="9.8343460">
	<ele>1729.40</ele>
	<time>2023-11-18T09:02:58.000Z</time>
</trkpt>
<trkpt lat="45.8990740" lon="9.8343440">
	<ele>1729.60</ele>
	<time>2023-11-18T09:02:59.000Z</time>
</trkpt>
<trkpt lat="45.8990800" lon="9.8343400">
	<ele>1729.60</ele>
	<time>2023-11-18T09:03:00.000Z</time>
</trkpt>
<trkpt lat="45.8990830" lon="9.8343380">
	<ele>1729.40</ele>
	<time>2023-11-18T09:03:01.000Z</time>
</trkpt>
<trkpt lat="45.8990910" lon="9.8343370">
	<ele>1729.40</ele>
	<time>2023-11-18T09:03:02.000Z</time>
</trkpt>
<trkpt lat="45.8990980" lon="9.8343380">
	<ele>1729.20</ele>
	<time>2023-11-18T09:03:03.000Z</time>
</trkpt>
<trkpt lat="45.8991030" lon="9.8343370">
	<ele>1729.00</ele>
	<time>2023-11-18T09:03:04.000Z</time>
</trkpt>
<trkpt lat="45.8991100" lon="9.8343350">
	<ele>1728.80</ele>
	<time>2023-11-18T09:03:05.000Z</time>
</trkpt>
<trkpt lat="45.8991180" lon="9.8343260">
	<ele>1728.60</ele>
	<time>2023-11-18T09:03:06.000Z</time>
</trkpt>
<trkpt lat="45.8991260" lon="9.8343120">
	<ele>1728.40</ele>
	<time>2023-11-18T09:03:07.000Z</time>
</trkpt>
<trkpt lat="45.8991300" lon="9.8342990">
	<ele>1728.40</ele>
	<time>2023-11-18T09:03:08.000Z</time>
</trkpt>
<trkpt lat="45.8991360" lon="9.8342910">
	<ele>1728.20</ele>
	<time>2023-11-18T09:03:09.000Z</time>
</trkpt>
<trkpt lat="45.8991450" lon="9.8342830">
	<ele>1728.20</ele>
	<time>2023-11-18T09:03:10.000Z</time>
</trkpt>
<trkpt lat="45.8991530" lon="9.8342760">
	<ele>1728.20</ele>
	<time>2023-11-18T09:03:11.000Z</time>
</trkpt>
<trkpt lat="45.8991610" lon="9.8342680">
	<ele>1728.20</ele>
	<time>2023-11-18T09:03:12.000Z</time>
</trkpt>
<trkpt lat="45.8991680" lon="9.8342620">
	<ele>1728.40</ele>
	<time>2023-11-18T09:03:13.000Z</time>
</trkpt>
<trkpt lat="45.8991760" lon="9.8342580">
	<ele>1728.40</ele>
	<time>2023-11-18T09:03:14.000Z</time>
</trkpt>
<trkpt lat="45.8991820" lon="9.8342560">
	<ele>1728.40</ele>
	<time>2023-11-18T09:03:15.000Z</time>
</trkpt>
<trkpt lat="45.8991900" lon="9.8342580">
	<ele>1728.40</ele>
	<time>2023-11-18T09:03:16.000Z</time>
</trkpt>
<trkpt lat="45.8992000" lon="9.8342600">
	<ele>1728.40</ele>
	<time>2023-11-18T09:03:17.000Z</time>
</trkpt>
<trkpt lat="45.8992080" lon="9.8342550">
	<ele>1728.60</ele>
	<time>2023-11-18T09:03:18.000Z</time>
</trkpt>
<trkpt lat="45.8992150" lon="9.8342570">
	<ele>1728.60</ele>
	<time>2023-11-18T09:03:19.000Z</time>
</trkpt>
<trkpt lat="45.8992220" lon="9.8342600">
	<ele>1728.80</ele>
	<time>2023-11-18T09:03:20.000Z</time>
</trkpt>
<trkpt lat="45.8992300" lon="9.8342640">
	<ele>1729.00</ele>
	<time>2023-11-18T09:03:21.000Z</time>
</trkpt>
<trkpt lat="45.8992390" lon="9.8342660">
	<ele>1729.20</ele>
	<time>2023-11-18T09:03:22.000Z</time>
</trkpt>
<trkpt lat="45.8992470" lon="9.8342690">
	<ele>1729.20</ele>
	<time>2023-11-18T09:03:23.000Z</time>
</trkpt>
<trkpt lat="45.8992550" lon="9.8342690">
	<ele>1729.60</ele>
	<time>2023-11-18T09:03:24.000Z</time>
</trkpt>
<trkpt lat="45.8992610" lon="9.8342690">
	<ele>1729.60</ele>
	<time>2023-11-18T09:03:25.000Z</time>
</trkpt>
<trkpt lat="45.8992660" lon="9.8342690">
	<ele>1729.80</ele>
	<time>2023-11-18T09:03:26.000Z</time>
</trkpt>
<trkpt lat="45.8992730" lon="9.8342660">
	<ele>1730.00</ele>
	<time>2023-11-18T09:03:27.000Z</time>
</trkpt>
<trkpt lat="45.8992800" lon="9.8342640">
	<ele>1730.20</ele>
	<time>2023-11-18T09:03:28.000Z</time>
</trkpt>
<trkpt lat="45.8992870" lon="9.8342660">
	<ele>1730.20</ele>
	<time>2023-11-18T09:03:29.000Z</time>
</trkpt>
<trkpt lat="45.8992970" lon="9.8342690">
	<ele>1730.40</ele>
	<time>2023-11-18T09:03:30.000Z</time>
</trkpt>
<trkpt lat="45.8993040" lon="9.8342750">
	<ele>1730.60</ele>
	<time>2023-11-18T09:03:31.000Z</time>
</trkpt>
<trkpt lat="45.8993120" lon="9.8342770">
	<ele>1730.80</ele>
	<time>2023-11-18T09:03:32.000Z</time>
</trkpt>
<trkpt lat="45.8993220" lon="9.8342810">
	<ele>1731.00</ele>
	<time>2023-11-18T09:03:33.000Z</time>
</trkpt>
<trkpt lat="45.8993280" lon="9.8342850">
	<ele>1731.20</ele>
	<time>2023-11-18T09:03:34.000Z</time>
</trkpt>
<trkpt lat="45.8993350" lon="9.8342890">
	<ele>1731.20</ele>
	<time>2023-11-18T09:03:35.000Z</time>
</trkpt>
<trkpt lat="45.8993430" lon="9.8342880">
	<ele>1731.20</ele>
	<time>2023-11-18T09:03:36.000Z</time>
</trkpt>
<trkpt lat="45.8993520" lon="9.8342840">
	<ele>1731.20</ele>
	<time>2023-11-18T09:03:37.000Z</time>
</trkpt>
<trkpt lat="45.8993570" lon="9.8342820">
	<ele>1731.20</ele>
	<time>2023-11-18T09:03:38.000Z</time>
</trkpt>
<trkpt lat="45.8993600" lon="9.8342770">
	<ele>1731.20</ele>
	<time>2023-11-18T09:03:39.000Z</time>
</trkpt>
<trkpt lat="45.8993630" lon="9.8342750">
	<ele>1731.40</ele>
	<time>2023-11-18T09:03:40.000Z</time>
</trkpt>
<trkpt lat="45.8993640" lon="9.8342740">
	<ele>1731.40</ele>
	<time>2023-11-18T09:03:41.000Z</time>
</trkpt>
<trkpt lat="45.8993630" lon="9.8342660">
	<ele>1731.60</ele>
	<time>2023-11-18T09:03:42.000Z</time>
</trkpt>
<trkpt lat="45.8993640" lon="9.8342520">
	<ele>1731.80</ele>
	<time>2023-11-18T09:03:43.000Z</time>
</trkpt>
<trkpt lat="45.8993650" lon="9.8342420">
	<ele>1731.80</ele>
	<time>2023-11-18T09:03:44.000Z</time>
</trkpt>
<trkpt lat="45.8993710" lon="9.8342280">
	<ele>1731.80</ele>
	<time>2023-11-18T09:03:45.000Z</time>
</trkpt>
<trkpt lat="45.8993770" lon="9.8342180">
	<ele>1731.80</ele>
	<time>2023-11-18T09:03:46.000Z</time>
</trkpt>
<trkpt lat="45.8993800" lon="9.8342080">
	<ele>1731.80</ele>
	<time>2023-11-18T09:03:47.000Z</time>
</trkpt>
<trkpt lat="45.8993840" lon="9.8342010">
	<ele>1731.60</ele>
	<time>2023-11-18T09:03:48.000Z</time>
</trkpt>
<trkpt lat="45.8993890" lon="9.8341940">
	<ele>1731.60</ele>
	<time>2023-11-18T09:03:49.000Z</time>
</trkpt>
<trkpt lat="45.8993950" lon="9.8341870">
	<ele>1731.60</ele>
	<time>2023-11-18T09:03:50.000Z</time>
</trkpt>
<trkpt lat="45.8993980" lon="9.8341760">
	<ele>1731.20</ele>
	<time>2023-11-18T09:03:51.000Z</time>
</trkpt>
<trkpt lat="45.8994030" lon="9.8341690">
	<ele>1731.00</ele>
	<time>2023-11-18T09:03:52.000Z</time>
</trkpt>
<trkpt lat="45.8994090" lon="9.8341600">
	<ele>1730.80</ele>
	<time>2023-11-18T09:03:53.000Z</time>
</trkpt>
<trkpt lat="45.8994140" lon="9.8341540">
	<ele>1730.80</ele>
	<time>2023-11-18T09:03:54.000Z</time>
</trkpt>
<trkpt lat="45.8994210" lon="9.8341460">
	<ele>1730.80</ele>
	<time>2023-11-18T09:03:55.000Z</time>
</trkpt>
<trkpt lat="45.8994280" lon="9.8341400">
	<ele>1730.60</ele>
	<time>2023-11-18T09:03:56.000Z</time>
</trkpt>
<trkpt lat="45.8994360" lon="9.8341320">
	<ele>1730.60</ele>
	<time>2023-11-18T09:03:57.000Z</time>
</trkpt>
<trkpt lat="45.8994430" lon="9.8341250">
	<ele>1730.60</ele>
	<time>2023-11-18T09:03:58.000Z</time>
</trkpt>
<trkpt lat="45.8994510" lon="9.8341160">
	<ele>1730.80</ele>
	<time>2023-11-18T09:03:59.000Z</time>
</trkpt>
<trkpt lat="45.8994560" lon="9.8341060">
	<ele>1730.80</ele>
	<time>2023-11-18T09:04:00.000Z</time>
</trkpt>
<trkpt lat="45.8994640" lon="9.8340950">
	<ele>1730.80</ele>
	<time>2023-11-18T09:04:01.000Z</time>
</trkpt>
<trkpt lat="45.8994710" lon="9.8340880">
	<ele>1730.80</ele>
	<time>2023-11-18T09:04:02.000Z</time>
</trkpt>
<trkpt lat="45.8994780" lon="9.8340870">
	<ele>1731.00</ele>
	<time>2023-11-18T09:04:03.000Z</time>
</trkpt>
<trkpt lat="45.8994870" lon="9.8340890">
	<ele>1731.00</ele>
	<time>2023-11-18T09:04:04.000Z</time>
</trkpt>
<trkpt lat="45.8994970" lon="9.8340960">
	<ele>1731.00</ele>
	<time>2023-11-18T09:04:05.000Z</time>
</trkpt>
<trkpt lat="45.8995050" lon="9.8341060">
	<ele>1731.00</ele>
	<time>2023-11-18T09:04:06.000Z</time>
</trkpt>
<trkpt lat="45.8995110" lon="9.8341180">
	<ele>1731.00</ele>
	<time>2023-11-18T09:04:07.000Z</time>
</trkpt>
<trkpt lat="45.8995190" lon="9.8341280">
	<ele>1731.00</ele>
	<time>2023-11-18T09:04:08.000Z</time>
</trkpt>
<trkpt lat="45.8995270" lon="9.8341350">
	<ele>1731.00</ele>
	<time>2023-11-18T09:04:09.000Z</time>
</trkpt>
<trkpt lat="45.8995370" lon="9.8341420">
	<ele>1731.00</ele>
	<time>2023-11-18T09:04:10.000Z</time>
</trkpt>
<trkpt lat="45.8995460" lon="9.8341470">
	<ele>1731.20</ele>
	<time>2023-11-18T09:04:11.000Z</time>
</trkpt>
<trkpt lat="45.8995570" lon="9.8341490">
	<ele>1731.20</ele>
	<time>2023-11-18T09:04:12.000Z</time>
</trkpt>
<trkpt lat="45.8995640" lon="9.8341520">
	<ele>1731.20</ele>
	<time>2023-11-18T09:04:13.000Z</time>
</trkpt>
<trkpt lat="45.8995690" lon="9.8341600">
	<ele>1731.20</ele>
	<time>2023-11-18T09:04:14.000Z</time>
</trkpt>
<trkpt lat="45.8995770" lon="9.8341620">
	<ele>1731.40</ele>
	<time>2023-11-18T09:04:15.000Z</time>
</trkpt>
<trkpt lat="45.8995880" lon="9.8341650">
	<ele>1731.40</ele>
	<time>2023-11-18T09:04:16.000Z</time>
</trkpt>
<trkpt lat="45.8995970" lon="9.8341670">
	<ele>1731.60</ele>
	<time>2023-11-18T09:04:17.000Z</time>
</trkpt>
<trkpt lat="45.8996010" lon="9.8341730">
	<ele>1731.80</ele>
	<time>2023-11-18T09:04:18.000Z</time>
</trkpt>
<trkpt lat="45.8996080" lon="9.8341760">
	<ele>1732.00</ele>
	<time>2023-11-18T09:04:19.000Z</time>
</trkpt>
<trkpt lat="45.8996140" lon="9.8341790">
	<ele>1732.20</ele>
	<time>2023-11-18T09:04:20.000Z</time>
</trkpt>
<trkpt lat="45.8996250" lon="9.8341790">
	<ele>1732.40</ele>
	<time>2023-11-18T09:04:21.000Z</time>
</trkpt>
<trkpt lat="45.8996340" lon="9.8341760">
	<ele>1732.40</ele>
	<time>2023-11-18T09:04:22.000Z</time>
</trkpt>
<trkpt lat="45.8996400" lon="9.8341750">
	<ele>1732.60</ele>
	<time>2023-11-18T09:04:23.000Z</time>
</trkpt>
<trkpt lat="45.8996450" lon="9.8341760">
	<ele>1732.80</ele>
	<time>2023-11-18T09:04:24.000Z</time>
</trkpt>
<trkpt lat="45.8996520" lon="9.8341780">
	<ele>1733.00</ele>
	<time>2023-11-18T09:04:25.000Z</time>
</trkpt>
<trkpt lat="45.8996580" lon="9.8341800">
	<ele>1733.00</ele>
	<time>2023-11-18T09:04:26.000Z</time>
</trkpt>
<trkpt lat="45.8996680" lon="9.8341810">
	<ele>1733.20</ele>
	<time>2023-11-18T09:04:27.000Z</time>
</trkpt>
<trkpt lat="45.8996760" lon="9.8341850">
	<ele>1733.20</ele>
	<time>2023-11-18T09:04:28.000Z</time>
</trkpt>
<trkpt lat="45.8996830" lon="9.8341870">
	<ele>1733.40</ele>
	<time>2023-11-18T09:04:29.000Z</time>
</trkpt>
<trkpt lat="45.8996900" lon="9.8341870">
	<ele>1733.60</ele>
	<time>2023-11-18T09:04:30.000Z</time>
</trkpt>
<trkpt lat="45.8996980" lon="9.8341810">
	<ele>1733.60</ele>
	<time>2023-11-18T09:04:31.000Z</time>
</trkpt>
<trkpt lat="45.8997080" lon="9.8341770">
	<ele>1734.00</ele>
	<time>2023-11-18T09:04:32.000Z</time>
</trkpt>
<trkpt lat="45.8997170" lon="9.8341760">
	<ele>1734.20</ele>
	<time>2023-11-18T09:04:33.000Z</time>
</trkpt>
<trkpt lat="45.8997230" lon="9.8341750">
	<ele>1734.40</ele>
	<time>2023-11-18T09:04:34.000Z</time>
</trkpt>
<trkpt lat="45.8997250" lon="9.8341750">
	<ele>1734.40</ele>
	<time>2023-11-18T09:04:35.000Z</time>
</trkpt>
<trkpt lat="45.8997260" lon="9.8341790">
	<ele>1734.40</ele>
	<time>2023-11-18T09:04:36.000Z</time>
</trkpt>
<trkpt lat="45.8997280" lon="9.8341830">
	<ele>1734.80</ele>
	<time>2023-11-18T09:04:37.000Z</time>
</trkpt>
<trkpt lat="45.8997320" lon="9.8341850">
	<ele>1735.00</ele>
	<time>2023-11-18T09:04:38.000Z</time>
</trkpt>
<trkpt lat="45.8997370" lon="9.8341850">
	<ele>1735.00</ele>
	<time>2023-11-18T09:04:39.000Z</time>
</trkpt>
<trkpt lat="45.8997450" lon="9.8341860">
	<ele>1735.20</ele>
	<time>2023-11-18T09:04:40.000Z</time>
</trkpt>
<trkpt lat="45.8997560" lon="9.8341830">
	<ele>1735.20</ele>
	<time>2023-11-18T09:04:41.000Z</time>
</trkpt>
<trkpt lat="45.8997650" lon="9.8341810">
	<ele>1735.60</ele>
	<time>2023-11-18T09:04:42.000Z</time>
</trkpt>
<trkpt lat="45.8997710" lon="9.8341790">
	<ele>1735.80</ele>
	<time>2023-11-18T09:04:43.000Z</time>
</trkpt>
<trkpt lat="45.8997780" lon="9.8341750">
	<ele>1736.00</ele>
	<time>2023-11-18T09:04:44.000Z</time>
</trkpt>
<trkpt lat="45.8997850" lon="9.8341790">
	<ele>1736.00</ele>
	<time>2023-11-18T09:04:45.000Z</time>
</trkpt>
<trkpt lat="45.8997930" lon="9.8341790">
	<ele>1736.40</ele>
	<time>2023-11-18T09:04:46.000Z</time>
</trkpt>
<trkpt lat="45.8998000" lon="9.8341830">
	<ele>1736.60</ele>
	<time>2023-11-18T09:04:47.000Z</time>
</trkpt>
<trkpt lat="45.8998040" lon="9.8341920">
	<ele>1736.60</ele>
	<time>2023-11-18T09:04:48.000Z</time>
</trkpt>
<trkpt lat="45.8998080" lon="9.8341990">
	<ele>1736.60</ele>
	<time>2023-11-18T09:04:49.000Z</time>
</trkpt>
<trkpt lat="45.8998110" lon="9.8342080">
	<ele>1736.60</ele>
	<time>2023-11-18T09:04:50.000Z</time>
</trkpt>
<trkpt lat="45.8998160" lon="9.8342160">
	<ele>1736.60</ele>
	<time>2023-11-18T09:04:51.000Z</time>
</trkpt>
<trkpt lat="45.8998230" lon="9.8342210">
	<ele>1736.60</ele>
	<time>2023-11-18T09:04:52.000Z</time>
</trkpt>
<trkpt lat="45.8998310" lon="9.8342260">
	<ele>1736.40</ele>
	<time>2023-11-18T09:04:53.000Z</time>
</trkpt>
<trkpt lat="45.8998440" lon="9.8342300">
	<ele>1736.20</ele>
	<time>2023-11-18T09:04:54.000Z</time>
</trkpt>
<trkpt lat="45.8998560" lon="9.8342350">
	<ele>1736.00</ele>
	<time>2023-11-18T09:04:55.000Z</time>
</trkpt>
<trkpt lat="45.8998700" lon="9.8342330">
	<ele>1735.80</ele>
	<time>2023-11-18T09:04:56.000Z</time>
</trkpt>
<trkpt lat="45.8998820" lon="9.8342290">
	<ele>1735.60</ele>
	<time>2023-11-18T09:04:57.000Z</time>
</trkpt>
<trkpt lat="45.8998920" lon="9.8342250">
	<ele>1735.40</ele>
	<time>2023-11-18T09:04:58.000Z</time>
</trkpt>
<trkpt lat="45.8999000" lon="9.8342220">
	<ele>1735.40</ele>
	<time>2023-11-18T09:04:59.000Z</time>
</trkpt>
<trkpt lat="45.8999050" lon="9.8342230">
	<ele>1735.40</ele>
	<time>2023-11-18T09:05:00.000Z</time>
</trkpt>
<trkpt lat="45.8999140" lon="9.8342270">
	<ele>1735.40</ele>
	<time>2023-11-18T09:05:01.000Z</time>
</trkpt>
<trkpt lat="45.8999260" lon="9.8342290">
	<ele>1735.40</ele>
	<time>2023-11-18T09:05:02.000Z</time>
</trkpt>
<trkpt lat="45.8999380" lon="9.8342320">
	<ele>1735.40</ele>
	<time>2023-11-18T09:05:03.000Z</time>
</trkpt>
<trkpt lat="45.8999500" lon="9.8342320">
	<ele>1735.00</ele>
	<time>2023-11-18T09:05:04.000Z</time>
</trkpt>
<trkpt lat="45.8999600" lon="9.8342330">
	<ele>1735.00</ele>
	<time>2023-11-18T09:05:05.000Z</time>
</trkpt>
<trkpt lat="45.8999700" lon="9.8342330">
	<ele>1734.80</ele>
	<time>2023-11-18T09:05:06.000Z</time>
</trkpt>
<trkpt lat="45.8999780" lon="9.8342290">
	<ele>1734.80</ele>
	<time>2023-11-18T09:05:07.000Z</time>
</trkpt>
<trkpt lat="45.8999860" lon="9.8342270">
	<ele>1734.80</ele>
	<time>2023-11-18T09:05:08.000Z</time>
</trkpt>
<trkpt lat="45.8999930" lon="9.8342260">
	<ele>1735.00</ele>
	<time>2023-11-18T09:05:09.000Z</time>
</trkpt>
<trkpt lat="45.9000030" lon="9.8342250">
	<ele>1735.40</ele>
	<time>2023-11-18T09:05:10.000Z</time>
</trkpt>
<trkpt lat="45.9000100" lon="9.8342250">
	<ele>1735.40</ele>
	<time>2023-11-18T09:05:11.000Z</time>
</trkpt>
<trkpt lat="45.9000190" lon="9.8342250">
	<ele>1735.60</ele>
	<time>2023-11-18T09:05:12.000Z</time>
</trkpt>
<trkpt lat="45.9000270" lon="9.8342240">
	<ele>1735.80</ele>
	<time>2023-11-18T09:05:13.000Z</time>
</trkpt>
<trkpt lat="45.9000380" lon="9.8342220">
	<ele>1736.00</ele>
	<time>2023-11-18T09:05:14.000Z</time>
</trkpt>
<trkpt lat="45.9000440" lon="9.8342200">
	<ele>1736.00</ele>
	<time>2023-11-18T09:05:15.000Z</time>
</trkpt>
<trkpt lat="45.9000510" lon="9.8342200">
	<ele>1736.00</ele>
	<time>2023-11-18T09:05:16.000Z</time>
</trkpt>
<trkpt lat="45.9000580" lon="9.8342200">
	<ele>1736.00</ele>
	<time>2023-11-18T09:05:17.000Z</time>
</trkpt>
<trkpt lat="45.9000650" lon="9.8342190">
	<ele>1736.00</ele>
	<time>2023-11-18T09:05:18.000Z</time>
</trkpt>
<trkpt lat="45.9000680" lon="9.8342170">
	<ele>1736.00</ele>
	<time>2023-11-18T09:05:19.000Z</time>
</trkpt>
<trkpt lat="45.9000690" lon="9.8342190">
	<ele>1736.20</ele>
	<time>2023-11-18T09:05:20.000Z</time>
</trkpt>
<trkpt lat="45.9000720" lon="9.8342210">
	<ele>1736.40</ele>
	<time>2023-11-18T09:05:21.000Z</time>
</trkpt>
<trkpt lat="45.9000800" lon="9.8342230">
	<ele>1736.60</ele>
	<time>2023-11-18T09:05:22.000Z</time>
</trkpt>
<trkpt lat="45.9000900" lon="9.8342180">
	<ele>1736.60</ele>
	<time>2023-11-18T09:05:23.000Z</time>
</trkpt>
<trkpt lat="45.9001000" lon="9.8342110">
	<ele>1736.60</ele>
	<time>2023-11-18T09:05:24.000Z</time>
</trkpt>
<trkpt lat="45.9001100" lon="9.8342080">
	<ele>1736.60</ele>
	<time>2023-11-18T09:05:25.000Z</time>
</trkpt>
<trkpt lat="45.9001220" lon="9.8342030">
	<ele>1736.60</ele>
	<time>2023-11-18T09:05:26.000Z</time>
</trkpt>
<trkpt lat="45.9001340" lon="9.8342040">
	<ele>1736.40</ele>
	<time>2023-11-18T09:05:27.000Z</time>
</trkpt>
<trkpt lat="45.9001440" lon="9.8342010">
	<ele>1736.40</ele>
	<time>2023-11-18T09:05:28.000Z</time>
</trkpt>
<trkpt lat="45.9001560" lon="9.8341970">
	<ele>1736.40</ele>
	<time>2023-11-18T09:05:29.000Z</time>
</trkpt>
<trkpt lat="45.9001640" lon="9.8341930">
	<ele>1736.40</ele>
	<time>2023-11-18T09:05:30.000Z</time>
</trkpt>
<trkpt lat="45.9001680" lon="9.8341900">
	<ele>1736.40</ele>
	<time>2023-11-18T09:05:31.000Z</time>
</trkpt>
<trkpt lat="45.9001760" lon="9.8341880">
	<ele>1736.40</ele>
	<time>2023-11-18T09:05:32.000Z</time>
</trkpt>
<trkpt lat="45.9001840" lon="9.8341860">
	<ele>1736.40</ele>
	<time>2023-11-18T09:05:33.000Z</time>
</trkpt>
<trkpt lat="45.9001940" lon="9.8341840">
	<ele>1736.40</ele>
	<time>2023-11-18T09:05:34.000Z</time>
</trkpt>
<trkpt lat="45.9002040" lon="9.8341780">
	<ele>1736.40</ele>
	<time>2023-11-18T09:05:35.000Z</time>
</trkpt>
<trkpt lat="45.9002140" lon="9.8341710">
	<ele>1736.40</ele>
	<time>2023-11-18T09:05:36.000Z</time>
</trkpt>
<trkpt lat="45.9002240" lon="9.8341650">
	<ele>1736.40</ele>
	<time>2023-11-18T09:05:37.000Z</time>
</trkpt>
<trkpt lat="45.9002340" lon="9.8341580">
	<ele>1736.40</ele>
	<time>2023-11-18T09:05:38.000Z</time>
</trkpt>
<trkpt lat="45.9002380" lon="9.8341580">
	<ele>1736.40</ele>
	<time>2023-11-18T09:05:39.000Z</time>
</trkpt>
<trkpt lat="45.9002430" lon="9.8341630">
	<ele>1736.60</ele>
	<time>2023-11-18T09:05:40.000Z</time>
</trkpt>
<trkpt lat="45.9002510" lon="9.8341700">
	<ele>1736.60</ele>
	<time>2023-11-18T09:05:41.000Z</time>
</trkpt>
<trkpt lat="45.9002590" lon="9.8341770">
	<ele>1736.60</ele>
	<time>2023-11-18T09:05:42.000Z</time>
</trkpt>
<trkpt lat="45.9002650" lon="9.8341880">
	<ele>1736.60</ele>
	<time>2023-11-18T09:05:43.000Z</time>
</trkpt>
<trkpt lat="45.9002740" lon="9.8341960">
	<ele>1736.60</ele>
	<time>2023-11-18T09:05:44.000Z</time>
</trkpt>
<trkpt lat="45.9002860" lon="9.8341960">
	<ele>1736.60</ele>
	<time>2023-11-18T09:05:45.000Z</time>
</trkpt>
<trkpt lat="45.9002970" lon="9.8341910">
	<ele>1736.60</ele>
	<time>2023-11-18T09:05:46.000Z</time>
</trkpt>
<trkpt lat="45.9003070" lon="9.8341870">
	<ele>1736.40</ele>
	<time>2023-11-18T09:05:47.000Z</time>
</trkpt>
<trkpt lat="45.9003160" lon="9.8341880">
	<ele>1736.40</ele>
	<time>2023-11-18T09:05:48.000Z</time>
</trkpt>
<trkpt lat="45.9003250" lon="9.8341890">
	<ele>1736.40</ele>
	<time>2023-11-18T09:05:49.000Z</time>
</trkpt>
<trkpt lat="45.9003320" lon="9.8341920">
	<ele>1736.40</ele>
	<time>2023-11-18T09:05:50.000Z</time>
</trkpt>
<trkpt lat="45.9003390" lon="9.8341930">
	<ele>1736.40</ele>
	<time>2023-11-18T09:05:51.000Z</time>
</trkpt>
<trkpt lat="45.9003490" lon="9.8341920">
	<ele>1736.40</ele>
	<time>2023-11-18T09:05:52.000Z</time>
</trkpt>
<trkpt lat="45.9003590" lon="9.8341950">
	<ele>1736.40</ele>
	<time>2023-11-18T09:05:53.000Z</time>
</trkpt>
<trkpt lat="45.9003690" lon="9.8341980">
	<ele>1736.40</ele>
	<time>2023-11-18T09:05:54.000Z</time>
</trkpt>
<trkpt lat="45.9003790" lon="9.8341990">
	<ele>1736.40</ele>
	<time>2023-11-18T09:05:55.000Z</time>
</trkpt>
<trkpt lat="45.9003870" lon="9.8342000">
	<ele>1736.40</ele>
	<time>2023-11-18T09:05:56.000Z</time>
</trkpt>
<trkpt lat="45.9003970" lon="9.8342030">
	<ele>1736.60</ele>
	<time>2023-11-18T09:05:57.000Z</time>
</trkpt>
<trkpt lat="45.9004060" lon="9.8342010">
	<ele>1736.60</ele>
	<time>2023-11-18T09:05:58.000Z</time>
</trkpt>
<trkpt lat="45.9004180" lon="9.8342030">
	<ele>1736.80</ele>
	<time>2023-11-18T09:05:59.000Z</time>
</trkpt>
<trkpt lat="45.9004250" lon="9.8342060">
	<ele>1736.80</ele>
	<time>2023-11-18T09:06:00.000Z</time>
</trkpt>
<trkpt lat="45.9004330" lon="9.8342100">
	<ele>1737.00</ele>
	<time>2023-11-18T09:06:01.000Z</time>
</trkpt>
<trkpt lat="45.9004420" lon="9.8342100">
	<ele>1737.00</ele>
	<time>2023-11-18T09:06:02.000Z</time>
</trkpt>
<trkpt lat="45.9004510" lon="9.8342070">
	<ele>1737.00</ele>
	<time>2023-11-18T09:06:03.000Z</time>
</trkpt>
<trkpt lat="45.9004560" lon="9.8342080">
	<ele>1737.20</ele>
	<time>2023-11-18T09:06:04.000Z</time>
</trkpt>
<trkpt lat="45.9004610" lon="9.8342100">
	<ele>1737.40</ele>
	<time>2023-11-18T09:06:05.000Z</time>
</trkpt>
<trkpt lat="45.9004700" lon="9.8342140">
	<ele>1737.40</ele>
	<time>2023-11-18T09:06:06.000Z</time>
</trkpt>
<trkpt lat="45.9004750" lon="9.8342240">
	<ele>1737.60</ele>
	<time>2023-11-18T09:06:07.000Z</time>
</trkpt>
<trkpt lat="45.9004830" lon="9.8342310">
	<ele>1737.60</ele>
	<time>2023-11-18T09:06:08.000Z</time>
</trkpt>
<trkpt lat="45.9004940" lon="9.8342370">
	<ele>1737.80</ele>
	<time>2023-11-18T09:06:09.000Z</time>
</trkpt>
<trkpt lat="45.9005020" lon="9.8342370">
	<ele>1737.80</ele>
	<time>2023-11-18T09:06:10.000Z</time>
</trkpt>
<trkpt lat="45.9005130" lon="9.8342370">
	<ele>1738.00</ele>
	<time>2023-11-18T09:06:11.000Z</time>
</trkpt>
<trkpt lat="45.9005220" lon="9.8342400">
	<ele>1738.00</ele>
	<time>2023-11-18T09:06:12.000Z</time>
</trkpt>
<trkpt lat="45.9005300" lon="9.8342400">
	<ele>1738.20</ele>
	<time>2023-11-18T09:06:13.000Z</time>
</trkpt>
<trkpt lat="45.9005350" lon="9.8342430">
	<ele>1738.20</ele>
	<time>2023-11-18T09:06:14.000Z</time>
</trkpt>
<trkpt lat="45.9005430" lon="9.8342440">
	<ele>1738.20</ele>
	<time>2023-11-18T09:06:15.000Z</time>
</trkpt>
<trkpt lat="45.9005470" lon="9.8342480">
	<ele>1738.40</ele>
	<time>2023-11-18T09:06:16.000Z</time>
</trkpt>
<trkpt lat="45.9005550" lon="9.8342480">
	<ele>1738.60</ele>
	<time>2023-11-18T09:06:17.000Z</time>
</trkpt>
<trkpt lat="45.9005610" lon="9.8342480">
	<ele>1738.60</ele>
	<time>2023-11-18T09:06:18.000Z</time>
</trkpt>
<trkpt lat="45.9005640" lon="9.8342500">
	<ele>1738.80</ele>
	<time>2023-11-18T09:06:19.000Z</time>
</trkpt>
<trkpt lat="45.9005690" lon="9.8342510">
	<ele>1739.00</ele>
	<time>2023-11-18T09:06:20.000Z</time>
</trkpt>
<trkpt lat="45.9005750" lon="9.8342540">
	<ele>1739.20</ele>
	<time>2023-11-18T09:06:21.000Z</time>
</trkpt>
<trkpt lat="45.9005840" lon="9.8342600">
	<ele>1739.40</ele>
	<time>2023-11-18T09:06:22.000Z</time>
</trkpt>
<trkpt lat="45.9005920" lon="9.8342630">
	<ele>1739.60</ele>
	<time>2023-11-18T09:06:23.000Z</time>
</trkpt>
<trkpt lat="45.9005960" lon="9.8342670">
	<ele>1739.80</ele>
	<time>2023-11-18T09:06:24.000Z</time>
</trkpt>
<trkpt lat="45.9006000" lon="9.8342720">
	<ele>1740.00</ele>
	<time>2023-11-18T09:06:25.000Z</time>
</trkpt>
<trkpt lat="45.9006030" lon="9.8342760">
	<ele>1740.20</ele>
	<time>2023-11-18T09:06:26.000Z</time>
</trkpt>
<trkpt lat="45.9006060" lon="9.8342800">
	<ele>1740.40</ele>
	<time>2023-11-18T09:06:27.000Z</time>
</trkpt>
<trkpt lat="45.9006090" lon="9.8342890">
	<ele>1740.40</ele>
	<time>2023-11-18T09:06:28.000Z</time>
</trkpt>
<trkpt lat="45.9006150" lon="9.8342940">
	<ele>1740.60</ele>
	<time>2023-11-18T09:06:29.000Z</time>
</trkpt>
<trkpt lat="45.9006200" lon="9.8342990">
	<ele>1740.60</ele>
	<time>2023-11-18T09:06:30.000Z</time>
</trkpt>
<trkpt lat="45.9006220" lon="9.8343020">
	<ele>1741.20</ele>
	<time>2023-11-18T09:06:31.000Z</time>
</trkpt>
<trkpt lat="45.9006240" lon="9.8343020">
	<ele>1741.40</ele>
	<time>2023-11-18T09:06:32.000Z</time>
</trkpt>
<trkpt lat="45.9006260" lon="9.8343070">
	<ele>1741.60</ele>
	<time>2023-11-18T09:06:33.000Z</time>
</trkpt>
<trkpt lat="45.9006260" lon="9.8343130">
	<ele>1741.60</ele>
	<time>2023-11-18T09:06:34.000Z</time>
</trkpt>
<trkpt lat="45.9006290" lon="9.8343230">
	<ele>1741.80</ele>
	<time>2023-11-18T09:06:35.000Z</time>
</trkpt>
<trkpt lat="45.9006320" lon="9.8343300">
	<ele>1741.80</ele>
	<time>2023-11-18T09:06:36.000Z</time>
</trkpt>
<trkpt lat="45.9006360" lon="9.8343340">
	<ele>1742.00</ele>
	<time>2023-11-18T09:06:37.000Z</time>
</trkpt>
<trkpt lat="45.9006420" lon="9.8343360">
	<ele>1742.00</ele>
	<time>2023-11-18T09:06:38.000Z</time>
</trkpt>
<trkpt lat="45.9006480" lon="9.8343400">
	<ele>1742.40</ele>
	<time>2023-11-18T09:06:39.000Z</time>
</trkpt>
<trkpt lat="45.9006520" lon="9.8343460">
	<ele>1742.60</ele>
	<time>2023-11-18T09:06:40.000Z</time>
</trkpt>
<trkpt lat="45.9006590" lon="9.8343500">
	<ele>1743.00</ele>
	<time>2023-11-18T09:06:41.000Z</time>
</trkpt>
<trkpt lat="45.9006690" lon="9.8343530">
	<ele>1743.20</ele>
	<time>2023-11-18T09:06:42.000Z</time>
</trkpt>
<trkpt lat="45.9006760" lon="9.8343580">
	<ele>1743.40</ele>
	<time>2023-11-18T09:06:43.000Z</time>
</trkpt>
<trkpt lat="45.9006830" lon="9.8343620">
	<ele>1743.40</ele>
	<time>2023-11-18T09:06:44.000Z</time>
</trkpt>
<trkpt lat="45.9006920" lon="9.8343620">
	<ele>1743.60</ele>
	<time>2023-11-18T09:06:45.000Z</time>
</trkpt>
<trkpt lat="45.9006990" lon="9.8343620">
	<ele>1743.60</ele>
	<time>2023-11-18T09:06:46.000Z</time>
</trkpt>
<trkpt lat="45.9007070" lon="9.8343610">
	<ele>1743.60</ele>
	<time>2023-11-18T09:06:47.000Z</time>
</trkpt>
<trkpt lat="45.9007140" lon="9.8343650">
	<ele>1743.60</ele>
	<time>2023-11-18T09:06:48.000Z</time>
</trkpt>
<trkpt lat="45.9007240" lon="9.8343690">
	<ele>1743.60</ele>
	<time>2023-11-18T09:06:49.000Z</time>
</trkpt>
<trkpt lat="45.9007350" lon="9.8343710">
	<ele>1743.80</ele>
	<time>2023-11-18T09:06:50.000Z</time>
</trkpt>
<trkpt lat="45.9007420" lon="9.8343690">
	<ele>1743.80</ele>
	<time>2023-11-18T09:06:51.000Z</time>
</trkpt>
<trkpt lat="45.9007470" lon="9.8343670">
	<ele>1744.20</ele>
	<time>2023-11-18T09:06:52.000Z</time>
</trkpt>
<trkpt lat="45.9007540" lon="9.8343690">
	<ele>1744.40</ele>
	<time>2023-11-18T09:06:53.000Z</time>
</trkpt>
<trkpt lat="45.9007600" lon="9.8343710">
	<ele>1744.60</ele>
	<time>2023-11-18T09:06:54.000Z</time>
</trkpt>
<trkpt lat="45.9007650" lon="9.8343730">
	<ele>1744.60</ele>
	<time>2023-11-18T09:06:55.000Z</time>
</trkpt>
<trkpt lat="45.9007720" lon="9.8343760">
	<ele>1744.80</ele>
	<time>2023-11-18T09:06:56.000Z</time>
</trkpt>
<trkpt lat="45.9007830" lon="9.8343730">
	<ele>1744.80</ele>
	<time>2023-11-18T09:06:57.000Z</time>
</trkpt>
<trkpt lat="45.9007940" lon="9.8343720">
	<ele>1744.80</ele>
	<time>2023-11-18T09:06:58.000Z</time>
</trkpt>
<trkpt lat="45.9008020" lon="9.8343760">
	<ele>1745.00</ele>
	<time>2023-11-18T09:06:59.000Z</time>
</trkpt>
<trkpt lat="45.9008100" lon="9.8343810">
	<ele>1745.00</ele>
	<time>2023-11-18T09:07:00.000Z</time>
</trkpt>
<trkpt lat="45.9008180" lon="9.8343820">
	<ele>1745.00</ele>
	<time>2023-11-18T09:07:01.000Z</time>
</trkpt>
<trkpt lat="45.9008230" lon="9.8343800">
	<ele>1745.00</ele>
	<time>2023-11-18T09:07:02.000Z</time>
</trkpt>
<trkpt lat="45.9008260" lon="9.8343790">
	<ele>1745.00</ele>
	<time>2023-11-18T09:07:03.000Z</time>
</trkpt>
<trkpt lat="45.9008330" lon="9.8343790">
	<ele>1745.20</ele>
	<time>2023-11-18T09:07:04.000Z</time>
</trkpt>
<trkpt lat="45.9008400" lon="9.8343750">
	<ele>1745.20</ele>
	<time>2023-11-18T09:07:05.000Z</time>
</trkpt>
<trkpt lat="45.9008430" lon="9.8343760">
	<ele>1745.20</ele>
	<time>2023-11-18T09:07:06.000Z</time>
</trkpt>
<trkpt lat="45.9008450" lon="9.8343730">
	<ele>1745.60</ele>
	<time>2023-11-18T09:07:07.000Z</time>
</trkpt>
<trkpt lat="45.9008440" lon="9.8343680">
	<ele>1745.80</ele>
	<time>2023-11-18T09:07:08.000Z</time>
</trkpt>
<trkpt lat="45.9008470" lon="9.8343640">
	<ele>1745.80</ele>
	<time>2023-11-18T09:07:09.000Z</time>
</trkpt>
<trkpt lat="45.9008510" lon="9.8343580">
	<ele>1746.00</ele>
	<time>2023-11-18T09:07:10.000Z</time>
</trkpt>
<trkpt lat="45.9008570" lon="9.8343540">
	<ele>1746.00</ele>
	<time>2023-11-18T09:07:11.000Z</time>
</trkpt>
<trkpt lat="45.9008610" lon="9.8343520">
	<ele>1746.20</ele>
	<time>2023-11-18T09:07:12.000Z</time>
</trkpt>
<trkpt lat="45.9008630" lon="9.8343490">
	<ele>1746.60</ele>
	<time>2023-11-18T09:07:13.000Z</time>
</trkpt>
<trkpt lat="45.9008690" lon="9.8343480">
	<ele>1746.60</ele>
	<time>2023-11-18T09:07:14.000Z</time>
</trkpt>
<trkpt lat="45.9008760" lon="9.8343500">
	<ele>1746.80</ele>
	<time>2023-11-18T09:07:15.000Z</time>
</trkpt>
<trkpt lat="45.9008840" lon="9.8343510">
	<ele>1747.00</ele>
	<time>2023-11-18T09:07:16.000Z</time>
</trkpt>
<trkpt lat="45.9008910" lon="9.8343480">
	<ele>1747.00</ele>
	<time>2023-11-18T09:07:17.000Z</time>
</trkpt>
<trkpt lat="45.9008970" lon="9.8343430">
	<ele>1747.20</ele>
	<time>2023-11-18T09:07:18.000Z</time>
</trkpt>
<trkpt lat="45.9009010" lon="9.8343410">
	<ele>1747.20</ele>
	<time>2023-11-18T09:07:19.000Z</time>
</trkpt>
<trkpt lat="45.9009040" lon="9.8343380">
	<ele>1747.40</ele>
	<time>2023-11-18T09:07:20.000Z</time>
</trkpt>
<trkpt lat="45.9009060" lon="9.8343430">
	<ele>1747.60</ele>
	<time>2023-11-18T09:07:21.000Z</time>
</trkpt>
<trkpt lat="45.9009090" lon="9.8343510">
	<ele>1747.80</ele>
	<time>2023-11-18T09:07:22.000Z</time>
</trkpt>
<trkpt lat="45.9009120" lon="9.8343600">
	<ele>1747.80</ele>
	<time>2023-11-18T09:07:23.000Z</time>
</trkpt>
<trkpt lat="45.9009160" lon="9.8343690">
	<ele>1748.00</ele>
	<time>2023-11-18T09:07:24.000Z</time>
</trkpt>
<trkpt lat="45.9009200" lon="9.8343750">
	<ele>1748.00</ele>
	<time>2023-11-18T09:07:25.000Z</time>
</trkpt>
<trkpt lat="45.9009270" lon="9.8343790">
	<ele>1748.20</ele>
	<time>2023-11-18T09:07:26.000Z</time>
</trkpt>
<trkpt lat="45.9009340" lon="9.8343820">
	<ele>1748.40</ele>
	<time>2023-11-18T09:07:27.000Z</time>
</trkpt>
<trkpt lat="45.9009410" lon="9.8343840">
	<ele>1748.60</ele>
	<time>2023-11-18T09:07:28.000Z</time>
</trkpt>
<trkpt lat="45.9009490" lon="9.8343820">
	<ele>1748.80</ele>
	<time>2023-11-18T09:07:29.000Z</time>
</trkpt>
<trkpt lat="45.9009540" lon="9.8343840">
	<ele>1749.00</ele>
	<time>2023-11-18T09:07:30.000Z</time>
</trkpt>
<trkpt lat="45.9009560" lon="9.8343920">
	<ele>1749.20</ele>
	<time>2023-11-18T09:07:31.000Z</time>
</trkpt>
<trkpt lat="45.9009560" lon="9.8344000">
	<ele>1749.40</ele>
	<time>2023-11-18T09:07:32.000Z</time>
</trkpt>
<trkpt lat="45.9009580" lon="9.8344090">
	<ele>1749.40</ele>
	<time>2023-11-18T09:07:33.000Z</time>
</trkpt>
<trkpt lat="45.9009610" lon="9.8344170">
	<ele>1749.60</ele>
	<time>2023-11-18T09:07:34.000Z</time>
</trkpt>
<trkpt lat="45.9009640" lon="9.8344240">
	<ele>1749.60</ele>
	<time>2023-11-18T09:07:35.000Z</time>
</trkpt>
<trkpt lat="45.9009680" lon="9.8344280">
	<ele>1749.60</ele>
	<time>2023-11-18T09:07:36.000Z</time>
</trkpt>
<trkpt lat="45.9009730" lon="9.8344340">
	<ele>1750.00</ele>
	<time>2023-11-18T09:07:37.000Z</time>
</trkpt>
<trkpt lat="45.9009780" lon="9.8344380">
	<ele>1750.00</ele>
	<time>2023-11-18T09:07:38.000Z</time>
</trkpt>
<trkpt lat="45.9009820" lon="9.8344390">
	<ele>1750.20</ele>
	<time>2023-11-18T09:07:39.000Z</time>
</trkpt>
<trkpt lat="45.9009870" lon="9.8344380">
	<ele>1750.40</ele>
	<time>2023-11-18T09:07:40.000Z</time>
</trkpt>
<trkpt lat="45.9009910" lon="9.8344420">
	<ele>1750.40</ele>
	<time>2023-11-18T09:07:41.000Z</time>
</trkpt>
<trkpt lat="45.9009940" lon="9.8344480">
	<ele>1750.60</ele>
	<time>2023-11-18T09:07:42.000Z</time>
</trkpt>
<trkpt lat="45.9009990" lon="9.8344550">
	<ele>1750.60</ele>
	<time>2023-11-18T09:07:43.000Z</time>
</trkpt>
<trkpt lat="45.9010090" lon="9.8344590">
	<ele>1750.80</ele>
	<time>2023-11-18T09:07:44.000Z</time>
</trkpt>
<trkpt lat="45.9010150" lon="9.8344630">
	<ele>1750.80</ele>
	<time>2023-11-18T09:07:45.000Z</time>
</trkpt>
<trkpt lat="45.9010220" lon="9.8344630">
	<ele>1751.20</ele>
	<time>2023-11-18T09:07:46.000Z</time>
</trkpt>
<trkpt lat="45.9010280" lon="9.8344630">
	<ele>1751.40</ele>
	<time>2023-11-18T09:07:47.000Z</time>
</trkpt>
<trkpt lat="45.9010340" lon="9.8344670">
	<ele>1751.40</ele>
	<time>2023-11-18T09:07:48.000Z</time>
</trkpt>
<trkpt lat="45.9010380" lon="9.8344700">
	<ele>1751.60</ele>
	<time>2023-11-18T09:07:49.000Z</time>
</trkpt>
<trkpt lat="45.9010430" lon="9.8344760">
	<ele>1751.60</ele>
	<time>2023-11-18T09:07:50.000Z</time>
</trkpt>
<trkpt lat="45.9010480" lon="9.8344840">
	<ele>1751.80</ele>
	<time>2023-11-18T09:07:51.000Z</time>
</trkpt>
<trkpt lat="45.9010510" lon="9.8344920">
	<ele>1752.00</ele>
	<time>2023-11-18T09:07:52.000Z</time>
</trkpt>
<trkpt lat="45.9010530" lon="9.8344970">
	<ele>1752.40</ele>
	<time>2023-11-18T09:07:53.000Z</time>
</trkpt>
<trkpt lat="45.9010560" lon="9.8345040">
	<ele>1752.60</ele>
	<time>2023-11-18T09:07:54.000Z</time>
</trkpt>
<trkpt lat="45.9010600" lon="9.8345070">
	<ele>1752.80</ele>
	<time>2023-11-18T09:07:55.000Z</time>
</trkpt>
<trkpt lat="45.9010630" lon="9.8345120">
	<ele>1753.00</ele>
	<time>2023-11-18T09:07:56.000Z</time>
</trkpt>
<trkpt lat="45.9010670" lon="9.8345160">
	<ele>1753.00</ele>
	<time>2023-11-18T09:07:57.000Z</time>
</trkpt>
<trkpt lat="45.9010700" lon="9.8345210">
	<ele>1753.20</ele>
	<time>2023-11-18T09:07:58.000Z</time>
</trkpt>
<trkpt lat="45.9010720" lon="9.8345260">
	<ele>1753.40</ele>
	<time>2023-11-18T09:07:59.000Z</time>
</trkpt>
<trkpt lat="45.9010750" lon="9.8345330">
	<ele>1753.60</ele>
	<time>2023-11-18T09:08:00.000Z</time>
</trkpt>
<trkpt lat="45.9010750" lon="9.8345390">
	<ele>1753.80</ele>
	<time>2023-11-18T09:08:01.000Z</time>
</trkpt>
<trkpt lat="45.9010750" lon="9.8345430">
	<ele>1753.80</ele>
	<time>2023-11-18T09:08:02.000Z</time>
</trkpt>
<trkpt lat="45.9010770" lon="9.8345470">
	<ele>1754.00</ele>
	<time>2023-11-18T09:08:03.000Z</time>
</trkpt>
<trkpt lat="45.9010790" lon="9.8345530">
	<ele>1754.00</ele>
	<time>2023-11-18T09:08:04.000Z</time>
</trkpt>
<trkpt lat="45.9010850" lon="9.8345610">
	<ele>1754.00</ele>
	<time>2023-11-18T09:08:05.000Z</time>
</trkpt>
<trkpt lat="45.9010900" lon="9.8345710">
	<ele>1754.20</ele>
	<time>2023-11-18T09:08:06.000Z</time>
</trkpt>
<trkpt lat="45.9010940" lon="9.8345820">
	<ele>1754.20</ele>
	<time>2023-11-18T09:08:07.000Z</time>
</trkpt>
<trkpt lat="45.9011000" lon="9.8345910">
	<ele>1754.40</ele>
	<time>2023-11-18T09:08:08.000Z</time>
</trkpt>
<trkpt lat="45.9011060" lon="9.8345960">
	<ele>1754.60</ele>
	<time>2023-11-18T09:08:09.000Z</time>
</trkpt>
<trkpt lat="45.9011120" lon="9.8346000">
	<ele>1754.60</ele>
	<time>2023-11-18T09:08:10.000Z</time>
</trkpt>
<trkpt lat="45.9011170" lon="9.8346100">
	<ele>1754.80</ele>
	<time>2023-11-18T09:08:11.000Z</time>
</trkpt>
<trkpt lat="45.9011210" lon="9.8346180">
	<ele>1754.80</ele>
	<time>2023-11-18T09:08:12.000Z</time>
</trkpt>
<trkpt lat="45.9011240" lon="9.8346260">
	<ele>1755.00</ele>
	<time>2023-11-18T09:08:13.000Z</time>
</trkpt>
<trkpt lat="45.9011250" lon="9.8346360">
	<ele>1755.20</ele>
	<time>2023-11-18T09:08:14.000Z</time>
</trkpt>
<trkpt lat="45.9011240" lon="9.8346470">
	<ele>1755.20</ele>
	<time>2023-11-18T09:08:15.000Z</time>
</trkpt>
<trkpt lat="45.9011250" lon="9.8346610">
	<ele>1755.20</ele>
	<time>2023-11-18T09:08:16.000Z</time>
</trkpt>
<trkpt lat="45.9011290" lon="9.8346710">
	<ele>1755.20</ele>
	<time>2023-11-18T09:08:17.000Z</time>
</trkpt>
<trkpt lat="45.9011330" lon="9.8346810">
	<ele>1755.20</ele>
	<time>2023-11-18T09:08:18.000Z</time>
</trkpt>
<trkpt lat="45.9011360" lon="9.8346880">
	<ele>1755.20</ele>
	<time>2023-11-18T09:08:19.000Z</time>
</trkpt>
<trkpt lat="45.9011350" lon="9.8347000">
	<ele>1755.40</ele>
	<time>2023-11-18T09:08:20.000Z</time>
</trkpt>
<trkpt lat="45.9011350" lon="9.8347120">
	<ele>1755.60</ele>
	<time>2023-11-18T09:08:21.000Z</time>
</trkpt>
<trkpt lat="45.9011370" lon="9.8347230">
	<ele>1755.80</ele>
	<time>2023-11-18T09:08:22.000Z</time>
</trkpt>
<trkpt lat="45.9011380" lon="9.8347320">
	<ele>1755.80</ele>
	<time>2023-11-18T09:08:23.000Z</time>
</trkpt>
<trkpt lat="45.9011410" lon="9.8347440">
	<ele>1756.00</ele>
	<time>2023-11-18T09:08:24.000Z</time>
</trkpt>
<trkpt lat="45.9011430" lon="9.8347520">
	<ele>1756.00</ele>
	<time>2023-11-18T09:08:25.000Z</time>
</trkpt>
<trkpt lat="45.9011440" lon="9.8347580">
	<ele>1756.00</ele>
	<time>2023-11-18T09:08:26.000Z</time>
</trkpt>
<trkpt lat="45.9011450" lon="9.8347680">
	<ele>1756.00</ele>
	<time>2023-11-18T09:08:27.000Z</time>
</trkpt>
<trkpt lat="45.9011450" lon="9.8347830">
	<ele>1756.00</ele>
	<time>2023-11-18T09:08:28.000Z</time>
</trkpt>
<trkpt lat="45.9011480" lon="9.8347990">
	<ele>1755.80</ele>
	<time>2023-11-18T09:08:29.000Z</time>
</trkpt>
<trkpt lat="45.9011480" lon="9.8348130">
	<ele>1755.60</ele>
	<time>2023-11-18T09:08:30.000Z</time>
</trkpt>
<trkpt lat="45.9011480" lon="9.8348280">
	<ele>1755.40</ele>
	<time>2023-11-18T09:08:31.000Z</time>
</trkpt>
<trkpt lat="45.9011500" lon="9.8348420">
	<ele>1755.20</ele>
	<time>2023-11-18T09:08:32.000Z</time>
</trkpt>
<trkpt lat="45.9011530" lon="9.8348550">
	<ele>1754.80</ele>
	<time>2023-11-18T09:08:33.000Z</time>
</trkpt>
<trkpt lat="45.9011580" lon="9.8348650">
	<ele>1754.80</ele>
	<time>2023-11-18T09:08:34.000Z</time>
</trkpt>
<trkpt lat="45.9011580" lon="9.8348750">
	<ele>1754.60</ele>
	<time>2023-11-18T09:08:35.000Z</time>
</trkpt>
<trkpt lat="45.9011600" lon="9.8348790">
	<ele>1754.60</ele>
	<time>2023-11-18T09:08:36.000Z</time>
</trkpt>
<trkpt lat="45.9011600" lon="9.8348770">
	<ele>1754.40</ele>
	<time>2023-11-18T09:08:37.000Z</time>
</trkpt>
<trkpt lat="45.9011560" lon="9.8348780">
	<ele>1754.40</ele>
	<time>2023-11-18T09:08:38.000Z</time>
</trkpt>
<trkpt lat="45.9011570" lon="9.8348780">
	<ele>1754.40</ele>
	<time>2023-11-18T09:08:39.000Z</time>
</trkpt>
<trkpt lat="45.9011570" lon="9.8348780">
	<ele>1754.20</ele>
	<time>2023-11-18T09:08:40.000Z</time>
</trkpt>
<trkpt lat="45.9011590" lon="9.8348780">
	<ele>1754.20</ele>
	<time>2023-11-18T09:08:41.000Z</time>
</trkpt>
<trkpt lat="45.9011620" lon="9.8348770">
	<ele>1754.20</ele>
	<time>2023-11-18T09:08:42.000Z</time>
</trkpt>
<trkpt lat="45.9011630" lon="9.8348760">
	<ele>1754.40</ele>
	<time>2023-11-18T09:08:43.000Z</time>
</trkpt>
<trkpt lat="45.9011620" lon="9.8348770">
	<ele>1754.60</ele>
	<time>2023-11-18T09:08:44.000Z</time>
</trkpt>
<trkpt lat="45.9011610" lon="9.8348790">
	<ele>1754.80</ele>
	<time>2023-11-18T09:08:45.000Z</time>
</trkpt>
<trkpt lat="45.9011580" lon="9.8348800">
	<ele>1754.80</ele>
	<time>2023-11-18T09:08:46.000Z</time>
</trkpt>
<trkpt lat="45.9011550" lon="9.8348810">
	<ele>1755.00</ele>
	<time>2023-11-18T09:08:47.000Z</time>
</trkpt>
<trkpt lat="45.9011560" lon="9.8348820">
	<ele>1755.00</ele>
	<time>2023-11-18T09:08:48.000Z</time>
</trkpt>
<trkpt lat="45.9011600" lon="9.8348890">
	<ele>1755.00</ele>
	<time>2023-11-18T09:08:49.000Z</time>
</trkpt>
<trkpt lat="45.9011650" lon="9.8349010">
	<ele>1754.80</ele>
	<time>2023-11-18T09:08:50.000Z</time>
</trkpt>
<trkpt lat="45.9011700" lon="9.8349110">
	<ele>1754.60</ele>
	<time>2023-11-18T09:08:51.000Z</time>
</trkpt>
<trkpt lat="45.9011760" lon="9.8349220">
	<ele>1754.60</ele>
	<time>2023-11-18T09:08:52.000Z</time>
</trkpt>
<trkpt lat="45.9011810" lon="9.8349310">
	<ele>1754.40</ele>
	<time>2023-11-18T09:08:53.000Z</time>
</trkpt>
<trkpt lat="45.9011860" lon="9.8349390">
	<ele>1754.40</ele>
	<time>2023-11-18T09:08:54.000Z</time>
</trkpt>
<trkpt lat="45.9011900" lon="9.8349450">
	<ele>1754.60</ele>
	<time>2023-11-18T09:08:55.000Z</time>
</trkpt>
<trkpt lat="45.9011900" lon="9.8349480">
	<ele>1754.60</ele>
	<time>2023-11-18T09:08:56.000Z</time>
</trkpt>
<trkpt lat="45.9011920" lon="9.8349530">
	<ele>1754.60</ele>
	<time>2023-11-18T09:08:57.000Z</time>
</trkpt>
<trkpt lat="45.9011940" lon="9.8349600">
	<ele>1754.60</ele>
	<time>2023-11-18T09:08:58.000Z</time>
</trkpt>
<trkpt lat="45.9011970" lon="9.8349710">
	<ele>1754.60</ele>
	<time>2023-11-18T09:08:59.000Z</time>
</trkpt>
<trkpt lat="45.9012020" lon="9.8349820">
	<ele>1754.40</ele>
	<time>2023-11-18T09:09:00.000Z</time>
</trkpt>
<trkpt lat="45.9012050" lon="9.8349890">
	<ele>1754.40</ele>
	<time>2023-11-18T09:09:01.000Z</time>
</trkpt>
<trkpt lat="45.9012050" lon="9.8350010">
	<ele>1754.40</ele>
	<time>2023-11-18T09:09:02.000Z</time>
</trkpt>
<trkpt lat="45.9012060" lon="9.8350080">
	<ele>1754.40</ele>
	<time>2023-11-18T09:09:03.000Z</time>
</trkpt>
<trkpt lat="45.9012050" lon="9.8350140">
	<ele>1754.40</ele>
	<time>2023-11-18T09:09:04.000Z</time>
</trkpt>
<trkpt lat="45.9012050" lon="9.8350190">
	<ele>1754.40</ele>
	<time>2023-11-18T09:09:05.000Z</time>
</trkpt>
<trkpt lat="45.9012050" lon="9.8350230">
	<ele>1754.40</ele>
	<time>2023-11-18T09:09:06.000Z</time>
</trkpt>
<trkpt lat="45.9012060" lon="9.8350230">
	<ele>1754.40</ele>
	<time>2023-11-18T09:09:07.000Z</time>
</trkpt>
<trkpt lat="45.9012070" lon="9.8350220">
	<ele>1754.40</ele>
	<time>2023-11-18T09:09:08.000Z</time>
</trkpt>
<trkpt lat="45.9012090" lon="9.8350220">
	<ele>1754.40</ele>
	<time>2023-11-18T09:09:09.000Z</time>
</trkpt>
<trkpt lat="45.9012120" lon="9.8350280">
	<ele>1754.40</ele>
	<time>2023-11-18T09:09:10.000Z</time>
</trkpt>
<trkpt lat="45.9012180" lon="9.8350350">
	<ele>1754.40</ele>
	<time>2023-11-18T09:09:11.000Z</time>
</trkpt>
<trkpt lat="45.9012220" lon="9.8350410">
	<ele>1754.60</ele>
	<time>2023-11-18T09:09:12.000Z</time>
</trkpt>
<trkpt lat="45.9012280" lon="9.8350480">
	<ele>1754.60</ele>
	<time>2023-11-18T09:09:13.000Z</time>
</trkpt>
<trkpt lat="45.9012350" lon="9.8350540">
	<ele>1754.60</ele>
	<time>2023-11-18T09:09:14.000Z</time>
</trkpt>
<trkpt lat="45.9012390" lon="9.8350520">
	<ele>1754.80</ele>
	<time>2023-11-18T09:09:15.000Z</time>
</trkpt>
<trkpt lat="45.9012470" lon="9.8350480">
	<ele>1754.80</ele>
	<time>2023-11-18T09:09:16.000Z</time>
</trkpt>
<trkpt lat="45.9012540" lon="9.8350430">
	<ele>1754.80</ele>
	<time>2023-11-18T09:09:17.000Z</time>
</trkpt>
<trkpt lat="45.9012600" lon="9.8350390">
	<ele>1754.80</ele>
	<time>2023-11-18T09:09:18.000Z</time>
</trkpt>
<trkpt lat="45.9012660" lon="9.8350310">
	<ele>1755.00</ele>
	<time>2023-11-18T09:09:19.000Z</time>
</trkpt>
<trkpt lat="45.9012720" lon="9.8350240">
	<ele>1755.00</ele>
	<time>2023-11-18T09:09:20.000Z</time>
</trkpt>
<trkpt lat="45.9012810" lon="9.8350160">
	<ele>1755.00</ele>
	<time>2023-11-18T09:09:21.000Z</time>
</trkpt>
<trkpt lat="45.9012890" lon="9.8350100">
	<ele>1755.00</ele>
	<time>2023-11-18T09:09:22.000Z</time>
</trkpt>
<trkpt lat="45.9012930" lon="9.8350020">
	<ele>1755.00</ele>
	<time>2023-11-18T09:09:23.000Z</time>
</trkpt>
<trkpt lat="45.9012990" lon="9.8349950">
	<ele>1755.20</ele>
	<time>2023-11-18T09:09:24.000Z</time>
</trkpt>
<trkpt lat="45.9013010" lon="9.8349880">
	<ele>1755.40</ele>
	<time>2023-11-18T09:09:25.000Z</time>
</trkpt>
<trkpt lat="45.9013020" lon="9.8349860">
	<ele>1755.60</ele>
	<time>2023-11-18T09:09:26.000Z</time>
</trkpt>
<trkpt lat="45.9013040" lon="9.8349840">
	<ele>1755.80</ele>
	<time>2023-11-18T09:09:27.000Z</time>
</trkpt>
<trkpt lat="45.9013050" lon="9.8349820">
	<ele>1756.00</ele>
	<time>2023-11-18T09:09:28.000Z</time>
</trkpt>
<trkpt lat="45.9013070" lon="9.8349830">
	<ele>1756.20</ele>
	<time>2023-11-18T09:09:29.000Z</time>
</trkpt>
<trkpt lat="45.9013100" lon="9.8349830">
	<ele>1756.20</ele>
	<time>2023-11-18T09:09:30.000Z</time>
</trkpt>
<trkpt lat="45.9013100" lon="9.8349820">
	<ele>1756.40</ele>
	<time>2023-11-18T09:09:31.000Z</time>
</trkpt>
<trkpt lat="45.9013110" lon="9.8349810">
	<ele>1756.60</ele>
	<time>2023-11-18T09:09:32.000Z</time>
</trkpt>
<trkpt lat="45.9013110" lon="9.8349820">
	<ele>1756.60</ele>
	<time>2023-11-18T09:09:33.000Z</time>
</trkpt>
<trkpt lat="45.9013110" lon="9.8349830">
	<ele>1756.60</ele>
	<time>2023-11-18T09:09:34.000Z</time>
</trkpt>
<trkpt lat="45.9013120" lon="9.8349850">
	<ele>1756.60</ele>
	<time>2023-11-18T09:09:35.000Z</time>
</trkpt>
<trkpt lat="45.9013140" lon="9.8349860">
	<ele>1756.40</ele>
	<time>2023-11-18T09:09:36.000Z</time>
</trkpt>
<trkpt lat="45.9013180" lon="9.8349850">
	<ele>1756.20</ele>
	<time>2023-11-18T09:09:37.000Z</time>
</trkpt>
<trkpt lat="45.9013220" lon="9.8349850">
	<ele>1756.20</ele>
	<time>2023-11-18T09:09:38.000Z</time>
</trkpt>
<trkpt lat="45.9013260" lon="9.8349850">
	<ele>1756.20</ele>
	<time>2023-11-18T09:09:39.000Z</time>
</trkpt>
<trkpt lat="45.9013260" lon="9.8349830">
	<ele>1756.20</ele>
	<time>2023-11-18T09:09:40.000Z</time>
</trkpt>
<trkpt lat="45.9013250" lon="9.8349830">
	<ele>1756.40</ele>
	<time>2023-11-18T09:09:41.000Z</time>
</trkpt>
<trkpt lat="45.9013220" lon="9.8349770">
	<ele>1756.60</ele>
	<time>2023-11-18T09:09:42.000Z</time>
</trkpt>
<trkpt lat="45.9013210" lon="9.8349730">
	<ele>1756.60</ele>
	<time>2023-11-18T09:09:43.000Z</time>
</trkpt>
<trkpt lat="45.9013190" lon="9.8349690">
	<ele>1756.80</ele>
	<time>2023-11-18T09:09:44.000Z</time>
</trkpt>
<trkpt lat="45.9013160" lon="9.8349630">
	<ele>1756.80</ele>
	<time>2023-11-18T09:09:45.000Z</time>
</trkpt>
<trkpt lat="45.9013160" lon="9.8349590">
	<ele>1756.80</ele>
	<time>2023-11-18T09:09:46.000Z</time>
</trkpt>
<trkpt lat="45.9013160" lon="9.8349570">
	<ele>1756.80</ele>
	<time>2023-11-18T09:09:47.000Z</time>
</trkpt>
<trkpt lat="45.9013150" lon="9.8349570">
	<ele>1756.80</ele>
	<time>2023-11-18T09:09:48.000Z</time>
</trkpt>
<trkpt lat="45.9013140" lon="9.8349560">
	<ele>1756.80</ele>
	<time>2023-11-18T09:09:49.000Z</time>
</trkpt>
<trkpt lat="45.9013120" lon="9.8349570">
	<ele>1756.80</ele>
	<time>2023-11-18T09:09:50.000Z</time>
</trkpt>
<trkpt lat="45.9013110" lon="9.8349570">
	<ele>1756.80</ele>
	<time>2023-11-18T09:09:51.000Z</time>
</trkpt>
<trkpt lat="45.9013110" lon="9.8349570">
	<ele>1756.80</ele>
	<time>2023-11-18T09:09:52.000Z</time>
</trkpt>
<trkpt lat="45.9013110" lon="9.8349570">
	<ele>1756.80</ele>
	<time>2023-11-18T09:09:53.000Z</time>
</trkpt>
<trkpt lat="45.9013110" lon="9.8349570">
	<ele>1756.80</ele>
	<time>2023-11-18T09:09:54.000Z</time>
</trkpt>
<trkpt lat="45.9013110" lon="9.8349570">
	<ele>1756.80</ele>
	<time>2023-11-18T09:09:55.000Z</time>
</trkpt>
<trkpt lat="45.9013110" lon="9.8349570">
	<ele>1756.60</ele>
	<time>2023-11-18T09:09:56.000Z</time>
</trkpt>
<trkpt lat="45.9013110" lon="9.8349570">
	<ele>1756.60</ele>
	<time>2023-11-18T09:09:57.000Z</time>
</trkpt>
<trkpt lat="45.9013110" lon="9.8349570">
	<ele>1756.60</ele>
	<time>2023-11-18T09:09:58.000Z</time>
</trkpt>
<trkpt lat="45.9013110" lon="9.8349570">
	<ele>1756.60</ele>
	<time>2023-11-18T09:09:59.000Z</time>
</trkpt>
<trkpt lat="45.9013110" lon="9.8349570">
	<ele>1756.60</ele>
	<time>2023-11-18T09:10:00.000Z</time>
</trkpt>
<trkpt lat="45.9013110" lon="9.8349570">
	<ele>1756.60</ele>
	<time>2023-11-18T09:10:01.000Z</time>
</trkpt>
<trkpt lat="45.9013110" lon="9.8349570">
	<ele>1756.60</ele>
	<time>2023-11-18T09:10:02.000Z</time>
</trkpt>
<trkpt lat="45.9013110" lon="9.8349570">
	<ele>1756.40</ele>
	<time>2023-11-18T09:10:03.000Z</time>
</trkpt>
<trkpt lat="45.9013110" lon="9.8349570">
	<ele>1756.40</ele>
	<time>2023-11-18T09:10:04.000Z</time>
</trkpt>
<trkpt lat="45.9013110" lon="9.8349570">
	<ele>1756.40</ele>
	<time>2023-11-18T09:10:05.000Z</time>
</trkpt>
<trkpt lat="45.9013110" lon="9.8349570">
	<ele>1756.40</ele>
	<time>2023-11-18T09:10:06.000Z</time>
</trkpt>
<trkpt lat="45.9013090" lon="9.8349570">
	<ele>1756.40</ele>
	<time>2023-11-18T09:10:07.000Z</time>
</trkpt>
<trkpt lat="45.9013080" lon="9.8349570">
	<ele>1756.40</ele>
	<time>2023-11-18T09:10:08.000Z</time>
</trkpt>
<trkpt lat="45.9013080" lon="9.8349570">
	<ele>1756.40</ele>
	<time>2023-11-18T09:10:09.000Z</time>
</trkpt>
<trkpt lat="45.9013080" lon="9.8349590">
	<ele>1756.60</ele>
	<time>2023-11-18T09:10:10.000Z</time>
</trkpt>
<trkpt lat="45.9013080" lon="9.8349600">
	<ele>1756.60</ele>
	<time>2023-11-18T09:10:11.000Z</time>
</trkpt>
<trkpt lat="45.9013080" lon="9.8349620">
	<ele>1756.60</ele>
	<time>2023-11-18T09:10:12.000Z</time>
</trkpt>
<trkpt lat="45.9013080" lon="9.8349620">
	<ele>1756.60</ele>
	<time>2023-11-18T09:10:13.000Z</time>
</trkpt>
<trkpt lat="45.9013080" lon="9.8349620">
	<ele>1756.60</ele>
	<time>2023-11-18T09:10:14.000Z</time>
</trkpt>
<trkpt lat="45.9013080" lon="9.8349620">
	<ele>1756.60</ele>
	<time>2023-11-18T09:10:15.000Z</time>
</trkpt>
<trkpt lat="45.9013080" lon="9.8349670">
	<ele>1756.60</ele>
	<time>2023-11-18T09:10:16.000Z</time>
</trkpt>
<trkpt lat="45.9013080" lon="9.8349680">
	<ele>1756.40</ele>
	<time>2023-11-18T09:10:17.000Z</time>
</trkpt>
<trkpt lat="45.9013080" lon="9.8349690">
	<ele>1756.40</ele>
	<time>2023-11-18T09:10:18.000Z</time>
</trkpt>
<trkpt lat="45.9013080" lon="9.8349690">
	<ele>1756.40</ele>
	<time>2023-11-18T09:10:19.000Z</time>
</trkpt>
<trkpt lat="45.9013080" lon="9.8349690">
	<ele>1756.40</ele>
	<time>2023-11-18T09:10:20.000Z</time>
</trkpt>
<trkpt lat="45.9013080" lon="9.8349690">
	<ele>1756.60</ele>
	<time>2023-11-18T09:10:21.000Z</time>
</trkpt>
<trkpt lat="45.9013080" lon="9.8349690">
	<ele>1756.60</ele>
	<time>2023-11-18T09:10:22.000Z</time>
</trkpt>
<trkpt lat="45.9013080" lon="9.8349690">
	<ele>1756.60</ele>
	<time>2023-11-18T09:10:23.000Z</time>
</trkpt>
<trkpt lat="45.9013080" lon="9.8349690">
	<ele>1756.60</ele>
	<time>2023-11-18T09:10:24.000Z</time>
</trkpt>
<trkpt lat="45.9013090" lon="9.8349690">
	<ele>1756.60</ele>
	<time>2023-11-18T09:10:25.000Z</time>
</trkpt>
<trkpt lat="45.9013090" lon="9.8349690">
	<ele>1756.60</ele>
	<time>2023-11-18T09:10:26.000Z</time>
</trkpt>
<trkpt lat="45.9013090" lon="9.8349690">
	<ele>1756.60</ele>
	<time>2023-11-18T09:10:27.000Z</time>
</trkpt>
<trkpt lat="45.9013090" lon="9.8349690">
	<ele>1756.60</ele>
	<time>2023-11-18T09:10:28.000Z</time>
</trkpt>
<trkpt lat="45.9013100" lon="9.8349690">
	<ele>1756.60</ele>
	<time>2023-11-18T09:10:29.000Z</time>
</trkpt>
<trkpt lat="45.9013120" lon="9.8349690">
	<ele>1756.60</ele>
	<time>2023-11-18T09:10:30.000Z</time>
</trkpt>
<trkpt lat="45.9013190" lon="9.8349690">
	<ele>1756.60</ele>
	<time>2023-11-18T09:10:31.000Z</time>
</trkpt>
<trkpt lat="45.9013210" lon="9.8349690">
	<ele>1756.80</ele>
	<time>2023-11-18T09:10:32.000Z</time>
</trkpt>
<trkpt lat="45.9013210" lon="9.8349670">
	<ele>1756.80</ele>
	<time>2023-11-18T09:10:33.000Z</time>
</trkpt>
<trkpt lat="45.9013210" lon="9.8349650">
	<ele>1756.80</ele>
	<time>2023-11-18T09:10:34.000Z</time>
</trkpt>
<trkpt lat="45.9013210" lon="9.8349630">
	<ele>1756.80</ele>
	<time>2023-11-18T09:10:35.000Z</time>
</trkpt>
<trkpt lat="45.9013210" lon="9.8349600">
	<ele>1756.80</ele>
	<time>2023-11-18T09:10:36.000Z</time>
</trkpt>
<trkpt lat="45.9013210" lon="9.8349590">
	<ele>1756.60</ele>
	<time>2023-11-18T09:10:37.000Z</time>
</trkpt>
<trkpt lat="45.9013210" lon="9.8349580">
	<ele>1756.80</ele>
	<time>2023-11-18T09:10:38.000Z</time>
</trkpt>
<trkpt lat="45.9013210" lon="9.8349580">
	<ele>1756.80</ele>
	<time>2023-11-18T09:10:39.000Z</time>
</trkpt>
<trkpt lat="45.9013210" lon="9.8349580">
	<ele>1756.80</ele>
	<time>2023-11-18T09:10:40.000Z</time>
</trkpt>
<trkpt lat="45.9013210" lon="9.8349570">
	<ele>1756.80</ele>
	<time>2023-11-18T09:10:41.000Z</time>
</trkpt>
<trkpt lat="45.9013210" lon="9.8349570">
	<ele>1756.80</ele>
	<time>2023-11-18T09:10:42.000Z</time>
</trkpt>
<trkpt lat="45.9013210" lon="9.8349560">
	<ele>1757.00</ele>
	<time>2023-11-18T09:10:43.000Z</time>
</trkpt>
<trkpt lat="45.9013210" lon="9.8349560">
	<ele>1757.00</ele>
	<time>2023-11-18T09:10:44.000Z</time>
</trkpt>
<trkpt lat="45.9013210" lon="9.8349560">
	<ele>1757.00</ele>
	<time>2023-11-18T09:10:45.000Z</time>
</trkpt>
<trkpt lat="45.9013210" lon="9.8349560">
	<ele>1757.00</ele>
	<time>2023-11-18T09:10:46.000Z</time>
</trkpt>
<trkpt lat="45.9013210" lon="9.8349560">
	<ele>1756.80</ele>
	<time>2023-11-18T09:10:47.000Z</time>
</trkpt>
<trkpt lat="45.9013210" lon="9.8349550">
	<ele>1756.80</ele>
	<time>2023-11-18T09:10:48.000Z</time>
</trkpt>
<trkpt lat="45.9013210" lon="9.8349550">
	<ele>1756.80</ele>
	<time>2023-11-18T09:10:49.000Z</time>
</trkpt>
<trkpt lat="45.9013200" lon="9.8349550">
	<ele>1756.80</ele>
	<time>2023-11-18T09:10:50.000Z</time>
</trkpt>
<trkpt lat="45.9013200" lon="9.8349550">
	<ele>1757.00</ele>
	<time>2023-11-18T09:10:51.000Z</time>
</trkpt>
<trkpt lat="45.9013200" lon="9.8349540">
	<ele>1757.00</ele>
	<time>2023-11-18T09:10:52.000Z</time>
</trkpt>
<trkpt lat="45.9013200" lon="9.8349540">
	<ele>1757.00</ele>
	<time>2023-11-18T09:10:53.000Z</time>
</trkpt>
<trkpt lat="45.9013190" lon="9.8349540">
	<ele>1757.00</ele>
	<time>2023-11-18T09:10:54.000Z</time>
</trkpt>
<trkpt lat="45.9013180" lon="9.8349540">
	<ele>1757.00</ele>
	<time>2023-11-18T09:10:55.000Z</time>
</trkpt>
<trkpt lat="45.9013180" lon="9.8349540">
	<ele>1757.00</ele>
	<time>2023-11-18T09:10:56.000Z</time>
</trkpt>
<trkpt lat="45.9013180" lon="9.8349540">
	<ele>1757.20</ele>
	<time>2023-11-18T09:10:57.000Z</time>
</trkpt>
<trkpt lat="45.9013180" lon="9.8349540">
	<ele>1757.20</ele>
	<time>2023-11-18T09:10:58.000Z</time>
</trkpt>
<trkpt lat="45.9013170" lon="9.8349540">
	<ele>1757.20</ele>
	<time>2023-11-18T09:10:59.000Z</time>
</trkpt>
<trkpt lat="45.9013170" lon="9.8349540">
	<ele>1757.40</ele>
	<time>2023-11-18T09:11:00.000Z</time>
</trkpt>
<trkpt lat="45.9013170" lon="9.8349540">
	<ele>1757.40</ele>
	<time>2023-11-18T09:11:01.000Z</time>
</trkpt>
<trkpt lat="45.9013170" lon="9.8349530">
	<ele>1757.40</ele>
	<time>2023-11-18T09:11:02.000Z</time>
</trkpt>
<trkpt lat="45.9013170" lon="9.8349530">
	<ele>1757.40</ele>
	<time>2023-11-18T09:11:03.000Z</time>
</trkpt>
<trkpt lat="45.9013170" lon="9.8349520">
	<ele>1757.40</ele>
	<time>2023-11-18T09:11:04.000Z</time>
</trkpt>
<trkpt lat="45.9013160" lon="9.8349520">
	<ele>1757.40</ele>
	<time>2023-11-18T09:11:05.000Z</time>
</trkpt>
<trkpt lat="45.9013160" lon="9.8349520">
	<ele>1757.40</ele>
	<time>2023-11-18T09:11:06.000Z</time>
</trkpt>
<trkpt lat="45.9013160" lon="9.8349520">
	<ele>1757.40</ele>
	<time>2023-11-18T09:11:07.000Z</time>
</trkpt>
<trkpt lat="45.9013160" lon="9.8349510">
	<ele>1757.40</ele>
	<time>2023-11-18T09:11:08.000Z</time>
</trkpt>
<trkpt lat="45.9013160" lon="9.8349510">
	<ele>1757.40</ele>
	<time>2023-11-18T09:11:09.000Z</time>
</trkpt>
<trkpt lat="45.9013160" lon="9.8349500">
	<ele>1757.40</ele>
	<time>2023-11-18T09:11:10.000Z</time>
</trkpt>
<trkpt lat="45.9013160" lon="9.8349490">
	<ele>1757.40</ele>
	<time>2023-11-18T09:11:11.000Z</time>
</trkpt>
<trkpt lat="45.9013150" lon="9.8349480">
	<ele>1757.60</ele>
	<time>2023-11-18T09:11:12.000Z</time>
</trkpt>
<trkpt lat="45.9013150" lon="9.8349460">
	<ele>1757.60</ele>
	<time>2023-11-18T09:11:13.000Z</time>
</trkpt>
<trkpt lat="45.9013150" lon="9.8349460">
	<ele>1757.60</ele>
	<time>2023-11-18T09:11:14.000Z</time>
</trkpt>
<trkpt lat="45.9013140" lon="9.8349450">
	<ele>1757.60</ele>
	<time>2023-11-18T09:11:15.000Z</time>
</trkpt>
<trkpt lat="45.9013140" lon="9.8349440">
	<ele>1757.60</ele>
	<time>2023-11-18T09:11:16.000Z</time>
</trkpt>
<trkpt lat="45.9013140" lon="9.8349440">
	<ele>1757.60</ele>
	<time>2023-11-18T09:11:17.000Z</time>
</trkpt>
<trkpt lat="45.9013140" lon="9.8349440">
	<ele>1757.60</ele>
	<time>2023-11-18T09:11:18.000Z</time>
</trkpt>
<trkpt lat="45.9013140" lon="9.8349430">
	<ele>1757.60</ele>
	<time>2023-11-18T09:11:19.000Z</time>
</trkpt>
<trkpt lat="45.9013140" lon="9.8349430">
	<ele>1757.40</ele>
	<time>2023-11-18T09:11:20.000Z</time>
</trkpt>
<trkpt lat="45.9013140" lon="9.8349430">
	<ele>1757.60</ele>
	<time>2023-11-18T09:11:21.000Z</time>
</trkpt>
<trkpt lat="45.9013140" lon="9.8349430">
	<ele>1757.60</ele>
	<time>2023-11-18T09:11:22.000Z</time>
</trkpt>
<trkpt lat="45.9013170" lon="9.8349420">
	<ele>1757.60</ele>
	<time>2023-11-18T09:11:23.000Z</time>
</trkpt>
<trkpt lat="45.9013240" lon="9.8349420">
	<ele>1757.80</ele>
	<time>2023-11-18T09:11:24.000Z</time>
</trkpt>
<trkpt lat="45.9013340" lon="9.8349390">
	<ele>1758.00</ele>
	<time>2023-11-18T09:11:25.000Z</time>
</trkpt>
<trkpt lat="45.9013430" lon="9.8349400">
	<ele>1758.20</ele>
	<time>2023-11-18T09:11:26.000Z</time>
</trkpt>
<trkpt lat="45.9013480" lon="9.8349370">
	<ele>1758.40</ele>
	<time>2023-11-18T09:11:27.000Z</time>
</trkpt>
<trkpt lat="45.9013580" lon="9.8349330">
	<ele>1758.40</ele>
	<time>2023-11-18T09:11:28.000Z</time>
</trkpt>
<trkpt lat="45.9013640" lon="9.8349310">
	<ele>1758.40</ele>
	<time>2023-11-18T09:11:29.000Z</time>
</trkpt>
<trkpt lat="45.9013730" lon="9.8349300">
	<ele>1758.60</ele>
	<time>2023-11-18T09:11:30.000Z</time>
</trkpt>
<trkpt lat="45.9013820" lon="9.8349280">
	<ele>1758.80</ele>
	<time>2023-11-18T09:11:31.000Z</time>
</trkpt>
<trkpt lat="45.9013890" lon="9.8349230">
	<ele>1758.80</ele>
	<time>2023-11-18T09:11:32.000Z</time>
</trkpt>
<trkpt lat="45.9013940" lon="9.8349170">
	<ele>1759.20</ele>
	<time>2023-11-18T09:11:33.000Z</time>
</trkpt>
<trkpt lat="45.9013990" lon="9.8349100">
	<ele>1759.40</ele>
	<time>2023-11-18T09:11:34.000Z</time>
</trkpt>
<trkpt lat="45.9014060" lon="9.8349040">
	<ele>1759.40</ele>
	<time>2023-11-18T09:11:35.000Z</time>
</trkpt>
<trkpt lat="45.9014150" lon="9.8348970">
	<ele>1759.40</ele>
	<time>2023-11-18T09:11:36.000Z</time>
</trkpt>
<trkpt lat="45.9014220" lon="9.8348930">
	<ele>1759.60</ele>
	<time>2023-11-18T09:11:37.000Z</time>
</trkpt>
<trkpt lat="45.9014280" lon="9.8348900">
	<ele>1759.80</ele>
	<time>2023-11-18T09:11:38.000Z</time>
</trkpt>
<trkpt lat="45.9014320" lon="9.8348870">
	<ele>1760.00</ele>
	<time>2023-11-18T09:11:39.000Z</time>
</trkpt>
<trkpt lat="45.9014310" lon="9.8348810">
	<ele>1760.20</ele>
	<time>2023-11-18T09:11:40.000Z</time>
</trkpt>
<trkpt lat="45.9014340" lon="9.8348740">
	<ele>1760.20</ele>
	<time>2023-11-18T09:11:41.000Z</time>
</trkpt>
<trkpt lat="45.9014330" lon="9.8348690">
	<ele>1760.40</ele>
	<time>2023-11-18T09:11:42.000Z</time>
</trkpt>
<trkpt lat="45.9014360" lon="9.8348620">
	<ele>1760.40</ele>
	<time>2023-11-18T09:11:43.000Z</time>
</trkpt>
<trkpt lat="45.9014390" lon="9.8348530">
	<ele>1760.60</ele>
	<time>2023-11-18T09:11:44.000Z</time>
</trkpt>
<trkpt lat="45.9014420" lon="9.8348430">
	<ele>1760.60</ele>
	<time>2023-11-18T09:11:45.000Z</time>
</trkpt>
<trkpt lat="45.9014490" lon="9.8348360">
	<ele>1760.80</ele>
	<time>2023-11-18T09:11:46.000Z</time>
</trkpt>
<trkpt lat="45.9014510" lon="9.8348290">
	<ele>1761.00</ele>
	<time>2023-11-18T09:11:47.000Z</time>
</trkpt>
<trkpt lat="45.9014570" lon="9.8348220">
	<ele>1761.20</ele>
	<time>2023-11-18T09:11:48.000Z</time>
</trkpt>
<trkpt lat="45.9014610" lon="9.8348150">
	<ele>1761.40</ele>
	<time>2023-11-18T09:11:49.000Z</time>
</trkpt>
<trkpt lat="45.9014630" lon="9.8348090">
	<ele>1761.40</ele>
	<time>2023-11-18T09:11:50.000Z</time>
</trkpt>
<trkpt lat="45.9014650" lon="9.8348040">
	<ele>1761.60</ele>
	<time>2023-11-18T09:11:51.000Z</time>
</trkpt>
<trkpt lat="45.9014680" lon="9.8348000">
	<ele>1761.80</ele>
	<time>2023-11-18T09:11:52.000Z</time>
</trkpt>
<trkpt lat="45.9014750" lon="9.8347940">
	<ele>1762.20</ele>
	<time>2023-11-18T09:11:53.000Z</time>
</trkpt>
<trkpt lat="45.9014810" lon="9.8347860">
	<ele>1762.20</ele>
	<time>2023-11-18T09:11:54.000Z</time>
</trkpt>
<trkpt lat="45.9014840" lon="9.8347800">
	<ele>1762.40</ele>
	<time>2023-11-18T09:11:55.000Z</time>
</trkpt>
<trkpt lat="45.9014870" lon="9.8347740">
	<ele>1762.40</ele>
	<time>2023-11-18T09:11:56.000Z</time>
</trkpt>
<trkpt lat="45.9014900" lon="9.8347660">
	<ele>1762.60</ele>
	<time>2023-11-18T09:11:57.000Z</time>
</trkpt>
<trkpt lat="45.9014950" lon="9.8347650">
	<ele>1762.60</ele>
	<time>2023-11-18T09:11:58.000Z</time>
</trkpt>
<trkpt lat="45.9015000" lon="9.8347560">
	<ele>1762.80</ele>
	<time>2023-11-18T09:11:59.000Z</time>
</trkpt>
<trkpt lat="45.9015050" lon="9.8347480">
	<ele>1763.00</ele>
	<time>2023-11-18T09:12:00.000Z</time>
</trkpt>
<trkpt lat="45.9015060" lon="9.8347430">
	<ele>1763.20</ele>
	<time>2023-11-18T09:12:01.000Z</time>
</trkpt>
<trkpt lat="45.9015040" lon="9.8347400">
	<ele>1763.20</ele>
	<time>2023-11-18T09:12:02.000Z</time>
</trkpt>
<trkpt lat="45.9015050" lon="9.8347370">
	<ele>1763.40</ele>
	<time>2023-11-18T09:12:03.000Z</time>
</trkpt>
<trkpt lat="45.9015070" lon="9.8347360">
	<ele>1763.60</ele>
	<time>2023-11-18T09:12:04.000Z</time>
</trkpt>
<trkpt lat="45.9015110" lon="9.8347320">
	<ele>1764.00</ele>
	<time>2023-11-18T09:12:05.000Z</time>
</trkpt>
<trkpt lat="45.9015110" lon="9.8347260">
	<ele>1764.20</ele>
	<time>2023-11-18T09:12:06.000Z</time>
</trkpt>
<trkpt lat="45.9015110" lon="9.8347190">
	<ele>1764.60</ele>
	<time>2023-11-18T09:12:07.000Z</time>
</trkpt>
<trkpt lat="45.9015110" lon="9.8347150">
	<ele>1764.80</ele>
	<time>2023-11-18T09:12:08.000Z</time>
</trkpt>
<trkpt lat="45.9015120" lon="9.8347140">
	<ele>1765.20</ele>
	<time>2023-11-18T09:12:09.000Z</time>
</trkpt>
<trkpt lat="45.9015150" lon="9.8347150">
	<ele>1765.40</ele>
	<time>2023-11-18T09:12:10.000Z</time>
</trkpt>
<trkpt lat="45.9015190" lon="9.8347090">
	<ele>1765.60</ele>
	<time>2023-11-18T09:12:11.000Z</time>
</trkpt>
<trkpt lat="45.9015230" lon="9.8347040">
	<ele>1765.60</ele>
	<time>2023-11-18T09:12:12.000Z</time>
</trkpt>
<trkpt lat="45.9015210" lon="9.8346980">
	<ele>1765.80</ele>
	<time>2023-11-18T09:12:13.000Z</time>
</trkpt>
<trkpt lat="45.9015210" lon="9.8346910">
	<ele>1766.00</ele>
	<time>2023-11-18T09:12:14.000Z</time>
</trkpt>
<trkpt lat="45.9015210" lon="9.8346870">
	<ele>1766.00</ele>
	<time>2023-11-18T09:12:15.000Z</time>
</trkpt>
<trkpt lat="45.9015220" lon="9.8346850">
	<ele>1766.00</ele>
	<time>2023-11-18T09:12:16.000Z</time>
</trkpt>
<trkpt lat="45.9015220" lon="9.8346850">
	<ele>1766.20</ele>
	<time>2023-11-18T09:12:17.000Z</time>
</trkpt>
<trkpt lat="45.9015230" lon="9.8346840">
	<ele>1766.40</ele>
	<time>2023-11-18T09:12:18.000Z</time>
</trkpt>
<trkpt lat="45.9015240" lon="9.8346830">
	<ele>1766.40</ele>
	<time>2023-11-18T09:12:19.000Z</time>
</trkpt>
<trkpt lat="45.9015240" lon="9.8346830">
	<ele>1766.40</ele>
	<time>2023-11-18T09:12:20.000Z</time>
</trkpt>
<trkpt lat="45.9015240" lon="9.8346830">
	<ele>1766.40</ele>
	<time>2023-11-18T09:12:21.000Z</time>
</trkpt>
<trkpt lat="45.9015240" lon="9.8346830">
	<ele>1766.40</ele>
	<time>2023-11-18T09:12:22.000Z</time>
</trkpt>
<trkpt lat="45.9015240" lon="9.8346830">
	<ele>1766.40</ele>
	<time>2023-11-18T09:12:23.000Z</time>
</trkpt>
<trkpt lat="45.9015240" lon="9.8346830">
	<ele>1766.40</ele>
	<time>2023-11-18T09:12:24.000Z</time>
</trkpt>
<trkpt lat="45.9015240" lon="9.8346830">
	<ele>1766.40</ele>
	<time>2023-11-18T09:12:25.000Z</time>
</trkpt>
<trkpt lat="45.9015240" lon="9.8346830">
	<ele>1766.40</ele>
	<time>2023-11-18T09:12:26.000Z</time>
</trkpt>
<trkpt lat="45.9015230" lon="9.8346830">
	<ele>1766.40</ele>
	<time>2023-11-18T09:12:27.000Z</time>
</trkpt>
<trkpt lat="45.9015230" lon="9.8346830">
	<ele>1766.40</ele>
	<time>2023-11-18T09:12:28.000Z</time>
</trkpt>
<trkpt lat="45.9015230" lon="9.8346830">
	<ele>1766.60</ele>
	<time>2023-11-18T09:12:29.000Z</time>
</trkpt>
<trkpt lat="45.9015230" lon="9.8346830">
	<ele>1766.60</ele>
	<time>2023-11-18T09:12:30.000Z</time>
</trkpt>
<trkpt lat="45.9015230" lon="9.8346830">
	<ele>1766.60</ele>
	<time>2023-11-18T09:12:31.000Z</time>
</trkpt>
<trkpt lat="45.9015230" lon="9.8346830">
	<ele>1766.60</ele>
	<time>2023-11-18T09:12:32.000Z</time>
</trkpt>
<trkpt lat="45.9015230" lon="9.8346830">
	<ele>1766.60</ele>
	<time>2023-11-18T09:12:33.000Z</time>
</trkpt>
<trkpt lat="45.9015230" lon="9.8346830">
	<ele>1766.60</ele>
	<time>2023-11-18T09:12:34.000Z</time>
</trkpt>
<trkpt lat="45.9015230" lon="9.8346830">
	<ele>1766.80</ele>
	<time>2023-11-18T09:12:35.000Z</time>
</trkpt>
<trkpt lat="45.9015230" lon="9.8346830">
	<ele>1766.80</ele>
	<time>2023-11-18T09:12:36.000Z</time>
</trkpt>
<trkpt lat="45.9015230" lon="9.8346830">
	<ele>1766.80</ele>
	<time>2023-11-18T09:12:37.000Z</time>
</trkpt>
<trkpt lat="45.9015230" lon="9.8346830">
	<ele>1766.80</ele>
	<time>2023-11-18T09:12:38.000Z</time>
</trkpt>
<trkpt lat="45.9015290" lon="9.8346820">
	<ele>1767.00</ele>
	<time>2023-11-18T09:12:39.000Z</time>
</trkpt>
<trkpt lat="45.9015420" lon="9.8346830">
	<ele>1767.00</ele>
	<time>2023-11-18T09:12:40.000Z</time>
</trkpt>
<trkpt lat="45.9015540" lon="9.8346830">
	<ele>1767.20</ele>
	<time>2023-11-18T09:12:41.000Z</time>
</trkpt>
<trkpt lat="45.9015670" lon="9.8346850">
	<ele>1767.40</ele>
	<time>2023-11-18T09:12:42.000Z</time>
</trkpt>
<trkpt lat="45.9015820" lon="9.8346890">
	<ele>1767.60</ele>
	<time>2023-11-18T09:12:43.000Z</time>
</trkpt>
<trkpt lat="45.9015920" lon="9.8346960">
	<ele>1767.80</ele>
	<time>2023-11-18T09:12:44.000Z</time>
</trkpt>
<trkpt lat="45.9016000" lon="9.8347050">
	<ele>1768.00</ele>
	<time>2023-11-18T09:12:45.000Z</time>
</trkpt>
<trkpt lat="45.9016110" lon="9.8347090">
	<ele>1768.20</ele>
	<time>2023-11-18T09:12:46.000Z</time>
</trkpt>
<trkpt lat="45.9016240" lon="9.8347110">
	<ele>1768.20</ele>
	<time>2023-11-18T09:12:47.000Z</time>
</trkpt>
<trkpt lat="45.9016420" lon="9.8347080">
	<ele>1768.40</ele>
	<time>2023-11-18T09:12:48.000Z</time>
</trkpt>
<trkpt lat="45.9016560" lon="9.8347010">
	<ele>1768.40</ele>
	<time>2023-11-18T09:12:49.000Z</time>
</trkpt>
<trkpt lat="45.9016680" lon="9.8346980">
	<ele>1768.60</ele>
	<time>2023-11-18T09:12:50.000Z</time>
</trkpt>
<trkpt lat="45.9016760" lon="9.8346990">
	<ele>1768.60</ele>
	<time>2023-11-18T09:12:51.000Z</time>
</trkpt>
<trkpt lat="45.9016810" lon="9.8346970">
	<ele>1768.80</ele>
	<time>2023-11-18T09:12:52.000Z</time>
</trkpt>
<trkpt lat="45.9016870" lon="9.8346950">
	<ele>1769.20</ele>
	<time>2023-11-18T09:12:53.000Z</time>
</trkpt>
<trkpt lat="45.9016910" lon="9.8346970">
	<ele>1769.60</ele>
	<time>2023-11-18T09:12:54.000Z</time>
</trkpt>
<trkpt lat="45.9016970" lon="9.8346990">
	<ele>1769.80</ele>
	<time>2023-11-18T09:12:55.000Z</time>
</trkpt>
<trkpt lat="45.9017050" lon="9.8347010">
	<ele>1769.80</ele>
	<time>2023-11-18T09:12:56.000Z</time>
</trkpt>
<trkpt lat="45.9017100" lon="9.8347030">
	<ele>1770.00</ele>
	<time>2023-11-18T09:12:57.000Z</time>
</trkpt>
<trkpt lat="45.9017110" lon="9.8347100">
	<ele>1770.20</ele>
	<time>2023-11-18T09:12:58.000Z</time>
</trkpt>
<trkpt lat="45.9017130" lon="9.8347190">
	<ele>1770.40</ele>
	<time>2023-11-18T09:12:59.000Z</time>
</trkpt>
<trkpt lat="45.9017170" lon="9.8347250">
	<ele>1770.40</ele>
	<time>2023-11-18T09:13:00.000Z</time>
</trkpt>
<trkpt lat="45.9017200" lon="9.8347350">
	<ele>1770.60</ele>
	<time>2023-11-18T09:13:01.000Z</time>
</trkpt>
<trkpt lat="45.9017240" lon="9.8347430">
	<ele>1770.60</ele>
	<time>2023-11-18T09:13:02.000Z</time>
</trkpt>
<trkpt lat="45.9017300" lon="9.8347480">
	<ele>1770.60</ele>
	<time>2023-11-18T09:13:03.000Z</time>
</trkpt>
<trkpt lat="45.9017350" lon="9.8347550">
	<ele>1770.60</ele>
	<time>2023-11-18T09:13:04.000Z</time>
</trkpt>
<trkpt lat="45.9017400" lon="9.8347590">
	<ele>1770.80</ele>
	<time>2023-11-18T09:13:05.000Z</time>
</trkpt>
<trkpt lat="45.9017440" lon="9.8347620">
	<ele>1771.00</ele>
	<time>2023-11-18T09:13:06.000Z</time>
</trkpt>
<trkpt lat="45.9017460" lon="9.8347670">
	<ele>1771.40</ele>
	<time>2023-11-18T09:13:07.000Z</time>
</trkpt>
<trkpt lat="45.9017510" lon="9.8347700">
	<ele>1771.80</ele>
	<time>2023-11-18T09:13:08.000Z</time>
</trkpt>
<trkpt lat="45.9017570" lon="9.8347700">
	<ele>1772.00</ele>
	<time>2023-11-18T09:13:09.000Z</time>
</trkpt>
<trkpt lat="45.9017660" lon="9.8347700">
	<ele>1772.20</ele>
	<time>2023-11-18T09:13:10.000Z</time>
</trkpt>
<trkpt lat="45.9017720" lon="9.8347690">
	<ele>1772.40</ele>
	<time>2023-11-18T09:13:11.000Z</time>
</trkpt>
<trkpt lat="45.9017780" lon="9.8347650">
	<ele>1772.40</ele>
	<time>2023-11-18T09:13:12.000Z</time>
</trkpt>
<trkpt lat="45.9017810" lon="9.8347610">
	<ele>1772.60</ele>
	<time>2023-11-18T09:13:13.000Z</time>
</trkpt>
<trkpt lat="45.9017820" lon="9.8347560">
	<ele>1772.80</ele>
	<time>2023-11-18T09:13:14.000Z</time>
</trkpt>
<trkpt lat="45.9017850" lon="9.8347560">
	<ele>1772.80</ele>
	<time>2023-11-18T09:13:15.000Z</time>
</trkpt>
<trkpt lat="45.9017890" lon="9.8347580">
	<ele>1773.00</ele>
	<time>2023-11-18T09:13:16.000Z</time>
</trkpt>
<trkpt lat="45.9017920" lon="9.8347650">
	<ele>1773.00</ele>
	<time>2023-11-18T09:13:17.000Z</time>
</trkpt>
<trkpt lat="45.9017910" lon="9.8347740">
	<ele>1773.20</ele>
	<time>2023-11-18T09:13:18.000Z</time>
</trkpt>
<trkpt lat="45.9017910" lon="9.8347850">
	<ele>1773.20</ele>
	<time>2023-11-18T09:13:19.000Z</time>
</trkpt>
<trkpt lat="45.9017930" lon="9.8347940">
	<ele>1773.60</ele>
	<time>2023-11-18T09:13:20.000Z</time>
</trkpt>
<trkpt lat="45.9017950" lon="9.8347990">
	<ele>1773.80</ele>
	<time>2023-11-18T09:13:21.000Z</time>
</trkpt>
<trkpt lat="45.9017970" lon="9.8348060">
	<ele>1774.00</ele>
	<time>2023-11-18T09:13:22.000Z</time>
</trkpt>
<trkpt lat="45.9017980" lon="9.8348170">
	<ele>1774.20</ele>
	<time>2023-11-18T09:13:23.000Z</time>
</trkpt>
<trkpt lat="45.9018030" lon="9.8348250">
	<ele>1774.40</ele>
	<time>2023-11-18T09:13:24.000Z</time>
</trkpt>
<trkpt lat="45.9018040" lon="9.8348320">
	<ele>1774.20</ele>
	<time>2023-11-18T09:13:25.000Z</time>
</trkpt>
<trkpt lat="45.9018060" lon="9.8348400">
	<ele>1774.40</ele>
	<time>2023-11-18T09:13:26.000Z</time>
</trkpt>
<trkpt lat="45.9018100" lon="9.8348480">
	<ele>1774.40</ele>
	<time>2023-11-18T09:13:27.000Z</time>
</trkpt>
<trkpt lat="45.9018160" lon="9.8348500">
	<ele>1774.80</ele>
	<time>2023-11-18T09:13:28.000Z</time>
</trkpt>
<trkpt lat="45.9018210" lon="9.8348550">
	<ele>1775.20</ele>
	<time>2023-11-18T09:13:29.000Z</time>
</trkpt>
<trkpt lat="45.9018250" lon="9.8348540">
	<ele>1775.60</ele>
	<time>2023-11-18T09:13:30.000Z</time>
</trkpt>
<trkpt lat="45.9018280" lon="9.8348570">
	<ele>1775.80</ele>
	<time>2023-11-18T09:13:31.000Z</time>
</trkpt>
<trkpt lat="45.9018310" lon="9.8348590">
	<ele>1776.00</ele>
	<time>2023-11-18T09:13:32.000Z</time>
</trkpt>
<trkpt lat="45.9018300" lon="9.8348650">
	<ele>1776.20</ele>
	<time>2023-11-18T09:13:33.000Z</time>
</trkpt>
<trkpt lat="45.9018300" lon="9.8348730">
	<ele>1776.40</ele>
	<time>2023-11-18T09:13:34.000Z</time>
</trkpt>
<trkpt lat="45.9018330" lon="9.8348780">
	<ele>1776.60</ele>
	<time>2023-11-18T09:13:35.000Z</time>
</trkpt>
<trkpt lat="45.9018380" lon="9.8348790">
	<ele>1776.80</ele>
	<time>2023-11-18T09:13:36.000Z</time>
</trkpt>
<trkpt lat="45.9018430" lon="9.8348840">
	<ele>1776.80</ele>
	<time>2023-11-18T09:13:37.000Z</time>
</trkpt>
<trkpt lat="45.9018470" lon="9.8348920">
	<ele>1777.00</ele>
	<time>2023-11-18T09:13:38.000Z</time>
</trkpt>
<trkpt lat="45.9018510" lon="9.8348980">
	<ele>1777.00</ele>
	<time>2023-11-18T09:13:39.000Z</time>
</trkpt>
<trkpt lat="45.9018540" lon="9.8349090">
	<ele>1777.00</ele>
	<time>2023-11-18T09:13:40.000Z</time>
</trkpt>
<trkpt lat="45.9018550" lon="9.8349200">
	<ele>1777.00</ele>
	<time>2023-11-18T09:13:41.000Z</time>
</trkpt>
<trkpt lat="45.9018570" lon="9.8349310">
	<ele>1777.00</ele>
	<time>2023-11-18T09:13:42.000Z</time>
</trkpt>
<trkpt lat="45.9018660" lon="9.8349350">
	<ele>1777.20</ele>
	<time>2023-11-18T09:13:43.000Z</time>
</trkpt>
<trkpt lat="45.9018730" lon="9.8349400">
	<ele>1777.20</ele>
	<time>2023-11-18T09:13:44.000Z</time>
</trkpt>
<trkpt lat="45.9018720" lon="9.8349470">
	<ele>1777.40</ele>
	<time>2023-11-18T09:13:45.000Z</time>
</trkpt>
<trkpt lat="45.9018750" lon="9.8349520">
	<ele>1777.80</ele>
	<time>2023-11-18T09:13:46.000Z</time>
</trkpt>
<trkpt lat="45.9018770" lon="9.8349590">
	<ele>1778.00</ele>
	<time>2023-11-18T09:13:47.000Z</time>
</trkpt>
<trkpt lat="45.9018780" lon="9.8349630">
	<ele>1778.20</ele>
	<time>2023-11-18T09:13:48.000Z</time>
</trkpt>
<trkpt lat="45.9018790" lon="9.8349690">
	<ele>1778.60</ele>
	<time>2023-11-18T09:13:49.000Z</time>
</trkpt>
<trkpt lat="45.9018770" lon="9.8349770">
	<ele>1778.80</ele>
	<time>2023-11-18T09:13:50.000Z</time>
</trkpt>
<trkpt lat="45.9018770" lon="9.8349850">
	<ele>1779.00</ele>
	<time>2023-11-18T09:13:51.000Z</time>
</trkpt>
<trkpt lat="45.9018760" lon="9.8349900">
	<ele>1779.20</ele>
	<time>2023-11-18T09:13:52.000Z</time>
</trkpt>
<trkpt lat="45.9018770" lon="9.8349990">
	<ele>1779.20</ele>
	<time>2023-11-18T09:13:53.000Z</time>
</trkpt>
<trkpt lat="45.9018800" lon="9.8350070">
	<ele>1779.20</ele>
	<time>2023-11-18T09:13:54.000Z</time>
</trkpt>
<trkpt lat="45.9018810" lon="9.8350130">
	<ele>1779.40</ele>
	<time>2023-11-18T09:13:55.000Z</time>
</trkpt>
<trkpt lat="45.9018810" lon="9.8350190">
	<ele>1779.40</ele>
	<time>2023-11-18T09:13:56.000Z</time>
</trkpt>
<trkpt lat="45.9018810" lon="9.8350240">
	<ele>1779.60</ele>
	<time>2023-11-18T09:13:57.000Z</time>
</trkpt>
<trkpt lat="45.9018860" lon="9.8350310">
	<ele>1779.60</ele>
	<time>2023-11-18T09:13:58.000Z</time>
</trkpt>
<trkpt lat="45.9018890" lon="9.8350340">
	<ele>1779.80</ele>
	<time>2023-11-18T09:13:59.000Z</time>
</trkpt>
<trkpt lat="45.9018920" lon="9.8350380">
	<ele>1780.00</ele>
	<time>2023-11-18T09:14:00.000Z</time>
</trkpt>
<trkpt lat="45.9018950" lon="9.8350390">
	<ele>1780.20</ele>
	<time>2023-11-18T09:14:01.000Z</time>
</trkpt>
<trkpt lat="45.9018990" lon="9.8350420">
	<ele>1780.40</ele>
	<time>2023-11-18T09:14:02.000Z</time>
</trkpt>
<trkpt lat="45.9018990" lon="9.8350470">
	<ele>1780.60</ele>
	<time>2023-11-18T09:14:03.000Z</time>
</trkpt>
<trkpt lat="45.9019010" lon="9.8350520">
	<ele>1780.80</ele>
	<time>2023-11-18T09:14:04.000Z</time>
</trkpt>
<trkpt lat="45.9019060" lon="9.8350540">
	<ele>1781.00</ele>
	<time>2023-11-18T09:14:05.000Z</time>
</trkpt>
<trkpt lat="45.9019110" lon="9.8350550">
	<ele>1781.00</ele>
	<time>2023-11-18T09:14:06.000Z</time>
</trkpt>
<trkpt lat="45.9019190" lon="9.8350510">
	<ele>1781.20</ele>
	<time>2023-11-18T09:14:07.000Z</time>
</trkpt>
<trkpt lat="45.9019270" lon="9.8350460">
	<ele>1781.20</ele>
	<time>2023-11-18T09:14:08.000Z</time>
</trkpt>
<trkpt lat="45.9019320" lon="9.8350460">
	<ele>1781.20</ele>
	<time>2023-11-18T09:14:09.000Z</time>
</trkpt>
<trkpt lat="45.9019350" lon="9.8350490">
	<ele>1781.20</ele>
	<time>2023-11-18T09:14:10.000Z</time>
</trkpt>
<trkpt lat="45.9019380" lon="9.8350550">
	<ele>1781.40</ele>
	<time>2023-11-18T09:14:11.000Z</time>
</trkpt>
<trkpt lat="45.9019420" lon="9.8350600">
	<ele>1781.40</ele>
	<time>2023-11-18T09:14:12.000Z</time>
</trkpt>
<trkpt lat="45.9019440" lon="9.8350670">
	<ele>1781.40</ele>
	<time>2023-11-18T09:14:13.000Z</time>
</trkpt>
<trkpt lat="45.9019450" lon="9.8350720">
	<ele>1781.40</ele>
	<time>2023-11-18T09:14:14.000Z</time>
</trkpt>
<trkpt lat="45.9019450" lon="9.8350750">
	<ele>1781.80</ele>
	<time>2023-11-18T09:14:15.000Z</time>
</trkpt>
<trkpt lat="45.9019460" lon="9.8350780">
	<ele>1781.80</ele>
	<time>2023-11-18T09:14:16.000Z</time>
</trkpt>
<trkpt lat="45.9019510" lon="9.8350830">
	<ele>1782.00</ele>
	<time>2023-11-18T09:14:17.000Z</time>
</trkpt>
<trkpt lat="45.9019560" lon="9.8350870">
	<ele>1782.20</ele>
	<time>2023-11-18T09:14:18.000Z</time>
</trkpt>
<trkpt lat="45.9019600" lon="9.8350910">
	<ele>1782.20</ele>
	<time>2023-11-18T09:14:19.000Z</time>
</trkpt>
<trkpt lat="45.9019660" lon="9.8350950">
	<ele>1782.40</ele>
	<time>2023-11-18T09:14:20.000Z</time>
</trkpt>
<trkpt lat="45.9019720" lon="9.8351010">
	<ele>1782.40</ele>
	<time>2023-11-18T09:14:21.000Z</time>
</trkpt>
<trkpt lat="45.9019760" lon="9.8351040">
	<ele>1782.60</ele>
	<time>2023-11-18T09:14:22.000Z</time>
</trkpt>
<trkpt lat="45.9019790" lon="9.8351070">
	<ele>1782.80</ele>
	<time>2023-11-18T09:14:23.000Z</time>
</trkpt>
<trkpt lat="45.9019780" lon="9.8351140">
	<ele>1783.00</ele>
	<time>2023-11-18T09:14:24.000Z</time>
</trkpt>
<trkpt lat="45.9019770" lon="9.8351220">
	<ele>1783.20</ele>
	<time>2023-11-18T09:14:25.000Z</time>
</trkpt>
<trkpt lat="45.9019770" lon="9.8351330">
	<ele>1783.20</ele>
	<time>2023-11-18T09:14:26.000Z</time>
</trkpt>
<trkpt lat="45.9019760" lon="9.8351390">
	<ele>1783.20</ele>
	<time>2023-11-18T09:14:27.000Z</time>
</trkpt>
<trkpt lat="45.9019750" lon="9.8351450">
	<ele>1783.40</ele>
	<time>2023-11-18T09:14:28.000Z</time>
</trkpt>
<trkpt lat="45.9019740" lon="9.8351540">
	<ele>1783.40</ele>
	<time>2023-11-18T09:14:29.000Z</time>
</trkpt>
<trkpt lat="45.9019730" lon="9.8351560">
	<ele>1783.40</ele>
	<time>2023-11-18T09:14:30.000Z</time>
</trkpt>
<trkpt lat="45.9019710" lon="9.8351630">
	<ele>1783.60</ele>
	<time>2023-11-18T09:14:31.000Z</time>
</trkpt>
<trkpt lat="45.9019700" lon="9.8351680">
	<ele>1783.80</ele>
	<time>2023-11-18T09:14:32.000Z</time>
</trkpt>
<trkpt lat="45.9019690" lon="9.8351760">
	<ele>1784.00</ele>
	<time>2023-11-18T09:14:33.000Z</time>
</trkpt>
<trkpt lat="45.9019710" lon="9.8351860">
	<ele>1784.00</ele>
	<time>2023-11-18T09:14:34.000Z</time>
</trkpt>
<trkpt lat="45.9019740" lon="9.8351910">
	<ele>1784.00</ele>
	<time>2023-11-18T09:14:35.000Z</time>
</trkpt>
<trkpt lat="45.9019810" lon="9.8351960">
	<ele>1784.00</ele>
	<time>2023-11-18T09:14:36.000Z</time>
</trkpt>
<trkpt lat="45.9019900" lon="9.8351940">
	<ele>1784.20</ele>
	<time>2023-11-18T09:14:37.000Z</time>
</trkpt>
<trkpt lat="45.9019930" lon="9.8351990">
	<ele>1784.20</ele>
	<time>2023-11-18T09:14:38.000Z</time>
</trkpt>
<trkpt lat="45.9019990" lon="9.8352050">
	<ele>1784.40</ele>
	<time>2023-11-18T09:14:39.000Z</time>
</trkpt>
<trkpt lat="45.9020030" lon="9.8352130">
	<ele>1784.80</ele>
	<time>2023-11-18T09:14:40.000Z</time>
</trkpt>
<trkpt lat="45.9020070" lon="9.8352190">
	<ele>1785.00</ele>
	<time>2023-11-18T09:14:41.000Z</time>
</trkpt>
<trkpt lat="45.9020100" lon="9.8352230">
	<ele>1785.20</ele>
	<time>2023-11-18T09:14:42.000Z</time>
</trkpt>
<trkpt lat="45.9020140" lon="9.8352290">
	<ele>1785.40</ele>
	<time>2023-11-18T09:14:43.000Z</time>
</trkpt>
<trkpt lat="45.9020180" lon="9.8352340">
	<ele>1785.40</ele>
	<time>2023-11-18T09:14:44.000Z</time>
</trkpt>
<trkpt lat="45.9020270" lon="9.8352350">
	<ele>1785.60</ele>
	<time>2023-11-18T09:14:45.000Z</time>
</trkpt>
<trkpt lat="45.9020330" lon="9.8352400">
	<ele>1785.60</ele>
	<time>2023-11-18T09:14:46.000Z</time>
</trkpt>
<trkpt lat="45.9020380" lon="9.8352430">
	<ele>1785.80</ele>
	<time>2023-11-18T09:14:47.000Z</time>
</trkpt>
<trkpt lat="45.9020420" lon="9.8352430">
	<ele>1785.80</ele>
	<time>2023-11-18T09:14:48.000Z</time>
</trkpt>
<trkpt lat="45.9020490" lon="9.8352470">
	<ele>1786.00</ele>
	<time>2023-11-18T09:14:49.000Z</time>
</trkpt>
<trkpt lat="45.9020560" lon="9.8352530">
	<ele>1786.00</ele>
	<time>2023-11-18T09:14:50.000Z</time>
</trkpt>
<trkpt lat="45.9020620" lon="9.8352550">
	<ele>1786.40</ele>
	<time>2023-11-18T09:14:51.000Z</time>
</trkpt>
<trkpt lat="45.9020670" lon="9.8352530">
	<ele>1786.40</ele>
	<time>2023-11-18T09:14:52.000Z</time>
</trkpt>
<trkpt lat="45.9020720" lon="9.8352530">
	<ele>1786.60</ele>
	<time>2023-11-18T09:14:53.000Z</time>
</trkpt>
<trkpt lat="45.9020780" lon="9.8352520">
	<ele>1786.60</ele>
	<time>2023-11-18T09:14:54.000Z</time>
</trkpt>
<trkpt lat="45.9020860" lon="9.8352500">
	<ele>1786.60</ele>
	<time>2023-11-18T09:14:55.000Z</time>
</trkpt>
<trkpt lat="45.9020930" lon="9.8352510">
	<ele>1786.80</ele>
	<time>2023-11-18T09:14:56.000Z</time>
</trkpt>
<trkpt lat="45.9020970" lon="9.8352570">
	<ele>1786.60</ele>
	<time>2023-11-18T09:14:57.000Z</time>
</trkpt>
<trkpt lat="45.9021030" lon="9.8352620">
	<ele>1786.40</ele>
	<time>2023-11-18T09:14:58.000Z</time>
</trkpt>
<trkpt lat="45.9021070" lon="9.8352650">
	<ele>1786.20</ele>
	<time>2023-11-18T09:14:59.000Z</time>
</trkpt>
<trkpt lat="45.9021140" lon="9.8352680">
	<ele>1786.20</ele>
	<time>2023-11-18T09:15:00.000Z</time>
</trkpt>
<trkpt lat="45.9021180" lon="9.8352690">
	<ele>1786.00</ele>
	<time>2023-11-18T09:15:01.000Z</time>
</trkpt>
<trkpt lat="45.9021210" lon="9.8352710">
	<ele>1786.00</ele>
	<time>2023-11-18T09:15:02.000Z</time>
</trkpt>
<trkpt lat="45.9021230" lon="9.8352710">
	<ele>1786.00</ele>
	<time>2023-11-18T09:15:03.000Z</time>
</trkpt>
<trkpt lat="45.9021250" lon="9.8352720">
	<ele>1785.80</ele>
	<time>2023-11-18T09:15:04.000Z</time>
</trkpt>
<trkpt lat="45.9021250" lon="9.8352720">
	<ele>1785.80</ele>
	<time>2023-11-18T09:15:05.000Z</time>
</trkpt>
<trkpt lat="45.9021310" lon="9.8352720">
	<ele>1785.60</ele>
	<time>2023-11-18T09:15:06.000Z</time>
</trkpt>
<trkpt lat="45.9021330" lon="9.8352700">
	<ele>1785.60</ele>
	<time>2023-11-18T09:15:07.000Z</time>
</trkpt>
<trkpt lat="45.9021310" lon="9.8352720">
	<ele>1785.60</ele>
	<time>2023-11-18T09:15:08.000Z</time>
</trkpt>
<trkpt lat="45.9021320" lon="9.8352700">
	<ele>1785.40</ele>
	<time>2023-11-18T09:15:09.000Z</time>
</trkpt>
<trkpt lat="45.9021280" lon="9.8352710">
	<ele>1785.40</ele>
	<time>2023-11-18T09:15:10.000Z</time>
</trkpt>
<trkpt lat="45.9021270" lon="9.8352710">
	<ele>1785.40</ele>
	<time>2023-11-18T09:15:11.000Z</time>
</trkpt>
<trkpt lat="45.9021270" lon="9.8352710">
	<ele>1785.60</ele>
	<time>2023-11-18T09:15:12.000Z</time>
</trkpt>
<trkpt lat="45.9021280" lon="9.8352700">
	<ele>1785.60</ele>
	<time>2023-11-18T09:15:13.000Z</time>
</trkpt>
<trkpt lat="45.9021280" lon="9.8352710">
	<ele>1785.60</ele>
	<time>2023-11-18T09:15:14.000Z</time>
</trkpt>
<trkpt lat="45.9021280" lon="9.8352710">
	<ele>1785.60</ele>
	<time>2023-11-18T09:15:15.000Z</time>
</trkpt>
<trkpt lat="45.9021280" lon="9.8352710">
	<ele>1785.60</ele>
	<time>2023-11-18T09:15:16.000Z</time>
</trkpt>
<trkpt lat="45.9021280" lon="9.8352710">
	<ele>1785.60</ele>
	<time>2023-11-18T09:15:17.000Z</time>
</trkpt>
<trkpt lat="45.9021280" lon="9.8352710">
	<ele>1785.60</ele>
	<time>2023-11-18T09:15:18.000Z</time>
</trkpt>
<trkpt lat="45.9021280" lon="9.8352710">
	<ele>1785.60</ele>
	<time>2023-11-18T09:15:19.000Z</time>
</trkpt>
<trkpt lat="45.9021280" lon="9.8352710">
	<ele>1785.80</ele>
	<time>2023-11-18T09:15:20.000Z</time>
</trkpt>
<trkpt lat="45.9021280" lon="9.8352710">
	<ele>1785.80</ele>
	<time>2023-11-18T09:15:21.000Z</time>
</trkpt>
<trkpt lat="45.9021280" lon="9.8352710">
	<ele>1786.00</ele>
	<time>2023-11-18T09:15:22.000Z</time>
</trkpt>
<trkpt lat="45.9021280" lon="9.8352710">
	<ele>1786.00</ele>
	<time>2023-11-18T09:15:23.000Z</time>
</trkpt>
<trkpt lat="45.9021330" lon="9.8352750">
	<ele>1786.00</ele>
	<time>2023-11-18T09:15:24.000Z</time>
</trkpt>
<trkpt lat="45.9021450" lon="9.8352820">
	<ele>1786.20</ele>
	<time>2023-11-18T09:15:25.000Z</time>
</trkpt>
<trkpt lat="45.9021570" lon="9.8352860">
	<ele>1786.20</ele>
	<time>2023-11-18T09:15:26.000Z</time>
</trkpt>
<trkpt lat="45.9021720" lon="9.8352880">
	<ele>1786.20</ele>
	<time>2023-11-18T09:15:27.000Z</time>
</trkpt>
<trkpt lat="45.9021880" lon="9.8352910">
	<ele>1786.40</ele>
	<time>2023-11-18T09:15:28.000Z</time>
</trkpt>
<trkpt lat="45.9022000" lon="9.8352930">
	<ele>1786.60</ele>
	<time>2023-11-18T09:15:29.000Z</time>
</trkpt>
<trkpt lat="45.9022100" lon="9.8352980">
	<ele>1786.80</ele>
	<time>2023-11-18T09:15:30.000Z</time>
</trkpt>
<trkpt lat="45.9022220" lon="9.8353020">
	<ele>1787.00</ele>
	<time>2023-11-18T09:15:31.000Z</time>
</trkpt>
<trkpt lat="45.9022340" lon="9.8353100">
	<ele>1787.00</ele>
	<time>2023-11-18T09:15:32.000Z</time>
</trkpt>
<trkpt lat="45.9022460" lon="9.8353200">
	<ele>1787.20</ele>
	<time>2023-11-18T09:15:33.000Z</time>
</trkpt>
<trkpt lat="45.9022530" lon="9.8353250">
	<ele>1787.20</ele>
	<time>2023-11-18T09:15:34.000Z</time>
</trkpt>
<trkpt lat="45.9022590" lon="9.8353310">
	<ele>1787.40</ele>
	<time>2023-11-18T09:15:35.000Z</time>
</trkpt>
<trkpt lat="45.9022690" lon="9.8353360">
	<ele>1787.40</ele>
	<time>2023-11-18T09:15:36.000Z</time>
</trkpt>
<trkpt lat="45.9022800" lon="9.8353410">
	<ele>1787.60</ele>
	<time>2023-11-18T09:15:37.000Z</time>
</trkpt>
<trkpt lat="45.9022870" lon="9.8353480">
	<ele>1787.60</ele>
	<time>2023-11-18T09:15:38.000Z</time>
</trkpt>
<trkpt lat="45.9022910" lon="9.8353600">
	<ele>1787.80</ele>
	<time>2023-11-18T09:15:39.000Z</time>
</trkpt>
<trkpt lat="45.9022980" lon="9.8353690">
	<ele>1788.00</ele>
	<time>2023-11-18T09:15:40.000Z</time>
</trkpt>
<trkpt lat="45.9023050" lon="9.8353730">
	<ele>1788.00</ele>
	<time>2023-11-18T09:15:41.000Z</time>
</trkpt>
<trkpt lat="45.9023120" lon="9.8353770">
	<ele>1788.00</ele>
	<time>2023-11-18T09:15:42.000Z</time>
</trkpt>
<trkpt lat="45.9023180" lon="9.8353800">
	<ele>1788.20</ele>
	<time>2023-11-18T09:15:43.000Z</time>
</trkpt>
<trkpt lat="45.9023210" lon="9.8353860">
	<ele>1788.40</ele>
	<time>2023-11-18T09:15:44.000Z</time>
</trkpt>
<trkpt lat="45.9023270" lon="9.8353930">
	<ele>1788.40</ele>
	<time>2023-11-18T09:15:45.000Z</time>
</trkpt>
<trkpt lat="45.9023290" lon="9.8354010">
	<ele>1788.60</ele>
	<time>2023-11-18T09:15:46.000Z</time>
</trkpt>
<trkpt lat="45.9023320" lon="9.8354080">
	<ele>1788.60</ele>
	<time>2023-11-18T09:15:47.000Z</time>
</trkpt>
<trkpt lat="45.9023400" lon="9.8354160">
	<ele>1788.60</ele>
	<time>2023-11-18T09:15:48.000Z</time>
</trkpt>
<trkpt lat="45.9023490" lon="9.8354220">
	<ele>1788.60</ele>
	<time>2023-11-18T09:15:49.000Z</time>
</trkpt>
<trkpt lat="45.9023560" lon="9.8354270">
	<ele>1788.60</ele>
	<time>2023-11-18T09:15:50.000Z</time>
</trkpt>
<trkpt lat="45.9023620" lon="9.8354360">
	<ele>1788.60</ele>
	<time>2023-11-18T09:15:51.000Z</time>
</trkpt>
<trkpt lat="45.9023690" lon="9.8354480">
	<ele>1788.60</ele>
	<time>2023-11-18T09:15:52.000Z</time>
</trkpt>
<trkpt lat="45.9023770" lon="9.8354600">
	<ele>1788.60</ele>
	<time>2023-11-18T09:15:53.000Z</time>
</trkpt>
<trkpt lat="45.9023820" lon="9.8354690">
	<ele>1788.60</ele>
	<time>2023-11-18T09:15:54.000Z</time>
</trkpt>
<trkpt lat="45.9023850" lon="9.8354790">
	<ele>1788.80</ele>
	<time>2023-11-18T09:15:55.000Z</time>
</trkpt>
<trkpt lat="45.9023880" lon="9.8354910">
	<ele>1788.80</ele>
	<time>2023-11-18T09:15:56.000Z</time>
</trkpt>
<trkpt lat="45.9023900" lon="9.8355020">
	<ele>1789.00</ele>
	<time>2023-11-18T09:15:57.000Z</time>
</trkpt>
<trkpt lat="45.9023920" lon="9.8355110">
	<ele>1789.20</ele>
	<time>2023-11-18T09:15:58.000Z</time>
</trkpt>
<trkpt lat="45.9023980" lon="9.8355170">
	<ele>1789.40</ele>
	<time>2023-11-18T09:15:59.000Z</time>
</trkpt>
<trkpt lat="45.9024030" lon="9.8355250">
	<ele>1789.40</ele>
	<time>2023-11-18T09:16:00.000Z</time>
</trkpt>
<trkpt lat="45.9024080" lon="9.8355340">
	<ele>1789.60</ele>
	<time>2023-11-18T09:16:01.000Z</time>
</trkpt>
<trkpt lat="45.9024140" lon="9.8355400">
	<ele>1789.80</ele>
	<time>2023-11-18T09:16:02.000Z</time>
</trkpt>
<trkpt lat="45.9024180" lon="9.8355490">
	<ele>1789.80</ele>
	<time>2023-11-18T09:16:03.000Z</time>
</trkpt>
<trkpt lat="45.9024250" lon="9.8355560">
	<ele>1790.00</ele>
	<time>2023-11-18T09:16:04.000Z</time>
</trkpt>
<trkpt lat="45.9024330" lon="9.8355620">
	<ele>1790.00</ele>
	<time>2023-11-18T09:16:05.000Z</time>
</trkpt>
<trkpt lat="45.9024400" lon="9.8355690">
	<ele>1790.00</ele>
	<time>2023-11-18T09:16:06.000Z</time>
</trkpt>
<trkpt lat="45.9024460" lon="9.8355800">
	<ele>1790.20</ele>
	<time>2023-11-18T09:16:07.000Z</time>
</trkpt>
<trkpt lat="45.9024520" lon="9.8355880">
	<ele>1790.40</ele>
	<time>2023-11-18T09:16:08.000Z</time>
</trkpt>
<trkpt lat="45.9024570" lon="9.8355930">
	<ele>1790.40</ele>
	<time>2023-11-18T09:16:09.000Z</time>
</trkpt>
<trkpt lat="45.9024620" lon="9.8355980">
	<ele>1790.60</ele>
	<time>2023-11-18T09:16:10.000Z</time>
</trkpt>
<trkpt lat="45.9024640" lon="9.8356050">
	<ele>1790.60</ele>
	<time>2023-11-18T09:16:11.000Z</time>
</trkpt>
<trkpt lat="45.9024660" lon="9.8356130">
	<ele>1790.60</ele>
	<time>2023-11-18T09:16:12.000Z</time>
</trkpt>
<trkpt lat="45.9024710" lon="9.8356160">
	<ele>1790.80</ele>
	<time>2023-11-18T09:16:13.000Z</time>
</trkpt>
<trkpt lat="45.9024730" lon="9.8356210">
	<ele>1790.80</ele>
	<time>2023-11-18T09:16:14.000Z</time>
</trkpt>
<trkpt lat="45.9024780" lon="9.8356270">
	<ele>1790.80</ele>
	<time>2023-11-18T09:16:15.000Z</time>
</trkpt>
<trkpt lat="45.9024860" lon="9.8356300">
	<ele>1791.00</ele>
	<time>2023-11-18T09:16:16.000Z</time>
</trkpt>
<trkpt lat="45.9024910" lon="9.8356330">
	<ele>1791.00</ele>
	<time>2023-11-18T09:16:17.000Z</time>
</trkpt>
<trkpt lat="45.9024970" lon="9.8356360">
	<ele>1791.00</ele>
	<time>2023-11-18T09:16:18.000Z</time>
</trkpt>
<trkpt lat="45.9025010" lon="9.8356430">
	<ele>1791.00</ele>
	<time>2023-11-18T09:16:19.000Z</time>
</trkpt>
<trkpt lat="45.9025060" lon="9.8356460">
	<ele>1791.00</ele>
	<time>2023-11-18T09:16:20.000Z</time>
</trkpt>
<trkpt lat="45.9025090" lon="9.8356490">
	<ele>1791.00</ele>
	<time>2023-11-18T09:16:21.000Z</time>
</trkpt>
<trkpt lat="45.9025130" lon="9.8356540">
	<ele>1791.00</ele>
	<time>2023-11-18T09:16:22.000Z</time>
</trkpt>
<trkpt lat="45.9025170" lon="9.8356570">
	<ele>1790.80</ele>
	<time>2023-11-18T09:16:23.000Z</time>
</trkpt>
<trkpt lat="45.9025200" lon="9.8356620">
	<ele>1790.80</ele>
	<time>2023-11-18T09:16:24.000Z</time>
</trkpt>
<trkpt lat="45.9025200" lon="9.8356650">
	<ele>1790.80</ele>
	<time>2023-11-18T09:16:25.000Z</time>
</trkpt>
<trkpt lat="45.9025230" lon="9.8356720">
	<ele>1790.80</ele>
	<time>2023-11-18T09:16:26.000Z</time>
</trkpt>
<trkpt lat="45.9025280" lon="9.8356770">
	<ele>1790.80</ele>
	<time>2023-11-18T09:16:27.000Z</time>
</trkpt>
<trkpt lat="45.9025360" lon="9.8356790">
	<ele>1790.80</ele>
	<time>2023-11-18T09:16:28.000Z</time>
</trkpt>
<trkpt lat="45.9025410" lon="9.8356810">
	<ele>1790.80</ele>
	<time>2023-11-18T09:16:29.000Z</time>
</trkpt>
<trkpt lat="45.9025440" lon="9.8356820">
	<ele>1791.00</ele>
	<time>2023-11-18T09:16:30.000Z</time>
</trkpt>
<trkpt lat="45.9025460" lon="9.8356820">
	<ele>1791.00</ele>
	<time>2023-11-18T09:16:31.000Z</time>
</trkpt>
<trkpt lat="45.9025470" lon="9.8356820">
	<ele>1791.00</ele>
	<time>2023-11-18T09:16:32.000Z</time>
</trkpt>
<trkpt lat="45.9025480" lon="9.8356830">
	<ele>1791.00</ele>
	<time>2023-11-18T09:16:33.000Z</time>
</trkpt>
<trkpt lat="45.9025490" lon="9.8356830">
	<ele>1791.00</ele>
	<time>2023-11-18T09:16:34.000Z</time>
</trkpt>
<trkpt lat="45.9025470" lon="9.8356830">
	<ele>1791.00</ele>
	<time>2023-11-18T09:16:35.000Z</time>
</trkpt>
<trkpt lat="45.9025470" lon="9.8356830">
	<ele>1791.00</ele>
	<time>2023-11-18T09:16:36.000Z</time>
</trkpt>
<trkpt lat="45.9025480" lon="9.8356830">
	<ele>1791.00</ele>
	<time>2023-11-18T09:16:37.000Z</time>
</trkpt>
<trkpt lat="45.9025480" lon="9.8356830">
	<ele>1791.00</ele>
	<time>2023-11-18T09:16:38.000Z</time>
</trkpt>
<trkpt lat="45.9025480" lon="9.8356830">
	<ele>1790.80</ele>
	<time>2023-11-18T09:16:39.000Z</time>
</trkpt>
<trkpt lat="45.9025480" lon="9.8356830">
	<ele>1790.80</ele>
	<time>2023-11-18T09:16:40.000Z</time>
</trkpt>
<trkpt lat="45.9025480" lon="9.8356830">
	<ele>1790.60</ele>
	<time>2023-11-18T09:16:41.000Z</time>
</trkpt>
<trkpt lat="45.9025480" lon="9.8356830">
	<ele>1790.60</ele>
	<time>2023-11-18T09:16:42.000Z</time>
</trkpt>
<trkpt lat="45.9025480" lon="9.8356830">
	<ele>1790.60</ele>
	<time>2023-11-18T09:16:43.000Z</time>
</trkpt>
<trkpt lat="45.9025480" lon="9.8356830">
	<ele>1790.60</ele>
	<time>2023-11-18T09:16:44.000Z</time>
</trkpt>
<trkpt lat="45.9025480" lon="9.8356830">
	<ele>1790.60</ele>
	<time>2023-11-18T09:16:45.000Z</time>
</trkpt>
<trkpt lat="45.9025480" lon="9.8356830">
	<ele>1790.60</ele>
	<time>2023-11-18T09:16:46.000Z</time>
</trkpt>
<trkpt lat="45.9025480" lon="9.8356830">
	<ele>1790.60</ele>
	<time>2023-11-18T09:16:47.000Z</time>
</trkpt>
<trkpt lat="45.9025480" lon="9.8356830">
	<ele>1790.60</ele>
	<time>2023-11-18T09:16:48.000Z</time>
</trkpt>
<trkpt lat="45.9025480" lon="9.8356830">
	<ele>1790.60</ele>
	<time>2023-11-18T09:16:49.000Z</time>
</trkpt>
<trkpt lat="45.9025480" lon="9.8356830">
	<ele>1790.60</ele>
	<time>2023-11-18T09:16:50.000Z</time>
</trkpt>
<trkpt lat="45.9025480" lon="9.8356820">
	<ele>1790.60</ele>
	<time>2023-11-18T09:16:51.000Z</time>
</trkpt>
<trkpt lat="45.9025480" lon="9.8356820">
	<ele>1790.60</ele>
	<time>2023-11-18T09:16:52.000Z</time>
</trkpt>
<trkpt lat="45.9025480" lon="9.8356820">
	<ele>1790.40</ele>
	<time>2023-11-18T09:16:53.000Z</time>
</trkpt>
<trkpt lat="45.9025480" lon="9.8356820">
	<ele>1790.40</ele>
	<time>2023-11-18T09:16:54.000Z</time>
</trkpt>
<trkpt lat="45.9025480" lon="9.8356820">
	<ele>1790.40</ele>
	<time>2023-11-18T09:16:55.000Z</time>
</trkpt>
<trkpt lat="45.9025480" lon="9.8356820">
	<ele>1790.40</ele>
	<time>2023-11-18T09:16:56.000Z</time>
</trkpt>
<trkpt lat="45.9025480" lon="9.8356820">
	<ele>1790.20</ele>
	<time>2023-11-18T09:16:57.000Z</time>
</trkpt>
<trkpt lat="45.9025490" lon="9.8356820">
	<ele>1790.20</ele>
	<time>2023-11-18T09:16:58.000Z</time>
</trkpt>
<trkpt lat="45.9025490" lon="9.8356820">
	<ele>1790.20</ele>
	<time>2023-11-18T09:16:59.000Z</time>
</trkpt>
<trkpt lat="45.9025490" lon="9.8356820">
	<ele>1790.00</ele>
	<time>2023-11-18T09:17:00.000Z</time>
</trkpt>
<trkpt lat="45.9025490" lon="9.8356820">
	<ele>1789.80</ele>
	<time>2023-11-18T09:17:01.000Z</time>
</trkpt>
<trkpt lat="45.9025500" lon="9.8356820">
	<ele>1789.80</ele>
	<time>2023-11-18T09:17:02.000Z</time>
</trkpt>
<trkpt lat="45.9025500" lon="9.8356830">
	<ele>1789.80</ele>
	<time>2023-11-18T09:17:03.000Z</time>
</trkpt>
<trkpt lat="45.9025500" lon="9.8356830">
	<ele>1789.60</ele>
	<time>2023-11-18T09:17:04.000Z</time>
</trkpt>
<trkpt lat="45.9025500" lon="9.8356830">
	<ele>1789.40</ele>
	<time>2023-11-18T09:17:05.000Z</time>
</trkpt>
<trkpt lat="45.9025500" lon="9.8356830">
	<ele>1789.40</ele>
	<time>2023-11-18T09:17:06.000Z</time>
</trkpt>
<trkpt lat="45.9025500" lon="9.8356830">
	<ele>1789.20</ele>
	<time>2023-11-18T09:17:07.000Z</time>
</trkpt>
<trkpt lat="45.9025500" lon="9.8356860">
	<ele>1789.00</ele>
	<time>2023-11-18T09:17:08.000Z</time>
</trkpt>
<trkpt lat="45.9025500" lon="9.8356920">
	<ele>1789.00</ele>
	<time>2023-11-18T09:17:09.000Z</time>
</trkpt>
<trkpt lat="45.9025490" lon="9.8356970">
	<ele>1788.80</ele>
	<time>2023-11-18T09:17:10.000Z</time>
</trkpt>
<trkpt lat="45.9025490" lon="9.8357060">
	<ele>1788.80</ele>
	<time>2023-11-18T09:17:11.000Z</time>
</trkpt>
<trkpt lat="45.9025490" lon="9.8357140">
	<ele>1788.60</ele>
	<time>2023-11-18T09:17:12.000Z</time>
</trkpt>
<trkpt lat="45.9025490" lon="9.8357230">
	<ele>1788.20</ele>
	<time>2023-11-18T09:17:13.000Z</time>
</trkpt>
<trkpt lat="45.9025480" lon="9.8357310">
	<ele>1788.20</ele>
	<time>2023-11-18T09:17:14.000Z</time>
</trkpt>
<trkpt lat="45.9025470" lon="9.8357370">
	<ele>1788.00</ele>
	<time>2023-11-18T09:17:15.000Z</time>
</trkpt>
<trkpt lat="45.9025470" lon="9.8357430">
	<ele>1787.80</ele>
	<time>2023-11-18T09:17:16.000Z</time>
</trkpt>
<trkpt lat="45.9025470" lon="9.8357520">
	<ele>1787.40</ele>
	<time>2023-11-18T09:17:17.000Z</time>
</trkpt>
<trkpt lat="45.9025440" lon="9.8357640">
	<ele>1787.00</ele>
	<time>2023-11-18T09:17:18.000Z</time>
</trkpt>
<trkpt lat="45.9025360" lon="9.8357860">
	<ele>1786.60</ele>
	<time>2023-11-18T09:17:19.000Z</time>
</trkpt>
<trkpt lat="45.9025310" lon="9.8358070">
	<ele>1786.60</ele>
	<time>2023-11-18T09:17:20.000Z</time>
</trkpt>
<trkpt lat="45.9025250" lon="9.8358270">
	<ele>1786.20</ele>
	<time>2023-11-18T09:17:21.000Z</time>
</trkpt>
<trkpt lat="45.9025190" lon="9.8358510">
	<ele>1786.20</ele>
	<time>2023-11-18T09:17:22.000Z</time>
</trkpt>
<trkpt lat="45.9025170" lon="9.8358740">
	<ele>1786.00</ele>
	<time>2023-11-18T09:17:23.000Z</time>
</trkpt>
<trkpt lat="45.9025130" lon="9.8358920">
	<ele>1786.00</ele>
	<time>2023-11-18T09:17:24.000Z</time>
</trkpt>
<trkpt lat="45.9025090" lon="9.8359110">
	<ele>1785.60</ele>
	<time>2023-11-18T09:17:25.000Z</time>
</trkpt>
<trkpt lat="45.9025040" lon="9.8359350">
	<ele>1785.60</ele>
	<time>2023-11-18T09:17:26.000Z</time>
</trkpt>
<trkpt lat="45.9024970" lon="9.8359580">
	<ele>1785.40</ele>
	<time>2023-11-18T09:17:27.000Z</time>
</trkpt>
<trkpt lat="45.9024920" lon="9.8359690">
	<ele>1785.20</ele>
	<time>2023-11-18T09:17:28.000Z</time>
</trkpt>
<trkpt lat="45.9024870" lon="9.8359810">
	<ele>1785.00</ele>
	<time>2023-11-18T09:17:29.000Z</time>
</trkpt>
<trkpt lat="45.9024850" lon="9.8359950">
	<ele>1784.80</ele>
	<time>2023-11-18T09:17:30.000Z</time>
</trkpt>
<trkpt lat="45.9024830" lon="9.8360120">
	<ele>1784.60</ele>
	<time>2023-11-18T09:17:31.000Z</time>
</trkpt>
<trkpt lat="45.9024830" lon="9.8360280">
	<ele>1784.60</ele>
	<time>2023-11-18T09:17:32.000Z</time>
</trkpt>
<trkpt lat="45.9024840" lon="9.8360340">
	<ele>1784.60</ele>
	<time>2023-11-18T09:17:33.000Z</time>
</trkpt>
<trkpt lat="45.9024810" lon="9.8360420">
	<ele>1784.60</ele>
	<time>2023-11-18T09:17:34.000Z</time>
</trkpt>
<trkpt lat="45.9024790" lon="9.8360550">
	<ele>1784.60</ele>
	<time>2023-11-18T09:17:35.000Z</time>
</trkpt>
<trkpt lat="45.9024750" lon="9.8360680">
	<ele>1784.60</ele>
	<time>2023-11-18T09:17:36.000Z</time>
</trkpt>
<trkpt lat="45.9024740" lon="9.8360800">
	<ele>1784.60</ele>
	<time>2023-11-18T09:17:37.000Z</time>
</trkpt>
<trkpt lat="45.9024740" lon="9.8360900">
	<ele>1784.60</ele>
	<time>2023-11-18T09:17:38.000Z</time>
</trkpt>
<trkpt lat="45.9024780" lon="9.8361030">
	<ele>1784.80</ele>
	<time>2023-11-18T09:17:39.000Z</time>
</trkpt>
<trkpt lat="45.9024800" lon="9.8361140">
	<ele>1784.80</ele>
	<time>2023-11-18T09:17:40.000Z</time>
</trkpt>
<trkpt lat="45.9024830" lon="9.8361250">
	<ele>1785.00</ele>
	<time>2023-11-18T09:17:41.000Z</time>
</trkpt>
<trkpt lat="45.9024850" lon="9.8361390">
	<ele>1785.20</ele>
	<time>2023-11-18T09:17:42.000Z</time>
</trkpt>
<trkpt lat="45.9024840" lon="9.8361490">
	<ele>1785.40</ele>
	<time>2023-11-18T09:17:43.000Z</time>
</trkpt>
<trkpt lat="45.9024860" lon="9.8361630">
	<ele>1785.60</ele>
	<time>2023-11-18T09:17:44.000Z</time>
</trkpt>
<trkpt lat="45.9024840" lon="9.8361740">
	<ele>1785.60</ele>
	<time>2023-11-18T09:17:45.000Z</time>
</trkpt>
<trkpt lat="45.9024840" lon="9.8361830">
	<ele>1786.00</ele>
	<time>2023-11-18T09:17:46.000Z</time>
</trkpt>
<trkpt lat="45.9024820" lon="9.8361930">
	<ele>1786.00</ele>
	<time>2023-11-18T09:17:47.000Z</time>
</trkpt>
<trkpt lat="45.9024810" lon="9.8362030">
	<ele>1786.20</ele>
	<time>2023-11-18T09:17:48.000Z</time>
</trkpt>
<trkpt lat="45.9024820" lon="9.8362120">
	<ele>1786.40</ele>
	<time>2023-11-18T09:17:49.000Z</time>
</trkpt>
<trkpt lat="45.9024810" lon="9.8362190">
	<ele>1786.40</ele>
	<time>2023-11-18T09:17:50.000Z</time>
</trkpt>
<trkpt lat="45.9024840" lon="9.8362260">
	<ele>1786.40</ele>
	<time>2023-11-18T09:17:51.000Z</time>
</trkpt>
<trkpt lat="45.9024910" lon="9.8362330">
	<ele>1786.60</ele>
	<time>2023-11-18T09:17:52.000Z</time>
</trkpt>
<trkpt lat="45.9024960" lon="9.8362370">
	<ele>1786.80</ele>
	<time>2023-11-18T09:17:53.000Z</time>
</trkpt>
<trkpt lat="45.9025000" lon="9.8362390">
	<ele>1787.00</ele>
	<time>2023-11-18T09:17:54.000Z</time>
</trkpt>
<trkpt lat="45.9025070" lon="9.8362470">
	<ele>1787.00</ele>
	<time>2023-11-18T09:17:55.000Z</time>
</trkpt>
<trkpt lat="45.9025120" lon="9.8362540">
	<ele>1787.00</ele>
	<time>2023-11-18T09:17:56.000Z</time>
</trkpt>
<trkpt lat="45.9025170" lon="9.8362620">
	<ele>1787.20</ele>
	<time>2023-11-18T09:17:57.000Z</time>
</trkpt>
<trkpt lat="45.9025230" lon="9.8362670">
	<ele>1787.20</ele>
	<time>2023-11-18T09:17:58.000Z</time>
</trkpt>
<trkpt lat="45.9025290" lon="9.8362730">
	<ele>1787.20</ele>
	<time>2023-11-18T09:17:59.000Z</time>
</trkpt>
<trkpt lat="45.9025340" lon="9.8362810">
	<ele>1787.40</ele>
	<time>2023-11-18T09:18:00.000Z</time>
</trkpt>
<trkpt lat="45.9025380" lon="9.8362940">
	<ele>1787.40</ele>
	<time>2023-11-18T09:18:01.000Z</time>
</trkpt>
<trkpt lat="45.9025430" lon="9.8363040">
	<ele>1787.40</ele>
	<time>2023-11-18T09:18:02.000Z</time>
</trkpt>
<trkpt lat="45.9025490" lon="9.8363170">
	<ele>1787.40</ele>
	<time>2023-11-18T09:18:03.000Z</time>
</trkpt>
<trkpt lat="45.9025560" lon="9.8363290">
	<ele>1787.60</ele>
	<time>2023-11-18T09:18:04.000Z</time>
</trkpt>
<trkpt lat="45.9025600" lon="9.8363380">
	<ele>1787.60</ele>
	<time>2023-11-18T09:18:05.000Z</time>
</trkpt>
<trkpt lat="45.9025630" lon="9.8363480">
	<ele>1787.80</ele>
	<time>2023-11-18T09:18:06.000Z</time>
</trkpt>
<trkpt lat="45.9025660" lon="9.8363610">
	<ele>1787.80</ele>
	<time>2023-11-18T09:18:07.000Z</time>
</trkpt>
<trkpt lat="45.9025730" lon="9.8363780">
	<ele>1788.00</ele>
	<time>2023-11-18T09:18:08.000Z</time>
</trkpt>
<trkpt lat="45.9025770" lon="9.8363850">
	<ele>1788.00</ele>
	<time>2023-11-18T09:18:09.000Z</time>
</trkpt>
<trkpt lat="45.9025830" lon="9.8363930">
	<ele>1788.20</ele>
	<time>2023-11-18T09:18:10.000Z</time>
</trkpt>
<trkpt lat="45.9025880" lon="9.8363990">
	<ele>1788.60</ele>
	<time>2023-11-18T09:18:11.000Z</time>
</trkpt>
<trkpt lat="45.9025920" lon="9.8364060">
	<ele>1788.80</ele>
	<time>2023-11-18T09:18:12.000Z</time>
</trkpt>
<trkpt lat="45.9025960" lon="9.8364120">
	<ele>1788.80</ele>
	<time>2023-11-18T09:18:13.000Z</time>
</trkpt>
<trkpt lat="45.9025990" lon="9.8364210">
	<ele>1788.80</ele>
	<time>2023-11-18T09:18:14.000Z</time>
</trkpt>
<trkpt lat="45.9026000" lon="9.8364300">
	<ele>1789.00</ele>
	<time>2023-11-18T09:18:15.000Z</time>
</trkpt>
<trkpt lat="45.9026050" lon="9.8364400">
	<ele>1789.00</ele>
	<time>2023-11-18T09:18:16.000Z</time>
</trkpt>
<trkpt lat="45.9026090" lon="9.8364460">
	<ele>1789.20</ele>
	<time>2023-11-18T09:18:17.000Z</time>
</trkpt>
<trkpt lat="45.9026130" lon="9.8364590">
	<ele>1789.40</ele>
	<time>2023-11-18T09:18:18.000Z</time>
</trkpt>
<trkpt lat="45.9026190" lon="9.8364670">
	<ele>1789.40</ele>
	<time>2023-11-18T09:18:19.000Z</time>
</trkpt>
<trkpt lat="45.9026230" lon="9.8364730">
	<ele>1789.60</ele>
	<time>2023-11-18T09:18:20.000Z</time>
</trkpt>
<trkpt lat="45.9026280" lon="9.8364830">
	<ele>1789.60</ele>
	<time>2023-11-18T09:18:21.000Z</time>
</trkpt>
<trkpt lat="45.9026320" lon="9.8364920">
	<ele>1789.80</ele>
	<time>2023-11-18T09:18:22.000Z</time>
</trkpt>
<trkpt lat="45.9026340" lon="9.8365030">
	<ele>1789.80</ele>
	<time>2023-11-18T09:18:23.000Z</time>
</trkpt>
<trkpt lat="45.9026390" lon="9.8365100">
	<ele>1790.00</ele>
	<time>2023-11-18T09:18:24.000Z</time>
</trkpt>
<trkpt lat="45.9026460" lon="9.8365130">
	<ele>1790.00</ele>
	<time>2023-11-18T09:18:25.000Z</time>
</trkpt>
<trkpt lat="45.9026500" lon="9.8365210">
	<ele>1790.20</ele>
	<time>2023-11-18T09:18:26.000Z</time>
</trkpt>
<trkpt lat="45.9026550" lon="9.8365300">
	<ele>1790.20</ele>
	<time>2023-11-18T09:18:27.000Z</time>
</trkpt>
<trkpt lat="45.9026600" lon="9.8365370">
	<ele>1790.40</ele>
	<time>2023-11-18T09:18:28.000Z</time>
</trkpt>
<trkpt lat="45.9026630" lon="9.8365430">
	<ele>1790.40</ele>
	<time>2023-11-18T09:18:29.000Z</time>
</trkpt>
<trkpt lat="45.9026630" lon="9.8365470">
	<ele>1790.40</ele>
	<time>2023-11-18T09:18:30.000Z</time>
</trkpt>
<trkpt lat="45.9026630" lon="9.8365470">
	<ele>1790.60</ele>
	<time>2023-11-18T09:18:31.000Z</time>
</trkpt>
<trkpt lat="45.9026630" lon="9.8365460">
	<ele>1790.60</ele>
	<time>2023-11-18T09:18:32.000Z</time>
</trkpt>
<trkpt lat="45.9026620" lon="9.8365450">
	<ele>1790.80</ele>
	<time>2023-11-18T09:18:33.000Z</time>
</trkpt>
<trkpt lat="45.9026630" lon="9.8365460">
	<ele>1790.80</ele>
	<time>2023-11-18T09:18:34.000Z</time>
</trkpt>
<trkpt lat="45.9026610" lon="9.8365460">
	<ele>1790.80</ele>
	<time>2023-11-18T09:18:35.000Z</time>
</trkpt>
<trkpt lat="45.9026600" lon="9.8365450">
	<ele>1790.80</ele>
	<time>2023-11-18T09:18:36.000Z</time>
</trkpt>
<trkpt lat="45.9026590" lon="9.8365440">
	<ele>1791.00</ele>
	<time>2023-11-18T09:18:37.000Z</time>
</trkpt>
<trkpt lat="45.9026570" lon="9.8365420">
	<ele>1791.00</ele>
	<time>2023-11-18T09:18:38.000Z</time>
</trkpt>
<trkpt lat="45.9026570" lon="9.8365380">
	<ele>1791.00</ele>
	<time>2023-11-18T09:18:39.000Z</time>
</trkpt>
<trkpt lat="45.9026580" lon="9.8365370">
	<ele>1791.00</ele>
	<time>2023-11-18T09:18:40.000Z</time>
</trkpt>
<trkpt lat="45.9026600" lon="9.8365360">
	<ele>1791.20</ele>
	<time>2023-11-18T09:18:41.000Z</time>
</trkpt>
<trkpt lat="45.9026610" lon="9.8365370">
	<ele>1791.20</ele>
	<time>2023-11-18T09:18:42.000Z</time>
</trkpt>
<trkpt lat="45.9026640" lon="9.8365370">
	<ele>1791.40</ele>
	<time>2023-11-18T09:18:43.000Z</time>
</trkpt>
<trkpt lat="45.9026640" lon="9.8365350">
	<ele>1791.60</ele>
	<time>2023-11-18T09:18:44.000Z</time>
</trkpt>
<trkpt lat="45.9026640" lon="9.8365340">
	<ele>1791.60</ele>
	<time>2023-11-18T09:18:45.000Z</time>
</trkpt>
<trkpt lat="45.9026640" lon="9.8365340">
	<ele>1791.40</ele>
	<time>2023-11-18T09:18:46.000Z</time>
</trkpt>
<trkpt lat="45.9026640" lon="9.8365340">
	<ele>1791.40</ele>
	<time>2023-11-18T09:18:47.000Z</time>
</trkpt>
<trkpt lat="45.9026640" lon="9.8365340">
	<ele>1791.20</ele>
	<time>2023-11-18T09:18:48.000Z</time>
</trkpt>
<trkpt lat="45.9026640" lon="9.8365340">
	<ele>1791.00</ele>
	<time>2023-11-18T09:18:49.000Z</time>
</trkpt>
<trkpt lat="45.9026640" lon="9.8365340">
	<ele>1790.80</ele>
	<time>2023-11-18T09:18:50.000Z</time>
</trkpt>
<trkpt lat="45.9026640" lon="9.8365340">
	<ele>1790.80</ele>
	<time>2023-11-18T09:18:51.000Z</time>
</trkpt>
<trkpt lat="45.9026640" lon="9.8365340">
	<ele>1790.80</ele>
	<time>2023-11-18T09:18:52.000Z</time>
</trkpt>
<trkpt lat="45.9026640" lon="9.8365340">
	<ele>1790.80</ele>
	<time>2023-11-18T09:18:53.000Z</time>
</trkpt>
<trkpt lat="45.9026640" lon="9.8365340">
	<ele>1790.80</ele>
	<time>2023-11-18T09:18:54.000Z</time>
</trkpt>
<trkpt lat="45.9026640" lon="9.8365350">
	<ele>1790.80</ele>
	<time>2023-11-18T09:18:55.000Z</time>
</trkpt>
<trkpt lat="45.9026640" lon="9.8365350">
	<ele>1790.80</ele>
	<time>2023-11-18T09:18:56.000Z</time>
</trkpt>
<trkpt lat="45.9026640" lon="9.8365360">
	<ele>1790.80</ele>
	<time>2023-11-18T09:18:57.000Z</time>
</trkpt>
<trkpt lat="45.9026640" lon="9.8365360">
	<ele>1790.80</ele>
	<time>2023-11-18T09:18:58.000Z</time>
</trkpt>
<trkpt lat="45.9026640" lon="9.8365360">
	<ele>1790.80</ele>
	<time>2023-11-18T09:18:59.000Z</time>
</trkpt>
<trkpt lat="45.9026640" lon="9.8365370">
	<ele>1790.80</ele>
	<time>2023-11-18T09:19:00.000Z</time>
</trkpt>
<trkpt lat="45.9026640" lon="9.8365370">
	<ele>1790.80</ele>
	<time>2023-11-18T09:19:01.000Z</time>
</trkpt>
<trkpt lat="45.9026640" lon="9.8365370">
	<ele>1790.80</ele>
	<time>2023-11-18T09:19:02.000Z</time>
</trkpt>
<trkpt lat="45.9026620" lon="9.8365370">
	<ele>1790.80</ele>
	<time>2023-11-18T09:19:03.000Z</time>
</trkpt>
<trkpt lat="45.9026620" lon="9.8365370">
	<ele>1790.80</ele>
	<time>2023-11-18T09:19:04.000Z</time>
</trkpt>
<trkpt lat="45.9026610" lon="9.8365380">
	<ele>1790.80</ele>
	<time>2023-11-18T09:19:05.000Z</time>
</trkpt>
<trkpt lat="45.9026610" lon="9.8365380">
	<ele>1790.80</ele>
	<time>2023-11-18T09:19:06.000Z</time>
</trkpt>
<trkpt lat="45.9026610" lon="9.8365380">
	<ele>1790.80</ele>
	<time>2023-11-18T09:19:07.000Z</time>
</trkpt>
<trkpt lat="45.9026640" lon="9.8365410">
	<ele>1790.80</ele>
	<time>2023-11-18T09:19:08.000Z</time>
</trkpt>
<trkpt lat="45.9026750" lon="9.8365470">
	<ele>1791.00</ele>
	<time>2023-11-18T09:19:09.000Z</time>
</trkpt>
<trkpt lat="45.9026830" lon="9.8365570">
	<ele>1791.20</ele>
	<time>2023-11-18T09:19:10.000Z</time>
</trkpt>
<trkpt lat="45.9026880" lon="9.8365650">
	<ele>1791.20</ele>
	<time>2023-11-18T09:19:11.000Z</time>
</trkpt>
<trkpt lat="45.9026920" lon="9.8365770">
	<ele>1791.40</ele>
	<time>2023-11-18T09:19:12.000Z</time>
</trkpt>
<trkpt lat="45.9027020" lon="9.8365860">
	<ele>1791.60</ele>
	<time>2023-11-18T09:19:13.000Z</time>
</trkpt>
<trkpt lat="45.9027100" lon="9.8365900">
	<ele>1791.60</ele>
	<time>2023-11-18T09:19:14.000Z</time>
</trkpt>
<trkpt lat="45.9027180" lon="9.8365910">
	<ele>1791.80</ele>
	<time>2023-11-18T09:19:15.000Z</time>
</trkpt>
<trkpt lat="45.9027270" lon="9.8365940">
	<ele>1792.00</ele>
	<time>2023-11-18T09:19:16.000Z</time>
</trkpt>
<trkpt lat="45.9027340" lon="9.8365940">
	<ele>1792.20</ele>
	<time>2023-11-18T09:19:17.000Z</time>
</trkpt>
<trkpt lat="45.9027420" lon="9.8365960">
	<ele>1792.40</ele>
	<time>2023-11-18T09:19:18.000Z</time>
</trkpt>
<trkpt lat="45.9027440" lon="9.8366000">
	<ele>1792.60</ele>
	<time>2023-11-18T09:19:19.000Z</time>
</trkpt>
<trkpt lat="45.9027460" lon="9.8366030">
	<ele>1792.60</ele>
	<time>2023-11-18T09:19:20.000Z</time>
</trkpt>
<trkpt lat="45.9027480" lon="9.8366130">
	<ele>1792.80</ele>
	<time>2023-11-18T09:19:21.000Z</time>
</trkpt>
<trkpt lat="45.9027530" lon="9.8366250">
	<ele>1793.00</ele>
	<time>2023-11-18T09:19:22.000Z</time>
</trkpt>
<trkpt lat="45.9027570" lon="9.8366330">
	<ele>1793.00</ele>
	<time>2023-11-18T09:19:23.000Z</time>
</trkpt>
<trkpt lat="45.9027580" lon="9.8366410">
	<ele>1793.20</ele>
	<time>2023-11-18T09:19:24.000Z</time>
</trkpt>
<trkpt lat="45.9027630" lon="9.8366490">
	<ele>1793.40</ele>
	<time>2023-11-18T09:19:25.000Z</time>
</trkpt>
<trkpt lat="45.9027640" lon="9.8366570">
	<ele>1793.60</ele>
	<time>2023-11-18T09:19:26.000Z</time>
</trkpt>
<trkpt lat="45.9027660" lon="9.8366640">
	<ele>1793.60</ele>
	<time>2023-11-18T09:19:27.000Z</time>
</trkpt>
<trkpt lat="45.9027700" lon="9.8366720">
	<ele>1793.80</ele>
	<time>2023-11-18T09:19:28.000Z</time>
</trkpt>
<trkpt lat="45.9027720" lon="9.8366780">
	<ele>1793.80</ele>
	<time>2023-11-18T09:19:29.000Z</time>
</trkpt>
<trkpt lat="45.9027770" lon="9.8366890">
	<ele>1793.80</ele>
	<time>2023-11-18T09:19:30.000Z</time>
</trkpt>
<trkpt lat="45.9027820" lon="9.8366990">
	<ele>1794.00</ele>
	<time>2023-11-18T09:19:31.000Z</time>
</trkpt>
<trkpt lat="45.9027870" lon="9.8367100">
	<ele>1794.20</ele>
	<time>2023-11-18T09:19:32.000Z</time>
</trkpt>
<trkpt lat="45.9027910" lon="9.8367200">
	<ele>1794.20</ele>
	<time>2023-11-18T09:19:33.000Z</time>
</trkpt>
<trkpt lat="45.9027960" lon="9.8367300">
	<ele>1794.40</ele>
	<time>2023-11-18T09:19:34.000Z</time>
</trkpt>
<trkpt lat="45.9027990" lon="9.8367380">
	<ele>1794.60</ele>
	<time>2023-11-18T09:19:35.000Z</time>
</trkpt>
<trkpt lat="45.9028030" lon="9.8367480">
	<ele>1794.80</ele>
	<time>2023-11-18T09:19:36.000Z</time>
</trkpt>
<trkpt lat="45.9028040" lon="9.8367580">
	<ele>1794.80</ele>
	<time>2023-11-18T09:19:37.000Z</time>
</trkpt>
<trkpt lat="45.9028080" lon="9.8367670">
	<ele>1795.00</ele>
	<time>2023-11-18T09:19:38.000Z</time>
</trkpt>
<trkpt lat="45.9028080" lon="9.8367770">
	<ele>1795.20</ele>
	<time>2023-11-18T09:19:39.000Z</time>
</trkpt>
<trkpt lat="45.9028080" lon="9.8367880">
	<ele>1795.20</ele>
	<time>2023-11-18T09:19:40.000Z</time>
</trkpt>
<trkpt lat="45.9028090" lon="9.8367950">
	<ele>1795.40</ele>
	<time>2023-11-18T09:19:41.000Z</time>
</trkpt>
<trkpt lat="45.9028110" lon="9.8368000">
	<ele>1795.60</ele>
	<time>2023-11-18T09:19:42.000Z</time>
</trkpt>
<trkpt lat="45.9028120" lon="9.8368020">
	<ele>1795.80</ele>
	<time>2023-11-18T09:19:43.000Z</time>
</trkpt>
<trkpt lat="45.9028140" lon="9.8368060">
	<ele>1796.00</ele>
	<time>2023-11-18T09:19:44.000Z</time>
</trkpt>
<trkpt lat="45.9028150" lon="9.8368160">
	<ele>1796.00</ele>
	<time>2023-11-18T09:19:45.000Z</time>
</trkpt>
<trkpt lat="45.9028170" lon="9.8368240">
	<ele>1796.20</ele>
	<time>2023-11-18T09:19:46.000Z</time>
</trkpt>
<trkpt lat="45.9028200" lon="9.8368310">
	<ele>1796.20</ele>
	<time>2023-11-18T09:19:47.000Z</time>
</trkpt>
<trkpt lat="45.9028250" lon="9.8368440">
	<ele>1796.20</ele>
	<time>2023-11-18T09:19:48.000Z</time>
</trkpt>
<trkpt lat="45.9028270" lon="9.8368580">
	<ele>1796.40</ele>
	<time>2023-11-18T09:19:49.000Z</time>
</trkpt>
<trkpt lat="45.9028280" lon="9.8368700">
	<ele>1796.40</ele>
	<time>2023-11-18T09:19:50.000Z</time>
</trkpt>
<trkpt lat="45.9028320" lon="9.8368790">
	<ele>1796.60</ele>
	<time>2023-11-18T09:19:51.000Z</time>
</trkpt>
<trkpt lat="45.9028340" lon="9.8368860">
	<ele>1796.60</ele>
	<time>2023-11-18T09:19:52.000Z</time>
</trkpt>
<trkpt lat="45.9028390" lon="9.8368890">
	<ele>1796.80</ele>
	<time>2023-11-18T09:19:53.000Z</time>
</trkpt>
<trkpt lat="45.9028430" lon="9.8368930">
	<ele>1797.00</ele>
	<time>2023-11-18T09:19:54.000Z</time>
</trkpt>
<trkpt lat="45.9028460" lon="9.8368970">
	<ele>1797.20</ele>
	<time>2023-11-18T09:19:55.000Z</time>
</trkpt>
<trkpt lat="45.9028470" lon="9.8369010">
	<ele>1797.40</ele>
	<time>2023-11-18T09:19:56.000Z</time>
</trkpt>
<trkpt lat="45.9028480" lon="9.8369060">
	<ele>1797.60</ele>
	<time>2023-11-18T09:19:57.000Z</time>
</trkpt>
<trkpt lat="45.9028490" lon="9.8369150">
	<ele>1797.80</ele>
	<time>2023-11-18T09:19:58.000Z</time>
</trkpt>
<trkpt lat="45.9028500" lon="9.8369240">
	<ele>1797.80</ele>
	<time>2023-11-18T09:19:59.000Z</time>
</trkpt>
<trkpt lat="45.9028510" lon="9.8369320">
	<ele>1798.00</ele>
	<time>2023-11-18T09:20:00.000Z</time>
</trkpt>
<trkpt lat="45.9028510" lon="9.8369400">
	<ele>1798.20</ele>
	<time>2023-11-18T09:20:01.000Z</time>
</trkpt>
<trkpt lat="45.9028510" lon="9.8369530">
	<ele>1798.20</ele>
	<time>2023-11-18T09:20:02.000Z</time>
</trkpt>
<trkpt lat="45.9028500" lon="9.8369590">
	<ele>1798.40</ele>
	<time>2023-11-18T09:20:03.000Z</time>
</trkpt>
<trkpt lat="45.9028530" lon="9.8369650">
	<ele>1798.40</ele>
	<time>2023-11-18T09:20:04.000Z</time>
</trkpt>
<trkpt lat="45.9028560" lon="9.8369730">
	<ele>1798.60</ele>
	<time>2023-11-18T09:20:05.000Z</time>
</trkpt>
<trkpt lat="45.9028590" lon="9.8369790">
	<ele>1798.80</ele>
	<time>2023-11-18T09:20:06.000Z</time>
</trkpt>
<trkpt lat="45.9028640" lon="9.8369850">
	<ele>1798.80</ele>
	<time>2023-11-18T09:20:07.000Z</time>
</trkpt>
<trkpt lat="45.9028730" lon="9.8369890">
	<ele>1799.00</ele>
	<time>2023-11-18T09:20:08.000Z</time>
</trkpt>
<trkpt lat="45.9028760" lon="9.8369930">
	<ele>1799.20</ele>
	<time>2023-11-18T09:20:09.000Z</time>
</trkpt>
<trkpt lat="45.9028770" lon="9.8369940">
	<ele>1799.40</ele>
	<time>2023-11-18T09:20:10.000Z</time>
</trkpt>
<trkpt lat="45.9028790" lon="9.8369950">
	<ele>1799.60</ele>
	<time>2023-11-18T09:20:11.000Z</time>
</trkpt>
<trkpt lat="45.9028840" lon="9.8369900">
	<ele>1799.80</ele>
	<time>2023-11-18T09:20:12.000Z</time>
</trkpt>
<trkpt lat="45.9028880" lon="9.8369870">
	<ele>1799.80</ele>
	<time>2023-11-18T09:20:13.000Z</time>
</trkpt>
<trkpt lat="45.9028930" lon="9.8369850">
	<ele>1800.00</ele>
	<time>2023-11-18T09:20:14.000Z</time>
</trkpt>
<trkpt lat="45.9029010" lon="9.8369810">
	<ele>1800.40</ele>
	<time>2023-11-18T09:20:15.000Z</time>
</trkpt>
<trkpt lat="45.9029060" lon="9.8369790">
	<ele>1800.40</ele>
	<time>2023-11-18T09:20:16.000Z</time>
</trkpt>
<trkpt lat="45.9029110" lon="9.8369790">
	<ele>1800.80</ele>
	<time>2023-11-18T09:20:17.000Z</time>
</trkpt>
<trkpt lat="45.9029140" lon="9.8369810">
	<ele>1801.00</ele>
	<time>2023-11-18T09:20:18.000Z</time>
</trkpt>
<trkpt lat="45.9029190" lon="9.8369800">
	<ele>1801.20</ele>
	<time>2023-11-18T09:20:19.000Z</time>
</trkpt>
<trkpt lat="45.9029210" lon="9.8369810">
	<ele>1801.20</ele>
	<time>2023-11-18T09:20:20.000Z</time>
</trkpt>
<trkpt lat="45.9029210" lon="9.8369850">
	<ele>1801.40</ele>
	<time>2023-11-18T09:20:21.000Z</time>
</trkpt>
<trkpt lat="45.9029210" lon="9.8369880">
	<ele>1801.60</ele>
	<time>2023-11-18T09:20:22.000Z</time>
</trkpt>
<trkpt lat="45.9029230" lon="9.8369960">
	<ele>1801.60</ele>
	<time>2023-11-18T09:20:23.000Z</time>
</trkpt>
<trkpt lat="45.9029240" lon="9.8370060">
	<ele>1801.80</ele>
	<time>2023-11-18T09:20:24.000Z</time>
</trkpt>
<trkpt lat="45.9029220" lon="9.8370130">
	<ele>1802.20</ele>
	<time>2023-11-18T09:20:25.000Z</time>
</trkpt>
<trkpt lat="45.9029230" lon="9.8370180">
	<ele>1802.40</ele>
	<time>2023-11-18T09:20:26.000Z</time>
</trkpt>
<trkpt lat="45.9029220" lon="9.8370220">
	<ele>1802.60</ele>
	<time>2023-11-18T09:20:27.000Z</time>
</trkpt>
<trkpt lat="45.9029240" lon="9.8370300">
	<ele>1802.60</ele>
	<time>2023-11-18T09:20:28.000Z</time>
</trkpt>
<trkpt lat="45.9029220" lon="9.8370350">
	<ele>1802.80</ele>
	<time>2023-11-18T09:20:29.000Z</time>
</trkpt>
<trkpt lat="45.9029200" lon="9.8370440">
	<ele>1802.80</ele>
	<time>2023-11-18T09:20:30.000Z</time>
</trkpt>
<trkpt lat="45.9029190" lon="9.8370540">
	<ele>1802.80</ele>
	<time>2023-11-18T09:20:31.000Z</time>
</trkpt>
<trkpt lat="45.9029200" lon="9.8370620">
	<ele>1803.00</ele>
	<time>2023-11-18T09:20:32.000Z</time>
</trkpt>
<trkpt lat="45.9029200" lon="9.8370690">
	<ele>1803.00</ele>
	<time>2023-11-18T09:20:33.000Z</time>
</trkpt>
<trkpt lat="45.9029190" lon="9.8370740">
	<ele>1803.20</ele>
	<time>2023-11-18T09:20:34.000Z</time>
</trkpt>
<trkpt lat="45.9029200" lon="9.8370760">
	<ele>1803.40</ele>
	<time>2023-11-18T09:20:35.000Z</time>
</trkpt>
<trkpt lat="45.9029220" lon="9.8370770">
	<ele>1803.40</ele>
	<time>2023-11-18T09:20:36.000Z</time>
</trkpt>
<trkpt lat="45.9029280" lon="9.8370770">
	<ele>1803.60</ele>
	<time>2023-11-18T09:20:37.000Z</time>
</trkpt>
<trkpt lat="45.9029300" lon="9.8370750">
	<ele>1803.80</ele>
	<time>2023-11-18T09:20:38.000Z</time>
</trkpt>
<trkpt lat="45.9029330" lon="9.8370760">
	<ele>1804.00</ele>
	<time>2023-11-18T09:20:39.000Z</time>
</trkpt>
<trkpt lat="45.9029350" lon="9.8370790">
	<ele>1804.20</ele>
	<time>2023-11-18T09:20:40.000Z</time>
</trkpt>
<trkpt lat="45.9029390" lon="9.8370780">
	<ele>1804.40</ele>
	<time>2023-11-18T09:20:41.000Z</time>
</trkpt>
<trkpt lat="45.9029420" lon="9.8370750">
	<ele>1804.40</ele>
	<time>2023-11-18T09:20:42.000Z</time>
</trkpt>
<trkpt lat="45.9029460" lon="9.8370740">
	<ele>1804.60</ele>
	<time>2023-11-18T09:20:43.000Z</time>
</trkpt>
<trkpt lat="45.9029490" lon="9.8370720">
	<ele>1804.80</ele>
	<time>2023-11-18T09:20:44.000Z</time>
</trkpt>
<trkpt lat="45.9029520" lon="9.8370690">
	<ele>1804.80</ele>
	<time>2023-11-18T09:20:45.000Z</time>
</trkpt>
<trkpt lat="45.9029560" lon="9.8370670">
	<ele>1805.00</ele>
	<time>2023-11-18T09:20:46.000Z</time>
</trkpt>
<trkpt lat="45.9029610" lon="9.8370620">
	<ele>1805.00</ele>
	<time>2023-11-18T09:20:47.000Z</time>
</trkpt>
<trkpt lat="45.9029660" lon="9.8370640">
	<ele>1805.20</ele>
	<time>2023-11-18T09:20:48.000Z</time>
</trkpt>
<trkpt lat="45.9029690" lon="9.8370610">
	<ele>1805.60</ele>
	<time>2023-11-18T09:20:49.000Z</time>
</trkpt>
<trkpt lat="45.9029770" lon="9.8370560">
	<ele>1805.80</ele>
	<time>2023-11-18T09:20:50.000Z</time>
</trkpt>
<trkpt lat="45.9029810" lon="9.8370520">
	<ele>1806.00</ele>
	<time>2023-11-18T09:20:51.000Z</time>
</trkpt>
<trkpt lat="45.9029820" lon="9.8370520">
	<ele>1806.00</ele>
	<time>2023-11-18T09:20:52.000Z</time>
</trkpt>
<trkpt lat="45.9029820" lon="9.8370510">
	<ele>1806.20</ele>
	<time>2023-11-18T09:20:53.000Z</time>
</trkpt>
<trkpt lat="45.9029840" lon="9.8370550">
	<ele>1806.40</ele>
	<time>2023-11-18T09:20:54.000Z</time>
</trkpt>
<trkpt lat="45.9029810" lon="9.8370580">
	<ele>1806.40</ele>
	<time>2023-11-18T09:20:55.000Z</time>
</trkpt>
<trkpt lat="45.9029830" lon="9.8370640">
	<ele>1806.60</ele>
	<time>2023-11-18T09:20:56.000Z</time>
</trkpt>
<trkpt lat="45.9029900" lon="9.8370630">
	<ele>1806.60</ele>
	<time>2023-11-18T09:20:57.000Z</time>
</trkpt>
<trkpt lat="45.9029940" lon="9.8370620">
	<ele>1806.60</ele>
	<time>2023-11-18T09:20:58.000Z</time>
</trkpt>
<trkpt lat="45.9029930" lon="9.8370620">
	<ele>1807.00</ele>
	<time>2023-11-18T09:20:59.000Z</time>
</trkpt>
<trkpt lat="45.9029930" lon="9.8370640">
	<ele>1807.20</ele>
	<time>2023-11-18T09:21:00.000Z</time>
</trkpt>
<trkpt lat="45.9029970" lon="9.8370650">
	<ele>1807.20</ele>
	<time>2023-11-18T09:21:01.000Z</time>
</trkpt>
<trkpt lat="45.9030060" lon="9.8370650">
	<ele>1807.40</ele>
	<time>2023-11-18T09:21:02.000Z</time>
</trkpt>
<trkpt lat="45.9030150" lon="9.8370580">
	<ele>1807.60</ele>
	<time>2023-11-18T09:21:03.000Z</time>
</trkpt>
<trkpt lat="45.9030210" lon="9.8370570">
	<ele>1807.80</ele>
	<time>2023-11-18T09:21:04.000Z</time>
</trkpt>
<trkpt lat="45.9030260" lon="9.8370550">
	<ele>1808.20</ele>
	<time>2023-11-18T09:21:05.000Z</time>
</trkpt>
<trkpt lat="45.9030270" lon="9.8370570">
	<ele>1808.40</ele>
	<time>2023-11-18T09:21:06.000Z</time>
</trkpt>
<trkpt lat="45.9030330" lon="9.8370530">
	<ele>1808.60</ele>
	<time>2023-11-18T09:21:07.000Z</time>
</trkpt>
<trkpt lat="45.9030360" lon="9.8370560">
	<ele>1808.80</ele>
	<time>2023-11-18T09:21:08.000Z</time>
</trkpt>
<trkpt lat="45.9030380" lon="9.8370580">
	<ele>1809.00</ele>
	<time>2023-11-18T09:21:09.000Z</time>
</trkpt>
<trkpt lat="45.9030390" lon="9.8370620">
	<ele>1809.00</ele>
	<time>2023-11-18T09:21:10.000Z</time>
</trkpt>
<trkpt lat="45.9030400" lon="9.8370670">
	<ele>1809.00</ele>
	<time>2023-11-18T09:21:11.000Z</time>
</trkpt>
<trkpt lat="45.9030390" lon="9.8370760">
	<ele>1809.00</ele>
	<time>2023-11-18T09:21:12.000Z</time>
</trkpt>
<trkpt lat="45.9030400" lon="9.8370850">
	<ele>1809.20</ele>
	<time>2023-11-18T09:21:13.000Z</time>
</trkpt>
<trkpt lat="45.9030380" lon="9.8370930">
	<ele>1809.40</ele>
	<time>2023-11-18T09:21:14.000Z</time>
</trkpt>
<trkpt lat="45.9030370" lon="9.8371030">
	<ele>1809.60</ele>
	<time>2023-11-18T09:21:15.000Z</time>
</trkpt>
<trkpt lat="45.9030380" lon="9.8371110">
	<ele>1809.60</ele>
	<time>2023-11-18T09:21:16.000Z</time>
</trkpt>
<trkpt lat="45.9030430" lon="9.8371170">
	<ele>1809.80</ele>
	<time>2023-11-18T09:21:17.000Z</time>
</trkpt>
<trkpt lat="45.9030480" lon="9.8371220">
	<ele>1809.80</ele>
	<time>2023-11-18T09:21:18.000Z</time>
</trkpt>
<trkpt lat="45.9030580" lon="9.8371210">
	<ele>1810.00</ele>
	<time>2023-11-18T09:21:19.000Z</time>
</trkpt>
<trkpt lat="45.9030630" lon="9.8371180">
	<ele>1810.00</ele>
	<time>2023-11-18T09:21:20.000Z</time>
</trkpt>
<trkpt lat="45.9030680" lon="9.8371150">
	<ele>1810.40</ele>
	<time>2023-11-18T09:21:21.000Z</time>
</trkpt>
<trkpt lat="45.9030740" lon="9.8371120">
	<ele>1810.80</ele>
	<time>2023-11-18T09:21:22.000Z</time>
</trkpt>
<trkpt lat="45.9030810" lon="9.8371110">
	<ele>1811.00</ele>
	<time>2023-11-18T09:21:23.000Z</time>
</trkpt>
<trkpt lat="45.9030850" lon="9.8371090">
	<ele>1811.20</ele>
	<time>2023-11-18T09:21:24.000Z</time>
</trkpt>
<trkpt lat="45.9030910" lon="9.8371010">
	<ele>1811.20</ele>
	<time>2023-11-18T09:21:25.000Z</time>
</trkpt>
<trkpt lat="45.9030960" lon="9.8370940">
	<ele>1811.40</ele>
	<time>2023-11-18T09:21:26.000Z</time>
</trkpt>
<trkpt lat="45.9031000" lon="9.8370920">
	<ele>1811.40</ele>
	<time>2023-11-18T09:21:27.000Z</time>
</trkpt>
<trkpt lat="45.9031020" lon="9.8370900">
	<ele>1811.60</ele>
	<time>2023-11-18T09:21:28.000Z</time>
</trkpt>
<trkpt lat="45.9031070" lon="9.8370860">
	<ele>1811.60</ele>
	<time>2023-11-18T09:21:29.000Z</time>
</trkpt>
<trkpt lat="45.9031090" lon="9.8370820">
	<ele>1811.60</ele>
	<time>2023-11-18T09:21:30.000Z</time>
</trkpt>
<trkpt lat="45.9031140" lon="9.8370780">
	<ele>1811.80</ele>
	<time>2023-11-18T09:21:31.000Z</time>
</trkpt>
<trkpt lat="45.9031190" lon="9.8370750">
	<ele>1811.80</ele>
	<time>2023-11-18T09:21:32.000Z</time>
</trkpt>
<trkpt lat="45.9031260" lon="9.8370710">
	<ele>1812.00</ele>
	<time>2023-11-18T09:21:33.000Z</time>
</trkpt>
<trkpt lat="45.9031340" lon="9.8370670">
	<ele>1812.20</ele>
	<time>2023-11-18T09:21:34.000Z</time>
</trkpt>
<trkpt lat="45.9031430" lon="9.8370580">
	<ele>1812.40</ele>
	<time>2023-11-18T09:21:35.000Z</time>
</trkpt>
<trkpt lat="45.9031490" lon="9.8370520">
	<ele>1812.60</ele>
	<time>2023-11-18T09:21:36.000Z</time>
</trkpt>
<trkpt lat="45.9031550" lon="9.8370440">
	<ele>1812.80</ele>
	<time>2023-11-18T09:21:37.000Z</time>
</trkpt>
<trkpt lat="45.9031590" lon="9.8370320">
	<ele>1813.00</ele>
	<time>2023-11-18T09:21:38.000Z</time>
</trkpt>
<trkpt lat="45.9031650" lon="9.8370190">
	<ele>1813.00</ele>
	<time>2023-11-18T09:21:39.000Z</time>
</trkpt>
<trkpt lat="45.9031680" lon="9.8370080">
	<ele>1813.20</ele>
	<time>2023-11-18T09:21:40.000Z</time>
</trkpt>
<trkpt lat="45.9031700" lon="9.8369960">
	<ele>1813.20</ele>
	<time>2023-11-18T09:21:41.000Z</time>
</trkpt>
<trkpt lat="45.9031690" lon="9.8369880">
	<ele>1813.20</ele>
	<time>2023-11-18T09:21:42.000Z</time>
</trkpt>
<trkpt lat="45.9031700" lon="9.8369780">
	<ele>1813.20</ele>
	<time>2023-11-18T09:21:43.000Z</time>
</trkpt>
<trkpt lat="45.9031700" lon="9.8369680">
	<ele>1813.40</ele>
	<time>2023-11-18T09:21:44.000Z</time>
</trkpt>
<trkpt lat="45.9031680" lon="9.8369620">
	<ele>1813.60</ele>
	<time>2023-11-18T09:21:45.000Z</time>
</trkpt>
<trkpt lat="45.9031690" lon="9.8369540">
	<ele>1813.60</ele>
	<time>2023-11-18T09:21:46.000Z</time>
</trkpt>
<trkpt lat="45.9031770" lon="9.8369410">
	<ele>1813.80</ele>
	<time>2023-11-18T09:21:47.000Z</time>
</trkpt>
<trkpt lat="45.9031840" lon="9.8369310">
	<ele>1814.00</ele>
	<time>2023-11-18T09:21:48.000Z</time>
</trkpt>
<trkpt lat="45.9031860" lon="9.8369270">
	<ele>1814.20</ele>
	<time>2023-11-18T09:21:49.000Z</time>
</trkpt>
<trkpt lat="45.9031860" lon="9.8369220">
	<ele>1814.40</ele>
	<time>2023-11-18T09:21:50.000Z</time>
</trkpt>
<trkpt lat="45.9031880" lon="9.8369180">
	<ele>1814.40</ele>
	<time>2023-11-18T09:21:51.000Z</time>
</trkpt>
<trkpt lat="45.9031940" lon="9.8369110">
	<ele>1814.60</ele>
	<time>2023-11-18T09:21:52.000Z</time>
</trkpt>
<trkpt lat="45.9031980" lon="9.8369080">
	<ele>1814.60</ele>
	<time>2023-11-18T09:21:53.000Z</time>
</trkpt>
<trkpt lat="45.9032040" lon="9.8369040">
	<ele>1814.80</ele>
	<time>2023-11-18T09:21:54.000Z</time>
</trkpt>
<trkpt lat="45.9032050" lon="9.8368940">
	<ele>1814.80</ele>
	<time>2023-11-18T09:21:55.000Z</time>
</trkpt>
<trkpt lat="45.9032080" lon="9.8368870">
	<ele>1815.20</ele>
	<time>2023-11-18T09:21:56.000Z</time>
</trkpt>
<trkpt lat="45.9032050" lon="9.8368780">
	<ele>1815.40</ele>
	<time>2023-11-18T09:21:57.000Z</time>
</trkpt>
<trkpt lat="45.9032000" lon="9.8368680">
	<ele>1815.40</ele>
	<time>2023-11-18T09:21:58.000Z</time>
</trkpt>
<trkpt lat="45.9031990" lon="9.8368610">
	<ele>1815.60</ele>
	<time>2023-11-18T09:21:59.000Z</time>
</trkpt>
<trkpt lat="45.9031970" lon="9.8368530">
	<ele>1815.60</ele>
	<time>2023-11-18T09:22:00.000Z</time>
</trkpt>
<trkpt lat="45.9032000" lon="9.8368490">
	<ele>1815.80</ele>
	<time>2023-11-18T09:22:01.000Z</time>
</trkpt>
<trkpt lat="45.9031990" lon="9.8368450">
	<ele>1815.80</ele>
	<time>2023-11-18T09:22:02.000Z</time>
</trkpt>
<trkpt lat="45.9031980" lon="9.8368440">
	<ele>1815.80</ele>
	<time>2023-11-18T09:22:03.000Z</time>
</trkpt>
<trkpt lat="45.9032050" lon="9.8368410">
	<ele>1815.80</ele>
	<time>2023-11-18T09:22:04.000Z</time>
</trkpt>
<trkpt lat="45.9032040" lon="9.8368400">
	<ele>1815.80</ele>
	<time>2023-11-18T09:22:05.000Z</time>
</trkpt>
<trkpt lat="45.9032000" lon="9.8368270">
	<ele>1815.80</ele>
	<time>2023-11-18T09:22:06.000Z</time>
</trkpt>
<trkpt lat="45.9031990" lon="9.8368280">
	<ele>1815.60</ele>
	<time>2023-11-18T09:22:07.000Z</time>
</trkpt>
<trkpt lat="45.9031930" lon="9.8368190">
	<ele>1815.60</ele>
	<time>2023-11-18T09:22:08.000Z</time>
</trkpt>
<trkpt lat="45.9031920" lon="9.8368170">
	<ele>1815.60</ele>
	<time>2023-11-18T09:22:09.000Z</time>
</trkpt>
<trkpt lat="45.9031910" lon="9.8368170">
	<ele>1815.60</ele>
	<time>2023-11-18T09:22:10.000Z</time>
</trkpt>
<trkpt lat="45.9031920" lon="9.8368170">
	<ele>1815.60</ele>
	<time>2023-11-18T09:22:11.000Z</time>
</trkpt>
<trkpt lat="45.9031940" lon="9.8368180">
	<ele>1815.60</ele>
	<time>2023-11-18T09:22:12.000Z</time>
</trkpt>
<trkpt lat="45.9031940" lon="9.8368180">
	<ele>1815.80</ele>
	<time>2023-11-18T09:22:13.000Z</time>
</trkpt>
<trkpt lat="45.9031780" lon="9.8368120">
	<ele>1815.80</ele>
	<time>2023-11-18T09:22:14.000Z</time>
</trkpt>
<trkpt lat="45.9031780" lon="9.8368120">
	<ele>1815.80</ele>
	<time>2023-11-18T09:22:15.000Z</time>
</trkpt>
<trkpt lat="45.9031790" lon="9.8368100">
	<ele>1815.80</ele>
	<time>2023-11-18T09:22:16.000Z</time>
</trkpt>
<trkpt lat="45.9031880" lon="9.8368090">
	<ele>1816.00</ele>
	<time>2023-11-18T09:22:17.000Z</time>
</trkpt>
<trkpt lat="45.9031910" lon="9.8368100">
	<ele>1816.00</ele>
	<time>2023-11-18T09:22:18.000Z</time>
</trkpt>
<trkpt lat="45.9031940" lon="9.8368080">
	<ele>1816.20</ele>
	<time>2023-11-18T09:22:19.000Z</time>
</trkpt>
<trkpt lat="45.9031960" lon="9.8368060">
	<ele>1816.20</ele>
	<time>2023-11-18T09:22:20.000Z</time>
</trkpt>
<trkpt lat="45.9031980" lon="9.8368070">
	<ele>1816.40</ele>
	<time>2023-11-18T09:22:21.000Z</time>
</trkpt>
<trkpt lat="45.9031960" lon="9.8368030">
	<ele>1816.60</ele>
	<time>2023-11-18T09:22:22.000Z</time>
</trkpt>
<trkpt lat="45.9031940" lon="9.8368020">
	<ele>1816.60</ele>
	<time>2023-11-18T09:22:23.000Z</time>
</trkpt>
<trkpt lat="45.9032030" lon="9.8367960">
	<ele>1816.80</ele>
	<time>2023-11-18T09:22:24.000Z</time>
</trkpt>
<trkpt lat="45.9032060" lon="9.8367930">
	<ele>1817.00</ele>
	<time>2023-11-18T09:22:25.000Z</time>
</trkpt>
<trkpt lat="45.9032120" lon="9.8367900">
	<ele>1817.20</ele>
	<time>2023-11-18T09:22:26.000Z</time>
</trkpt>
<trkpt lat="45.9032160" lon="9.8367850">
	<ele>1817.40</ele>
	<time>2023-11-18T09:22:27.000Z</time>
</trkpt>
<trkpt lat="45.9032210" lon="9.8367820">
	<ele>1817.60</ele>
	<time>2023-11-18T09:22:28.000Z</time>
</trkpt>
<trkpt lat="45.9032240" lon="9.8367750">
	<ele>1817.80</ele>
	<time>2023-11-18T09:22:29.000Z</time>
</trkpt>
<trkpt lat="45.9032250" lon="9.8367650">
	<ele>1818.00</ele>
	<time>2023-11-18T09:22:30.000Z</time>
</trkpt>
<trkpt lat="45.9032250" lon="9.8367540">
	<ele>1818.20</ele>
	<time>2023-11-18T09:22:31.000Z</time>
</trkpt>
<trkpt lat="45.9032220" lon="9.8367420">
	<ele>1818.20</ele>
	<time>2023-11-18T09:22:32.000Z</time>
</trkpt>
<trkpt lat="45.9032230" lon="9.8367330">
	<ele>1818.60</ele>
	<time>2023-11-18T09:22:33.000Z</time>
</trkpt>
<trkpt lat="45.9032260" lon="9.8367250">
	<ele>1818.60</ele>
	<time>2023-11-18T09:22:34.000Z</time>
</trkpt>
<trkpt lat="45.9032280" lon="9.8367160">
	<ele>1818.80</ele>
	<time>2023-11-18T09:22:35.000Z</time>
</trkpt>
<trkpt lat="45.9032320" lon="9.8367110">
	<ele>1818.80</ele>
	<time>2023-11-18T09:22:36.000Z</time>
</trkpt>
<trkpt lat="45.9032300" lon="9.8367050">
	<ele>1819.00</ele>
	<time>2023-11-18T09:22:37.000Z</time>
</trkpt>
<trkpt lat="45.9032320" lon="9.8366970">
	<ele>1819.00</ele>
	<time>2023-11-18T09:22:38.000Z</time>
</trkpt>
<trkpt lat="45.9032350" lon="9.8366940">
	<ele>1819.00</ele>
	<time>2023-11-18T09:22:39.000Z</time>
</trkpt>
<trkpt lat="45.9032430" lon="9.8366900">
	<ele>1819.20</ele>
	<time>2023-11-18T09:22:40.000Z</time>
</trkpt>
<trkpt lat="45.9032470" lon="9.8366900">
	<ele>1819.20</ele>
	<time>2023-11-18T09:22:41.000Z</time>
</trkpt>
<trkpt lat="45.9032490" lon="9.8366850">
	<ele>1819.20</ele>
	<time>2023-11-18T09:22:42.000Z</time>
</trkpt>
<trkpt lat="45.9032550" lon="9.8366810">
	<ele>1819.40</ele>
	<time>2023-11-18T09:22:43.000Z</time>
</trkpt>
<trkpt lat="45.9032590" lon="9.8366780">
	<ele>1819.60</ele>
	<time>2023-11-18T09:22:44.000Z</time>
</trkpt>
<trkpt lat="45.9032660" lon="9.8366700">
	<ele>1819.80</ele>
	<time>2023-11-18T09:22:45.000Z</time>
</trkpt>
<trkpt lat="45.9032680" lon="9.8366670">
	<ele>1820.20</ele>
	<time>2023-11-18T09:22:46.000Z</time>
</trkpt>
<trkpt lat="45.9032690" lon="9.8366680">
	<ele>1820.20</ele>
	<time>2023-11-18T09:22:47.000Z</time>
</trkpt>
<trkpt lat="45.9032710" lon="9.8366640">
	<ele>1820.40</ele>
	<time>2023-11-18T09:22:48.000Z</time>
</trkpt>
<trkpt lat="45.9032760" lon="9.8366570">
	<ele>1820.80</ele>
	<time>2023-11-18T09:22:49.000Z</time>
</trkpt>
<trkpt lat="45.9032780" lon="9.8366520">
	<ele>1820.80</ele>
	<time>2023-11-18T09:22:50.000Z</time>
</trkpt>
<trkpt lat="45.9032820" lon="9.8366440">
	<ele>1821.00</ele>
	<time>2023-11-18T09:22:51.000Z</time>
</trkpt>
<trkpt lat="45.9032900" lon="9.8366340">
	<ele>1821.00</ele>
	<time>2023-11-18T09:22:52.000Z</time>
</trkpt>
<trkpt lat="45.9032930" lon="9.8366340">
	<ele>1821.40</ele>
	<time>2023-11-18T09:22:53.000Z</time>
</trkpt>
<trkpt lat="45.9032990" lon="9.8366360">
	<ele>1821.60</ele>
	<time>2023-11-18T09:22:54.000Z</time>
</trkpt>
<trkpt lat="45.9033070" lon="9.8366300">
	<ele>1821.80</ele>
	<time>2023-11-18T09:22:55.000Z</time>
</trkpt>
<trkpt lat="45.9033110" lon="9.8366280">
	<ele>1822.00</ele>
	<time>2023-11-18T09:22:56.000Z</time>
</trkpt>
<trkpt lat="45.9033200" lon="9.8366200">
	<ele>1822.40</ele>
	<time>2023-11-18T09:22:57.000Z</time>
</trkpt>
<trkpt lat="45.9033230" lon="9.8366150">
	<ele>1822.60</ele>
	<time>2023-11-18T09:22:58.000Z</time>
</trkpt>
<trkpt lat="45.9033280" lon="9.8366130">
	<ele>1822.80</ele>
	<time>2023-11-18T09:22:59.000Z</time>
</trkpt>
<trkpt lat="45.9033300" lon="9.8366070">
	<ele>1822.80</ele>
	<time>2023-11-18T09:23:00.000Z</time>
</trkpt>
<trkpt lat="45.9033380" lon="9.8366070">
	<ele>1823.00</ele>
	<time>2023-11-18T09:23:01.000Z</time>
</trkpt>
<trkpt lat="45.9033440" lon="9.8366090">
	<ele>1823.20</ele>
	<time>2023-11-18T09:23:02.000Z</time>
</trkpt>
<trkpt lat="45.9033500" lon="9.8366050">
	<ele>1823.40</ele>
	<time>2023-11-18T09:23:03.000Z</time>
</trkpt>
<trkpt lat="45.9033580" lon="9.8366030">
	<ele>1823.60</ele>
	<time>2023-11-18T09:23:04.000Z</time>
</trkpt>
<trkpt lat="45.9033660" lon="9.8366030">
	<ele>1823.80</ele>
	<time>2023-11-18T09:23:05.000Z</time>
</trkpt>
<trkpt lat="45.9033730" lon="9.8366020">
	<ele>1824.00</ele>
	<time>2023-11-18T09:23:06.000Z</time>
</trkpt>
<trkpt lat="45.9033790" lon="9.8366030">
	<ele>1824.20</ele>
	<time>2023-11-18T09:23:07.000Z</time>
</trkpt>
<trkpt lat="45.9033870" lon="9.8366060">
	<ele>1824.40</ele>
	<time>2023-11-18T09:23:08.000Z</time>
</trkpt>
<trkpt lat="45.9033920" lon="9.8366050">
	<ele>1824.60</ele>
	<time>2023-11-18T09:23:09.000Z</time>
</trkpt>
<trkpt lat="45.9034000" lon="9.8366060">
	<ele>1824.80</ele>
	<time>2023-11-18T09:23:10.000Z</time>
</trkpt>
<trkpt lat="45.9034030" lon="9.8366090">
	<ele>1824.80</ele>
	<time>2023-11-18T09:23:11.000Z</time>
</trkpt>
<trkpt lat="45.9034080" lon="9.8366110">
	<ele>1825.00</ele>
	<time>2023-11-18T09:23:12.000Z</time>
</trkpt>
<trkpt lat="45.9034160" lon="9.8366130">
	<ele>1825.20</ele>
	<time>2023-11-18T09:23:13.000Z</time>
</trkpt>
<trkpt lat="45.9034220" lon="9.8366180">
	<ele>1825.20</ele>
	<time>2023-11-18T09:23:14.000Z</time>
</trkpt>
<trkpt lat="45.9034290" lon="9.8366250">
	<ele>1825.40</ele>
	<time>2023-11-18T09:23:15.000Z</time>
</trkpt>
<trkpt lat="45.9034350" lon="9.8366320">
	<ele>1825.60</ele>
	<time>2023-11-18T09:23:16.000Z</time>
</trkpt>
<trkpt lat="45.9034400" lon="9.8366350">
	<ele>1825.60</ele>
	<time>2023-11-18T09:23:17.000Z</time>
</trkpt>
<trkpt lat="45.9034490" lon="9.8366340">
	<ele>1825.80</ele>
	<time>2023-11-18T09:23:18.000Z</time>
</trkpt>
<trkpt lat="45.9034540" lon="9.8366330">
	<ele>1826.00</ele>
	<time>2023-11-18T09:23:19.000Z</time>
</trkpt>
<trkpt lat="45.9034530" lon="9.8366350">
	<ele>1826.20</ele>
	<time>2023-11-18T09:23:20.000Z</time>
</trkpt>
<trkpt lat="45.9034570" lon="9.8366390">
	<ele>1826.60</ele>
	<time>2023-11-18T09:23:21.000Z</time>
</trkpt>
<trkpt lat="45.9034600" lon="9.8366480">
	<ele>1826.80</ele>
	<time>2023-11-18T09:23:22.000Z</time>
</trkpt>
<trkpt lat="45.9034620" lon="9.8366570">
	<ele>1827.00</ele>
	<time>2023-11-18T09:23:23.000Z</time>
</trkpt>
<trkpt lat="45.9034680" lon="9.8366630">
	<ele>1827.20</ele>
	<time>2023-11-18T09:23:24.000Z</time>
</trkpt>
<trkpt lat="45.9034740" lon="9.8366640">
	<ele>1827.40</ele>
	<time>2023-11-18T09:23:25.000Z</time>
</trkpt>
<trkpt lat="45.9034790" lon="9.8366650">
	<ele>1827.60</ele>
	<time>2023-11-18T09:23:26.000Z</time>
</trkpt>
<trkpt lat="45.9034840" lon="9.8366680">
	<ele>1827.80</ele>
	<time>2023-11-18T09:23:27.000Z</time>
</trkpt>
<trkpt lat="45.9034880" lon="9.8366770">
	<ele>1828.00</ele>
	<time>2023-11-18T09:23:28.000Z</time>
</trkpt>
<trkpt lat="45.9034890" lon="9.8366840">
	<ele>1828.00</ele>
	<time>2023-11-18T09:23:29.000Z</time>
</trkpt>
<trkpt lat="45.9034920" lon="9.8366880">
	<ele>1828.20</ele>
	<time>2023-11-18T09:23:30.000Z</time>
</trkpt>
<trkpt lat="45.9034950" lon="9.8366900">
	<ele>1828.40</ele>
	<time>2023-11-18T09:23:31.000Z</time>
</trkpt>
<trkpt lat="45.9035030" lon="9.8366910">
	<ele>1828.40</ele>
	<time>2023-11-18T09:23:32.000Z</time>
</trkpt>
<trkpt lat="45.9035100" lon="9.8366940">
	<ele>1828.40</ele>
	<time>2023-11-18T09:23:33.000Z</time>
</trkpt>
<trkpt lat="45.9035180" lon="9.8366920">
	<ele>1828.60</ele>
	<time>2023-11-18T09:23:34.000Z</time>
</trkpt>
<trkpt lat="45.9035240" lon="9.8366950">
	<ele>1828.80</ele>
	<time>2023-11-18T09:23:35.000Z</time>
</trkpt>
<trkpt lat="45.9035290" lon="9.8367010">
	<ele>1829.00</ele>
	<time>2023-11-18T09:23:36.000Z</time>
</trkpt>
<trkpt lat="45.9035350" lon="9.8367070">
	<ele>1829.20</ele>
	<time>2023-11-18T09:23:37.000Z</time>
</trkpt>
<trkpt lat="45.9035400" lon="9.8367110">
	<ele>1829.40</ele>
	<time>2023-11-18T09:23:38.000Z</time>
</trkpt>
<trkpt lat="45.9035460" lon="9.8367100">
	<ele>1829.40</ele>
	<time>2023-11-18T09:23:39.000Z</time>
</trkpt>
<trkpt lat="45.9035540" lon="9.8367040">
	<ele>1829.60</ele>
	<time>2023-11-18T09:23:40.000Z</time>
</trkpt>
<trkpt lat="45.9035630" lon="9.8366980">
	<ele>1829.60</ele>
	<time>2023-11-18T09:23:41.000Z</time>
</trkpt>
<trkpt lat="45.9035680" lon="9.8366950">
	<ele>1829.80</ele>
	<time>2023-11-18T09:23:42.000Z</time>
</trkpt>
<trkpt lat="45.9035700" lon="9.8366950">
	<ele>1830.20</ele>
	<time>2023-11-18T09:23:43.000Z</time>
</trkpt>
<trkpt lat="45.9035740" lon="9.8366930">
	<ele>1830.60</ele>
	<time>2023-11-18T09:23:44.000Z</time>
</trkpt>
<trkpt lat="45.9035800" lon="9.8366920">
	<ele>1830.80</ele>
	<time>2023-11-18T09:23:45.000Z</time>
</trkpt>
<trkpt lat="45.9035850" lon="9.8366930">
	<ele>1831.00</ele>
	<time>2023-11-18T09:23:46.000Z</time>
</trkpt>
<trkpt lat="45.9035870" lon="9.8366980">
	<ele>1831.00</ele>
	<time>2023-11-18T09:23:47.000Z</time>
</trkpt>
<trkpt lat="45.9035880" lon="9.8367010">
	<ele>1831.20</ele>
	<time>2023-11-18T09:23:48.000Z</time>
</trkpt>
<trkpt lat="45.9035920" lon="9.8367040">
	<ele>1831.20</ele>
	<time>2023-11-18T09:23:49.000Z</time>
</trkpt>
<trkpt lat="45.9035930" lon="9.8367050">
	<ele>1831.60</ele>
	<time>2023-11-18T09:23:50.000Z</time>
</trkpt>
<trkpt lat="45.9035980" lon="9.8367010">
	<ele>1831.80</ele>
	<time>2023-11-18T09:23:51.000Z</time>
</trkpt>
<trkpt lat="45.9036040" lon="9.8366940">
	<ele>1832.00</ele>
	<time>2023-11-18T09:23:52.000Z</time>
</trkpt>
<trkpt lat="45.9036100" lon="9.8366900">
	<ele>1832.20</ele>
	<time>2023-11-18T09:23:53.000Z</time>
</trkpt>
<trkpt lat="45.9036140" lon="9.8366850">
	<ele>1832.40</ele>
	<time>2023-11-18T09:23:54.000Z</time>
</trkpt>
<trkpt lat="45.9036170" lon="9.8366830">
	<ele>1832.60</ele>
	<time>2023-11-18T09:23:55.000Z</time>
</trkpt>
<trkpt lat="45.9036180" lon="9.8366810">
	<ele>1832.60</ele>
	<time>2023-11-18T09:23:56.000Z</time>
</trkpt>
<trkpt lat="45.9036180" lon="9.8366790">
	<ele>1832.60</ele>
	<time>2023-11-18T09:23:57.000Z</time>
</trkpt>
<trkpt lat="45.9036180" lon="9.8366810">
	<ele>1832.80</ele>
	<time>2023-11-18T09:23:58.000Z</time>
</trkpt>
<trkpt lat="45.9036240" lon="9.8366830">
	<ele>1833.00</ele>
	<time>2023-11-18T09:23:59.000Z</time>
</trkpt>
<trkpt lat="45.9036270" lon="9.8366840">
	<ele>1833.00</ele>
	<time>2023-11-18T09:24:00.000Z</time>
</trkpt>
<trkpt lat="45.9036330" lon="9.8366810">
	<ele>1833.20</ele>
	<time>2023-11-18T09:24:01.000Z</time>
</trkpt>
<trkpt lat="45.9036380" lon="9.8366790">
	<ele>1833.20</ele>
	<time>2023-11-18T09:24:02.000Z</time>
</trkpt>
<trkpt lat="45.9036410" lon="9.8366810">
	<ele>1833.40</ele>
	<time>2023-11-18T09:24:03.000Z</time>
</trkpt>
<trkpt lat="45.9036470" lon="9.8366860">
	<ele>1833.60</ele>
	<time>2023-11-18T09:24:04.000Z</time>
</trkpt>
<trkpt lat="45.9036550" lon="9.8366950">
	<ele>1833.80</ele>
	<time>2023-11-18T09:24:05.000Z</time>
</trkpt>
<trkpt lat="45.9036560" lon="9.8367030">
	<ele>1834.00</ele>
	<time>2023-11-18T09:24:06.000Z</time>
</trkpt>
<trkpt lat="45.9036590" lon="9.8367120">
	<ele>1834.20</ele>
	<time>2023-11-18T09:24:07.000Z</time>
</trkpt>
<trkpt lat="45.9036650" lon="9.8367200">
	<ele>1834.40</ele>
	<time>2023-11-18T09:24:08.000Z</time>
</trkpt>
<trkpt lat="45.9036720" lon="9.8367210">
	<ele>1834.60</ele>
	<time>2023-11-18T09:24:09.000Z</time>
</trkpt>
<trkpt lat="45.9036760" lon="9.8367260">
	<ele>1834.80</ele>
	<time>2023-11-18T09:24:10.000Z</time>
</trkpt>
<trkpt lat="45.9036810" lon="9.8367280">
	<ele>1835.00</ele>
	<time>2023-11-18T09:24:11.000Z</time>
</trkpt>
<trkpt lat="45.9036830" lon="9.8367300">
	<ele>1835.20</ele>
	<time>2023-11-18T09:24:12.000Z</time>
</trkpt>
<trkpt lat="45.9036860" lon="9.8367370">
	<ele>1835.20</ele>
	<time>2023-11-18T09:24:13.000Z</time>
</trkpt>
<trkpt lat="45.9036900" lon="9.8367380">
	<ele>1835.40</ele>
	<time>2023-11-18T09:24:14.000Z</time>
</trkpt>
<trkpt lat="45.9036930" lon="9.8367370">
	<ele>1835.60</ele>
	<time>2023-11-18T09:24:15.000Z</time>
</trkpt>
<trkpt lat="45.9036950" lon="9.8367360">
	<ele>1835.80</ele>
	<time>2023-11-18T09:24:16.000Z</time>
</trkpt>
<trkpt lat="45.9037000" lon="9.8367360">
	<ele>1836.00</ele>
	<time>2023-11-18T09:24:17.000Z</time>
</trkpt>
<trkpt lat="45.9037030" lon="9.8367310">
	<ele>1836.20</ele>
	<time>2023-11-18T09:24:18.000Z</time>
</trkpt>
<trkpt lat="45.9037030" lon="9.8367290">
	<ele>1836.40</ele>
	<time>2023-11-18T09:24:19.000Z</time>
</trkpt>
<trkpt lat="45.9037040" lon="9.8367270">
	<ele>1836.60</ele>
	<time>2023-11-18T09:24:20.000Z</time>
</trkpt>
<trkpt lat="45.9037050" lon="9.8367270">
	<ele>1836.60</ele>
	<time>2023-11-18T09:24:21.000Z</time>
</trkpt>
<trkpt lat="45.9037100" lon="9.8367260">
	<ele>1836.80</ele>
	<time>2023-11-18T09:24:22.000Z</time>
</trkpt>
<trkpt lat="45.9037160" lon="9.8367240">
	<ele>1836.80</ele>
	<time>2023-11-18T09:24:23.000Z</time>
</trkpt>
<trkpt lat="45.9037180" lon="9.8367230">
	<ele>1836.80</ele>
	<time>2023-11-18T09:24:24.000Z</time>
</trkpt>
<trkpt lat="45.9037210" lon="9.8367200">
	<ele>1836.80</ele>
	<time>2023-11-18T09:24:25.000Z</time>
</trkpt>
<trkpt lat="45.9037240" lon="9.8367160">
	<ele>1837.00</ele>
	<time>2023-11-18T09:24:26.000Z</time>
</trkpt>
<trkpt lat="45.9037280" lon="9.8367130">
	<ele>1837.20</ele>
	<time>2023-11-18T09:24:27.000Z</time>
</trkpt>
<trkpt lat="45.9037300" lon="9.8367090">
	<ele>1837.20</ele>
	<time>2023-11-18T09:24:28.000Z</time>
</trkpt>
<trkpt lat="45.9037330" lon="9.8367080">
	<ele>1837.40</ele>
	<time>2023-11-18T09:24:29.000Z</time>
</trkpt>
<trkpt lat="45.9037380" lon="9.8367100">
	<ele>1837.60</ele>
	<time>2023-11-18T09:24:30.000Z</time>
</trkpt>
<trkpt lat="45.9037420" lon="9.8367120">
	<ele>1837.80</ele>
	<time>2023-11-18T09:24:31.000Z</time>
</trkpt>
<trkpt lat="45.9037460" lon="9.8367050">
	<ele>1838.00</ele>
	<time>2023-11-18T09:24:32.000Z</time>
</trkpt>
<trkpt lat="45.9037530" lon="9.8367000">
	<ele>1838.00</ele>
	<time>2023-11-18T09:24:33.000Z</time>
</trkpt>
<trkpt lat="45.9037610" lon="9.8366950">
	<ele>1838.20</ele>
	<time>2023-11-18T09:24:34.000Z</time>
</trkpt>
<trkpt lat="45.9037640" lon="9.8366930">
	<ele>1838.40</ele>
	<time>2023-11-18T09:24:35.000Z</time>
</trkpt>
<trkpt lat="45.9037680" lon="9.8366900">
	<ele>1838.60</ele>
	<time>2023-11-18T09:24:36.000Z</time>
</trkpt>
<trkpt lat="45.9037750" lon="9.8366840">
	<ele>1838.60</ele>
	<time>2023-11-18T09:24:37.000Z</time>
</trkpt>
<trkpt lat="45.9037810" lon="9.8366810">
	<ele>1838.80</ele>
	<time>2023-11-18T09:24:38.000Z</time>
</trkpt>
<trkpt lat="45.9037830" lon="9.8366800">
	<ele>1838.80</ele>
	<time>2023-11-18T09:24:39.000Z</time>
</trkpt>
<trkpt lat="45.9037850" lon="9.8366800">
	<ele>1838.80</ele>
	<time>2023-11-18T09:24:40.000Z</time>
</trkpt>
<trkpt lat="45.9037880" lon="9.8366790">
	<ele>1838.80</ele>
	<time>2023-11-18T09:24:41.000Z</time>
</trkpt>
<trkpt lat="45.9037890" lon="9.8366770">
	<ele>1838.80</ele>
	<time>2023-11-18T09:24:42.000Z</time>
</trkpt>
<trkpt lat="45.9037890" lon="9.8366760">
	<ele>1838.80</ele>
	<time>2023-11-18T09:24:43.000Z</time>
</trkpt>
<trkpt lat="45.9037880" lon="9.8366750">
	<ele>1838.80</ele>
	<time>2023-11-18T09:24:44.000Z</time>
</trkpt>
<trkpt lat="45.9037870" lon="9.8366720">
	<ele>1838.80</ele>
	<time>2023-11-18T09:24:45.000Z</time>
</trkpt>
<trkpt lat="45.9037860" lon="9.8366720">
	<ele>1838.80</ele>
	<time>2023-11-18T09:24:46.000Z</time>
</trkpt>
<trkpt lat="45.9037850" lon="9.8366690">
	<ele>1838.80</ele>
	<time>2023-11-18T09:24:47.000Z</time>
</trkpt>
<trkpt lat="45.9037860" lon="9.8366690">
	<ele>1839.00</ele>
	<time>2023-11-18T09:24:48.000Z</time>
</trkpt>
<trkpt lat="45.9037850" lon="9.8366680">
	<ele>1839.00</ele>
	<time>2023-11-18T09:24:49.000Z</time>
</trkpt>
<trkpt lat="45.9037840" lon="9.8366690">
	<ele>1839.00</ele>
	<time>2023-11-18T09:24:50.000Z</time>
</trkpt>
<trkpt lat="45.9037820" lon="9.8366700">
	<ele>1839.00</ele>
	<time>2023-11-18T09:24:51.000Z</time>
</trkpt>
<trkpt lat="45.9037860" lon="9.8366700">
	<ele>1839.00</ele>
	<time>2023-11-18T09:24:52.000Z</time>
</trkpt>
<trkpt lat="45.9037880" lon="9.8366690">
	<ele>1839.00</ele>
	<time>2023-11-18T09:24:53.000Z</time>
</trkpt>
<trkpt lat="45.9037890" lon="9.8366700">
	<ele>1839.00</ele>
	<time>2023-11-18T09:24:54.000Z</time>
</trkpt>
<trkpt lat="45.9037880" lon="9.8366640">
	<ele>1839.00</ele>
	<time>2023-11-18T09:24:55.000Z</time>
</trkpt>
<trkpt lat="45.9037880" lon="9.8366660">
	<ele>1839.00</ele>
	<time>2023-11-18T09:24:56.000Z</time>
</trkpt>
<trkpt lat="45.9037880" lon="9.8366670">
	<ele>1838.80</ele>
	<time>2023-11-18T09:24:57.000Z</time>
</trkpt>
<trkpt lat="45.9037890" lon="9.8366670">
	<ele>1838.80</ele>
	<time>2023-11-18T09:24:58.000Z</time>
</trkpt>
<trkpt lat="45.9037900" lon="9.8366680">
	<ele>1838.80</ele>
	<time>2023-11-18T09:24:59.000Z</time>
</trkpt>
<trkpt lat="45.9037950" lon="9.8366670">
	<ele>1838.80</ele>
	<time>2023-11-18T09:25:00.000Z</time>
</trkpt>
<trkpt lat="45.9038020" lon="9.8366660">
	<ele>1838.80</ele>
	<time>2023-11-18T09:25:01.000Z</time>
</trkpt>
<trkpt lat="45.9038080" lon="9.8366630">
	<ele>1838.80</ele>
	<time>2023-11-18T09:25:02.000Z</time>
</trkpt>
<trkpt lat="45.9038130" lon="9.8366610">
	<ele>1839.00</ele>
	<time>2023-11-18T09:25:03.000Z</time>
</trkpt>
<trkpt lat="45.9038160" lon="9.8366620">
	<ele>1839.00</ele>
	<time>2023-11-18T09:25:04.000Z</time>
</trkpt>
<trkpt lat="45.9038230" lon="9.8366660">
	<ele>1839.20</ele>
	<time>2023-11-18T09:25:05.000Z</time>
</trkpt>
<trkpt lat="45.9038270" lon="9.8366690">
	<ele>1839.40</ele>
	<time>2023-11-18T09:25:06.000Z</time>
</trkpt>
<trkpt lat="45.9038290" lon="9.8366690">
	<ele>1839.40</ele>
	<time>2023-11-18T09:25:07.000Z</time>
</trkpt>
<trkpt lat="45.9038300" lon="9.8366680">
	<ele>1839.60</ele>
	<time>2023-11-18T09:25:08.000Z</time>
</trkpt>
<trkpt lat="45.9038300" lon="9.8366680">
	<ele>1839.60</ele>
	<time>2023-11-18T09:25:09.000Z</time>
</trkpt>
<trkpt lat="45.9038300" lon="9.8366680">
	<ele>1839.60</ele>
	<time>2023-11-18T09:25:10.000Z</time>
</trkpt>
<trkpt lat="45.9038300" lon="9.8366680">
	<ele>1839.60</ele>
	<time>2023-11-18T09:25:11.000Z</time>
</trkpt>
<trkpt lat="45.9038300" lon="9.8366680">
	<ele>1839.60</ele>
	<time>2023-11-18T09:25:12.000Z</time>
</trkpt>
<trkpt lat="45.9038300" lon="9.8366680">
	<ele>1839.60</ele>
	<time>2023-11-18T09:25:13.000Z</time>
</trkpt>
<trkpt lat="45.9038300" lon="9.8366680">
	<ele>1839.60</ele>
	<time>2023-11-18T09:25:14.000Z</time>
</trkpt>
<trkpt lat="45.9038300" lon="9.8366680">
	<ele>1839.60</ele>
	<time>2023-11-18T09:25:15.000Z</time>
</trkpt>
<trkpt lat="45.9038300" lon="9.8366680">
	<ele>1839.60</ele>
	<time>2023-11-18T09:25:16.000Z</time>
</trkpt>
<trkpt lat="45.9038300" lon="9.8366680">
	<ele>1839.60</ele>
	<time>2023-11-18T09:25:17.000Z</time>
</trkpt>
<trkpt lat="45.9038300" lon="9.8366680">
	<ele>1839.60</ele>
	<time>2023-11-18T09:25:18.000Z</time>
</trkpt>
<trkpt lat="45.9038300" lon="9.8366670">
	<ele>1839.80</ele>
	<time>2023-11-18T09:25:19.000Z</time>
</trkpt>
<trkpt lat="45.9038300" lon="9.8366660">
	<ele>1839.60</ele>
	<time>2023-11-18T09:25:20.000Z</time>
</trkpt>
<trkpt lat="45.9038300" lon="9.8366660">
	<ele>1839.60</ele>
	<time>2023-11-18T09:25:21.000Z</time>
</trkpt>
<trkpt lat="45.9038300" lon="9.8366650">
	<ele>1839.60</ele>
	<time>2023-11-18T09:25:22.000Z</time>
</trkpt>
<trkpt lat="45.9038300" lon="9.8366640">
	<ele>1839.60</ele>
	<time>2023-11-18T09:25:23.000Z</time>
</trkpt>
<trkpt lat="45.9038300" lon="9.8366630">
	<ele>1839.60</ele>
	<time>2023-11-18T09:25:24.000Z</time>
</trkpt>
<trkpt lat="45.9038330" lon="9.8366620">
	<ele>1839.60</ele>
	<time>2023-11-18T09:25:25.000Z</time>
</trkpt>
<trkpt lat="45.9038330" lon="9.8366620">
	<ele>1839.60</ele>
	<time>2023-11-18T09:25:26.000Z</time>
</trkpt>
<trkpt lat="45.9038330" lon="9.8366610">
	<ele>1839.60</ele>
	<time>2023-11-18T09:25:27.000Z</time>
</trkpt>
<trkpt lat="45.9038330" lon="9.8366610">
	<ele>1839.60</ele>
	<time>2023-11-18T09:25:28.000Z</time>
</trkpt>
<trkpt lat="45.9038340" lon="9.8366610">
	<ele>1839.80</ele>
	<time>2023-11-18T09:25:29.000Z</time>
</trkpt>
<trkpt lat="45.9038340" lon="9.8366600">
	<ele>1839.80</ele>
	<time>2023-11-18T09:25:30.000Z</time>
</trkpt>
<trkpt lat="45.9038340" lon="9.8366590">
	<ele>1839.80</ele>
	<time>2023-11-18T09:25:31.000Z</time>
</trkpt>
<trkpt lat="45.9038350" lon="9.8366580">
	<ele>1839.80</ele>
	<time>2023-11-18T09:25:32.000Z</time>
</trkpt>
<trkpt lat="45.9038350" lon="9.8366580">
	<ele>1839.80</ele>
	<time>2023-11-18T09:25:33.000Z</time>
</trkpt>
<trkpt lat="45.9038350" lon="9.8366580">
	<ele>1840.00</ele>
	<time>2023-11-18T09:25:34.000Z</time>
</trkpt>
<trkpt lat="45.9038350" lon="9.8366580">
	<ele>1840.00</ele>
	<time>2023-11-18T09:25:35.000Z</time>
</trkpt>
<trkpt lat="45.9038360" lon="9.8366580">
	<ele>1840.00</ele>
	<time>2023-11-18T09:25:36.000Z</time>
</trkpt>
<trkpt lat="45.9038370" lon="9.8366570">
	<ele>1840.20</ele>
	<time>2023-11-18T09:25:37.000Z</time>
</trkpt>
<trkpt lat="45.9038370" lon="9.8366570">
	<ele>1840.20</ele>
	<time>2023-11-18T09:25:38.000Z</time>
</trkpt>
<trkpt lat="45.9038370" lon="9.8366570">
	<ele>1840.40</ele>
	<time>2023-11-18T09:25:39.000Z</time>
</trkpt>
<trkpt lat="45.9038370" lon="9.8366570">
	<ele>1840.40</ele>
	<time>2023-11-18T09:25:40.000Z</time>
</trkpt>
<trkpt lat="45.9038370" lon="9.8366570">
	<ele>1840.60</ele>
	<time>2023-11-18T09:25:41.000Z</time>
</trkpt>
<trkpt lat="45.9038370" lon="9.8366560">
	<ele>1840.60</ele>
	<time>2023-11-18T09:25:42.000Z</time>
</trkpt>
<trkpt lat="45.9038370" lon="9.8366560">
	<ele>1840.80</ele>
	<time>2023-11-18T09:25:43.000Z</time>
</trkpt>
<trkpt lat="45.9038380" lon="9.8366560">
	<ele>1840.80</ele>
	<time>2023-11-18T09:25:44.000Z</time>
</trkpt>
<trkpt lat="45.9038380" lon="9.8366550">
	<ele>1840.80</ele>
	<time>2023-11-18T09:25:45.000Z</time>
</trkpt>
<trkpt lat="45.9038390" lon="9.8366510">
	<ele>1841.00</ele>
	<time>2023-11-18T09:25:46.000Z</time>
</trkpt>
<trkpt lat="45.9038430" lon="9.8366360">
	<ele>1841.00</ele>
	<time>2023-11-18T09:25:47.000Z</time>
</trkpt>
<trkpt lat="45.9038480" lon="9.8366150">
	<ele>1841.20</ele>
	<time>2023-11-18T09:25:48.000Z</time>
</trkpt>
<trkpt lat="45.9038530" lon="9.8365920">
	<ele>1841.40</ele>
	<time>2023-11-18T09:25:49.000Z</time>
</trkpt>
<trkpt lat="45.9038590" lon="9.8365710">
	<ele>1841.60</ele>
	<time>2023-11-18T09:25:50.000Z</time>
</trkpt>
<trkpt lat="45.9038670" lon="9.8365490">
	<ele>1841.60</ele>
	<time>2023-11-18T09:25:51.000Z</time>
</trkpt>
<trkpt lat="45.9038760" lon="9.8365260">
	<ele>1841.80</ele>
	<time>2023-11-18T09:25:52.000Z</time>
</trkpt>
<trkpt lat="45.9038850" lon="9.8365040">
	<ele>1842.00</ele>
	<time>2023-11-18T09:25:53.000Z</time>
</trkpt>
<trkpt lat="45.9038960" lon="9.8364840">
	<ele>1842.20</ele>
	<time>2023-11-18T09:25:54.000Z</time>
</trkpt>
<trkpt lat="45.9039080" lon="9.8364630">
	<ele>1842.40</ele>
	<time>2023-11-18T09:25:55.000Z</time>
</trkpt>
<trkpt lat="45.9039180" lon="9.8364430">
	<ele>1842.40</ele>
	<time>2023-11-18T09:25:56.000Z</time>
</trkpt>
<trkpt lat="45.9039250" lon="9.8364360">
	<ele>1842.40</ele>
	<time>2023-11-18T09:25:57.000Z</time>
</trkpt>
<trkpt lat="45.9039290" lon="9.8364290">
	<ele>1842.40</ele>
	<time>2023-11-18T09:25:58.000Z</time>
</trkpt>
<trkpt lat="45.9039330" lon="9.8364230">
	<ele>1842.40</ele>
	<time>2023-11-18T09:25:59.000Z</time>
</trkpt>
<trkpt lat="45.9039350" lon="9.8364160">
	<ele>1842.60</ele>
	<time>2023-11-18T09:26:00.000Z</time>
</trkpt>
<trkpt lat="45.9039380" lon="9.8364080">
	<ele>1842.80</ele>
	<time>2023-11-18T09:26:01.000Z</time>
</trkpt>
<trkpt lat="45.9039390" lon="9.8364030">
	<ele>1842.80</ele>
	<time>2023-11-18T09:26:02.000Z</time>
</trkpt>
<trkpt lat="45.9039370" lon="9.8364020">
	<ele>1843.00</ele>
	<time>2023-11-18T09:26:03.000Z</time>
</trkpt>
<trkpt lat="45.9039410" lon="9.8363950">
	<ele>1843.20</ele>
	<time>2023-11-18T09:26:04.000Z</time>
</trkpt>
<trkpt lat="45.9039470" lon="9.8363880">
	<ele>1843.20</ele>
	<time>2023-11-18T09:26:05.000Z</time>
</trkpt>
<trkpt lat="45.9039540" lon="9.8363760">
	<ele>1843.40</ele>
	<time>2023-11-18T09:26:06.000Z</time>
</trkpt>
<trkpt lat="45.9039610" lon="9.8363680">
	<ele>1843.60</ele>
	<time>2023-11-18T09:26:07.000Z</time>
</trkpt>
<trkpt lat="45.9039650" lon="9.8363590">
	<ele>1843.60</ele>
	<time>2023-11-18T09:26:08.000Z</time>
</trkpt>
<trkpt lat="45.9039680" lon="9.8363500">
	<ele>1843.80</ele>
	<time>2023-11-18T09:26:09.000Z</time>
</trkpt>
<trkpt lat="45.9039700" lon="9.8363430">
	<ele>1843.80</ele>
	<time>2023-11-18T09:26:10.000Z</time>
</trkpt>
<trkpt lat="45.9039760" lon="9.8363380">
	<ele>1844.20</ele>
	<time>2023-11-18T09:26:11.000Z</time>
</trkpt>
<trkpt lat="45.9039840" lon="9.8363340">
	<ele>1844.40</ele>
	<time>2023-11-18T09:26:12.000Z</time>
</trkpt>
<trkpt lat="45.9039930" lon="9.8363280">
	<ele>1844.40</ele>
	<time>2023-11-18T09:26:13.000Z</time>
</trkpt>
<trkpt lat="45.9040050" lon="9.8363240">
	<ele>1844.40</ele>
	<time>2023-11-18T09:26:14.000Z</time>
</trkpt>
<trkpt lat="45.9040100" lon="9.8363170">
	<ele>1844.60</ele>
	<time>2023-11-18T09:26:15.000Z</time>
</trkpt>
<trkpt lat="45.9040120" lon="9.8363080">
	<ele>1844.60</ele>
	<time>2023-11-18T09:26:16.000Z</time>
</trkpt>
<trkpt lat="45.9040160" lon="9.8362960">
	<ele>1844.80</ele>
	<time>2023-11-18T09:26:17.000Z</time>
</trkpt>
<trkpt lat="45.9040200" lon="9.8362850">
	<ele>1845.00</ele>
	<time>2023-11-18T09:26:18.000Z</time>
</trkpt>
<trkpt lat="45.9040270" lon="9.8362760">
	<ele>1845.00</ele>
	<time>2023-11-18T09:26:19.000Z</time>
</trkpt>
<trkpt lat="45.9040350" lon="9.8362680">
	<ele>1845.20</ele>
	<time>2023-11-18T09:26:20.000Z</time>
</trkpt>
<trkpt lat="45.9040380" lon="9.8362620">
	<ele>1845.20</ele>
	<time>2023-11-18T09:26:21.000Z</time>
</trkpt>
<trkpt lat="45.9040430" lon="9.8362470">
	<ele>1845.40</ele>
	<time>2023-11-18T09:26:22.000Z</time>
</trkpt>
<trkpt lat="45.9040460" lon="9.8362420">
	<ele>1845.40</ele>
	<time>2023-11-18T09:26:23.000Z</time>
</trkpt>
<trkpt lat="45.9040480" lon="9.8362360">
	<ele>1845.60</ele>
	<time>2023-11-18T09:26:24.000Z</time>
</trkpt>
<trkpt lat="45.9040480" lon="9.8362290">
	<ele>1845.60</ele>
	<time>2023-11-18T09:26:25.000Z</time>
</trkpt>
<trkpt lat="45.9040500" lon="9.8362230">
	<ele>1845.60</ele>
	<time>2023-11-18T09:26:26.000Z</time>
</trkpt>
<trkpt lat="45.9040520" lon="9.8362180">
	<ele>1845.80</ele>
	<time>2023-11-18T09:26:27.000Z</time>
</trkpt>
<trkpt lat="45.9040570" lon="9.8362100">
	<ele>1846.00</ele>
	<time>2023-11-18T09:26:28.000Z</time>
</trkpt>
<trkpt lat="45.9040600" lon="9.8362040">
	<ele>1846.20</ele>
	<time>2023-11-18T09:26:29.000Z</time>
</trkpt>
<trkpt lat="45.9040630" lon="9.8362000">
	<ele>1846.40</ele>
	<time>2023-11-18T09:26:30.000Z</time>
</trkpt>
<trkpt lat="45.9040660" lon="9.8361910">
	<ele>1846.60</ele>
	<time>2023-11-18T09:26:31.000Z</time>
</trkpt>
<trkpt lat="45.9040680" lon="9.8361860">
	<ele>1846.60</ele>
	<time>2023-11-18T09:26:32.000Z</time>
</trkpt>
<trkpt lat="45.9040670" lon="9.8361790">
	<ele>1846.80</ele>
	<time>2023-11-18T09:26:33.000Z</time>
</trkpt>
<trkpt lat="45.9040720" lon="9.8361730">
	<ele>1846.80</ele>
	<time>2023-11-18T09:26:34.000Z</time>
</trkpt>
<trkpt lat="45.9040760" lon="9.8361670">
	<ele>1847.00</ele>
	<time>2023-11-18T09:26:35.000Z</time>
</trkpt>
<trkpt lat="45.9040780" lon="9.8361620">
	<ele>1847.20</ele>
	<time>2023-11-18T09:26:36.000Z</time>
</trkpt>
<trkpt lat="45.9040840" lon="9.8361570">
	<ele>1847.40</ele>
	<time>2023-11-18T09:26:37.000Z</time>
</trkpt>
<trkpt lat="45.9040880" lon="9.8361490">
	<ele>1847.40</ele>
	<time>2023-11-18T09:26:38.000Z</time>
</trkpt>
<trkpt lat="45.9040900" lon="9.8361420">
	<ele>1847.60</ele>
	<time>2023-11-18T09:26:39.000Z</time>
</trkpt>
<trkpt lat="45.9040920" lon="9.8361360">
	<ele>1847.60</ele>
	<time>2023-11-18T09:26:40.000Z</time>
</trkpt>
<trkpt lat="45.9040930" lon="9.8361300">
	<ele>1847.80</ele>
	<time>2023-11-18T09:26:41.000Z</time>
</trkpt>
<trkpt lat="45.9040970" lon="9.8361220">
	<ele>1848.00</ele>
	<time>2023-11-18T09:26:42.000Z</time>
</trkpt>
<trkpt lat="45.9041020" lon="9.8361140">
	<ele>1848.00</ele>
	<time>2023-11-18T09:26:43.000Z</time>
</trkpt>
<trkpt lat="45.9041040" lon="9.8361070">
	<ele>1848.20</ele>
	<time>2023-11-18T09:26:44.000Z</time>
</trkpt>
<trkpt lat="45.9041050" lon="9.8360990">
	<ele>1848.20</ele>
	<time>2023-11-18T09:26:45.000Z</time>
</trkpt>
<trkpt lat="45.9041090" lon="9.8360900">
	<ele>1848.20</ele>
	<time>2023-11-18T09:26:46.000Z</time>
</trkpt>
<trkpt lat="45.9041120" lon="9.8360840">
	<ele>1848.40</ele>
	<time>2023-11-18T09:26:47.000Z</time>
</trkpt>
<trkpt lat="45.9041150" lon="9.8360770">
	<ele>1848.40</ele>
	<time>2023-11-18T09:26:48.000Z</time>
</trkpt>
<trkpt lat="45.9041170" lon="9.8360720">
	<ele>1848.60</ele>
	<time>2023-11-18T09:26:49.000Z</time>
</trkpt>
<trkpt lat="45.9041190" lon="9.8360640">
	<ele>1848.60</ele>
	<time>2023-11-18T09:26:50.000Z</time>
</trkpt>
<trkpt lat="45.9041270" lon="9.8360570">
	<ele>1848.80</ele>
	<time>2023-11-18T09:26:51.000Z</time>
</trkpt>
<trkpt lat="45.9041280" lon="9.8360500">
	<ele>1848.80</ele>
	<time>2023-11-18T09:26:52.000Z</time>
</trkpt>
<trkpt lat="45.9041300" lon="9.8360390">
	<ele>1849.00</ele>
	<time>2023-11-18T09:26:53.000Z</time>
</trkpt>
<trkpt lat="45.9041350" lon="9.8360290">
	<ele>1849.00</ele>
	<time>2023-11-18T09:26:54.000Z</time>
</trkpt>
<trkpt lat="45.9041370" lon="9.8360200">
	<ele>1849.20</ele>
	<time>2023-11-18T09:26:55.000Z</time>
</trkpt>
<trkpt lat="45.9041400" lon="9.8360090">
	<ele>1849.20</ele>
	<time>2023-11-18T09:26:56.000Z</time>
</trkpt>
<trkpt lat="45.9041440" lon="9.8359970">
	<ele>1849.20</ele>
	<time>2023-11-18T09:26:57.000Z</time>
</trkpt>
<trkpt lat="45.9041480" lon="9.8359850">
	<ele>1849.40</ele>
	<time>2023-11-18T09:26:58.000Z</time>
</trkpt>
<trkpt lat="45.9041510" lon="9.8359720">
	<ele>1849.60</ele>
	<time>2023-11-18T09:26:59.000Z</time>
</trkpt>
<trkpt lat="45.9041560" lon="9.8359610">
	<ele>1849.60</ele>
	<time>2023-11-18T09:27:00.000Z</time>
</trkpt>
<trkpt lat="45.9041600" lon="9.8359540">
	<ele>1849.60</ele>
	<time>2023-11-18T09:27:01.000Z</time>
</trkpt>
<trkpt lat="45.9041670" lon="9.8359470">
	<ele>1849.40</ele>
	<time>2023-11-18T09:27:02.000Z</time>
</trkpt>
<trkpt lat="45.9041750" lon="9.8359370">
	<ele>1849.60</ele>
	<time>2023-11-18T09:27:03.000Z</time>
</trkpt>
<trkpt lat="45.9041790" lon="9.8359310">
	<ele>1849.60</ele>
	<time>2023-11-18T09:27:04.000Z</time>
</trkpt>
<trkpt lat="45.9041890" lon="9.8359240">
	<ele>1849.60</ele>
	<time>2023-11-18T09:27:05.000Z</time>
</trkpt>
<trkpt lat="45.9041950" lon="9.8359180">
	<ele>1849.80</ele>
	<time>2023-11-18T09:27:06.000Z</time>
</trkpt>
<trkpt lat="45.9041990" lon="9.8359160">
	<ele>1849.80</ele>
	<time>2023-11-18T09:27:07.000Z</time>
</trkpt>
<trkpt lat="45.9042070" lon="9.8359140">
	<ele>1849.80</ele>
	<time>2023-11-18T09:27:08.000Z</time>
</trkpt>
<trkpt lat="45.9042120" lon="9.8359080">
	<ele>1850.00</ele>
	<time>2023-11-18T09:27:09.000Z</time>
</trkpt>
<trkpt lat="45.9042140" lon="9.8359050">
	<ele>1850.00</ele>
	<time>2023-11-18T09:27:10.000Z</time>
</trkpt>
<trkpt lat="45.9042160" lon="9.8359010">
	<ele>1850.20</ele>
	<time>2023-11-18T09:27:11.000Z</time>
</trkpt>
<trkpt lat="45.9042250" lon="9.8358930">
	<ele>1850.40</ele>
	<time>2023-11-18T09:27:12.000Z</time>
</trkpt>
<trkpt lat="45.9042300" lon="9.8358880">
	<ele>1850.40</ele>
	<time>2023-11-18T09:27:13.000Z</time>
</trkpt>
<trkpt lat="45.9042320" lon="9.8358790">
	<ele>1850.60</ele>
	<time>2023-11-18T09:27:14.000Z</time>
</trkpt>
<trkpt lat="45.9042370" lon="9.8358730">
	<ele>1850.80</ele>
	<time>2023-11-18T09:27:15.000Z</time>
</trkpt>
<trkpt lat="45.9042380" lon="9.8358670">
	<ele>1850.80</ele>
	<time>2023-11-18T09:27:16.000Z</time>
</trkpt>
<trkpt lat="45.9042380" lon="9.8358610">
	<ele>1850.80</ele>
	<time>2023-11-18T09:27:17.000Z</time>
</trkpt>
<trkpt lat="45.9042400" lon="9.8358540">
	<ele>1851.00</ele>
	<time>2023-11-18T09:27:18.000Z</time>
</trkpt>
<trkpt lat="45.9042410" lon="9.8358470">
	<ele>1851.00</ele>
	<time>2023-11-18T09:27:19.000Z</time>
</trkpt>
<trkpt lat="45.9042410" lon="9.8358370">
	<ele>1851.00</ele>
	<time>2023-11-18T09:27:20.000Z</time>
</trkpt>
<trkpt lat="45.9042430" lon="9.8358300">
	<ele>1851.20</ele>
	<time>2023-11-18T09:27:21.000Z</time>
</trkpt>
<trkpt lat="45.9042440" lon="9.8358250">
	<ele>1851.20</ele>
	<time>2023-11-18T09:27:22.000Z</time>
</trkpt>
<trkpt lat="45.9042480" lon="9.8358170">
	<ele>1851.40</ele>
	<time>2023-11-18T09:27:23.000Z</time>
</trkpt>
<trkpt lat="45.9042500" lon="9.8358090">
	<ele>1851.40</ele>
	<time>2023-11-18T09:27:24.000Z</time>
</trkpt>
<trkpt lat="45.9042530" lon="9.8358030">
	<ele>1851.40</ele>
	<time>2023-11-18T09:27:25.000Z</time>
</trkpt>
<trkpt lat="45.9042590" lon="9.8357930">
	<ele>1851.40</ele>
	<time>2023-11-18T09:27:26.000Z</time>
</trkpt>
<trkpt lat="45.9042610" lon="9.8357870">
	<ele>1851.60</ele>
	<time>2023-11-18T09:27:27.000Z</time>
</trkpt>
<trkpt lat="45.9042620" lon="9.8357800">
	<ele>1851.80</ele>
	<time>2023-11-18T09:27:28.000Z</time>
</trkpt>
<trkpt lat="45.9042630" lon="9.8357720">
	<ele>1851.80</ele>
	<time>2023-11-18T09:27:29.000Z</time>
</trkpt>
<trkpt lat="45.9042660" lon="9.8357630">
	<ele>1851.80</ele>
	<time>2023-11-18T09:27:30.000Z</time>
</trkpt>
<trkpt lat="45.9042680" lon="9.8357590">
	<ele>1852.00</ele>
	<time>2023-11-18T09:27:31.000Z</time>
</trkpt>
<trkpt lat="45.9042730" lon="9.8357510">
	<ele>1852.20</ele>
	<time>2023-11-18T09:27:32.000Z</time>
</trkpt>
<trkpt lat="45.9042750" lon="9.8357460">
	<ele>1852.40</ele>
	<time>2023-11-18T09:27:33.000Z</time>
</trkpt>
<trkpt lat="45.9042760" lon="9.8357420">
	<ele>1852.60</ele>
	<time>2023-11-18T09:27:34.000Z</time>
</trkpt>
<trkpt lat="45.9042770" lon="9.8357390">
	<ele>1852.80</ele>
	<time>2023-11-18T09:27:35.000Z</time>
</trkpt>
<trkpt lat="45.9042820" lon="9.8357320">
	<ele>1853.00</ele>
	<time>2023-11-18T09:27:36.000Z</time>
</trkpt>
<trkpt lat="45.9042880" lon="9.8357260">
	<ele>1853.20</ele>
	<time>2023-11-18T09:27:37.000Z</time>
</trkpt>
<trkpt lat="45.9042950" lon="9.8357170">
	<ele>1853.20</ele>
	<time>2023-11-18T09:27:38.000Z</time>
</trkpt>
<trkpt lat="45.9043030" lon="9.8357090">
	<ele>1853.40</ele>
	<time>2023-11-18T09:27:39.000Z</time>
</trkpt>
<trkpt lat="45.9043050" lon="9.8357040">
	<ele>1853.40</ele>
	<time>2023-11-18T09:27:40.000Z</time>
</trkpt>
<trkpt lat="45.9043060" lon="9.8356980">
	<ele>1853.60</ele>
	<time>2023-11-18T09:27:41.000Z</time>
</trkpt>
<trkpt lat="45.9043090" lon="9.8356930">
	<ele>1853.60</ele>
	<time>2023-11-18T09:27:42.000Z</time>
</trkpt>
<trkpt lat="45.9043120" lon="9.8356880">
	<ele>1853.80</ele>
	<time>2023-11-18T09:27:43.000Z</time>
</trkpt>
<trkpt lat="45.9043170" lon="9.8356830">
	<ele>1854.00</ele>
	<time>2023-11-18T09:27:44.000Z</time>
</trkpt>
<trkpt lat="45.9043210" lon="9.8356770">
	<ele>1854.20</ele>
	<time>2023-11-18T09:27:45.000Z</time>
</trkpt>
<trkpt lat="45.9043250" lon="9.8356710">
	<ele>1854.40</ele>
	<time>2023-11-18T09:27:46.000Z</time>
</trkpt>
<trkpt lat="45.9043340" lon="9.8356640">
	<ele>1854.60</ele>
	<time>2023-11-18T09:27:47.000Z</time>
</trkpt>
<trkpt lat="45.9043390" lon="9.8356600">
	<ele>1854.80</ele>
	<time>2023-11-18T09:27:48.000Z</time>
</trkpt>
<trkpt lat="45.9043430" lon="9.8356590">
	<ele>1855.00</ele>
	<time>2023-11-18T09:27:49.000Z</time>
</trkpt>
<trkpt lat="45.9043470" lon="9.8356560">
	<ele>1855.20</ele>
	<time>2023-11-18T09:27:50.000Z</time>
</trkpt>
<trkpt lat="45.9043510" lon="9.8356520">
	<ele>1855.20</ele>
	<time>2023-11-18T09:27:51.000Z</time>
</trkpt>
<trkpt lat="45.9043540" lon="9.8356480">
	<ele>1855.40</ele>
	<time>2023-11-18T09:27:52.000Z</time>
</trkpt>
<trkpt lat="45.9043590" lon="9.8356400">
	<ele>1855.40</ele>
	<time>2023-11-18T09:27:53.000Z</time>
</trkpt>
<trkpt lat="45.9043610" lon="9.8356340">
	<ele>1855.60</ele>
	<time>2023-11-18T09:27:54.000Z</time>
</trkpt>
<trkpt lat="45.9043630" lon="9.8356280">
	<ele>1855.60</ele>
	<time>2023-11-18T09:27:55.000Z</time>
</trkpt>
<trkpt lat="45.9043660" lon="9.8356230">
	<ele>1855.80</ele>
	<time>2023-11-18T09:27:56.000Z</time>
</trkpt>
<trkpt lat="45.9043670" lon="9.8356190">
	<ele>1856.00</ele>
	<time>2023-11-18T09:27:57.000Z</time>
</trkpt>
<trkpt lat="45.9043680" lon="9.8356150">
	<ele>1856.20</ele>
	<time>2023-11-18T09:27:58.000Z</time>
</trkpt>
<trkpt lat="45.9043710" lon="9.8356120">
	<ele>1856.40</ele>
	<time>2023-11-18T09:27:59.000Z</time>
</trkpt>
<trkpt lat="45.9043750" lon="9.8356060">
	<ele>1856.40</ele>
	<time>2023-11-18T09:28:00.000Z</time>
</trkpt>
<trkpt lat="45.9043800" lon="9.8355940">
	<ele>1856.60</ele>
	<time>2023-11-18T09:28:01.000Z</time>
</trkpt>
<trkpt lat="45.9043830" lon="9.8355890">
	<ele>1856.80</ele>
	<time>2023-11-18T09:28:02.000Z</time>
</trkpt>
<trkpt lat="45.9043850" lon="9.8355880">
	<ele>1857.00</ele>
	<time>2023-11-18T09:28:03.000Z</time>
</trkpt>
<trkpt lat="45.9043860" lon="9.8355850">
	<ele>1857.20</ele>
	<time>2023-11-18T09:28:04.000Z</time>
</trkpt>
<trkpt lat="45.9043880" lon="9.8355830">
	<ele>1857.40</ele>
	<time>2023-11-18T09:28:05.000Z</time>
</trkpt>
<trkpt lat="45.9043900" lon="9.8355790">
	<ele>1857.40</ele>
	<time>2023-11-18T09:28:06.000Z</time>
</trkpt>
<trkpt lat="45.9043910" lon="9.8355780">
	<ele>1857.40</ele>
	<time>2023-11-18T09:28:07.000Z</time>
</trkpt>
<trkpt lat="45.9043950" lon="9.8355720">
	<ele>1857.60</ele>
	<time>2023-11-18T09:28:08.000Z</time>
</trkpt>
<trkpt lat="45.9043950" lon="9.8355690">
	<ele>1857.80</ele>
	<time>2023-11-18T09:28:09.000Z</time>
</trkpt>
<trkpt lat="45.9043980" lon="9.8355660">
	<ele>1858.00</ele>
	<time>2023-11-18T09:28:10.000Z</time>
</trkpt>
<trkpt lat="45.9044010" lon="9.8355620">
	<ele>1858.20</ele>
	<time>2023-11-18T09:28:11.000Z</time>
</trkpt>
<trkpt lat="45.9044030" lon="9.8355590">
	<ele>1858.60</ele>
	<time>2023-11-18T09:28:12.000Z</time>
</trkpt>
<trkpt lat="45.9044040" lon="9.8355540">
	<ele>1858.80</ele>
	<time>2023-11-18T09:28:13.000Z</time>
</trkpt>
<trkpt lat="45.9044050" lon="9.8355480">
	<ele>1858.80</ele>
	<time>2023-11-18T09:28:14.000Z</time>
</trkpt>
<trkpt lat="45.9044060" lon="9.8355410">
	<ele>1859.00</ele>
	<time>2023-11-18T09:28:15.000Z</time>
</trkpt>
<trkpt lat="45.9044070" lon="9.8355360">
	<ele>1859.20</ele>
	<time>2023-11-18T09:28:16.000Z</time>
</trkpt>
<trkpt lat="45.9044090" lon="9.8355330">
	<ele>1859.20</ele>
	<time>2023-11-18T09:28:17.000Z</time>
</trkpt>
<trkpt lat="45.9044120" lon="9.8355270">
	<ele>1859.40</ele>
	<time>2023-11-18T09:28:18.000Z</time>
</trkpt>
<trkpt lat="45.9044130" lon="9.8355230">
	<ele>1859.80</ele>
	<time>2023-11-18T09:28:19.000Z</time>
</trkpt>
<trkpt lat="45.9044130" lon="9.8355190">
	<ele>1860.00</ele>
	<time>2023-11-18T09:28:20.000Z</time>
</trkpt>
<trkpt lat="45.9044150" lon="9.8355140">
	<ele>1860.20</ele>
	<time>2023-11-18T09:28:21.000Z</time>
</trkpt>
<trkpt lat="45.9044150" lon="9.8355100">
	<ele>1860.40</ele>
	<time>2023-11-18T09:28:22.000Z</time>
</trkpt>
<trkpt lat="45.9044210" lon="9.8355070">
	<ele>1860.40</ele>
	<time>2023-11-18T09:28:23.000Z</time>
</trkpt>
<trkpt lat="45.9044220" lon="9.8355020">
	<ele>1860.60</ele>
	<time>2023-11-18T09:28:24.000Z</time>
</trkpt>
<trkpt lat="45.9044260" lon="9.8354960">
	<ele>1860.80</ele>
	<time>2023-11-18T09:28:25.000Z</time>
</trkpt>
<trkpt lat="45.9044310" lon="9.8354910">
	<ele>1860.80</ele>
	<time>2023-11-18T09:28:26.000Z</time>
</trkpt>
<trkpt lat="45.9044310" lon="9.8354870">
	<ele>1861.00</ele>
	<time>2023-11-18T09:28:27.000Z</time>
</trkpt>
<trkpt lat="45.9044310" lon="9.8354820">
	<ele>1861.40</ele>
	<time>2023-11-18T09:28:28.000Z</time>
</trkpt>
<trkpt lat="45.9044320" lon="9.8354720">
	<ele>1861.80</ele>
	<time>2023-11-18T09:28:29.000Z</time>
</trkpt>
<trkpt lat="45.9044320" lon="9.8354640">
	<ele>1861.80</ele>
	<time>2023-11-18T09:28:30.000Z</time>
</trkpt>
<trkpt lat="45.9044330" lon="9.8354520">
	<ele>1862.00</ele>
	<time>2023-11-18T09:28:31.000Z</time>
</trkpt>
<trkpt lat="45.9044280" lon="9.8354440">
	<ele>1862.00</ele>
	<time>2023-11-18T09:28:32.000Z</time>
</trkpt>
<trkpt lat="45.9044290" lon="9.8354360">
	<ele>1862.00</ele>
	<time>2023-11-18T09:28:33.000Z</time>
</trkpt>
<trkpt lat="45.9044270" lon="9.8354260">
	<ele>1862.20</ele>
	<time>2023-11-18T09:28:34.000Z</time>
</trkpt>
<trkpt lat="45.9044280" lon="9.8354170">
	<ele>1862.20</ele>
	<time>2023-11-18T09:28:35.000Z</time>
</trkpt>
<trkpt lat="45.9044280" lon="9.8354090">
	<ele>1862.40</ele>
	<time>2023-11-18T09:28:36.000Z</time>
</trkpt>
<trkpt lat="45.9044300" lon="9.8354000">
	<ele>1862.40</ele>
	<time>2023-11-18T09:28:37.000Z</time>
</trkpt>
<trkpt lat="45.9044340" lon="9.8353880">
	<ele>1862.40</ele>
	<time>2023-11-18T09:28:38.000Z</time>
</trkpt>
<trkpt lat="45.9044370" lon="9.8353740">
	<ele>1862.40</ele>
	<time>2023-11-18T09:28:39.000Z</time>
</trkpt>
<trkpt lat="45.9044420" lon="9.8353640">
	<ele>1862.80</ele>
	<time>2023-11-18T09:28:40.000Z</time>
</trkpt>
<trkpt lat="45.9044470" lon="9.8353560">
	<ele>1863.00</ele>
	<time>2023-11-18T09:28:41.000Z</time>
</trkpt>
<trkpt lat="45.9044500" lon="9.8353490">
	<ele>1863.00</ele>
	<time>2023-11-18T09:28:42.000Z</time>
</trkpt>
<trkpt lat="45.9044520" lon="9.8353430">
	<ele>1863.20</ele>
	<time>2023-11-18T09:28:43.000Z</time>
</trkpt>
<trkpt lat="45.9044560" lon="9.8353370">
	<ele>1863.20</ele>
	<time>2023-11-18T09:28:44.000Z</time>
</trkpt>
<trkpt lat="45.9044610" lon="9.8353310">
	<ele>1863.20</ele>
	<time>2023-11-18T09:28:45.000Z</time>
</trkpt>
<trkpt lat="45.9044650" lon="9.8353250">
	<ele>1863.40</ele>
	<time>2023-11-18T09:28:46.000Z</time>
</trkpt>
<trkpt lat="45.9044680" lon="9.8353150">
	<ele>1863.40</ele>
	<time>2023-11-18T09:28:47.000Z</time>
</trkpt>
<trkpt lat="45.9044690" lon="9.8353070">
	<ele>1863.40</ele>
	<time>2023-11-18T09:28:48.000Z</time>
</trkpt>
<trkpt lat="45.9044690" lon="9.8352970">
	<ele>1863.60</ele>
	<time>2023-11-18T09:28:49.000Z</time>
</trkpt>
<trkpt lat="45.9044690" lon="9.8352900">
	<ele>1863.60</ele>
	<time>2023-11-18T09:28:50.000Z</time>
</trkpt>
<trkpt lat="45.9044740" lon="9.8352840">
	<ele>1863.80</ele>
	<time>2023-11-18T09:28:51.000Z</time>
</trkpt>
<trkpt lat="45.9044750" lon="9.8352800">
	<ele>1863.80</ele>
	<time>2023-11-18T09:28:52.000Z</time>
</trkpt>
<trkpt lat="45.9044740" lon="9.8352780">
	<ele>1863.80</ele>
	<time>2023-11-18T09:28:53.000Z</time>
</trkpt>
<trkpt lat="45.9044770" lon="9.8352740">
	<ele>1864.00</ele>
	<time>2023-11-18T09:28:54.000Z</time>
</trkpt>
<trkpt lat="45.9044770" lon="9.8352680">
	<ele>1864.00</ele>
	<time>2023-11-18T09:28:55.000Z</time>
</trkpt>
<trkpt lat="45.9044820" lon="9.8352610">
	<ele>1864.00</ele>
	<time>2023-11-18T09:28:56.000Z</time>
</trkpt>
<trkpt lat="45.9044900" lon="9.8352520">
	<ele>1864.00</ele>
	<time>2023-11-18T09:28:57.000Z</time>
</trkpt>
<trkpt lat="45.9044940" lon="9.8352410">
	<ele>1864.20</ele>
	<time>2023-11-18T09:28:58.000Z</time>
</trkpt>
<trkpt lat="45.9044970" lon="9.8352350">
	<ele>1864.40</ele>
	<time>2023-11-18T09:28:59.000Z</time>
</trkpt>
<trkpt lat="45.9045020" lon="9.8352300">
	<ele>1864.40</ele>
	<time>2023-11-18T09:29:00.000Z</time>
</trkpt>
<trkpt lat="45.9045070" lon="9.8352220">
	<ele>1864.60</ele>
	<time>2023-11-18T09:29:01.000Z</time>
</trkpt>
<trkpt lat="45.9045090" lon="9.8352170">
	<ele>1864.80</ele>
	<time>2023-11-18T09:29:02.000Z</time>
</trkpt>
<trkpt lat="45.9045140" lon="9.8352160">
	<ele>1865.00</ele>
	<time>2023-11-18T09:29:03.000Z</time>
</trkpt>
<trkpt lat="45.9045220" lon="9.8352130">
	<ele>1865.20</ele>
	<time>2023-11-18T09:29:04.000Z</time>
</trkpt>
<trkpt lat="45.9045290" lon="9.8352090">
	<ele>1865.20</ele>
	<time>2023-11-18T09:29:05.000Z</time>
</trkpt>
<trkpt lat="45.9045370" lon="9.8352050">
	<ele>1865.40</ele>
	<time>2023-11-18T09:29:06.000Z</time>
</trkpt>
<trkpt lat="45.9045430" lon="9.8351940">
	<ele>1865.60</ele>
	<time>2023-11-18T09:29:07.000Z</time>
</trkpt>
<trkpt lat="45.9045450" lon="9.8351850">
	<ele>1866.00</ele>
	<time>2023-11-18T09:29:08.000Z</time>
</trkpt>
<trkpt lat="45.9045460" lon="9.8351800">
	<ele>1866.20</ele>
	<time>2023-11-18T09:29:09.000Z</time>
</trkpt>
<trkpt lat="45.9045440" lon="9.8351730">
	<ele>1866.20</ele>
	<time>2023-11-18T09:29:10.000Z</time>
</trkpt>
<trkpt lat="45.9045450" lon="9.8351650">
	<ele>1866.40</ele>
	<time>2023-11-18T09:29:11.000Z</time>
</trkpt>
<trkpt lat="45.9045450" lon="9.8351610">
	<ele>1866.40</ele>
	<time>2023-11-18T09:29:12.000Z</time>
</trkpt>
<trkpt lat="45.9045480" lon="9.8351550">
	<ele>1866.40</ele>
	<time>2023-11-18T09:29:13.000Z</time>
</trkpt>
<trkpt lat="45.9045480" lon="9.8351500">
	<ele>1866.60</ele>
	<time>2023-11-18T09:29:14.000Z</time>
</trkpt>
<trkpt lat="45.9045490" lon="9.8351450">
	<ele>1866.60</ele>
	<time>2023-11-18T09:29:15.000Z</time>
</trkpt>
<trkpt lat="45.9045540" lon="9.8351380">
	<ele>1866.80</ele>
	<time>2023-11-18T09:29:16.000Z</time>
</trkpt>
<trkpt lat="45.9045610" lon="9.8351300">
	<ele>1866.80</ele>
	<time>2023-11-18T09:29:17.000Z</time>
</trkpt>
<trkpt lat="45.9045660" lon="9.8351230">
	<ele>1866.80</ele>
	<time>2023-11-18T09:29:18.000Z</time>
</trkpt>
<trkpt lat="45.9045710" lon="9.8351190">
	<ele>1867.00</ele>
	<time>2023-11-18T09:29:19.000Z</time>
</trkpt>
<trkpt lat="45.9045730" lon="9.8351090">
	<ele>1867.40</ele>
	<time>2023-11-18T09:29:20.000Z</time>
</trkpt>
<trkpt lat="45.9045780" lon="9.8350990">
	<ele>1867.60</ele>
	<time>2023-11-18T09:29:21.000Z</time>
</trkpt>
<trkpt lat="45.9045820" lon="9.8350940">
	<ele>1867.80</ele>
	<time>2023-11-18T09:29:22.000Z</time>
</trkpt>
<trkpt lat="45.9045850" lon="9.8350870">
	<ele>1867.80</ele>
	<time>2023-11-18T09:29:23.000Z</time>
</trkpt>
<trkpt lat="45.9045900" lon="9.8350790">
	<ele>1868.00</ele>
	<time>2023-11-18T09:29:24.000Z</time>
</trkpt>
<trkpt lat="45.9045960" lon="9.8350750">
	<ele>1868.00</ele>
	<time>2023-11-18T09:29:25.000Z</time>
</trkpt>
<trkpt lat="45.9045990" lon="9.8350690">
	<ele>1868.20</ele>
	<time>2023-11-18T09:29:26.000Z</time>
</trkpt>
<trkpt lat="45.9046020" lon="9.8350630">
	<ele>1868.40</ele>
	<time>2023-11-18T09:29:27.000Z</time>
</trkpt>
<trkpt lat="45.9046060" lon="9.8350560">
	<ele>1868.60</ele>
	<time>2023-11-18T09:29:28.000Z</time>
</trkpt>
<trkpt lat="45.9046080" lon="9.8350500">
	<ele>1868.80</ele>
	<time>2023-11-18T09:29:29.000Z</time>
</trkpt>
<trkpt lat="45.9046080" lon="9.8350500">
	<ele>1869.00</ele>
	<time>2023-11-18T09:29:30.000Z</time>
</trkpt>
<trkpt lat="45.9046160" lon="9.8350350">
	<ele>1869.00</ele>
	<time>2023-11-18T09:29:31.000Z</time>
</trkpt>
<trkpt lat="45.9046200" lon="9.8350340">
	<ele>1869.20</ele>
	<time>2023-11-18T09:29:32.000Z</time>
</trkpt>
<trkpt lat="45.9046230" lon="9.8350330">
	<ele>1869.20</ele>
	<time>2023-11-18T09:29:33.000Z</time>
</trkpt>
<trkpt lat="45.9046250" lon="9.8350310">
	<ele>1869.40</ele>
	<time>2023-11-18T09:29:34.000Z</time>
</trkpt>
<trkpt lat="45.9046320" lon="9.8350290">
	<ele>1869.40</ele>
	<time>2023-11-18T09:29:35.000Z</time>
</trkpt>
<trkpt lat="45.9046380" lon="9.8350260">
	<ele>1869.60</ele>
	<time>2023-11-18T09:29:36.000Z</time>
</trkpt>
<trkpt lat="45.9046430" lon="9.8350230">
	<ele>1869.60</ele>
	<time>2023-11-18T09:29:37.000Z</time>
</trkpt>
<trkpt lat="45.9046470" lon="9.8350170">
	<ele>1869.80</ele>
	<time>2023-11-18T09:29:38.000Z</time>
</trkpt>
<trkpt lat="45.9046480" lon="9.8350140">
	<ele>1870.00</ele>
	<time>2023-11-18T09:29:39.000Z</time>
</trkpt>
<trkpt lat="45.9046510" lon="9.8350120">
	<ele>1870.20</ele>
	<time>2023-11-18T09:29:40.000Z</time>
</trkpt>
<trkpt lat="45.9046520" lon="9.8350110">
	<ele>1870.20</ele>
	<time>2023-11-18T09:29:41.000Z</time>
</trkpt>
<trkpt lat="45.9046560" lon="9.8350100">
	<ele>1870.40</ele>
	<time>2023-11-18T09:29:42.000Z</time>
</trkpt>
<trkpt lat="45.9046620" lon="9.8350090">
	<ele>1870.60</ele>
	<time>2023-11-18T09:29:43.000Z</time>
</trkpt>
<trkpt lat="45.9046660" lon="9.8350060">
	<ele>1870.80</ele>
	<time>2023-11-18T09:29:44.000Z</time>
</trkpt>
<trkpt lat="45.9046690" lon="9.8350060">
	<ele>1870.80</ele>
	<time>2023-11-18T09:29:45.000Z</time>
</trkpt>
<trkpt lat="45.9046710" lon="9.8350070">
	<ele>1870.80</ele>
	<time>2023-11-18T09:29:46.000Z</time>
</trkpt>
<trkpt lat="45.9046780" lon="9.8350020">
	<ele>1871.00</ele>
	<time>2023-11-18T09:29:47.000Z</time>
</trkpt>
<trkpt lat="45.9046820" lon="9.8349990">
	<ele>1871.20</ele>
	<time>2023-11-18T09:29:48.000Z</time>
</trkpt>
<trkpt lat="45.9046890" lon="9.8349950">
	<ele>1871.40</ele>
	<time>2023-11-18T09:29:49.000Z</time>
</trkpt>
<trkpt lat="45.9046930" lon="9.8349900">
	<ele>1871.60</ele>
	<time>2023-11-18T09:29:50.000Z</time>
</trkpt>
<trkpt lat="45.9046990" lon="9.8349870">
	<ele>1871.80</ele>
	<time>2023-11-18T09:29:51.000Z</time>
</trkpt>
<trkpt lat="45.9047040" lon="9.8349860">
	<ele>1872.00</ele>
	<time>2023-11-18T09:29:52.000Z</time>
</trkpt>
<trkpt lat="45.9047100" lon="9.8349830">
	<ele>1872.00</ele>
	<time>2023-11-18T09:29:53.000Z</time>
</trkpt>
<trkpt lat="45.9047140" lon="9.8349810">
	<ele>1872.20</ele>
	<time>2023-11-18T09:29:54.000Z</time>
</trkpt>
<trkpt lat="45.9047190" lon="9.8349800">
	<ele>1872.40</ele>
	<time>2023-11-18T09:29:55.000Z</time>
</trkpt>
<trkpt lat="45.9047230" lon="9.8349810">
	<ele>1872.60</ele>
	<time>2023-11-18T09:29:56.000Z</time>
</trkpt>
<trkpt lat="45.9047280" lon="9.8349790">
	<ele>1872.60</ele>
	<time>2023-11-18T09:29:57.000Z</time>
</trkpt>
<trkpt lat="45.9047280" lon="9.8349760">
	<ele>1872.80</ele>
	<time>2023-11-18T09:29:58.000Z</time>
</trkpt>
<trkpt lat="45.9047310" lon="9.8349730">
	<ele>1873.00</ele>
	<time>2023-11-18T09:29:59.000Z</time>
</trkpt>
<trkpt lat="45.9047340" lon="9.8349710">
	<ele>1873.40</ele>
	<time>2023-11-18T09:30:00.000Z</time>
</trkpt>
<trkpt lat="45.9047370" lon="9.8349690">
	<ele>1873.40</ele>
	<time>2023-11-18T09:30:01.000Z</time>
</trkpt>
<trkpt lat="45.9047420" lon="9.8349700">
	<ele>1873.60</ele>
	<time>2023-11-18T09:30:02.000Z</time>
</trkpt>
<trkpt lat="45.9047460" lon="9.8349700">
	<ele>1873.80</ele>
	<time>2023-11-18T09:30:03.000Z</time>
</trkpt>
<trkpt lat="45.9047480" lon="9.8349660">
	<ele>1874.00</ele>
	<time>2023-11-18T09:30:04.000Z</time>
</trkpt>
<trkpt lat="45.9047540" lon="9.8349610">
	<ele>1874.20</ele>
	<time>2023-11-18T09:30:05.000Z</time>
</trkpt>
<trkpt lat="45.9047600" lon="9.8349580">
	<ele>1874.40</ele>
	<time>2023-11-18T09:30:06.000Z</time>
</trkpt>
<trkpt lat="45.9047640" lon="9.8349540">
	<ele>1874.60</ele>
	<time>2023-11-18T09:30:07.000Z</time>
</trkpt>
<trkpt lat="45.9047660" lon="9.8349480">
	<ele>1874.80</ele>
	<time>2023-11-18T09:30:08.000Z</time>
</trkpt>
<trkpt lat="45.9047700" lon="9.8349450">
	<ele>1875.00</ele>
	<time>2023-11-18T09:30:09.000Z</time>
</trkpt>
<trkpt lat="45.9047720" lon="9.8349450">
	<ele>1875.00</ele>
	<time>2023-11-18T09:30:10.000Z</time>
</trkpt>
<trkpt lat="45.9047740" lon="9.8349400">
	<ele>1875.20</ele>
	<time>2023-11-18T09:30:11.000Z</time>
</trkpt>
<trkpt lat="45.9047780" lon="9.8349350">
	<ele>1875.40</ele>
	<time>2023-11-18T09:30:12.000Z</time>
</trkpt>
<trkpt lat="45.9047820" lon="9.8349300">
	<ele>1875.40</ele>
	<time>2023-11-18T09:30:13.000Z</time>
</trkpt>
<trkpt lat="45.9047870" lon="9.8349250">
	<ele>1875.60</ele>
	<time>2023-11-18T09:30:14.000Z</time>
</trkpt>
<trkpt lat="45.9047930" lon="9.8349230">
	<ele>1875.80</ele>
	<time>2023-11-18T09:30:15.000Z</time>
</trkpt>
<trkpt lat="45.9047980" lon="9.8349210">
	<ele>1875.80</ele>
	<time>2023-11-18T09:30:16.000Z</time>
</trkpt>
<trkpt lat="45.9048020" lon="9.8349180">
	<ele>1875.80</ele>
	<time>2023-11-18T09:30:17.000Z</time>
</trkpt>
<trkpt lat="45.9048070" lon="9.8349130">
	<ele>1876.00</ele>
	<time>2023-11-18T09:30:18.000Z</time>
</trkpt>
<trkpt lat="45.9048100" lon="9.8349090">
	<ele>1876.20</ele>
	<time>2023-11-18T09:30:19.000Z</time>
</trkpt>
<trkpt lat="45.9048140" lon="9.8349010">
	<ele>1876.40</ele>
	<time>2023-11-18T09:30:20.000Z</time>
</trkpt>
<trkpt lat="45.9048170" lon="9.8348950">
	<ele>1876.80</ele>
	<time>2023-11-18T09:30:21.000Z</time>
</trkpt>
<trkpt lat="45.9048140" lon="9.8348930">
	<ele>1877.00</ele>
	<time>2023-11-18T09:30:22.000Z</time>
</trkpt>
<trkpt lat="45.9048160" lon="9.8348910">
	<ele>1877.20</ele>
	<time>2023-11-18T09:30:23.000Z</time>
</trkpt>
<trkpt lat="45.9048200" lon="9.8348890">
	<ele>1877.40</ele>
	<time>2023-11-18T09:30:24.000Z</time>
</trkpt>
<trkpt lat="45.9048260" lon="9.8348840">
	<ele>1877.40</ele>
	<time>2023-11-18T09:30:25.000Z</time>
</trkpt>
<trkpt lat="45.9048310" lon="9.8348760">
	<ele>1877.60</ele>
	<time>2023-11-18T09:30:26.000Z</time>
</trkpt>
<trkpt lat="45.9048320" lon="9.8348730">
	<ele>1877.60</ele>
	<time>2023-11-18T09:30:27.000Z</time>
</trkpt>
<trkpt lat="45.9048360" lon="9.8348730">
	<ele>1877.80</ele>
	<time>2023-11-18T09:30:28.000Z</time>
</trkpt>
<trkpt lat="45.9048390" lon="9.8348720">
	<ele>1878.00</ele>
	<time>2023-11-18T09:30:29.000Z</time>
</trkpt>
<trkpt lat="45.9048440" lon="9.8348680">
	<ele>1878.20</ele>
	<time>2023-11-18T09:30:30.000Z</time>
</trkpt>
<trkpt lat="45.9048480" lon="9.8348640">
	<ele>1878.20</ele>
	<time>2023-11-18T09:30:31.000Z</time>
</trkpt>
<trkpt lat="45.9048540" lon="9.8348570">
	<ele>1878.40</ele>
	<time>2023-11-18T09:30:32.000Z</time>
</trkpt>
<trkpt lat="45.9048580" lon="9.8348510">
	<ele>1878.60</ele>
	<time>2023-11-18T09:30:33.000Z</time>
</trkpt>
<trkpt lat="45.9048600" lon="9.8348450">
	<ele>1878.60</ele>
	<time>2023-11-18T09:30:34.000Z</time>
</trkpt>
<trkpt lat="45.9048640" lon="9.8348390">
	<ele>1878.60</ele>
	<time>2023-11-18T09:30:35.000Z</time>
</trkpt>
<trkpt lat="45.9048650" lon="9.8348390">
	<ele>1879.00</ele>
	<time>2023-11-18T09:30:36.000Z</time>
</trkpt>
<trkpt lat="45.9048690" lon="9.8348370">
	<ele>1879.40</ele>
	<time>2023-11-18T09:30:37.000Z</time>
</trkpt>
<trkpt lat="45.9048680" lon="9.8348380">
	<ele>1879.40</ele>
	<time>2023-11-18T09:30:38.000Z</time>
</trkpt>
<trkpt lat="45.9048680" lon="9.8348390">
	<ele>1879.60</ele>
	<time>2023-11-18T09:30:39.000Z</time>
</trkpt>
<trkpt lat="45.9048700" lon="9.8348360">
	<ele>1879.80</ele>
	<time>2023-11-18T09:30:40.000Z</time>
</trkpt>
<trkpt lat="45.9048690" lon="9.8348320">
	<ele>1880.00</ele>
	<time>2023-11-18T09:30:41.000Z</time>
</trkpt>
<trkpt lat="45.9048730" lon="9.8348260">
	<ele>1880.20</ele>
	<time>2023-11-18T09:30:42.000Z</time>
</trkpt>
<trkpt lat="45.9048760" lon="9.8348250">
	<ele>1880.40</ele>
	<time>2023-11-18T09:30:43.000Z</time>
</trkpt>
<trkpt lat="45.9048750" lon="9.8348250">
	<ele>1880.60</ele>
	<time>2023-11-18T09:30:44.000Z</time>
</trkpt>
<trkpt lat="45.9048740" lon="9.8348230">
	<ele>1880.80</ele>
	<time>2023-11-18T09:30:45.000Z</time>
</trkpt>
<trkpt lat="45.9048760" lon="9.8348220">
	<ele>1881.00</ele>
	<time>2023-11-18T09:30:46.000Z</time>
</trkpt>
<trkpt lat="45.9048780" lon="9.8348200">
	<ele>1881.00</ele>
	<time>2023-11-18T09:30:47.000Z</time>
</trkpt>
<trkpt lat="45.9048810" lon="9.8348190">
	<ele>1881.20</ele>
	<time>2023-11-18T09:30:48.000Z</time>
</trkpt>
<trkpt lat="45.9048850" lon="9.8348180">
	<ele>1881.40</ele>
	<time>2023-11-18T09:30:49.000Z</time>
</trkpt>
<trkpt lat="45.9048880" lon="9.8348160">
	<ele>1881.60</ele>
	<time>2023-11-18T09:30:50.000Z</time>
</trkpt>
<trkpt lat="45.9048890" lon="9.8348160">
	<ele>1881.80</ele>
	<time>2023-11-18T09:30:51.000Z</time>
</trkpt>
<trkpt lat="45.9048910" lon="9.8348150">
	<ele>1882.00</ele>
	<time>2023-11-18T09:30:52.000Z</time>
</trkpt>
<trkpt lat="45.9048930" lon="9.8348140">
	<ele>1882.20</ele>
	<time>2023-11-18T09:30:53.000Z</time>
</trkpt>
<trkpt lat="45.9048970" lon="9.8348080">
	<ele>1882.40</ele>
	<time>2023-11-18T09:30:54.000Z</time>
</trkpt>
<trkpt lat="45.9048990" lon="9.8348050">
	<ele>1882.60</ele>
	<time>2023-11-18T09:30:55.000Z</time>
</trkpt>
<trkpt lat="45.9049010" lon="9.8348020">
	<ele>1882.60</ele>
	<time>2023-11-18T09:30:56.000Z</time>
</trkpt>
<trkpt lat="45.9049010" lon="9.8347990">
	<ele>1883.00</ele>
	<time>2023-11-18T09:30:57.000Z</time>
</trkpt>
<trkpt lat="45.9049020" lon="9.8347960">
	<ele>1883.00</ele>
	<time>2023-11-18T09:30:58.000Z</time>
</trkpt>
<trkpt lat="45.9049050" lon="9.8347940">
	<ele>1883.20</ele>
	<time>2023-11-18T09:30:59.000Z</time>
</trkpt>
<trkpt lat="45.9049060" lon="9.8347920">
	<ele>1883.40</ele>
	<time>2023-11-18T09:31:00.000Z</time>
</trkpt>
<trkpt lat="45.9049080" lon="9.8347880">
	<ele>1883.60</ele>
	<time>2023-11-18T09:31:01.000Z</time>
</trkpt>
<trkpt lat="45.9049090" lon="9.8347820">
	<ele>1883.60</ele>
	<time>2023-11-18T09:31:02.000Z</time>
</trkpt>
<trkpt lat="45.9049130" lon="9.8347750">
	<ele>1883.80</ele>
	<time>2023-11-18T09:31:03.000Z</time>
</trkpt>
<trkpt lat="45.9049190" lon="9.8347710">
	<ele>1884.00</ele>
	<time>2023-11-18T09:31:04.000Z</time>
</trkpt>
<trkpt lat="45.9049250" lon="9.8347680">
	<ele>1884.20</ele>
	<time>2023-11-18T09:31:05.000Z</time>
</trkpt>
<trkpt lat="45.9049280" lon="9.8347670">
	<ele>1884.40</ele>
	<time>2023-11-18T09:31:06.000Z</time>
</trkpt>
<trkpt lat="45.9049290" lon="9.8347650">
	<ele>1884.60</ele>
	<time>2023-11-18T09:31:07.000Z</time>
</trkpt>
<trkpt lat="45.9049290" lon="9.8347640">
	<ele>1884.60</ele>
	<time>2023-11-18T09:31:08.000Z</time>
</trkpt>
<trkpt lat="45.9049290" lon="9.8347640">
	<ele>1884.80</ele>
	<time>2023-11-18T09:31:09.000Z</time>
</trkpt>
<trkpt lat="45.9049290" lon="9.8347640">
	<ele>1884.80</ele>
	<time>2023-11-18T09:31:10.000Z</time>
</trkpt>
<trkpt lat="45.9049290" lon="9.8347640">
	<ele>1884.80</ele>
	<time>2023-11-18T09:31:11.000Z</time>
</trkpt>
<trkpt lat="45.9049280" lon="9.8347610">
	<ele>1885.00</ele>
	<time>2023-11-18T09:31:12.000Z</time>
</trkpt>
<trkpt lat="45.9049240" lon="9.8347530">
	<ele>1885.40</ele>
	<time>2023-11-18T09:31:13.000Z</time>
</trkpt>
<trkpt lat="45.9049220" lon="9.8347490">
	<ele>1885.60</ele>
	<time>2023-11-18T09:31:14.000Z</time>
</trkpt>
<trkpt lat="45.9049180" lon="9.8347430">
	<ele>1885.80</ele>
	<time>2023-11-18T09:31:15.000Z</time>
</trkpt>
<trkpt lat="45.9049200" lon="9.8347330">
	<ele>1886.00</ele>
	<time>2023-11-18T09:31:16.000Z</time>
</trkpt>
<trkpt lat="45.9049180" lon="9.8347260">
	<ele>1886.20</ele>
	<time>2023-11-18T09:31:17.000Z</time>
</trkpt>
<trkpt lat="45.9049160" lon="9.8347190">
	<ele>1886.20</ele>
	<time>2023-11-18T09:31:18.000Z</time>
</trkpt>
<trkpt lat="45.9049160" lon="9.8347120">
	<ele>1886.40</ele>
	<time>2023-11-18T09:31:19.000Z</time>
</trkpt>
<trkpt lat="45.9049190" lon="9.8347080">
	<ele>1886.40</ele>
	<time>2023-11-18T09:31:20.000Z</time>
</trkpt>
<trkpt lat="45.9049200" lon="9.8347030">
	<ele>1886.60</ele>
	<time>2023-11-18T09:31:21.000Z</time>
</trkpt>
<trkpt lat="45.9049190" lon="9.8347000">
	<ele>1886.60</ele>
	<time>2023-11-18T09:31:22.000Z</time>
</trkpt>
<trkpt lat="45.9049180" lon="9.8346970">
	<ele>1886.80</ele>
	<time>2023-11-18T09:31:23.000Z</time>
</trkpt>
<trkpt lat="45.9049170" lon="9.8346940">
	<ele>1887.00</ele>
	<time>2023-11-18T09:31:24.000Z</time>
</trkpt>
<trkpt lat="45.9049180" lon="9.8346900">
	<ele>1887.20</ele>
	<time>2023-11-18T09:31:25.000Z</time>
</trkpt>
<trkpt lat="45.9049210" lon="9.8346870">
	<ele>1887.40</ele>
	<time>2023-11-18T09:31:26.000Z</time>
</trkpt>
<trkpt lat="45.9049280" lon="9.8346800">
	<ele>1887.60</ele>
	<time>2023-11-18T09:31:27.000Z</time>
</trkpt>
<trkpt lat="45.9049300" lon="9.8346740">
	<ele>1887.60</ele>
	<time>2023-11-18T09:31:28.000Z</time>
</trkpt>
<trkpt lat="45.9049310" lon="9.8346680">
	<ele>1887.80</ele>
	<time>2023-11-18T09:31:29.000Z</time>
</trkpt>
<trkpt lat="45.9049310" lon="9.8346630">
	<ele>1887.80</ele>
	<time>2023-11-18T09:31:30.000Z</time>
</trkpt>
<trkpt lat="45.9049360" lon="9.8346570">
	<ele>1888.00</ele>
	<time>2023-11-18T09:31:31.000Z</time>
</trkpt>
<trkpt lat="45.9049370" lon="9.8346550">
	<ele>1888.20</ele>
	<time>2023-11-18T09:31:32.000Z</time>
</trkpt>
<trkpt lat="45.9049410" lon="9.8346510">
	<ele>1888.40</ele>
	<time>2023-11-18T09:31:33.000Z</time>
</trkpt>
<trkpt lat="45.9049430" lon="9.8346480">
	<ele>1888.40</ele>
	<time>2023-11-18T09:31:34.000Z</time>
</trkpt>
<trkpt lat="45.9049430" lon="9.8346470">
	<ele>1888.60</ele>
	<time>2023-11-18T09:31:35.000Z</time>
</trkpt>
<trkpt lat="45.9049450" lon="9.8346450">
	<ele>1889.00</ele>
	<time>2023-11-18T09:31:36.000Z</time>
</trkpt>
<trkpt lat="45.9049480" lon="9.8346440">
	<ele>1889.20</ele>
	<time>2023-11-18T09:31:37.000Z</time>
</trkpt>
<trkpt lat="45.9049520" lon="9.8346410">
	<ele>1889.40</ele>
	<time>2023-11-18T09:31:38.000Z</time>
</trkpt>
<trkpt lat="45.9049580" lon="9.8346380">
	<ele>1889.40</ele>
	<time>2023-11-18T09:31:39.000Z</time>
</trkpt>
<trkpt lat="45.9049600" lon="9.8346370">
	<ele>1889.80</ele>
	<time>2023-11-18T09:31:40.000Z</time>
</trkpt>
<trkpt lat="45.9049600" lon="9.8346350">
	<ele>1890.00</ele>
	<time>2023-11-18T09:31:41.000Z</time>
</trkpt>
<trkpt lat="45.9049630" lon="9.8346300">
	<ele>1890.20</ele>
	<time>2023-11-18T09:31:42.000Z</time>
</trkpt>
<trkpt lat="45.9049660" lon="9.8346250">
	<ele>1890.60</ele>
	<time>2023-11-18T09:31:43.000Z</time>
</trkpt>
<trkpt lat="45.9049680" lon="9.8346230">
	<ele>1890.60</ele>
	<time>2023-11-18T09:31:44.000Z</time>
</trkpt>
<trkpt lat="45.9049690" lon="9.8346210">
	<ele>1890.60</ele>
	<time>2023-11-18T09:31:45.000Z</time>
</trkpt>
<trkpt lat="45.9049690" lon="9.8346170">
	<ele>1890.80</ele>
	<time>2023-11-18T09:31:46.000Z</time>
</trkpt>
<trkpt lat="45.9049670" lon="9.8346110">
	<ele>1891.00</ele>
	<time>2023-11-18T09:31:47.000Z</time>
</trkpt>
<trkpt lat="45.9049660" lon="9.8346060">
	<ele>1891.00</ele>
	<time>2023-11-18T09:31:48.000Z</time>
</trkpt>
<trkpt lat="45.9049660" lon="9.8346020">
	<ele>1891.20</ele>
	<time>2023-11-18T09:31:49.000Z</time>
</trkpt>
<trkpt lat="45.9049680" lon="9.8345990">
	<ele>1891.60</ele>
	<time>2023-11-18T09:31:50.000Z</time>
</trkpt>
<trkpt lat="45.9049720" lon="9.8345970">
	<ele>1891.60</ele>
	<time>2023-11-18T09:31:51.000Z</time>
</trkpt>
<trkpt lat="45.9049710" lon="9.8345950">
	<ele>1891.80</ele>
	<time>2023-11-18T09:31:52.000Z</time>
</trkpt>
<trkpt lat="45.9049710" lon="9.8345920">
	<ele>1891.80</ele>
	<time>2023-11-18T09:31:53.000Z</time>
</trkpt>
<trkpt lat="45.9049730" lon="9.8345900">
	<ele>1892.00</ele>
	<time>2023-11-18T09:31:54.000Z</time>
</trkpt>
<trkpt lat="45.9049750" lon="9.8345860">
	<ele>1892.20</ele>
	<time>2023-11-18T09:31:55.000Z</time>
</trkpt>
<trkpt lat="45.9049800" lon="9.8345830">
	<ele>1892.20</ele>
	<time>2023-11-18T09:31:56.000Z</time>
</trkpt>
<trkpt lat="45.9049820" lon="9.8345800">
	<ele>1892.40</ele>
	<time>2023-11-18T09:31:57.000Z</time>
</trkpt>
<trkpt lat="45.9049820" lon="9.8345760">
	<ele>1892.60</ele>
	<time>2023-11-18T09:31:58.000Z</time>
</trkpt>
<trkpt lat="45.9049810" lon="9.8345700">
	<ele>1892.80</ele>
	<time>2023-11-18T09:31:59.000Z</time>
</trkpt>
<trkpt lat="45.9049770" lon="9.8345630">
	<ele>1893.00</ele>
	<time>2023-11-18T09:32:00.000Z</time>
</trkpt>
<trkpt lat="45.9049730" lon="9.8345590">
	<ele>1893.20</ele>
	<time>2023-11-18T09:32:01.000Z</time>
</trkpt>
<trkpt lat="45.9049710" lon="9.8345590">
	<ele>1893.60</ele>
	<time>2023-11-18T09:32:02.000Z</time>
</trkpt>
<trkpt lat="45.9049730" lon="9.8345570">
	<ele>1894.00</ele>
	<time>2023-11-18T09:32:03.000Z</time>
</trkpt>
<trkpt lat="45.9049740" lon="9.8345550">
	<ele>1894.20</ele>
	<time>2023-11-18T09:32:04.000Z</time>
</trkpt>
<trkpt lat="45.9049760" lon="9.8345530">
	<ele>1894.20</ele>
	<time>2023-11-18T09:32:05.000Z</time>
</trkpt>
<trkpt lat="45.9049770" lon="9.8345500">
	<ele>1894.20</ele>
	<time>2023-11-18T09:32:06.000Z</time>
</trkpt>
<trkpt lat="45.9049810" lon="9.8345470">
	<ele>1894.20</ele>
	<time>2023-11-18T09:32:07.000Z</time>
</trkpt>
<trkpt lat="45.9049850" lon="9.8345430">
	<ele>1894.20</ele>
	<time>2023-11-18T09:32:08.000Z</time>
</trkpt>
<trkpt lat="45.9049870" lon="9.8345380">
	<ele>1894.20</ele>
	<time>2023-11-18T09:32:09.000Z</time>
</trkpt>
<trkpt lat="45.9049900" lon="9.8345330">
	<ele>1894.40</ele>
	<time>2023-11-18T09:32:10.000Z</time>
</trkpt>
<trkpt lat="45.9049910" lon="9.8345300">
	<ele>1894.60</ele>
	<time>2023-11-18T09:32:11.000Z</time>
</trkpt>
<trkpt lat="45.9049930" lon="9.8345270">
	<ele>1895.00</ele>
	<time>2023-11-18T09:32:12.000Z</time>
</trkpt>
<trkpt lat="45.9049920" lon="9.8345220">
	<ele>1895.20</ele>
	<time>2023-11-18T09:32:13.000Z</time>
</trkpt>
<trkpt lat="45.9049940" lon="9.8345200">
	<ele>1895.20</ele>
	<time>2023-11-18T09:32:14.000Z</time>
</trkpt>
<trkpt lat="45.9049980" lon="9.8345110">
	<ele>1895.40</ele>
	<time>2023-11-18T09:32:15.000Z</time>
</trkpt>
<trkpt lat="45.9050020" lon="9.8345060">
	<ele>1895.60</ele>
	<time>2023-11-18T09:32:16.000Z</time>
</trkpt>
<trkpt lat="45.9050030" lon="9.8345000">
	<ele>1895.60</ele>
	<time>2023-11-18T09:32:17.000Z</time>
</trkpt>
<trkpt lat="45.9050040" lon="9.8344970">
	<ele>1896.00</ele>
	<time>2023-11-18T09:32:18.000Z</time>
</trkpt>
<trkpt lat="45.9050040" lon="9.8344940">
	<ele>1896.40</ele>
	<time>2023-11-18T09:32:19.000Z</time>
</trkpt>
<trkpt lat="45.9050030" lon="9.8344900">
	<ele>1896.60</ele>
	<time>2023-11-18T09:32:20.000Z</time>
</trkpt>
<trkpt lat="45.9050050" lon="9.8344870">
	<ele>1896.80</ele>
	<time>2023-11-18T09:32:21.000Z</time>
</trkpt>
<trkpt lat="45.9050060" lon="9.8344850">
	<ele>1896.80</ele>
	<time>2023-11-18T09:32:22.000Z</time>
</trkpt>
<trkpt lat="45.9050090" lon="9.8344770">
	<ele>1897.00</ele>
	<time>2023-11-18T09:32:23.000Z</time>
</trkpt>
<trkpt lat="45.9050090" lon="9.8344730">
	<ele>1897.20</ele>
	<time>2023-11-18T09:32:24.000Z</time>
</trkpt>
<trkpt lat="45.9050090" lon="9.8344680">
	<ele>1897.20</ele>
	<time>2023-11-18T09:32:25.000Z</time>
</trkpt>
<trkpt lat="45.9050150" lon="9.8344630">
	<ele>1897.40</ele>
	<time>2023-11-18T09:32:26.000Z</time>
</trkpt>
<trkpt lat="45.9050170" lon="9.8344570">
	<ele>1897.60</ele>
	<time>2023-11-18T09:32:27.000Z</time>
</trkpt>
<trkpt lat="45.9050210" lon="9.8344500">
	<ele>1897.60</ele>
	<time>2023-11-18T09:32:28.000Z</time>
</trkpt>
<trkpt lat="45.9050240" lon="9.8344430">
	<ele>1897.80</ele>
	<time>2023-11-18T09:32:29.000Z</time>
</trkpt>
<trkpt lat="45.9050240" lon="9.8344370">
	<ele>1898.00</ele>
	<time>2023-11-18T09:32:30.000Z</time>
</trkpt>
<trkpt lat="45.9050240" lon="9.8344340">
	<ele>1898.20</ele>
	<time>2023-11-18T09:32:31.000Z</time>
</trkpt>
<trkpt lat="45.9050250" lon="9.8344300">
	<ele>1898.40</ele>
	<time>2023-11-18T09:32:32.000Z</time>
</trkpt>
<trkpt lat="45.9050260" lon="9.8344270">
	<ele>1898.80</ele>
	<time>2023-11-18T09:32:33.000Z</time>
</trkpt>
<trkpt lat="45.9050270" lon="9.8344200">
	<ele>1898.80</ele>
	<time>2023-11-18T09:32:34.000Z</time>
</trkpt>
<trkpt lat="45.9050300" lon="9.8344120">
	<ele>1899.00</ele>
	<time>2023-11-18T09:32:35.000Z</time>
</trkpt>
<trkpt lat="45.9050300" lon="9.8344080">
	<ele>1899.20</ele>
	<time>2023-11-18T09:32:36.000Z</time>
</trkpt>
<trkpt lat="45.9050320" lon="9.8344040">
	<ele>1899.40</ele>
	<time>2023-11-18T09:32:37.000Z</time>
</trkpt>
<trkpt lat="45.9050320" lon="9.8343980">
	<ele>1899.60</ele>
	<time>2023-11-18T09:32:38.000Z</time>
</trkpt>
<trkpt lat="45.9050320" lon="9.8343930">
	<ele>1899.80</ele>
	<time>2023-11-18T09:32:39.000Z</time>
</trkpt>
<trkpt lat="45.9050310" lon="9.8343890">
	<ele>1900.00</ele>
	<time>2023-11-18T09:32:40.000Z</time>
</trkpt>
<trkpt lat="45.9050310" lon="9.8343840">
	<ele>1900.00</ele>
	<time>2023-11-18T09:32:41.000Z</time>
</trkpt>
<trkpt lat="45.9050330" lon="9.8343800">
	<ele>1900.20</ele>
	<time>2023-11-18T09:32:42.000Z</time>
</trkpt>
<trkpt lat="45.9050320" lon="9.8343770">
	<ele>1900.20</ele>
	<time>2023-11-18T09:32:43.000Z</time>
</trkpt>
<trkpt lat="45.9050350" lon="9.8343740">
	<ele>1900.40</ele>
	<time>2023-11-18T09:32:44.000Z</time>
</trkpt>
<trkpt lat="45.9050370" lon="9.8343700">
	<ele>1900.40</ele>
	<time>2023-11-18T09:32:45.000Z</time>
</trkpt>
<trkpt lat="45.9050400" lon="9.8343660">
	<ele>1900.40</ele>
	<time>2023-11-18T09:32:46.000Z</time>
</trkpt>
<trkpt lat="45.9050420" lon="9.8343620">
	<ele>1900.40</ele>
	<time>2023-11-18T09:32:47.000Z</time>
</trkpt>
<trkpt lat="45.9050440" lon="9.8343580">
	<ele>1900.60</ele>
	<time>2023-11-18T09:32:48.000Z</time>
</trkpt>
<trkpt lat="45.9050490" lon="9.8343550">
	<ele>1900.60</ele>
	<time>2023-11-18T09:32:49.000Z</time>
</trkpt>
<trkpt lat="45.9050530" lon="9.8343480">
	<ele>1900.80</ele>
	<time>2023-11-18T09:32:50.000Z</time>
</trkpt>
<trkpt lat="45.9050580" lon="9.8343450">
	<ele>1900.80</ele>
	<time>2023-11-18T09:32:51.000Z</time>
</trkpt>
<trkpt lat="45.9050600" lon="9.8343410">
	<ele>1901.00</ele>
	<time>2023-11-18T09:32:52.000Z</time>
</trkpt>
<trkpt lat="45.9050610" lon="9.8343360">
	<ele>1901.20</ele>
	<time>2023-11-18T09:32:53.000Z</time>
</trkpt>
<trkpt lat="45.9050640" lon="9.8343300">
	<ele>1901.20</ele>
	<time>2023-11-18T09:32:54.000Z</time>
</trkpt>
<trkpt lat="45.9050680" lon="9.8343210">
	<ele>1901.40</ele>
	<time>2023-11-18T09:32:55.000Z</time>
</trkpt>
<trkpt lat="45.9050700" lon="9.8343140">
	<ele>1901.60</ele>
	<time>2023-11-18T09:32:56.000Z</time>
</trkpt>
<trkpt lat="45.9050720" lon="9.8343070">
	<ele>1902.00</ele>
	<time>2023-11-18T09:32:57.000Z</time>
</trkpt>
<trkpt lat="45.9050730" lon="9.8343000">
	<ele>1902.40</ele>
	<time>2023-11-18T09:32:58.000Z</time>
</trkpt>
<trkpt lat="45.9050740" lon="9.8342930">
	<ele>1902.60</ele>
	<time>2023-11-18T09:32:59.000Z</time>
</trkpt>
<trkpt lat="45.9050750" lon="9.8342850">
	<ele>1902.80</ele>
	<time>2023-11-18T09:33:00.000Z</time>
</trkpt>
<trkpt lat="45.9050750" lon="9.8342790">
	<ele>1903.00</ele>
	<time>2023-11-18T09:33:01.000Z</time>
</trkpt>
<trkpt lat="45.9050770" lon="9.8342750">
	<ele>1903.20</ele>
	<time>2023-11-18T09:33:02.000Z</time>
</trkpt>
<trkpt lat="45.9050760" lon="9.8342690">
	<ele>1903.20</ele>
	<time>2023-11-18T09:33:03.000Z</time>
</trkpt>
<trkpt lat="45.9050740" lon="9.8342630">
	<ele>1903.40</ele>
	<time>2023-11-18T09:33:04.000Z</time>
</trkpt>
<trkpt lat="45.9050780" lon="9.8342590">
	<ele>1903.40</ele>
	<time>2023-11-18T09:33:05.000Z</time>
</trkpt>
<trkpt lat="45.9050770" lon="9.8342540">
	<ele>1903.60</ele>
	<time>2023-11-18T09:33:06.000Z</time>
</trkpt>
<trkpt lat="45.9050810" lon="9.8342470">
	<ele>1903.60</ele>
	<time>2023-11-18T09:33:07.000Z</time>
</trkpt>
<trkpt lat="45.9050810" lon="9.8342410">
	<ele>1903.80</ele>
	<time>2023-11-18T09:33:08.000Z</time>
</trkpt>
<trkpt lat="45.9050810" lon="9.8342350">
	<ele>1903.80</ele>
	<time>2023-11-18T09:33:09.000Z</time>
</trkpt>
<trkpt lat="45.9050790" lon="9.8342310">
	<ele>1903.80</ele>
	<time>2023-11-18T09:33:10.000Z</time>
</trkpt>
<trkpt lat="45.9050780" lon="9.8342290">
	<ele>1904.00</ele>
	<time>2023-11-18T09:33:11.000Z</time>
</trkpt>
<trkpt lat="45.9050770" lon="9.8342270">
	<ele>1904.00</ele>
	<time>2023-11-18T09:33:12.000Z</time>
</trkpt>
<trkpt lat="45.9050790" lon="9.8342260">
	<ele>1904.00</ele>
	<time>2023-11-18T09:33:13.000Z</time>
</trkpt>
<trkpt lat="45.9050830" lon="9.8342220">
	<ele>1904.00</ele>
	<time>2023-11-18T09:33:14.000Z</time>
</trkpt>
<trkpt lat="45.9050850" lon="9.8342220">
	<ele>1904.00</ele>
	<time>2023-11-18T09:33:15.000Z</time>
</trkpt>
<trkpt lat="45.9050860" lon="9.8342230">
	<ele>1904.20</ele>
	<time>2023-11-18T09:33:16.000Z</time>
</trkpt>
<trkpt lat="45.9050860" lon="9.8342240">
	<ele>1904.20</ele>
	<time>2023-11-18T09:33:17.000Z</time>
</trkpt>
<trkpt lat="45.9050860" lon="9.8342250">
	<ele>1904.20</ele>
	<time>2023-11-18T09:33:18.000Z</time>
</trkpt>
<trkpt lat="45.9050860" lon="9.8342250">
	<ele>1904.20</ele>
	<time>2023-11-18T09:33:19.000Z</time>
</trkpt>
<trkpt lat="45.9050860" lon="9.8342250">
	<ele>1904.40</ele>
	<time>2023-11-18T09:33:20.000Z</time>
</trkpt>
<trkpt lat="45.9050860" lon="9.8342250">
	<ele>1904.40</ele>
	<time>2023-11-18T09:33:21.000Z</time>
</trkpt>
<trkpt lat="45.9050860" lon="9.8342250">
	<ele>1904.60</ele>
	<time>2023-11-18T09:33:22.000Z</time>
</trkpt>
<trkpt lat="45.9050860" lon="9.8342250">
	<ele>1904.80</ele>
	<time>2023-11-18T09:33:23.000Z</time>
</trkpt>
<trkpt lat="45.9050860" lon="9.8342250">
	<ele>1904.80</ele>
	<time>2023-11-18T09:33:24.000Z</time>
</trkpt>
<trkpt lat="45.9050860" lon="9.8342250">
	<ele>1904.80</ele>
	<time>2023-11-18T09:33:25.000Z</time>
</trkpt>
<trkpt lat="45.9050860" lon="9.8342250">
	<ele>1904.80</ele>
	<time>2023-11-18T09:33:26.000Z</time>
</trkpt>
<trkpt lat="45.9050860" lon="9.8342250">
	<ele>1904.80</ele>
	<time>2023-11-18T09:33:27.000Z</time>
</trkpt>
<trkpt lat="45.9050860" lon="9.8342250">
	<ele>1904.40</ele>
	<time>2023-11-18T09:33:28.000Z</time>
</trkpt>
<trkpt lat="45.9050860" lon="9.8342250">
	<ele>1904.40</ele>
	<time>2023-11-18T09:33:29.000Z</time>
</trkpt>
<trkpt lat="45.9050860" lon="9.8342250">
	<ele>1904.20</ele>
	<time>2023-11-18T09:33:30.000Z</time>
</trkpt>
<trkpt lat="45.9050860" lon="9.8342250">
	<ele>1904.00</ele>
	<time>2023-11-18T09:33:31.000Z</time>
</trkpt>
<trkpt lat="45.9050860" lon="9.8342250">
	<ele>1904.00</ele>
	<time>2023-11-18T09:33:32.000Z</time>
</trkpt>
<trkpt lat="45.9050860" lon="9.8342250">
	<ele>1903.80</ele>
	<time>2023-11-18T09:33:33.000Z</time>
</trkpt>
<trkpt lat="45.9050860" lon="9.8342250">
	<ele>1903.80</ele>
	<time>2023-11-18T09:33:34.000Z</time>
</trkpt>
<trkpt lat="45.9050860" lon="9.8342250">
	<ele>1904.00</ele>
	<time>2023-11-18T09:33:35.000Z</time>
</trkpt>
<trkpt lat="45.9050860" lon="9.8342250">
	<ele>1903.80</ele>
	<time>2023-11-18T09:33:36.000Z</time>
</trkpt>
<trkpt lat="45.9050860" lon="9.8342250">
	<ele>1903.80</ele>
	<time>2023-11-18T09:33:37.000Z</time>
</trkpt>
<trkpt lat="45.9050860" lon="9.8342260">
	<ele>1904.00</ele>
	<time>2023-11-18T09:33:38.000Z</time>
</trkpt>
<trkpt lat="45.9050870" lon="9.8342260">
	<ele>1904.00</ele>
	<time>2023-11-18T09:33:39.000Z</time>
</trkpt>
<trkpt lat="45.9050870" lon="9.8342260">
	<ele>1904.00</ele>
	<time>2023-11-18T09:33:40.000Z</time>
</trkpt>
<trkpt lat="45.9050870" lon="9.8342260">
	<ele>1904.00</ele>
	<time>2023-11-18T09:33:41.000Z</time>
</trkpt>
<trkpt lat="45.9050870" lon="9.8342260">
	<ele>1904.00</ele>
	<time>2023-11-18T09:33:42.000Z</time>
</trkpt>
<trkpt lat="45.9050890" lon="9.8342260">
	<ele>1904.00</ele>
	<time>2023-11-18T09:33:43.000Z</time>
</trkpt>
<trkpt lat="45.9050900" lon="9.8342260">
	<ele>1904.20</ele>
	<time>2023-11-18T09:33:44.000Z</time>
</trkpt>
<trkpt lat="45.9050900" lon="9.8342270">
	<ele>1904.20</ele>
	<time>2023-11-18T09:33:45.000Z</time>
</trkpt>
<trkpt lat="45.9050910" lon="9.8342280">
	<ele>1904.40</ele>
	<time>2023-11-18T09:33:46.000Z</time>
</trkpt>
<trkpt lat="45.9050920" lon="9.8342360">
	<ele>1904.40</ele>
	<time>2023-11-18T09:33:47.000Z</time>
</trkpt>
<trkpt lat="45.9050930" lon="9.8342370">
	<ele>1904.40</ele>
	<time>2023-11-18T09:33:48.000Z</time>
</trkpt>
<trkpt lat="45.9050930" lon="9.8342370">
	<ele>1904.40</ele>
	<time>2023-11-18T09:33:49.000Z</time>
</trkpt>
<trkpt lat="45.9050940" lon="9.8342370">
	<ele>1904.40</ele>
	<time>2023-11-18T09:33:50.000Z</time>
</trkpt>
<trkpt lat="45.9050940" lon="9.8342380">
	<ele>1904.20</ele>
	<time>2023-11-18T09:33:51.000Z</time>
</trkpt>
<trkpt lat="45.9050940" lon="9.8342380">
	<ele>1904.20</ele>
	<time>2023-11-18T09:33:52.000Z</time>
</trkpt>
<trkpt lat="45.9050940" lon="9.8342380">
	<ele>1904.20</ele>
	<time>2023-11-18T09:33:53.000Z</time>
</trkpt>
<trkpt lat="45.9050940" lon="9.8342380">
	<ele>1904.20</ele>
	<time>2023-11-18T09:33:54.000Z</time>
</trkpt>
<trkpt lat="45.9050940" lon="9.8342380">
	<ele>1904.40</ele>
	<time>2023-11-18T09:33:55.000Z</time>
</trkpt>
<trkpt lat="45.9050940" lon="9.8342380">
	<ele>1904.40</ele>
	<time>2023-11-18T09:33:56.000Z</time>
</trkpt>
<trkpt lat="45.9050940" lon="9.8342390">
	<ele>1904.40</ele>
	<time>2023-11-18T09:33:57.000Z</time>
</trkpt>
<trkpt lat="45.9050940" lon="9.8342390">
	<ele>1904.40</ele>
	<time>2023-11-18T09:33:58.000Z</time>
</trkpt>
<trkpt lat="45.9050940" lon="9.8342390">
	<ele>1904.40</ele>
	<time>2023-11-18T09:33:59.000Z</time>
</trkpt>
<trkpt lat="45.9050940" lon="9.8342400">
	<ele>1904.40</ele>
	<time>2023-11-18T09:34:00.000Z</time>
</trkpt>
<trkpt lat="45.9050940" lon="9.8342400">
	<ele>1904.20</ele>
	<time>2023-11-18T09:34:01.000Z</time>
</trkpt>
<trkpt lat="45.9050940" lon="9.8342400">
	<ele>1904.20</ele>
	<time>2023-11-18T09:34:02.000Z</time>
</trkpt>
<trkpt lat="45.9050940" lon="9.8342400">
	<ele>1904.20</ele>
	<time>2023-11-18T09:34:03.000Z</time>
</trkpt>
<trkpt lat="45.9050940" lon="9.8342410">
	<ele>1904.20</ele>
	<time>2023-11-18T09:34:04.000Z</time>
</trkpt>
<trkpt lat="45.9050940" lon="9.8342410">
	<ele>1904.20</ele>
	<time>2023-11-18T09:34:05.000Z</time>
</trkpt>
<trkpt lat="45.9050940" lon="9.8342410">
	<ele>1904.20</ele>
	<time>2023-11-18T09:34:06.000Z</time>
</trkpt>
<trkpt lat="45.9050940" lon="9.8342410">
	<ele>1904.20</ele>
	<time>2023-11-18T09:34:07.000Z</time>
</trkpt>
<trkpt lat="45.9050940" lon="9.8342420">
	<ele>1904.20</ele>
	<time>2023-11-18T09:34:08.000Z</time>
</trkpt>
<trkpt lat="45.9050940" lon="9.8342430">
	<ele>1904.20</ele>
	<time>2023-11-18T09:34:09.000Z</time>
</trkpt>
<trkpt lat="45.9050940" lon="9.8342430">
	<ele>1904.20</ele>
	<time>2023-11-18T09:34:10.000Z</time>
</trkpt>
<trkpt lat="45.9050940" lon="9.8342430">
	<ele>1904.20</ele>
	<time>2023-11-18T09:34:11.000Z</time>
</trkpt>
<trkpt lat="45.9050940" lon="9.8342430">
	<ele>1904.00</ele>
	<time>2023-11-18T09:34:12.000Z</time>
</trkpt>
<trkpt lat="45.9050930" lon="9.8342430">
	<ele>1904.00</ele>
	<time>2023-11-18T09:34:13.000Z</time>
</trkpt>
<trkpt lat="45.9050930" lon="9.8342430">
	<ele>1904.00</ele>
	<time>2023-11-18T09:34:14.000Z</time>
</trkpt>
<trkpt lat="45.9050930" lon="9.8342430">
	<ele>1904.00</ele>
	<time>2023-11-18T09:34:15.000Z</time>
</trkpt>
<trkpt lat="45.9050930" lon="9.8342430">
	<ele>1904.00</ele>
	<time>2023-11-18T09:34:16.000Z</time>
</trkpt>
<trkpt lat="45.9050930" lon="9.8342430">
	<ele>1903.80</ele>
	<time>2023-11-18T09:34:17.000Z</time>
</trkpt>
<trkpt lat="45.9050930" lon="9.8342430">
	<ele>1903.80</ele>
	<time>2023-11-18T09:34:18.000Z</time>
</trkpt>
<trkpt lat="45.9050930" lon="9.8342430">
	<ele>1903.80</ele>
	<time>2023-11-18T09:34:19.000Z</time>
</trkpt>
<trkpt lat="45.9050930" lon="9.8342430">
	<ele>1903.80</ele>
	<time>2023-11-18T09:34:20.000Z</time>
</trkpt>
<trkpt lat="45.9050930" lon="9.8342430">
	<ele>1903.80</ele>
	<time>2023-11-18T09:34:21.000Z</time>
</trkpt>
<trkpt lat="45.9050930" lon="9.8342430">
	<ele>1903.80</ele>
	<time>2023-11-18T09:34:22.000Z</time>
</trkpt>
<trkpt lat="45.9050930" lon="9.8342430">
	<ele>1903.80</ele>
	<time>2023-11-18T09:34:23.000Z</time>
</trkpt>
<trkpt lat="45.9050930" lon="9.8342430">
	<ele>1904.00</ele>
	<time>2023-11-18T09:34:24.000Z</time>
</trkpt>
<trkpt lat="45.9050930" lon="9.8342420">
	<ele>1904.00</ele>
	<time>2023-11-18T09:34:25.000Z</time>
</trkpt>
<trkpt lat="45.9050930" lon="9.8342410">
	<ele>1904.00</ele>
	<time>2023-11-18T09:34:26.000Z</time>
</trkpt>
<trkpt lat="45.9050930" lon="9.8342400">
	<ele>1904.20</ele>
	<time>2023-11-18T09:34:27.000Z</time>
</trkpt>
<trkpt lat="45.9050930" lon="9.8342400">
	<ele>1904.20</ele>
	<time>2023-11-18T09:34:28.000Z</time>
</trkpt>
<trkpt lat="45.9050940" lon="9.8342380">
	<ele>1904.20</ele>
	<time>2023-11-18T09:34:29.000Z</time>
</trkpt>
<trkpt lat="45.9050970" lon="9.8342360">
	<ele>1904.20</ele>
	<time>2023-11-18T09:34:30.000Z</time>
</trkpt>
<trkpt lat="45.9050990" lon="9.8342330">
	<ele>1904.20</ele>
	<time>2023-11-18T09:34:31.000Z</time>
</trkpt>
<trkpt lat="45.9051020" lon="9.8342300">
	<ele>1904.20</ele>
	<time>2023-11-18T09:34:32.000Z</time>
</trkpt>
<trkpt lat="45.9051040" lon="9.8342230">
	<ele>1904.20</ele>
	<time>2023-11-18T09:34:33.000Z</time>
</trkpt>
<trkpt lat="45.9051070" lon="9.8342160">
	<ele>1904.20</ele>
	<time>2023-11-18T09:34:34.000Z</time>
</trkpt>
<trkpt lat="45.9051100" lon="9.8342090">
	<ele>1904.20</ele>
	<time>2023-11-18T09:34:35.000Z</time>
</trkpt>
<trkpt lat="45.9051130" lon="9.8342050">
	<ele>1904.20</ele>
	<time>2023-11-18T09:34:36.000Z</time>
</trkpt>
<trkpt lat="45.9051140" lon="9.8342000">
	<ele>1904.20</ele>
	<time>2023-11-18T09:34:37.000Z</time>
</trkpt>
<trkpt lat="45.9051150" lon="9.8341960">
	<ele>1904.20</ele>
	<time>2023-11-18T09:34:38.000Z</time>
</trkpt>
<trkpt lat="45.9051160" lon="9.8341950">
	<ele>1904.20</ele>
	<time>2023-11-18T09:34:39.000Z</time>
</trkpt>
<trkpt lat="45.9051160" lon="9.8341930">
	<ele>1904.20</ele>
	<time>2023-11-18T09:34:40.000Z</time>
</trkpt>
<trkpt lat="45.9051160" lon="9.8341920">
	<ele>1904.20</ele>
	<time>2023-11-18T09:34:41.000Z</time>
</trkpt>
<trkpt lat="45.9051160" lon="9.8341920">
	<ele>1904.20</ele>
	<time>2023-11-18T09:34:42.000Z</time>
</trkpt>
<trkpt lat="45.9051160" lon="9.8341920">
	<ele>1904.20</ele>
	<time>2023-11-18T09:34:43.000Z</time>
</trkpt>
<trkpt lat="45.9051160" lon="9.8341920">
	<ele>1904.20</ele>
	<time>2023-11-18T09:34:44.000Z</time>
</trkpt>
<trkpt lat="45.9051160" lon="9.8341920">
	<ele>1904.20</ele>
	<time>2023-11-18T09:34:45.000Z</time>
</trkpt>
<trkpt lat="45.9051160" lon="9.8341910">
	<ele>1904.20</ele>
	<time>2023-11-18T09:34:46.000Z</time>
</trkpt>
<trkpt lat="45.9051160" lon="9.8341910">
	<ele>1904.20</ele>
	<time>2023-11-18T09:34:47.000Z</time>
</trkpt>
<trkpt lat="45.9051160" lon="9.8341910">
	<ele>1904.20</ele>
	<time>2023-11-18T09:34:48.000Z</time>
</trkpt>
<trkpt lat="45.9051160" lon="9.8341900">
	<ele>1904.20</ele>
	<time>2023-11-18T09:34:49.000Z</time>
</trkpt>
<trkpt lat="45.9051160" lon="9.8341900">
	<ele>1904.20</ele>
	<time>2023-11-18T09:34:50.000Z</time>
</trkpt>
<trkpt lat="45.9051160" lon="9.8341900">
	<ele>1904.00</ele>
	<time>2023-11-18T09:34:51.000Z</time>
</trkpt>
<trkpt lat="45.9051160" lon="9.8341900">
	<ele>1904.00</ele>
	<time>2023-11-18T09:34:52.000Z</time>
</trkpt>
<trkpt lat="45.9051160" lon="9.8341900">
	<ele>1904.00</ele>
	<time>2023-11-18T09:34:53.000Z</time>
</trkpt>
<trkpt lat="45.9051160" lon="9.8341900">
	<ele>1903.80</ele>
	<time>2023-11-18T09:34:54.000Z</time>
</trkpt>
<trkpt lat="45.9051160" lon="9.8341900">
	<ele>1903.80</ele>
	<time>2023-11-18T09:34:55.000Z</time>
</trkpt>
<trkpt lat="45.9051160" lon="9.8341900">
	<ele>1903.80</ele>
	<time>2023-11-18T09:34:56.000Z</time>
</trkpt>
<trkpt lat="45.9051160" lon="9.8341900">
	<ele>1903.80</ele>
	<time>2023-11-18T09:34:57.000Z</time>
</trkpt>
<trkpt lat="45.9051160" lon="9.8341910">
	<ele>1903.80</ele>
	<time>2023-11-18T09:34:58.000Z</time>
</trkpt>
<trkpt lat="45.9051160" lon="9.8341910">
	<ele>1903.80</ele>
	<time>2023-11-18T09:34:59.000Z</time>
</trkpt>
<trkpt lat="45.9051160" lon="9.8341910">
	<ele>1904.00</ele>
	<time>2023-11-18T09:35:00.000Z</time>
</trkpt>
<trkpt lat="45.9051160" lon="9.8341910">
	<ele>1904.00</ele>
	<time>2023-11-18T09:35:01.000Z</time>
</trkpt>
<trkpt lat="45.9051160" lon="9.8341920">
	<ele>1904.00</ele>
	<time>2023-11-18T09:35:02.000Z</time>
</trkpt>
<trkpt lat="45.9051150" lon="9.8341920">
	<ele>1904.00</ele>
	<time>2023-11-18T09:35:03.000Z</time>
</trkpt>
<trkpt lat="45.9051150" lon="9.8341920">
	<ele>1904.00</ele>
	<time>2023-11-18T09:35:04.000Z</time>
</trkpt>
<trkpt lat="45.9051150" lon="9.8341920">
	<ele>1904.00</ele>
	<time>2023-11-18T09:35:05.000Z</time>
</trkpt>
<trkpt lat="45.9051150" lon="9.8341930">
	<ele>1904.00</ele>
	<time>2023-11-18T09:35:06.000Z</time>
</trkpt>
<trkpt lat="45.9051150" lon="9.8341930">
	<ele>1904.00</ele>
	<time>2023-11-18T09:35:07.000Z</time>
</trkpt>
<trkpt lat="45.9051140" lon="9.8341940">
	<ele>1904.00</ele>
	<time>2023-11-18T09:35:08.000Z</time>
</trkpt>
<trkpt lat="45.9051140" lon="9.8341940">
	<ele>1904.00</ele>
	<time>2023-11-18T09:35:09.000Z</time>
</trkpt>
<trkpt lat="45.9051130" lon="9.8341950">
	<ele>1904.00</ele>
	<time>2023-11-18T09:35:10.000Z</time>
</trkpt>
<trkpt lat="45.9051130" lon="9.8341950">
	<ele>1904.00</ele>
	<time>2023-11-18T09:35:11.000Z</time>
</trkpt>
<trkpt lat="45.9051120" lon="9.8341950">
	<ele>1904.00</ele>
	<time>2023-11-18T09:35:12.000Z</time>
</trkpt>
<trkpt lat="45.9051120" lon="9.8341950">
	<ele>1904.00</ele>
	<time>2023-11-18T09:35:13.000Z</time>
</trkpt>
<trkpt lat="45.9051120" lon="9.8341950">
	<ele>1904.00</ele>
	<time>2023-11-18T09:35:14.000Z</time>
</trkpt>
<trkpt lat="45.9051110" lon="9.8341960">
	<ele>1904.00</ele>
	<time>2023-11-18T09:35:15.000Z</time>
</trkpt>
<trkpt lat="45.9051110" lon="9.8341960">
	<ele>1904.00</ele>
	<time>2023-11-18T09:35:16.000Z</time>
</trkpt>
<trkpt lat="45.9051100" lon="9.8341960">
	<ele>1904.00</ele>
	<time>2023-11-18T09:35:17.000Z</time>
</trkpt>
<trkpt lat="45.9051100" lon="9.8341960">
	<ele>1904.00</ele>
	<time>2023-11-18T09:35:18.000Z</time>
</trkpt>
<trkpt lat="45.9051100" lon="9.8341960">
	<ele>1904.00</ele>
	<time>2023-11-18T09:35:19.000Z</time>
</trkpt>
<trkpt lat="45.9051100" lon="9.8341960">
	<ele>1904.00</ele>
	<time>2023-11-18T09:35:20.000Z</time>
</trkpt>
<trkpt lat="45.9051100" lon="9.8341960">
	<ele>1904.00</ele>
	<time>2023-11-18T09:35:21.000Z</time>
</trkpt>
<trkpt lat="45.9051090" lon="9.8341960">
	<ele>1904.00</ele>
	<time>2023-11-18T09:35:22.000Z</time>
</trkpt>
<trkpt lat="45.9051090" lon="9.8341960">
	<ele>1904.00</ele>
	<time>2023-11-18T09:35:23.000Z</time>
</trkpt>
<trkpt lat="45.9051090" lon="9.8341960">
	<ele>1904.00</ele>
	<time>2023-11-18T09:35:24.000Z</time>
</trkpt>
<trkpt lat="45.9051090" lon="9.8341960">
	<ele>1904.00</ele>
	<time>2023-11-18T09:35:25.000Z</time>
</trkpt>
<trkpt lat="45.9051090" lon="9.8341960">
	<ele>1904.00</ele>
	<time>2023-11-18T09:35:26.000Z</time>
</trkpt>
<trkpt lat="45.9051090" lon="9.8341960">
	<ele>1904.00</ele>
	<time>2023-11-18T09:35:27.000Z</time>
</trkpt>
<trkpt lat="45.9051090" lon="9.8341960">
	<ele>1904.00</ele>
	<time>2023-11-18T09:35:28.000Z</time>
</trkpt>
<trkpt lat="45.9051090" lon="9.8341960">
	<ele>1904.00</ele>
	<time>2023-11-18T09:35:29.000Z</time>
</trkpt>
<trkpt lat="45.9051090" lon="9.8341960">
	<ele>1904.00</ele>
	<time>2023-11-18T09:35:30.000Z</time>
</trkpt>
<trkpt lat="45.9051090" lon="9.8341970">
	<ele>1904.00</ele>
	<time>2023-11-18T09:35:31.000Z</time>
</trkpt>
<trkpt lat="45.9051090" lon="9.8341970">
	<ele>1904.00</ele>
	<time>2023-11-18T09:35:32.000Z</time>
</trkpt>
<trkpt lat="45.9051090" lon="9.8341980">
	<ele>1904.00</ele>
	<time>2023-11-18T09:35:33.000Z</time>
</trkpt>
<trkpt lat="45.9051090" lon="9.8341980">
	<ele>1904.00</ele>
	<time>2023-11-18T09:35:34.000Z</time>
</trkpt>
<trkpt lat="45.9051090" lon="9.8341970">
	<ele>1904.00</ele>
	<time>2023-11-18T09:35:35.000Z</time>
</trkpt>
<trkpt lat="45.9051100" lon="9.8341930">
	<ele>1904.00</ele>
	<time>2023-11-18T09:35:36.000Z</time>
</trkpt>
<trkpt lat="45.9051090" lon="9.8341770">
	<ele>1904.00</ele>
	<time>2023-11-18T09:35:37.000Z</time>
</trkpt>
<trkpt lat="45.9051070" lon="9.8341610">
	<ele>1904.00</ele>
	<time>2023-11-18T09:35:38.000Z</time>
</trkpt>
<trkpt lat="45.9051040" lon="9.8341430">
	<ele>1904.00</ele>
	<time>2023-11-18T09:35:39.000Z</time>
</trkpt>
<trkpt lat="45.9051000" lon="9.8341250">
	<ele>1904.00</ele>
	<time>2023-11-18T09:35:40.000Z</time>
</trkpt>
<trkpt lat="45.9050960" lon="9.8341070">
	<ele>1904.00</ele>
	<time>2023-11-18T09:35:41.000Z</time>
</trkpt>
<trkpt lat="45.9050910" lon="9.8340890">
	<ele>1904.00</ele>
	<time>2023-11-18T09:35:42.000Z</time>
</trkpt>
<trkpt lat="45.9050870" lon="9.8340720">
	<ele>1904.00</ele>
	<time>2023-11-18T09:35:43.000Z</time>
</trkpt>
<trkpt lat="45.9050850" lon="9.8340550">
	<ele>1904.00</ele>
	<time>2023-11-18T09:35:44.000Z</time>
</trkpt>
<trkpt lat="45.9050860" lon="9.8340380">
	<ele>1904.00</ele>
	<time>2023-11-18T09:35:45.000Z</time>
</trkpt>
<trkpt lat="45.9050860" lon="9.8340280">
	<ele>1904.00</ele>
	<time>2023-11-18T09:35:46.000Z</time>
</trkpt>
<trkpt lat="45.9050890" lon="9.8340180">
	<ele>1904.00</ele>
	<time>2023-11-18T09:35:47.000Z</time>
</trkpt>
<trkpt lat="45.9050940" lon="9.8340100">
	<ele>1903.40</ele>
	<time>2023-11-18T09:35:48.000Z</time>
</trkpt>
<trkpt lat="45.9051020" lon="9.8340050">
	<ele>1903.20</ele>
	<time>2023-11-18T09:35:49.000Z</time>
</trkpt>
<trkpt lat="45.9051070" lon="9.8340010">
	<ele>1903.20</ele>
	<time>2023-11-18T09:35:50.000Z</time>
</trkpt>
<trkpt lat="45.9051120" lon="9.8339990">
	<ele>1903.00</ele>
	<time>2023-11-18T09:35:51.000Z</time>
</trkpt>
<trkpt lat="45.9051160" lon="9.8339990">
	<ele>1903.00</ele>
	<time>2023-11-18T09:35:52.000Z</time>
</trkpt>
<trkpt lat="45.9051170" lon="9.8340010">
	<ele>1903.00</ele>
	<time>2023-11-18T09:35:53.000Z</time>
</trkpt>
<trkpt lat="45.9051180" lon="9.8340030">
	<ele>1903.00</ele>
	<time>2023-11-18T09:35:54.000Z</time>
</trkpt>
<trkpt lat="45.9051170" lon="9.8340030">
	<ele>1903.20</ele>
	<time>2023-11-18T09:35:55.000Z</time>
</trkpt>
<trkpt lat="45.9051170" lon="9.8340010">
	<ele>1903.20</ele>
	<time>2023-11-18T09:35:56.000Z</time>
</trkpt>
<trkpt lat="45.9051190" lon="9.8339950">
	<ele>1903.20</ele>
	<time>2023-11-18T09:35:57.000Z</time>
</trkpt>
<trkpt lat="45.9051210" lon="9.8339910">
	<ele>1903.40</ele>
	<time>2023-11-18T09:35:58.000Z</time>
</trkpt>
<trkpt lat="45.9051210" lon="9.8339900">
	<ele>1903.40</ele>
	<time>2023-11-18T09:35:59.000Z</time>
</trkpt>
<trkpt lat="45.9051210" lon="9.8339910">
	<ele>1903.40</ele>
	<time>2023-11-18T09:36:00.000Z</time>
</trkpt>
<trkpt lat="45.9051220" lon="9.8339940">
	<ele>1903.40</ele>
	<time>2023-11-18T09:36:01.000Z</time>
</trkpt>
<trkpt lat="45.9051230" lon="9.8339960">
	<ele>1903.40</ele>
	<time>2023-11-18T09:36:02.000Z</time>
</trkpt>
<trkpt lat="45.9051240" lon="9.8339970">
	<ele>1903.40</ele>
	<time>2023-11-18T09:36:03.000Z</time>
</trkpt>
<trkpt lat="45.9051240" lon="9.8339970">
	<ele>1903.40</ele>
	<time>2023-11-18T09:36:04.000Z</time>
</trkpt>
<trkpt lat="45.9051240" lon="9.8339970">
	<ele>1903.20</ele>
	<time>2023-11-18T09:36:05.000Z</time>
</trkpt>
<trkpt lat="45.9051240" lon="9.8339970">
	<ele>1903.20</ele>
	<time>2023-11-18T09:36:06.000Z</time>
</trkpt>
<trkpt lat="45.9051240" lon="9.8339970">
	<ele>1903.20</ele>
	<time>2023-11-18T09:36:07.000Z</time>
</trkpt>
<trkpt lat="45.9051240" lon="9.8339970">
	<ele>1903.20</ele>
	<time>2023-11-18T09:36:08.000Z</time>
</trkpt>
<trkpt lat="45.9051240" lon="9.8339970">
	<ele>1903.20</ele>
	<time>2023-11-18T09:36:09.000Z</time>
</trkpt>
<trkpt lat="45.9051240" lon="9.8339970">
	<ele>1903.40</ele>
	<time>2023-11-18T09:36:10.000Z</time>
</trkpt>
<trkpt lat="45.9051240" lon="9.8339970">
	<ele>1903.40</ele>
	<time>2023-11-18T09:36:11.000Z</time>
</trkpt>
<trkpt lat="45.9051240" lon="9.8339970">
	<ele>1903.40</ele>
	<time>2023-11-18T09:36:12.000Z</time>
</trkpt>
<trkpt lat="45.9051230" lon="9.8339970">
	<ele>1903.40</ele>
	<time>2023-11-18T09:36:13.000Z</time>
</trkpt>
<trkpt lat="45.9051230" lon="9.8339970">
	<ele>1903.40</ele>
	<time>2023-11-18T09:36:14.000Z</time>
</trkpt>
<trkpt lat="45.9051230" lon="9.8339970">
	<ele>1903.40</ele>
	<time>2023-11-18T09:36:15.000Z</time>
</trkpt>
<trkpt lat="45.9051220" lon="9.8339970">
	<ele>1903.40</ele>
	<time>2023-11-18T09:36:16.000Z</time>
</trkpt>
<trkpt lat="45.9051220" lon="9.8339970">
	<ele>1903.40</ele>
	<time>2023-11-18T09:36:17.000Z</time>
</trkpt>
<trkpt lat="45.9051220" lon="9.8339970">
	<ele>1903.40</ele>
	<time>2023-11-18T09:36:18.000Z</time>
</trkpt>
<trkpt lat="45.9051220" lon="9.8339970">
	<ele>1903.40</ele>
	<time>2023-11-18T09:36:19.000Z</time>
</trkpt>
<trkpt lat="45.9051220" lon="9.8339970">
	<ele>1903.40</ele>
	<time>2023-11-18T09:36:20.000Z</time>
</trkpt>
<trkpt lat="45.9051220" lon="9.8339970">
	<ele>1903.40</ele>
	<time>2023-11-18T09:36:21.000Z</time>
</trkpt>
<trkpt lat="45.9051220" lon="9.8339970">
	<ele>1903.40</ele>
	<time>2023-11-18T09:36:22.000Z</time>
</trkpt>
<trkpt lat="45.9051220" lon="9.8339970">
	<ele>1903.40</ele>
	<time>2023-11-18T09:36:23.000Z</time>
</trkpt>
<trkpt lat="45.9051220" lon="9.8339970">
	<ele>1903.40</ele>
	<time>2023-11-18T09:36:24.000Z</time>
</trkpt>
<trkpt lat="45.9051220" lon="9.8339970">
	<ele>1903.40</ele>
	<time>2023-11-18T09:36:25.000Z</time>
</trkpt>
<trkpt lat="45.9051220" lon="9.8339970">
	<ele>1903.60</ele>
	<time>2023-11-18T09:36:26.000Z</time>
</trkpt>
<trkpt lat="45.9051220" lon="9.8339970">
	<ele>1903.60</ele>
	<time>2023-11-18T09:36:27.000Z</time>
</trkpt>
<trkpt lat="45.9051220" lon="9.8339970">
	<ele>1903.60</ele>
	<time>2023-11-18T09:36:28.000Z</time>
</trkpt>
<trkpt lat="45.9051220" lon="9.8339970">
	<ele>1903.60</ele>
	<time>2023-11-18T09:36:29.000Z</time>
</trkpt>
<trkpt lat="45.9051220" lon="9.8339970">
	<ele>1903.40</ele>
	<time>2023-11-18T09:36:30.000Z</time>
</trkpt>
<trkpt lat="45.9051220" lon="9.8339970">
	<ele>1903.40</ele>
	<time>2023-11-18T09:36:31.000Z</time>
</trkpt>
<trkpt lat="45.9051220" lon="9.8339970">
	<ele>1903.40</ele>
	<time>2023-11-18T09:36:32.000Z</time>
</trkpt>
<trkpt lat="45.9051220" lon="9.8339970">
	<ele>1903.20</ele>
	<time>2023-11-18T09:36:33.000Z</time>
</trkpt>
<trkpt lat="45.9051210" lon="9.8339970">
	<ele>1903.20</ele>
	<time>2023-11-18T09:36:34.000Z</time>
</trkpt>
<trkpt lat="45.9051210" lon="9.8339970">
	<ele>1903.20</ele>
	<time>2023-11-18T09:36:35.000Z</time>
</trkpt>
<trkpt lat="45.9051200" lon="9.8339970">
	<ele>1903.20</ele>
	<time>2023-11-18T09:36:36.000Z</time>
</trkpt>
<trkpt lat="45.9051180" lon="9.8339920">
	<ele>1903.20</ele>
	<time>2023-11-18T09:36:37.000Z</time>
</trkpt>
<trkpt lat="45.9051170" lon="9.8339890">
	<ele>1903.20</ele>
	<time>2023-11-18T09:36:38.000Z</time>
</trkpt>
<trkpt lat="45.9051170" lon="9.8339890">
	<ele>1903.20</ele>
	<time>2023-11-18T09:36:39.000Z</time>
</trkpt>
<trkpt lat="45.9051170" lon="9.8339890">
	<ele>1903.20</ele>
	<time>2023-11-18T09:36:40.000Z</time>
</trkpt>
<trkpt lat="45.9051140" lon="9.8339930">
	<ele>1903.20</ele>
	<time>2023-11-18T09:36:41.000Z</time>
</trkpt>
<trkpt lat="45.9051150" lon="9.8340060">
	<ele>1903.20</ele>
	<time>2023-11-18T09:36:42.000Z</time>
</trkpt>
<trkpt lat="45.9051160" lon="9.8340200">
	<ele>1903.00</ele>
	<time>2023-11-18T09:36:43.000Z</time>
</trkpt>
<trkpt lat="45.9051160" lon="9.8340270">
	<ele>1903.00</ele>
	<time>2023-11-18T09:36:44.000Z</time>
</trkpt>
<trkpt lat="45.9051150" lon="9.8340320">
	<ele>1903.20</ele>
	<time>2023-11-18T09:36:45.000Z</time>
</trkpt>
<trkpt lat="45.9051150" lon="9.8340320">
	<ele>1903.20</ele>
	<time>2023-11-18T09:36:46.000Z</time>
</trkpt>
<trkpt lat="45.9051150" lon="9.8340320">
	<ele>1903.20</ele>
	<time>2023-11-18T09:36:47.000Z</time>
</trkpt>
<trkpt lat="45.9051150" lon="9.8340320">
	<ele>1903.20</ele>
	<time>2023-11-18T09:36:48.000Z</time>
</trkpt>
<trkpt lat="45.9051150" lon="9.8340320">
	<ele>1903.20</ele>
	<time>2023-11-18T09:36:49.000Z</time>
</trkpt>
<trkpt lat="45.9051150" lon="9.8340320">
	<ele>1903.20</ele>
	<time>2023-11-18T09:36:50.000Z</time>
</trkpt>
<trkpt lat="45.9051150" lon="9.8340320">
	<ele>1903.20</ele>
	<time>2023-11-18T09:36:51.000Z</time>
</trkpt>
<trkpt lat="45.9051140" lon="9.8340320">
	<ele>1903.20</ele>
	<time>2023-11-18T09:36:52.000Z</time>
</trkpt>
<trkpt lat="45.9051100" lon="9.8340320">
	<ele>1903.20</ele>
	<time>2023-11-18T09:36:53.000Z</time>
</trkpt>
<trkpt lat="45.9051030" lon="9.8340320">
	<ele>1903.20</ele>
	<time>2023-11-18T09:36:54.000Z</time>
</trkpt>
<trkpt lat="45.9051030" lon="9.8340320">
	<ele>1903.20</ele>
	<time>2023-11-18T09:36:55.000Z</time>
</trkpt>
<trkpt lat="45.9051030" lon="9.8340320">
	<ele>1903.20</ele>
	<time>2023-11-18T09:36:56.000Z</time>
</trkpt>
<trkpt lat="45.9051020" lon="9.8340370">
	<ele>1903.20</ele>
	<time>2023-11-18T09:36:57.000Z</time>
</trkpt>
<trkpt lat="45.9051020" lon="9.8340400">
	<ele>1903.00</ele>
	<time>2023-11-18T09:36:58.000Z</time>
</trkpt>
<trkpt lat="45.9051010" lon="9.8340410">
	<ele>1902.80</ele>
	<time>2023-11-18T09:36:59.000Z</time>
</trkpt>
<trkpt lat="45.9051010" lon="9.8340420">
	<ele>1902.80</ele>
	<time>2023-11-18T09:37:00.000Z</time>
</trkpt>
<trkpt lat="45.9051010" lon="9.8340420">
	<ele>1902.80</ele>
	<time>2023-11-18T09:37:01.000Z</time>
</trkpt>
<trkpt lat="45.9051010" lon="9.8340430">
	<ele>1902.80</ele>
	<time>2023-11-18T09:37:02.000Z</time>
</trkpt>
<trkpt lat="45.9051010" lon="9.8340430">
	<ele>1902.80</ele>
	<time>2023-11-18T09:37:03.000Z</time>
</trkpt>
<trkpt lat="45.9051010" lon="9.8340430">
	<ele>1903.00</ele>
	<time>2023-11-18T09:37:04.000Z</time>
</trkpt>
<trkpt lat="45.9051010" lon="9.8340440">
	<ele>1903.00</ele>
	<time>2023-11-18T09:37:05.000Z</time>
</trkpt>
<trkpt lat="45.9051010" lon="9.8340440">
	<ele>1903.00</ele>
	<time>2023-11-18T09:37:06.000Z</time>
</trkpt>
<trkpt lat="45.9051010" lon="9.8340440">
	<ele>1903.00</ele>
	<time>2023-11-18T09:37:07.000Z</time>
</trkpt>
<trkpt lat="45.9051010" lon="9.8340440">
	<ele>1902.80</ele>
	<time>2023-11-18T09:37:08.000Z</time>
</trkpt>
<trkpt lat="45.9051010" lon="9.8340440">
	<ele>1902.60</ele>
	<time>2023-11-18T09:37:09.000Z</time>
</trkpt>
<trkpt lat="45.9051010" lon="9.8340440">
	<ele>1902.60</ele>
	<time>2023-11-18T09:37:10.000Z</time>
</trkpt>
<trkpt lat="45.9051010" lon="9.8340440">
	<ele>1902.40</ele>
	<time>2023-11-18T09:37:11.000Z</time>
</trkpt>
<trkpt lat="45.9051010" lon="9.8340440">
	<ele>1902.40</ele>
	<time>2023-11-18T09:37:12.000Z</time>
</trkpt>
<trkpt lat="45.9051010" lon="9.8340430">
	<ele>1902.60</ele>
	<time>2023-11-18T09:37:13.000Z</time>
</trkpt>
<trkpt lat="45.9051010" lon="9.8340430">
	<ele>1902.60</ele>
	<time>2023-11-18T09:37:14.000Z</time>
</trkpt>
<trkpt lat="45.9051010" lon="9.8340430">
	<ele>1902.80</ele>
	<time>2023-11-18T09:37:15.000Z</time>
</trkpt>
<trkpt lat="45.9051010" lon="9.8340430">
	<ele>1902.80</ele>
	<time>2023-11-18T09:37:16.000Z</time>
</trkpt>
<trkpt lat="45.9051010" lon="9.8340420">
	<ele>1903.00</ele>
	<time>2023-11-18T09:37:17.000Z</time>
</trkpt>
<trkpt lat="45.9051010" lon="9.8340420">
	<ele>1903.00</ele>
	<time>2023-11-18T09:37:18.000Z</time>
</trkpt>
<trkpt lat="45.9051010" lon="9.8340420">
	<ele>1903.00</ele>
	<time>2023-11-18T09:37:19.000Z</time>
</trkpt>
<trkpt lat="45.9051010" lon="9.8340410">
	<ele>1903.20</ele>
	<time>2023-11-18T09:37:20.000Z</time>
</trkpt>
<trkpt lat="45.9051010" lon="9.8340410">
	<ele>1903.20</ele>
	<time>2023-11-18T09:37:21.000Z</time>
</trkpt>
<trkpt lat="45.9051010" lon="9.8340370">
	<ele>1903.20</ele>
	<time>2023-11-18T09:37:22.000Z</time>
</trkpt>
<trkpt lat="45.9051010" lon="9.8340310">
	<ele>1903.20</ele>
	<time>2023-11-18T09:37:23.000Z</time>
</trkpt>
<trkpt lat="45.9051010" lon="9.8340210">
	<ele>1903.20</ele>
	<time>2023-11-18T09:37:24.000Z</time>
</trkpt>
<trkpt lat="45.9051010" lon="9.8340120">
	<ele>1903.20</ele>
	<time>2023-11-18T09:37:25.000Z</time>
</trkpt>
<trkpt lat="45.9051010" lon="9.8340070">
	<ele>1903.20</ele>
	<time>2023-11-18T09:37:26.000Z</time>
</trkpt>
<trkpt lat="45.9051010" lon="9.8340060">
	<ele>1903.00</ele>
	<time>2023-11-18T09:37:27.000Z</time>
</trkpt>
<trkpt lat="45.9051010" lon="9.8340060">
	<ele>1903.00</ele>
	<time>2023-11-18T09:37:28.000Z</time>
</trkpt>
<trkpt lat="45.9051010" lon="9.8340060">
	<ele>1903.00</ele>
	<time>2023-11-18T09:37:29.000Z</time>
</trkpt>
<trkpt lat="45.9051020" lon="9.8340060">
	<ele>1903.00</ele>
	<time>2023-11-18T09:37:30.000Z</time>
</trkpt>
<trkpt lat="45.9051020" lon="9.8340060">
	<ele>1903.00</ele>
	<time>2023-11-18T09:37:31.000Z</time>
</trkpt>
<trkpt lat="45.9051020" lon="9.8340060">
	<ele>1903.00</ele>
	<time>2023-11-18T09:37:32.000Z</time>
</trkpt>
<trkpt lat="45.9051020" lon="9.8340050">
	<ele>1902.80</ele>
	<time>2023-11-18T09:37:33.000Z</time>
</trkpt>
<trkpt lat="45.9051020" lon="9.8340050">
	<ele>1902.80</ele>
	<time>2023-11-18T09:37:34.000Z</time>
</trkpt>
<trkpt lat="45.9051010" lon="9.8340050">
	<ele>1902.80</ele>
	<time>2023-11-18T09:37:35.000Z</time>
</trkpt>
<trkpt lat="45.9051010" lon="9.8340050">
	<ele>1902.60</ele>
	<time>2023-11-18T09:37:36.000Z</time>
</trkpt>
<trkpt lat="45.9051010" lon="9.8340050">
	<ele>1902.60</ele>
	<time>2023-11-18T09:37:37.000Z</time>
</trkpt>
<trkpt lat="45.9051010" lon="9.8340050">
	<ele>1902.60</ele>
	<time>2023-11-18T09:37:38.000Z</time>
</trkpt>
<trkpt lat="45.9051010" lon="9.8340050">
	<ele>1902.60</ele>
	<time>2023-11-18T09:37:39.000Z</time>
</trkpt>
<trkpt lat="45.9050990" lon="9.8340110">
	<ele>1902.60</ele>
	<time>2023-11-18T09:37:40.000Z</time>
</trkpt>
<trkpt lat="45.9050950" lon="9.8340210">
	<ele>1902.60</ele>
	<time>2023-11-18T09:37:41.000Z</time>
</trkpt>
<trkpt lat="45.9050930" lon="9.8340350">
	<ele>1902.60</ele>
	<time>2023-11-18T09:37:42.000Z</time>
</trkpt>
<trkpt lat="45.9050890" lon="9.8340560">
	<ele>1902.80</ele>
	<time>2023-11-18T09:37:43.000Z</time>
</trkpt>
<trkpt lat="45.9050870" lon="9.8340760">
	<ele>1902.80</ele>
	<time>2023-11-18T09:37:44.000Z</time>
</trkpt>
<trkpt lat="45.9050830" lon="9.8340960">
	<ele>1903.00</ele>
	<time>2023-11-18T09:37:45.000Z</time>
</trkpt>
<trkpt lat="45.9050830" lon="9.8341160">
	<ele>1903.00</ele>
	<time>2023-11-18T09:37:46.000Z</time>
</trkpt>
<trkpt lat="45.9050840" lon="9.8341360">
	<ele>1903.20</ele>
	<time>2023-11-18T09:37:47.000Z</time>
</trkpt>
<trkpt lat="45.9050860" lon="9.8341530">
	<ele>1903.20</ele>
	<time>2023-11-18T09:37:48.000Z</time>
</trkpt>
<trkpt lat="45.9050890" lon="9.8341680">
	<ele>1903.20</ele>
	<time>2023-11-18T09:37:49.000Z</time>
</trkpt>
<trkpt lat="45.9050920" lon="9.8341820">
	<ele>1903.00</ele>
	<time>2023-11-18T09:37:50.000Z</time>
</trkpt>
<trkpt lat="45.9050960" lon="9.8341920">
	<ele>1903.00</ele>
	<time>2023-11-18T09:37:51.000Z</time>
</trkpt>
<trkpt lat="45.9051000" lon="9.8341970">
	<ele>1903.00</ele>
	<time>2023-11-18T09:37:52.000Z</time>
</trkpt>
<trkpt lat="45.9051020" lon="9.8341970">
	<ele>1903.00</ele>
	<time>2023-11-18T09:37:53.000Z</time>
</trkpt>
<trkpt lat="45.9051030" lon="9.8341970">
	<ele>1902.80</ele>
	<time>2023-11-18T09:37:54.000Z</time>
</trkpt>
<trkpt lat="45.9051010" lon="9.8341970">
	<ele>1902.80</ele>
	<time>2023-11-18T09:37:55.000Z</time>
</trkpt>
<trkpt lat="45.9051000" lon="9.8341990">
	<ele>1902.80</ele>
	<time>2023-11-18T09:37:56.000Z</time>
</trkpt>
<trkpt lat="45.9051000" lon="9.8341990">
	<ele>1902.80</ele>
	<time>2023-11-18T09:37:57.000Z</time>
</trkpt>
<trkpt lat="45.9051000" lon="9.8342010">
	<ele>1902.60</ele>
	<time>2023-11-18T09:37:58.000Z</time>
</trkpt>
<trkpt lat="45.9051010" lon="9.8342020">
	<ele>1902.60</ele>
	<time>2023-11-18T09:37:59.000Z</time>
</trkpt>
<trkpt lat="45.9051030" lon="9.8342040">
	<ele>1902.40</ele>
	<time>2023-11-18T09:38:00.000Z</time>
</trkpt>
<trkpt lat="45.9051080" lon="9.8342060">
	<ele>1902.20</ele>
	<time>2023-11-18T09:38:01.000Z</time>
</trkpt>
<trkpt lat="45.9051160" lon="9.8342040">
	<ele>1902.20</ele>
	<time>2023-11-18T09:38:02.000Z</time>
</trkpt>
<trkpt lat="45.9051260" lon="9.8342040">
	<ele>1902.20</ele>
	<time>2023-11-18T09:38:03.000Z</time>
</trkpt>
<trkpt lat="45.9051350" lon="9.8342060">
	<ele>1902.20</ele>
	<time>2023-11-18T09:38:04.000Z</time>
</trkpt>
<trkpt lat="45.9051430" lon="9.8342100">
	<ele>1902.20</ele>
	<time>2023-11-18T09:38:05.000Z</time>
</trkpt>
<trkpt lat="45.9051520" lon="9.8342120">
	<ele>1902.20</ele>
	<time>2023-11-18T09:38:06.000Z</time>
</trkpt>
<trkpt lat="45.9051600" lon="9.8342160">
	<ele>1902.20</ele>
	<time>2023-11-18T09:38:07.000Z</time>
</trkpt>
<trkpt lat="45.9051670" lon="9.8342180">
	<ele>1902.20</ele>
	<time>2023-11-18T09:38:08.000Z</time>
</trkpt>
<trkpt lat="45.9051730" lon="9.8342260">
	<ele>1902.20</ele>
	<time>2023-11-18T09:38:09.000Z</time>
</trkpt>
<trkpt lat="45.9051830" lon="9.8342300">
	<ele>1902.20</ele>
	<time>2023-11-18T09:38:10.000Z</time>
</trkpt>
<trkpt lat="45.9051940" lon="9.8342360">
	<ele>1902.20</ele>
	<time>2023-11-18T09:38:11.000Z</time>
</trkpt>
<trkpt lat="45.9052010" lon="9.8342410">
	<ele>1902.20</ele>
	<time>2023-11-18T09:38:12.000Z</time>
</trkpt>
<trkpt lat="45.9052100" lon="9.8342470">
	<ele>1902.20</ele>
	<time>2023-11-18T09:38:13.000Z</time>
</trkpt>
<trkpt lat="45.9052210" lon="9.8342500">
	<ele>1902.20</ele>
	<time>2023-11-18T09:38:14.000Z</time>
</trkpt>
<trkpt lat="45.9052300" lon="9.8342530">
	<ele>1902.20</ele>
	<time>2023-11-18T09:38:15.000Z</time>
</trkpt>
<trkpt lat="45.9052390" lon="9.8342560">
	<ele>1902.20</ele>
	<time>2023-11-18T09:38:16.000Z</time>
</trkpt>
<trkpt lat="45.9052490" lon="9.8342600">
	<ele>1902.20</ele>
	<time>2023-11-18T09:38:17.000Z</time>
</trkpt>
<trkpt lat="45.9052520" lon="9.8342640">
	<ele>1902.20</ele>
	<time>2023-11-18T09:38:18.000Z</time>
</trkpt>
<trkpt lat="45.9052570" lon="9.8342670">
	<ele>1902.20</ele>
	<time>2023-11-18T09:38:19.000Z</time>
</trkpt>
<trkpt lat="45.9052630" lon="9.8342680">
	<ele>1902.20</ele>
	<time>2023-11-18T09:38:20.000Z</time>
</trkpt>
<trkpt lat="45.9052670" lon="9.8342670">
	<ele>1902.20</ele>
	<time>2023-11-18T09:38:21.000Z</time>
</trkpt>
<trkpt lat="45.9052740" lon="9.8342640">
	<ele>1902.20</ele>
	<time>2023-11-18T09:38:22.000Z</time>
</trkpt>
<trkpt lat="45.9052790" lon="9.8342640">
	<ele>1902.20</ele>
	<time>2023-11-18T09:38:23.000Z</time>
</trkpt>
<trkpt lat="45.9052830" lon="9.8342670">
	<ele>1902.20</ele>
	<time>2023-11-18T09:38:24.000Z</time>
</trkpt>
<trkpt lat="45.9052870" lon="9.8342680">
	<ele>1902.20</ele>
	<time>2023-11-18T09:38:25.000Z</time>
</trkpt>
<trkpt lat="45.9052960" lon="9.8342700">
	<ele>1902.20</ele>
	<time>2023-11-18T09:38:26.000Z</time>
</trkpt>
<trkpt lat="45.9053060" lon="9.8342680">
	<ele>1902.20</ele>
	<time>2023-11-18T09:38:27.000Z</time>
</trkpt>
<trkpt lat="45.9053120" lon="9.8342650">
	<ele>1902.20</ele>
	<time>2023-11-18T09:38:28.000Z</time>
</trkpt>
<trkpt lat="45.9053160" lon="9.8342640">
	<ele>1902.20</ele>
	<time>2023-11-18T09:38:29.000Z</time>
</trkpt>
<trkpt lat="45.9053190" lon="9.8342630">
	<ele>1902.20</ele>
	<time>2023-11-18T09:38:30.000Z</time>
</trkpt>
<trkpt lat="45.9053230" lon="9.8342620">
	<ele>1902.20</ele>
	<time>2023-11-18T09:38:31.000Z</time>
</trkpt>
<trkpt lat="45.9053250" lon="9.8342670">
	<ele>1902.20</ele>
	<time>2023-11-18T09:38:32.000Z</time>
</trkpt>
<trkpt lat="45.9053280" lon="9.8342670">
	<ele>1902.20</ele>
	<time>2023-11-18T09:38:33.000Z</time>
</trkpt>
<trkpt lat="45.9053340" lon="9.8342640">
	<ele>1902.20</ele>
	<time>2023-11-18T09:38:34.000Z</time>
</trkpt>
<trkpt lat="45.9053400" lon="9.8342590">
	<ele>1902.20</ele>
	<time>2023-11-18T09:38:35.000Z</time>
</trkpt>
<trkpt lat="45.9053460" lon="9.8342620">
	<ele>1902.20</ele>
	<time>2023-11-18T09:38:36.000Z</time>
</trkpt>
<trkpt lat="45.9053490" lon="9.8342650">
	<ele>1902.20</ele>
	<time>2023-11-18T09:38:37.000Z</time>
</trkpt>
<trkpt lat="45.9053520" lon="9.8342670">
	<ele>1902.20</ele>
	<time>2023-11-18T09:38:38.000Z</time>
</trkpt>
<trkpt lat="45.9053550" lon="9.8342730">
	<ele>1902.20</ele>
	<time>2023-11-18T09:38:39.000Z</time>
</trkpt>
<trkpt lat="45.9053600" lon="9.8342790">
	<ele>1902.20</ele>
	<time>2023-11-18T09:38:40.000Z</time>
</trkpt>
<trkpt lat="45.9053640" lon="9.8342820">
	<ele>1902.20</ele>
	<time>2023-11-18T09:38:41.000Z</time>
</trkpt>
<trkpt lat="45.9053660" lon="9.8342870">
	<ele>1902.20</ele>
	<time>2023-11-18T09:38:42.000Z</time>
</trkpt>
<trkpt lat="45.9053700" lon="9.8342920">
	<ele>1902.20</ele>
	<time>2023-11-18T09:38:43.000Z</time>
</trkpt>
<trkpt lat="45.9053760" lon="9.8342950">
	<ele>1902.20</ele>
	<time>2023-11-18T09:38:44.000Z</time>
</trkpt>
<trkpt lat="45.9053800" lon="9.8343020">
	<ele>1902.20</ele>
	<time>2023-11-18T09:38:45.000Z</time>
</trkpt>
<trkpt lat="45.9053820" lon="9.8343080">
	<ele>1902.20</ele>
	<time>2023-11-18T09:38:46.000Z</time>
</trkpt>
<trkpt lat="45.9053870" lon="9.8343170">
	<ele>1902.20</ele>
	<time>2023-11-18T09:38:47.000Z</time>
</trkpt>
<trkpt lat="45.9053950" lon="9.8343240">
	<ele>1902.20</ele>
	<time>2023-11-18T09:38:48.000Z</time>
</trkpt>
<trkpt lat="45.9054030" lon="9.8343310">
	<ele>1902.20</ele>
	<time>2023-11-18T09:38:49.000Z</time>
</trkpt>
<trkpt lat="45.9054090" lon="9.8343340">
	<ele>1902.20</ele>
	<time>2023-11-18T09:38:50.000Z</time>
</trkpt>
<trkpt lat="45.9054130" lon="9.8343370">
	<ele>1902.20</ele>
	<time>2023-11-18T09:38:51.000Z</time>
</trkpt>
<trkpt lat="45.9054190" lon="9.8343410">
	<ele>1902.20</ele>
	<time>2023-11-18T09:38:52.000Z</time>
</trkpt>
<trkpt lat="45.9054230" lon="9.8343440">
	<ele>1902.20</ele>
	<time>2023-11-18T09:38:53.000Z</time>
</trkpt>
<trkpt lat="45.9054280" lon="9.8343480">
	<ele>1902.20</ele>
	<time>2023-11-18T09:38:54.000Z</time>
</trkpt>
<trkpt lat="45.9054320" lon="9.8343510">
	<ele>1902.20</ele>
	<time>2023-11-18T09:38:55.000Z</time>
</trkpt>
<trkpt lat="45.9054380" lon="9.8343570">
	<ele>1902.20</ele>
	<time>2023-11-18T09:38:56.000Z</time>
</trkpt>
<trkpt lat="45.9054430" lon="9.8343600">
	<ele>1902.20</ele>
	<time>2023-11-18T09:38:57.000Z</time>
</trkpt>
<trkpt lat="45.9054520" lon="9.8343610">
	<ele>1902.20</ele>
	<time>2023-11-18T09:38:58.000Z</time>
</trkpt>
<trkpt lat="45.9054590" lon="9.8343630">
	<ele>1902.20</ele>
	<time>2023-11-18T09:38:59.000Z</time>
</trkpt>
<trkpt lat="45.9054670" lon="9.8343640">
	<ele>1902.20</ele>
	<time>2023-11-18T09:39:00.000Z</time>
</trkpt>
<trkpt lat="45.9054740" lon="9.8343690">
	<ele>1902.20</ele>
	<time>2023-11-18T09:39:01.000Z</time>
</trkpt>
<trkpt lat="45.9054800" lon="9.8343740">
	<ele>1908.00</ele>
	<time>2023-11-18T09:39:02.000Z</time>
</trkpt>
<trkpt lat="45.9054840" lon="9.8343770">
	<ele>1908.00</ele>
	<time>2023-11-18T09:39:03.000Z</time>
</trkpt>
<trkpt lat="45.9054900" lon="9.8343820">
	<ele>1908.00</ele>
	<time>2023-11-18T09:39:04.000Z</time>
</trkpt>
<trkpt lat="45.9054930" lon="9.8343870">
	<ele>1908.00</ele>
	<time>2023-11-18T09:39:05.000Z</time>
</trkpt>
<trkpt lat="45.9054970" lon="9.8343880">
	<ele>1908.00</ele>
	<time>2023-11-18T09:39:06.000Z</time>
</trkpt>
<trkpt lat="45.9054980" lon="9.8343920">
	<ele>1908.00</ele>
	<time>2023-11-18T09:39:07.000Z</time>
</trkpt>
<trkpt lat="45.9055030" lon="9.8343950">
	<ele>1908.20</ele>
	<time>2023-11-18T09:39:08.000Z</time>
</trkpt>
<trkpt lat="45.9055060" lon="9.8343990">
	<ele>1908.20</ele>
	<time>2023-11-18T09:39:09.000Z</time>
</trkpt>
<trkpt lat="45.9055090" lon="9.8344020">
	<ele>1908.20</ele>
	<time>2023-11-18T09:39:10.000Z</time>
</trkpt>
<trkpt lat="45.9055130" lon="9.8344040">
	<ele>1908.40</ele>
	<time>2023-11-18T09:39:11.000Z</time>
</trkpt>
<trkpt lat="45.9055180" lon="9.8344070">
	<ele>1908.40</ele>
	<time>2023-11-18T09:39:12.000Z</time>
</trkpt>
<trkpt lat="45.9055250" lon="9.8344080">
	<ele>1908.40</ele>
	<time>2023-11-18T09:39:13.000Z</time>
</trkpt>
<trkpt lat="45.9055330" lon="9.8344090">
	<ele>1908.60</ele>
	<time>2023-11-18T09:39:14.000Z</time>
</trkpt>
<trkpt lat="45.9055390" lon="9.8344100">
	<ele>1908.80</ele>
	<time>2023-11-18T09:39:15.000Z</time>
</trkpt>
<trkpt lat="45.9055410" lon="9.8344130">
	<ele>1909.00</ele>
	<time>2023-11-18T09:39:16.000Z</time>
</trkpt>
<trkpt lat="45.9055430" lon="9.8344170">
	<ele>1909.20</ele>
	<time>2023-11-18T09:39:17.000Z</time>
</trkpt>
<trkpt lat="45.9055480" lon="9.8344210">
	<ele>1909.40</ele>
	<time>2023-11-18T09:39:18.000Z</time>
</trkpt>
<trkpt lat="45.9055500" lon="9.8344270">
	<ele>1909.40</ele>
	<time>2023-11-18T09:39:19.000Z</time>
</trkpt>
<trkpt lat="45.9055550" lon="9.8344350">
	<ele>1909.40</ele>
	<time>2023-11-18T09:39:20.000Z</time>
</trkpt>
<trkpt lat="45.9055600" lon="9.8344390">
	<ele>1909.40</ele>
	<time>2023-11-18T09:39:21.000Z</time>
</trkpt>
<trkpt lat="45.9055640" lon="9.8344440">
	<ele>1909.60</ele>
	<time>2023-11-18T09:39:22.000Z</time>
</trkpt>
<trkpt lat="45.9055720" lon="9.8344500">
	<ele>1909.80</ele>
	<time>2023-11-18T09:39:23.000Z</time>
</trkpt>
<trkpt lat="45.9055790" lon="9.8344520">
	<ele>1909.80</ele>
	<time>2023-11-18T09:39:24.000Z</time>
</trkpt>
<trkpt lat="45.9055820" lon="9.8344560">
	<ele>1910.00</ele>
	<time>2023-11-18T09:39:25.000Z</time>
</trkpt>
<trkpt lat="45.9055860" lon="9.8344590">
	<ele>1910.20</ele>
	<time>2023-11-18T09:39:26.000Z</time>
</trkpt>
<trkpt lat="45.9055910" lon="9.8344670">
	<ele>1910.40</ele>
	<time>2023-11-18T09:39:27.000Z</time>
</trkpt>
<trkpt lat="45.9055960" lon="9.8344700">
	<ele>1910.40</ele>
	<time>2023-11-18T09:39:28.000Z</time>
</trkpt>
<trkpt lat="45.9056030" lon="9.8344700">
	<ele>1910.60</ele>
	<time>2023-11-18T09:39:29.000Z</time>
</trkpt>
<trkpt lat="45.9056100" lon="9.8344730">
	<ele>1910.80</ele>
	<time>2023-11-18T09:39:30.000Z</time>
</trkpt>
<trkpt lat="45.9056150" lon="9.8344720">
	<ele>1911.00</ele>
	<time>2023-11-18T09:39:31.000Z</time>
</trkpt>
<trkpt lat="45.9056240" lon="9.8344780">
	<ele>1911.20</ele>
	<time>2023-11-18T09:39:32.000Z</time>
</trkpt>
<trkpt lat="45.9056320" lon="9.8344830">
	<ele>1911.20</ele>
	<time>2023-11-18T09:39:33.000Z</time>
</trkpt>
<trkpt lat="45.9056370" lon="9.8344860">
	<ele>1911.40</ele>
	<time>2023-11-18T09:39:34.000Z</time>
</trkpt>
<trkpt lat="45.9056430" lon="9.8344910">
	<ele>1911.40</ele>
	<time>2023-11-18T09:39:35.000Z</time>
</trkpt>
<trkpt lat="45.9056490" lon="9.8344940">
	<ele>1911.60</ele>
	<time>2023-11-18T09:39:36.000Z</time>
</trkpt>
<trkpt lat="45.9056570" lon="9.8344980">
	<ele>1911.80</ele>
	<time>2023-11-18T09:39:37.000Z</time>
</trkpt>
<trkpt lat="45.9056650" lon="9.8345010">
	<ele>1912.00</ele>
	<time>2023-11-18T09:39:38.000Z</time>
</trkpt>
<trkpt lat="45.9056750" lon="9.8345020">
	<ele>1912.20</ele>
	<time>2023-11-18T09:39:39.000Z</time>
</trkpt>
<trkpt lat="45.9056830" lon="9.8345040">
	<ele>1912.20</ele>
	<time>2023-11-18T09:39:40.000Z</time>
</trkpt>
<trkpt lat="45.9056880" lon="9.8345020">
	<ele>1912.20</ele>
	<time>2023-11-18T09:39:41.000Z</time>
</trkpt>
<trkpt lat="45.9056950" lon="9.8345040">
	<ele>1912.40</ele>
	<time>2023-11-18T09:39:42.000Z</time>
</trkpt>
<trkpt lat="45.9057020" lon="9.8345040">
	<ele>1912.80</ele>
	<time>2023-11-18T09:39:43.000Z</time>
</trkpt>
<trkpt lat="45.9057060" lon="9.8345080">
	<ele>1913.00</ele>
	<time>2023-11-18T09:39:44.000Z</time>
</trkpt>
<trkpt lat="45.9057120" lon="9.8345120">
	<ele>1913.00</ele>
	<time>2023-11-18T09:39:45.000Z</time>
</trkpt>
<trkpt lat="45.9057190" lon="9.8345200">
	<ele>1913.00</ele>
	<time>2023-11-18T09:39:46.000Z</time>
</trkpt>
<trkpt lat="45.9057260" lon="9.8345260">
	<ele>1913.20</ele>
	<time>2023-11-18T09:39:47.000Z</time>
</trkpt>
<trkpt lat="45.9057300" lon="9.8345290">
	<ele>1913.20</ele>
	<time>2023-11-18T09:39:48.000Z</time>
</trkpt>
<trkpt lat="45.9057360" lon="9.8345330">
	<ele>1913.40</ele>
	<time>2023-11-18T09:39:49.000Z</time>
</trkpt>
<trkpt lat="45.9057460" lon="9.8345380">
	<ele>1913.40</ele>
	<time>2023-11-18T09:39:50.000Z</time>
</trkpt>
<trkpt lat="45.9057520" lon="9.8345450">
	<ele>1913.60</ele>
	<time>2023-11-18T09:39:51.000Z</time>
</trkpt>
<trkpt lat="45.9057570" lon="9.8345480">
	<ele>1913.60</ele>
	<time>2023-11-18T09:39:52.000Z</time>
</trkpt>
<trkpt lat="45.9057600" lon="9.8345530">
	<ele>1913.80</ele>
	<time>2023-11-18T09:39:53.000Z</time>
</trkpt>
<trkpt lat="45.9057650" lon="9.8345570">
	<ele>1914.00</ele>
	<time>2023-11-18T09:39:54.000Z</time>
</trkpt>
<trkpt lat="45.9057690" lon="9.8345600">
	<ele>1914.20</ele>
	<time>2023-11-18T09:39:55.000Z</time>
</trkpt>
<trkpt lat="45.9057740" lon="9.8345640">
	<ele>1914.40</ele>
	<time>2023-11-18T09:39:56.000Z</time>
</trkpt>
<trkpt lat="45.9057770" lon="9.8345690">
	<ele>1914.40</ele>
	<time>2023-11-18T09:39:57.000Z</time>
</trkpt>
<trkpt lat="45.9057820" lon="9.8345730">
	<ele>1914.60</ele>
	<time>2023-11-18T09:39:58.000Z</time>
</trkpt>
<trkpt lat="45.9057890" lon="9.8345740">
	<ele>1914.60</ele>
	<time>2023-11-18T09:39:59.000Z</time>
</trkpt>
<trkpt lat="45.9057920" lon="9.8345790">
	<ele>1914.80</ele>
	<time>2023-11-18T09:40:00.000Z</time>
</trkpt>
<trkpt lat="45.9057950" lon="9.8345830">
	<ele>1915.20</ele>
	<time>2023-11-18T09:40:01.000Z</time>
</trkpt>
<trkpt lat="45.9057990" lon="9.8345890">
	<ele>1915.40</ele>
	<time>2023-11-18T09:40:02.000Z</time>
</trkpt>
<trkpt lat="45.9058020" lon="9.8345930">
	<ele>1915.40</ele>
	<time>2023-11-18T09:40:03.000Z</time>
</trkpt>
<trkpt lat="45.9058080" lon="9.8345960">
	<ele>1915.60</ele>
	<time>2023-11-18T09:40:04.000Z</time>
</trkpt>
<trkpt lat="45.9058160" lon="9.8345980">
	<ele>1915.80</ele>
	<time>2023-11-18T09:40:05.000Z</time>
</trkpt>
<trkpt lat="45.9058250" lon="9.8345990">
	<ele>1915.80</ele>
	<time>2023-11-18T09:40:06.000Z</time>
</trkpt>
<trkpt lat="45.9058290" lon="9.8346030">
	<ele>1916.00</ele>
	<time>2023-11-18T09:40:07.000Z</time>
</trkpt>
<trkpt lat="45.9058340" lon="9.8346060">
	<ele>1916.20</ele>
	<time>2023-11-18T09:40:08.000Z</time>
</trkpt>
<trkpt lat="45.9058390" lon="9.8346060">
	<ele>1916.40</ele>
	<time>2023-11-18T09:40:09.000Z</time>
</trkpt>
<trkpt lat="45.9058450" lon="9.8346080">
	<ele>1916.60</ele>
	<time>2023-11-18T09:40:10.000Z</time>
</trkpt>
<trkpt lat="45.9058490" lon="9.8346100">
	<ele>1916.80</ele>
	<time>2023-11-18T09:40:11.000Z</time>
</trkpt>
<trkpt lat="45.9058580" lon="9.8346120">
	<ele>1917.00</ele>
	<time>2023-11-18T09:40:12.000Z</time>
</trkpt>
<trkpt lat="45.9058630" lon="9.8346140">
	<ele>1917.20</ele>
	<time>2023-11-18T09:40:13.000Z</time>
</trkpt>
<trkpt lat="45.9058660" lon="9.8346150">
	<ele>1917.40</ele>
	<time>2023-11-18T09:40:14.000Z</time>
</trkpt>
<trkpt lat="45.9058710" lon="9.8346180">
	<ele>1917.40</ele>
	<time>2023-11-18T09:40:15.000Z</time>
</trkpt>
<trkpt lat="45.9058760" lon="9.8346210">
	<ele>1917.60</ele>
	<time>2023-11-18T09:40:16.000Z</time>
</trkpt>
<trkpt lat="45.9058780" lon="9.8346210">
	<ele>1917.80</ele>
	<time>2023-11-18T09:40:17.000Z</time>
</trkpt>
<trkpt lat="45.9058820" lon="9.8346270">
	<ele>1918.00</ele>
	<time>2023-11-18T09:40:18.000Z</time>
</trkpt>
<trkpt lat="45.9058870" lon="9.8346320">
	<ele>1918.00</ele>
	<time>2023-11-18T09:40:19.000Z</time>
</trkpt>
<trkpt lat="45.9058930" lon="9.8346340">
	<ele>1918.00</ele>
	<time>2023-11-18T09:40:20.000Z</time>
</trkpt>
<trkpt lat="45.9058980" lon="9.8346340">
	<ele>1918.00</ele>
	<time>2023-11-18T09:40:21.000Z</time>
</trkpt>
<trkpt lat="45.9059020" lon="9.8346370">
	<ele>1918.20</ele>
	<time>2023-11-18T09:40:22.000Z</time>
</trkpt>
<trkpt lat="45.9059090" lon="9.8346400">
	<ele>1918.40</ele>
	<time>2023-11-18T09:40:23.000Z</time>
</trkpt>
<trkpt lat="45.9059160" lon="9.8346410">
	<ele>1918.40</ele>
	<time>2023-11-18T09:40:24.000Z</time>
</trkpt>
<trkpt lat="45.9059200" lon="9.8346430">
	<ele>1918.80</ele>
	<time>2023-11-18T09:40:25.000Z</time>
</trkpt>
<trkpt lat="45.9059260" lon="9.8346460">
	<ele>1918.80</ele>
	<time>2023-11-18T09:40:26.000Z</time>
</trkpt>
<trkpt lat="45.9059330" lon="9.8346470">
	<ele>1919.00</ele>
	<time>2023-11-18T09:40:27.000Z</time>
</trkpt>
<trkpt lat="45.9059370" lon="9.8346480">
	<ele>1919.20</ele>
	<time>2023-11-18T09:40:28.000Z</time>
</trkpt>
<trkpt lat="45.9059390" lon="9.8346490">
	<ele>1919.40</ele>
	<time>2023-11-18T09:40:29.000Z</time>
</trkpt>
<trkpt lat="45.9059460" lon="9.8346490">
	<ele>1919.40</ele>
	<time>2023-11-18T09:40:30.000Z</time>
</trkpt>
<trkpt lat="45.9059510" lon="9.8346480">
	<ele>1919.60</ele>
	<time>2023-11-18T09:40:31.000Z</time>
</trkpt>
<trkpt lat="45.9059560" lon="9.8346490">
	<ele>1919.60</ele>
	<time>2023-11-18T09:40:32.000Z</time>
</trkpt>
<trkpt lat="45.9059590" lon="9.8346500">
	<ele>1919.60</ele>
	<time>2023-11-18T09:40:33.000Z</time>
</trkpt>
<trkpt lat="45.9059620" lon="9.8346510">
	<ele>1919.80</ele>
	<time>2023-11-18T09:40:34.000Z</time>
</trkpt>
<trkpt lat="45.9059630" lon="9.8346520">
	<ele>1920.00</ele>
	<time>2023-11-18T09:40:35.000Z</time>
</trkpt>
<trkpt lat="45.9059640" lon="9.8346520">
	<ele>1920.20</ele>
	<time>2023-11-18T09:40:36.000Z</time>
</trkpt>
<trkpt lat="45.9059660" lon="9.8346530">
	<ele>1920.40</ele>
	<time>2023-11-18T09:40:37.000Z</time>
</trkpt>
<trkpt lat="45.9059670" lon="9.8346550">
	<ele>1920.40</ele>
	<time>2023-11-18T09:40:38.000Z</time>
</trkpt>
<trkpt lat="45.9059690" lon="9.8346580">
	<ele>1920.40</ele>
	<time>2023-11-18T09:40:39.000Z</time>
</trkpt>
<trkpt lat="45.9059710" lon="9.8346620">
	<ele>1920.40</ele>
	<time>2023-11-18T09:40:40.000Z</time>
</trkpt>
<trkpt lat="45.9059780" lon="9.8346730">
	<ele>1920.40</ele>
	<time>2023-11-18T09:40:41.000Z</time>
</trkpt>
<trkpt lat="45.9059810" lon="9.8346790">
	<ele>1920.60</ele>
	<time>2023-11-18T09:40:42.000Z</time>
</trkpt>
<trkpt lat="45.9059820" lon="9.8346810">
	<ele>1920.80</ele>
	<time>2023-11-18T09:40:43.000Z</time>
</trkpt>
<trkpt lat="45.9059820" lon="9.8346830">
	<ele>1921.20</ele>
	<time>2023-11-18T09:40:44.000Z</time>
</trkpt>
<trkpt lat="45.9059820" lon="9.8346870">
	<ele>1921.40</ele>
	<time>2023-11-18T09:40:45.000Z</time>
</trkpt>
<trkpt lat="45.9059820" lon="9.8346890">
	<ele>1921.40</ele>
	<time>2023-11-18T09:40:46.000Z</time>
</trkpt>
<trkpt lat="45.9059820" lon="9.8346900">
	<ele>1921.60</ele>
	<time>2023-11-18T09:40:47.000Z</time>
</trkpt>
<trkpt lat="45.9059820" lon="9.8346900">
	<ele>1921.60</ele>
	<time>2023-11-18T09:40:48.000Z</time>
</trkpt>
<trkpt lat="45.9059820" lon="9.8346900">
	<ele>1921.60</ele>
	<time>2023-11-18T09:40:49.000Z</time>
</trkpt>
<trkpt lat="45.9059820" lon="9.8346900">
	<ele>1921.60</ele>
	<time>2023-11-18T09:40:50.000Z</time>
</trkpt>
<trkpt lat="45.9059820" lon="9.8346900">
	<ele>1921.80</ele>
	<time>2023-11-18T09:40:51.000Z</time>
</trkpt>
<trkpt lat="45.9059820" lon="9.8346900">
	<ele>1921.80</ele>
	<time>2023-11-18T09:40:52.000Z</time>
</trkpt>
<trkpt lat="45.9059820" lon="9.8346900">
	<ele>1922.00</ele>
	<time>2023-11-18T09:40:53.000Z</time>
</trkpt>
<trkpt lat="45.9059820" lon="9.8346900">
	<ele>1922.20</ele>
	<time>2023-11-18T09:40:54.000Z</time>
</trkpt>
<trkpt lat="45.9059820" lon="9.8346900">
	<ele>1922.20</ele>
	<time>2023-11-18T09:40:55.000Z</time>
</trkpt>
<trkpt lat="45.9059820" lon="9.8346900">
	<ele>1922.40</ele>
	<time>2023-11-18T09:40:56.000Z</time>
</trkpt>
<trkpt lat="45.9059820" lon="9.8346900">
	<ele>1922.40</ele>
	<time>2023-11-18T09:40:57.000Z</time>
</trkpt>
<trkpt lat="45.9059820" lon="9.8346890">
	<ele>1922.40</ele>
	<time>2023-11-18T09:40:58.000Z</time>
</trkpt>
<trkpt lat="45.9059820" lon="9.8346890">
	<ele>1922.40</ele>
	<time>2023-11-18T09:40:59.000Z</time>
</trkpt>
<trkpt lat="45.9059820" lon="9.8346870">
	<ele>1922.40</ele>
	<time>2023-11-18T09:41:00.000Z</time>
</trkpt>
<trkpt lat="45.9059820" lon="9.8346860">
	<ele>1922.40</ele>
	<time>2023-11-18T09:41:01.000Z</time>
</trkpt>
<trkpt lat="45.9059820" lon="9.8346850">
	<ele>1922.40</ele>
	<time>2023-11-18T09:41:02.000Z</time>
</trkpt>
<trkpt lat="45.9059830" lon="9.8346830">
	<ele>1922.60</ele>
	<time>2023-11-18T09:41:03.000Z</time>
</trkpt>
<trkpt lat="45.9059840" lon="9.8346820">
	<ele>1922.80</ele>
	<time>2023-11-18T09:41:04.000Z</time>
</trkpt>
<trkpt lat="45.9059850" lon="9.8346810">
	<ele>1923.00</ele>
	<time>2023-11-18T09:41:05.000Z</time>
</trkpt>
<trkpt lat="45.9059870" lon="9.8346810">
	<ele>1923.20</ele>
	<time>2023-11-18T09:41:06.000Z</time>
</trkpt>
<trkpt lat="45.9059900" lon="9.8346790">
	<ele>1923.20</ele>
	<time>2023-11-18T09:41:07.000Z</time>
</trkpt>
<trkpt lat="45.9059940" lon="9.8346790">
	<ele>1923.20</ele>
	<time>2023-11-18T09:41:08.000Z</time>
</trkpt>
<trkpt lat="45.9059970" lon="9.8346790">
	<ele>1923.20</ele>
	<time>2023-11-18T09:41:09.000Z</time>
</trkpt>
<trkpt lat="45.9060000" lon="9.8346790">
	<ele>1923.40</ele>
	<time>2023-11-18T09:41:10.000Z</time>
</trkpt>
<trkpt lat="45.9060050" lon="9.8346790">
	<ele>1923.40</ele>
	<time>2023-11-18T09:41:11.000Z</time>
</trkpt>
<trkpt lat="45.9060080" lon="9.8346780">
	<ele>1923.60</ele>
	<time>2023-11-18T09:41:12.000Z</time>
</trkpt>
<trkpt lat="45.9060130" lon="9.8346760">
	<ele>1923.80</ele>
	<time>2023-11-18T09:41:13.000Z</time>
</trkpt>
<trkpt lat="45.9060170" lon="9.8346750">
	<ele>1924.00</ele>
	<time>2023-11-18T09:41:14.000Z</time>
</trkpt>
<trkpt lat="45.9060200" lon="9.8346750">
	<ele>1924.20</ele>
	<time>2023-11-18T09:41:15.000Z</time>
</trkpt>
<trkpt lat="45.9060220" lon="9.8346740">
	<ele>1924.20</ele>
	<time>2023-11-18T09:41:16.000Z</time>
</trkpt>
<trkpt lat="45.9060250" lon="9.8346740">
	<ele>1924.40</ele>
	<time>2023-11-18T09:41:17.000Z</time>
</trkpt>
<trkpt lat="45.9060270" lon="9.8346740">
	<ele>1924.40</ele>
	<time>2023-11-18T09:41:18.000Z</time>
</trkpt>
<trkpt lat="45.9060310" lon="9.8346740">
	<ele>1924.60</ele>
	<time>2023-11-18T09:41:19.000Z</time>
</trkpt>
<trkpt lat="45.9060350" lon="9.8346740">
	<ele>1924.60</ele>
	<time>2023-11-18T09:41:20.000Z</time>
</trkpt>
<trkpt lat="45.9060380" lon="9.8346740">
	<ele>1924.80</ele>
	<time>2023-11-18T09:41:21.000Z</time>
</trkpt>
<trkpt lat="45.9060410" lon="9.8346740">
	<ele>1924.80</ele>
	<time>2023-11-18T09:41:22.000Z</time>
</trkpt>
<trkpt lat="45.9060430" lon="9.8346740">
	<ele>1924.80</ele>
	<time>2023-11-18T09:41:23.000Z</time>
</trkpt>
<trkpt lat="45.9060490" lon="9.8346740">
	<ele>1925.00</ele>
	<time>2023-11-18T09:41:24.000Z</time>
</trkpt>
<trkpt lat="45.9060510" lon="9.8346740">
	<ele>1925.00</ele>
	<time>2023-11-18T09:41:25.000Z</time>
</trkpt>
<trkpt lat="45.9060530" lon="9.8346740">
	<ele>1925.00</ele>
	<time>2023-11-18T09:41:26.000Z</time>
</trkpt>
<trkpt lat="45.9060570" lon="9.8346740">
	<ele>1925.00</ele>
	<time>2023-11-18T09:41:27.000Z</time>
</trkpt>
<trkpt lat="45.9060590" lon="9.8346740">
	<ele>1925.00</ele>
	<time>2023-11-18T09:41:28.000Z</time>
</trkpt>
<trkpt lat="45.9060640" lon="9.8346740">
	<ele>1925.20</ele>
	<time>2023-11-18T09:41:29.000Z</time>
</trkpt>
<trkpt lat="45.9060680" lon="9.8346740">
	<ele>1925.40</ele>
	<time>2023-11-18T09:41:30.000Z</time>
</trkpt>
<trkpt lat="45.9060700" lon="9.8346740">
	<ele>1925.60</ele>
	<time>2023-11-18T09:41:31.000Z</time>
</trkpt>
<trkpt lat="45.9060720" lon="9.8346740">
	<ele>1925.60</ele>
	<time>2023-11-18T09:41:32.000Z</time>
</trkpt>
<trkpt lat="45.9060740" lon="9.8346740">
	<ele>1925.80</ele>
	<time>2023-11-18T09:41:33.000Z</time>
</trkpt>
<trkpt lat="45.9060780" lon="9.8346740">
	<ele>1925.80</ele>
	<time>2023-11-18T09:41:34.000Z</time>
</trkpt>
<trkpt lat="45.9060810" lon="9.8346760">
	<ele>1926.00</ele>
	<time>2023-11-18T09:41:35.000Z</time>
</trkpt>
<trkpt lat="45.9060820" lon="9.8346790">
	<ele>1926.20</ele>
	<time>2023-11-18T09:41:36.000Z</time>
</trkpt>
<trkpt lat="45.9060830" lon="9.8346810">
	<ele>1926.40</ele>
	<time>2023-11-18T09:41:37.000Z</time>
</trkpt>
<trkpt lat="45.9060840" lon="9.8346840">
	<ele>1926.60</ele>
	<time>2023-11-18T09:41:38.000Z</time>
</trkpt>
<trkpt lat="45.9060880" lon="9.8346860">
	<ele>1926.80</ele>
	<time>2023-11-18T09:41:39.000Z</time>
</trkpt>
<trkpt lat="45.9060910" lon="9.8346900">
	<ele>1927.00</ele>
	<time>2023-11-18T09:41:40.000Z</time>
</trkpt>
<trkpt lat="45.9060930" lon="9.8346920">
	<ele>1927.00</ele>
	<time>2023-11-18T09:41:41.000Z</time>
</trkpt>
<trkpt lat="45.9060950" lon="9.8346940">
	<ele>1927.20</ele>
	<time>2023-11-18T09:41:42.000Z</time>
</trkpt>
<trkpt lat="45.9060960" lon="9.8346950">
	<ele>1927.40</ele>
	<time>2023-11-18T09:41:43.000Z</time>
</trkpt>
<trkpt lat="45.9060970" lon="9.8346970">
	<ele>1927.60</ele>
	<time>2023-11-18T09:41:44.000Z</time>
</trkpt>
<trkpt lat="45.9060990" lon="9.8347030">
	<ele>1927.60</ele>
	<time>2023-11-18T09:41:45.000Z</time>
</trkpt>
<trkpt lat="45.9061000" lon="9.8347070">
	<ele>1927.80</ele>
	<time>2023-11-18T09:41:46.000Z</time>
</trkpt>
<trkpt lat="45.9061020" lon="9.8347110">
	<ele>1927.80</ele>
	<time>2023-11-18T09:41:47.000Z</time>
</trkpt>
<trkpt lat="45.9061080" lon="9.8347130">
	<ele>1927.80</ele>
	<time>2023-11-18T09:41:48.000Z</time>
</trkpt>
<trkpt lat="45.9061140" lon="9.8347170">
	<ele>1928.00</ele>
	<time>2023-11-18T09:41:49.000Z</time>
</trkpt>
<trkpt lat="45.9061180" lon="9.8347210">
	<ele>1928.20</ele>
	<time>2023-11-18T09:41:50.000Z</time>
</trkpt>
<trkpt lat="45.9061210" lon="9.8347230">
	<ele>1928.20</ele>
	<time>2023-11-18T09:41:51.000Z</time>
</trkpt>
<trkpt lat="45.9061250" lon="9.8347270">
	<ele>1928.20</ele>
	<time>2023-11-18T09:41:52.000Z</time>
</trkpt>
<trkpt lat="45.9061290" lon="9.8347300">
	<ele>1928.40</ele>
	<time>2023-11-18T09:41:53.000Z</time>
</trkpt>
<trkpt lat="45.9061320" lon="9.8347330">
	<ele>1928.60</ele>
	<time>2023-11-18T09:41:54.000Z</time>
</trkpt>
<trkpt lat="45.9061370" lon="9.8347340">
	<ele>1928.80</ele>
	<time>2023-11-18T09:41:55.000Z</time>
</trkpt>
<trkpt lat="45.9061410" lon="9.8347350">
	<ele>1929.00</ele>
	<time>2023-11-18T09:41:56.000Z</time>
</trkpt>
<trkpt lat="45.9061450" lon="9.8347360">
	<ele>1929.00</ele>
	<time>2023-11-18T09:41:57.000Z</time>
</trkpt>
<trkpt lat="45.9061490" lon="9.8347380">
	<ele>1929.00</ele>
	<time>2023-11-18T09:41:58.000Z</time>
</trkpt>
<trkpt lat="45.9061510" lon="9.8347390">
	<ele>1929.20</ele>
	<time>2023-11-18T09:41:59.000Z</time>
</trkpt>
<trkpt lat="45.9061540" lon="9.8347400">
	<ele>1929.20</ele>
	<time>2023-11-18T09:42:00.000Z</time>
</trkpt>
<trkpt lat="45.9061560" lon="9.8347410">
	<ele>1929.20</ele>
	<time>2023-11-18T09:42:01.000Z</time>
</trkpt>
<trkpt lat="45.9061570" lon="9.8347430">
	<ele>1929.40</ele>
	<time>2023-11-18T09:42:02.000Z</time>
</trkpt>
<trkpt lat="45.9061600" lon="9.8347440">
	<ele>1929.40</ele>
	<time>2023-11-18T09:42:03.000Z</time>
</trkpt>
<trkpt lat="45.9061630" lon="9.8347460">
	<ele>1929.60</ele>
	<time>2023-11-18T09:42:04.000Z</time>
</trkpt>
<trkpt lat="45.9061660" lon="9.8347490">
	<ele>1929.60</ele>
	<time>2023-11-18T09:42:05.000Z</time>
</trkpt>
<trkpt lat="45.9061690" lon="9.8347510">
	<ele>1929.80</ele>
	<time>2023-11-18T09:42:06.000Z</time>
</trkpt>
<trkpt lat="45.9061720" lon="9.8347520">
	<ele>1929.80</ele>
	<time>2023-11-18T09:42:07.000Z</time>
</trkpt>
<trkpt lat="45.9061740" lon="9.8347550">
	<ele>1930.00</ele>
	<time>2023-11-18T09:42:08.000Z</time>
</trkpt>
<trkpt lat="45.9061770" lon="9.8347560">
	<ele>1930.20</ele>
	<time>2023-11-18T09:42:09.000Z</time>
</trkpt>
<trkpt lat="45.9061800" lon="9.8347580">
	<ele>1930.40</ele>
	<time>2023-11-18T09:42:10.000Z</time>
</trkpt>
<trkpt lat="45.9061830" lon="9.8347590">
	<ele>1930.40</ele>
	<time>2023-11-18T09:42:11.000Z</time>
</trkpt>
<trkpt lat="45.9061850" lon="9.8347610">
	<ele>1930.20</ele>
	<time>2023-11-18T09:42:12.000Z</time>
</trkpt>
<trkpt lat="45.9061860" lon="9.8347650">
	<ele>1930.20</ele>
	<time>2023-11-18T09:42:13.000Z</time>
</trkpt>
<trkpt lat="45.9061880" lon="9.8347700">
	<ele>1930.20</ele>
	<time>2023-11-18T09:42:14.000Z</time>
</trkpt>
<trkpt lat="45.9061900" lon="9.8347740">
	<ele>1930.20</ele>
	<time>2023-11-18T09:42:15.000Z</time>
</trkpt>
<trkpt lat="45.9061920" lon="9.8347790">
	<ele>1930.20</ele>
	<time>2023-11-18T09:42:16.000Z</time>
</trkpt>
<trkpt lat="45.9061930" lon="9.8347820">
	<ele>1930.20</ele>
	<time>2023-11-18T09:42:17.000Z</time>
</trkpt>
<trkpt lat="45.9061950" lon="9.8347850">
	<ele>1930.20</ele>
	<time>2023-11-18T09:42:18.000Z</time>
</trkpt>
<trkpt lat="45.9061960" lon="9.8347870">
	<ele>1930.20</ele>
	<time>2023-11-18T09:42:19.000Z</time>
</trkpt>
<trkpt lat="45.9061970" lon="9.8347900">
	<ele>1930.20</ele>
	<time>2023-11-18T09:42:20.000Z</time>
</trkpt>
<trkpt lat="45.9061980" lon="9.8347930">
	<ele>1930.40</ele>
	<time>2023-11-18T09:42:21.000Z</time>
</trkpt>
<trkpt lat="45.9062000" lon="9.8347960">
	<ele>1930.60</ele>
	<time>2023-11-18T09:42:22.000Z</time>
</trkpt>
<trkpt lat="45.9062020" lon="9.8347990">
	<ele>1930.60</ele>
	<time>2023-11-18T09:42:23.000Z</time>
</trkpt>
<trkpt lat="45.9062030" lon="9.8348000">
	<ele>1930.60</ele>
	<time>2023-11-18T09:42:24.000Z</time>
</trkpt>
<trkpt lat="45.9062040" lon="9.8348010">
	<ele>1930.60</ele>
	<time>2023-11-18T09:42:25.000Z</time>
</trkpt>
<trkpt lat="45.9062040" lon="9.8348020">
	<ele>1930.80</ele>
	<time>2023-11-18T09:42:26.000Z</time>
</trkpt>
<trkpt lat="45.9062050" lon="9.8348020">
	<ele>1930.80</ele>
	<time>2023-11-18T09:42:27.000Z</time>
</trkpt>
<trkpt lat="45.9062050" lon="9.8348030">
	<ele>1930.80</ele>
	<time>2023-11-18T09:42:28.000Z</time>
</trkpt>
<trkpt lat="45.9062060" lon="9.8348030">
	<ele>1930.80</ele>
	<time>2023-11-18T09:42:29.000Z</time>
</trkpt>
<trkpt lat="45.9062060" lon="9.8348030">
	<ele>1931.00</ele>
	<time>2023-11-18T09:42:30.000Z</time>
</trkpt>
<trkpt lat="45.9062060" lon="9.8348030">
	<ele>1931.20</ele>
	<time>2023-11-18T09:42:31.000Z</time>
</trkpt>
<trkpt lat="45.9062070" lon="9.8348030">
	<ele>1931.40</ele>
	<time>2023-11-18T09:42:32.000Z</time>
</trkpt>
<trkpt lat="45.9062080" lon="9.8348040">
	<ele>1931.40</ele>
	<time>2023-11-18T09:42:33.000Z</time>
</trkpt>
<trkpt lat="45.9062080" lon="9.8348060">
	<ele>1931.60</ele>
	<time>2023-11-18T09:42:34.000Z</time>
</trkpt>
<trkpt lat="45.9062100" lon="9.8348070">
	<ele>1931.80</ele>
	<time>2023-11-18T09:42:35.000Z</time>
</trkpt>
<trkpt lat="45.9062120" lon="9.8348090">
	<ele>1932.00</ele>
	<time>2023-11-18T09:42:36.000Z</time>
</trkpt>
<trkpt lat="45.9062130" lon="9.8348100">
	<ele>1932.00</ele>
	<time>2023-11-18T09:42:37.000Z</time>
</trkpt>
<trkpt lat="45.9062150" lon="9.8348100">
	<ele>1932.20</ele>
	<time>2023-11-18T09:42:38.000Z</time>
</trkpt>
<trkpt lat="45.9062160" lon="9.8348110">
	<ele>1932.40</ele>
	<time>2023-11-18T09:42:39.000Z</time>
</trkpt>
<trkpt lat="45.9062170" lon="9.8348130">
	<ele>1932.60</ele>
	<time>2023-11-18T09:42:40.000Z</time>
</trkpt>
<trkpt lat="45.9062180" lon="9.8348180">
	<ele>1932.60</ele>
	<time>2023-11-18T09:42:41.000Z</time>
</trkpt>
<trkpt lat="45.9062200" lon="9.8348230">
	<ele>1932.80</ele>
	<time>2023-11-18T09:42:42.000Z</time>
</trkpt>
<trkpt lat="45.9062210" lon="9.8348280">
	<ele>1933.00</ele>
	<time>2023-11-18T09:42:43.000Z</time>
</trkpt>
<trkpt lat="45.9062220" lon="9.8348330">
	<ele>1933.00</ele>
	<time>2023-11-18T09:42:44.000Z</time>
</trkpt>
<trkpt lat="45.9062240" lon="9.8348390">
	<ele>1933.20</ele>
	<time>2023-11-18T09:42:45.000Z</time>
</trkpt>
<trkpt lat="45.9062250" lon="9.8348440">
	<ele>1933.20</ele>
	<time>2023-11-18T09:42:46.000Z</time>
</trkpt>
<trkpt lat="45.9062260" lon="9.8348500">
	<ele>1933.40</ele>
	<time>2023-11-18T09:42:47.000Z</time>
</trkpt>
<trkpt lat="45.9062280" lon="9.8348550">
	<ele>1933.40</ele>
	<time>2023-11-18T09:42:48.000Z</time>
</trkpt>
<trkpt lat="45.9062300" lon="9.8348590">
	<ele>1933.60</ele>
	<time>2023-11-18T09:42:49.000Z</time>
</trkpt>
<trkpt lat="45.9062320" lon="9.8348630">
	<ele>1933.80</ele>
	<time>2023-11-18T09:42:50.000Z</time>
</trkpt>
<trkpt lat="45.9062330" lon="9.8348670">
	<ele>1933.80</ele>
	<time>2023-11-18T09:42:51.000Z</time>
</trkpt>
<trkpt lat="45.9062340" lon="9.8348720">
	<ele>1934.00</ele>
	<time>2023-11-18T09:42:52.000Z</time>
</trkpt>
<trkpt lat="45.9062350" lon="9.8348770">
	<ele>1934.20</ele>
	<time>2023-11-18T09:42:53.000Z</time>
</trkpt>
<trkpt lat="45.9062360" lon="9.8348820">
	<ele>1934.40</ele>
	<time>2023-11-18T09:42:54.000Z</time>
</trkpt>
<trkpt lat="45.9062370" lon="9.8348870">
	<ele>1934.40</ele>
	<time>2023-11-18T09:42:55.000Z</time>
</trkpt>
<trkpt lat="45.9062380" lon="9.8348910">
	<ele>1934.40</ele>
	<time>2023-11-18T09:42:56.000Z</time>
</trkpt>
<trkpt lat="45.9062390" lon="9.8348950">
	<ele>1934.60</ele>
	<time>2023-11-18T09:42:57.000Z</time>
</trkpt>
<trkpt lat="45.9062400" lon="9.8348990">
	<ele>1934.60</ele>
	<time>2023-11-18T09:42:58.000Z</time>
</trkpt>
<trkpt lat="45.9062410" lon="9.8349020">
	<ele>1934.80</ele>
	<time>2023-11-18T09:42:59.000Z</time>
</trkpt>
<trkpt lat="45.9062410" lon="9.8349060">
	<ele>1935.00</ele>
	<time>2023-11-18T09:43:00.000Z</time>
</trkpt>
<trkpt lat="45.9062410" lon="9.8349110">
	<ele>1935.00</ele>
	<time>2023-11-18T09:43:01.000Z</time>
</trkpt>
<trkpt lat="45.9062410" lon="9.8349150">
	<ele>1935.20</ele>
	<time>2023-11-18T09:43:02.000Z</time>
</trkpt>
<trkpt lat="45.9062420" lon="9.8349180">
	<ele>1935.20</ele>
	<time>2023-11-18T09:43:03.000Z</time>
</trkpt>
<trkpt lat="45.9062420" lon="9.8349230">
	<ele>1935.40</ele>
	<time>2023-11-18T09:43:04.000Z</time>
</trkpt>
<trkpt lat="45.9062420" lon="9.8349270">
	<ele>1935.60</ele>
	<time>2023-11-18T09:43:05.000Z</time>
</trkpt>
<trkpt lat="45.9062420" lon="9.8349310">
	<ele>1935.80</ele>
	<time>2023-11-18T09:43:06.000Z</time>
</trkpt>
<trkpt lat="45.9062420" lon="9.8349350">
	<ele>1936.00</ele>
	<time>2023-11-18T09:43:07.000Z</time>
</trkpt>
<trkpt lat="45.9062420" lon="9.8349380">
	<ele>1936.20</ele>
	<time>2023-11-18T09:43:08.000Z</time>
</trkpt>
<trkpt lat="45.9062420" lon="9.8349420">
	<ele>1936.20</ele>
	<time>2023-11-18T09:43:09.000Z</time>
</trkpt>
<trkpt lat="45.9062430" lon="9.8349450">
	<ele>1936.20</ele>
	<time>2023-11-18T09:43:10.000Z</time>
</trkpt>
<trkpt lat="45.9062430" lon="9.8349500">
	<ele>1936.40</ele>
	<time>2023-11-18T09:43:11.000Z</time>
</trkpt>
<trkpt lat="45.9062430" lon="9.8349530">
	<ele>1936.60</ele>
	<time>2023-11-18T09:43:12.000Z</time>
</trkpt>
<trkpt lat="45.9062430" lon="9.8349570">
	<ele>1936.80</ele>
	<time>2023-11-18T09:43:13.000Z</time>
</trkpt>
<trkpt lat="45.9062440" lon="9.8349630">
	<ele>1937.20</ele>
	<time>2023-11-18T09:43:14.000Z</time>
</trkpt>
<trkpt lat="45.9062440" lon="9.8349690">
	<ele>1937.40</ele>
	<time>2023-11-18T09:43:15.000Z</time>
</trkpt>
<trkpt lat="45.9062440" lon="9.8349740">
	<ele>1937.40</ele>
	<time>2023-11-18T09:43:16.000Z</time>
</trkpt>
<trkpt lat="45.9062440" lon="9.8349790">
	<ele>1937.40</ele>
	<time>2023-11-18T09:43:17.000Z</time>
</trkpt>
<trkpt lat="45.9062440" lon="9.8349830">
	<ele>1937.60</ele>
	<time>2023-11-18T09:43:18.000Z</time>
</trkpt>
<trkpt lat="45.9062440" lon="9.8349870">
	<ele>1937.80</ele>
	<time>2023-11-18T09:43:19.000Z</time>
</trkpt>
<trkpt lat="45.9062450" lon="9.8349900">
	<ele>1938.00</ele>
	<time>2023-11-18T09:43:20.000Z</time>
</trkpt>
<trkpt lat="45.9062450" lon="9.8349950">
	<ele>1938.20</ele>
	<time>2023-11-18T09:43:21.000Z</time>
</trkpt>
<trkpt lat="45.9062460" lon="9.8349990">
	<ele>1938.40</ele>
	<time>2023-11-18T09:43:22.000Z</time>
</trkpt>
<trkpt lat="45.9062460" lon="9.8350040">
	<ele>1938.40</ele>
	<time>2023-11-18T09:43:23.000Z</time>
</trkpt>
<trkpt lat="45.9062470" lon="9.8350090">
	<ele>1938.40</ele>
	<time>2023-11-18T09:43:24.000Z</time>
</trkpt>
<trkpt lat="45.9062480" lon="9.8350150">
	<ele>1938.60</ele>
	<time>2023-11-18T09:43:25.000Z</time>
</trkpt>
<trkpt lat="45.9062490" lon="9.8350210">
	<ele>1938.80</ele>
	<time>2023-11-18T09:43:26.000Z</time>
</trkpt>
<trkpt lat="45.9062500" lon="9.8350270">
	<ele>1938.80</ele>
	<time>2023-11-18T09:43:27.000Z</time>
</trkpt>
<trkpt lat="45.9062510" lon="9.8350310">
	<ele>1939.00</ele>
	<time>2023-11-18T09:43:28.000Z</time>
</trkpt>
<trkpt lat="45.9062520" lon="9.8350340">
	<ele>1939.00</ele>
	<time>2023-11-18T09:43:29.000Z</time>
</trkpt>
<trkpt lat="45.9062520" lon="9.8350380">
	<ele>1939.20</ele>
	<time>2023-11-18T09:43:30.000Z</time>
</trkpt>
<trkpt lat="45.9062530" lon="9.8350410">
	<ele>1939.40</ele>
	<time>2023-11-18T09:43:31.000Z</time>
</trkpt>
<trkpt lat="45.9062540" lon="9.8350450">
	<ele>1939.40</ele>
	<time>2023-11-18T09:43:32.000Z</time>
</trkpt>
<trkpt lat="45.9062550" lon="9.8350480">
	<ele>1939.60</ele>
	<time>2023-11-18T09:43:33.000Z</time>
</trkpt>
<trkpt lat="45.9062550" lon="9.8350510">
	<ele>1939.80</ele>
	<time>2023-11-18T09:43:34.000Z</time>
</trkpt>
<trkpt lat="45.9062560" lon="9.8350550">
	<ele>1940.00</ele>
	<time>2023-11-18T09:43:35.000Z</time>
</trkpt>
<trkpt lat="45.9062570" lon="9.8350580">
	<ele>1940.00</ele>
	<time>2023-11-18T09:43:36.000Z</time>
</trkpt>
<trkpt lat="45.9062580" lon="9.8350610">
	<ele>1940.20</ele>
	<time>2023-11-18T09:43:37.000Z</time>
</trkpt>
<trkpt lat="45.9062590" lon="9.8350640">
	<ele>1940.20</ele>
	<time>2023-11-18T09:43:38.000Z</time>
</trkpt>
<trkpt lat="45.9062600" lon="9.8350670">
	<ele>1940.20</ele>
	<time>2023-11-18T09:43:39.000Z</time>
</trkpt>
<trkpt lat="45.9062610" lon="9.8350690">
	<ele>1940.20</ele>
	<time>2023-11-18T09:43:40.000Z</time>
</trkpt>
<trkpt lat="45.9062620" lon="9.8350720">
	<ele>1940.40</ele>
	<time>2023-11-18T09:43:41.000Z</time>
</trkpt>
<trkpt lat="45.9062630" lon="9.8350750">
	<ele>1940.40</ele>
	<time>2023-11-18T09:43:42.000Z</time>
</trkpt>
<trkpt lat="45.9062640" lon="9.8350770">
	<ele>1940.40</ele>
	<time>2023-11-18T09:43:43.000Z</time>
</trkpt>
<trkpt lat="45.9062650" lon="9.8350790">
	<ele>1940.40</ele>
	<time>2023-11-18T09:43:44.000Z</time>
</trkpt>
<trkpt lat="45.9062660" lon="9.8350820">
	<ele>1940.40</ele>
	<time>2023-11-18T09:43:45.000Z</time>
</trkpt>
<trkpt lat="45.9062670" lon="9.8350840">
	<ele>1940.40</ele>
	<time>2023-11-18T09:43:46.000Z</time>
</trkpt>
<trkpt lat="45.9062680" lon="9.8350870">
	<ele>1940.40</ele>
	<time>2023-11-18T09:43:47.000Z</time>
</trkpt>
<trkpt lat="45.9062690" lon="9.8350890">
	<ele>1940.60</ele>
	<time>2023-11-18T09:43:48.000Z</time>
</trkpt>
<trkpt lat="45.9062700" lon="9.8350910">
	<ele>1940.60</ele>
	<time>2023-11-18T09:43:49.000Z</time>
</trkpt>
<trkpt lat="45.9062720" lon="9.8350920">
	<ele>1940.60</ele>
	<time>2023-11-18T09:43:50.000Z</time>
</trkpt>
<trkpt lat="45.9062730" lon="9.8350940">
	<ele>1940.60</ele>
	<time>2023-11-18T09:43:51.000Z</time>
</trkpt>
<trkpt lat="45.9062740" lon="9.8350950">
	<ele>1940.60</ele>
	<time>2023-11-18T09:43:52.000Z</time>
</trkpt>
<trkpt lat="45.9062750" lon="9.8350960">
	<ele>1940.80</ele>
	<time>2023-11-18T09:43:53.000Z</time>
</trkpt>
<trkpt lat="45.9062750" lon="9.8350970">
	<ele>1941.00</ele>
	<time>2023-11-18T09:43:54.000Z</time>
</trkpt>
<trkpt lat="45.9062760" lon="9.8350980">
	<ele>1941.00</ele>
	<time>2023-11-18T09:43:55.000Z</time>
</trkpt>
<trkpt lat="45.9062770" lon="9.8350990">
	<ele>1941.20</ele>
	<time>2023-11-18T09:43:56.000Z</time>
</trkpt>
<trkpt lat="45.9062770" lon="9.8351000">
	<ele>1941.20</ele>
	<time>2023-11-18T09:43:57.000Z</time>
</trkpt>
<trkpt lat="45.9062780" lon="9.8351010">
	<ele>1941.60</ele>
	<time>2023-11-18T09:43:58.000Z</time>
</trkpt>
<trkpt lat="45.9062780" lon="9.8351010">
	<ele>1941.80</ele>
	<time>2023-11-18T09:43:59.000Z</time>
</trkpt>
<trkpt lat="45.9062780" lon="9.8351020">
	<ele>1942.00</ele>
	<time>2023-11-18T09:44:00.000Z</time>
</trkpt>
<trkpt lat="45.9062790" lon="9.8351020">
	<ele>1942.00</ele>
	<time>2023-11-18T09:44:01.000Z</time>
</trkpt>
<trkpt lat="45.9062790" lon="9.8351030">
	<ele>1942.20</ele>
	<time>2023-11-18T09:44:02.000Z</time>
</trkpt>
<trkpt lat="45.9062790" lon="9.8351030">
	<ele>1942.20</ele>
	<time>2023-11-18T09:44:03.000Z</time>
</trkpt>
<trkpt lat="45.9062790" lon="9.8351040">
	<ele>1942.40</ele>
	<time>2023-11-18T09:44:04.000Z</time>
</trkpt>
<trkpt lat="45.9062790" lon="9.8351040">
	<ele>1942.60</ele>
	<time>2023-11-18T09:44:05.000Z</time>
</trkpt>
<trkpt lat="45.9062800" lon="9.8351050">
	<ele>1942.80</ele>
	<time>2023-11-18T09:44:06.000Z</time>
</trkpt>
<trkpt lat="45.9062800" lon="9.8351050">
	<ele>1943.20</ele>
	<time>2023-11-18T09:44:07.000Z</time>
</trkpt>
<trkpt lat="45.9062800" lon="9.8351050">
	<ele>1943.40</ele>
	<time>2023-11-18T09:44:08.000Z</time>
</trkpt>
<trkpt lat="45.9062800" lon="9.8351050">
	<ele>1943.60</ele>
	<time>2023-11-18T09:44:09.000Z</time>
</trkpt>
<trkpt lat="45.9062800" lon="9.8351050">
	<ele>1943.80</ele>
	<time>2023-11-18T09:44:10.000Z</time>
</trkpt>
<trkpt lat="45.9062800" lon="9.8351050">
	<ele>1944.00</ele>
	<time>2023-11-18T09:44:11.000Z</time>
</trkpt>
<trkpt lat="45.9062800" lon="9.8351060">
	<ele>1944.00</ele>
	<time>2023-11-18T09:44:12.000Z</time>
</trkpt>
<trkpt lat="45.9062800" lon="9.8351060">
	<ele>1944.20</ele>
	<time>2023-11-18T09:44:13.000Z</time>
</trkpt>
<trkpt lat="45.9062800" lon="9.8351060">
	<ele>1944.40</ele>
	<time>2023-11-18T09:44:14.000Z</time>
</trkpt>
<trkpt lat="45.9062800" lon="9.8351060">
	<ele>1944.60</ele>
	<time>2023-11-18T09:44:15.000Z</time>
</trkpt>
<trkpt lat="45.9062800" lon="9.8351060">
	<ele>1944.80</ele>
	<time>2023-11-18T09:44:16.000Z</time>
</trkpt>
<trkpt lat="45.9062800" lon="9.8351070">
	<ele>1944.80</ele>
	<time>2023-11-18T09:44:17.000Z</time>
</trkpt>
<trkpt lat="45.9062810" lon="9.8351070">
	<ele>1945.00</ele>
	<time>2023-11-18T09:44:18.000Z</time>
</trkpt>
<trkpt lat="45.9062810" lon="9.8351070">
	<ele>1945.00</ele>
	<time>2023-11-18T09:44:19.000Z</time>
</trkpt>
<trkpt lat="45.9062810" lon="9.8351070">
	<ele>1945.00</ele>
	<time>2023-11-18T09:44:20.000Z</time>
</trkpt>
<trkpt lat="45.9062810" lon="9.8351080">
	<ele>1945.20</ele>
	<time>2023-11-18T09:44:21.000Z</time>
</trkpt>
<trkpt lat="45.9062810" lon="9.8351080">
	<ele>1945.40</ele>
	<time>2023-11-18T09:44:22.000Z</time>
</trkpt>
<trkpt lat="45.9062810" lon="9.8351080">
	<ele>1945.60</ele>
	<time>2023-11-18T09:44:23.000Z</time>
</trkpt>
<trkpt lat="45.9062810" lon="9.8351080">
	<ele>1945.80</ele>
	<time>2023-11-18T09:44:24.000Z</time>
</trkpt>
<trkpt lat="45.9062810" lon="9.8351090">
	<ele>1946.00</ele>
	<time>2023-11-18T09:44:25.000Z</time>
</trkpt>
<trkpt lat="45.9062810" lon="9.8351090">
	<ele>1946.20</ele>
	<time>2023-11-18T09:44:26.000Z</time>
</trkpt>
<trkpt lat="45.9062810" lon="9.8351090">
	<ele>1946.40</ele>
	<time>2023-11-18T09:44:27.000Z</time>
</trkpt>
<trkpt lat="45.9062810" lon="9.8351090">
	<ele>1946.60</ele>
	<time>2023-11-18T09:44:28.000Z</time>
</trkpt>
<trkpt lat="45.9062810" lon="9.8351100">
	<ele>1947.00</ele>
	<time>2023-11-18T09:44:29.000Z</time>
</trkpt>
<trkpt lat="45.9062810" lon="9.8351100">
	<ele>1947.20</ele>
	<time>2023-11-18T09:44:30.000Z</time>
</trkpt>
<trkpt lat="45.9062810" lon="9.8351100">
	<ele>1947.20</ele>
	<time>2023-11-18T09:44:31.000Z</time>
</trkpt>
<trkpt lat="45.9062820" lon="9.8351110">
	<ele>1947.20</ele>
	<time>2023-11-18T09:44:32.000Z</time>
</trkpt>
<trkpt lat="45.9062820" lon="9.8351110">
	<ele>1947.40</ele>
	<time>2023-11-18T09:44:33.000Z</time>
</trkpt>
<trkpt lat="45.9062820" lon="9.8351110">
	<ele>1947.40</ele>
	<time>2023-11-18T09:44:34.000Z</time>
</trkpt>
<trkpt lat="45.9062820" lon="9.8351120">
	<ele>1947.60</ele>
	<time>2023-11-18T09:44:35.000Z</time>
</trkpt>
<trkpt lat="45.9062820" lon="9.8351120">
	<ele>1947.60</ele>
	<time>2023-11-18T09:44:36.000Z</time>
</trkpt>
<trkpt lat="45.9062820" lon="9.8351120">
	<ele>1947.80</ele>
	<time>2023-11-18T09:44:37.000Z</time>
</trkpt>
<trkpt lat="45.9062820" lon="9.8351130">
	<ele>1948.00</ele>
	<time>2023-11-18T09:44:38.000Z</time>
</trkpt>
<trkpt lat="45.9062820" lon="9.8351130">
	<ele>1948.00</ele>
	<time>2023-11-18T09:44:39.000Z</time>
</trkpt>
<trkpt lat="45.9062820" lon="9.8351130">
	<ele>1948.20</ele>
	<time>2023-11-18T09:44:40.000Z</time>
</trkpt>
<trkpt lat="45.9062820" lon="9.8351130">
	<ele>1948.40</ele>
	<time>2023-11-18T09:44:41.000Z</time>
</trkpt>
<trkpt lat="45.9062820" lon="9.8351140">
	<ele>1948.40</ele>
	<time>2023-11-18T09:44:42.000Z</time>
</trkpt>
<trkpt lat="45.9062820" lon="9.8351140">
	<ele>1948.60</ele>
	<time>2023-11-18T09:44:43.000Z</time>
</trkpt>
<trkpt lat="45.9062820" lon="9.8351140">
	<ele>1948.60</ele>
	<time>2023-11-18T09:44:44.000Z</time>
</trkpt>
<trkpt lat="45.9062830" lon="9.8351150">
	<ele>1948.80</ele>
	<time>2023-11-18T09:44:45.000Z</time>
</trkpt>
<trkpt lat="45.9062830" lon="9.8351150">
	<ele>1949.00</ele>
	<time>2023-11-18T09:44:46.000Z</time>
</trkpt>
<trkpt lat="45.9062830" lon="9.8351150">
	<ele>1949.20</ele>
	<time>2023-11-18T09:44:47.000Z</time>
</trkpt>
<trkpt lat="45.9062830" lon="9.8351160">
	<ele>1949.40</ele>
	<time>2023-11-18T09:44:48.000Z</time>
</trkpt>
<trkpt lat="45.9062830" lon="9.8351160">
	<ele>1949.60</ele>
	<time>2023-11-18T09:44:49.000Z</time>
</trkpt>
<trkpt lat="45.9062830" lon="9.8351160">
	<ele>1949.60</ele>
	<time>2023-11-18T09:44:50.000Z</time>
</trkpt>
<trkpt lat="45.9062830" lon="9.8351170">
	<ele>1950.00</ele>
	<time>2023-11-18T09:44:51.000Z</time>
</trkpt>
<trkpt lat="45.9062830" lon="9.8351170">
	<ele>1950.20</ele>
	<time>2023-11-18T09:44:52.000Z</time>
</trkpt>
<trkpt lat="45.9062830" lon="9.8351180">
	<ele>1950.20</ele>
	<time>2023-11-18T09:44:53.000Z</time>
</trkpt>
<trkpt lat="45.9062830" lon="9.8351180">
	<ele>1950.20</ele>
	<time>2023-11-18T09:44:54.000Z</time>
</trkpt>
<trkpt lat="45.9062830" lon="9.8351180">
	<ele>1950.20</ele>
	<time>2023-11-18T09:44:55.000Z</time>
</trkpt>
<trkpt lat="45.9062830" lon="9.8351190">
	<ele>1950.20</ele>
	<time>2023-11-18T09:44:56.000Z</time>
</trkpt>
<trkpt lat="45.9062840" lon="9.8351190">
	<ele>1950.40</ele>
	<time>2023-11-18T09:44:57.000Z</time>
</trkpt>
<trkpt lat="45.9062840" lon="9.8351190">
	<ele>1950.40</ele>
	<time>2023-11-18T09:44:58.000Z</time>
</trkpt>
<trkpt lat="45.9062840" lon="9.8351200">
	<ele>1950.40</ele>
	<time>2023-11-18T09:44:59.000Z</time>
</trkpt>
<trkpt lat="45.9062840" lon="9.8351200">
	<ele>1950.60</ele>
	<time>2023-11-18T09:45:00.000Z</time>
</trkpt>
<trkpt lat="45.9062840" lon="9.8351210">
	<ele>1950.80</ele>
	<time>2023-11-18T09:45:01.000Z</time>
</trkpt>
<trkpt lat="45.9062840" lon="9.8351210">
	<ele>1950.80</ele>
	<time>2023-11-18T09:45:02.000Z</time>
</trkpt>
<trkpt lat="45.9062840" lon="9.8351220">
	<ele>1951.00</ele>
	<time>2023-11-18T09:45:03.000Z</time>
</trkpt>
<trkpt lat="45.9062840" lon="9.8351220">
	<ele>1951.00</ele>
	<time>2023-11-18T09:45:04.000Z</time>
</trkpt>
<trkpt lat="45.9062840" lon="9.8351230">
	<ele>1951.00</ele>
	<time>2023-11-18T09:45:05.000Z</time>
</trkpt>
<trkpt lat="45.9062840" lon="9.8351230">
	<ele>1951.20</ele>
	<time>2023-11-18T09:45:06.000Z</time>
</trkpt>
<trkpt lat="45.9062840" lon="9.8351230">
	<ele>1951.20</ele>
	<time>2023-11-18T09:45:07.000Z</time>
</trkpt>
<trkpt lat="45.9062850" lon="9.8351240">
	<ele>1951.40</ele>
	<time>2023-11-18T09:45:08.000Z</time>
</trkpt>
<trkpt lat="45.9062850" lon="9.8351240">
	<ele>1951.60</ele>
	<time>2023-11-18T09:45:09.000Z</time>
</trkpt>
<trkpt lat="45.9062850" lon="9.8351250">
	<ele>1951.60</ele>
	<time>2023-11-18T09:45:10.000Z</time>
</trkpt>
<trkpt lat="45.9062850" lon="9.8351250">
	<ele>1951.80</ele>
	<time>2023-11-18T09:45:11.000Z</time>
</trkpt>
<trkpt lat="45.9062850" lon="9.8351260">
	<ele>1952.00</ele>
	<time>2023-11-18T09:45:12.000Z</time>
</trkpt>
<trkpt lat="45.9062850" lon="9.8351260">
	<ele>1952.00</ele>
	<time>2023-11-18T09:45:13.000Z</time>
</trkpt>
<trkpt lat="45.9062850" lon="9.8351270">
	<ele>1952.20</ele>
	<time>2023-11-18T09:45:14.000Z</time>
</trkpt>
<trkpt lat="45.9062850" lon="9.8351270">
	<ele>1952.20</ele>
	<time>2023-11-18T09:45:15.000Z</time>
</trkpt>
<trkpt lat="45.9062850" lon="9.8351280">
	<ele>1952.40</ele>
	<time>2023-11-18T09:45:16.000Z</time>
</trkpt>
<trkpt lat="45.9062850" lon="9.8351290">
	<ele>1952.80</ele>
	<time>2023-11-18T09:45:17.000Z</time>
</trkpt>
<trkpt lat="45.9062850" lon="9.8351290">
	<ele>1953.00</ele>
	<time>2023-11-18T09:45:18.000Z</time>
</trkpt>
<trkpt lat="45.9062850" lon="9.8351300">
	<ele>1953.20</ele>
	<time>2023-11-18T09:45:19.000Z</time>
</trkpt>
<trkpt lat="45.9062850" lon="9.8351300">
	<ele>1953.20</ele>
	<time>2023-11-18T09:45:20.000Z</time>
</trkpt>
<trkpt lat="45.9062850" lon="9.8351310">
	<ele>1953.40</ele>
	<time>2023-11-18T09:45:21.000Z</time>
</trkpt>
<trkpt lat="45.9062860" lon="9.8351310">
	<ele>1953.60</ele>
	<time>2023-11-18T09:45:22.000Z</time>
</trkpt>
<trkpt lat="45.9062860" lon="9.8351320">
	<ele>1953.60</ele>
	<time>2023-11-18T09:45:23.000Z</time>
</trkpt>
<trkpt lat="45.9062860" lon="9.8351320">
	<ele>1954.00</ele>
	<time>2023-11-18T09:45:24.000Z</time>
</trkpt>
<trkpt lat="45.9062860" lon="9.8351330">
	<ele>1954.00</ele>
	<time>2023-11-18T09:45:25.000Z</time>
</trkpt>
<trkpt lat="45.9062860" lon="9.8351330">
	<ele>1954.20</ele>
	<time>2023-11-18T09:45:26.000Z</time>
</trkpt>
<trkpt lat="45.9062860" lon="9.8351340">
	<ele>1954.20</ele>
	<time>2023-11-18T09:45:27.000Z</time>
</trkpt>
<trkpt lat="45.9062860" lon="9.8351340">
	<ele>1954.40</ele>
	<time>2023-11-18T09:45:28.000Z</time>
</trkpt>
<trkpt lat="45.9062860" lon="9.8351350">
	<ele>1954.40</ele>
	<time>2023-11-18T09:45:29.000Z</time>
</trkpt>
<trkpt lat="45.9062860" lon="9.8351350">
	<ele>1954.80</ele>
	<time>2023-11-18T09:45:30.000Z</time>
</trkpt>
<trkpt lat="45.9062860" lon="9.8351360">
	<ele>1954.80</ele>
	<time>2023-11-18T09:45:31.000Z</time>
</trkpt>
<trkpt lat="45.9062860" lon="9.8351360">
	<ele>1955.00</ele>
	<time>2023-11-18T09:45:32.000Z</time>
</trkpt>
<trkpt lat="45.9062860" lon="9.8351370">
	<ele>1955.00</ele>
	<time>2023-11-18T09:45:33.000Z</time>
</trkpt>
<trkpt lat="45.9062860" lon="9.8351380">
	<ele>1955.20</ele>
	<time>2023-11-18T09:45:34.000Z</time>
</trkpt>
<trkpt lat="45.9062870" lon="9.8351380">
	<ele>1955.20</ele>
	<time>2023-11-18T09:45:35.000Z</time>
</trkpt>
<trkpt lat="45.9062870" lon="9.8351390">
	<ele>1955.20</ele>
	<time>2023-11-18T09:45:36.000Z</time>
</trkpt>
<trkpt lat="45.9062870" lon="9.8351390">
	<ele>1955.40</ele>
	<time>2023-11-18T09:45:37.000Z</time>
</trkpt>
<trkpt lat="45.9062870" lon="9.8351400">
	<ele>1955.60</ele>
	<time>2023-11-18T09:45:38.000Z</time>
</trkpt>
<trkpt lat="45.9062870" lon="9.8351400">
	<ele>1955.80</ele>
	<time>2023-11-18T09:45:39.000Z</time>
</trkpt>
<trkpt lat="45.9062870" lon="9.8351410">
	<ele>1956.00</ele>
	<time>2023-11-18T09:45:40.000Z</time>
</trkpt>
<trkpt lat="45.9062870" lon="9.8351410">
	<ele>1956.20</ele>
	<time>2023-11-18T09:45:41.000Z</time>
</trkpt>
<trkpt lat="45.9062880" lon="9.8351420">
	<ele>1956.20</ele>
	<time>2023-11-18T09:45:42.000Z</time>
</trkpt>
<trkpt lat="45.9062880" lon="9.8351420">
	<ele>1956.40</ele>
	<time>2023-11-18T09:45:43.000Z</time>
</trkpt>
<trkpt lat="45.9062880" lon="9.8351430">
	<ele>1956.40</ele>
	<time>2023-11-18T09:45:44.000Z</time>
</trkpt>
<trkpt lat="45.9062880" lon="9.8351430">
	<ele>1956.60</ele>
	<time>2023-11-18T09:45:45.000Z</time>
</trkpt>
<trkpt lat="45.9062890" lon="9.8351440">
	<ele>1956.60</ele>
	<time>2023-11-18T09:45:46.000Z</time>
</trkpt>
<trkpt lat="45.9062890" lon="9.8351440">
	<ele>1956.80</ele>
	<time>2023-11-18T09:45:47.000Z</time>
</trkpt>
<trkpt lat="45.9062890" lon="9.8351450">
	<ele>1956.80</ele>
	<time>2023-11-18T09:45:48.000Z</time>
</trkpt>
<trkpt lat="45.9062890" lon="9.8351450">
	<ele>1957.00</ele>
	<time>2023-11-18T09:45:49.000Z</time>
</trkpt>
<trkpt lat="45.9062900" lon="9.8351460">
	<ele>1957.00</ele>
	<time>2023-11-18T09:45:50.000Z</time>
</trkpt>
<trkpt lat="45.9062900" lon="9.8351460">
	<ele>1957.20</ele>
	<time>2023-11-18T09:45:51.000Z</time>
</trkpt>
<trkpt lat="45.9062900" lon="9.8351470">
	<ele>1957.40</ele>
	<time>2023-11-18T09:45:52.000Z</time>
</trkpt>
<trkpt lat="45.9062900" lon="9.8351470">
	<ele>1957.60</ele>
	<time>2023-11-18T09:45:53.000Z</time>
</trkpt>
<trkpt lat="45.9062900" lon="9.8351480">
	<ele>1957.80</ele>
	<time>2023-11-18T09:45:54.000Z</time>
</trkpt>
<trkpt lat="45.9062900" lon="9.8351490">
	<ele>1957.80</ele>
	<time>2023-11-18T09:45:55.000Z</time>
</trkpt>
<trkpt lat="45.9062910" lon="9.8351490">
	<ele>1958.00</ele>
	<time>2023-11-18T09:45:56.000Z</time>
</trkpt>
<trkpt lat="45.9062910" lon="9.8351500">
	<ele>1958.20</ele>
	<time>2023-11-18T09:45:57.000Z</time>
</trkpt>
<trkpt lat="45.9062910" lon="9.8351500">
	<ele>1958.40</ele>
	<time>2023-11-18T09:45:58.000Z</time>
</trkpt>
<trkpt lat="45.9062910" lon="9.8351510">
	<ele>1958.40</ele>
	<time>2023-11-18T09:45:59.000Z</time>
</trkpt>
<trkpt lat="45.9062920" lon="9.8351510">
	<ele>1958.60</ele>
	<time>2023-11-18T09:46:00.000Z</time>
</trkpt>
<trkpt lat="45.9062920" lon="9.8351520">
	<ele>1958.80</ele>
	<time>2023-11-18T09:46:01.000Z</time>
</trkpt>
<trkpt lat="45.9062920" lon="9.8351520">
	<ele>1959.00</ele>
	<time>2023-11-18T09:46:02.000Z</time>
</trkpt>
<trkpt lat="45.9062920" lon="9.8351530">
	<ele>1959.00</ele>
	<time>2023-11-18T09:46:03.000Z</time>
</trkpt>
<trkpt lat="45.9062930" lon="9.8351530">
	<ele>1959.00</ele>
	<time>2023-11-18T09:46:04.000Z</time>
</trkpt>
<trkpt lat="45.9062930" lon="9.8351540">
	<ele>1959.20</ele>
	<time>2023-11-18T09:46:05.000Z</time>
</trkpt>
<trkpt lat="45.9062930" lon="9.8351540">
	<ele>1959.20</ele>
	<time>2023-11-18T09:46:06.000Z</time>
</trkpt>
<trkpt lat="45.9062930" lon="9.8351550">
	<ele>1959.20</ele>
	<time>2023-11-18T09:46:07.000Z</time>
</trkpt>
<trkpt lat="45.9062930" lon="9.8351560">
	<ele>1959.40</ele>
	<time>2023-11-18T09:46:08.000Z</time>
</trkpt>
<trkpt lat="45.9062940" lon="9.8351560">
	<ele>1959.40</ele>
	<time>2023-11-18T09:46:09.000Z</time>
</trkpt>
<trkpt lat="45.9062940" lon="9.8351570">
	<ele>1959.80</ele>
	<time>2023-11-18T09:46:10.000Z</time>
</trkpt>
<trkpt lat="45.9062940" lon="9.8351570">
	<ele>1960.00</ele>
	<time>2023-11-18T09:46:11.000Z</time>
</trkpt>
<trkpt lat="45.9062950" lon="9.8351580">
	<ele>1960.00</ele>
	<time>2023-11-18T09:46:12.000Z</time>
</trkpt>
<trkpt lat="45.9062950" lon="9.8351580">
	<ele>1960.20</ele>
	<time>2023-11-18T09:46:13.000Z</time>
</trkpt>
<trkpt lat="45.9062950" lon="9.8351590">
	<ele>1960.20</ele>
	<time>2023-11-18T09:46:14.000Z</time>
</trkpt>
<trkpt lat="45.9062950" lon="9.8351590">
	<ele>1960.60</ele>
	<time>2023-11-18T09:46:15.000Z</time>
</trkpt>
<trkpt lat="45.9062950" lon="9.8351600">
	<ele>1961.00</ele>
	<time>2023-11-18T09:46:16.000Z</time>
</trkpt>
<trkpt lat="45.9062950" lon="9.8351610">
	<ele>1961.20</ele>
	<time>2023-11-18T09:46:17.000Z</time>
</trkpt>
<trkpt lat="45.9062960" lon="9.8351610">
	<ele>1961.40</ele>
	<time>2023-11-18T09:46:18.000Z</time>
</trkpt>
<trkpt lat="45.9062960" lon="9.8351620">
	<ele>1961.60</ele>
	<time>2023-11-18T09:46:19.000Z</time>
</trkpt>
<trkpt lat="45.9062960" lon="9.8351630">
	<ele>1961.80</ele>
	<time>2023-11-18T09:46:20.000Z</time>
</trkpt>
<trkpt lat="45.9062960" lon="9.8351630">
	<ele>1961.80</ele>
	<time>2023-11-18T09:46:21.000Z</time>
</trkpt>
<trkpt lat="45.9062970" lon="9.8351640">
	<ele>1962.00</ele>
	<time>2023-11-18T09:46:22.000Z</time>
</trkpt>
<trkpt lat="45.9062970" lon="9.8351650">
	<ele>1962.00</ele>
	<time>2023-11-18T09:46:23.000Z</time>
</trkpt>
<trkpt lat="45.9062970" lon="9.8351650">
	<ele>1962.20</ele>
	<time>2023-11-18T09:46:24.000Z</time>
</trkpt>
<trkpt lat="45.9062970" lon="9.8351660">
	<ele>1962.40</ele>
	<time>2023-11-18T09:46:25.000Z</time>
</trkpt>
<trkpt lat="45.9062970" lon="9.8351660">
	<ele>1962.40</ele>
	<time>2023-11-18T09:46:26.000Z</time>
</trkpt>
<trkpt lat="45.9062980" lon="9.8351670">
	<ele>1962.60</ele>
	<time>2023-11-18T09:46:27.000Z</time>
</trkpt>
<trkpt lat="45.9062980" lon="9.8351670">
	<ele>1962.60</ele>
	<time>2023-11-18T09:46:28.000Z</time>
</trkpt>
<trkpt lat="45.9062980" lon="9.8351680">
	<ele>1962.60</ele>
	<time>2023-11-18T09:46:29.000Z</time>
</trkpt>
<trkpt lat="45.9062980" lon="9.8351690">
	<ele>1962.80</ele>
	<time>2023-11-18T09:46:30.000Z</time>
</trkpt>
<trkpt lat="45.9062990" lon="9.8351690">
	<ele>1962.80</ele>
	<time>2023-11-18T09:46:31.000Z</time>
</trkpt>
<trkpt lat="45.9062990" lon="9.8351700">
	<ele>1963.00</ele>
	<time>2023-11-18T09:46:32.000Z</time>
</trkpt>
<trkpt lat="45.9062990" lon="9.8351710">
	<ele>1963.00</ele>
	<time>2023-11-18T09:46:33.000Z</time>
</trkpt>
<trkpt lat="45.9062990" lon="9.8351710">
	<ele>1963.00</ele>
	<time>2023-11-18T09:46:34.000Z</time>
</trkpt>
<trkpt lat="45.9062990" lon="9.8351720">
	<ele>1963.20</ele>
	<time>2023-11-18T09:46:35.000Z</time>
</trkpt>
<trkpt lat="45.9063000" lon="9.8351730">
	<ele>1963.40</ele>
	<time>2023-11-18T09:46:36.000Z</time>
</trkpt>
<trkpt lat="45.9063000" lon="9.8351730">
	<ele>1963.80</ele>
	<time>2023-11-18T09:46:37.000Z</time>
</trkpt>
<trkpt lat="45.9063000" lon="9.8351740">
	<ele>1963.80</ele>
	<time>2023-11-18T09:46:38.000Z</time>
</trkpt>
<trkpt lat="45.9063000" lon="9.8351750">
	<ele>1964.00</ele>
	<time>2023-11-18T09:46:39.000Z</time>
</trkpt>
<trkpt lat="45.9063000" lon="9.8351750">
	<ele>1964.00</ele>
	<time>2023-11-18T09:46:40.000Z</time>
</trkpt>
<trkpt lat="45.9063010" lon="9.8351760">
	<ele>1964.20</ele>
	<time>2023-11-18T09:46:41.000Z</time>
</trkpt>
<trkpt lat="45.9063010" lon="9.8351770">
	<ele>1964.20</ele>
	<time>2023-11-18T09:46:42.000Z</time>
</trkpt>
<trkpt lat="45.9063010" lon="9.8351770">
	<ele>1964.20</ele>
	<time>2023-11-18T09:46:43.000Z</time>
</trkpt>
<trkpt lat="45.9063010" lon="9.8351780">
	<ele>1964.20</ele>
	<time>2023-11-18T09:46:44.000Z</time>
</trkpt>
<trkpt lat="45.9063010" lon="9.8351790">
	<ele>1964.20</ele>
	<time>2023-11-18T09:46:45.000Z</time>
</trkpt>
<trkpt lat="45.9063020" lon="9.8351800">
	<ele>1964.40</ele>
	<time>2023-11-18T09:46:46.000Z</time>
</trkpt>
<trkpt lat="45.9063020" lon="9.8351800">
	<ele>1964.60</ele>
	<time>2023-11-18T09:46:47.000Z</time>
</trkpt>
<trkpt lat="45.9063020" lon="9.8351810">
	<ele>1964.80</ele>
	<time>2023-11-18T09:46:48.000Z</time>
</trkpt>
<trkpt lat="45.9063020" lon="9.8351820">
	<ele>1965.20</ele>
	<time>2023-11-18T09:46:49.000Z</time>
</trkpt>
<trkpt lat="45.9063030" lon="9.8351820">
	<ele>1965.20</ele>
	<time>2023-11-18T09:46:50.000Z</time>
</trkpt>
<trkpt lat="45.9063030" lon="9.8351830">
	<ele>1965.40</ele>
	<time>2023-11-18T09:46:51.000Z</time>
</trkpt>
<trkpt lat="45.9063030" lon="9.8351840">
	<ele>1965.60</ele>
	<time>2023-11-18T09:46:52.000Z</time>
</trkpt>
<trkpt lat="45.9063030" lon="9.8351850">
	<ele>1965.60</ele>
	<time>2023-11-18T09:46:53.000Z</time>
</trkpt>
<trkpt lat="45.9063040" lon="9.8351850">
	<ele>1965.60</ele>
	<time>2023-11-18T09:46:54.000Z</time>
</trkpt>
<trkpt lat="45.9063040" lon="9.8351860">
	<ele>1965.80</ele>
	<time>2023-11-18T09:46:55.000Z</time>
</trkpt>
<trkpt lat="45.9063040" lon="9.8351870">
	<ele>1966.00</ele>
	<time>2023-11-18T09:46:56.000Z</time>
</trkpt>
<trkpt lat="45.9063040" lon="9.8351880">
	<ele>1966.00</ele>
	<time>2023-11-18T09:46:57.000Z</time>
</trkpt>
<trkpt lat="45.9063040" lon="9.8351880">
	<ele>1966.20</ele>
	<time>2023-11-18T09:46:58.000Z</time>
</trkpt>
<trkpt lat="45.9063040" lon="9.8351890">
	<ele>1966.40</ele>
	<time>2023-11-18T09:46:59.000Z</time>
</trkpt>
<trkpt lat="45.9063050" lon="9.8351900">
	<ele>1966.60</ele>
	<time>2023-11-18T09:47:00.000Z</time>
</trkpt>
<trkpt lat="45.9063050" lon="9.8351910">
	<ele>1966.60</ele>
	<time>2023-11-18T09:47:01.000Z</time>
</trkpt>
<trkpt lat="45.9063050" lon="9.8351910">
	<ele>1966.60</ele>
	<time>2023-11-18T09:47:02.000Z</time>
</trkpt>
<trkpt lat="45.9063050" lon="9.8351920">
	<ele>1966.80</ele>
	<time>2023-11-18T09:47:03.000Z</time>
</trkpt>
<trkpt lat="45.9063050" lon="9.8351930">
	<ele>1967.00</ele>
	<time>2023-11-18T09:47:04.000Z</time>
</trkpt>
<trkpt lat="45.9063060" lon="9.8351940">
	<ele>1967.20</ele>
	<time>2023-11-18T09:47:05.000Z</time>
</trkpt>
<trkpt lat="45.9063060" lon="9.8351950">
	<ele>1967.60</ele>
	<time>2023-11-18T09:47:06.000Z</time>
</trkpt>
<trkpt lat="45.9063060" lon="9.8351950">
	<ele>1967.80</ele>
	<time>2023-11-18T09:47:07.000Z</time>
</trkpt>
<trkpt lat="45.9063060" lon="9.8351960">
	<ele>1968.00</ele>
	<time>2023-11-18T09:47:08.000Z</time>
</trkpt>
<trkpt lat="45.9063060" lon="9.8351970">
	<ele>1968.20</ele>
	<time>2023-11-18T09:47:09.000Z</time>
</trkpt>
<trkpt lat="45.9063070" lon="9.8351980">
	<ele>1968.40</ele>
	<time>2023-11-18T09:47:10.000Z</time>
</trkpt>
<trkpt lat="45.9063070" lon="9.8351980">
	<ele>1968.40</ele>
	<time>2023-11-18T09:47:11.000Z</time>
</trkpt>
<trkpt lat="45.9063070" lon="9.8351990">
	<ele>1968.60</ele>
	<time>2023-11-18T09:47:12.000Z</time>
</trkpt>
<trkpt lat="45.9063070" lon="9.8352000">
	<ele>1968.60</ele>
	<time>2023-11-18T09:47:13.000Z</time>
</trkpt>
<trkpt lat="45.9063080" lon="9.8352010">
	<ele>1968.80</ele>
	<time>2023-11-18T09:47:14.000Z</time>
</trkpt>
<trkpt lat="45.9063080" lon="9.8352020">
	<ele>1968.80</ele>
	<time>2023-11-18T09:47:15.000Z</time>
</trkpt>
<trkpt lat="45.9063080" lon="9.8352020">
	<ele>1968.80</ele>
	<time>2023-11-18T09:47:16.000Z</time>
</trkpt>
<trkpt lat="45.9063080" lon="9.8352030">
	<ele>1969.00</ele>
	<time>2023-11-18T09:47:17.000Z</time>
</trkpt>
<trkpt lat="45.9063080" lon="9.8352040">
	<ele>1969.20</ele>
	<time>2023-11-18T09:47:18.000Z</time>
</trkpt>
<trkpt lat="45.9063090" lon="9.8352050">
	<ele>1969.40</ele>
	<time>2023-11-18T09:47:19.000Z</time>
</trkpt>
<trkpt lat="45.9063090" lon="9.8352050">
	<ele>1969.60</ele>
	<time>2023-11-18T09:47:20.000Z</time>
</trkpt>
<trkpt lat="45.9063090" lon="9.8352060">
	<ele>1969.60</ele>
	<time>2023-11-18T09:47:21.000Z</time>
</trkpt>
<trkpt lat="45.9063100" lon="9.8352070">
	<ele>1969.60</ele>
	<time>2023-11-18T09:47:22.000Z</time>
</trkpt>
<trkpt lat="45.9063100" lon="9.8352080">
	<ele>1969.60</ele>
	<time>2023-11-18T09:47:23.000Z</time>
</trkpt>
<trkpt lat="45.9063100" lon="9.8352090">
	<ele>1969.60</ele>
	<time>2023-11-18T09:47:24.000Z</time>
</trkpt>
<trkpt lat="45.9063100" lon="9.8352090">
	<ele>1969.80</ele>
	<time>2023-11-18T09:47:25.000Z</time>
</trkpt>
<trkpt lat="45.9063110" lon="9.8352100">
	<ele>1970.00</ele>
	<time>2023-11-18T09:47:26.000Z</time>
</trkpt>
<trkpt lat="45.9063110" lon="9.8352110">
	<ele>1970.20</ele>
	<time>2023-11-18T09:47:27.000Z</time>
</trkpt>
<trkpt lat="45.9063110" lon="9.8352110">
	<ele>1970.20</ele>
	<time>2023-11-18T09:47:28.000Z</time>
</trkpt>
<trkpt lat="45.9063120" lon="9.8352120">
	<ele>1970.40</ele>
	<time>2023-11-18T09:47:29.000Z</time>
</trkpt>
<trkpt lat="45.9063120" lon="9.8352130">
	<ele>1970.60</ele>
	<time>2023-11-18T09:47:30.000Z</time>
</trkpt>
<trkpt lat="45.9063120" lon="9.8352140">
	<ele>1970.60</ele>
	<time>2023-11-18T09:47:31.000Z</time>
</trkpt>
<trkpt lat="45.9063130" lon="9.8352150">
	<ele>1970.80</ele>
	<time>2023-11-18T09:47:32.000Z</time>
</trkpt>
<trkpt lat="45.9063130" lon="9.8352160">
	<ele>1970.80</ele>
	<time>2023-11-18T09:47:33.000Z</time>
</trkpt>
<trkpt lat="45.9063130" lon="9.8352160">
	<ele>1971.00</ele>
	<time>2023-11-18T09:47:34.000Z</time>
</trkpt>
<trkpt lat="45.9063130" lon="9.8352170">
	<ele>1971.20</ele>
	<time>2023-11-18T09:47:35.000Z</time>
</trkpt>
<trkpt lat="45.9063140" lon="9.8352180">
	<ele>1971.40</ele>
	<time>2023-11-18T09:47:36.000Z</time>
</trkpt>
<trkpt lat="45.9063140" lon="9.8352190">
	<ele>1971.60</ele>
	<time>2023-11-18T09:47:37.000Z</time>
</trkpt>
<trkpt lat="45.9063140" lon="9.8352200">
	<ele>1971.60</ele>
	<time>2023-11-18T09:47:38.000Z</time>
</trkpt>
<trkpt lat="45.9063150" lon="9.8352210">
	<ele>1972.00</ele>
	<time>2023-11-18T09:47:39.000Z</time>
</trkpt>
<trkpt lat="45.9063150" lon="9.8352210">
	<ele>1972.20</ele>
	<time>2023-11-18T09:47:40.000Z</time>
</trkpt>
<trkpt lat="45.9063150" lon="9.8352220">
	<ele>1972.20</ele>
	<time>2023-11-18T09:47:41.000Z</time>
</trkpt>
<trkpt lat="45.9063160" lon="9.8352230">
	<ele>1972.40</ele>
	<time>2023-11-18T09:47:42.000Z</time>
</trkpt>
<trkpt lat="45.9063160" lon="9.8352240">
	<ele>1972.60</ele>
	<time>2023-11-18T09:47:43.000Z</time>
</trkpt>
<trkpt lat="45.9063160" lon="9.8352250">
	<ele>1972.60</ele>
	<time>2023-11-18T09:47:44.000Z</time>
</trkpt>
<trkpt lat="45.9063160" lon="9.8352260">
	<ele>1972.80</ele>
	<time>2023-11-18T09:47:45.000Z</time>
</trkpt>
<trkpt lat="45.9063170" lon="9.8352270">
	<ele>1972.80</ele>
	<time>2023-11-18T09:47:46.000Z</time>
</trkpt>
<trkpt lat="45.9063170" lon="9.8352280">
	<ele>1973.00</ele>
	<time>2023-11-18T09:47:47.000Z</time>
</trkpt>
<trkpt lat="45.9063180" lon="9.8352280">
	<ele>1973.00</ele>
	<time>2023-11-18T09:47:48.000Z</time>
</trkpt>
<trkpt lat="45.9063180" lon="9.8352290">
	<ele>1973.20</ele>
	<time>2023-11-18T09:47:49.000Z</time>
</trkpt>
<trkpt lat="45.9063180" lon="9.8352300">
	<ele>1973.40</ele>
	<time>2023-11-18T09:47:50.000Z</time>
</trkpt>
<trkpt lat="45.9063190" lon="9.8352310">
	<ele>1973.60</ele>
	<time>2023-11-18T09:47:51.000Z</time>
</trkpt>
<trkpt lat="45.9063190" lon="9.8352320">
	<ele>1973.80</ele>
	<time>2023-11-18T09:47:52.000Z</time>
</trkpt>
<trkpt lat="45.9063190" lon="9.8352330">
	<ele>1974.00</ele>
	<time>2023-11-18T09:47:53.000Z</time>
</trkpt>
<trkpt lat="45.9063200" lon="9.8352330">
	<ele>1974.20</ele>
	<time>2023-11-18T09:47:54.000Z</time>
</trkpt>
<trkpt lat="45.9063200" lon="9.8352340">
	<ele>1974.20</ele>
	<time>2023-11-18T09:47:55.000Z</time>
</trkpt>
<trkpt lat="45.9063200" lon="9.8352350">
	<ele>1974.20</ele>
	<time>2023-11-18T09:47:56.000Z</time>
</trkpt>
<trkpt lat="45.9063210" lon="9.8352360">
	<ele>1974.20</ele>
	<time>2023-11-18T09:47:57.000Z</time>
</trkpt>
<trkpt lat="45.9063210" lon="9.8352370">
	<ele>1974.20</ele>
	<time>2023-11-18T09:47:58.000Z</time>
</trkpt>
<trkpt lat="45.9063210" lon="9.8352380">
	<ele>1974.20</ele>
	<time>2023-11-18T09:47:59.000Z</time>
</trkpt>
<trkpt lat="45.9063210" lon="9.8352390">
	<ele>1974.20</ele>
	<time>2023-11-18T09:48:00.000Z</time>
</trkpt>
<trkpt lat="45.9063220" lon="9.8352390">
	<ele>1974.20</ele>
	<time>2023-11-18T09:48:01.000Z</time>
</trkpt>
<trkpt lat="45.9063220" lon="9.8352400">
	<ele>1974.20</ele>
	<time>2023-11-18T09:48:02.000Z</time>
</trkpt>
<trkpt lat="45.9063220" lon="9.8352410">
	<ele>1974.40</ele>
	<time>2023-11-18T09:48:03.000Z</time>
</trkpt>
<trkpt lat="45.9063230" lon="9.8352420">
	<ele>1974.40</ele>
	<time>2023-11-18T09:48:04.000Z</time>
</trkpt>
<trkpt lat="45.9063230" lon="9.8352430">
	<ele>1974.40</ele>
	<time>2023-11-18T09:48:05.000Z</time>
</trkpt>
<trkpt lat="45.9063230" lon="9.8352440">
	<ele>1974.40</ele>
	<time>2023-11-18T09:48:06.000Z</time>
</trkpt>
<trkpt lat="45.9063230" lon="9.8352450">
	<ele>1974.20</ele>
	<time>2023-11-18T09:48:07.000Z</time>
</trkpt>
<trkpt lat="45.9063240" lon="9.8352450">
	<ele>1974.00</ele>
	<time>2023-11-18T09:48:08.000Z</time>
</trkpt>
<trkpt lat="45.9063240" lon="9.8352460">
	<ele>1973.80</ele>
	<time>2023-11-18T09:48:09.000Z</time>
</trkpt>
<trkpt lat="45.9063240" lon="9.8352470">
	<ele>1973.80</ele>
	<time>2023-11-18T09:48:10.000Z</time>
</trkpt>
<trkpt lat="45.9063250" lon="9.8352480">
	<ele>1973.80</ele>
	<time>2023-11-18T09:48:11.000Z</time>
</trkpt>
<trkpt lat="45.9063250" lon="9.8352490">
	<ele>1973.80</ele>
	<time>2023-11-18T09:48:12.000Z</time>
</trkpt>
<trkpt lat="45.9063250" lon="9.8352500">
	<ele>1973.80</ele>
	<time>2023-11-18T09:48:13.000Z</time>
</trkpt>
<trkpt lat="45.9063250" lon="9.8352510">
	<ele>1974.00</ele>
	<time>2023-11-18T09:48:14.000Z</time>
</trkpt>
<trkpt lat="45.9063260" lon="9.8352520">
	<ele>1974.20</ele>
	<time>2023-11-18T09:48:15.000Z</time>
</trkpt>
<trkpt lat="45.9063260" lon="9.8352520">
	<ele>1974.20</ele>
	<time>2023-11-18T09:48:16.000Z</time>
</trkpt>
<trkpt lat="45.9063260" lon="9.8352530">
	<ele>1974.20</ele>
	<time>2023-11-18T09:48:17.000Z</time>
</trkpt>
<trkpt lat="45.9063270" lon="9.8352540">
	<ele>1974.20</ele>
	<time>2023-11-18T09:48:18.000Z</time>
</trkpt>
<trkpt lat="45.9063270" lon="9.8352550">
	<ele>1974.20</ele>
	<time>2023-11-18T09:48:19.000Z</time>
</trkpt>
<trkpt lat="45.9063270" lon="9.8352560">
	<ele>1974.20</ele>
	<time>2023-11-18T09:48:20.000Z</time>
</trkpt>
<trkpt lat="45.9063270" lon="9.8352560">
	<ele>1974.20</ele>
	<time>2023-11-18T09:48:21.000Z</time>
</trkpt>
<trkpt lat="45.9063280" lon="9.8352570">
	<ele>1974.20</ele>
	<time>2023-11-18T09:48:22.000Z</time>
</trkpt>
<trkpt lat="45.9063280" lon="9.8352580">
	<ele>1974.20</ele>
	<time>2023-11-18T09:48:23.000Z</time>
</trkpt>
<trkpt lat="45.9063280" lon="9.8352590">
	<ele>1974.20</ele>
	<time>2023-11-18T09:48:24.000Z</time>
</trkpt>
<trkpt lat="45.9063280" lon="9.8352600">
	<ele>1974.20</ele>
	<time>2023-11-18T09:48:25.000Z</time>
</trkpt>
<trkpt lat="45.9063290" lon="9.8352600">
	<ele>1974.20</ele>
	<time>2023-11-18T09:48:26.000Z</time>
</trkpt>
<trkpt lat="45.9063290" lon="9.8352610">
	<ele>1974.40</ele>
	<time>2023-11-18T09:48:27.000Z</time>
</trkpt>
<trkpt lat="45.9063290" lon="9.8352620">
	<ele>1974.40</ele>
	<time>2023-11-18T09:48:28.000Z</time>
</trkpt>
<trkpt lat="45.9063300" lon="9.8352630">
	<ele>1974.40</ele>
	<time>2023-11-18T09:48:29.000Z</time>
</trkpt>
<trkpt lat="45.9063300" lon="9.8352630">
	<ele>1974.40</ele>
	<time>2023-11-18T09:48:30.000Z</time>
</trkpt>
<trkpt lat="45.9063300" lon="9.8352640">
	<ele>1974.40</ele>
	<time>2023-11-18T09:48:31.000Z</time>
</trkpt>
<trkpt lat="45.9063310" lon="9.8352650">
	<ele>1974.40</ele>
	<time>2023-11-18T09:48:32.000Z</time>
</trkpt>
<trkpt lat="45.9063310" lon="9.8352660">
	<ele>1974.40</ele>
	<time>2023-11-18T09:48:33.000Z</time>
</trkpt>
<trkpt lat="45.9063310" lon="9.8352670">
	<ele>1974.40</ele>
	<time>2023-11-18T09:48:34.000Z</time>
</trkpt>
<trkpt lat="45.9063320" lon="9.8352670">
	<ele>1974.40</ele>
	<time>2023-11-18T09:48:35.000Z</time>
</trkpt>
<trkpt lat="45.9063320" lon="9.8352680">
	<ele>1974.60</ele>
	<time>2023-11-18T09:48:36.000Z</time>
</trkpt>
<trkpt lat="45.9063320" lon="9.8352690">
	<ele>1974.60</ele>
	<time>2023-11-18T09:48:37.000Z</time>
</trkpt>
<trkpt lat="45.9063320" lon="9.8352700">
	<ele>1974.60</ele>
	<time>2023-11-18T09:48:38.000Z</time>
</trkpt>
<trkpt lat="45.9063320" lon="9.8352710">
	<ele>1974.80</ele>
	<time>2023-11-18T09:48:39.000Z</time>
</trkpt>
<trkpt lat="45.9063330" lon="9.8352710">
	<ele>1974.80</ele>
	<time>2023-11-18T09:48:40.000Z</time>
</trkpt>
<trkpt lat="45.9063330" lon="9.8352720">
	<ele>1974.80</ele>
	<time>2023-11-18T09:48:41.000Z</time>
</trkpt>
<trkpt lat="45.9063330" lon="9.8352730">
	<ele>1974.80</ele>
	<time>2023-11-18T09:48:42.000Z</time>
</trkpt>
<trkpt lat="45.9063330" lon="9.8352740">
	<ele>1974.80</ele>
	<time>2023-11-18T09:48:43.000Z</time>
</trkpt>
<trkpt lat="45.9063330" lon="9.8352750">
	<ele>1974.80</ele>
	<time>2023-11-18T09:48:44.000Z</time>
</trkpt>
<trkpt lat="45.9063330" lon="9.8352750">
	<ele>1974.80</ele>
	<time>2023-11-18T09:48:45.000Z</time>
</trkpt>
<trkpt lat="45.9063340" lon="9.8352760">
	<ele>1974.80</ele>
	<time>2023-11-18T09:48:46.000Z</time>
</trkpt>
<trkpt lat="45.9063340" lon="9.8352770">
	<ele>1974.80</ele>
	<time>2023-11-18T09:48:47.000Z</time>
</trkpt>
<trkpt lat="45.9063340" lon="9.8352780">
	<ele>1974.80</ele>
	<time>2023-11-18T09:48:48.000Z</time>
</trkpt>
<trkpt lat="45.9063340" lon="9.8352790">
	<ele>1974.80</ele>
	<time>2023-11-18T09:48:49.000Z</time>
</trkpt>
<trkpt lat="45.9063350" lon="9.8352790">
	<ele>1974.80</ele>
	<time>2023-11-18T09:48:50.000Z</time>
</trkpt>
<trkpt lat="45.9063350" lon="9.8352800">
	<ele>1974.80</ele>
	<time>2023-11-18T09:48:51.000Z</time>
</trkpt>
<trkpt lat="45.9063350" lon="9.8352810">
	<ele>1974.80</ele>
	<time>2023-11-18T09:48:52.000Z</time>
</trkpt>
<trkpt lat="45.9063360" lon="9.8352820">
	<ele>1974.80</ele>
	<time>2023-11-18T09:48:53.000Z</time>
</trkpt>
<trkpt lat="45.9063360" lon="9.8352820">
	<ele>1974.80</ele>
	<time>2023-11-18T09:48:54.000Z</time>
</trkpt>
<trkpt lat="45.9063360" lon="9.8352830">
	<ele>1974.80</ele>
	<time>2023-11-18T09:48:55.000Z</time>
</trkpt>
<trkpt lat="45.9063360" lon="9.8352840">
	<ele>1974.80</ele>
	<time>2023-11-18T09:48:56.000Z</time>
</trkpt>
<trkpt lat="45.9063360" lon="9.8352850">
	<ele>1974.80</ele>
	<time>2023-11-18T09:48:57.000Z</time>
</trkpt>
<trkpt lat="45.9063370" lon="9.8352860">
	<ele>1974.80</ele>
	<time>2023-11-18T09:48:58.000Z</time>
</trkpt>
<trkpt lat="45.9063370" lon="9.8352870">
	<ele>1974.80</ele>
	<time>2023-11-18T09:48:59.000Z</time>
</trkpt>
<trkpt lat="45.9063370" lon="9.8352870">
	<ele>1974.60</ele>
	<time>2023-11-18T09:49:00.000Z</time>
</trkpt>
<trkpt lat="45.9063370" lon="9.8352880">
	<ele>1974.60</ele>
	<time>2023-11-18T09:49:01.000Z</time>
</trkpt>
<trkpt lat="45.9063380" lon="9.8352890">
	<ele>1974.60</ele>
	<time>2023-11-18T09:49:02.000Z</time>
</trkpt>
<trkpt lat="45.9063380" lon="9.8352900">
	<ele>1974.60</ele>
	<time>2023-11-18T09:49:03.000Z</time>
</trkpt>
<trkpt lat="45.9063380" lon="9.8352900">
	<ele>1974.40</ele>
	<time>2023-11-18T09:49:04.000Z</time>
</trkpt>
<trkpt lat="45.9063380" lon="9.8352910">
	<ele>1974.40</ele>
	<time>2023-11-18T09:49:05.000Z</time>
</trkpt>
<trkpt lat="45.9063380" lon="9.8352920">
	<ele>1974.40</ele>
	<time>2023-11-18T09:49:06.000Z</time>
</trkpt>
<trkpt lat="45.9063390" lon="9.8352930">
	<ele>1974.20</ele>
	<time>2023-11-18T09:49:07.000Z</time>
</trkpt>
<trkpt lat="45.9063390" lon="9.8352940">
	<ele>1974.20</ele>
	<time>2023-11-18T09:49:08.000Z</time>
</trkpt>
<trkpt lat="45.9063390" lon="9.8352950">
	<ele>1974.00</ele>
	<time>2023-11-18T09:49:09.000Z</time>
</trkpt>
<trkpt lat="45.9063390" lon="9.8352960">
	<ele>1973.80</ele>
	<time>2023-11-18T09:49:10.000Z</time>
</trkpt>
<trkpt lat="45.9063390" lon="9.8352960">
	<ele>1973.60</ele>
	<time>2023-11-18T09:49:11.000Z</time>
</trkpt>
<trkpt lat="45.9063400" lon="9.8352970">
	<ele>1973.60</ele>
	<time>2023-11-18T09:49:12.000Z</time>
</trkpt>
<trkpt lat="45.9063400" lon="9.8352980">
	<ele>1973.40</ele>
	<time>2023-11-18T09:49:13.000Z</time>
</trkpt>
<trkpt lat="45.9063400" lon="9.8352990">
	<ele>1973.40</ele>
	<time>2023-11-18T09:49:14.000Z</time>
</trkpt>
<trkpt lat="45.9063400" lon="9.8353000">
	<ele>1973.20</ele>
	<time>2023-11-18T09:49:15.000Z</time>
</trkpt>
<trkpt lat="45.9063400" lon="9.8353000">
	<ele>1973.20</ele>
	<time>2023-11-18T09:49:16.000Z</time>
</trkpt>
<trkpt lat="45.9063410" lon="9.8353010">
	<ele>1973.20</ele>
	<time>2023-11-18T09:49:17.000Z</time>
</trkpt>
<trkpt lat="45.9063410" lon="9.8353020">
	<ele>1973.00</ele>
	<time>2023-11-18T09:49:18.000Z</time>
</trkpt>
<trkpt lat="45.9063410" lon="9.8353030">
	<ele>1973.00</ele>
	<time>2023-11-18T09:49:19.000Z</time>
</trkpt>
<trkpt lat="45.9063410" lon="9.8353040">
	<ele>1973.00</ele>
	<time>2023-11-18T09:49:20.000Z</time>
</trkpt>
<trkpt lat="45.9063410" lon="9.8353040">
	<ele>1973.00</ele>
	<time>2023-11-18T09:49:21.000Z</time>
</trkpt>
<trkpt lat="45.9063410" lon="9.8353050">
	<ele>1973.00</ele>
	<time>2023-11-18T09:49:22.000Z</time>
</trkpt>
<trkpt lat="45.9063420" lon="9.8353060">
	<ele>1973.00</ele>
	<time>2023-11-18T09:49:23.000Z</time>
</trkpt>
<trkpt lat="45.9063420" lon="9.8353070">
	<ele>1973.00</ele>
	<time>2023-11-18T09:49:24.000Z</time>
</trkpt>
<trkpt lat="45.9063420" lon="9.8353080">
	<ele>1973.00</ele>
	<time>2023-11-18T09:49:25.000Z</time>
</trkpt>
<trkpt lat="45.9063420" lon="9.8353080">
	<ele>1973.00</ele>
	<time>2023-11-18T09:49:26.000Z</time>
</trkpt>
<trkpt lat="45.9063540" lon="9.8353830">
	<ele>1973.00</ele>
	<time>2023-11-18T09:49:27.000Z</time>
</trkpt>
<trkpt lat="45.9063590" lon="9.8354650">
	<ele>1973.00</ele>
	<time>2023-11-18T09:49:28.000Z</time>
</trkpt>
<trkpt lat="45.9063660" lon="9.8355440">
	<ele>1973.00</ele>
	<time>2023-11-18T09:49:29.000Z</time>
</trkpt>
<trkpt lat="45.9063740" lon="9.8356220">
	<ele>1973.00</ele>
	<time>2023-11-18T09:49:30.000Z</time>
</trkpt>
<trkpt lat="45.9063830" lon="9.8357000">
	<ele>1973.00</ele>
	<time>2023-11-18T09:49:31.000Z</time>
</trkpt>
<trkpt lat="45.9063930" lon="9.8357740">
	<ele>1972.80</ele>
	<time>2023-11-18T09:49:32.000Z</time>
</trkpt>
<trkpt lat="45.9063980" lon="9.8358530">
	<ele>1972.80</ele>
	<time>2023-11-18T09:49:33.000Z</time>
</trkpt>
<trkpt lat="45.9064060" lon="9.8359270">
	<ele>1972.80</ele>
	<time>2023-11-18T09:49:34.000Z</time>
</trkpt>
<trkpt lat="45.9064110" lon="9.8360050">
	<ele>1972.60</ele>
	<time>2023-11-18T09:49:35.000Z</time>
</trkpt>
<trkpt lat="45.9064180" lon="9.8360820">
	<ele>1972.40</ele>
	<time>2023-11-18T09:49:36.000Z</time>
</trkpt>
<trkpt lat="45.9064130" lon="9.8360820">
	<ele>1972.00</ele>
	<time>2023-11-18T09:49:37.000Z</time>
</trkpt>
<trkpt lat="45.9064060" lon="9.8360840">
	<ele>1972.00</ele>
	<time>2023-11-18T09:49:38.000Z</time>
</trkpt>
<trkpt lat="45.9064020" lon="9.8360900">
	<ele>1971.60</ele>
	<time>2023-11-18T09:49:39.000Z</time>
</trkpt>
<trkpt lat="45.9063950" lon="9.8360950">
	<ele>1971.40</ele>
	<time>2023-11-18T09:49:40.000Z</time>
</trkpt>
<trkpt lat="45.9063870" lon="9.8360920">
	<ele>1971.20</ele>
	<time>2023-11-18T09:49:41.000Z</time>
</trkpt>
<trkpt lat="45.9063810" lon="9.8360960">
	<ele>1971.00</ele>
	<time>2023-11-18T09:49:42.000Z</time>
</trkpt>
<trkpt lat="45.9063770" lon="9.8361010">
	<ele>1970.80</ele>
	<time>2023-11-18T09:49:43.000Z</time>
</trkpt>
<trkpt lat="45.9063680" lon="9.8361030">
	<ele>1970.60</ele>
	<time>2023-11-18T09:49:44.000Z</time>
</trkpt>
<trkpt lat="45.9063620" lon="9.8361080">
	<ele>1970.60</ele>
	<time>2023-11-18T09:49:45.000Z</time>
</trkpt>
<trkpt lat="45.9063550" lon="9.8361130">
	<ele>1970.40</ele>
	<time>2023-11-18T09:49:46.000Z</time>
</trkpt>
<trkpt lat="45.9063460" lon="9.8361160">
	<ele>1970.40</ele>
	<time>2023-11-18T09:49:47.000Z</time>
</trkpt>
<trkpt lat="45.9063410" lon="9.8361190">
	<ele>1970.40</ele>
	<time>2023-11-18T09:49:48.000Z</time>
</trkpt>
<trkpt lat="45.9063320" lon="9.8361230">
	<ele>1970.40</ele>
	<time>2023-11-18T09:49:49.000Z</time>
</trkpt>
<trkpt lat="45.9063230" lon="9.8361280">
	<ele>1970.60</ele>
	<time>2023-11-18T09:49:50.000Z</time>
</trkpt>
<trkpt lat="45.9063160" lon="9.8361340">
	<ele>1970.60</ele>
	<time>2023-11-18T09:49:51.000Z</time>
</trkpt>
<trkpt lat="45.9063120" lon="9.8361390">
	<ele>1970.60</ele>
	<time>2023-11-18T09:49:52.000Z</time>
</trkpt>
<trkpt lat="45.9063100" lon="9.8361440">
	<ele>1970.80</ele>
	<time>2023-11-18T09:49:53.000Z</time>
</trkpt>
<trkpt lat="45.9063110" lon="9.8361500">
	<ele>1971.00</ele>
	<time>2023-11-18T09:49:54.000Z</time>
</trkpt>
<trkpt lat="45.9063050" lon="9.8361500">
	<ele>1971.20</ele>
	<time>2023-11-18T09:49:55.000Z</time>
</trkpt>
<trkpt lat="45.9063020" lon="9.8361520">
	<ele>1971.60</ele>
	<time>2023-11-18T09:49:56.000Z</time>
</trkpt>
<trkpt lat="45.9062990" lon="9.8361550">
	<ele>1971.80</ele>
	<time>2023-11-18T09:49:57.000Z</time>
</trkpt>
<trkpt lat="45.9062940" lon="9.8361580">
	<ele>1971.80</ele>
	<time>2023-11-18T09:49:58.000Z</time>
</trkpt>
<trkpt lat="45.9062900" lon="9.8361630">
	<ele>1972.00</ele>
	<time>2023-11-18T09:49:59.000Z</time>
</trkpt>
<trkpt lat="45.9062840" lon="9.8361700">
	<ele>1972.00</ele>
	<time>2023-11-18T09:50:00.000Z</time>
</trkpt>
<trkpt lat="45.9062800" lon="9.8361730">
	<ele>1972.20</ele>
	<time>2023-11-18T09:50:01.000Z</time>
</trkpt>
<trkpt lat="45.9062770" lon="9.8361760">
	<ele>1972.20</ele>
	<time>2023-11-18T09:50:02.000Z</time>
</trkpt>
<trkpt lat="45.9062720" lon="9.8361770">
	<ele>1972.40</ele>
	<time>2023-11-18T09:50:03.000Z</time>
</trkpt>
<trkpt lat="45.9062670" lon="9.8361810">
	<ele>1972.60</ele>
	<time>2023-11-18T09:50:04.000Z</time>
</trkpt>
<trkpt lat="45.9062630" lon="9.8361840">
	<ele>1972.80</ele>
	<time>2023-11-18T09:50:05.000Z</time>
</trkpt>
<trkpt lat="45.9062600" lon="9.8361870">
	<ele>1973.00</ele>
	<time>2023-11-18T09:50:06.000Z</time>
</trkpt>
<trkpt lat="45.9062540" lon="9.8361890">
	<ele>1973.00</ele>
	<time>2023-11-18T09:50:07.000Z</time>
</trkpt>
<trkpt lat="45.9062470" lon="9.8361910">
	<ele>1973.20</ele>
	<time>2023-11-18T09:50:08.000Z</time>
</trkpt>
<trkpt lat="45.9062410" lon="9.8361930">
	<ele>1973.40</ele>
	<time>2023-11-18T09:50:09.000Z</time>
</trkpt>
<trkpt lat="45.9062350" lon="9.8361980">
	<ele>1973.80</ele>
	<time>2023-11-18T09:50:10.000Z</time>
</trkpt>
<trkpt lat="45.9062260" lon="9.8362000">
	<ele>1973.80</ele>
	<time>2023-11-18T09:50:11.000Z</time>
</trkpt>
<trkpt lat="45.9062200" lon="9.8362060">
	<ele>1974.00</ele>
	<time>2023-11-18T09:50:12.000Z</time>
</trkpt>
<trkpt lat="45.9062160" lon="9.8362090">
	<ele>1974.00</ele>
	<time>2023-11-18T09:50:13.000Z</time>
</trkpt>
<trkpt lat="45.9062090" lon="9.8362100">
	<ele>1974.40</ele>
	<time>2023-11-18T09:50:14.000Z</time>
</trkpt>
<trkpt lat="45.9062040" lon="9.8362100">
	<ele>1974.40</ele>
	<time>2023-11-18T09:50:15.000Z</time>
</trkpt>
<trkpt lat="45.9061990" lon="9.8362120">
	<ele>1974.60</ele>
	<time>2023-11-18T09:50:16.000Z</time>
</trkpt>
<trkpt lat="45.9061930" lon="9.8362150">
	<ele>1974.60</ele>
	<time>2023-11-18T09:50:17.000Z</time>
</trkpt>
<trkpt lat="45.9061870" lon="9.8362170">
	<ele>1974.80</ele>
	<time>2023-11-18T09:50:18.000Z</time>
</trkpt>
<trkpt lat="45.9061810" lon="9.8362200">
	<ele>1974.80</ele>
	<time>2023-11-18T09:50:19.000Z</time>
</trkpt>
<trkpt lat="45.9061740" lon="9.8362270">
	<ele>1975.00</ele>
	<time>2023-11-18T09:50:20.000Z</time>
</trkpt>
<trkpt lat="45.9061700" lon="9.8362360">
	<ele>1975.00</ele>
	<time>2023-11-18T09:50:21.000Z</time>
</trkpt>
<trkpt lat="45.9061650" lon="9.8362420">
	<ele>1975.20</ele>
	<time>2023-11-18T09:50:22.000Z</time>
</trkpt>
<trkpt lat="45.9061610" lon="9.8362500">
	<ele>1975.40</ele>
	<time>2023-11-18T09:50:23.000Z</time>
</trkpt>
<trkpt lat="45.9061580" lon="9.8362550">
	<ele>1975.60</ele>
	<time>2023-11-18T09:50:24.000Z</time>
</trkpt>
<trkpt lat="45.9061550" lon="9.8362600">
	<ele>1975.60</ele>
	<time>2023-11-18T09:50:25.000Z</time>
</trkpt>
<trkpt lat="45.9061500" lon="9.8362650">
	<ele>1975.80</ele>
	<time>2023-11-18T09:50:26.000Z</time>
</trkpt>
<trkpt lat="45.9061450" lon="9.8362710">
	<ele>1975.80</ele>
	<time>2023-11-18T09:50:27.000Z</time>
</trkpt>
<trkpt lat="45.9061370" lon="9.8362780">
	<ele>1976.00</ele>
	<time>2023-11-18T09:50:28.000Z</time>
</trkpt>
<trkpt lat="45.9061310" lon="9.8362830">
	<ele>1976.20</ele>
	<time>2023-11-18T09:50:29.000Z</time>
</trkpt>
<trkpt lat="45.9061260" lon="9.8362870">
	<ele>1976.40</ele>
	<time>2023-11-18T09:50:30.000Z</time>
</trkpt>
<trkpt lat="45.9061190" lon="9.8362930">
	<ele>1976.40</ele>
	<time>2023-11-18T09:50:31.000Z</time>
</trkpt>
<trkpt lat="45.9061120" lon="9.8363040">
	<ele>1976.60</ele>
	<time>2023-11-18T09:50:32.000Z</time>
</trkpt>
<trkpt lat="45.9061060" lon="9.8363110">
	<ele>1976.60</ele>
	<time>2023-11-18T09:50:33.000Z</time>
</trkpt>
<trkpt lat="45.9061030" lon="9.8363140">
	<ele>1976.80</ele>
	<time>2023-11-18T09:50:34.000Z</time>
</trkpt>
<trkpt lat="45.9060970" lon="9.8363190">
	<ele>1976.80</ele>
	<time>2023-11-18T09:50:35.000Z</time>
</trkpt>
<trkpt lat="45.9060910" lon="9.8363210">
	<ele>1977.00</ele>
	<time>2023-11-18T09:50:36.000Z</time>
</trkpt>
<trkpt lat="45.9060850" lon="9.8363280">
	<ele>1977.00</ele>
	<time>2023-11-18T09:50:37.000Z</time>
</trkpt>
<trkpt lat="45.9060800" lon="9.8363330">
	<ele>1977.20</ele>
	<time>2023-11-18T09:50:38.000Z</time>
</trkpt>
<trkpt lat="45.9060770" lon="9.8363380">
	<ele>1977.20</ele>
	<time>2023-11-18T09:50:39.000Z</time>
</trkpt>
<trkpt lat="45.9060710" lon="9.8363460">
	<ele>1977.40</ele>
	<time>2023-11-18T09:50:40.000Z</time>
</trkpt>
<trkpt lat="45.9060670" lon="9.8363490">
	<ele>1977.40</ele>
	<time>2023-11-18T09:50:41.000Z</time>
</trkpt>
<trkpt lat="45.9060600" lon="9.8363570">
	<ele>1977.60</ele>
	<time>2023-11-18T09:50:42.000Z</time>
</trkpt>
<trkpt lat="45.9060550" lon="9.8363640">
	<ele>1977.60</ele>
	<time>2023-11-18T09:50:43.000Z</time>
</trkpt>
<trkpt lat="45.9060510" lon="9.8363730">
	<ele>1977.80</ele>
	<time>2023-11-18T09:50:44.000Z</time>
</trkpt>
<trkpt lat="45.9060460" lon="9.8363810">
	<ele>1977.80</ele>
	<time>2023-11-18T09:50:45.000Z</time>
</trkpt>
<trkpt lat="45.9060410" lon="9.8363860">
	<ele>1978.00</ele>
	<time>2023-11-18T09:50:46.000Z</time>
</trkpt>
<trkpt lat="45.9060360" lon="9.8363900">
	<ele>1978.00</ele>
	<time>2023-11-18T09:50:47.000Z</time>
</trkpt>
<trkpt lat="45.9060300" lon="9.8363960">
	<ele>1978.20</ele>
	<time>2023-11-18T09:50:48.000Z</time>
</trkpt>
<trkpt lat="45.9060250" lon="9.8364050">
	<ele>1978.20</ele>
	<time>2023-11-18T09:50:49.000Z</time>
</trkpt>
<trkpt lat="45.9060210" lon="9.8364150">
	<ele>1978.20</ele>
	<time>2023-11-18T09:50:50.000Z</time>
</trkpt>
<trkpt lat="45.9060180" lon="9.8364200">
	<ele>1978.20</ele>
	<time>2023-11-18T09:50:51.000Z</time>
</trkpt>
<trkpt lat="45.9060160" lon="9.8364230">
	<ele>1978.40</ele>
	<time>2023-11-18T09:50:52.000Z</time>
</trkpt>
<trkpt lat="45.9060120" lon="9.8364290">
	<ele>1978.40</ele>
	<time>2023-11-18T09:50:53.000Z</time>
</trkpt>
<trkpt lat="45.9060090" lon="9.8364370">
	<ele>1978.60</ele>
	<time>2023-11-18T09:50:54.000Z</time>
</trkpt>
<trkpt lat="45.9060040" lon="9.8364480">
	<ele>1978.60</ele>
	<time>2023-11-18T09:50:55.000Z</time>
</trkpt>
<trkpt lat="45.9059980" lon="9.8364580">
	<ele>1978.80</ele>
	<time>2023-11-18T09:50:56.000Z</time>
</trkpt>
<trkpt lat="45.9059940" lon="9.8364690">
	<ele>1978.80</ele>
	<time>2023-11-18T09:50:57.000Z</time>
</trkpt>
<trkpt lat="45.9059910" lon="9.8364740">
	<ele>1978.80</ele>
	<time>2023-11-18T09:50:58.000Z</time>
</trkpt>
<trkpt lat="45.9059870" lon="9.8364750">
	<ele>1978.80</ele>
	<time>2023-11-18T09:50:59.000Z</time>
</trkpt>
<trkpt lat="45.9059800" lon="9.8364800">
	<ele>1978.80</ele>
	<time>2023-11-18T09:51:00.000Z</time>
</trkpt>
<trkpt lat="45.9059720" lon="9.8364850">
	<ele>1979.00</ele>
	<time>2023-11-18T09:51:01.000Z</time>
</trkpt>
<trkpt lat="45.9059650" lon="9.8364870">
	<ele>1979.20</ele>
	<time>2023-11-18T09:51:02.000Z</time>
</trkpt>
<trkpt lat="45.9059620" lon="9.8364930">
	<ele>1979.20</ele>
	<time>2023-11-18T09:51:03.000Z</time>
</trkpt>
<trkpt lat="45.9059530" lon="9.8364990">
	<ele>1979.20</ele>
	<time>2023-11-18T09:51:04.000Z</time>
</trkpt>
<trkpt lat="45.9059460" lon="9.8365080">
	<ele>1979.20</ele>
	<time>2023-11-18T09:51:05.000Z</time>
</trkpt>
<trkpt lat="45.9059410" lon="9.8365180">
	<ele>1979.20</ele>
	<time>2023-11-18T09:51:06.000Z</time>
</trkpt>
<trkpt lat="45.9059380" lon="9.8365310">
	<ele>1979.20</ele>
	<time>2023-11-18T09:51:07.000Z</time>
</trkpt>
<trkpt lat="45.9059370" lon="9.8365450">
	<ele>1979.00</ele>
	<time>2023-11-18T09:51:08.000Z</time>
</trkpt>
<trkpt lat="45.9059350" lon="9.8365540">
	<ele>1979.00</ele>
	<time>2023-11-18T09:51:09.000Z</time>
</trkpt>
<trkpt lat="45.9059330" lon="9.8365610">
	<ele>1979.00</ele>
	<time>2023-11-18T09:51:10.000Z</time>
</trkpt>
<trkpt lat="45.9059310" lon="9.8365650">
	<ele>1979.00</ele>
	<time>2023-11-18T09:51:11.000Z</time>
</trkpt>
<trkpt lat="45.9059300" lon="9.8365680">
	<ele>1979.00</ele>
	<time>2023-11-18T09:51:12.000Z</time>
</trkpt>
<trkpt lat="45.9059300" lon="9.8365680">
	<ele>1979.00</ele>
	<time>2023-11-18T09:51:13.000Z</time>
</trkpt>
<trkpt lat="45.9059300" lon="9.8365670">
	<ele>1979.00</ele>
	<time>2023-11-18T09:51:14.000Z</time>
</trkpt>
<trkpt lat="45.9059300" lon="9.8365670">
	<ele>1979.00</ele>
	<time>2023-11-18T09:51:15.000Z</time>
</trkpt>
<trkpt lat="45.9059290" lon="9.8365680">
	<ele>1978.80</ele>
	<time>2023-11-18T09:51:16.000Z</time>
</trkpt>
<trkpt lat="45.9059290" lon="9.8365680">
	<ele>1978.80</ele>
	<time>2023-11-18T09:51:17.000Z</time>
</trkpt>
<trkpt lat="45.9059290" lon="9.8365690">
	<ele>1978.80</ele>
	<time>2023-11-18T09:51:18.000Z</time>
</trkpt>
<trkpt lat="45.9059280" lon="9.8365680">
	<ele>1978.80</ele>
	<time>2023-11-18T09:51:19.000Z</time>
</trkpt>
<trkpt lat="45.9059280" lon="9.8365680">
	<ele>1978.80</ele>
	<time>2023-11-18T09:51:20.000Z</time>
</trkpt>
<trkpt lat="45.9059270" lon="9.8365740">
	<ele>1978.80</ele>
	<time>2023-11-18T09:51:21.000Z</time>
</trkpt>
<trkpt lat="45.9059230" lon="9.8365770">
	<ele>1978.80</ele>
	<time>2023-11-18T09:51:22.000Z</time>
</trkpt>
<trkpt lat="45.9059180" lon="9.8365830">
	<ele>1978.80</ele>
	<time>2023-11-18T09:51:23.000Z</time>
</trkpt>
<trkpt lat="45.9059150" lon="9.8365870">
	<ele>1978.60</ele>
	<time>2023-11-18T09:51:24.000Z</time>
</trkpt>
<trkpt lat="45.9059130" lon="9.8365890">
	<ele>1978.60</ele>
	<time>2023-11-18T09:51:25.000Z</time>
</trkpt>
<trkpt lat="45.9059120" lon="9.8365910">
	<ele>1978.60</ele>
	<time>2023-11-18T09:51:26.000Z</time>
</trkpt>
<trkpt lat="45.9059120" lon="9.8365920">
	<ele>1978.60</ele>
	<time>2023-11-18T09:51:27.000Z</time>
</trkpt>
<trkpt lat="45.9059120" lon="9.8365930">
	<ele>1978.60</ele>
	<time>2023-11-18T09:51:28.000Z</time>
</trkpt>
<trkpt lat="45.9059120" lon="9.8365930">
	<ele>1978.40</ele>
	<time>2023-11-18T09:51:29.000Z</time>
</trkpt>
<trkpt lat="45.9059120" lon="9.8365930">
	<ele>1978.40</ele>
	<time>2023-11-18T09:51:30.000Z</time>
</trkpt>
<trkpt lat="45.9059120" lon="9.8365930">
	<ele>1978.40</ele>
	<time>2023-11-18T09:51:31.000Z</time>
</trkpt>
<trkpt lat="45.9059120" lon="9.8365930">
	<ele>1978.20</ele>
	<time>2023-11-18T09:51:32.000Z</time>
</trkpt>
<trkpt lat="45.9059120" lon="9.8365930">
	<ele>1978.20</ele>
	<time>2023-11-18T09:51:33.000Z</time>
</trkpt>
<trkpt lat="45.9059120" lon="9.8365930">
	<ele>1978.20</ele>
	<time>2023-11-18T09:51:34.000Z</time>
</trkpt>
<trkpt lat="45.9059120" lon="9.8365930">
	<ele>1978.20</ele>
	<time>2023-11-18T09:51:35.000Z</time>
</trkpt>
<trkpt lat="45.9059120" lon="9.8365930">
	<ele>1978.20</ele>
	<time>2023-11-18T09:51:36.000Z</time>
</trkpt>
<trkpt lat="45.9059120" lon="9.8365930">
	<ele>1978.20</ele>
	<time>2023-11-18T09:51:37.000Z</time>
</trkpt>
<trkpt lat="45.9059120" lon="9.8365930">
	<ele>1978.20</ele>
	<time>2023-11-18T09:51:38.000Z</time>
</trkpt>
<trkpt lat="45.9059120" lon="9.8365930">
	<ele>1978.20</ele>
	<time>2023-11-18T09:51:39.000Z</time>
</trkpt>
<trkpt lat="45.9059120" lon="9.8365930">
	<ele>1978.20</ele>
	<time>2023-11-18T09:51:40.000Z</time>
</trkpt>
<trkpt lat="45.9059120" lon="9.8365930">
	<ele>1978.20</ele>
	<time>2023-11-18T09:51:41.000Z</time>
</trkpt>
<trkpt lat="45.9059120" lon="9.8365930">
	<ele>1978.20</ele>
	<time>2023-11-18T09:51:42.000Z</time>
</trkpt>
<trkpt lat="45.9059120" lon="9.8365930">
	<ele>1978.20</ele>
	<time>2023-11-18T09:51:43.000Z</time>
</trkpt>
<trkpt lat="45.9059120" lon="9.8365930">
	<ele>1978.20</ele>
	<time>2023-11-18T09:51:44.000Z</time>
</trkpt>
<trkpt lat="45.9059120" lon="9.8365930">
	<ele>1978.40</ele>
	<time>2023-11-18T09:51:45.000Z</time>
</trkpt>
<trkpt lat="45.9059110" lon="9.8365930">
	<ele>1978.40</ele>
	<time>2023-11-18T09:51:46.000Z</time>
</trkpt>
<trkpt lat="45.9059110" lon="9.8365930">
	<ele>1978.40</ele>
	<time>2023-11-18T09:51:47.000Z</time>
</trkpt>
<trkpt lat="45.9059110" lon="9.8365940">
	<ele>1978.40</ele>
	<time>2023-11-18T09:51:48.000Z</time>
</trkpt>
<trkpt lat="45.9059110" lon="9.8365940">
	<ele>1978.40</ele>
	<time>2023-11-18T09:51:49.000Z</time>
</trkpt>
<trkpt lat="45.9059110" lon="9.8365940">
	<ele>1978.40</ele>
	<time>2023-11-18T09:51:50.000Z</time>
</trkpt>
<trkpt lat="45.9059110" lon="9.8365940">
	<ele>1978.40</ele>
	<time>2023-11-18T09:51:51.000Z</time>
</trkpt>
<trkpt lat="45.9059110" lon="9.8365940">
	<ele>1978.40</ele>
	<time>2023-11-18T09:51:52.000Z</time>
</trkpt>
<trkpt lat="45.9059110" lon="9.8365960">
	<ele>1978.40</ele>
	<time>2023-11-18T09:51:53.000Z</time>
</trkpt>
<trkpt lat="45.9059110" lon="9.8365970">
	<ele>1978.40</ele>
	<time>2023-11-18T09:51:54.000Z</time>
</trkpt>
<trkpt lat="45.9059110" lon="9.8366000">
	<ele>1978.40</ele>
	<time>2023-11-18T09:51:55.000Z</time>
</trkpt>
<trkpt lat="45.9059110" lon="9.8366010">
	<ele>1978.40</ele>
	<time>2023-11-18T09:51:56.000Z</time>
</trkpt>
<trkpt lat="45.9059110" lon="9.8366010">
	<ele>1978.40</ele>
	<time>2023-11-18T09:51:57.000Z</time>
</trkpt>
<trkpt lat="45.9059110" lon="9.8366010">
	<ele>1978.40</ele>
	<time>2023-11-18T09:51:58.000Z</time>
</trkpt>
<trkpt lat="45.9059110" lon="9.8366010">
	<ele>1978.40</ele>
	<time>2023-11-18T09:51:59.000Z</time>
</trkpt>
<trkpt lat="45.9059110" lon="9.8366010">
	<ele>1978.40</ele>
	<time>2023-11-18T09:52:00.000Z</time>
</trkpt>
<trkpt lat="45.9059110" lon="9.8366010">
	<ele>1978.40</ele>
	<time>2023-11-18T09:52:01.000Z</time>
</trkpt>
<trkpt lat="45.9059100" lon="9.8366010">
	<ele>1978.40</ele>
	<time>2023-11-18T09:52:02.000Z</time>
</trkpt>
<trkpt lat="45.9059100" lon="9.8366010">
	<ele>1978.40</ele>
	<time>2023-11-18T09:52:03.000Z</time>
</trkpt>
<trkpt lat="45.9059100" lon="9.8366010">
	<ele>1978.40</ele>
	<time>2023-11-18T09:52:04.000Z</time>
</trkpt>
<trkpt lat="45.9059100" lon="9.8366010">
	<ele>1978.40</ele>
	<time>2023-11-18T09:52:05.000Z</time>
</trkpt>
<trkpt lat="45.9059100" lon="9.8366010">
	<ele>1978.40</ele>
	<time>2023-11-18T09:52:06.000Z</time>
</trkpt>
<trkpt lat="45.9059100" lon="9.8366010">
	<ele>1978.40</ele>
	<time>2023-11-18T09:52:07.000Z</time>
</trkpt>
<trkpt lat="45.9059100" lon="9.8366010">
	<ele>1978.60</ele>
	<time>2023-11-18T09:52:08.000Z</time>
</trkpt>
<trkpt lat="45.9059100" lon="9.8366010">
	<ele>1978.60</ele>
	<time>2023-11-18T09:52:09.000Z</time>
</trkpt>
<trkpt lat="45.9059100" lon="9.8366000">
	<ele>1978.60</ele>
	<time>2023-11-18T09:52:10.000Z</time>
</trkpt>
<trkpt lat="45.9059100" lon="9.8366000">
	<ele>1978.60</ele>
	<time>2023-11-18T09:52:11.000Z</time>
</trkpt>
<trkpt lat="45.9059100" lon="9.8365990">
	<ele>1978.60</ele>
	<time>2023-11-18T09:52:12.000Z</time>
</trkpt>
<trkpt lat="45.9059100" lon="9.8365990">
	<ele>1978.60</ele>
	<time>2023-11-18T09:52:13.000Z</time>
</trkpt>
<trkpt lat="45.9059080" lon="9.8365990">
	<ele>1978.60</ele>
	<time>2023-11-18T09:52:14.000Z</time>
</trkpt>
<trkpt lat="45.9059080" lon="9.8365980">
	<ele>1978.60</ele>
	<time>2023-11-18T09:52:15.000Z</time>
</trkpt>
<trkpt lat="45.9059080" lon="9.8365970">
	<ele>1978.80</ele>
	<time>2023-11-18T09:52:16.000Z</time>
</trkpt>
<trkpt lat="45.9059070" lon="9.8365960">
	<ele>1978.80</ele>
	<time>2023-11-18T09:52:17.000Z</time>
</trkpt>
<trkpt lat="45.9059070" lon="9.8365960">
	<ele>1978.80</ele>
	<time>2023-11-18T09:52:18.000Z</time>
</trkpt>
<trkpt lat="45.9059070" lon="9.8365950">
	<ele>1978.60</ele>
	<time>2023-11-18T09:52:19.000Z</time>
</trkpt>
<trkpt lat="45.9059070" lon="9.8365950">
	<ele>1978.60</ele>
	<time>2023-11-18T09:52:20.000Z</time>
</trkpt>
<trkpt lat="45.9059070" lon="9.8365950">
	<ele>1978.60</ele>
	<time>2023-11-18T09:52:21.000Z</time>
</trkpt>
<trkpt lat="45.9059070" lon="9.8365940">
	<ele>1978.60</ele>
	<time>2023-11-18T09:52:22.000Z</time>
</trkpt>
<trkpt lat="45.9059070" lon="9.8365940">
	<ele>1978.60</ele>
	<time>2023-11-18T09:52:23.000Z</time>
</trkpt>
<trkpt lat="45.9059060" lon="9.8365940">
	<ele>1978.60</ele>
	<time>2023-11-18T09:52:24.000Z</time>
</trkpt>
<trkpt lat="45.9059060" lon="9.8365930">
	<ele>1978.60</ele>
	<time>2023-11-18T09:52:25.000Z</time>
</trkpt>
<trkpt lat="45.9059020" lon="9.8365910">
	<ele>1978.60</ele>
	<time>2023-11-18T09:52:26.000Z</time>
</trkpt>
<trkpt lat="45.9059000" lon="9.8365900">
	<ele>1978.60</ele>
	<time>2023-11-18T09:52:27.000Z</time>
</trkpt>
<trkpt lat="45.9058980" lon="9.8365890">
	<ele>1978.60</ele>
	<time>2023-11-18T09:52:28.000Z</time>
</trkpt>
<trkpt lat="45.9058980" lon="9.8365890">
	<ele>1978.60</ele>
	<time>2023-11-18T09:52:29.000Z</time>
</trkpt>
<trkpt lat="45.9058970" lon="9.8365890">
	<ele>1978.60</ele>
	<time>2023-11-18T09:52:30.000Z</time>
</trkpt>
<trkpt lat="45.9058970" lon="9.8365890">
	<ele>1978.60</ele>
	<time>2023-11-18T09:52:31.000Z</time>
</trkpt>
<trkpt lat="45.9058970" lon="9.8365890">
	<ele>1978.60</ele>
	<time>2023-11-18T09:52:32.000Z</time>
</trkpt>
<trkpt lat="45.9058960" lon="9.8365880">
	<ele>1978.60</ele>
	<time>2023-11-18T09:52:33.000Z</time>
</trkpt>
<trkpt lat="45.9058960" lon="9.8365880">
	<ele>1978.60</ele>
	<time>2023-11-18T09:52:34.000Z</time>
</trkpt>
<trkpt lat="45.9058960" lon="9.8365880">
	<ele>1978.60</ele>
	<time>2023-11-18T09:52:35.000Z</time>
</trkpt>
<trkpt lat="45.9058960" lon="9.8365880">
	<ele>1978.80</ele>
	<time>2023-11-18T09:52:36.000Z</time>
</trkpt>
<trkpt lat="45.9058960" lon="9.8365880">
	<ele>1978.80</ele>
	<time>2023-11-18T09:52:37.000Z</time>
</trkpt>
<trkpt lat="45.9058960" lon="9.8365880">
	<ele>1978.80</ele>
	<time>2023-11-18T09:52:38.000Z</time>
</trkpt>
<trkpt lat="45.9058960" lon="9.8365880">
	<ele>1978.80</ele>
	<time>2023-11-18T09:52:39.000Z</time>
</trkpt>
<trkpt lat="45.9058960" lon="9.8365880">
	<ele>1978.80</ele>
	<time>2023-11-18T09:52:40.000Z</time>
</trkpt>
<trkpt lat="45.9058960" lon="9.8365880">
	<ele>1978.80</ele>
	<time>2023-11-18T09:52:41.000Z</time>
</trkpt>
<trkpt lat="45.9058960" lon="9.8365870">
	<ele>1978.80</ele>
	<time>2023-11-18T09:52:42.000Z</time>
</trkpt>
<trkpt lat="45.9058960" lon="9.8365870">
	<ele>1978.80</ele>
	<time>2023-11-18T09:52:43.000Z</time>
</trkpt>
<trkpt lat="45.9058960" lon="9.8365870">
	<ele>1978.80</ele>
	<time>2023-11-18T09:52:44.000Z</time>
</trkpt>
<trkpt lat="45.9058960" lon="9.8365870">
	<ele>1978.80</ele>
	<time>2023-11-18T09:52:45.000Z</time>
</trkpt>
<trkpt lat="45.9058960" lon="9.8365870">
	<ele>1979.00</ele>
	<time>2023-11-18T09:52:46.000Z</time>
</trkpt>
<trkpt lat="45.9058960" lon="9.8365860">
	<ele>1979.00</ele>
	<time>2023-11-18T09:52:47.000Z</time>
</trkpt>
<trkpt lat="45.9058960" lon="9.8365860">
	<ele>1979.00</ele>
	<time>2023-11-18T09:52:48.000Z</time>
</trkpt>
<trkpt lat="45.9058970" lon="9.8365860">
	<ele>1979.00</ele>
	<time>2023-11-18T09:52:49.000Z</time>
</trkpt>
<trkpt lat="45.9058980" lon="9.8365850">
	<ele>1979.00</ele>
	<time>2023-11-18T09:52:50.000Z</time>
</trkpt>
<trkpt lat="45.9058980" lon="9.8365850">
	<ele>1979.00</ele>
	<time>2023-11-18T09:52:51.000Z</time>
</trkpt>
<trkpt lat="45.9058980" lon="9.8365850">
	<ele>1979.00</ele>
	<time>2023-11-18T09:52:52.000Z</time>
</trkpt>
<trkpt lat="45.9058980" lon="9.8365850">
	<ele>1979.00</ele>
	<time>2023-11-18T09:52:53.000Z</time>
</trkpt>
<trkpt lat="45.9058990" lon="9.8365850">
	<ele>1979.00</ele>
	<time>2023-11-18T09:52:54.000Z</time>
</trkpt>
<trkpt lat="45.9058990" lon="9.8365850">
	<ele>1979.00</ele>
	<time>2023-11-18T09:52:55.000Z</time>
</trkpt>
<trkpt lat="45.9058990" lon="9.8365850">
	<ele>1979.00</ele>
	<time>2023-11-18T09:52:56.000Z</time>
</trkpt>
<trkpt lat="45.9058990" lon="9.8365830">
	<ele>1979.00</ele>
	<time>2023-11-18T09:52:57.000Z</time>
</trkpt>
<trkpt lat="45.9059000" lon="9.8365820">
	<ele>1979.00</ele>
	<time>2023-11-18T09:52:58.000Z</time>
</trkpt>
<trkpt lat="45.9059000" lon="9.8365810">
	<ele>1979.00</ele>
	<time>2023-11-18T09:52:59.000Z</time>
</trkpt>
<trkpt lat="45.9059010" lon="9.8365800">
	<ele>1979.00</ele>
	<time>2023-11-18T09:53:00.000Z</time>
</trkpt>
<trkpt lat="45.9059020" lon="9.8365800">
	<ele>1979.20</ele>
	<time>2023-11-18T09:53:01.000Z</time>
</trkpt>
<trkpt lat="45.9059020" lon="9.8365790">
	<ele>1979.20</ele>
	<time>2023-11-18T09:53:02.000Z</time>
</trkpt>
<trkpt lat="45.9059020" lon="9.8365790">
	<ele>1979.20</ele>
	<time>2023-11-18T09:53:03.000Z</time>
</trkpt>
<trkpt lat="45.9059020" lon="9.8365780">
	<ele>1979.20</ele>
	<time>2023-11-18T09:53:04.000Z</time>
</trkpt>
<trkpt lat="45.9059030" lon="9.8365780">
	<ele>1979.20</ele>
	<time>2023-11-18T09:53:05.000Z</time>
</trkpt>
<trkpt lat="45.9059030" lon="9.8365770">
	<ele>1979.20</ele>
	<time>2023-11-18T09:53:06.000Z</time>
</trkpt>
<trkpt lat="45.9059030" lon="9.8365750">
	<ele>1979.20</ele>
	<time>2023-11-18T09:53:07.000Z</time>
</trkpt>
<trkpt lat="45.9059030" lon="9.8365740">
	<ele>1979.20</ele>
	<time>2023-11-18T09:53:08.000Z</time>
</trkpt>
<trkpt lat="45.9059030" lon="9.8365730">
	<ele>1979.40</ele>
	<time>2023-11-18T09:53:09.000Z</time>
</trkpt>
<trkpt lat="45.9059030" lon="9.8365720">
	<ele>1979.40</ele>
	<time>2023-11-18T09:53:10.000Z</time>
</trkpt>
<trkpt lat="45.9059040" lon="9.8365710">
	<ele>1979.40</ele>
	<time>2023-11-18T09:53:11.000Z</time>
</trkpt>
<trkpt lat="45.9059040" lon="9.8365710">
	<ele>1979.40</ele>
	<time>2023-11-18T09:53:12.000Z</time>
</trkpt>
<trkpt lat="45.9059040" lon="9.8365700">
	<ele>1979.20</ele>
	<time>2023-11-18T09:53:13.000Z</time>
</trkpt>
<trkpt lat="45.9059040" lon="9.8365690">
	<ele>1979.20</ele>
	<time>2023-11-18T09:53:14.000Z</time>
</trkpt>
<trkpt lat="45.9059040" lon="9.8365690">
	<ele>1979.20</ele>
	<time>2023-11-18T09:53:15.000Z</time>
</trkpt>
<trkpt lat="45.9059040" lon="9.8365680">
	<ele>1979.00</ele>
	<time>2023-11-18T09:53:16.000Z</time>
</trkpt>
<trkpt lat="45.9059040" lon="9.8365680">
	<ele>1979.00</ele>
	<time>2023-11-18T09:53:17.000Z</time>
</trkpt>
<trkpt lat="45.9059040" lon="9.8365670">
	<ele>1979.00</ele>
	<time>2023-11-18T09:53:18.000Z</time>
</trkpt>
<trkpt lat="45.9059040" lon="9.8365670">
	<ele>1979.00</ele>
	<time>2023-11-18T09:53:19.000Z</time>
</trkpt>
<trkpt lat="45.9059040" lon="9.8365670">
	<ele>1979.20</ele>
	<time>2023-11-18T09:53:20.000Z</time>
</trkpt>
<trkpt lat="45.9059040" lon="9.8365670">
	<ele>1979.20</ele>
	<time>2023-11-18T09:53:21.000Z</time>
</trkpt>
<trkpt lat="45.9059040" lon="9.8365670">
	<ele>1979.20</ele>
	<time>2023-11-18T09:53:22.000Z</time>
</trkpt>
<trkpt lat="45.9059040" lon="9.8365670">
	<ele>1979.40</ele>
	<time>2023-11-18T09:53:23.000Z</time>
</trkpt>
<trkpt lat="45.9059040" lon="9.8365670">
	<ele>1979.40</ele>
	<time>2023-11-18T09:53:24.000Z</time>
</trkpt>
<trkpt lat="45.9059040" lon="9.8365670">
	<ele>1979.40</ele>
	<time>2023-11-18T09:53:25.000Z</time>
</trkpt>
<trkpt lat="45.9059040" lon="9.8365670">
	<ele>1979.40</ele>
	<time>2023-11-18T09:53:26.000Z</time>
</trkpt>
<trkpt lat="45.9059040" lon="9.8365670">
	<ele>1979.40</ele>
	<time>2023-11-18T09:53:27.000Z</time>
</trkpt>
<trkpt lat="45.9059040" lon="9.8365670">
	<ele>1979.40</ele>
	<time>2023-11-18T09:53:28.000Z</time>
</trkpt>
<trkpt lat="45.9059040" lon="9.8365670">
	<ele>1979.40</ele>
	<time>2023-11-18T09:53:29.000Z</time>
</trkpt>
<trkpt lat="45.9059040" lon="9.8365670">
	<ele>1979.40</ele>
	<time>2023-11-18T09:53:30.000Z</time>
</trkpt>
<trkpt lat="45.9059040" lon="9.8365670">
	<ele>1979.40</ele>
	<time>2023-11-18T09:53:31.000Z</time>
</trkpt>
<trkpt lat="45.9059040" lon="9.8365680">
	<ele>1979.40</ele>
	<time>2023-11-18T09:53:32.000Z</time>
</trkpt>
<trkpt lat="45.9059040" lon="9.8365680">
	<ele>1979.40</ele>
	<time>2023-11-18T09:53:33.000Z</time>
</trkpt>
<trkpt lat="45.9059040" lon="9.8365680">
	<ele>1979.40</ele>
	<time>2023-11-18T09:53:34.000Z</time>
</trkpt>
<trkpt lat="45.9059040" lon="9.8365680">
	<ele>1979.20</ele>
	<time>2023-11-18T09:53:35.000Z</time>
</trkpt>
<trkpt lat="45.9059040" lon="9.8365680">
	<ele>1979.20</ele>
	<time>2023-11-18T09:53:36.000Z</time>
</trkpt>
<trkpt lat="45.9059040" lon="9.8365680">
	<ele>1979.20</ele>
	<time>2023-11-18T09:53:37.000Z</time>
</trkpt>
<trkpt lat="45.9059040" lon="9.8365690">
	<ele>1979.20</ele>
	<time>2023-11-18T09:53:38.000Z</time>
</trkpt>
<trkpt lat="45.9059040" lon="9.8365690">
	<ele>1979.20</ele>
	<time>2023-11-18T09:53:39.000Z</time>
</trkpt>
<trkpt lat="45.9059040" lon="9.8365690">
	<ele>1979.40</ele>
	<time>2023-11-18T09:53:40.000Z</time>
</trkpt>
<trkpt lat="45.9059040" lon="9.8365690">
	<ele>1979.60</ele>
	<time>2023-11-18T09:53:41.000Z</time>
</trkpt>
<trkpt lat="45.9059040" lon="9.8365690">
	<ele>1979.60</ele>
	<time>2023-11-18T09:53:42.000Z</time>
</trkpt>
<trkpt lat="45.9059040" lon="9.8365700">
	<ele>1979.80</ele>
	<time>2023-11-18T09:53:43.000Z</time>
</trkpt>
<trkpt lat="45.9059040" lon="9.8365700">
	<ele>1979.80</ele>
	<time>2023-11-18T09:53:44.000Z</time>
</trkpt>
<trkpt lat="45.9059040" lon="9.8365710">
	<ele>1979.80</ele>
	<time>2023-11-18T09:53:45.000Z</time>
</trkpt>
<trkpt lat="45.9059040" lon="9.8365710">
	<ele>1979.80</ele>
	<time>2023-11-18T09:53:46.000Z</time>
</trkpt>
<trkpt lat="45.9059030" lon="9.8365720">
	<ele>1980.00</ele>
	<time>2023-11-18T09:53:47.000Z</time>
</trkpt>
<trkpt lat="45.9059030" lon="9.8365720">
	<ele>1979.80</ele>
	<time>2023-11-18T09:53:48.000Z</time>
</trkpt>
<trkpt lat="45.9059030" lon="9.8365720">
	<ele>1979.80</ele>
	<time>2023-11-18T09:53:49.000Z</time>
</trkpt>
<trkpt lat="45.9059030" lon="9.8365720">
	<ele>1979.80</ele>
	<time>2023-11-18T09:53:50.000Z</time>
</trkpt>
<trkpt lat="45.9059030" lon="9.8365730">
	<ele>1979.80</ele>
	<time>2023-11-18T09:53:51.000Z</time>
</trkpt>
<trkpt lat="45.9059030" lon="9.8365730">
	<ele>1979.80</ele>
	<time>2023-11-18T09:53:52.000Z</time>
</trkpt>
<trkpt lat="45.9059030" lon="9.8365740">
	<ele>1979.80</ele>
	<time>2023-11-18T09:53:53.000Z</time>
</trkpt>
<trkpt lat="45.9059030" lon="9.8365740">
	<ele>1979.80</ele>
	<time>2023-11-18T09:53:54.000Z</time>
</trkpt>
<trkpt lat="45.9059030" lon="9.8365740">
	<ele>1979.80</ele>
	<time>2023-11-18T09:53:55.000Z</time>
</trkpt>
<trkpt lat="45.9059030" lon="9.8365750">
	<ele>1979.80</ele>
	<time>2023-11-18T09:53:56.000Z</time>
</trkpt>
<trkpt lat="45.9059030" lon="9.8365750">
	<ele>1979.80</ele>
	<time>2023-11-18T09:53:57.000Z</time>
</trkpt>
<trkpt lat="45.9059030" lon="9.8365750">
	<ele>1979.80</ele>
	<time>2023-11-18T09:53:58.000Z</time>
</trkpt>
<trkpt lat="45.9059030" lon="9.8365750">
	<ele>1979.80</ele>
	<time>2023-11-18T09:53:59.000Z</time>
</trkpt>
<trkpt lat="45.9059030" lon="9.8365750">
	<ele>1979.80</ele>
	<time>2023-11-18T09:54:00.000Z</time>
</trkpt>
<trkpt lat="45.9059030" lon="9.8365750">
	<ele>1979.80</ele>
	<time>2023-11-18T09:54:01.000Z</time>
</trkpt>
<trkpt lat="45.9059030" lon="9.8365750">
	<ele>1979.80</ele>
	<time>2023-11-18T09:54:02.000Z</time>
</trkpt>
<trkpt lat="45.9059030" lon="9.8365750">
	<ele>1979.80</ele>
	<time>2023-11-18T09:54:03.000Z</time>
</trkpt>
<trkpt lat="45.9059030" lon="9.8365750">
	<ele>1979.80</ele>
	<time>2023-11-18T09:54:04.000Z</time>
</trkpt>
<trkpt lat="45.9059030" lon="9.8365760">
	<ele>1979.80</ele>
	<time>2023-11-18T09:54:05.000Z</time>
</trkpt>
<trkpt lat="45.9059030" lon="9.8365760">
	<ele>1979.80</ele>
	<time>2023-11-18T09:54:06.000Z</time>
</trkpt>
<trkpt lat="45.9059030" lon="9.8365760">
	<ele>1979.80</ele>
	<time>2023-11-18T09:54:07.000Z</time>
</trkpt>
<trkpt lat="45.9059030" lon="9.8365760">
	<ele>1979.80</ele>
	<time>2023-11-18T09:54:08.000Z</time>
</trkpt>
<trkpt lat="45.9059030" lon="9.8365760">
	<ele>1980.00</ele>
	<time>2023-11-18T09:54:09.000Z</time>
</trkpt>
<trkpt lat="45.9059030" lon="9.8365760">
	<ele>1980.00</ele>
	<time>2023-11-18T09:54:10.000Z</time>
</trkpt>
<trkpt lat="45.9059040" lon="9.8365760">
	<ele>1980.00</ele>
	<time>2023-11-18T09:54:11.000Z</time>
</trkpt>
<trkpt lat="45.9059040" lon="9.8365760">
	<ele>1980.00</ele>
	<time>2023-11-18T09:54:12.000Z</time>
</trkpt>
<trkpt lat="45.9059040" lon="9.8365760">
	<ele>1980.00</ele>
	<time>2023-11-18T09:54:13.000Z</time>
</trkpt>
<trkpt lat="45.9059050" lon="9.8365760">
	<ele>1980.00</ele>
	<time>2023-11-18T09:54:14.000Z</time>
</trkpt>
<trkpt lat="45.9059050" lon="9.8365770">
	<ele>1980.00</ele>
	<time>2023-11-18T09:54:15.000Z</time>
</trkpt>
<trkpt lat="45.9059050" lon="9.8365770">
	<ele>1979.80</ele>
	<time>2023-11-18T09:54:16.000Z</time>
</trkpt>
<trkpt lat="45.9059050" lon="9.8365770">
	<ele>1979.80</ele>
	<time>2023-11-18T09:54:17.000Z</time>
</trkpt>
<trkpt lat="45.9059050" lon="9.8365770">
	<ele>1979.80</ele>
	<time>2023-11-18T09:54:18.000Z</time>
</trkpt>
<trkpt lat="45.9059050" lon="9.8365770">
	<ele>1979.80</ele>
	<time>2023-11-18T09:54:19.000Z</time>
</trkpt>
<trkpt lat="45.9059050" lon="9.8365770">
	<ele>1979.80</ele>
	<time>2023-11-18T09:54:20.000Z</time>
</trkpt>
<trkpt lat="45.9059050" lon="9.8365770">
	<ele>1979.80</ele>
	<time>2023-11-18T09:54:21.000Z</time>
</trkpt>
<trkpt lat="45.9059050" lon="9.8365770">
	<ele>1979.80</ele>
	<time>2023-11-18T09:54:22.000Z</time>
</trkpt>
<trkpt lat="45.9059050" lon="9.8365780">
	<ele>1979.80</ele>
	<time>2023-11-18T09:54:23.000Z</time>
</trkpt>
<trkpt lat="45.9059050" lon="9.8365780">
	<ele>1979.80</ele>
	<time>2023-11-18T09:54:24.000Z</time>
</trkpt>
<trkpt lat="45.9059050" lon="9.8365780">
	<ele>1979.80</ele>
	<time>2023-11-18T09:54:25.000Z</time>
</trkpt>
<trkpt lat="45.9059050" lon="9.8365780">
	<ele>1979.80</ele>
	<time>2023-11-18T09:54:26.000Z</time>
</trkpt>
<trkpt lat="45.9059050" lon="9.8365780">
	<ele>1979.80</ele>
	<time>2023-11-18T09:54:27.000Z</time>
</trkpt>
<trkpt lat="45.9059050" lon="9.8365780">
	<ele>1979.80</ele>
	<time>2023-11-18T09:54:28.000Z</time>
</trkpt>
<trkpt lat="45.9059050" lon="9.8365780">
	<ele>1979.80</ele>
	<time>2023-11-18T09:54:29.000Z</time>
</trkpt>
<trkpt lat="45.9059050" lon="9.8365780">
	<ele>1979.80</ele>
	<time>2023-11-18T09:54:30.000Z</time>
</trkpt>
<trkpt lat="45.9059050" lon="9.8365780">
	<ele>1979.80</ele>
	<time>2023-11-18T09:54:31.000Z</time>
</trkpt>
<trkpt lat="45.9059060" lon="9.8365780">
	<ele>1979.80</ele>
	<time>2023-11-18T09:54:32.000Z</time>
</trkpt>
<trkpt lat="45.9059060" lon="9.8365780">
	<ele>1980.00</ele>
	<time>2023-11-18T09:54:33.000Z</time>
</trkpt>
<trkpt lat="45.9059060" lon="9.8365780">
	<ele>1980.00</ele>
	<time>2023-11-18T09:54:34.000Z</time>
</trkpt>
<trkpt lat="45.9059060" lon="9.8365790">
	<ele>1980.00</ele>
	<time>2023-11-18T09:54:35.000Z</time>
</trkpt>
<trkpt lat="45.9059060" lon="9.8365790">
	<ele>1980.00</ele>
	<time>2023-11-18T09:54:36.000Z</time>
</trkpt>
<trkpt lat="45.9059060" lon="9.8365790">
	<ele>1980.20</ele>
	<time>2023-11-18T09:54:37.000Z</time>
</trkpt>
<trkpt lat="45.9059060" lon="9.8365790">
	<ele>1980.20</ele>
	<time>2023-11-18T09:54:38.000Z</time>
</trkpt>
<trkpt lat="45.9059060" lon="9.8365790">
	<ele>1980.00</ele>
	<time>2023-11-18T09:54:39.000Z</time>
</trkpt>
<trkpt lat="45.9059060" lon="9.8365790">
	<ele>1980.00</ele>
	<time>2023-11-18T09:54:40.000Z</time>
</trkpt>
<trkpt lat="45.9059060" lon="9.8365790">
	<ele>1980.00</ele>
	<time>2023-11-18T09:54:41.000Z</time>
</trkpt>
<trkpt lat="45.9059060" lon="9.8365790">
	<ele>1980.00</ele>
	<time>2023-11-18T09:54:42.000Z</time>
</trkpt>
<trkpt lat="45.9059060" lon="9.8365790">
	<ele>1980.00</ele>
	<time>2023-11-18T09:54:43.000Z</time>
</trkpt>
<trkpt lat="45.9059060" lon="9.8365790">
	<ele>1980.00</ele>
	<time>2023-11-18T09:54:44.000Z</time>
</trkpt>
<trkpt lat="45.9059060" lon="9.8365790">
	<ele>1980.00</ele>
	<time>2023-11-18T09:54:45.000Z</time>
</trkpt>
<trkpt lat="45.9059060" lon="9.8365790">
	<ele>1980.00</ele>
	<time>2023-11-18T09:54:46.000Z</time>
</trkpt>
<trkpt lat="45.9059060" lon="9.8365790">
	<ele>1980.00</ele>
	<time>2023-11-18T09:54:47.000Z</time>
</trkpt>
<trkpt lat="45.9059060" lon="9.8365790">
	<ele>1980.00</ele>
	<time>2023-11-18T09:54:48.000Z</time>
</trkpt>
<trkpt lat="45.9059060" lon="9.8365790">
	<ele>1980.00</ele>
	<time>2023-11-18T09:54:49.000Z</time>
</trkpt>
<trkpt lat="45.9059060" lon="9.8365790">
	<ele>1980.00</ele>
	<time>2023-11-18T09:54:50.000Z</time>
</trkpt>
<trkpt lat="45.9059060" lon="9.8365790">
	<ele>1980.00</ele>
	<time>2023-11-18T09:54:51.000Z</time>
</trkpt>
<trkpt lat="45.9059060" lon="9.8365790">
	<ele>1980.00</ele>
	<time>2023-11-18T09:54:52.000Z</time>
</trkpt>
<trkpt lat="45.9059060" lon="9.8365790">
	<ele>1980.00</ele>
	<time>2023-11-18T09:54:53.000Z</time>
</trkpt>
<trkpt lat="45.9059060" lon="9.8365790">
	<ele>1980.00</ele>
	<time>2023-11-18T09:54:54.000Z</time>
</trkpt>
<trkpt lat="45.9059060" lon="9.8365790">
	<ele>1980.00</ele>
	<time>2023-11-18T09:54:55.000Z</time>
</trkpt>
<trkpt lat="45.9059060" lon="9.8365790">
	<ele>1980.00</ele>
	<time>2023-11-18T09:54:56.000Z</time>
</trkpt>
<trkpt lat="45.9059060" lon="9.8365790">
	<ele>1980.00</ele>
	<time>2023-11-18T09:54:57.000Z</time>
</trkpt>
<trkpt lat="45.9059060" lon="9.8365790">
	<ele>1980.00</ele>
	<time>2023-11-18T09:54:58.000Z</time>
</trkpt>
<trkpt lat="45.9059060" lon="9.8365790">
	<ele>1980.00</ele>
	<time>2023-11-18T09:54:59.000Z</time>
</trkpt>
<trkpt lat="45.9059060" lon="9.8365790">
	<ele>1980.00</ele>
	<time>2023-11-18T09:55:00.000Z</time>
</trkpt>
<trkpt lat="45.9059060" lon="9.8365790">
	<ele>1980.00</ele>
	<time>2023-11-18T09:55:01.000Z</time>
</trkpt>
<trkpt lat="45.9059060" lon="9.8365790">
	<ele>1980.00</ele>
	<time>2023-11-18T09:55:02.000Z</time>
</trkpt>
<trkpt lat="45.9059060" lon="9.8365790">
	<ele>1980.00</ele>
	<time>2023-11-18T09:55:03.000Z</time>
</trkpt>
<trkpt lat="45.9059060" lon="9.8365790">
	<ele>1980.00</ele>
	<time>2023-11-18T09:55:04.000Z</time>
</trkpt>
<trkpt lat="45.9059060" lon="9.8365790">
	<ele>1979.80</ele>
	<time>2023-11-18T09:55:05.000Z</time>
</trkpt>
<trkpt lat="45.9059060" lon="9.8365800">
	<ele>1980.00</ele>
	<time>2023-11-18T09:55:06.000Z</time>
</trkpt>
<trkpt lat="45.9059060" lon="9.8365800">
	<ele>1980.00</ele>
	<time>2023-11-18T09:55:07.000Z</time>
</trkpt>
<trkpt lat="45.9059060" lon="9.8365800">
	<ele>1980.00</ele>
	<time>2023-11-18T09:55:08.000Z</time>
</trkpt>
<trkpt lat="45.9059060" lon="9.8365800">
	<ele>1980.00</ele>
	<time>2023-11-18T09:55:09.000Z</time>
</trkpt>
<trkpt lat="45.9059060" lon="9.8365800">
	<ele>1980.00</ele>
	<time>2023-11-18T09:55:10.000Z</time>
</trkpt>
<trkpt lat="45.9059060" lon="9.8365800">
	<ele>1980.00</ele>
	<time>2023-11-18T09:55:11.000Z</time>
</trkpt>
<trkpt lat="45.9059060" lon="9.8365800">
	<ele>1980.00</ele>
	<time>2023-11-18T09:55:12.000Z</time>
</trkpt>
<trkpt lat="45.9059060" lon="9.8365800">
	<ele>1980.00</ele>
	<time>2023-11-18T09:55:13.000Z</time>
</trkpt>
<trkpt lat="45.9059060" lon="9.8365800">
	<ele>1979.80</ele>
	<time>2023-11-18T09:55:14.000Z</time>
</trkpt>
<trkpt lat="45.9059060" lon="9.8365800">
	<ele>1979.80</ele>
	<time>2023-11-18T09:55:15.000Z</time>
</trkpt>
<trkpt lat="45.9059060" lon="9.8365800">
	<ele>1979.80</ele>
	<time>2023-11-18T09:55:16.000Z</time>
</trkpt>
<trkpt lat="45.9059060" lon="9.8365800">
	<ele>1979.80</ele>
	<time>2023-11-18T09:55:17.000Z</time>
</trkpt>
<trkpt lat="45.9059060" lon="9.8365800">
	<ele>1979.80</ele>
	<time>2023-11-18T09:55:18.000Z</time>
</trkpt>
<trkpt lat="45.9059060" lon="9.8365800">
	<ele>1980.00</ele>
	<time>2023-11-18T09:55:19.000Z</time>
</trkpt>
<trkpt lat="45.9059060" lon="9.8365800">
	<ele>1980.20</ele>
	<time>2023-11-18T09:55:20.000Z</time>
</trkpt>
<trkpt lat="45.9059060" lon="9.8365800">
	<ele>1980.20</ele>
	<time>2023-11-18T09:55:21.000Z</time>
</trkpt>
<trkpt lat="45.9059060" lon="9.8365800">
	<ele>1980.40</ele>
	<time>2023-11-18T09:55:22.000Z</time>
</trkpt>
<trkpt lat="45.9059060" lon="9.8365800">
	<ele>1980.40</ele>
	<time>2023-11-18T09:55:23.000Z</time>
</trkpt>
<trkpt lat="45.9059060" lon="9.8365800">
	<ele>1980.00</ele>
	<time>2023-11-18T09:55:24.000Z</time>
</trkpt>
<trkpt lat="45.9059060" lon="9.8365800">
	<ele>1980.00</ele>
	<time>2023-11-18T09:55:25.000Z</time>
</trkpt>
<trkpt lat="45.9059070" lon="9.8365800">
	<ele>1980.00</ele>
	<time>2023-11-18T09:55:26.000Z</time>
</trkpt>
<trkpt lat="45.9059070" lon="9.8365800">
	<ele>1980.00</ele>
	<time>2023-11-18T09:55:27.000Z</time>
</trkpt>
<trkpt lat="45.9059070" lon="9.8365800">
	<ele>1980.00</ele>
	<time>2023-11-18T09:55:28.000Z</time>
</trkpt>
<trkpt lat="45.9059060" lon="9.8365800">
	<ele>1980.00</ele>
	<time>2023-11-18T09:55:29.000Z</time>
</trkpt>
<trkpt lat="45.9059070" lon="9.8365800">
	<ele>1980.00</ele>
	<time>2023-11-18T09:55:30.000Z</time>
</trkpt>
<trkpt lat="45.9059070" lon="9.8365800">
	<ele>1980.00</ele>
	<time>2023-11-18T09:55:31.000Z</time>
</trkpt>
<trkpt lat="45.9059070" lon="9.8365810">
	<ele>1980.00</ele>
	<time>2023-11-18T09:55:32.000Z</time>
</trkpt>
<trkpt lat="45.9059070" lon="9.8365810">
	<ele>1980.00</ele>
	<time>2023-11-18T09:55:33.000Z</time>
</trkpt>
<trkpt lat="45.9059070" lon="9.8365810">
	<ele>1980.00</ele>
	<time>2023-11-18T09:55:34.000Z</time>
</trkpt>
<trkpt lat="45.9059070" lon="9.8365810">
	<ele>1980.00</ele>
	<time>2023-11-18T09:55:35.000Z</time>
</trkpt>
<trkpt lat="45.9059070" lon="9.8365810">
	<ele>1980.00</ele>
	<time>2023-11-18T09:55:36.000Z</time>
</trkpt>
<trkpt lat="45.9059070" lon="9.8365810">
	<ele>1980.00</ele>
	<time>2023-11-18T09:55:37.000Z</time>
</trkpt>
<trkpt lat="45.9059070" lon="9.8365810">
	<ele>1980.00</ele>
	<time>2023-11-18T09:55:38.000Z</time>
</trkpt>
<trkpt lat="45.9059070" lon="9.8365810">
	<ele>1980.00</ele>
	<time>2023-11-18T09:55:39.000Z</time>
</trkpt>
<trkpt lat="45.9059070" lon="9.8365810">
	<ele>1980.00</ele>
	<time>2023-11-18T09:55:40.000Z</time>
</trkpt>
<trkpt lat="45.9059070" lon="9.8365810">
	<ele>1980.00</ele>
	<time>2023-11-18T09:55:41.000Z</time>
</trkpt>
<trkpt lat="45.9059070" lon="9.8365810">
	<ele>1980.00</ele>
	<time>2023-11-18T09:55:42.000Z</time>
</trkpt>
<trkpt lat="45.9059070" lon="9.8365810">
	<ele>1980.00</ele>
	<time>2023-11-18T09:55:43.000Z</time>
</trkpt>
<trkpt lat="45.9059070" lon="9.8365810">
	<ele>1980.00</ele>
	<time>2023-11-18T09:55:44.000Z</time>
</trkpt>
<trkpt lat="45.9059070" lon="9.8365810">
	<ele>1980.00</ele>
	<time>2023-11-18T09:55:45.000Z</time>
</trkpt>
<trkpt lat="45.9059070" lon="9.8365810">
	<ele>1980.00</ele>
	<time>2023-11-18T09:55:46.000Z</time>
</trkpt>
<trkpt lat="45.9059070" lon="9.8365810">
	<ele>1980.00</ele>
	<time>2023-11-18T09:55:47.000Z</time>
</trkpt>
<trkpt lat="45.9059070" lon="9.8365810">
	<ele>1980.00</ele>
	<time>2023-11-18T09:55:48.000Z</time>
</trkpt>
<trkpt lat="45.9059070" lon="9.8365810">
	<ele>1980.00</ele>
	<time>2023-11-18T09:55:49.000Z</time>
</trkpt>
<trkpt lat="45.9059070" lon="9.8365810">
	<ele>1980.00</ele>
	<time>2023-11-18T09:55:50.000Z</time>
</trkpt>
<trkpt lat="45.9059070" lon="9.8365810">
	<ele>1980.00</ele>
	<time>2023-11-18T09:55:51.000Z</time>
</trkpt>
<trkpt lat="45.9059070" lon="9.8365810">
	<ele>1980.00</ele>
	<time>2023-11-18T09:55:52.000Z</time>
</trkpt>
<trkpt lat="45.9059070" lon="9.8365810">
	<ele>1980.00</ele>
	<time>2023-11-18T09:55:53.000Z</time>
</trkpt>
<trkpt lat="45.9059070" lon="9.8365810">
	<ele>1980.00</ele>
	<time>2023-11-18T09:55:54.000Z</time>
</trkpt>
<trkpt lat="45.9059070" lon="9.8365810">
	<ele>1980.00</ele>
	<time>2023-11-18T09:55:55.000Z</time>
</trkpt>
<trkpt lat="45.9059070" lon="9.8365810">
	<ele>1980.00</ele>
	<time>2023-11-18T09:55:56.000Z</time>
</trkpt>
<trkpt lat="45.9059070" lon="9.8365810">
	<ele>1980.00</ele>
	<time>2023-11-18T09:55:57.000Z</time>
</trkpt>
<trkpt lat="45.9059070" lon="9.8365810">
	<ele>1980.00</ele>
	<time>2023-11-18T09:55:58.000Z</time>
</trkpt>
<trkpt lat="45.9059070" lon="9.8365810">
	<ele>1980.00</ele>
	<time>2023-11-18T09:55:59.000Z</time>
</trkpt>
<trkpt lat="45.9059070" lon="9.8365810">
	<ele>1980.00</ele>
	<time>2023-11-18T09:56:00.000Z</time>
</trkpt>
<trkpt lat="45.9059070" lon="9.8365810">
	<ele>1980.00</ele>
	<time>2023-11-18T09:56:01.000Z</time>
</trkpt>
<trkpt lat="45.9059070" lon="9.8365810">
	<ele>1980.00</ele>
	<time>2023-11-18T09:56:02.000Z</time>
</trkpt>
<trkpt lat="45.9059070" lon="9.8365810">
	<ele>1980.00</ele>
	<time>2023-11-18T09:56:03.000Z</time>
</trkpt>
<trkpt lat="45.9059070" lon="9.8365810">
	<ele>1980.00</ele>
	<time>2023-11-18T09:56:04.000Z</time>
</trkpt>
<trkpt lat="45.9059070" lon="9.8365810">
	<ele>1980.00</ele>
	<time>2023-11-18T09:56:05.000Z</time>
</trkpt>
<trkpt lat="45.9059070" lon="9.8365810">
	<ele>1980.00</ele>
	<time>2023-11-18T09:56:06.000Z</time>
</trkpt>
<trkpt lat="45.9059070" lon="9.8365810">
	<ele>1980.00</ele>
	<time>2023-11-18T09:56:07.000Z</time>
</trkpt>
<trkpt lat="45.9059070" lon="9.8365810">
	<ele>1980.00</ele>
	<time>2023-11-18T09:56:08.000Z</time>
</trkpt>
<trkpt lat="45.9059080" lon="9.8365810">
	<ele>1980.00</ele>
	<time>2023-11-18T09:56:09.000Z</time>
</trkpt>
<trkpt lat="45.9059080" lon="9.8365810">
	<ele>1980.00</ele>
	<time>2023-11-18T09:56:10.000Z</time>
</trkpt>
<trkpt lat="45.9059080" lon="9.8365810">
	<ele>1980.00</ele>
	<time>2023-11-18T09:56:11.000Z</time>
</trkpt>
<trkpt lat="45.9059080" lon="9.8365810">
	<ele>1980.00</ele>
	<time>2023-11-18T09:56:12.000Z</time>
</trkpt>
<trkpt lat="45.9059080" lon="9.8365810">
	<ele>1980.00</ele>
	<time>2023-11-18T09:56:13.000Z</time>
</trkpt>
<trkpt lat="45.9059080" lon="9.8365810">
	<ele>1980.00</ele>
	<time>2023-11-18T09:56:14.000Z</time>
</trkpt>
<trkpt lat="45.9059080" lon="9.8365810">
	<ele>1980.00</ele>
	<time>2023-11-18T09:56:15.000Z</time>
</trkpt>
<trkpt lat="45.9059080" lon="9.8365810">
	<ele>1980.00</ele>
	<time>2023-11-18T09:56:16.000Z</time>
</trkpt>
<trkpt lat="45.9059080" lon="9.8365810">
	<ele>1980.00</ele>
	<time>2023-11-18T09:56:17.000Z</time>
</trkpt>
<trkpt lat="45.9059080" lon="9.8365810">
	<ele>1980.00</ele>
	<time>2023-11-18T09:56:18.000Z</time>
</trkpt>
<trkpt lat="45.9059080" lon="9.8365810">
	<ele>1980.00</ele>
	<time>2023-11-18T09:56:19.000Z</time>
</trkpt>
<trkpt lat="45.9059080" lon="9.8365810">
	<ele>1980.00</ele>
	<time>2023-11-18T09:56:20.000Z</time>
</trkpt>
<trkpt lat="45.9059080" lon="9.8365810">
	<ele>1980.00</ele>
	<time>2023-11-18T09:56:21.000Z</time>
</trkpt>
<trkpt lat="45.9059080" lon="9.8365810">
	<ele>1980.00</ele>
	<time>2023-11-18T09:56:22.000Z</time>
</trkpt>
<trkpt lat="45.9059080" lon="9.8365810">
	<ele>1980.00</ele>
	<time>2023-11-18T09:56:23.000Z</time>
</trkpt>
<trkpt lat="45.9059080" lon="9.8365810">
	<ele>1980.00</ele>
	<time>2023-11-18T09:56:24.000Z</time>
</trkpt>
<trkpt lat="45.9059080" lon="9.8365810">
	<ele>1980.00</ele>
	<time>2023-11-18T09:56:25.000Z</time>
</trkpt>
<trkpt lat="45.9059080" lon="9.8365810">
	<ele>1980.00</ele>
	<time>2023-11-18T09:56:26.000Z</time>
</trkpt>
<trkpt lat="45.9059080" lon="9.8365810">
	<ele>1980.00</ele>
	<time>2023-11-18T09:56:27.000Z</time>
</trkpt>
<trkpt lat="45.9059080" lon="9.8365810">
	<ele>1980.00</ele>
	<time>2023-11-18T09:56:28.000Z</time>
</trkpt>
<trkpt lat="45.9059080" lon="9.8365810">
	<ele>1980.00</ele>
	<time>2023-11-18T09:56:29.000Z</time>
</trkpt>
<trkpt lat="45.9059080" lon="9.8365810">
	<ele>1980.00</ele>
	<time>2023-11-18T09:56:30.000Z</time>
</trkpt>
<trkpt lat="45.9059080" lon="9.8365810">
	<ele>1980.00</ele>
	<time>2023-11-18T09:56:31.000Z</time>
</trkpt>
<trkpt lat="45.9059080" lon="9.8365810">
	<ele>1980.00</ele>
	<time>2023-11-18T09:56:32.000Z</time>
</trkpt>
<trkpt lat="45.9059080" lon="9.8365810">
	<ele>1980.00</ele>
	<time>2023-11-18T09:56:33.000Z</time>
</trkpt>
<trkpt lat="45.9059080" lon="9.8365810">
	<ele>1980.00</ele>
	<time>2023-11-18T09:56:34.000Z</time>
</trkpt>
<trkpt lat="45.9059080" lon="9.8365810">
	<ele>1980.00</ele>
	<time>2023-11-18T09:56:35.000Z</time>
</trkpt>
<trkpt lat="45.9059080" lon="9.8365810">
	<ele>1980.00</ele>
	<time>2023-11-18T09:56:36.000Z</time>
</trkpt>
<trkpt lat="45.9059080" lon="9.8365820">
	<ele>1980.00</ele>
	<time>2023-11-18T09:56:37.000Z</time>
</trkpt>
<trkpt lat="45.9059080" lon="9.8365820">
	<ele>1980.00</ele>
	<time>2023-11-18T09:56:38.000Z</time>
</trkpt>
<trkpt lat="45.9059080" lon="9.8365820">
	<ele>1980.00</ele>
	<time>2023-11-18T09:56:39.000Z</time>
</trkpt>
<trkpt lat="45.9059080" lon="9.8365820">
	<ele>1980.00</ele>
	<time>2023-11-18T09:56:40.000Z</time>
</trkpt>
<trkpt lat="45.9059080" lon="9.8365820">
	<ele>1980.00</ele>
	<time>2023-11-18T09:56:41.000Z</time>
</trkpt>
<trkpt lat="45.9059080" lon="9.8365820">
	<ele>1980.00</ele>
	<time>2023-11-18T09:56:42.000Z</time>
</trkpt>
<trkpt lat="45.9059080" lon="9.8365820">
	<ele>1980.00</ele>
	<time>2023-11-18T09:56:43.000Z</time>
</trkpt>
<trkpt lat="45.9059080" lon="9.8365820">
	<ele>1980.00</ele>
	<time>2023-11-18T09:56:44.000Z</time>
</trkpt>
<trkpt lat="45.9059080" lon="9.8365820">
	<ele>1980.00</ele>
	<time>2023-11-18T09:56:45.000Z</time>
</trkpt>
<trkpt lat="45.9059080" lon="9.8365820">
	<ele>1980.00</ele>
	<time>2023-11-18T09:56:46.000Z</time>
</trkpt>
<trkpt lat="45.9059080" lon="9.8365820">
	<ele>1980.00</ele>
	<time>2023-11-18T09:56:47.000Z</time>
</trkpt>
<trkpt lat="45.9059080" lon="9.8365820">
	<ele>1980.00</ele>
	<time>2023-11-18T09:56:48.000Z</time>
</trkpt>
<trkpt lat="45.9059080" lon="9.8365820">
	<ele>1980.00</ele>
	<time>2023-11-18T09:56:49.000Z</time>
</trkpt>
<trkpt lat="45.9059080" lon="9.8365820">
	<ele>1980.00</ele>
	<time>2023-11-18T09:56:50.000Z</time>
</trkpt>
<trkpt lat="45.9059080" lon="9.8365820">
	<ele>1980.00</ele>
	<time>2023-11-18T09:56:51.000Z</time>
</trkpt>
<trkpt lat="45.9059080" lon="9.8365820">
	<ele>1980.00</ele>
	<time>2023-11-18T09:56:52.000Z</time>
</trkpt>
<trkpt lat="45.9059080" lon="9.8365820">
	<ele>1980.00</ele>
	<time>2023-11-18T09:56:53.000Z</time>
</trkpt>
<trkpt lat="45.9059080" lon="9.8365820">
	<ele>1980.00</ele>
	<time>2023-11-18T09:56:54.000Z</time>
</trkpt>
<trkpt lat="45.9059080" lon="9.8365820">
	<ele>1980.00</ele>
	<time>2023-11-18T09:56:55.000Z</time>
</trkpt>
<trkpt lat="45.9059080" lon="9.8365820">
	<ele>1980.00</ele>
	<time>2023-11-18T09:56:56.000Z</time>
</trkpt>
<trkpt lat="45.9059080" lon="9.8365820">
	<ele>1980.00</ele>
	<time>2023-11-18T09:56:57.000Z</time>
</trkpt>
<trkpt lat="45.9059080" lon="9.8365820">
	<ele>1980.00</ele>
	<time>2023-11-18T09:56:58.000Z</time>
</trkpt>
<trkpt lat="45.9059090" lon="9.8365820">
	<ele>1980.00</ele>
	<time>2023-11-18T09:56:59.000Z</time>
</trkpt>
<trkpt lat="45.9059080" lon="9.8365820">
	<ele>1980.00</ele>
	<time>2023-11-18T09:57:00.000Z</time>
</trkpt>
<trkpt lat="45.9059080" lon="9.8365820">
	<ele>1980.00</ele>
	<time>2023-11-18T09:57:01.000Z</time>
</trkpt>
<trkpt lat="45.9059080" lon="9.8365820">
	<ele>1980.00</ele>
	<time>2023-11-18T09:57:02.000Z</time>
</trkpt>
<trkpt lat="45.9059080" lon="9.8365820">
	<ele>1980.00</ele>
	<time>2023-11-18T09:57:03.000Z</time>
</trkpt>
<trkpt lat="45.9059080" lon="9.8365820">
	<ele>1980.00</ele>
	<time>2023-11-18T09:57:04.000Z</time>
</trkpt>
<trkpt lat="45.9059080" lon="9.8365820">
	<ele>1980.00</ele>
	<time>2023-11-18T09:57:05.000Z</time>
</trkpt>
<trkpt lat="45.9059080" lon="9.8365820">
	<ele>1980.00</ele>
	<time>2023-11-18T09:57:06.000Z</time>
</trkpt>
<trkpt lat="45.9059080" lon="9.8365820">
	<ele>1980.00</ele>
	<time>2023-11-18T09:57:07.000Z</time>
</trkpt>
<trkpt lat="45.9059080" lon="9.8365820">
	<ele>1980.00</ele>
	<time>2023-11-18T09:57:08.000Z</time>
</trkpt>
<trkpt lat="45.9059090" lon="9.8365820">
	<ele>1980.00</ele>
	<time>2023-11-18T09:57:09.000Z</time>
</trkpt>
<trkpt lat="45.9059090" lon="9.8365820">
	<ele>1980.00</ele>
	<time>2023-11-18T09:57:10.000Z</time>
</trkpt>
<trkpt lat="45.9059090" lon="9.8365820">
	<ele>1980.00</ele>
	<time>2023-11-18T09:57:11.000Z</time>
</trkpt>
<trkpt lat="45.9059080" lon="9.8365820">
	<ele>1980.00</ele>
	<time>2023-11-18T09:57:12.000Z</time>
</trkpt>
<trkpt lat="45.9059080" lon="9.8365820">
	<ele>1980.00</ele>
	<time>2023-11-18T09:57:13.000Z</time>
</trkpt>
<trkpt lat="45.9059090" lon="9.8365820">
	<ele>1980.00</ele>
	<time>2023-11-18T09:57:14.000Z</time>
</trkpt>
<trkpt lat="45.9059090" lon="9.8365820">
	<ele>1980.00</ele>
	<time>2023-11-18T09:57:15.000Z</time>
</trkpt>
<trkpt lat="45.9059090" lon="9.8365820">
	<ele>1980.00</ele>
	<time>2023-11-18T09:57:16.000Z</time>
</trkpt>
<trkpt lat="45.9059090" lon="9.8365820">
	<ele>1980.00</ele>
	<time>2023-11-18T09:57:17.000Z</time>
</trkpt>
<trkpt lat="45.9059090" lon="9.8365820">
	<ele>1980.00</ele>
	<time>2023-11-18T09:57:18.000Z</time>
</trkpt>
<trkpt lat="45.9059090" lon="9.8365820">
	<ele>1980.00</ele>
	<time>2023-11-18T09:57:19.000Z</time>
</trkpt>
<trkpt lat="45.9059090" lon="9.8365820">
	<ele>1980.00</ele>
	<time>2023-11-18T09:57:20.000Z</time>
</trkpt>
<trkpt lat="45.9059090" lon="9.8365820">
	<ele>1980.00</ele>
	<time>2023-11-18T09:57:21.000Z</time>
</trkpt>
<trkpt lat="45.9059090" lon="9.8365820">
	<ele>1980.00</ele>
	<time>2023-11-18T09:57:22.000Z</time>
</trkpt>
<trkpt lat="45.9059090" lon="9.8365820">
	<ele>1980.00</ele>
	<time>2023-11-18T09:57:23.000Z</time>
</trkpt>
<trkpt lat="45.9059090" lon="9.8365820">
	<ele>1980.00</ele>
	<time>2023-11-18T09:57:24.000Z</time>
</trkpt>
<trkpt lat="45.9059090" lon="9.8365820">
	<ele>1980.00</ele>
	<time>2023-11-18T09:57:25.000Z</time>
</trkpt>
<trkpt lat="45.9059090" lon="9.8365820">
	<ele>1980.00</ele>
	<time>2023-11-18T09:57:26.000Z</time>
</trkpt>
<trkpt lat="45.9059090" lon="9.8365820">
	<ele>1980.00</ele>
	<time>2023-11-18T09:57:27.000Z</time>
</trkpt>
<trkpt lat="45.9059090" lon="9.8365820">
	<ele>1980.00</ele>
	<time>2023-11-18T09:57:28.000Z</time>
</trkpt>
<trkpt lat="45.9059080" lon="9.8365820">
	<ele>1980.00</ele>
	<time>2023-11-18T09:57:29.000Z</time>
</trkpt>
<trkpt lat="45.9059080" lon="9.8365820">
	<ele>1980.00</ele>
	<time>2023-11-18T09:57:30.000Z</time>
</trkpt>
<trkpt lat="45.9059090" lon="9.8365820">
	<ele>1980.00</ele>
	<time>2023-11-18T09:57:31.000Z</time>
</trkpt>
<trkpt lat="45.9059090" lon="9.8365820">
	<ele>1980.00</ele>
	<time>2023-11-18T09:57:32.000Z</time>
</trkpt>
<trkpt lat="45.9059090" lon="9.8365820">
	<ele>1980.00</ele>
	<time>2023-11-18T09:57:33.000Z</time>
</trkpt>
<trkpt lat="45.9059090" lon="9.8365820">
	<ele>1980.00</ele>
	<time>2023-11-18T09:57:34.000Z</time>
</trkpt>
<trkpt lat="45.9059090" lon="9.8365820">
	<ele>1980.00</ele>
	<time>2023-11-18T09:57:35.000Z</time>
</trkpt>
<trkpt lat="45.9059090" lon="9.8365820">
	<ele>1980.00</ele>
	<time>2023-11-18T09:57:36.000Z</time>
</trkpt>
<trkpt lat="45.9059090" lon="9.8365820">
	<ele>1980.00</ele>
	<time>2023-11-18T09:57:37.000Z</time>
</trkpt>
<trkpt lat="45.9059080" lon="9.8365820">
	<ele>1980.00</ele>
	<time>2023-11-18T09:57:38.000Z</time>
</trkpt>
<trkpt lat="45.9059080" lon="9.8365830">
	<ele>1980.00</ele>
	<time>2023-11-18T09:57:39.000Z</time>
</trkpt>
<trkpt lat="45.9059080" lon="9.8365830">
	<ele>1980.00</ele>
	<time>2023-11-18T09:57:40.000Z</time>
</trkpt>
<trkpt lat="45.9059080" lon="9.8365830">
	<ele>1980.00</ele>
	<time>2023-11-18T09:57:41.000Z</time>
</trkpt>
<trkpt lat="45.9059080" lon="9.8365830">
	<ele>1980.00</ele>
	<time>2023-11-18T09:57:42.000Z</time>
</trkpt>
<trkpt lat="45.9059080" lon="9.8365830">
	<ele>1980.00</ele>
	<time>2023-11-18T09:57:43.000Z</time>
</trkpt>
<trkpt lat="45.9059080" lon="9.8365830">
	<ele>1980.00</ele>
	<time>2023-11-18T09:57:44.000Z</time>
</trkpt>
<trkpt lat="45.9059080" lon="9.8365830">
	<ele>1980.00</ele>
	<time>2023-11-18T09:57:45.000Z</time>
</trkpt>
<trkpt lat="45.9059080" lon="9.8365830">
	<ele>1980.00</ele>
	<time>2023-11-18T09:57:46.000Z</time>
</trkpt>
<trkpt lat="45.9059080" lon="9.8365830">
	<ele>1980.00</ele>
	<time>2023-11-18T09:57:47.000Z</time>
</trkpt>
<trkpt lat="45.9059080" lon="9.8365830">
	<ele>1980.00</ele>
	<time>2023-11-18T09:57:48.000Z</time>
</trkpt>
<trkpt lat="45.9059080" lon="9.8365830">
	<ele>1980.00</ele>
	<time>2023-11-18T09:57:49.000Z</time>
</trkpt>
<trkpt lat="45.9059080" lon="9.8365830">
	<ele>1980.00</ele>
	<time>2023-11-18T09:57:50.000Z</time>
</trkpt>
<trkpt lat="45.9059080" lon="9.8365830">
	<ele>1980.00</ele>
	<time>2023-11-18T09:57:51.000Z</time>
</trkpt>
<trkpt lat="45.9059080" lon="9.8365830">
	<ele>1980.00</ele>
	<time>2023-11-18T09:57:52.000Z</time>
</trkpt>
<trkpt lat="45.9059080" lon="9.8365830">
	<ele>1980.00</ele>
	<time>2023-11-18T09:57:53.000Z</time>
</trkpt>
<trkpt lat="45.9059080" lon="9.8365830">
	<ele>1980.00</ele>
	<time>2023-11-18T09:57:54.000Z</time>
</trkpt>
<trkpt lat="45.9059080" lon="9.8365830">
	<ele>1980.00</ele>
	<time>2023-11-18T09:57:55.000Z</time>
</trkpt>
<trkpt lat="45.9059080" lon="9.8365830">
	<ele>1980.00</ele>
	<time>2023-11-18T09:57:56.000Z</time>
</trkpt>
<trkpt lat="45.9059080" lon="9.8365830">
	<ele>1980.00</ele>
	<time>2023-11-18T09:57:57.000Z</time>
</trkpt>
<trkpt lat="45.9059080" lon="9.8365830">
	<ele>1980.00</ele>
	<time>2023-11-18T09:57:58.000Z</time>
</trkpt>
<trkpt lat="45.9059080" lon="9.8365830">
	<ele>1980.00</ele>
	<time>2023-11-18T09:57:59.000Z</time>
</trkpt>
<trkpt lat="45.9059080" lon="9.8365830">
	<ele>1980.00</ele>
	<time>2023-11-18T09:58:00.000Z</time>
</trkpt>
<trkpt lat="45.9059080" lon="9.8365830">
	<ele>1980.00</ele>
	<time>2023-11-18T09:58:01.000Z</time>
</trkpt>
<trkpt lat="45.9059080" lon="9.8365830">
	<ele>1980.00</ele>
	<time>2023-11-18T09:58:02.000Z</time>
</trkpt>
<trkpt lat="45.9059080" lon="9.8365830">
	<ele>1980.00</ele>
	<time>2023-11-18T09:58:03.000Z</time>
</trkpt>
<trkpt lat="45.9059080" lon="9.8365830">
	<ele>1980.00</ele>
	<time>2023-11-18T09:58:04.000Z</time>
</trkpt>
<trkpt lat="45.9059080" lon="9.8365830">
	<ele>1980.00</ele>
	<time>2023-11-18T09:58:05.000Z</time>
</trkpt>
<trkpt lat="45.9059080" lon="9.8365830">
	<ele>1980.00</ele>
	<time>2023-11-18T09:58:06.000Z</time>
</trkpt>
<trkpt lat="45.9059080" lon="9.8365830">
	<ele>1980.00</ele>
	<time>2023-11-18T09:58:07.000Z</time>
</trkpt>
<trkpt lat="45.9059080" lon="9.8365830">
	<ele>1980.00</ele>
	<time>2023-11-18T09:58:08.000Z</time>
</trkpt>
<trkpt lat="45.9059080" lon="9.8365830">
	<ele>1980.00</ele>
	<time>2023-11-18T09:58:09.000Z</time>
</trkpt>
<trkpt lat="45.9059080" lon="9.8365830">
	<ele>1980.00</ele>
	<time>2023-11-18T09:58:10.000Z</time>
</trkpt>
<trkpt lat="45.9059080" lon="9.8365830">
	<ele>1980.00</ele>
	<time>2023-11-18T09:58:11.000Z</time>
</trkpt>
<trkpt lat="45.9059080" lon="9.8365830">
	<ele>1980.00</ele>
	<time>2023-11-18T09:58:12.000Z</time>
</trkpt>
<trkpt lat="45.9059080" lon="9.8365830">
	<ele>1980.00</ele>
	<time>2023-11-18T09:58:13.000Z</time>
</trkpt>
<trkpt lat="45.9059080" lon="9.8365830">
	<ele>1980.00</ele>
	<time>2023-11-18T09:58:14.000Z</time>
</trkpt>
<trkpt lat="45.9059080" lon="9.8365830">
	<ele>1980.00</ele>
	<time>2023-11-18T09:58:15.000Z</time>
</trkpt>
<trkpt lat="45.9059080" lon="9.8365830">
	<ele>1980.00</ele>
	<time>2023-11-18T09:58:16.000Z</time>
</trkpt>
<trkpt lat="45.9059080" lon="9.8365830">
	<ele>1980.00</ele>
	<time>2023-11-18T09:58:17.000Z</time>
</trkpt>
<trkpt lat="45.9059080" lon="9.8365830">
	<ele>1980.00</ele>
	<time>2023-11-18T09:58:18.000Z</time>
</trkpt>
<trkpt lat="45.9059080" lon="9.8365840">
	<ele>1980.00</ele>
	<time>2023-11-18T09:58:19.000Z</time>
</trkpt>
<trkpt lat="45.9059080" lon="9.8365840">
	<ele>1980.00</ele>
	<time>2023-11-18T09:58:20.000Z</time>
</trkpt>
<trkpt lat="45.9059080" lon="9.8365840">
	<ele>1980.00</ele>
	<time>2023-11-18T09:58:21.000Z</time>
</trkpt>
<trkpt lat="45.9059080" lon="9.8365840">
	<ele>1980.00</ele>
	<time>2023-11-18T09:58:22.000Z</time>
</trkpt>
<trkpt lat="45.9059080" lon="9.8365840">
	<ele>1980.00</ele>
	<time>2023-11-18T09:58:23.000Z</time>
</trkpt>
<trkpt lat="45.9059080" lon="9.8365840">
	<ele>1980.00</ele>
	<time>2023-11-18T09:58:24.000Z</time>
</trkpt>
<trkpt lat="45.9059080" lon="9.8365840">
	<ele>1980.00</ele>
	<time>2023-11-18T09:58:25.000Z</time>
</trkpt>
<trkpt lat="45.9059080" lon="9.8365840">
	<ele>1980.00</ele>
	<time>2023-11-18T09:58:26.000Z</time>
</trkpt>
<trkpt lat="45.9059080" lon="9.8365840">
	<ele>1980.00</ele>
	<time>2023-11-18T09:58:27.000Z</time>
</trkpt>
<trkpt lat="45.9059080" lon="9.8365840">
	<ele>1980.00</ele>
	<time>2023-11-18T09:58:28.000Z</time>
</trkpt>
<trkpt lat="45.9059080" lon="9.8365840">
	<ele>1980.00</ele>
	<time>2023-11-18T09:58:29.000Z</time>
</trkpt>
<trkpt lat="45.9059080" lon="9.8365840">
	<ele>1980.00</ele>
	<time>2023-11-18T09:58:30.000Z</time>
</trkpt>
<trkpt lat="45.9059080" lon="9.8365840">
	<ele>1980.00</ele>
	<time>2023-11-18T09:58:31.000Z</time>
</trkpt>
<trkpt lat="45.9059080" lon="9.8365840">
	<ele>1980.00</ele>
	<time>2023-11-18T09:58:32.000Z</time>
</trkpt>
<trkpt lat="45.9059080" lon="9.8365840">
	<ele>1980.00</ele>
	<time>2023-11-18T09:58:33.000Z</time>
</trkpt>
<trkpt lat="45.9059080" lon="9.8365840">
	<ele>1980.00</ele>
	<time>2023-11-18T09:58:34.000Z</time>
</trkpt>
<trkpt lat="45.9059080" lon="9.8365840">
	<ele>1980.00</ele>
	<time>2023-11-18T09:58:35.000Z</time>
</trkpt>
<trkpt lat="45.9059080" lon="9.8365840">
	<ele>1980.00</ele>
	<time>2023-11-18T09:58:36.000Z</time>
</trkpt>
<trkpt lat="45.9059080" lon="9.8365840">
	<ele>1980.00</ele>
	<time>2023-11-18T09:58:37.000Z</time>
</trkpt>
<trkpt lat="45.9059080" lon="9.8365840">
	<ele>1980.00</ele>
	<time>2023-11-18T09:58:38.000Z</time>
</trkpt>
<trkpt lat="45.9059080" lon="9.8365840">
	<ele>1980.00</ele>
	<time>2023-11-18T09:58:39.000Z</time>
</trkpt>
<trkpt lat="45.9059080" lon="9.8365840">
	<ele>1980.00</ele>
	<time>2023-11-18T09:58:40.000Z</time>
</trkpt>
<trkpt lat="45.9059080" lon="9.8365840">
	<ele>1980.00</ele>
	<time>2023-11-18T09:58:41.000Z</time>
</trkpt>
<trkpt lat="45.9059080" lon="9.8365840">
	<ele>1980.00</ele>
	<time>2023-11-18T09:58:42.000Z</time>
</trkpt>
<trkpt lat="45.9059080" lon="9.8365840">
	<ele>1980.00</ele>
	<time>2023-11-18T09:58:43.000Z</time>
</trkpt>
<trkpt lat="45.9059080" lon="9.8365840">
	<ele>1980.00</ele>
	<time>2023-11-18T09:58:44.000Z</time>
</trkpt>
<trkpt lat="45.9059080" lon="9.8365840">
	<ele>1980.00</ele>
	<time>2023-11-18T09:58:45.000Z</time>
</trkpt>
<trkpt lat="45.9059080" lon="9.8365840">
	<ele>1980.00</ele>
	<time>2023-11-18T09:58:46.000Z</time>
</trkpt>
<trkpt lat="45.9059080" lon="9.8365840">
	<ele>1980.00</ele>
	<time>2023-11-18T09:58:47.000Z</time>
</trkpt>
<trkpt lat="45.9059080" lon="9.8365840">
	<ele>1980.00</ele>
	<time>2023-11-18T09:58:48.000Z</time>
</trkpt>
<trkpt lat="45.9059080" lon="9.8365840">
	<ele>1980.00</ele>
	<time>2023-11-18T09:58:49.000Z</time>
</trkpt>
<trkpt lat="45.9059080" lon="9.8365840">
	<ele>1980.00</ele>
	<time>2023-11-18T09:58:50.000Z</time>
</trkpt>
<trkpt lat="45.9059080" lon="9.8365840">
	<ele>1980.00</ele>
	<time>2023-11-18T09:58:51.000Z</time>
</trkpt>
<trkpt lat="45.9059080" lon="9.8365840">
	<ele>1980.00</ele>
	<time>2023-11-18T09:58:52.000Z</time>
</trkpt>
<trkpt lat="45.9059080" lon="9.8365840">
	<ele>1980.00</ele>
	<time>2023-11-18T09:58:53.000Z</time>
</trkpt>
<trkpt lat="45.9059080" lon="9.8365840">
	<ele>1980.00</ele>
	<time>2023-11-18T09:58:54.000Z</time>
</trkpt>
<trkpt lat="45.9059080" lon="9.8365840">
	<ele>1980.00</ele>
	<time>2023-11-18T09:58:55.000Z</time>
</trkpt>
<trkpt lat="45.9059080" lon="9.8365840">
	<ele>1980.00</ele>
	<time>2023-11-18T09:58:56.000Z</time>
</trkpt>
<trkpt lat="45.9059080" lon="9.8365840">
	<ele>1980.00</ele>
	<time>2023-11-18T09:58:57.000Z</time>
</trkpt>
<trkpt lat="45.9059080" lon="9.8365840">
	<ele>1980.00</ele>
	<time>2023-11-18T09:58:58.000Z</time>
</trkpt>
<trkpt lat="45.9059080" lon="9.8365840">
	<ele>1980.00</ele>
	<time>2023-11-18T09:58:59.000Z</time>
</trkpt>
<trkpt lat="45.9059080" lon="9.8365840">
	<ele>1980.00</ele>
	<time>2023-11-18T09:59:00.000Z</time>
</trkpt>
<trkpt lat="45.9059080" lon="9.8365840">
	<ele>1980.00</ele>
	<time>2023-11-18T09:59:01.000Z</time>
</trkpt>
<trkpt lat="45.9059080" lon="9.8365840">
	<ele>1980.00</ele>
	<time>2023-11-18T09:59:02.000Z</time>
</trkpt>
<trkpt lat="45.9059080" lon="9.8365840">
	<ele>1980.00</ele>
	<time>2023-11-18T09:59:03.000Z</time>
</trkpt>
<trkpt lat="45.9059080" lon="9.8365840">
	<ele>1980.00</ele>
	<time>2023-11-18T09:59:04.000Z</time>
</trkpt>
<trkpt lat="45.9059080" lon="9.8365840">
	<ele>1980.00</ele>
	<time>2023-11-18T09:59:05.000Z</time>
</trkpt>
<trkpt lat="45.9059080" lon="9.8365840">
	<ele>1980.00</ele>
	<time>2023-11-18T09:59:06.000Z</time>
</trkpt>
<trkpt lat="45.9059080" lon="9.8365840">
	<ele>1980.00</ele>
	<time>2023-11-18T09:59:07.000Z</time>
</trkpt>
<trkpt lat="45.9059080" lon="9.8365840">
	<ele>1980.00</ele>
	<time>2023-11-18T09:59:08.000Z</time>
</trkpt>
<trkpt lat="45.9059090" lon="9.8365840">
	<ele>1980.00</ele>
	<time>2023-11-18T09:59:09.000Z</time>
</trkpt>
<trkpt lat="45.9059090" lon="9.8365840">
	<ele>1980.00</ele>
	<time>2023-11-18T09:59:10.000Z</time>
</trkpt>
<trkpt lat="45.9059090" lon="9.8365840">
	<ele>1980.00</ele>
	<time>2023-11-18T09:59:11.000Z</time>
</trkpt>
<trkpt lat="45.9059090" lon="9.8365840">
	<ele>1980.00</ele>
	<time>2023-11-18T09:59:12.000Z</time>
</trkpt>
<trkpt lat="45.9059090" lon="9.8365840">
	<ele>1980.00</ele>
	<time>2023-11-18T09:59:13.000Z</time>
</trkpt>
<trkpt lat="45.9059090" lon="9.8365840">
	<ele>1980.00</ele>
	<time>2023-11-18T09:59:14.000Z</time>
</trkpt>
<trkpt lat="45.9059090" lon="9.8365840">
	<ele>1980.00</ele>
	<time>2023-11-18T09:59:15.000Z</time>
</trkpt>
<trkpt lat="45.9059090" lon="9.8365840">
	<ele>1980.00</ele>
	<time>2023-11-18T09:59:16.000Z</time>
</trkpt>
<trkpt lat="45.9059090" lon="9.8365840">
	<ele>1980.00</ele>
	<time>2023-11-18T09:59:17.000Z</time>
</trkpt>
<trkpt lat="45.9059090" lon="9.8365840">
	<ele>1980.00</ele>
	<time>2023-11-18T09:59:18.000Z</time>
</trkpt>
<trkpt lat="45.9059090" lon="9.8365840">
	<ele>1980.00</ele>
	<time>2023-11-18T09:59:19.000Z</time>
</trkpt>
<trkpt lat="45.9059090" lon="9.8365840">
	<ele>1980.00</ele>
	<time>2023-11-18T09:59:20.000Z</time>
</trkpt>
<trkpt lat="45.9059090" lon="9.8365840">
	<ele>1980.00</ele>
	<time>2023-11-18T09:59:21.000Z</time>
</trkpt>
<trkpt lat="45.9059090" lon="9.8365840">
	<ele>1980.00</ele>
	<time>2023-11-18T09:59:22.000Z</time>
</trkpt>
<trkpt lat="45.9059090" lon="9.8365840">
	<ele>1980.00</ele>
	<time>2023-11-18T09:59:23.000Z</time>
</trkpt>
<trkpt lat="45.9059090" lon="9.8365840">
	<ele>1980.00</ele>
	<time>2023-11-18T09:59:24.000Z</time>
</trkpt>
<trkpt lat="45.9059090" lon="9.8365840">
	<ele>1980.00</ele>
	<time>2023-11-18T09:59:25.000Z</time>
</trkpt>
<trkpt lat="45.9059090" lon="9.8365840">
	<ele>1980.00</ele>
	<time>2023-11-18T09:59:26.000Z</time>
</trkpt>
<trkpt lat="45.9059090" lon="9.8365840">
	<ele>1980.00</ele>
	<time>2023-11-18T09:59:27.000Z</time>
</trkpt>
<trkpt lat="45.9059090" lon="9.8365840">
	<ele>1980.00</ele>
	<time>2023-11-18T09:59:28.000Z</time>
</trkpt>
<trkpt lat="45.9059090" lon="9.8365840">
	<ele>1980.00</ele>
	<time>2023-11-18T09:59:29.000Z</time>
</trkpt>
<trkpt lat="45.9059090" lon="9.8365840">
	<ele>1980.00</ele>
	<time>2023-11-18T09:59:30.000Z</time>
</trkpt>
<trkpt lat="45.9059090" lon="9.8365840">
	<ele>1980.00</ele>
	<time>2023-11-18T09:59:31.000Z</time>
</trkpt>
<trkpt lat="45.9059090" lon="9.8365840">
	<ele>1980.00</ele>
	<time>2023-11-18T09:59:32.000Z</time>
</trkpt>
<trkpt lat="45.9059090" lon="9.8365840">
	<ele>1980.00</ele>
	<time>2023-11-18T09:59:33.000Z</time>
</trkpt>
<trkpt lat="45.9059090" lon="9.8365840">
	<ele>1980.00</ele>
	<time>2023-11-18T09:59:34.000Z</time>
</trkpt>
<trkpt lat="45.9059090" lon="9.8365840">
	<ele>1980.00</ele>
	<time>2023-11-18T09:59:35.000Z</time>
</trkpt>
<trkpt lat="45.9059090" lon="9.8365840">
	<ele>1980.00</ele>
	<time>2023-11-18T09:59:36.000Z</time>
</trkpt>
<trkpt lat="45.9059090" lon="9.8365840">
	<ele>1980.00</ele>
	<time>2023-11-18T09:59:37.000Z</time>
</trkpt>
<trkpt lat="45.9059090" lon="9.8365840">
	<ele>1980.00</ele>
	<time>2023-11-18T09:59:38.000Z</time>
</trkpt>
<trkpt lat="45.9059090" lon="9.8365840">
	<ele>1980.00</ele>
	<time>2023-11-18T09:59:39.000Z</time>
</trkpt>
<trkpt lat="45.9059090" lon="9.8365840">
	<ele>1980.00</ele>
	<time>2023-11-18T09:59:40.000Z</time>
</trkpt>
<trkpt lat="45.9059090" lon="9.8365840">
	<ele>1980.00</ele>
	<time>2023-11-18T09:59:41.000Z</time>
</trkpt>
<trkpt lat="45.9059090" lon="9.8365840">
	<ele>1980.00</ele>
	<time>2023-11-18T09:59:42.000Z</time>
</trkpt>
<trkpt lat="45.9059090" lon="9.8365840">
	<ele>1980.00</ele>
	<time>2023-11-18T09:59:43.000Z</time>
</trkpt>
<trkpt lat="45.9059090" lon="9.8365840">
	<ele>1980.00</ele>
	<time>2023-11-18T09:59:44.000Z</time>
</trkpt>
<trkpt lat="45.9059090" lon="9.8365840">
	<ele>1980.00</ele>
	<time>2023-11-18T09:59:45.000Z</time>
</trkpt>
<trkpt lat="45.9059090" lon="9.8365840">
	<ele>1980.00</ele>
	<time>2023-11-18T09:59:46.000Z</time>
</trkpt>
<trkpt lat="45.9059090" lon="9.8365840">
	<ele>1980.00</ele>
	<time>2023-11-18T09:59:47.000Z</time>
</trkpt>
<trkpt lat="45.9059090" lon="9.8365840">
	<ele>1980.00</ele>
	<time>2023-11-18T09:59:48.000Z</time>
</trkpt>
<trkpt lat="45.9059090" lon="9.8365840">
	<ele>1980.00</ele>
	<time>2023-11-18T09:59:49.000Z</time>
</trkpt>
<trkpt lat="45.9059090" lon="9.8365840">
	<ele>1980.00</ele>
	<time>2023-11-18T09:59:50.000Z</time>
</trkpt>
<trkpt lat="45.9059090" lon="9.8365840">
	<ele>1980.00</ele>
	<time>2023-11-18T09:59:51.000Z</time>
</trkpt>
<trkpt lat="45.9059090" lon="9.8365840">
	<ele>1980.00</ele>
	<time>2023-11-18T09:59:52.000Z</time>
</trkpt>
<trkpt lat="45.9059090" lon="9.8365840">
	<ele>1980.00</ele>
	<time>2023-11-18T09:59:53.000Z</time>
</trkpt>
<trkpt lat="45.9059090" lon="9.8365840">
	<ele>1980.00</ele>
	<time>2023-11-18T09:59:54.000Z</time>
</trkpt>
<trkpt lat="45.9059090" lon="9.8365840">
	<ele>1980.00</ele>
	<time>2023-11-18T09:59:55.000Z</time>
</trkpt>
<trkpt lat="45.9059090" lon="9.8365840">
	<ele>1980.00</ele>
	<time>2023-11-18T09:59:56.000Z</time>
</trkpt>
<trkpt lat="45.9059090" lon="9.8365840">
	<ele>1980.00</ele>
	<time>2023-11-18T09:59:57.000Z</time>
</trkpt>
<trkpt lat="45.9059090" lon="9.8365840">
	<ele>1980.00</ele>
	<time>2023-11-18T09:59:58.000Z</time>
</trkpt>
<trkpt lat="45.9059090" lon="9.8365840">
	<ele>1980.00</ele>
	<time>2023-11-18T09:59:59.000Z</time>
</trkpt>
<trkpt lat="45.9059090" lon="9.8365840">
	<ele>1980.00</ele>
	<time>2023-11-18T10:00:00.000Z</time>
</trkpt>
<trkpt lat="45.9059090" lon="9.8365840">
	<ele>1980.00</ele>
	<time>2023-11-18T10:00:01.000Z</time>
</trkpt>
<trkpt lat="45.9059090" lon="9.8365840">
	<ele>1980.00</ele>
	<time>2023-11-18T10:00:02.000Z</time>
</trkpt>
<trkpt lat="45.9059090" lon="9.8365830">
	<ele>1980.00</ele>
	<time>2023-11-18T10:00:03.000Z</time>
</trkpt>
<trkpt lat="45.9059090" lon="9.8365830">
	<ele>1980.00</ele>
	<time>2023-11-18T10:00:04.000Z</time>
</trkpt>
<trkpt lat="45.9059090" lon="9.8365830">
	<ele>1980.00</ele>
	<time>2023-11-18T10:00:05.000Z</time>
</trkpt>
<trkpt lat="45.9059090" lon="9.8365830">
	<ele>1980.00</ele>
	<time>2023-11-18T10:00:06.000Z</time>
</trkpt>
<trkpt lat="45.9059090" lon="9.8365830">
	<ele>1980.00</ele>
	<time>2023-11-18T10:00:07.000Z</time>
</trkpt>
<trkpt lat="45.9059090" lon="9.8365830">
	<ele>1980.00</ele>
	<time>2023-11-18T10:00:08.000Z</time>
</trkpt>
<trkpt lat="45.9059090" lon="9.8365830">
	<ele>1980.00</ele>
	<time>2023-11-18T10:00:09.000Z</time>
</trkpt>
<trkpt lat="45.9059090" lon="9.8365830">
	<ele>1980.00</ele>
	<time>2023-11-18T10:00:10.000Z</time>
</trkpt>
<trkpt lat="45.9059090" lon="9.8365830">
	<ele>1980.00</ele>
	<time>2023-11-18T10:00:11.000Z</time>
</trkpt>
<trkpt lat="45.9059090" lon="9.8365830">
	<ele>1980.00</ele>
	<time>2023-11-18T10:00:12.000Z</time>
</trkpt>
<trkpt lat="45.9059090" lon="9.8365830">
	<ele>1980.00</ele>
	<time>2023-11-18T10:00:13.000Z</time>
</trkpt>
<trkpt lat="45.9059080" lon="9.8365830">
	<ele>1980.00</ele>
	<time>2023-11-18T10:00:14.000Z</time>
</trkpt>
<trkpt lat="45.9059080" lon="9.8365830">
	<ele>1980.00</ele>
	<time>2023-11-18T10:00:15.000Z</time>
</trkpt>
<trkpt lat="45.9059080" lon="9.8365830">
	<ele>1980.00</ele>
	<time>2023-11-18T10:00:16.000Z</time>
</trkpt>
<trkpt lat="45.9059080" lon="9.8365830">
	<ele>1980.00</ele>
	<time>2023-11-18T10:00:17.000Z</time>
</trkpt>
<trkpt lat="45.9059080" lon="9.8365830">
	<ele>1980.00</ele>
	<time>2023-11-18T10:00:18.000Z</time>
</trkpt>
<trkpt lat="45.9059080" lon="9.8365830">
	<ele>1980.00</ele>
	<time>2023-11-18T10:00:19.000Z</time>
</trkpt>
<trkpt lat="45.9059080" lon="9.8365830">
	<ele>1980.00</ele>
	<time>2023-11-18T10:00:20.000Z</time>
</trkpt>
<trkpt lat="45.9059080" lon="9.8365830">
	<ele>1980.00</ele>
	<time>2023-11-18T10:00:21.000Z</time>
</trkpt>
<trkpt lat="45.9059080" lon="9.8365830">
	<ele>1980.00</ele>
	<time>2023-11-18T10:00:22.000Z</time>
</trkpt>
<trkpt lat="45.9059080" lon="9.8365830">
	<ele>1980.00</ele>
	<time>2023-11-18T10:00:23.000Z</time>
</trkpt>
<trkpt lat="45.9059080" lon="9.8365830">
	<ele>1980.00</ele>
	<time>2023-11-18T10:00:24.000Z</time>
</trkpt>
<trkpt lat="45.9059080" lon="9.8365830">
	<ele>1980.00</ele>
	<time>2023-11-18T10:00:25.000Z</time>
</trkpt>
<trkpt lat="45.9059080" lon="9.8365830">
	<ele>1980.00</ele>
	<time>2023-11-18T10:00:26.000Z</time>
</trkpt>
<trkpt lat="45.9059080" lon="9.8365830">
	<ele>1980.00</ele>
	<time>2023-11-18T10:00:27.000Z</time>
</trkpt>
<trkpt lat="45.9059080" lon="9.8365830">
	<ele>1980.00</ele>
	<time>2023-11-18T10:00:28.000Z</time>
</trkpt>
<trkpt lat="45.9059080" lon="9.8365830">
	<ele>1980.00</ele>
	<time>2023-11-18T10:00:29.000Z</time>
</trkpt>
<trkpt lat="45.9059080" lon="9.8365830">
	<ele>1980.00</ele>
	<time>2023-11-18T10:00:30.000Z</time>
</trkpt>
<trkpt lat="45.9059080" lon="9.8365830">
	<ele>1980.00</ele>
	<time>2023-11-18T10:00:31.000Z</time>
</trkpt>
<trkpt lat="45.9059080" lon="9.8365830">
	<ele>1980.00</ele>
	<time>2023-11-18T10:00:32.000Z</time>
</trkpt>
<trkpt lat="45.9059080" lon="9.8365830">
	<ele>1980.00</ele>
	<time>2023-11-18T10:00:33.000Z</time>
</trkpt>
<trkpt lat="45.9059080" lon="9.8365830">
	<ele>1980.00</ele>
	<time>2023-11-18T10:00:34.000Z</time>
</trkpt>
<trkpt lat="45.9059080" lon="9.8365830">
	<ele>1980.00</ele>
	<time>2023-11-18T10:00:35.000Z</time>
</trkpt>
<trkpt lat="45.9059080" lon="9.8365830">
	<ele>1980.00</ele>
	<time>2023-11-18T10:00:36.000Z</time>
</trkpt>
<trkpt lat="45.9059080" lon="9.8365830">
	<ele>1980.00</ele>
	<time>2023-11-18T10:00:37.000Z</time>
</trkpt>
<trkpt lat="45.9059080" lon="9.8365830">
	<ele>1980.00</ele>
	<time>2023-11-18T10:00:38.000Z</time>
</trkpt>
<trkpt lat="45.9059080" lon="9.8365830">
	<ele>1980.00</ele>
	<time>2023-11-18T10:00:39.000Z</time>
</trkpt>
<trkpt lat="45.9059080" lon="9.8365830">
	<ele>1980.00</ele>
	<time>2023-11-18T10:00:40.000Z</time>
</trkpt>
<trkpt lat="45.9059080" lon="9.8365830">
	<ele>1980.00</ele>
	<time>2023-11-18T10:00:41.000Z</time>
</trkpt>
<trkpt lat="45.9059080" lon="9.8365830">
	<ele>1980.00</ele>
	<time>2023-11-18T10:00:42.000Z</time>
</trkpt>
<trkpt lat="45.9059080" lon="9.8365830">
	<ele>1980.00</ele>
	<time>2023-11-18T10:00:43.000Z</time>
</trkpt>
<trkpt lat="45.9059080" lon="9.8365830">
	<ele>1980.00</ele>
	<time>2023-11-18T10:00:44.000Z</time>
</trkpt>
<trkpt lat="45.9059080" lon="9.8365830">
	<ele>1980.00</ele>
	<time>2023-11-18T10:00:45.000Z</time>
</trkpt>
<trkpt lat="45.9059080" lon="9.8365830">
	<ele>1980.00</ele>
	<time>2023-11-18T10:00:46.000Z</time>
</trkpt>
<trkpt lat="45.9059080" lon="9.8365830">
	<ele>1980.00</ele>
	<time>2023-11-18T10:00:47.000Z</time>
</trkpt>
<trkpt lat="45.9059080" lon="9.8365830">
	<ele>1980.00</ele>
	<time>2023-11-18T10:00:48.000Z</time>
</trkpt>
<trkpt lat="45.9059080" lon="9.8365830">
	<ele>1980.00</ele>
	<time>2023-11-18T10:00:49.000Z</time>
</trkpt>
<trkpt lat="45.9059080" lon="9.8365830">
	<ele>1980.00</ele>
	<time>2023-11-18T10:00:50.000Z</time>
</trkpt>
<trkpt lat="45.9059080" lon="9.8365830">
	<ele>1980.00</ele>
	<time>2023-11-18T10:00:51.000Z</time>
</trkpt>
<trkpt lat="45.9059080" lon="9.8365830">
	<ele>1980.00</ele>
	<time>2023-11-18T10:00:52.000Z</time>
</trkpt>
<trkpt lat="45.9059080" lon="9.8365830">
	<ele>1980.00</ele>
	<time>2023-11-18T10:00:53.000Z</time>
</trkpt>
<trkpt lat="45.9059080" lon="9.8365830">
	<ele>1980.00</ele>
	<time>2023-11-18T10:00:54.000Z</time>
</trkpt>
<trkpt lat="45.9059080" lon="9.8365830">
	<ele>1980.00</ele>
	<time>2023-11-18T10:00:55.000Z</time>
</trkpt>
<trkpt lat="45.9059080" lon="9.8365830">
	<ele>1980.00</ele>
	<time>2023-11-18T10:00:56.000Z</time>
</trkpt>
<trkpt lat="45.9059080" lon="9.8365830">
	<ele>1980.00</ele>
	<time>2023-11-18T10:00:57.000Z</time>
</trkpt>
<trkpt lat="45.9059080" lon="9.8365830">
	<ele>1980.00</ele>
	<time>2023-11-18T10:00:58.000Z</time>
</trkpt>
<trkpt lat="45.9059080" lon="9.8365830">
	<ele>1980.00</ele>
	<time>2023-11-18T10:00:59.000Z</time>
</trkpt>
<trkpt lat="45.9059080" lon="9.8365830">
	<ele>1980.00</ele>
	<time>2023-11-18T10:01:00.000Z</time>
</trkpt>
<trkpt lat="45.9059080" lon="9.8365830">
	<ele>1980.00</ele>
	<time>2023-11-18T10:01:01.000Z</time>
</trkpt>
<trkpt lat="45.9059080" lon="9.8365830">
	<ele>1980.00</ele>
	<time>2023-11-18T10:01:02.000Z</time>
</trkpt>
<trkpt lat="45.9059080" lon="9.8365830">
	<ele>1980.00</ele>
	<time>2023-11-18T10:01:03.000Z</time>
</trkpt>
<trkpt lat="45.9059080" lon="9.8365830">
	<ele>1980.00</ele>
	<time>2023-11-18T10:01:04.000Z</time>
</trkpt>
<trkpt lat="45.9059080" lon="9.8365830">
	<ele>1980.00</ele>
	<time>2023-11-18T10:01:05.000Z</time>
</trkpt>
<trkpt lat="45.9059080" lon="9.8365830">
	<ele>1980.00</ele>
	<time>2023-11-18T10:01:06.000Z</time>
</trkpt>
<trkpt lat="45.9059080" lon="9.8365830">
	<ele>1980.00</ele>
	<time>2023-11-18T10:01:07.000Z</time>
</trkpt>
<trkpt lat="45.9059080" lon="9.8365830">
	<ele>1980.00</ele>
	<time>2023-11-18T10:01:08.000Z</time>
</trkpt>
<trkpt lat="45.9059080" lon="9.8365830">
	<ele>1980.00</ele>
	<time>2023-11-18T10:01:09.000Z</time>
</trkpt>
<trkpt lat="45.9059080" lon="9.8365830">
	<ele>1980.00</ele>
	<time>2023-11-18T10:01:10.000Z</time>
</trkpt>
<trkpt lat="45.9059080" lon="9.8365830">
	<ele>1980.00</ele>
	<time>2023-11-18T10:01:11.000Z</time>
</trkpt>
<trkpt lat="45.9059080" lon="9.8365830">
	<ele>1980.00</ele>
	<time>2023-11-18T10:01:12.000Z</time>
</trkpt>
<trkpt lat="45.9059080" lon="9.8365830">
	<ele>1980.00</ele>
	<time>2023-11-18T10:01:13.000Z</time>
</trkpt>
<trkpt lat="45.9059080" lon="9.8365830">
	<ele>1980.00</ele>
	<time>2023-11-18T10:01:14.000Z</time>
</trkpt>
<trkpt lat="45.9059080" lon="9.8365830">
	<ele>1980.00</ele>
	<time>2023-11-18T10:01:15.000Z</time>
</trkpt>
<trkpt lat="45.9059080" lon="9.8365830">
	<ele>1980.00</ele>
	<time>2023-11-18T10:01:16.000Z</time>
</trkpt>
<trkpt lat="45.9059080" lon="9.8365830">
	<ele>1980.00</ele>
	<time>2023-11-18T10:01:17.000Z</time>
</trkpt>
<trkpt lat="45.9059080" lon="9.8365830">
	<ele>1980.00</ele>
	<time>2023-11-18T10:01:18.000Z</time>
</trkpt>
<trkpt lat="45.9059080" lon="9.8365830">
	<ele>1980.00</ele>
	<time>2023-11-18T10:01:19.000Z</time>
</trkpt>
<trkpt lat="45.9059080" lon="9.8365830">
	<ele>1980.00</ele>
	<time>2023-11-18T10:01:20.000Z</time>
</trkpt>
<trkpt lat="45.9059080" lon="9.8365830">
	<ele>1980.00</ele>
	<time>2023-11-18T10:01:21.000Z</time>
</trkpt>
<trkpt lat="45.9059080" lon="9.8365830">
	<ele>1980.00</ele>
	<time>2023-11-18T10:01:22.000Z</time>
</trkpt>
<trkpt lat="45.9059080" lon="9.8365830">
	<ele>1980.00</ele>
	<time>2023-11-18T10:01:23.000Z</time>
</trkpt>
<trkpt lat="45.9059080" lon="9.8365830">
	<ele>1980.00</ele>
	<time>2023-11-18T10:01:24.000Z</time>
</trkpt>
<trkpt lat="45.9059080" lon="9.8365830">
	<ele>1980.00</ele>
	<time>2023-11-18T10:01:25.000Z</time>
</trkpt>
<trkpt lat="45.9059080" lon="9.8365830">
	<ele>1980.00</ele>
	<time>2023-11-18T10:01:26.000Z</time>
</trkpt>
<trkpt lat="45.9059080" lon="9.8365830">
	<ele>1980.00</ele>
	<time>2023-11-18T10:01:27.000Z</time>
</trkpt>
<trkpt lat="45.9059080" lon="9.8365830">
	<ele>1980.00</ele>
	<time>2023-11-18T10:01:28.000Z</time>
</trkpt>
<trkpt lat="45.9059080" lon="9.8365830">
	<ele>1980.00</ele>
	<time>2023-11-18T10:01:29.000Z</time>
</trkpt>
<trkpt lat="45.9059080" lon="9.8365830">
	<ele>1980.00</ele>
	<time>2023-11-18T10:01:30.000Z</time>
</trkpt>
<trkpt lat="45.9059080" lon="9.8365820">
	<ele>1980.00</ele>
	<time>2023-11-18T10:01:31.000Z</time>
</trkpt>
<trkpt lat="45.9059080" lon="9.8365820">
	<ele>1980.00</ele>
	<time>2023-11-18T10:01:32.000Z</time>
</trkpt>
<trkpt lat="45.9059080" lon="9.8365820">
	<ele>1980.00</ele>
	<time>2023-11-18T10:01:33.000Z</time>
</trkpt>
<trkpt lat="45.9059080" lon="9.8365820">
	<ele>1980.00</ele>
	<time>2023-11-18T10:01:34.000Z</time>
</trkpt>
<trkpt lat="45.9059080" lon="9.8365820">
	<ele>1980.00</ele>
	<time>2023-11-18T10:01:35.000Z</time>
</trkpt>
<trkpt lat="45.9059080" lon="9.8365820">
	<ele>1980.00</ele>
	<time>2023-11-18T10:01:36.000Z</time>
</trkpt>
<trkpt lat="45.9059080" lon="9.8365820">
	<ele>1980.00</ele>
	<time>2023-11-18T10:01:37.000Z</time>
</trkpt>
<trkpt lat="45.9059080" lon="9.8365820">
	<ele>1980.00</ele>
	<time>2023-11-18T10:01:38.000Z</time>
</trkpt>
<trkpt lat="45.9059080" lon="9.8365820">
	<ele>1980.00</ele>
	<time>2023-11-18T10:01:39.000Z</time>
</trkpt>
<trkpt lat="45.9059080" lon="9.8365820">
	<ele>1980.00</ele>
	<time>2023-11-18T10:01:40.000Z</time>
</trkpt>
<trkpt lat="45.9059080" lon="9.8365820">
	<ele>1980.00</ele>
	<time>2023-11-18T10:01:41.000Z</time>
</trkpt>
<trkpt lat="45.9059080" lon="9.8365820">
	<ele>1980.00</ele>
	<time>2023-11-18T10:01:42.000Z</time>
</trkpt>
<trkpt lat="45.9059080" lon="9.8365820">
	<ele>1980.00</ele>
	<time>2023-11-18T10:01:43.000Z</time>
</trkpt>
<trkpt lat="45.9059080" lon="9.8365820">
	<ele>1980.00</ele>
	<time>2023-11-18T10:01:44.000Z</time>
</trkpt>
<trkpt lat="45.9059080" lon="9.8365820">
	<ele>1980.00</ele>
	<time>2023-11-18T10:01:45.000Z</time>
</trkpt>
<trkpt lat="45.9059080" lon="9.8365820">
	<ele>1980.00</ele>
	<time>2023-11-18T10:01:46.000Z</time>
</trkpt>
<trkpt lat="45.9059080" lon="9.8365820">
	<ele>1980.00</ele>
	<time>2023-11-18T10:01:47.000Z</time>
</trkpt>
<trkpt lat="45.9059080" lon="9.8365820">
	<ele>1980.00</ele>
	<time>2023-11-18T10:01:48.000Z</time>
</trkpt>
<trkpt lat="45.9059080" lon="9.8365820">
	<ele>1980.00</ele>
	<time>2023-11-18T10:01:49.000Z</time>
</trkpt>
<trkpt lat="45.9059080" lon="9.8365820">
	<ele>1980.00</ele>
	<time>2023-11-18T10:01:50.000Z</time>
</trkpt>
<trkpt lat="45.9059080" lon="9.8365820">
	<ele>1980.00</ele>
	<time>2023-11-18T10:01:51.000Z</time>
</trkpt>
<trkpt lat="45.9059080" lon="9.8365820">
	<ele>1980.00</ele>
	<time>2023-11-18T10:01:52.000Z</time>
</trkpt>
<trkpt lat="45.9059080" lon="9.8365820">
	<ele>1980.00</ele>
	<time>2023-11-18T10:01:53.000Z</time>
</trkpt>
<trkpt lat="45.9059080" lon="9.8365820">
	<ele>1980.00</ele>
	<time>2023-11-18T10:01:54.000Z</time>
</trkpt>
<trkpt lat="45.9059080" lon="9.8365820">
	<ele>1980.00</ele>
	<time>2023-11-18T10:01:55.000Z</time>
</trkpt>
<trkpt lat="45.9059080" lon="9.8365820">
	<ele>1980.00</ele>
	<time>2023-11-18T10:01:56.000Z</time>
</trkpt>
<trkpt lat="45.9059080" lon="9.8365820">
	<ele>1980.00</ele>
	<time>2023-11-18T10:01:57.000Z</time>
</trkpt>
<trkpt lat="45.9059080" lon="9.8365820">
	<ele>1980.00</ele>
	<time>2023-11-18T10:01:58.000Z</time>
</trkpt>
<trkpt lat="45.9059080" lon="9.8365820">
	<ele>1980.00</ele>
	<time>2023-11-18T10:01:59.000Z</time>
</trkpt>
<trkpt lat="45.9059080" lon="9.8365820">
	<ele>1980.00</ele>
	<time>2023-11-18T10:02:00.000Z</time>
</trkpt>
<trkpt lat="45.9059080" lon="9.8365820">
	<ele>1980.00</ele>
	<time>2023-11-18T10:02:01.000Z</time>
</trkpt>
<trkpt lat="45.9059080" lon="9.8365820">
	<ele>1980.00</ele>
	<time>2023-11-18T10:02:02.000Z</time>
</trkpt>
<trkpt lat="45.9059080" lon="9.8365820">
	<ele>1980.00</ele>
	<time>2023-11-18T10:02:03.000Z</time>
</trkpt>
<trkpt lat="45.9059080" lon="9.8365820">
	<ele>1980.00</ele>
	<time>2023-11-18T10:02:04.000Z</time>
</trkpt>
<trkpt lat="45.9059080" lon="9.8365820">
	<ele>1980.00</ele>
	<time>2023-11-18T10:02:05.000Z</time>
</trkpt>
<trkpt lat="45.9059080" lon="9.8365820">
	<ele>1980.00</ele>
	<time>2023-11-18T10:02:06.000Z</time>
</trkpt>
<trkpt lat="45.9059080" lon="9.8365820">
	<ele>1980.00</ele>
	<time>2023-11-18T10:02:07.000Z</time>
</trkpt>
<trkpt lat="45.9059080" lon="9.8365820">
	<ele>1980.00</ele>
	<time>2023-11-18T10:02:08.000Z</time>
</trkpt>
<trkpt lat="45.9059080" lon="9.8365820">
	<ele>1980.00</ele>
	<time>2023-11-18T10:02:09.000Z</time>
</trkpt>
<trkpt lat="45.9059080" lon="9.8365820">
	<ele>1980.00</ele>
	<time>2023-11-18T10:02:10.000Z</time>
</trkpt>
<trkpt lat="45.9059080" lon="9.8365820">
	<ele>1980.00</ele>
	<time>2023-11-18T10:02:11.000Z</time>
</trkpt>
<trkpt lat="45.9059080" lon="9.8365820">
	<ele>1980.00</ele>
	<time>2023-11-18T10:02:12.000Z</time>
</trkpt>
<trkpt lat="45.9059080" lon="9.8365820">
	<ele>1980.00</ele>
	<time>2023-11-18T10:02:13.000Z</time>
</trkpt>
<trkpt lat="45.9059080" lon="9.8365820">
	<ele>1980.00</ele>
	<time>2023-11-18T10:02:14.000Z</time>
</trkpt>
<trkpt lat="45.9059080" lon="9.8365820">
	<ele>1980.00</ele>
	<time>2023-11-18T10:02:15.000Z</time>
</trkpt>
<trkpt lat="45.9059080" lon="9.8365820">
	<ele>1980.00</ele>
	<time>2023-11-18T10:02:16.000Z</time>
</trkpt>
<trkpt lat="45.9059080" lon="9.8365810">
	<ele>1980.00</ele>
	<time>2023-11-18T10:02:17.000Z</time>
</trkpt>
<trkpt lat="45.9059080" lon="9.8365810">
	<ele>1980.00</ele>
	<time>2023-11-18T10:02:18.000Z</time>
</trkpt>
<trkpt lat="45.9059080" lon="9.8365810">
	<ele>1980.00</ele>
	<time>2023-11-18T10:02:19.000Z</time>
</trkpt>
<trkpt lat="45.9059080" lon="9.8365810">
	<ele>1980.00</ele>
	<time>2023-11-18T10:02:20.000Z</time>
</trkpt>
<trkpt lat="45.9059080" lon="9.8365810">
	<ele>1980.00</ele>
	<time>2023-11-18T10:02:21.000Z</time>
</trkpt>
<trkpt lat="45.9059080" lon="9.8365810">
	<ele>1980.00</ele>
	<time>2023-11-18T10:02:22.000Z</time>
</trkpt>
<trkpt lat="45.9059080" lon="9.8365810">
	<ele>1980.00</ele>
	<time>2023-11-18T10:02:23.000Z</time>
</trkpt>
<trkpt lat="45.9059080" lon="9.8365810">
	<ele>1980.00</ele>
	<time>2023-11-18T10:02:24.000Z</time>
</trkpt>
<trkpt lat="45.9059080" lon="9.8365810">
	<ele>1980.00</ele>
	<time>2023-11-18T10:02:25.000Z</time>
</trkpt>
<trkpt lat="45.9059080" lon="9.8365810">
	<ele>1980.00</ele>
	<time>2023-11-18T10:02:26.000Z</time>
</trkpt>
<trkpt lat="45.9059080" lon="9.8365810">
	<ele>1980.00</ele>
	<time>2023-11-18T10:02:27.000Z</time>
</trkpt>
<trkpt lat="45.9059080" lon="9.8365810">
	<ele>1980.00</ele>
	<time>2023-11-18T10:02:28.000Z</time>
</trkpt>
<trkpt lat="45.9059080" lon="9.8365810">
	<ele>1980.00</ele>
	<time>2023-11-18T10:02:29.000Z</time>
</trkpt>
<trkpt lat="45.9059080" lon="9.8365810">
	<ele>1980.00</ele>
	<time>2023-11-18T10:02:30.000Z</time>
</trkpt>
<trkpt lat="45.9059080" lon="9.8365810">
	<ele>1980.00</ele>
	<time>2023-11-18T10:02:31.000Z</time>
</trkpt>
<trkpt lat="45.9059080" lon="9.8365800">
	<ele>1980.00</ele>
	<time>2023-11-18T10:02:32.000Z</time>
</trkpt>
<trkpt lat="45.9059080" lon="9.8365800">
	<ele>1980.00</ele>
	<time>2023-11-18T10:02:33.000Z</time>
</trkpt>
<trkpt lat="45.9059070" lon="9.8365800">
	<ele>1980.00</ele>
	<time>2023-11-18T10:02:34.000Z</time>
</trkpt>
<trkpt lat="45.9059070" lon="9.8365800">
	<ele>1980.00</ele>
	<time>2023-11-18T10:02:35.000Z</time>
</trkpt>
<trkpt lat="45.9059070" lon="9.8365800">
	<ele>1980.00</ele>
	<time>2023-11-18T10:02:36.000Z</time>
</trkpt>
<trkpt lat="45.9059070" lon="9.8365800">
	<ele>1980.00</ele>
	<time>2023-11-18T10:02:37.000Z</time>
</trkpt>
<trkpt lat="45.9059070" lon="9.8365800">
	<ele>1980.00</ele>
	<time>2023-11-18T10:02:38.000Z</time>
</trkpt>
<trkpt lat="45.9059070" lon="9.8365800">
	<ele>1980.00</ele>
	<time>2023-11-18T10:02:39.000Z</time>
</trkpt>
<trkpt lat="45.9059070" lon="9.8365800">
	<ele>1980.00</ele>
	<time>2023-11-18T10:02:40.000Z</time>
</trkpt>
<trkpt lat="45.9059070" lon="9.8365800">
	<ele>1980.00</ele>
	<time>2023-11-18T10:02:41.000Z</time>
</trkpt>
<trkpt lat="45.9059070" lon="9.8365800">
	<ele>1980.00</ele>
	<time>2023-11-18T10:02:42.000Z</time>
</trkpt>
<trkpt lat="45.9059070" lon="9.8365800">
	<ele>1980.00</ele>
	<time>2023-11-18T10:02:43.000Z</time>
</trkpt>
<trkpt lat="45.9059070" lon="9.8365800">
	<ele>1980.00</ele>
	<time>2023-11-18T10:02:44.000Z</time>
</trkpt>
<trkpt lat="45.9059070" lon="9.8365800">
	<ele>1980.00</ele>
	<time>2023-11-18T10:02:45.000Z</time>
</trkpt>
<trkpt lat="45.9059070" lon="9.8365800">
	<ele>1980.00</ele>
	<time>2023-11-18T10:02:46.000Z</time>
</trkpt>
<trkpt lat="45.9059070" lon="9.8365800">
	<ele>1980.00</ele>
	<time>2023-11-18T10:02:47.000Z</time>
</trkpt>
<trkpt lat="45.9059070" lon="9.8365800">
	<ele>1980.00</ele>
	<time>2023-11-18T10:02:48.000Z</time>
</trkpt>
<trkpt lat="45.9059070" lon="9.8365800">
	<ele>1980.00</ele>
	<time>2023-11-18T10:02:49.000Z</time>
</trkpt>
<trkpt lat="45.9059070" lon="9.8365800">
	<ele>1980.00</ele>
	<time>2023-11-18T10:02:50.000Z</time>
</trkpt>
<trkpt lat="45.9059070" lon="9.8365800">
	<ele>1980.00</ele>
	<time>2023-11-18T10:02:51.000Z</time>
</trkpt>
<trkpt lat="45.9059070" lon="9.8365800">
	<ele>1980.00</ele>
	<time>2023-11-18T10:02:52.000Z</time>
</trkpt>
<trkpt lat="45.9059070" lon="9.8365800">
	<ele>1980.00</ele>
	<time>2023-11-18T10:02:53.000Z</time>
</trkpt>
<trkpt lat="45.9059070" lon="9.8365800">
	<ele>1980.00</ele>
	<time>2023-11-18T10:02:54.000Z</time>
</trkpt>
<trkpt lat="45.9059070" lon="9.8365800">
	<ele>1980.00</ele>
	<time>2023-11-18T10:02:55.000Z</time>
</trkpt>
<trkpt lat="45.9059070" lon="9.8365800">
	<ele>1980.00</ele>
	<time>2023-11-18T10:02:56.000Z</time>
</trkpt>
<trkpt lat="45.9059070" lon="9.8365800">
	<ele>1980.00</ele>
	<time>2023-11-18T10:02:57.000Z</time>
</trkpt>
<trkpt lat="45.9059070" lon="9.8365800">
	<ele>1980.00</ele>
	<time>2023-11-18T10:02:58.000Z</time>
</trkpt>
<trkpt lat="45.9059070" lon="9.8365800">
	<ele>1980.00</ele>
	<time>2023-11-18T10:02:59.000Z</time>
</trkpt>
<trkpt lat="45.9059070" lon="9.8365800">
	<ele>1980.00</ele>
	<time>2023-11-18T10:03:00.000Z</time>
</trkpt>
<trkpt lat="45.9059070" lon="9.8365800">
	<ele>1980.00</ele>
	<time>2023-11-18T10:03:01.000Z</time>
</trkpt>
<trkpt lat="45.9059070" lon="9.8365800">
	<ele>1980.00</ele>
	<time>2023-11-18T10:03:02.000Z</time>
</trkpt>
<trkpt lat="45.9059070" lon="9.8365800">
	<ele>1980.00</ele>
	<time>2023-11-18T10:03:03.000Z</time>
</trkpt>
<trkpt lat="45.9059070" lon="9.8365800">
	<ele>1980.00</ele>
	<time>2023-11-18T10:03:04.000Z</time>
</trkpt>
<trkpt lat="45.9059070" lon="9.8365800">
	<ele>1980.00</ele>
	<time>2023-11-18T10:03:05.000Z</time>
</trkpt>
<trkpt lat="45.9059070" lon="9.8365800">
	<ele>1980.00</ele>
	<time>2023-11-18T10:03:06.000Z</time>
</trkpt>
<trkpt lat="45.9059070" lon="9.8365800">
	<ele>1980.00</ele>
	<time>2023-11-18T10:03:07.000Z</time>
</trkpt>
<trkpt lat="45.9059070" lon="9.8365800">
	<ele>1980.00</ele>
	<time>2023-11-18T10:03:08.000Z</time>
</trkpt>
<trkpt lat="45.9059070" lon="9.8365800">
	<ele>1980.00</ele>
	<time>2023-11-18T10:03:09.000Z</time>
</trkpt>
<trkpt lat="45.9059070" lon="9.8365800">
	<ele>1980.00</ele>
	<time>2023-11-18T10:03:10.000Z</time>
</trkpt>
<trkpt lat="45.9059070" lon="9.8365800">
	<ele>1980.00</ele>
	<time>2023-11-18T10:03:11.000Z</time>
</trkpt>
<trkpt lat="45.9059070" lon="9.8365800">
	<ele>1980.00</ele>
	<time>2023-11-18T10:03:12.000Z</time>
</trkpt>
<trkpt lat="45.9059060" lon="9.8365800">
	<ele>1980.00</ele>
	<time>2023-11-18T10:03:13.000Z</time>
</trkpt>
<trkpt lat="45.9059060" lon="9.8365800">
	<ele>1980.00</ele>
	<time>2023-11-18T10:03:14.000Z</time>
</trkpt>
<trkpt lat="45.9059060" lon="9.8365800">
	<ele>1980.00</ele>
	<time>2023-11-18T10:03:15.000Z</time>
</trkpt>
<trkpt lat="45.9059060" lon="9.8365790">
	<ele>1980.00</ele>
	<time>2023-11-18T10:03:16.000Z</time>
</trkpt>
<trkpt lat="45.9059060" lon="9.8365800">
	<ele>1980.00</ele>
	<time>2023-11-18T10:03:17.000Z</time>
</trkpt>
<trkpt lat="45.9059060" lon="9.8365800">
	<ele>1980.00</ele>
	<time>2023-11-18T10:03:18.000Z</time>
</trkpt>
<trkpt lat="45.9059060" lon="9.8365800">
	<ele>1980.00</ele>
	<time>2023-11-18T10:03:19.000Z</time>
</trkpt>
<trkpt lat="45.9059060" lon="9.8365790">
	<ele>1980.00</ele>
	<time>2023-11-18T10:03:20.000Z</time>
</trkpt>
<trkpt lat="45.9059060" lon="9.8365790">
	<ele>1980.00</ele>
	<time>2023-11-18T10:03:21.000Z</time>
</trkpt>
<trkpt lat="45.9059060" lon="9.8365790">
	<ele>1980.00</ele>
	<time>2023-11-18T10:03:22.000Z</time>
</trkpt>
<trkpt lat="45.9059060" lon="9.8365790">
	<ele>1980.00</ele>
	<time>2023-11-18T10:03:23.000Z</time>
</trkpt>
<trkpt lat="45.9059060" lon="9.8365790">
	<ele>1980.00</ele>
	<time>2023-11-18T10:03:24.000Z</time>
</trkpt>
<trkpt lat="45.9059060" lon="9.8365790">
	<ele>1980.00</ele>
	<time>2023-11-18T10:03:25.000Z</time>
</trkpt>
<trkpt lat="45.9059060" lon="9.8365790">
	<ele>1980.00</ele>
	<time>2023-11-18T10:03:26.000Z</time>
</trkpt>
<trkpt lat="45.9059060" lon="9.8365790">
	<ele>1980.00</ele>
	<time>2023-11-18T10:03:27.000Z</time>
</trkpt>
<trkpt lat="45.9059060" lon="9.8365790">
	<ele>1980.00</ele>
	<time>2023-11-18T10:03:28.000Z</time>
</trkpt>
<trkpt lat="45.9059060" lon="9.8365790">
	<ele>1980.00</ele>
	<time>2023-11-18T10:03:29.000Z</time>
</trkpt>
<trkpt lat="45.9059060" lon="9.8365790">
	<ele>1980.00</ele>
	<time>2023-11-18T10:03:30.000Z</time>
</trkpt>
<trkpt lat="45.9059060" lon="9.8365790">
	<ele>1980.00</ele>
	<time>2023-11-18T10:03:31.000Z</time>
</trkpt>
<trkpt lat="45.9059060" lon="9.8365790">
	<ele>1980.00</ele>
	<time>2023-11-18T10:03:32.000Z</time>
</trkpt>
<trkpt lat="45.9059060" lon="9.8365790">
	<ele>1980.00</ele>
	<time>2023-11-18T10:03:33.000Z</time>
</trkpt>
<trkpt lat="45.9059060" lon="9.8365790">
	<ele>1980.00</ele>
	<time>2023-11-18T10:03:34.000Z</time>
</trkpt>
<trkpt lat="45.9059060" lon="9.8365790">
	<ele>1980.00</ele>
	<time>2023-11-18T10:03:35.000Z</time>
</trkpt>
<trkpt lat="45.9059060" lon="9.8365790">
	<ele>1980.00</ele>
	<time>2023-11-18T10:03:36.000Z</time>
</trkpt>
<trkpt lat="45.9059060" lon="9.8365790">
	<ele>1980.00</ele>
	<time>2023-11-18T10:03:37.000Z</time>
</trkpt>
<trkpt lat="45.9059060" lon="9.8365790">
	<ele>1980.00</ele>
	<time>2023-11-18T10:03:38.000Z</time>
</trkpt>
<trkpt lat="45.9059060" lon="9.8365790">
	<ele>1980.00</ele>
	<time>2023-11-18T10:03:39.000Z</time>
</trkpt>
<trkpt lat="45.9059050" lon="9.8365790">
	<ele>1980.00</ele>
	<time>2023-11-18T10:03:40.000Z</time>
</trkpt>
<trkpt lat="45.9059050" lon="9.8365790">
	<ele>1980.00</ele>
	<time>2023-11-18T10:03:41.000Z</time>
</trkpt>
<trkpt lat="45.9059050" lon="9.8365790">
	<ele>1980.00</ele>
	<time>2023-11-18T10:03:42.000Z</time>
</trkpt>
<trkpt lat="45.9059050" lon="9.8365790">
	<ele>1980.00</ele>
	<time>2023-11-18T10:03:43.000Z</time>
</trkpt>
<trkpt lat="45.9059050" lon="9.8365790">
	<ele>1980.00</ele>
	<time>2023-11-18T10:03:44.000Z</time>
</trkpt>
<trkpt lat="45.9059050" lon="9.8365790">
	<ele>1980.00</ele>
	<time>2023-11-18T10:03:45.000Z</time>
</trkpt>
<trkpt lat="45.9059050" lon="9.8365790">
	<ele>1980.00</ele>
	<time>2023-11-18T10:03:46.000Z</time>
</trkpt>
<trkpt lat="45.9059050" lon="9.8365790">
	<ele>1980.00</ele>
	<time>2023-11-18T10:03:47.000Z</time>
</trkpt>
<trkpt lat="45.9059050" lon="9.8365790">
	<ele>1980.00</ele>
	<time>2023-11-18T10:03:48.000Z</time>
</trkpt>
<trkpt lat="45.9059050" lon="9.8365790">
	<ele>1980.00</ele>
	<time>2023-11-18T10:03:49.000Z</time>
</trkpt>
<trkpt lat="45.9059050" lon="9.8365790">
	<ele>1980.00</ele>
	<time>2023-11-18T10:03:50.000Z</time>
</trkpt>
<trkpt lat="45.9059050" lon="9.8365790">
	<ele>1980.00</ele>
	<time>2023-11-18T10:03:51.000Z</time>
</trkpt>
<trkpt lat="45.9059050" lon="9.8365790">
	<ele>1980.00</ele>
	<time>2023-11-18T10:03:52.000Z</time>
</trkpt>
<trkpt lat="45.9059050" lon="9.8365790">
	<ele>1980.00</ele>
	<time>2023-11-18T10:03:53.000Z</time>
</trkpt>
<trkpt lat="45.9059050" lon="9.8365790">
	<ele>1980.00</ele>
	<time>2023-11-18T10:03:54.000Z</time>
</trkpt>
<trkpt lat="45.9059050" lon="9.8365790">
	<ele>1980.00</ele>
	<time>2023-11-18T10:03:55.000Z</time>
</trkpt>
<trkpt lat="45.9059050" lon="9.8365790">
	<ele>1980.00</ele>
	<time>2023-11-18T10:03:56.000Z</time>
</trkpt>
<trkpt lat="45.9059050" lon="9.8365790">
	<ele>1980.00</ele>
	<time>2023-11-18T10:03:57.000Z</time>
</trkpt>
<trkpt lat="45.9059050" lon="9.8365790">
	<ele>1980.00</ele>
	<time>2023-11-18T10:03:58.000Z</time>
</trkpt>
<trkpt lat="45.9059060" lon="9.8365790">
	<ele>1980.00</ele>
	<time>2023-11-18T10:03:59.000Z</time>
</trkpt>
<trkpt lat="45.9059060" lon="9.8365790">
	<ele>1980.00</ele>
	<time>2023-11-18T10:04:00.000Z</time>
</trkpt>
<trkpt lat="45.9059060" lon="9.8365790">
	<ele>1980.00</ele>
	<time>2023-11-18T10:04:01.000Z</time>
</trkpt>
<trkpt lat="45.9059060" lon="9.8365790">
	<ele>1980.00</ele>
	<time>2023-11-18T10:04:02.000Z</time>
</trkpt>
<trkpt lat="45.9059060" lon="9.8365790">
	<ele>1980.00</ele>
	<time>2023-11-18T10:04:03.000Z</time>
</trkpt>
<trkpt lat="45.9059060" lon="9.8365790">
	<ele>1980.00</ele>
	<time>2023-11-18T10:04:04.000Z</time>
</trkpt>
<trkpt lat="45.9059060" lon="9.8365790">
	<ele>1980.00</ele>
	<time>2023-11-18T10:04:05.000Z</time>
</trkpt>
<trkpt lat="45.9059060" lon="9.8365790">
	<ele>1980.00</ele>
	<time>2023-11-18T10:04:06.000Z</time>
</trkpt>
<trkpt lat="45.9059050" lon="9.8365790">
	<ele>1980.00</ele>
	<time>2023-11-18T10:04:07.000Z</time>
</trkpt>
<trkpt lat="45.9059050" lon="9.8365790">
	<ele>1980.00</ele>
	<time>2023-11-18T10:04:08.000Z</time>
</trkpt>
<trkpt lat="45.9059060" lon="9.8365790">
	<ele>1980.00</ele>
	<time>2023-11-18T10:04:09.000Z</time>
</trkpt>
<trkpt lat="45.9059060" lon="9.8365790">
	<ele>1980.00</ele>
	<time>2023-11-18T10:04:10.000Z</time>
</trkpt>
<trkpt lat="45.9059050" lon="9.8365790">
	<ele>1980.00</ele>
	<time>2023-11-18T10:04:11.000Z</time>
</trkpt>
<trkpt lat="45.9059050" lon="9.8365790">
	<ele>1980.00</ele>
	<time>2023-11-18T10:04:12.000Z</time>
</trkpt>
<trkpt lat="45.9059050" lon="9.8365790">
	<ele>1980.00</ele>
	<time>2023-11-18T10:04:13.000Z</time>
</trkpt>
<trkpt lat="45.9059050" lon="9.8365790">
	<ele>1980.00</ele>
	<time>2023-11-18T10:04:14.000Z</time>
</trkpt>
<trkpt lat="45.9059050" lon="9.8365790">
	<ele>1980.00</ele>
	<time>2023-11-18T10:04:15.000Z</time>
</trkpt>
<trkpt lat="45.9059050" lon="9.8365790">
	<ele>1980.00</ele>
	<time>2023-11-18T10:04:16.000Z</time>
</trkpt>
<trkpt lat="45.9059050" lon="9.8365790">
	<ele>1980.00</ele>
	<time>2023-11-18T10:04:17.000Z</time>
</trkpt>
<trkpt lat="45.9059050" lon="9.8365790">
	<ele>1980.00</ele>
	<time>2023-11-18T10:04:18.000Z</time>
</trkpt>
<trkpt lat="45.9059050" lon="9.8365790">
	<ele>1980.00</ele>
	<time>2023-11-18T10:04:19.000Z</time>
</trkpt>
<trkpt lat="45.9059050" lon="9.8365780">
	<ele>1980.00</ele>
	<time>2023-11-18T10:04:20.000Z</time>
</trkpt>
<trkpt lat="45.9059050" lon="9.8365780">
	<ele>1980.00</ele>
	<time>2023-11-18T10:04:21.000Z</time>
</trkpt>
<trkpt lat="45.9059050" lon="9.8365780">
	<ele>1980.00</ele>
	<time>2023-11-18T10:04:22.000Z</time>
</trkpt>
<trkpt lat="45.9059050" lon="9.8365780">
	<ele>1980.00</ele>
	<time>2023-11-18T10:04:23.000Z</time>
</trkpt>
<trkpt lat="45.9059050" lon="9.8365780">
	<ele>1980.00</ele>
	<time>2023-11-18T10:04:24.000Z</time>
</trkpt>
<trkpt lat="45.9059050" lon="9.8365780">
	<ele>1980.00</ele>
	<time>2023-11-18T10:04:25.000Z</time>
</trkpt>
<trkpt lat="45.9059050" lon="9.8365780">
	<ele>1980.00</ele>
	<time>2023-11-18T10:04:26.000Z</time>
</trkpt>
<trkpt lat="45.9059050" lon="9.8365780">
	<ele>1980.00</ele>
	<time>2023-11-18T10:04:27.000Z</time>
</trkpt>
<trkpt lat="45.9059050" lon="9.8365780">
	<ele>1980.00</ele>
	<time>2023-11-18T10:04:28.000Z</time>
</trkpt>
<trkpt lat="45.9059050" lon="9.8365780">
	<ele>1980.00</ele>
	<time>2023-11-18T10:04:29.000Z</time>
</trkpt>
<trkpt lat="45.9059050" lon="9.8365780">
	<ele>1980.00</ele>
	<time>2023-11-18T10:04:30.000Z</time>
</trkpt>
<trkpt lat="45.9059050" lon="9.8365780">
	<ele>1980.00</ele>
	<time>2023-11-18T10:04:31.000Z</time>
</trkpt>
<trkpt lat="45.9059050" lon="9.8365780">
	<ele>1980.00</ele>
	<time>2023-11-18T10:04:32.000Z</time>
</trkpt>
<trkpt lat="45.9059050" lon="9.8365780">
	<ele>1980.00</ele>
	<time>2023-11-18T10:04:33.000Z</time>
</trkpt>
<trkpt lat="45.9059050" lon="9.8365780">
	<ele>1980.00</ele>
	<time>2023-11-18T10:04:34.000Z</time>
</trkpt>
<trkpt lat="45.9059050" lon="9.8365780">
	<ele>1980.00</ele>
	<time>2023-11-18T10:04:35.000Z</time>
</trkpt>
<trkpt lat="45.9059050" lon="9.8365770">
	<ele>1980.00</ele>
	<time>2023-11-18T10:04:36.000Z</time>
</trkpt>
<trkpt lat="45.9059050" lon="9.8365770">
	<ele>1980.00</ele>
	<time>2023-11-18T10:04:37.000Z</time>
</trkpt>
<trkpt lat="45.9059050" lon="9.8365770">
	<ele>1980.00</ele>
	<time>2023-11-18T10:04:38.000Z</time>
</trkpt>
<trkpt lat="45.9059050" lon="9.8365770">
	<ele>1980.00</ele>
	<time>2023-11-18T10:04:39.000Z</time>
</trkpt>
<trkpt lat="45.9059050" lon="9.8365770">
	<ele>1980.00</ele>
	<time>2023-11-18T10:04:40.000Z</time>
</trkpt>
<trkpt lat="45.9059050" lon="9.8365770">
	<ele>1980.00</ele>
	<time>2023-11-18T10:04:41.000Z</time>
</trkpt>
<trkpt lat="45.9059050" lon="9.8365770">
	<ele>1980.00</ele>
	<time>2023-11-18T10:04:42.000Z</time>
</trkpt>
<trkpt lat="45.9059050" lon="9.8365770">
	<ele>1980.00</ele>
	<time>2023-11-18T10:04:43.000Z</time>
</trkpt>
<trkpt lat="45.9059050" lon="9.8365770">
	<ele>1980.00</ele>
	<time>2023-11-18T10:04:44.000Z</time>
</trkpt>
<trkpt lat="45.9059050" lon="9.8365770">
	<ele>1980.00</ele>
	<time>2023-11-18T10:04:45.000Z</time>
</trkpt>
<trkpt lat="45.9059050" lon="9.8365770">
	<ele>1980.00</ele>
	<time>2023-11-18T10:04:46.000Z</time>
</trkpt>
<trkpt lat="45.9059050" lon="9.8365770">
	<ele>1980.00</ele>
	<time>2023-11-18T10:04:47.000Z</time>
</trkpt>
<trkpt lat="45.9059050" lon="9.8365770">
	<ele>1980.00</ele>
	<time>2023-11-18T10:04:48.000Z</time>
</trkpt>
<trkpt lat="45.9059050" lon="9.8365770">
	<ele>1980.00</ele>
	<time>2023-11-18T10:04:49.000Z</time>
</trkpt>
<trkpt lat="45.9059050" lon="9.8365770">
	<ele>1980.00</ele>
	<time>2023-11-18T10:04:50.000Z</time>
</trkpt>
<trkpt lat="45.9059050" lon="9.8365770">
	<ele>1980.00</ele>
	<time>2023-11-18T10:04:51.000Z</time>
</trkpt>
<trkpt lat="45.9059050" lon="9.8365760">
	<ele>1980.00</ele>
	<time>2023-11-18T10:04:52.000Z</time>
</trkpt>
<trkpt lat="45.9059050" lon="9.8365760">
	<ele>1980.00</ele>
	<time>2023-11-18T10:04:53.000Z</time>
</trkpt>
<trkpt lat="45.9059050" lon="9.8365760">
	<ele>1980.00</ele>
	<time>2023-11-18T10:04:54.000Z</time>
</trkpt>
<trkpt lat="45.9059050" lon="9.8365760">
	<ele>1980.00</ele>
	<time>2023-11-18T10:04:55.000Z</time>
</trkpt>
<trkpt lat="45.9059050" lon="9.8365760">
	<ele>1980.00</ele>
	<time>2023-11-18T10:04:56.000Z</time>
</trkpt>
<trkpt lat="45.9059050" lon="9.8365760">
	<ele>1980.00</ele>
	<time>2023-11-18T10:04:57.000Z</time>
</trkpt>
<trkpt lat="45.9059050" lon="9.8365760">
	<ele>1980.00</ele>
	<time>2023-11-18T10:04:58.000Z</time>
</trkpt>
<trkpt lat="45.9059050" lon="9.8365760">
	<ele>1980.00</ele>
	<time>2023-11-18T10:04:59.000Z</time>
</trkpt>
<trkpt lat="45.9059050" lon="9.8365750">
	<ele>1980.00</ele>
	<time>2023-11-18T10:05:00.000Z</time>
</trkpt>
<trkpt lat="45.9059050" lon="9.8365750">
	<ele>1980.00</ele>
	<time>2023-11-18T10:05:01.000Z</time>
</trkpt>
<trkpt lat="45.9059050" lon="9.8365750">
	<ele>1980.00</ele>
	<time>2023-11-18T10:05:02.000Z</time>
</trkpt>
<trkpt lat="45.9059050" lon="9.8365750">
	<ele>1980.00</ele>
	<time>2023-11-18T10:05:03.000Z</time>
</trkpt>
<trkpt lat="45.9059050" lon="9.8365750">
	<ele>1980.00</ele>
	<time>2023-11-18T10:05:04.000Z</time>
</trkpt>
<trkpt lat="45.9059050" lon="9.8365750">
	<ele>1980.00</ele>
	<time>2023-11-18T10:05:05.000Z</time>
</trkpt>
<trkpt lat="45.9059050" lon="9.8365740">
	<ele>1980.00</ele>
	<time>2023-11-18T10:05:06.000Z</time>
</trkpt>
<trkpt lat="45.9059050" lon="9.8365740">
	<ele>1980.00</ele>
	<time>2023-11-18T10:05:07.000Z</time>
</trkpt>
<trkpt lat="45.9059050" lon="9.8365740">
	<ele>1980.00</ele>
	<time>2023-11-18T10:05:08.000Z</time>
</trkpt>
<trkpt lat="45.9059050" lon="9.8365740">
	<ele>1980.00</ele>
	<time>2023-11-18T10:05:09.000Z</time>
</trkpt>
<trkpt lat="45.9059050" lon="9.8365730">
	<ele>1980.00</ele>
	<time>2023-11-18T10:05:10.000Z</time>
</trkpt>
<trkpt lat="45.9059050" lon="9.8365730">
	<ele>1980.00</ele>
	<time>2023-11-18T10:05:11.000Z</time>
</trkpt>
<trkpt lat="45.9059050" lon="9.8365730">
	<ele>1980.00</ele>
	<time>2023-11-18T10:05:12.000Z</time>
</trkpt>
<trkpt lat="45.9059050" lon="9.8365730">
	<ele>1980.00</ele>
	<time>2023-11-18T10:05:13.000Z</time>
</trkpt>
<trkpt lat="45.9059050" lon="9.8365730">
	<ele>1980.00</ele>
	<time>2023-11-18T10:05:14.000Z</time>
</trkpt>
<trkpt lat="45.9059050" lon="9.8365720">
	<ele>1980.00</ele>
	<time>2023-11-18T10:05:15.000Z</time>
</trkpt>
<trkpt lat="45.9059050" lon="9.8365720">
	<ele>1980.00</ele>
	<time>2023-11-18T10:05:16.000Z</time>
</trkpt>
<trkpt lat="45.9059050" lon="9.8365720">
	<ele>1980.00</ele>
	<time>2023-11-18T10:05:17.000Z</time>
</trkpt>
<trkpt lat="45.9059050" lon="9.8365720">
	<ele>1980.00</ele>
	<time>2023-11-18T10:05:18.000Z</time>
</trkpt>
<trkpt lat="45.9059050" lon="9.8365710">
	<ele>1980.00</ele>
	<time>2023-11-18T10:05:19.000Z</time>
</trkpt>
<trkpt lat="45.9059080" lon="9.8365360">
	<ele>1980.00</ele>
	<time>2023-11-18T10:05:20.000Z</time>
</trkpt>
<trkpt lat="45.9059150" lon="9.8364910">
	<ele>1980.00</ele>
	<time>2023-11-18T10:05:21.000Z</time>
</trkpt>
<trkpt lat="45.9059230" lon="9.8364480">
	<ele>1980.00</ele>
	<time>2023-11-18T10:05:22.000Z</time>
</trkpt>
<trkpt lat="45.9059300" lon="9.8364050">
	<ele>1980.00</ele>
	<time>2023-11-18T10:05:23.000Z</time>
</trkpt>
<trkpt lat="45.9059390" lon="9.8363620">
	<ele>1980.00</ele>
	<time>2023-11-18T10:05:24.000Z</time>
</trkpt>
<trkpt lat="45.9059430" lon="9.8363150">
	<ele>1980.00</ele>
	<time>2023-11-18T10:05:25.000Z</time>
</trkpt>
<trkpt lat="45.9059490" lon="9.8362680">
	<ele>1980.00</ele>
	<time>2023-11-18T10:05:26.000Z</time>
</trkpt>
<trkpt lat="45.9059510" lon="9.8362250">
	<ele>1980.00</ele>
	<time>2023-11-18T10:05:27.000Z</time>
</trkpt>
<trkpt lat="45.9059540" lon="9.8361860">
	<ele>1980.00</ele>
	<time>2023-11-18T10:05:28.000Z</time>
</trkpt>
<trkpt lat="45.9059570" lon="9.8361480">
	<ele>1980.00</ele>
	<time>2023-11-18T10:05:29.000Z</time>
</trkpt>
<trkpt lat="45.9059570" lon="9.8361470">
	<ele>1980.00</ele>
	<time>2023-11-18T10:05:30.000Z</time>
</trkpt>
<trkpt lat="45.9059570" lon="9.8361440">
	<ele>1980.00</ele>
	<time>2023-11-18T10:05:31.000Z</time>
</trkpt>
<trkpt lat="45.9059580" lon="9.8361410">
	<ele>1980.00</ele>
	<time>2023-11-18T10:05:32.000Z</time>
</trkpt>
<trkpt lat="45.9059590" lon="9.8361390">
	<ele>1980.00</ele>
	<time>2023-11-18T10:05:33.000Z</time>
</trkpt>
<trkpt lat="45.9059610" lon="9.8361380">
	<ele>1977.00</ele>
	<time>2023-11-18T10:05:34.000Z</time>
</trkpt>
<trkpt lat="45.9059610" lon="9.8361360">
	<ele>1977.00</ele>
	<time>2023-11-18T10:05:35.000Z</time>
</trkpt>
<trkpt lat="45.9059610" lon="9.8361330">
	<ele>1977.00</ele>
	<time>2023-11-18T10:05:36.000Z</time>
</trkpt>
<trkpt lat="45.9059610" lon="9.8361310">
	<ele>1977.00</ele>
	<time>2023-11-18T10:05:37.000Z</time>
</trkpt>
<trkpt lat="45.9059620" lon="9.8361320">
	<ele>1977.00</ele>
	<time>2023-11-18T10:05:38.000Z</time>
</trkpt>
<trkpt lat="45.9059620" lon="9.8361310">
	<ele>1977.00</ele>
	<time>2023-11-18T10:05:39.000Z</time>
</trkpt>
<trkpt lat="45.9059620" lon="9.8361320">
	<ele>1977.00</ele>
	<time>2023-11-18T10:05:40.000Z</time>
</trkpt>
<trkpt lat="45.9059630" lon="9.8361340">
	<ele>1976.80</ele>
	<time>2023-11-18T10:05:41.000Z</time>
</trkpt>
<trkpt lat="45.9059640" lon="9.8361350">
	<ele>1976.80</ele>
	<time>2023-11-18T10:05:42.000Z</time>
</trkpt>
<trkpt lat="45.9059640" lon="9.8361350">
	<ele>1976.80</ele>
	<time>2023-11-18T10:05:43.000Z</time>
</trkpt>
<trkpt lat="45.9059640" lon="9.8361350">
	<ele>1976.80</ele>
	<time>2023-11-18T10:05:44.000Z</time>
</trkpt>
<trkpt lat="45.9059640" lon="9.8361350">
	<ele>1976.80</ele>
	<time>2023-11-18T10:05:45.000Z</time>
</trkpt>
<trkpt lat="45.9059640" lon="9.8361350">
	<ele>1976.80</ele>
	<time>2023-11-18T10:05:46.000Z</time>
</trkpt>
<trkpt lat="45.9059640" lon="9.8361350">
	<ele>1976.80</ele>
	<time>2023-11-18T10:05:47.000Z</time>
</trkpt>
<trkpt lat="45.9059640" lon="9.8361350">
	<ele>1976.80</ele>
	<time>2023-11-18T10:05:48.000Z</time>
</trkpt>
<trkpt lat="45.9059640" lon="9.8361350">
	<ele>1976.60</ele>
	<time>2023-11-18T10:05:49.000Z</time>
</trkpt>
<trkpt lat="45.9059640" lon="9.8361350">
	<ele>1976.60</ele>
	<time>2023-11-18T10:05:50.000Z</time>
</trkpt>
<trkpt lat="45.9059640" lon="9.8361350">
	<ele>1976.40</ele>
	<time>2023-11-18T10:05:51.000Z</time>
</trkpt>
<trkpt lat="45.9059640" lon="9.8361350">
	<ele>1976.20</ele>
	<time>2023-11-18T10:05:52.000Z</time>
</trkpt>
<trkpt lat="45.9059640" lon="9.8361340">
	<ele>1976.00</ele>
	<time>2023-11-18T10:05:53.000Z</time>
</trkpt>
<trkpt lat="45.9059640" lon="9.8361340">
	<ele>1975.80</ele>
	<time>2023-11-18T10:05:54.000Z</time>
</trkpt>
<trkpt lat="45.9059640" lon="9.8361330">
	<ele>1975.80</ele>
	<time>2023-11-18T10:05:55.000Z</time>
</trkpt>
<trkpt lat="45.9059640" lon="9.8361320">
	<ele>1975.60</ele>
	<time>2023-11-18T10:05:56.000Z</time>
</trkpt>
<trkpt lat="45.9059640" lon="9.8361320">
	<ele>1975.40</ele>
	<time>2023-11-18T10:05:57.000Z</time>
</trkpt>
<trkpt lat="45.9059650" lon="9.8361310">
	<ele>1975.20</ele>
	<time>2023-11-18T10:05:58.000Z</time>
</trkpt>
<trkpt lat="45.9059660" lon="9.8361310">
	<ele>1975.20</ele>
	<time>2023-11-18T10:05:59.000Z</time>
</trkpt>
<trkpt lat="45.9059660" lon="9.8361310">
	<ele>1975.00</ele>
	<time>2023-11-18T10:06:00.000Z</time>
</trkpt>
<trkpt lat="45.9059670" lon="9.8361270">
	<ele>1974.80</ele>
	<time>2023-11-18T10:06:01.000Z</time>
</trkpt>
<trkpt lat="45.9059680" lon="9.8361260">
	<ele>1974.60</ele>
	<time>2023-11-18T10:06:02.000Z</time>
</trkpt>
<trkpt lat="45.9059690" lon="9.8361220">
	<ele>1974.60</ele>
	<time>2023-11-18T10:06:03.000Z</time>
</trkpt>
<trkpt lat="45.9059690" lon="9.8361180">
	<ele>1974.40</ele>
	<time>2023-11-18T10:06:04.000Z</time>
</trkpt>
<trkpt lat="45.9059720" lon="9.8361140">
	<ele>1974.20</ele>
	<time>2023-11-18T10:06:05.000Z</time>
</trkpt>
<trkpt lat="45.9059740" lon="9.8361020">
	<ele>1974.00</ele>
	<time>2023-11-18T10:06:06.000Z</time>
</trkpt>
<trkpt lat="45.9059770" lon="9.8360820">
	<ele>1973.80</ele>
	<time>2023-11-18T10:06:07.000Z</time>
</trkpt>
<trkpt lat="45.9059780" lon="9.8360620">
	<ele>1973.40</ele>
	<time>2023-11-18T10:06:08.000Z</time>
</trkpt>
<trkpt lat="45.9059840" lon="9.8360380">
	<ele>1973.20</ele>
	<time>2023-11-18T10:06:09.000Z</time>
</trkpt>
<trkpt lat="45.9059890" lon="9.8360140">
	<ele>1973.00</ele>
	<time>2023-11-18T10:06:10.000Z</time>
</trkpt>
<trkpt lat="45.9059870" lon="9.8359950">
	<ele>1972.80</ele>
	<time>2023-11-18T10:06:11.000Z</time>
</trkpt>
<trkpt lat="45.9059850" lon="9.8359760">
	<ele>1972.60</ele>
	<time>2023-11-18T10:06:12.000Z</time>
</trkpt>
<trkpt lat="45.9059800" lon="9.8359600">
	<ele>1972.20</ele>
	<time>2023-11-18T10:06:13.000Z</time>
</trkpt>
<trkpt lat="45.9059790" lon="9.8359450">
	<ele>1972.00</ele>
	<time>2023-11-18T10:06:14.000Z</time>
</trkpt>
<trkpt lat="45.9059750" lon="9.8359280">
	<ele>1971.60</ele>
	<time>2023-11-18T10:06:15.000Z</time>
</trkpt>
<trkpt lat="45.9059700" lon="9.8359210">
	<ele>1971.40</ele>
	<time>2023-11-18T10:06:16.000Z</time>
</trkpt>
<trkpt lat="45.9059660" lon="9.8359160">
	<ele>1971.20</ele>
	<time>2023-11-18T10:06:17.000Z</time>
</trkpt>
<trkpt lat="45.9059620" lon="9.8359140">
	<ele>1971.00</ele>
	<time>2023-11-18T10:06:18.000Z</time>
</trkpt>
<trkpt lat="45.9059620" lon="9.8359070">
	<ele>1970.80</ele>
	<time>2023-11-18T10:06:19.000Z</time>
</trkpt>
<trkpt lat="45.9059620" lon="9.8359000">
	<ele>1970.60</ele>
	<time>2023-11-18T10:06:20.000Z</time>
</trkpt>
<trkpt lat="45.9059620" lon="9.8358930">
	<ele>1970.40</ele>
	<time>2023-11-18T10:06:21.000Z</time>
</trkpt>
<trkpt lat="45.9059630" lon="9.8358860">
	<ele>1970.20</ele>
	<time>2023-11-18T10:06:22.000Z</time>
</trkpt>
<trkpt lat="45.9059680" lon="9.8358800">
	<ele>1970.00</ele>
	<time>2023-11-18T10:06:23.000Z</time>
</trkpt>
<trkpt lat="45.9059750" lon="9.8358760">
	<ele>1969.80</ele>
	<time>2023-11-18T10:06:24.000Z</time>
</trkpt>
<trkpt lat="45.9059830" lon="9.8358720">
	<ele>1969.60</ele>
	<time>2023-11-18T10:06:25.000Z</time>
</trkpt>
<trkpt lat="45.9059900" lon="9.8358670">
	<ele>1969.40</ele>
	<time>2023-11-18T10:06:26.000Z</time>
</trkpt>
<trkpt lat="45.9059950" lon="9.8358630">
	<ele>1969.20</ele>
	<time>2023-11-18T10:06:27.000Z</time>
</trkpt>
<trkpt lat="45.9060010" lon="9.8358580">
	<ele>1969.00</ele>
	<time>2023-11-18T10:06:28.000Z</time>
</trkpt>
<trkpt lat="45.9060060" lon="9.8358510">
	<ele>1968.80</ele>
	<time>2023-11-18T10:06:29.000Z</time>
</trkpt>
<trkpt lat="45.9060110" lon="9.8358440">
	<ele>1968.60</ele>
	<time>2023-11-18T10:06:30.000Z</time>
</trkpt>
<trkpt lat="45.9060100" lon="9.8358370">
	<ele>1968.40</ele>
	<time>2023-11-18T10:06:31.000Z</time>
</trkpt>
<trkpt lat="45.9060100" lon="9.8358320">
	<ele>1968.00</ele>
	<time>2023-11-18T10:06:32.000Z</time>
</trkpt>
<trkpt lat="45.9060100" lon="9.8358290">
	<ele>1967.80</ele>
	<time>2023-11-18T10:06:33.000Z</time>
</trkpt>
<trkpt lat="45.9060130" lon="9.8358220">
	<ele>1967.60</ele>
	<time>2023-11-18T10:06:34.000Z</time>
</trkpt>
<trkpt lat="45.9060170" lon="9.8358150">
	<ele>1967.40</ele>
	<time>2023-11-18T10:06:35.000Z</time>
</trkpt>
<trkpt lat="45.9060220" lon="9.8358120">
	<ele>1967.20</ele>
	<time>2023-11-18T10:06:36.000Z</time>
</trkpt>
<trkpt lat="45.9060260" lon="9.8358100">
	<ele>1967.20</ele>
	<time>2023-11-18T10:06:37.000Z</time>
</trkpt>
<trkpt lat="45.9060310" lon="9.8358040">
	<ele>1967.00</ele>
	<time>2023-11-18T10:06:38.000Z</time>
</trkpt>
<trkpt lat="45.9060360" lon="9.8357950">
	<ele>1966.80</ele>
	<time>2023-11-18T10:06:39.000Z</time>
</trkpt>
<trkpt lat="45.9060360" lon="9.8357860">
	<ele>1966.80</ele>
	<time>2023-11-18T10:06:40.000Z</time>
</trkpt>
<trkpt lat="45.9060360" lon="9.8357780">
	<ele>1966.60</ele>
	<time>2023-11-18T10:06:41.000Z</time>
</trkpt>
<trkpt lat="45.9060340" lon="9.8357740">
	<ele>1966.40</ele>
	<time>2023-11-18T10:06:42.000Z</time>
</trkpt>
<trkpt lat="45.9060340" lon="9.8357690">
	<ele>1966.20</ele>
	<time>2023-11-18T10:06:43.000Z</time>
</trkpt>
<trkpt lat="45.9060330" lon="9.8357580">
	<ele>1966.00</ele>
	<time>2023-11-18T10:06:44.000Z</time>
</trkpt>
<trkpt lat="45.9060300" lon="9.8357490">
	<ele>1965.80</ele>
	<time>2023-11-18T10:06:45.000Z</time>
</trkpt>
<trkpt lat="45.9060290" lon="9.8357440">
	<ele>1965.60</ele>
	<time>2023-11-18T10:06:46.000Z</time>
</trkpt>
<trkpt lat="45.9060300" lon="9.8357380">
	<ele>1965.20</ele>
	<time>2023-11-18T10:06:47.000Z</time>
</trkpt>
<trkpt lat="45.9060330" lon="9.8357270">
	<ele>1965.00</ele>
	<time>2023-11-18T10:06:48.000Z</time>
</trkpt>
<trkpt lat="45.9060350" lon="9.8357180">
	<ele>1964.80</ele>
	<time>2023-11-18T10:06:49.000Z</time>
</trkpt>
<trkpt lat="45.9060370" lon="9.8357070">
	<ele>1964.60</ele>
	<time>2023-11-18T10:06:50.000Z</time>
</trkpt>
<trkpt lat="45.9060470" lon="9.8356900">
	<ele>1964.20</ele>
	<time>2023-11-18T10:06:51.000Z</time>
</trkpt>
<trkpt lat="45.9060530" lon="9.8356860">
	<ele>1964.00</ele>
	<time>2023-11-18T10:06:52.000Z</time>
</trkpt>
<trkpt lat="45.9060570" lon="9.8356830">
	<ele>1963.60</ele>
	<time>2023-11-18T10:06:53.000Z</time>
</trkpt>
<trkpt lat="45.9060690" lon="9.8356820">
	<ele>1963.40</ele>
	<time>2023-11-18T10:06:54.000Z</time>
</trkpt>
<trkpt lat="45.9060690" lon="9.8356750">
	<ele>1963.20</ele>
	<time>2023-11-18T10:06:55.000Z</time>
</trkpt>
<trkpt lat="45.9060680" lon="9.8356610">
	<ele>1963.20</ele>
	<time>2023-11-18T10:06:56.000Z</time>
</trkpt>
<trkpt lat="45.9060650" lon="9.8356520">
	<ele>1963.00</ele>
	<time>2023-11-18T10:06:57.000Z</time>
</trkpt>
<trkpt lat="45.9060600" lon="9.8356490">
	<ele>1962.80</ele>
	<time>2023-11-18T10:06:58.000Z</time>
</trkpt>
<trkpt lat="45.9060580" lon="9.8356440">
	<ele>1962.60</ele>
	<time>2023-11-18T10:06:59.000Z</time>
</trkpt>
<trkpt lat="45.9060500" lon="9.8356380">
	<ele>1962.40</ele>
	<time>2023-11-18T10:07:00.000Z</time>
</trkpt>
<trkpt lat="45.9060430" lon="9.8356400">
	<ele>1962.00</ele>
	<time>2023-11-18T10:07:01.000Z</time>
</trkpt>
<trkpt lat="45.9060450" lon="9.8356380">
	<ele>1961.60</ele>
	<time>2023-11-18T10:07:02.000Z</time>
</trkpt>
<trkpt lat="45.9060460" lon="9.8356310">
	<ele>1961.60</ele>
	<time>2023-11-18T10:07:03.000Z</time>
</trkpt>
<trkpt lat="45.9060460" lon="9.8356250">
	<ele>1961.20</ele>
	<time>2023-11-18T10:07:04.000Z</time>
</trkpt>
<trkpt lat="45.9060480" lon="9.8356180">
	<ele>1961.00</ele>
	<time>2023-11-18T10:07:05.000Z</time>
</trkpt>
<trkpt lat="45.9060490" lon="9.8356030">
	<ele>1960.80</ele>
	<time>2023-11-18T10:07:06.000Z</time>
</trkpt>
<trkpt lat="45.9060470" lon="9.8355890">
	<ele>1960.60</ele>
	<time>2023-11-18T10:07:07.000Z</time>
</trkpt>
<trkpt lat="45.9060460" lon="9.8355800">
	<ele>1960.40</ele>
	<time>2023-11-18T10:07:08.000Z</time>
</trkpt>
<trkpt lat="45.9060450" lon="9.8355760">
	<ele>1960.00</ele>
	<time>2023-11-18T10:07:09.000Z</time>
</trkpt>
<trkpt lat="45.9060480" lon="9.8355720">
	<ele>1959.60</ele>
	<time>2023-11-18T10:07:10.000Z</time>
</trkpt>
<trkpt lat="45.9060500" lon="9.8355690">
	<ele>1959.40</ele>
	<time>2023-11-18T10:07:11.000Z</time>
</trkpt>
<trkpt lat="45.9060550" lon="9.8355610">
	<ele>1959.40</ele>
	<time>2023-11-18T10:07:12.000Z</time>
</trkpt>
<trkpt lat="45.9060550" lon="9.8355510">
	<ele>1959.20</ele>
	<time>2023-11-18T10:07:13.000Z</time>
</trkpt>
<trkpt lat="45.9060540" lon="9.8355450">
	<ele>1959.20</ele>
	<time>2023-11-18T10:07:14.000Z</time>
</trkpt>
<trkpt lat="45.9060560" lon="9.8355400">
	<ele>1959.00</ele>
	<time>2023-11-18T10:07:15.000Z</time>
</trkpt>
<trkpt lat="45.9060600" lon="9.8355350">
	<ele>1958.80</ele>
	<time>2023-11-18T10:07:16.000Z</time>
</trkpt>
<trkpt lat="45.9060620" lon="9.8355330">
	<ele>1958.60</ele>
	<time>2023-11-18T10:07:17.000Z</time>
</trkpt>
<trkpt lat="45.9060650" lon="9.8355280">
	<ele>1958.40</ele>
	<time>2023-11-18T10:07:18.000Z</time>
</trkpt>
<trkpt lat="45.9060690" lon="9.8355190">
	<ele>1958.20</ele>
	<time>2023-11-18T10:07:19.000Z</time>
</trkpt>
<trkpt lat="45.9060730" lon="9.8355110">
	<ele>1958.20</ele>
	<time>2023-11-18T10:07:20.000Z</time>
</trkpt>
<trkpt lat="45.9060760" lon="9.8355030">
	<ele>1958.00</ele>
	<time>2023-11-18T10:07:21.000Z</time>
</trkpt>
<trkpt lat="45.9060770" lon="9.8354990">
	<ele>1957.80</ele>
	<time>2023-11-18T10:07:22.000Z</time>
</trkpt>
<trkpt lat="45.9060740" lon="9.8354930">
	<ele>1957.60</ele>
	<time>2023-11-18T10:07:23.000Z</time>
</trkpt>
<trkpt lat="45.9060700" lon="9.8354830">
	<ele>1957.20</ele>
	<time>2023-11-18T10:07:24.000Z</time>
</trkpt>
<trkpt lat="45.9060670" lon="9.8354760">
	<ele>1957.00</ele>
	<time>2023-11-18T10:07:25.000Z</time>
</trkpt>
<trkpt lat="45.9060640" lon="9.8354730">
	<ele>1956.80</ele>
	<time>2023-11-18T10:07:26.000Z</time>
</trkpt>
<trkpt lat="45.9060630" lon="9.8354700">
	<ele>1956.40</ele>
	<time>2023-11-18T10:07:27.000Z</time>
</trkpt>
<trkpt lat="45.9060640" lon="9.8354650">
	<ele>1956.00</ele>
	<time>2023-11-18T10:07:28.000Z</time>
</trkpt>
<trkpt lat="45.9060660" lon="9.8354570">
	<ele>1955.80</ele>
	<time>2023-11-18T10:07:29.000Z</time>
</trkpt>
<trkpt lat="45.9060650" lon="9.8354490">
	<ele>1955.60</ele>
	<time>2023-11-18T10:07:30.000Z</time>
</trkpt>
<trkpt lat="45.9060640" lon="9.8354420">
	<ele>1955.60</ele>
	<time>2023-11-18T10:07:31.000Z</time>
</trkpt>
<trkpt lat="45.9060650" lon="9.8354330">
	<ele>1955.20</ele>
	<time>2023-11-18T10:07:32.000Z</time>
</trkpt>
<trkpt lat="45.9060660" lon="9.8354210">
	<ele>1955.00</ele>
	<time>2023-11-18T10:07:33.000Z</time>
</trkpt>
<trkpt lat="45.9060660" lon="9.8354140">
	<ele>1954.80</ele>
	<time>2023-11-18T10:07:34.000Z</time>
</trkpt>
<trkpt lat="45.9060640" lon="9.8354060">
	<ele>1954.60</ele>
	<time>2023-11-18T10:07:35.000Z</time>
</trkpt>
<trkpt lat="45.9060620" lon="9.8353990">
	<ele>1954.20</ele>
	<time>2023-11-18T10:07:36.000Z</time>
</trkpt>
<trkpt lat="45.9060620" lon="9.8353950">
	<ele>1954.00</ele>
	<time>2023-11-18T10:07:37.000Z</time>
</trkpt>
<trkpt lat="45.9060630" lon="9.8353900">
	<ele>1953.80</ele>
	<time>2023-11-18T10:07:38.000Z</time>
</trkpt>
<trkpt lat="45.9060620" lon="9.8353820">
	<ele>1953.60</ele>
	<time>2023-11-18T10:07:39.000Z</time>
</trkpt>
<trkpt lat="45.9060630" lon="9.8353720">
	<ele>1953.20</ele>
	<time>2023-11-18T10:07:40.000Z</time>
</trkpt>
<trkpt lat="45.9060610" lon="9.8353640">
	<ele>1952.80</ele>
	<time>2023-11-18T10:07:41.000Z</time>
</trkpt>
<trkpt lat="45.9060570" lon="9.8353590">
	<ele>1952.60</ele>
	<time>2023-11-18T10:07:42.000Z</time>
</trkpt>
<trkpt lat="45.9060510" lon="9.8353540">
	<ele>1952.40</ele>
	<time>2023-11-18T10:07:43.000Z</time>
</trkpt>
<trkpt lat="45.9060470" lon="9.8353470">
	<ele>1952.00</ele>
	<time>2023-11-18T10:07:44.000Z</time>
</trkpt>
<trkpt lat="45.9060450" lon="9.8353430">
	<ele>1951.80</ele>
	<time>2023-11-18T10:07:45.000Z</time>
</trkpt>
<trkpt lat="45.9060440" lon="9.8353380">
	<ele>1951.60</ele>
	<time>2023-11-18T10:07:46.000Z</time>
</trkpt>
<trkpt lat="45.9060410" lon="9.8353310">
	<ele>1951.60</ele>
	<time>2023-11-18T10:07:47.000Z</time>
</trkpt>
<trkpt lat="45.9060430" lon="9.8353240">
	<ele>1951.40</ele>
	<time>2023-11-18T10:07:48.000Z</time>
</trkpt>
<trkpt lat="45.9060450" lon="9.8353160">
	<ele>1951.00</ele>
	<time>2023-11-18T10:07:49.000Z</time>
</trkpt>
<trkpt lat="45.9060480" lon="9.8353090">
	<ele>1950.80</ele>
	<time>2023-11-18T10:07:50.000Z</time>
</trkpt>
<trkpt lat="45.9060490" lon="9.8353030">
	<ele>1950.40</ele>
	<time>2023-11-18T10:07:51.000Z</time>
</trkpt>
<trkpt lat="45.9060490" lon="9.8352970">
	<ele>1950.40</ele>
	<time>2023-11-18T10:07:52.000Z</time>
</trkpt>
<trkpt lat="45.9060500" lon="9.8352920">
	<ele>1950.00</ele>
	<time>2023-11-18T10:07:53.000Z</time>
</trkpt>
<trkpt lat="45.9060480" lon="9.8352830">
	<ele>1949.80</ele>
	<time>2023-11-18T10:07:54.000Z</time>
</trkpt>
<trkpt lat="45.9060470" lon="9.8352790">
	<ele>1949.60</ele>
	<time>2023-11-18T10:07:55.000Z</time>
</trkpt>
<trkpt lat="45.9060430" lon="9.8352740">
	<ele>1949.40</ele>
	<time>2023-11-18T10:07:56.000Z</time>
</trkpt>
<trkpt lat="45.9060410" lon="9.8352650">
	<ele>1949.20</ele>
	<time>2023-11-18T10:07:57.000Z</time>
</trkpt>
<trkpt lat="45.9060410" lon="9.8352590">
	<ele>1948.80</ele>
	<time>2023-11-18T10:07:58.000Z</time>
</trkpt>
<trkpt lat="45.9060430" lon="9.8352540">
	<ele>1948.80</ele>
	<time>2023-11-18T10:07:59.000Z</time>
</trkpt>
<trkpt lat="45.9060450" lon="9.8352480">
	<ele>1948.60</ele>
	<time>2023-11-18T10:08:00.000Z</time>
</trkpt>
<trkpt lat="45.9060460" lon="9.8352380">
	<ele>1948.60</ele>
	<time>2023-11-18T10:08:01.000Z</time>
</trkpt>
<trkpt lat="45.9060420" lon="9.8352270">
	<ele>1948.40</ele>
	<time>2023-11-18T10:08:02.000Z</time>
</trkpt>
<trkpt lat="45.9060380" lon="9.8352170">
	<ele>1947.80</ele>
	<time>2023-11-18T10:08:03.000Z</time>
</trkpt>
<trkpt lat="45.9060330" lon="9.8352110">
	<ele>1947.40</ele>
	<time>2023-11-18T10:08:04.000Z</time>
</trkpt>
<trkpt lat="45.9060280" lon="9.8352080">
	<ele>1947.00</ele>
	<time>2023-11-18T10:08:05.000Z</time>
</trkpt>
<trkpt lat="45.9060200" lon="9.8352070">
	<ele>1946.80</ele>
	<time>2023-11-18T10:08:06.000Z</time>
</trkpt>
<trkpt lat="45.9060150" lon="9.8352030">
	<ele>1946.60</ele>
	<time>2023-11-18T10:08:07.000Z</time>
</trkpt>
<trkpt lat="45.9060100" lon="9.8352000">
	<ele>1946.40</ele>
	<time>2023-11-18T10:08:08.000Z</time>
</trkpt>
<trkpt lat="45.9060070" lon="9.8351960">
	<ele>1946.20</ele>
	<time>2023-11-18T10:08:09.000Z</time>
</trkpt>
<trkpt lat="45.9060070" lon="9.8351910">
	<ele>1946.20</ele>
	<time>2023-11-18T10:08:10.000Z</time>
</trkpt>
<trkpt lat="45.9060080" lon="9.8351850">
	<ele>1946.00</ele>
	<time>2023-11-18T10:08:11.000Z</time>
</trkpt>
<trkpt lat="45.9060130" lon="9.8351750">
	<ele>1946.00</ele>
	<time>2023-11-18T10:08:12.000Z</time>
</trkpt>
<trkpt lat="45.9060160" lon="9.8351690">
	<ele>1945.80</ele>
	<time>2023-11-18T10:08:13.000Z</time>
</trkpt>
<trkpt lat="45.9060140" lon="9.8351630">
	<ele>1945.60</ele>
	<time>2023-11-18T10:08:14.000Z</time>
</trkpt>
<trkpt lat="45.9060140" lon="9.8351590">
	<ele>1945.40</ele>
	<time>2023-11-18T10:08:15.000Z</time>
</trkpt>
<trkpt lat="45.9060150" lon="9.8351530">
	<ele>1945.20</ele>
	<time>2023-11-18T10:08:16.000Z</time>
</trkpt>
<trkpt lat="45.9060190" lon="9.8351420">
	<ele>1945.00</ele>
	<time>2023-11-18T10:08:17.000Z</time>
</trkpt>
<trkpt lat="45.9060190" lon="9.8351340">
	<ele>1944.60</ele>
	<time>2023-11-18T10:08:18.000Z</time>
</trkpt>
<trkpt lat="45.9060210" lon="9.8351270">
	<ele>1944.40</ele>
	<time>2023-11-18T10:08:19.000Z</time>
</trkpt>
<trkpt lat="45.9060240" lon="9.8351210">
	<ele>1944.20</ele>
	<time>2023-11-18T10:08:20.000Z</time>
</trkpt>
<trkpt lat="45.9060250" lon="9.8351160">
	<ele>1944.00</ele>
	<time>2023-11-18T10:08:21.000Z</time>
</trkpt>
<trkpt lat="45.9060220" lon="9.8351100">
	<ele>1943.80</ele>
	<time>2023-11-18T10:08:22.000Z</time>
</trkpt>
<trkpt lat="45.9060200" lon="9.8351030">
	<ele>1943.40</ele>
	<time>2023-11-18T10:08:23.000Z</time>
</trkpt>
<trkpt lat="45.9060160" lon="9.8350970">
	<ele>1943.40</ele>
	<time>2023-11-18T10:08:24.000Z</time>
</trkpt>
<trkpt lat="45.9060110" lon="9.8350930">
	<ele>1943.00</ele>
	<time>2023-11-18T10:08:25.000Z</time>
</trkpt>
<trkpt lat="45.9060060" lon="9.8350920">
	<ele>1942.80</ele>
	<time>2023-11-18T10:08:26.000Z</time>
</trkpt>
<trkpt lat="45.9060020" lon="9.8350920">
	<ele>1942.40</ele>
	<time>2023-11-18T10:08:27.000Z</time>
</trkpt>
<trkpt lat="45.9059960" lon="9.8350890">
	<ele>1942.40</ele>
	<time>2023-11-18T10:08:28.000Z</time>
</trkpt>
<trkpt lat="45.9059900" lon="9.8350830">
	<ele>1942.20</ele>
	<time>2023-11-18T10:08:29.000Z</time>
</trkpt>
<trkpt lat="45.9059860" lon="9.8350780">
	<ele>1942.00</ele>
	<time>2023-11-18T10:08:30.000Z</time>
</trkpt>
<trkpt lat="45.9059860" lon="9.8350730">
	<ele>1942.00</ele>
	<time>2023-11-18T10:08:31.000Z</time>
</trkpt>
<trkpt lat="45.9059820" lon="9.8350660">
	<ele>1941.80</ele>
	<time>2023-11-18T10:08:32.000Z</time>
</trkpt>
<trkpt lat="45.9059790" lon="9.8350630">
	<ele>1941.60</ele>
	<time>2023-11-18T10:08:33.000Z</time>
</trkpt>
<trkpt lat="45.9059750" lon="9.8350600">
	<ele>1941.40</ele>
	<time>2023-11-18T10:08:34.000Z</time>
</trkpt>
<trkpt lat="45.9059750" lon="9.8350570">
	<ele>1941.20</ele>
	<time>2023-11-18T10:08:35.000Z</time>
</trkpt>
<trkpt lat="45.9059730" lon="9.8350540">
	<ele>1941.00</ele>
	<time>2023-11-18T10:08:36.000Z</time>
</trkpt>
<trkpt lat="45.9059730" lon="9.8350480">
	<ele>1941.00</ele>
	<time>2023-11-18T10:08:37.000Z</time>
</trkpt>
<trkpt lat="45.9059690" lon="9.8350430">
	<ele>1940.80</ele>
	<time>2023-11-18T10:08:38.000Z</time>
</trkpt>
<trkpt lat="45.9059680" lon="9.8350410">
	<ele>1940.80</ele>
	<time>2023-11-18T10:08:39.000Z</time>
</trkpt>
<trkpt lat="45.9059670" lon="9.8350370">
	<ele>1940.60</ele>
	<time>2023-11-18T10:08:40.000Z</time>
</trkpt>
<trkpt lat="45.9059680" lon="9.8350280">
	<ele>1940.60</ele>
	<time>2023-11-18T10:08:41.000Z</time>
</trkpt>
<trkpt lat="45.9059650" lon="9.8350200">
	<ele>1940.40</ele>
	<time>2023-11-18T10:08:42.000Z</time>
</trkpt>
<trkpt lat="45.9059630" lon="9.8350130">
	<ele>1940.20</ele>
	<time>2023-11-18T10:08:43.000Z</time>
</trkpt>
<trkpt lat="45.9059610" lon="9.8350060">
	<ele>1940.00</ele>
	<time>2023-11-18T10:08:44.000Z</time>
</trkpt>
<trkpt lat="45.9059600" lon="9.8350000">
	<ele>1939.60</ele>
	<time>2023-11-18T10:08:45.000Z</time>
</trkpt>
<trkpt lat="45.9059590" lon="9.8349950">
	<ele>1939.20</ele>
	<time>2023-11-18T10:08:46.000Z</time>
</trkpt>
<trkpt lat="45.9059570" lon="9.8349910">
	<ele>1939.00</ele>
	<time>2023-11-18T10:08:47.000Z</time>
</trkpt>
<trkpt lat="45.9059590" lon="9.8349820">
	<ele>1939.00</ele>
	<time>2023-11-18T10:08:48.000Z</time>
</trkpt>
<trkpt lat="45.9059600" lon="9.8349710">
	<ele>1938.80</ele>
	<time>2023-11-18T10:08:49.000Z</time>
</trkpt>
<trkpt lat="45.9059600" lon="9.8349630">
	<ele>1938.80</ele>
	<time>2023-11-18T10:08:50.000Z</time>
</trkpt>
<trkpt lat="45.9059590" lon="9.8349580">
	<ele>1938.60</ele>
	<time>2023-11-18T10:08:51.000Z</time>
</trkpt>
<trkpt lat="45.9059570" lon="9.8349530">
	<ele>1938.20</ele>
	<time>2023-11-18T10:08:52.000Z</time>
</trkpt>
<trkpt lat="45.9059550" lon="9.8349500">
	<ele>1937.80</ele>
	<time>2023-11-18T10:08:53.000Z</time>
</trkpt>
<trkpt lat="45.9059520" lon="9.8349450">
	<ele>1937.60</ele>
	<time>2023-11-18T10:08:54.000Z</time>
</trkpt>
<trkpt lat="45.9059490" lon="9.8349400">
	<ele>1937.40</ele>
	<time>2023-11-18T10:08:55.000Z</time>
</trkpt>
<trkpt lat="45.9059430" lon="9.8349370">
	<ele>1937.40</ele>
	<time>2023-11-18T10:08:56.000Z</time>
</trkpt>
<trkpt lat="45.9059400" lon="9.8349320">
	<ele>1937.20</ele>
	<time>2023-11-18T10:08:57.000Z</time>
</trkpt>
<trkpt lat="45.9059400" lon="9.8349240">
	<ele>1937.00</ele>
	<time>2023-11-18T10:08:58.000Z</time>
</trkpt>
<trkpt lat="45.9059440" lon="9.8349160">
	<ele>1936.80</ele>
	<time>2023-11-18T10:08:59.000Z</time>
</trkpt>
<trkpt lat="45.9059470" lon="9.8349080">
	<ele>1936.60</ele>
	<time>2023-11-18T10:09:00.000Z</time>
</trkpt>
<trkpt lat="45.9059490" lon="9.8349030">
	<ele>1936.20</ele>
	<time>2023-11-18T10:09:01.000Z</time>
</trkpt>
<trkpt lat="45.9059480" lon="9.8348990">
	<ele>1936.00</ele>
	<time>2023-11-18T10:09:02.000Z</time>
</trkpt>
<trkpt lat="45.9059460" lon="9.8348930">
	<ele>1935.60</ele>
	<time>2023-11-18T10:09:03.000Z</time>
</trkpt>
<trkpt lat="45.9059460" lon="9.8348880">
	<ele>1935.40</ele>
	<time>2023-11-18T10:09:04.000Z</time>
</trkpt>
<trkpt lat="45.9059510" lon="9.8348800">
	<ele>1935.00</ele>
	<time>2023-11-18T10:09:05.000Z</time>
</trkpt>
<trkpt lat="45.9059500" lon="9.8348720">
	<ele>1934.80</ele>
	<time>2023-11-18T10:09:06.000Z</time>
</trkpt>
<trkpt lat="45.9059480" lon="9.8348660">
	<ele>1934.60</ele>
	<time>2023-11-18T10:09:07.000Z</time>
</trkpt>
<trkpt lat="45.9059460" lon="9.8348620">
	<ele>1934.40</ele>
	<time>2023-11-18T10:09:08.000Z</time>
</trkpt>
<trkpt lat="45.9059450" lon="9.8348600">
	<ele>1934.20</ele>
	<time>2023-11-18T10:09:09.000Z</time>
</trkpt>
<trkpt lat="45.9059450" lon="9.8348570">
	<ele>1934.00</ele>
	<time>2023-11-18T10:09:10.000Z</time>
</trkpt>
<trkpt lat="45.9059420" lon="9.8348540">
	<ele>1933.80</ele>
	<time>2023-11-18T10:09:11.000Z</time>
</trkpt>
<trkpt lat="45.9059400" lon="9.8348510">
	<ele>1933.60</ele>
	<time>2023-11-18T10:09:12.000Z</time>
</trkpt>
<trkpt lat="45.9059390" lon="9.8348470">
	<ele>1933.40</ele>
	<time>2023-11-18T10:09:13.000Z</time>
</trkpt>
<trkpt lat="45.9059360" lon="9.8348430">
	<ele>1933.20</ele>
	<time>2023-11-18T10:09:14.000Z</time>
</trkpt>
<trkpt lat="45.9059350" lon="9.8348380">
	<ele>1933.00</ele>
	<time>2023-11-18T10:09:15.000Z</time>
</trkpt>
<trkpt lat="45.9059260" lon="9.8348360">
	<ele>1932.80</ele>
	<time>2023-11-18T10:09:16.000Z</time>
</trkpt>
<trkpt lat="45.9059170" lon="9.8348340">
	<ele>1932.40</ele>
	<time>2023-11-18T10:09:17.000Z</time>
</trkpt>
<trkpt lat="45.9059100" lon="9.8348330">
	<ele>1932.20</ele>
	<time>2023-11-18T10:09:18.000Z</time>
</trkpt>
<trkpt lat="45.9059030" lon="9.8348300">
	<ele>1932.20</ele>
	<time>2023-11-18T10:09:19.000Z</time>
</trkpt>
<trkpt lat="45.9058950" lon="9.8348300">
	<ele>1932.00</ele>
	<time>2023-11-18T10:09:20.000Z</time>
</trkpt>
<trkpt lat="45.9058900" lon="9.8348310">
	<ele>1932.00</ele>
	<time>2023-11-18T10:09:21.000Z</time>
</trkpt>
<trkpt lat="45.9058860" lon="9.8348270">
	<ele>1931.80</ele>
	<time>2023-11-18T10:09:22.000Z</time>
</trkpt>
<trkpt lat="45.9058830" lon="9.8348240">
	<ele>1931.80</ele>
	<time>2023-11-18T10:09:23.000Z</time>
</trkpt>
<trkpt lat="45.9058770" lon="9.8348240">
	<ele>1931.60</ele>
	<time>2023-11-18T10:09:24.000Z</time>
</trkpt>
<trkpt lat="45.9058730" lon="9.8348210">
	<ele>1931.60</ele>
	<time>2023-11-18T10:09:25.000Z</time>
</trkpt>
<trkpt lat="45.9058710" lon="9.8348200">
	<ele>1931.60</ele>
	<time>2023-11-18T10:09:26.000Z</time>
</trkpt>
<trkpt lat="45.9058680" lon="9.8348200">
	<ele>1931.60</ele>
	<time>2023-11-18T10:09:27.000Z</time>
</trkpt>
<trkpt lat="45.9058600" lon="9.8348170">
	<ele>1931.60</ele>
	<time>2023-11-18T10:09:28.000Z</time>
</trkpt>
<trkpt lat="45.9058560" lon="9.8348170">
	<ele>1931.60</ele>
	<time>2023-11-18T10:09:29.000Z</time>
</trkpt>
<trkpt lat="45.9058530" lon="9.8348170">
	<ele>1931.80</ele>
	<time>2023-11-18T10:09:30.000Z</time>
</trkpt>
<trkpt lat="45.9058490" lon="9.8348150">
	<ele>1931.80</ele>
	<time>2023-11-18T10:09:31.000Z</time>
</trkpt>
<trkpt lat="45.9058460" lon="9.8348130">
	<ele>1931.80</ele>
	<time>2023-11-18T10:09:32.000Z</time>
</trkpt>
<trkpt lat="45.9058450" lon="9.8348100">
	<ele>1931.80</ele>
	<time>2023-11-18T10:09:33.000Z</time>
</trkpt>
<trkpt lat="45.9058410" lon="9.8348080">
	<ele>1931.80</ele>
	<time>2023-11-18T10:09:34.000Z</time>
</trkpt>
<trkpt lat="45.9058360" lon="9.8348060">
	<ele>1931.80</ele>
	<time>2023-11-18T10:09:35.000Z</time>
</trkpt>
<trkpt lat="45.9058300" lon="9.8348050">
	<ele>1931.60</ele>
	<time>2023-11-18T10:09:36.000Z</time>
</trkpt>
<trkpt lat="45.9058270" lon="9.8348030">
	<ele>1931.40</ele>
	<time>2023-11-18T10:09:37.000Z</time>
</trkpt>
<trkpt lat="45.9058240" lon="9.8348010">
	<ele>1931.20</ele>
	<time>2023-11-18T10:09:38.000Z</time>
</trkpt>
<trkpt lat="45.9058210" lon="9.8347990">
	<ele>1930.80</ele>
	<time>2023-11-18T10:09:39.000Z</time>
</trkpt>
<trkpt lat="45.9058160" lon="9.8347980">
	<ele>1930.60</ele>
	<time>2023-11-18T10:09:40.000Z</time>
</trkpt>
<trkpt lat="45.9058130" lon="9.8347940">
	<ele>1930.40</ele>
	<time>2023-11-18T10:09:41.000Z</time>
</trkpt>
<trkpt lat="45.9058100" lon="9.8347910">
	<ele>1930.20</ele>
	<time>2023-11-18T10:09:42.000Z</time>
</trkpt>
<trkpt lat="45.9058080" lon="9.8347840">
	<ele>1929.80</ele>
	<time>2023-11-18T10:09:43.000Z</time>
</trkpt>
<trkpt lat="45.9058030" lon="9.8347770">
	<ele>1929.80</ele>
	<time>2023-11-18T10:09:44.000Z</time>
</trkpt>
<trkpt lat="45.9058000" lon="9.8347730">
	<ele>1929.40</ele>
	<time>2023-11-18T10:09:45.000Z</time>
</trkpt>
<trkpt lat="45.9057940" lon="9.8347710">
	<ele>1929.20</ele>
	<time>2023-11-18T10:09:46.000Z</time>
</trkpt>
<trkpt lat="45.9057860" lon="9.8347700">
	<ele>1929.00</ele>
	<time>2023-11-18T10:09:47.000Z</time>
</trkpt>
<trkpt lat="45.9057780" lon="9.8347670">
	<ele>1928.80</ele>
	<time>2023-11-18T10:09:48.000Z</time>
</trkpt>
<trkpt lat="45.9057730" lon="9.8347640">
	<ele>1928.80</ele>
	<time>2023-11-18T10:09:49.000Z</time>
</trkpt>
<trkpt lat="45.9057670" lon="9.8347630">
	<ele>1928.60</ele>
	<time>2023-11-18T10:09:50.000Z</time>
</trkpt>
<trkpt lat="45.9057620" lon="9.8347550">
	<ele>1928.40</ele>
	<time>2023-11-18T10:09:51.000Z</time>
</trkpt>
<trkpt lat="45.9057590" lon="9.8347490">
	<ele>1928.00</ele>
	<time>2023-11-18T10:09:52.000Z</time>
</trkpt>
<trkpt lat="45.9057520" lon="9.8347420">
	<ele>1927.80</ele>
	<time>2023-11-18T10:09:53.000Z</time>
</trkpt>
<trkpt lat="45.9057490" lon="9.8347360">
	<ele>1927.80</ele>
	<time>2023-11-18T10:09:54.000Z</time>
</trkpt>
<trkpt lat="45.9057470" lon="9.8347310">
	<ele>1927.40</ele>
	<time>2023-11-18T10:09:55.000Z</time>
</trkpt>
<trkpt lat="45.9057440" lon="9.8347260">
	<ele>1927.20</ele>
	<time>2023-11-18T10:09:56.000Z</time>
</trkpt>
<trkpt lat="45.9057390" lon="9.8347200">
	<ele>1927.20</ele>
	<time>2023-11-18T10:09:57.000Z</time>
</trkpt>
<trkpt lat="45.9057360" lon="9.8347150">
	<ele>1926.80</ele>
	<time>2023-11-18T10:09:58.000Z</time>
</trkpt>
<trkpt lat="45.9057320" lon="9.8347110">
	<ele>1926.60</ele>
	<time>2023-11-18T10:09:59.000Z</time>
</trkpt>
<trkpt lat="45.9057280" lon="9.8347070">
	<ele>1926.20</ele>
	<time>2023-11-18T10:10:00.000Z</time>
</trkpt>
<trkpt lat="45.9057230" lon="9.8347020">
	<ele>1926.00</ele>
	<time>2023-11-18T10:10:01.000Z</time>
</trkpt>
<trkpt lat="45.9057200" lon="9.8346980">
	<ele>1926.00</ele>
	<time>2023-11-18T10:10:02.000Z</time>
</trkpt>
<trkpt lat="45.9057140" lon="9.8346940">
	<ele>1925.80</ele>
	<time>2023-11-18T10:10:03.000Z</time>
</trkpt>
<trkpt lat="45.9057080" lon="9.8346900">
	<ele>1925.80</ele>
	<time>2023-11-18T10:10:04.000Z</time>
</trkpt>
<trkpt lat="45.9057030" lon="9.8346870">
	<ele>1925.60</ele>
	<time>2023-11-18T10:10:05.000Z</time>
</trkpt>
<trkpt lat="45.9056960" lon="9.8346830">
	<ele>1925.20</ele>
	<time>2023-11-18T10:10:06.000Z</time>
</trkpt>
<trkpt lat="45.9056910" lon="9.8346850">
	<ele>1925.00</ele>
	<time>2023-11-18T10:10:07.000Z</time>
</trkpt>
<trkpt lat="45.9056850" lon="9.8346880">
	<ele>1924.80</ele>
	<time>2023-11-18T10:10:08.000Z</time>
</trkpt>
<trkpt lat="45.9056800" lon="9.8346900">
	<ele>1924.60</ele>
	<time>2023-11-18T10:10:09.000Z</time>
</trkpt>
<trkpt lat="45.9056750" lon="9.8346850">
	<ele>1924.60</ele>
	<time>2023-11-18T10:10:10.000Z</time>
</trkpt>
<trkpt lat="45.9056680" lon="9.8346810">
	<ele>1924.40</ele>
	<time>2023-11-18T10:10:11.000Z</time>
</trkpt>
<trkpt lat="45.9056610" lon="9.8346790">
	<ele>1924.20</ele>
	<time>2023-11-18T10:10:12.000Z</time>
</trkpt>
<trkpt lat="45.9056570" lon="9.8346750">
	<ele>1924.00</ele>
	<time>2023-11-18T10:10:13.000Z</time>
</trkpt>
<trkpt lat="45.9056520" lon="9.8346680">
	<ele>1923.60</ele>
	<time>2023-11-18T10:10:14.000Z</time>
</trkpt>
<trkpt lat="45.9056490" lon="9.8346650">
	<ele>1923.20</ele>
	<time>2023-11-18T10:10:15.000Z</time>
</trkpt>
<trkpt lat="45.9056430" lon="9.8346610">
	<ele>1923.00</ele>
	<time>2023-11-18T10:10:16.000Z</time>
</trkpt>
<trkpt lat="45.9056370" lon="9.8346540">
	<ele>1922.80</ele>
	<time>2023-11-18T10:10:17.000Z</time>
</trkpt>
<trkpt lat="45.9056320" lon="9.8346530">
	<ele>1922.20</ele>
	<time>2023-11-18T10:10:18.000Z</time>
</trkpt>
<trkpt lat="45.9056250" lon="9.8346500">
	<ele>1922.00</ele>
	<time>2023-11-18T10:10:19.000Z</time>
</trkpt>
<trkpt lat="45.9056180" lon="9.8346470">
	<ele>1921.60</ele>
	<time>2023-11-18T10:10:20.000Z</time>
</trkpt>
<trkpt lat="45.9056100" lon="9.8346440">
	<ele>1921.40</ele>
	<time>2023-11-18T10:10:21.000Z</time>
</trkpt>
<trkpt lat="45.9056010" lon="9.8346360">
	<ele>1921.20</ele>
	<time>2023-11-18T10:10:22.000Z</time>
</trkpt>
<trkpt lat="45.9055890" lon="9.8346320">
	<ele>1921.00</ele>
	<time>2023-11-18T10:10:23.000Z</time>
</trkpt>
<trkpt lat="45.9055810" lon="9.8346260">
	<ele>1920.80</ele>
	<time>2023-11-18T10:10:24.000Z</time>
</trkpt>
<trkpt lat="45.9055760" lon="9.8346230">
	<ele>1920.60</ele>
	<time>2023-11-18T10:10:25.000Z</time>
</trkpt>
<trkpt lat="45.9055710" lon="9.8346210">
	<ele>1920.60</ele>
	<time>2023-11-18T10:10:26.000Z</time>
</trkpt>
<trkpt lat="45.9055670" lon="9.8346140">
	<ele>1920.40</ele>
	<time>2023-11-18T10:10:27.000Z</time>
</trkpt>
<trkpt lat="45.9055600" lon="9.8346040">
	<ele>1920.00</ele>
	<time>2023-11-18T10:10:28.000Z</time>
</trkpt>
<trkpt lat="45.9055520" lon="9.8345970">
	<ele>1919.80</ele>
	<time>2023-11-18T10:10:29.000Z</time>
</trkpt>
<trkpt lat="45.9055460" lon="9.8345890">
	<ele>1919.60</ele>
	<time>2023-11-18T10:10:30.000Z</time>
</trkpt>
<trkpt lat="45.9055350" lon="9.8345820">
	<ele>1919.40</ele>
	<time>2023-11-18T10:10:31.000Z</time>
</trkpt>
<trkpt lat="45.9055290" lon="9.8345750">
	<ele>1919.00</ele>
	<time>2023-11-18T10:10:32.000Z</time>
</trkpt>
<trkpt lat="45.9055240" lon="9.8345660">
	<ele>1918.60</ele>
	<time>2023-11-18T10:10:33.000Z</time>
</trkpt>
<trkpt lat="45.9055190" lon="9.8345590">
	<ele>1918.40</ele>
	<time>2023-11-18T10:10:34.000Z</time>
</trkpt>
<trkpt lat="45.9055090" lon="9.8345540">
	<ele>1918.20</ele>
	<time>2023-11-18T10:10:35.000Z</time>
</trkpt>
<trkpt lat="45.9055020" lon="9.8345510">
	<ele>1917.80</ele>
	<time>2023-11-18T10:10:36.000Z</time>
</trkpt>
<trkpt lat="45.9054980" lon="9.8345420">
	<ele>1917.60</ele>
	<time>2023-11-18T10:10:37.000Z</time>
</trkpt>
<trkpt lat="45.9054930" lon="9.8345340">
	<ele>1917.20</ele>
	<time>2023-11-18T10:10:38.000Z</time>
</trkpt>
<trkpt lat="45.9054880" lon="9.8345280">
	<ele>1917.20</ele>
	<time>2023-11-18T10:10:39.000Z</time>
</trkpt>
<trkpt lat="45.9054840" lon="9.8345240">
	<ele>1916.80</ele>
	<time>2023-11-18T10:10:40.000Z</time>
</trkpt>
<trkpt lat="45.9054820" lon="9.8345220">
	<ele>1916.60</ele>
	<time>2023-11-18T10:10:41.000Z</time>
</trkpt>
<trkpt lat="45.9054820" lon="9.8345210">
	<ele>1916.20</ele>
	<time>2023-11-18T10:10:42.000Z</time>
</trkpt>
<trkpt lat="45.9054800" lon="9.8345180">
	<ele>1916.00</ele>
	<time>2023-11-18T10:10:43.000Z</time>
</trkpt>
<trkpt lat="45.9054780" lon="9.8345150">
	<ele>1915.80</ele>
	<time>2023-11-18T10:10:44.000Z</time>
</trkpt>
<trkpt lat="45.9054750" lon="9.8345130">
	<ele>1915.60</ele>
	<time>2023-11-18T10:10:45.000Z</time>
</trkpt>
<trkpt lat="45.9054730" lon="9.8345110">
	<ele>1915.60</ele>
	<time>2023-11-18T10:10:46.000Z</time>
</trkpt>
<trkpt lat="45.9054700" lon="9.8345080">
	<ele>1915.40</ele>
	<time>2023-11-18T10:10:47.000Z</time>
</trkpt>
<trkpt lat="45.9054660" lon="9.8345030">
	<ele>1915.40</ele>
	<time>2023-11-18T10:10:48.000Z</time>
</trkpt>
<trkpt lat="45.9054610" lon="9.8344960">
	<ele>1915.40</ele>
	<time>2023-11-18T10:10:49.000Z</time>
</trkpt>
<trkpt lat="45.9054590" lon="9.8344870">
	<ele>1915.20</ele>
	<time>2023-11-18T10:10:50.000Z</time>
</trkpt>
<trkpt lat="45.9054580" lon="9.8344810">
	<ele>1914.80</ele>
	<time>2023-11-18T10:10:51.000Z</time>
</trkpt>
<trkpt lat="45.9054570" lon="9.8344800">
	<ele>1914.60</ele>
	<time>2023-11-18T10:10:52.000Z</time>
</trkpt>
<trkpt lat="45.9054570" lon="9.8344800">
	<ele>1914.40</ele>
	<time>2023-11-18T10:10:53.000Z</time>
</trkpt>
<trkpt lat="45.9054570" lon="9.8344790">
	<ele>1914.20</ele>
	<time>2023-11-18T10:10:54.000Z</time>
</trkpt>
<trkpt lat="45.9054570" lon="9.8344790">
	<ele>1914.20</ele>
	<time>2023-11-18T10:10:55.000Z</time>
</trkpt>
<trkpt lat="45.9054570" lon="9.8344790">
	<ele>1914.20</ele>
	<time>2023-11-18T10:10:56.000Z</time>
</trkpt>
<trkpt lat="45.9054570" lon="9.8344790">
	<ele>1914.20</ele>
	<time>2023-11-18T10:10:57.000Z</time>
</trkpt>
<trkpt lat="45.9054570" lon="9.8344790">
	<ele>1914.20</ele>
	<time>2023-11-18T10:10:58.000Z</time>
</trkpt>
<trkpt lat="45.9054570" lon="9.8344790">
	<ele>1914.20</ele>
	<time>2023-11-18T10:10:59.000Z</time>
</trkpt>
<trkpt lat="45.9054570" lon="9.8344790">
	<ele>1914.00</ele>
	<time>2023-11-18T10:11:00.000Z</time>
</trkpt>
<trkpt lat="45.9054570" lon="9.8344790">
	<ele>1914.00</ele>
	<time>2023-11-18T10:11:01.000Z</time>
</trkpt>
<trkpt lat="45.9054570" lon="9.8344790">
	<ele>1914.00</ele>
	<time>2023-11-18T10:11:02.000Z</time>
</trkpt>
<trkpt lat="45.9054570" lon="9.8344790">
	<ele>1914.00</ele>
	<time>2023-11-18T10:11:03.000Z</time>
</trkpt>
<trkpt lat="45.9054580" lon="9.8344790">
	<ele>1914.00</ele>
	<time>2023-11-18T10:11:04.000Z</time>
</trkpt>
<trkpt lat="45.9054590" lon="9.8344790">
	<ele>1914.00</ele>
	<time>2023-11-18T10:11:05.000Z</time>
</trkpt>
<trkpt lat="45.9054590" lon="9.8344790">
	<ele>1914.00</ele>
	<time>2023-11-18T10:11:06.000Z</time>
</trkpt>
<trkpt lat="45.9054590" lon="9.8344790">
	<ele>1914.00</ele>
	<time>2023-11-18T10:11:07.000Z</time>
</trkpt>
<trkpt lat="45.9054590" lon="9.8344790">
	<ele>1914.00</ele>
	<time>2023-11-18T10:11:08.000Z</time>
</trkpt>
<trkpt lat="45.9054590" lon="9.8344790">
	<ele>1914.00</ele>
	<time>2023-11-18T10:11:09.000Z</time>
</trkpt>
<trkpt lat="45.9054590" lon="9.8344790">
	<ele>1914.00</ele>
	<time>2023-11-18T10:11:10.000Z</time>
</trkpt>
<trkpt lat="45.9054590" lon="9.8344790">
	<ele>1914.00</ele>
	<time>2023-11-18T10:11:11.000Z</time>
</trkpt>
<trkpt lat="45.9054590" lon="9.8344780">
	<ele>1914.00</ele>
	<time>2023-11-18T10:11:12.000Z</time>
</trkpt>
<trkpt lat="45.9054590" lon="9.8344780">
	<ele>1914.00</ele>
	<time>2023-11-18T10:11:13.000Z</time>
</trkpt>
<trkpt lat="45.9054590" lon="9.8344780">
	<ele>1913.80</ele>
	<time>2023-11-18T10:11:14.000Z</time>
</trkpt>
<trkpt lat="45.9054590" lon="9.8344780">
	<ele>1913.80</ele>
	<time>2023-11-18T10:11:15.000Z</time>
</trkpt>
<trkpt lat="45.9054590" lon="9.8344780">
	<ele>1913.80</ele>
	<time>2023-11-18T10:11:16.000Z</time>
</trkpt>
<trkpt lat="45.9054580" lon="9.8344780">
	<ele>1913.80</ele>
	<time>2023-11-18T10:11:17.000Z</time>
</trkpt>
<trkpt lat="45.9054580" lon="9.8344780">
	<ele>1913.80</ele>
	<time>2023-11-18T10:11:18.000Z</time>
</trkpt>
<trkpt lat="45.9054580" lon="9.8344780">
	<ele>1914.00</ele>
	<time>2023-11-18T10:11:19.000Z</time>
</trkpt>
<trkpt lat="45.9054570" lon="9.8344780">
	<ele>1914.00</ele>
	<time>2023-11-18T10:11:20.000Z</time>
</trkpt>
<trkpt lat="45.9054570" lon="9.8344780">
	<ele>1914.20</ele>
	<time>2023-11-18T10:11:21.000Z</time>
</trkpt>
<trkpt lat="45.9054570" lon="9.8344780">
	<ele>1914.20</ele>
	<time>2023-11-18T10:11:22.000Z</time>
</trkpt>
<trkpt lat="45.9054570" lon="9.8344780">
	<ele>1914.20</ele>
	<time>2023-11-18T10:11:23.000Z</time>
</trkpt>
<trkpt lat="45.9054570" lon="9.8344780">
	<ele>1914.20</ele>
	<time>2023-11-18T10:11:24.000Z</time>
</trkpt>
<trkpt lat="45.9054570" lon="9.8344780">
	<ele>1914.20</ele>
	<time>2023-11-18T10:11:25.000Z</time>
</trkpt>
<trkpt lat="45.9054570" lon="9.8344780">
	<ele>1914.00</ele>
	<time>2023-11-18T10:11:26.000Z</time>
</trkpt>
<trkpt lat="45.9054570" lon="9.8344780">
	<ele>1914.00</ele>
	<time>2023-11-18T10:11:27.000Z</time>
</trkpt>
<trkpt lat="45.9054570" lon="9.8344780">
	<ele>1914.00</ele>
	<time>2023-11-18T10:11:28.000Z</time>
</trkpt>
<trkpt lat="45.9054570" lon="9.8344800">
	<ele>1914.00</ele>
	<time>2023-11-18T10:11:29.000Z</time>
</trkpt>
<trkpt lat="45.9054570" lon="9.8344800">
	<ele>1914.00</ele>
	<time>2023-11-18T10:11:30.000Z</time>
</trkpt>
<trkpt lat="45.9054570" lon="9.8344810">
	<ele>1914.20</ele>
	<time>2023-11-18T10:11:31.000Z</time>
</trkpt>
<trkpt lat="45.9054570" lon="9.8344810">
	<ele>1914.20</ele>
	<time>2023-11-18T10:11:32.000Z</time>
</trkpt>
<trkpt lat="45.9054570" lon="9.8344810">
	<ele>1914.20</ele>
	<time>2023-11-18T10:11:33.000Z</time>
</trkpt>
<trkpt lat="45.9054570" lon="9.8344830">
	<ele>1914.20</ele>
	<time>2023-11-18T10:11:34.000Z</time>
</trkpt>
<trkpt lat="45.9054570" lon="9.8344850">
	<ele>1914.20</ele>
	<time>2023-11-18T10:11:35.000Z</time>
</trkpt>
<trkpt lat="45.9054570" lon="9.8344860">
	<ele>1914.20</ele>
	<time>2023-11-18T10:11:36.000Z</time>
</trkpt>
<trkpt lat="45.9054570" lon="9.8344890">
	<ele>1914.20</ele>
	<time>2023-11-18T10:11:37.000Z</time>
</trkpt>
<trkpt lat="45.9054570" lon="9.8344890">
	<ele>1914.20</ele>
	<time>2023-11-18T10:11:38.000Z</time>
</trkpt>
<trkpt lat="45.9054570" lon="9.8344900">
	<ele>1914.20</ele>
	<time>2023-11-18T10:11:39.000Z</time>
</trkpt>
<trkpt lat="45.9054570" lon="9.8344900">
	<ele>1914.20</ele>
	<time>2023-11-18T10:11:40.000Z</time>
</trkpt>
<trkpt lat="45.9054570" lon="9.8344900">
	<ele>1914.20</ele>
	<time>2023-11-18T10:11:41.000Z</time>
</trkpt>
<trkpt lat="45.9054550" lon="9.8344850">
	<ele>1914.20</ele>
	<time>2023-11-18T10:11:42.000Z</time>
</trkpt>
<trkpt lat="45.9054470" lon="9.8344670">
	<ele>1914.00</ele>
	<time>2023-11-18T10:11:43.000Z</time>
</trkpt>
<trkpt lat="45.9054380" lon="9.8344550">
	<ele>1914.00</ele>
	<time>2023-11-18T10:11:44.000Z</time>
</trkpt>
<trkpt lat="45.9054290" lon="9.8344420">
	<ele>1914.00</ele>
	<time>2023-11-18T10:11:45.000Z</time>
</trkpt>
<trkpt lat="45.9054230" lon="9.8344270">
	<ele>1914.00</ele>
	<time>2023-11-18T10:11:46.000Z</time>
</trkpt>
<trkpt lat="45.9054170" lon="9.8344150">
	<ele>1914.00</ele>
	<time>2023-11-18T10:11:47.000Z</time>
</trkpt>
<trkpt lat="45.9054070" lon="9.8344060">
	<ele>1913.80</ele>
	<time>2023-11-18T10:11:48.000Z</time>
</trkpt>
<trkpt lat="45.9053950" lon="9.8343920">
	<ele>1913.80</ele>
	<time>2023-11-18T10:11:49.000Z</time>
</trkpt>
<trkpt lat="45.9053840" lon="9.8343800">
	<ele>1913.60</ele>
	<time>2023-11-18T10:11:50.000Z</time>
</trkpt>
<trkpt lat="45.9053770" lon="9.8343720">
	<ele>1913.60</ele>
	<time>2023-11-18T10:11:51.000Z</time>
</trkpt>
<trkpt lat="45.9053770" lon="9.8343700">
	<ele>1913.40</ele>
	<time>2023-11-18T10:11:52.000Z</time>
</trkpt>
<trkpt lat="45.9053780" lon="9.8343630">
	<ele>1913.20</ele>
	<time>2023-11-18T10:11:53.000Z</time>
</trkpt>
<trkpt lat="45.9053780" lon="9.8343560">
	<ele>1913.20</ele>
	<time>2023-11-18T10:11:54.000Z</time>
</trkpt>
<trkpt lat="45.9053740" lon="9.8343510">
	<ele>1913.00</ele>
	<time>2023-11-18T10:11:55.000Z</time>
</trkpt>
<trkpt lat="45.9053730" lon="9.8343470">
	<ele>1913.00</ele>
	<time>2023-11-18T10:11:56.000Z</time>
</trkpt>
<trkpt lat="45.9053750" lon="9.8343430">
	<ele>1912.80</ele>
	<time>2023-11-18T10:11:57.000Z</time>
</trkpt>
<trkpt lat="45.9053760" lon="9.8343420">
	<ele>1912.60</ele>
	<time>2023-11-18T10:11:58.000Z</time>
</trkpt>
<trkpt lat="45.9053760" lon="9.8343420">
	<ele>1912.60</ele>
	<time>2023-11-18T10:11:59.000Z</time>
</trkpt>
<trkpt lat="45.9053760" lon="9.8343420">
	<ele>1912.40</ele>
	<time>2023-11-18T10:12:00.000Z</time>
</trkpt>
<trkpt lat="45.9053760" lon="9.8343420">
	<ele>1912.40</ele>
	<time>2023-11-18T10:12:01.000Z</time>
</trkpt>
<trkpt lat="45.9053760" lon="9.8343420">
	<ele>1912.40</ele>
	<time>2023-11-18T10:12:02.000Z</time>
</trkpt>
<trkpt lat="45.9053760" lon="9.8343410">
	<ele>1912.40</ele>
	<time>2023-11-18T10:12:03.000Z</time>
</trkpt>
<trkpt lat="45.9053750" lon="9.8343410">
	<ele>1912.40</ele>
	<time>2023-11-18T10:12:04.000Z</time>
</trkpt>
<trkpt lat="45.9053750" lon="9.8343410">
	<ele>1912.40</ele>
	<time>2023-11-18T10:12:05.000Z</time>
</trkpt>
<trkpt lat="45.9053750" lon="9.8343410">
	<ele>1912.40</ele>
	<time>2023-11-18T10:12:06.000Z</time>
</trkpt>
<trkpt lat="45.9053750" lon="9.8343410">
	<ele>1912.20</ele>
	<time>2023-11-18T10:12:07.000Z</time>
</trkpt>
<trkpt lat="45.9053750" lon="9.8343410">
	<ele>1912.20</ele>
	<time>2023-11-18T10:12:08.000Z</time>
</trkpt>
<trkpt lat="45.9053750" lon="9.8343410">
	<ele>1912.00</ele>
	<time>2023-11-18T10:12:09.000Z</time>
</trkpt>
<trkpt lat="45.9053750" lon="9.8343410">
	<ele>1911.80</ele>
	<time>2023-11-18T10:12:10.000Z</time>
</trkpt>
<trkpt lat="45.9053750" lon="9.8343410">
	<ele>1911.60</ele>
	<time>2023-11-18T10:12:11.000Z</time>
</trkpt>
<trkpt lat="45.9053750" lon="9.8343410">
	<ele>1911.40</ele>
	<time>2023-11-18T10:12:12.000Z</time>
</trkpt>
<trkpt lat="45.9053750" lon="9.8343410">
	<ele>1911.20</ele>
	<time>2023-11-18T10:12:13.000Z</time>
</trkpt>
<trkpt lat="45.9053760" lon="9.8343410">
	<ele>1911.20</ele>
	<time>2023-11-18T10:12:14.000Z</time>
</trkpt>
<trkpt lat="45.9053760" lon="9.8343410">
	<ele>1911.00</ele>
	<time>2023-11-18T10:12:15.000Z</time>
</trkpt>
<trkpt lat="45.9053760" lon="9.8343410">
	<ele>1911.00</ele>
	<time>2023-11-18T10:12:16.000Z</time>
</trkpt>
<trkpt lat="45.9053760" lon="9.8343410">
	<ele>1910.80</ele>
	<time>2023-11-18T10:12:17.000Z</time>
</trkpt>
<trkpt lat="45.9053760" lon="9.8343410">
	<ele>1910.60</ele>
	<time>2023-11-18T10:12:18.000Z</time>
</trkpt>
<trkpt lat="45.9053760" lon="9.8343410">
	<ele>1910.60</ele>
	<time>2023-11-18T10:12:19.000Z</time>
</trkpt>
<trkpt lat="45.9053770" lon="9.8343370">
	<ele>1910.40</ele>
	<time>2023-11-18T10:12:20.000Z</time>
</trkpt>
<trkpt lat="45.9053780" lon="9.8343310">
	<ele>1910.20</ele>
	<time>2023-11-18T10:12:21.000Z</time>
</trkpt>
<trkpt lat="45.9053840" lon="9.8343230">
	<ele>1910.20</ele>
	<time>2023-11-18T10:12:22.000Z</time>
</trkpt>
<trkpt lat="45.9053880" lon="9.8343150">
	<ele>1910.00</ele>
	<time>2023-11-18T10:12:23.000Z</time>
</trkpt>
<trkpt lat="45.9053880" lon="9.8343080">
	<ele>1910.00</ele>
	<time>2023-11-18T10:12:24.000Z</time>
</trkpt>
<trkpt lat="45.9053890" lon="9.8343010">
	<ele>1909.80</ele>
	<time>2023-11-18T10:12:25.000Z</time>
</trkpt>
<trkpt lat="45.9053890" lon="9.8342940">
	<ele>1909.80</ele>
	<time>2023-11-18T10:12:26.000Z</time>
</trkpt>
<trkpt lat="45.9053920" lon="9.8342890">
	<ele>1909.60</ele>
	<time>2023-11-18T10:12:27.000Z</time>
</trkpt>
<trkpt lat="45.9053930" lon="9.8342820">
	<ele>1909.60</ele>
	<time>2023-11-18T10:12:28.000Z</time>
</trkpt>
<trkpt lat="45.9053930" lon="9.8342760">
	<ele>1909.40</ele>
	<time>2023-11-18T10:12:29.000Z</time>
</trkpt>
<trkpt lat="45.9053930" lon="9.8342640">
	<ele>1909.20</ele>
	<time>2023-11-18T10:12:30.000Z</time>
</trkpt>
<trkpt lat="45.9053930" lon="9.8342510">
	<ele>1909.20</ele>
	<time>2023-11-18T10:12:31.000Z</time>
</trkpt>
<trkpt lat="45.9053930" lon="9.8342400">
	<ele>1909.00</ele>
	<time>2023-11-18T10:12:32.000Z</time>
</trkpt>
<trkpt lat="45.9053930" lon="9.8342300">
	<ele>1909.00</ele>
	<time>2023-11-18T10:12:33.000Z</time>
</trkpt>
<trkpt lat="45.9053930" lon="9.8342240">
	<ele>1909.00</ele>
	<time>2023-11-18T10:12:34.000Z</time>
</trkpt>
<trkpt lat="45.9053930" lon="9.8342160">
	<ele>1909.00</ele>
	<time>2023-11-18T10:12:35.000Z</time>
</trkpt>
<trkpt lat="45.9053930" lon="9.8342050">
	<ele>1909.00</ele>
	<time>2023-11-18T10:12:36.000Z</time>
</trkpt>
<trkpt lat="45.9053930" lon="9.8341950">
	<ele>1909.00</ele>
	<time>2023-11-18T10:12:37.000Z</time>
</trkpt>
<trkpt lat="45.9053930" lon="9.8341850">
	<ele>1909.00</ele>
	<time>2023-11-18T10:12:38.000Z</time>
</trkpt>
<trkpt lat="45.9053930" lon="9.8341750">
	<ele>1909.00</ele>
	<time>2023-11-18T10:12:39.000Z</time>
</trkpt>
<trkpt lat="45.9053930" lon="9.8341640">
	<ele>1909.20</ele>
	<time>2023-11-18T10:12:40.000Z</time>
</trkpt>
<trkpt lat="45.9053920" lon="9.8341540">
	<ele>1909.20</ele>
	<time>2023-11-18T10:12:41.000Z</time>
</trkpt>
<trkpt lat="45.9053920" lon="9.8341470">
	<ele>1909.20</ele>
	<time>2023-11-18T10:12:42.000Z</time>
</trkpt>
<trkpt lat="45.9053910" lon="9.8341420">
	<ele>1909.20</ele>
	<time>2023-11-18T10:12:43.000Z</time>
</trkpt>
<trkpt lat="45.9053910" lon="9.8341390">
	<ele>1909.00</ele>
	<time>2023-11-18T10:12:44.000Z</time>
</trkpt>
<trkpt lat="45.9053910" lon="9.8341370">
	<ele>1909.00</ele>
	<time>2023-11-18T10:12:45.000Z</time>
</trkpt>
<trkpt lat="45.9053910" lon="9.8341360">
	<ele>1909.00</ele>
	<time>2023-11-18T10:12:46.000Z</time>
</trkpt>
<trkpt lat="45.9053900" lon="9.8341350">
	<ele>1909.00</ele>
	<time>2023-11-18T10:12:47.000Z</time>
</trkpt>
<trkpt lat="45.9053900" lon="9.8341340">
	<ele>1909.00</ele>
	<time>2023-11-18T10:12:48.000Z</time>
</trkpt>
<trkpt lat="45.9053900" lon="9.8341290">
	<ele>1909.00</ele>
	<time>2023-11-18T10:12:49.000Z</time>
</trkpt>
<trkpt lat="45.9053870" lon="9.8341100">
	<ele>1908.80</ele>
	<time>2023-11-18T10:12:50.000Z</time>
</trkpt>
<trkpt lat="45.9053830" lon="9.8340920">
	<ele>1908.80</ele>
	<time>2023-11-18T10:12:51.000Z</time>
</trkpt>
<trkpt lat="45.9053800" lon="9.8340780">
	<ele>1908.60</ele>
	<time>2023-11-18T10:12:52.000Z</time>
</trkpt>
<trkpt lat="45.9053810" lon="9.8340650">
	<ele>1908.60</ele>
	<time>2023-11-18T10:12:53.000Z</time>
</trkpt>
<trkpt lat="45.9053830" lon="9.8340560">
	<ele>1908.60</ele>
	<time>2023-11-18T10:12:54.000Z</time>
</trkpt>
<trkpt lat="45.9053840" lon="9.8340470">
	<ele>1908.60</ele>
	<time>2023-11-18T10:12:55.000Z</time>
</trkpt>
<trkpt lat="45.9053850" lon="9.8340360">
	<ele>1908.60</ele>
	<time>2023-11-18T10:12:56.000Z</time>
</trkpt>
<trkpt lat="45.9053880" lon="9.8340220">
	<ele>1908.60</ele>
	<time>2023-11-18T10:12:57.000Z</time>
</trkpt>
<trkpt lat="45.9053910" lon="9.8340080">
	<ele>1908.60</ele>
	<time>2023-11-18T10:12:58.000Z</time>
</trkpt>
<trkpt lat="45.9053970" lon="9.8339990">
	<ele>1908.60</ele>
	<time>2023-11-18T10:12:59.000Z</time>
</trkpt>
<trkpt lat="45.9054010" lon="9.8339870">
	<ele>1908.60</ele>
	<time>2023-11-18T10:13:00.000Z</time>
</trkpt>
<trkpt lat="45.9054030" lon="9.8339760">
	<ele>1908.60</ele>
	<time>2023-11-18T10:13:01.000Z</time>
</trkpt>
<trkpt lat="45.9054040" lon="9.8339630">
	<ele>1908.60</ele>
	<time>2023-11-18T10:13:02.000Z</time>
</trkpt>
<trkpt lat="45.9054040" lon="9.8339480">
	<ele>1908.60</ele>
	<time>2023-11-18T10:13:03.000Z</time>
</trkpt>
<trkpt lat="45.9054030" lon="9.8339370">
	<ele>1908.60</ele>
	<time>2023-11-18T10:13:04.000Z</time>
</trkpt>
<trkpt lat="45.9054010" lon="9.8339260">
	<ele>1908.80</ele>
	<time>2023-11-18T10:13:05.000Z</time>
</trkpt>
<trkpt lat="45.9054020" lon="9.8339170">
	<ele>1908.80</ele>
	<time>2023-11-18T10:13:06.000Z</time>
</trkpt>
<trkpt lat="45.9054000" lon="9.8339090">
	<ele>1909.00</ele>
	<time>2023-11-18T10:13:07.000Z</time>
</trkpt>
<trkpt lat="45.9053990" lon="9.8339060">
	<ele>1909.00</ele>
	<time>2023-11-18T10:13:08.000Z</time>
</trkpt>
<trkpt lat="45.9053980" lon="9.8339040">
	<ele>1909.00</ele>
	<time>2023-11-18T10:13:09.000Z</time>
</trkpt>
<trkpt lat="45.9053980" lon="9.8338970">
	<ele>1909.20</ele>
	<time>2023-11-18T10:13:10.000Z</time>
</trkpt>
<trkpt lat="45.9053980" lon="9.8338890">
	<ele>1909.20</ele>
	<time>2023-11-18T10:13:11.000Z</time>
</trkpt>
<trkpt lat="45.9053980" lon="9.8338790">
	<ele>1909.20</ele>
	<time>2023-11-18T10:13:12.000Z</time>
</trkpt>
<trkpt lat="45.9053960" lon="9.8338690">
	<ele>1909.20</ele>
	<time>2023-11-18T10:13:13.000Z</time>
</trkpt>
<trkpt lat="45.9053920" lon="9.8338610">
	<ele>1909.20</ele>
	<time>2023-11-18T10:13:14.000Z</time>
</trkpt>
<trkpt lat="45.9053880" lon="9.8338520">
	<ele>1909.20</ele>
	<time>2023-11-18T10:13:15.000Z</time>
</trkpt>
<trkpt lat="45.9053830" lon="9.8338440">
	<ele>1909.20</ele>
	<time>2023-11-18T10:13:16.000Z</time>
</trkpt>
<trkpt lat="45.9053790" lon="9.8338400">
	<ele>1909.20</ele>
	<time>2023-11-18T10:13:17.000Z</time>
</trkpt>
<trkpt lat="45.9053730" lon="9.8338370">
	<ele>1909.20</ele>
	<time>2023-11-18T10:13:18.000Z</time>
</trkpt>
<trkpt lat="45.9053660" lon="9.8338340">
	<ele>1909.40</ele>
	<time>2023-11-18T10:13:19.000Z</time>
</trkpt>
<trkpt lat="45.9053590" lon="9.8338290">
	<ele>1909.40</ele>
	<time>2023-11-18T10:13:20.000Z</time>
</trkpt>
<trkpt lat="45.9053510" lon="9.8338260">
	<ele>1909.60</ele>
	<time>2023-11-18T10:13:21.000Z</time>
</trkpt>
<trkpt lat="45.9053430" lon="9.8338230">
	<ele>1910.00</ele>
	<time>2023-11-18T10:13:22.000Z</time>
</trkpt>
<trkpt lat="45.9053350" lon="9.8338170">
	<ele>1910.00</ele>
	<time>2023-11-18T10:13:23.000Z</time>
</trkpt>
<trkpt lat="45.9053270" lon="9.8338120">
	<ele>1910.20</ele>
	<time>2023-11-18T10:13:24.000Z</time>
</trkpt>
<trkpt lat="45.9053200" lon="9.8338090">
	<ele>1910.20</ele>
	<time>2023-11-18T10:13:25.000Z</time>
</trkpt>
<trkpt lat="45.9053120" lon="9.8338050">
	<ele>1910.20</ele>
	<time>2023-11-18T10:13:26.000Z</time>
</trkpt>
<trkpt lat="45.9053060" lon="9.8338010">
	<ele>1910.40</ele>
	<time>2023-11-18T10:13:27.000Z</time>
</trkpt>
<trkpt lat="45.9052990" lon="9.8337930">
	<ele>1910.60</ele>
	<time>2023-11-18T10:13:28.000Z</time>
</trkpt>
<trkpt lat="45.9052940" lon="9.8337890">
	<ele>1910.80</ele>
	<time>2023-11-18T10:13:29.000Z</time>
</trkpt>
<trkpt lat="45.9052890" lon="9.8337880">
	<ele>1910.80</ele>
	<time>2023-11-18T10:13:30.000Z</time>
</trkpt>
<trkpt lat="45.9052810" lon="9.8337830">
	<ele>1910.80</ele>
	<time>2023-11-18T10:13:31.000Z</time>
</trkpt>
<trkpt lat="45.9052750" lon="9.8337800">
	<ele>1910.80</ele>
	<time>2023-11-18T10:13:32.000Z</time>
</trkpt>
<trkpt lat="45.9052690" lon="9.8337750">
	<ele>1911.00</ele>
	<time>2023-11-18T10:13:33.000Z</time>
</trkpt>
<trkpt lat="45.9052650" lon="9.8337720">
	<ele>1911.00</ele>
	<time>2023-11-18T10:13:34.000Z</time>
</trkpt>
<trkpt lat="45.9052620" lon="9.8337700">
	<ele>1911.00</ele>
	<time>2023-11-18T10:13:35.000Z</time>
</trkpt>
<trkpt lat="45.9052590" lon="9.8337660">
	<ele>1911.00</ele>
	<time>2023-11-18T10:13:36.000Z</time>
</trkpt>
<trkpt lat="45.9052550" lon="9.8337620">
	<ele>1911.00</ele>
	<time>2023-11-18T10:13:37.000Z</time>
</trkpt>
<trkpt lat="45.9052510" lon="9.8337590">
	<ele>1911.20</ele>
	<time>2023-11-18T10:13:38.000Z</time>
</trkpt>
<trkpt lat="45.9052470" lon="9.8337570">
	<ele>1911.20</ele>
	<time>2023-11-18T10:13:39.000Z</time>
</trkpt>
<trkpt lat="45.9052410" lon="9.8337560">
	<ele>1911.20</ele>
	<time>2023-11-18T10:13:40.000Z</time>
</trkpt>
<trkpt lat="45.9052350" lon="9.8337600">
	<ele>1911.20</ele>
	<time>2023-11-18T10:13:41.000Z</time>
</trkpt>
<trkpt lat="45.9052280" lon="9.8337670">
	<ele>1911.20</ele>
	<time>2023-11-18T10:13:42.000Z</time>
</trkpt>
<trkpt lat="45.9052240" lon="9.8337730">
	<ele>1911.00</ele>
	<time>2023-11-18T10:13:43.000Z</time>
</trkpt>
<trkpt lat="45.9052210" lon="9.8337780">
	<ele>1911.00</ele>
	<time>2023-11-18T10:13:44.000Z</time>
</trkpt>
<trkpt lat="45.9052150" lon="9.8337860">
	<ele>1910.60</ele>
	<time>2023-11-18T10:13:45.000Z</time>
</trkpt>
<trkpt lat="45.9052120" lon="9.8337880">
	<ele>1910.40</ele>
	<time>2023-11-18T10:13:46.000Z</time>
</trkpt>
<trkpt lat="45.9052090" lon="9.8337910">
	<ele>1910.20</ele>
	<time>2023-11-18T10:13:47.000Z</time>
</trkpt>
<trkpt lat="45.9052060" lon="9.8337960">
	<ele>1910.20</ele>
	<time>2023-11-18T10:13:48.000Z</time>
</trkpt>
<trkpt lat="45.9052030" lon="9.8337980">
	<ele>1910.00</ele>
	<time>2023-11-18T10:13:49.000Z</time>
</trkpt>
<trkpt lat="45.9051990" lon="9.8338020">
	<ele>1909.80</ele>
	<time>2023-11-18T10:13:50.000Z</time>
</trkpt>
<trkpt lat="45.9051940" lon="9.8338040">
	<ele>1909.60</ele>
	<time>2023-11-18T10:13:51.000Z</time>
</trkpt>
<trkpt lat="45.9051910" lon="9.8338040">
	<ele>1909.60</ele>
	<time>2023-11-18T10:13:52.000Z</time>
</trkpt>
<trkpt lat="45.9051910" lon="9.8338010">
	<ele>1909.40</ele>
	<time>2023-11-18T10:13:53.000Z</time>
</trkpt>
<trkpt lat="45.9051950" lon="9.8337940">
	<ele>1909.40</ele>
	<time>2023-11-18T10:13:54.000Z</time>
</trkpt>
<trkpt lat="45.9052000" lon="9.8337830">
	<ele>1909.40</ele>
	<time>2023-11-18T10:13:55.000Z</time>
</trkpt>
<trkpt lat="45.9052040" lon="9.8337740">
	<ele>1909.40</ele>
	<time>2023-11-18T10:13:56.000Z</time>
</trkpt>
<trkpt lat="45.9052060" lon="9.8337610">
	<ele>1909.60</ele>
	<time>2023-11-18T10:13:57.000Z</time>
</trkpt>
<trkpt lat="45.9052070" lon="9.8337470">
	<ele>1909.80</ele>
	<time>2023-11-18T10:13:58.000Z</time>
</trkpt>
<trkpt lat="45.9052050" lon="9.8337350">
	<ele>1909.80</ele>
	<time>2023-11-18T10:13:59.000Z</time>
</trkpt>
<trkpt lat="45.9052060" lon="9.8337200">
	<ele>1909.80</ele>
	<time>2023-11-18T10:14:00.000Z</time>
</trkpt>
<trkpt lat="45.9052040" lon="9.8337010">
	<ele>1910.00</ele>
	<time>2023-11-18T10:14:01.000Z</time>
</trkpt>
<trkpt lat="45.9052010" lon="9.8336850">
	<ele>1910.00</ele>
	<time>2023-11-18T10:14:02.000Z</time>
</trkpt>
<trkpt lat="45.9051990" lon="9.8336750">
	<ele>1910.00</ele>
	<time>2023-11-18T10:14:03.000Z</time>
</trkpt>
<trkpt lat="45.9051980" lon="9.8336620">
	<ele>1910.20</ele>
	<time>2023-11-18T10:14:04.000Z</time>
</trkpt>
<trkpt lat="45.9051980" lon="9.8336490">
	<ele>1910.20</ele>
	<time>2023-11-18T10:14:05.000Z</time>
</trkpt>
<trkpt lat="45.9051970" lon="9.8336380">
	<ele>1910.40</ele>
	<time>2023-11-18T10:14:06.000Z</time>
</trkpt>
<trkpt lat="45.9051940" lon="9.8336260">
	<ele>1910.40</ele>
	<time>2023-11-18T10:14:07.000Z</time>
</trkpt>
<trkpt lat="45.9051920" lon="9.8336150">
	<ele>1910.40</ele>
	<time>2023-11-18T10:14:08.000Z</time>
</trkpt>
<trkpt lat="45.9051910" lon="9.8336040">
	<ele>1910.40</ele>
	<time>2023-11-18T10:14:09.000Z</time>
</trkpt>
<trkpt lat="45.9051910" lon="9.8335910">
	<ele>1910.60</ele>
	<time>2023-11-18T10:14:10.000Z</time>
</trkpt>
<trkpt lat="45.9051890" lon="9.8335780">
	<ele>1910.60</ele>
	<time>2023-11-18T10:14:11.000Z</time>
</trkpt>
<trkpt lat="45.9051900" lon="9.8335700">
	<ele>1910.80</ele>
	<time>2023-11-18T10:14:12.000Z</time>
</trkpt>
<trkpt lat="45.9051910" lon="9.8335670">
	<ele>1910.80</ele>
	<time>2023-11-18T10:14:13.000Z</time>
</trkpt>
<trkpt lat="45.9051910" lon="9.8335640">
	<ele>1911.00</ele>
	<time>2023-11-18T10:14:14.000Z</time>
</trkpt>
<trkpt lat="45.9051920" lon="9.8335600">
	<ele>1911.20</ele>
	<time>2023-11-18T10:14:15.000Z</time>
</trkpt>
<trkpt lat="45.9051960" lon="9.8335510">
	<ele>1911.20</ele>
	<time>2023-11-18T10:14:16.000Z</time>
</trkpt>
<trkpt lat="45.9051970" lon="9.8335380">
	<ele>1911.20</ele>
	<time>2023-11-18T10:14:17.000Z</time>
</trkpt>
<trkpt lat="45.9051950" lon="9.8335240">
	<ele>1911.20</ele>
	<time>2023-11-18T10:14:18.000Z</time>
</trkpt>
<trkpt lat="45.9051950" lon="9.8335100">
	<ele>1911.20</ele>
	<time>2023-11-18T10:14:19.000Z</time>
</trkpt>
<trkpt lat="45.9051920" lon="9.8334940">
	<ele>1911.20</ele>
	<time>2023-11-18T10:14:20.000Z</time>
</trkpt>
<trkpt lat="45.9051890" lon="9.8334820">
	<ele>1911.20</ele>
	<time>2023-11-18T10:14:21.000Z</time>
</trkpt>
<trkpt lat="45.9051830" lon="9.8334690">
	<ele>1911.00</ele>
	<time>2023-11-18T10:14:22.000Z</time>
</trkpt>
<trkpt lat="45.9051780" lon="9.8334560">
	<ele>1911.00</ele>
	<time>2023-11-18T10:14:23.000Z</time>
</trkpt>
<trkpt lat="45.9051710" lon="9.8334450">
	<ele>1911.00</ele>
	<time>2023-11-18T10:14:24.000Z</time>
</trkpt>
<trkpt lat="45.9051660" lon="9.8334370">
	<ele>1911.00</ele>
	<time>2023-11-18T10:14:25.000Z</time>
</trkpt>
<trkpt lat="45.9051610" lon="9.8334290">
	<ele>1910.80</ele>
	<time>2023-11-18T10:14:26.000Z</time>
</trkpt>
<trkpt lat="45.9051550" lon="9.8334180">
	<ele>1910.80</ele>
	<time>2023-11-18T10:14:27.000Z</time>
</trkpt>
<trkpt lat="45.9051470" lon="9.8334080">
	<ele>1910.40</ele>
	<time>2023-11-18T10:14:28.000Z</time>
</trkpt>
<trkpt lat="45.9051420" lon="9.8334000">
	<ele>1910.40</ele>
	<time>2023-11-18T10:14:29.000Z</time>
</trkpt>
<trkpt lat="45.9051350" lon="9.8333930">
	<ele>1910.20</ele>
	<time>2023-11-18T10:14:30.000Z</time>
</trkpt>
<trkpt lat="45.9051260" lon="9.8333830">
	<ele>1910.20</ele>
	<time>2023-11-18T10:14:31.000Z</time>
</trkpt>
<trkpt lat="45.9051160" lon="9.8333770">
	<ele>1910.00</ele>
	<time>2023-11-18T10:14:32.000Z</time>
</trkpt>
<trkpt lat="45.9051050" lon="9.8333730">
	<ele>1910.00</ele>
	<time>2023-11-18T10:14:33.000Z</time>
</trkpt>
<trkpt lat="45.9050930" lon="9.8333650">
	<ele>1909.80</ele>
	<time>2023-11-18T10:14:34.000Z</time>
</trkpt>
<trkpt lat="45.9050830" lon="9.8333580">
	<ele>1909.80</ele>
	<time>2023-11-18T10:14:35.000Z</time>
</trkpt>
<trkpt lat="45.9050750" lon="9.8333530">
	<ele>1909.80</ele>
	<time>2023-11-18T10:14:36.000Z</time>
</trkpt>
<trkpt lat="45.9050670" lon="9.8333490">
	<ele>1909.60</ele>
	<time>2023-11-18T10:14:37.000Z</time>
</trkpt>
<trkpt lat="45.9050610" lon="9.8333390">
	<ele>1909.60</ele>
	<time>2023-11-18T10:14:38.000Z</time>
</trkpt>
<trkpt lat="45.9050550" lon="9.8333340">
	<ele>1909.80</ele>
	<time>2023-11-18T10:14:39.000Z</time>
</trkpt>
<trkpt lat="45.9050500" lon="9.8333270">
	<ele>1909.80</ele>
	<time>2023-11-18T10:14:40.000Z</time>
</trkpt>
<trkpt lat="45.9050430" lon="9.8333210">
	<ele>1909.80</ele>
	<time>2023-11-18T10:14:41.000Z</time>
</trkpt>
<trkpt lat="45.9050360" lon="9.8333110">
	<ele>1910.00</ele>
	<time>2023-11-18T10:14:42.000Z</time>
</trkpt>
<trkpt lat="45.9050290" lon="9.8333030">
	<ele>1910.20</ele>
	<time>2023-11-18T10:14:43.000Z</time>
</trkpt>
<trkpt lat="45.9050250" lon="9.8333010">
	<ele>1910.40</ele>
	<time>2023-11-18T10:14:44.000Z</time>
</trkpt>
<trkpt lat="45.9050210" lon="9.8332980">
	<ele>1910.40</ele>
	<time>2023-11-18T10:14:45.000Z</time>
</trkpt>
<trkpt lat="45.9050150" lon="9.8332900">
	<ele>1910.60</ele>
	<time>2023-11-18T10:14:46.000Z</time>
</trkpt>
<trkpt lat="45.9050080" lon="9.8332850">
	<ele>1910.80</ele>
	<time>2023-11-18T10:14:47.000Z</time>
</trkpt>
<trkpt lat="45.9050030" lon="9.8332830">
	<ele>1910.80</ele>
	<time>2023-11-18T10:14:48.000Z</time>
</trkpt>
<trkpt lat="45.9049980" lon="9.8332780">
	<ele>1911.00</ele>
	<time>2023-11-18T10:14:49.000Z</time>
</trkpt>
<trkpt lat="45.9049940" lon="9.8332730">
	<ele>1911.00</ele>
	<time>2023-11-18T10:14:50.000Z</time>
</trkpt>
<trkpt lat="45.9049890" lon="9.8332650">
	<ele>1911.00</ele>
	<time>2023-11-18T10:14:51.000Z</time>
</trkpt>
<trkpt lat="45.9049830" lon="9.8332550">
	<ele>1911.00</ele>
	<time>2023-11-18T10:14:52.000Z</time>
</trkpt>
<trkpt lat="45.9049780" lon="9.8332520">
	<ele>1911.20</ele>
	<time>2023-11-18T10:14:53.000Z</time>
</trkpt>
<trkpt lat="45.9049730" lon="9.8332530">
	<ele>1911.20</ele>
	<time>2023-11-18T10:14:54.000Z</time>
</trkpt>
<trkpt lat="45.9049640" lon="9.8332540">
	<ele>1911.60</ele>
	<time>2023-11-18T10:14:55.000Z</time>
</trkpt>
<trkpt lat="45.9049580" lon="9.8332530">
	<ele>1911.60</ele>
	<time>2023-11-18T10:14:56.000Z</time>
</trkpt>
<trkpt lat="45.9049520" lon="9.8332540">
	<ele>1911.80</ele>
	<time>2023-11-18T10:14:57.000Z</time>
</trkpt>
<trkpt lat="45.9049450" lon="9.8332520">
	<ele>1912.00</ele>
	<time>2023-11-18T10:14:58.000Z</time>
</trkpt>
<trkpt lat="45.9049370" lon="9.8332500">
	<ele>1912.20</ele>
	<time>2023-11-18T10:14:59.000Z</time>
</trkpt>
<trkpt lat="45.9049310" lon="9.8332480">
	<ele>1912.20</ele>
	<time>2023-11-18T10:15:00.000Z</time>
</trkpt>
<trkpt lat="45.9049290" lon="9.8332450">
	<ele>1912.40</ele>
	<time>2023-11-18T10:15:01.000Z</time>
</trkpt>
<trkpt lat="45.9049260" lon="9.8332420">
	<ele>1912.60</ele>
	<time>2023-11-18T10:15:02.000Z</time>
</trkpt>
<trkpt lat="45.9049220" lon="9.8332400">
	<ele>1912.80</ele>
	<time>2023-11-18T10:15:03.000Z</time>
</trkpt>
<trkpt lat="45.9049200" lon="9.8332370">
	<ele>1913.00</ele>
	<time>2023-11-18T10:15:04.000Z</time>
</trkpt>
<trkpt lat="45.9049210" lon="9.8332330">
	<ele>1913.20</ele>
	<time>2023-11-18T10:15:05.000Z</time>
</trkpt>
<trkpt lat="45.9049170" lon="9.8332290">
	<ele>1913.40</ele>
	<time>2023-11-18T10:15:06.000Z</time>
</trkpt>
<trkpt lat="45.9049130" lon="9.8332250">
	<ele>1913.40</ele>
	<time>2023-11-18T10:15:07.000Z</time>
</trkpt>
<trkpt lat="45.9049090" lon="9.8332220">
	<ele>1913.60</ele>
	<time>2023-11-18T10:15:08.000Z</time>
</trkpt>
<trkpt lat="45.9049060" lon="9.8332200">
	<ele>1913.80</ele>
	<time>2023-11-18T10:15:09.000Z</time>
</trkpt>
<trkpt lat="45.9049030" lon="9.8332190">
	<ele>1914.00</ele>
	<time>2023-11-18T10:15:10.000Z</time>
</trkpt>
<trkpt lat="45.9049000" lon="9.8332190">
	<ele>1914.00</ele>
	<time>2023-11-18T10:15:11.000Z</time>
</trkpt>
<trkpt lat="45.9048960" lon="9.8332170">
	<ele>1914.00</ele>
	<time>2023-11-18T10:15:12.000Z</time>
</trkpt>
<trkpt lat="45.9048950" lon="9.8332160">
	<ele>1914.40</ele>
	<time>2023-11-18T10:15:13.000Z</time>
</trkpt>
<trkpt lat="45.9048920" lon="9.8332140">
	<ele>1914.40</ele>
	<time>2023-11-18T10:15:14.000Z</time>
</trkpt>
<trkpt lat="45.9048890" lon="9.8332120">
	<ele>1914.60</ele>
	<time>2023-11-18T10:15:15.000Z</time>
</trkpt>
<trkpt lat="45.9048870" lon="9.8332090">
	<ele>1914.60</ele>
	<time>2023-11-18T10:15:16.000Z</time>
</trkpt>
<trkpt lat="45.9048840" lon="9.8332040">
	<ele>1914.80</ele>
	<time>2023-11-18T10:15:17.000Z</time>
</trkpt>
<trkpt lat="45.9048810" lon="9.8331990">
	<ele>1914.80</ele>
	<time>2023-11-18T10:15:18.000Z</time>
</trkpt>
<trkpt lat="45.9048750" lon="9.8331960">
	<ele>1915.00</ele>
	<time>2023-11-18T10:15:19.000Z</time>
</trkpt>
<trkpt lat="45.9048720" lon="9.8331950">
	<ele>1915.00</ele>
	<time>2023-11-18T10:15:20.000Z</time>
</trkpt>
<trkpt lat="45.9048690" lon="9.8331930">
	<ele>1915.20</ele>
	<time>2023-11-18T10:15:21.000Z</time>
</trkpt>
<trkpt lat="45.9048670" lon="9.8331910">
	<ele>1915.40</ele>
	<time>2023-11-18T10:15:22.000Z</time>
</trkpt>
<trkpt lat="45.9048640" lon="9.8331890">
	<ele>1915.60</ele>
	<time>2023-11-18T10:15:23.000Z</time>
</trkpt>
<trkpt lat="45.9048590" lon="9.8331900">
	<ele>1915.80</ele>
	<time>2023-11-18T10:15:24.000Z</time>
</trkpt>
<trkpt lat="45.9048550" lon="9.8331910">
	<ele>1916.00</ele>
	<time>2023-11-18T10:15:25.000Z</time>
</trkpt>
<trkpt lat="45.9048490" lon="9.8331900">
	<ele>1916.00</ele>
	<time>2023-11-18T10:15:26.000Z</time>
</trkpt>
<trkpt lat="45.9048450" lon="9.8331920">
	<ele>1916.20</ele>
	<time>2023-11-18T10:15:27.000Z</time>
</trkpt>
<trkpt lat="45.9048420" lon="9.8331890">
	<ele>1916.40</ele>
	<time>2023-11-18T10:15:28.000Z</time>
</trkpt>
<trkpt lat="45.9048380" lon="9.8331870">
	<ele>1916.40</ele>
	<time>2023-11-18T10:15:29.000Z</time>
</trkpt>
<trkpt lat="45.9048350" lon="9.8331850">
	<ele>1916.60</ele>
	<time>2023-11-18T10:15:30.000Z</time>
</trkpt>
<trkpt lat="45.9048290" lon="9.8331820">
	<ele>1916.60</ele>
	<time>2023-11-18T10:15:31.000Z</time>
</trkpt>
<trkpt lat="45.9048250" lon="9.8331810">
	<ele>1916.80</ele>
	<time>2023-11-18T10:15:32.000Z</time>
</trkpt>
<trkpt lat="45.9048200" lon="9.8331860">
	<ele>1916.80</ele>
	<time>2023-11-18T10:15:33.000Z</time>
</trkpt>
<trkpt lat="45.9048160" lon="9.8331860">
	<ele>1917.00</ele>
	<time>2023-11-18T10:15:34.000Z</time>
</trkpt>
<trkpt lat="45.9048120" lon="9.8331830">
	<ele>1917.20</ele>
	<time>2023-11-18T10:15:35.000Z</time>
</trkpt>
<trkpt lat="45.9048090" lon="9.8331790">
	<ele>1917.20</ele>
	<time>2023-11-18T10:15:36.000Z</time>
</trkpt>
<trkpt lat="45.9048060" lon="9.8331760">
	<ele>1917.20</ele>
	<time>2023-11-18T10:15:37.000Z</time>
</trkpt>
<trkpt lat="45.9048030" lon="9.8331750">
	<ele>1917.40</ele>
	<time>2023-11-18T10:15:38.000Z</time>
</trkpt>
<trkpt lat="45.9048010" lon="9.8331710">
	<ele>1917.60</ele>
	<time>2023-11-18T10:15:39.000Z</time>
</trkpt>
<trkpt lat="45.9047950" lon="9.8331690">
	<ele>1917.80</ele>
	<time>2023-11-18T10:15:40.000Z</time>
</trkpt>
<trkpt lat="45.9047900" lon="9.8331670">
	<ele>1918.00</ele>
	<time>2023-11-18T10:15:41.000Z</time>
</trkpt>
<trkpt lat="45.9047860" lon="9.8331660">
	<ele>1918.00</ele>
	<time>2023-11-18T10:15:42.000Z</time>
</trkpt>
<trkpt lat="45.9047820" lon="9.8331630">
	<ele>1918.20</ele>
	<time>2023-11-18T10:15:43.000Z</time>
</trkpt>
<trkpt lat="45.9047800" lon="9.8331590">
	<ele>1918.20</ele>
	<time>2023-11-18T10:15:44.000Z</time>
</trkpt>
<trkpt lat="45.9047780" lon="9.8331570">
	<ele>1918.40</ele>
	<time>2023-11-18T10:15:45.000Z</time>
</trkpt>
<trkpt lat="45.9047740" lon="9.8331580">
	<ele>1918.60</ele>
	<time>2023-11-18T10:15:46.000Z</time>
</trkpt>
<trkpt lat="45.9047730" lon="9.8331580">
	<ele>1919.00</ele>
	<time>2023-11-18T10:15:47.000Z</time>
</trkpt>
<trkpt lat="45.9047710" lon="9.8331560">
	<ele>1919.00</ele>
	<time>2023-11-18T10:15:48.000Z</time>
</trkpt>
<trkpt lat="45.9047710" lon="9.8331550">
	<ele>1919.20</ele>
	<time>2023-11-18T10:15:49.000Z</time>
</trkpt>
<trkpt lat="45.9047690" lon="9.8331520">
	<ele>1919.40</ele>
	<time>2023-11-18T10:15:50.000Z</time>
</trkpt>
<trkpt lat="45.9047650" lon="9.8331480">
	<ele>1919.40</ele>
	<time>2023-11-18T10:15:51.000Z</time>
</trkpt>
<trkpt lat="45.9047650" lon="9.8331420">
	<ele>1919.40</ele>
	<time>2023-11-18T10:15:52.000Z</time>
</trkpt>
<trkpt lat="45.9047610" lon="9.8331370">
	<ele>1919.40</ele>
	<time>2023-11-18T10:15:53.000Z</time>
</trkpt>
<trkpt lat="45.9047590" lon="9.8331280">
	<ele>1919.60</ele>
	<time>2023-11-18T10:15:54.000Z</time>
</trkpt>
<trkpt lat="45.9047560" lon="9.8331230">
	<ele>1919.60</ele>
	<time>2023-11-18T10:15:55.000Z</time>
</trkpt>
<trkpt lat="45.9047540" lon="9.8331180">
	<ele>1919.80</ele>
	<time>2023-11-18T10:15:56.000Z</time>
</trkpt>
<trkpt lat="45.9047540" lon="9.8331140">
	<ele>1919.80</ele>
	<time>2023-11-18T10:15:57.000Z</time>
</trkpt>
<trkpt lat="45.9047550" lon="9.8331120">
	<ele>1920.00</ele>
	<time>2023-11-18T10:15:58.000Z</time>
</trkpt>
<trkpt lat="45.9047560" lon="9.8331060">
	<ele>1920.00</ele>
	<time>2023-11-18T10:15:59.000Z</time>
</trkpt>
<trkpt lat="45.9047550" lon="9.8330980">
	<ele>1920.20</ele>
	<time>2023-11-18T10:16:00.000Z</time>
</trkpt>
<trkpt lat="45.9047520" lon="9.8330970">
	<ele>1920.20</ele>
	<time>2023-11-18T10:16:01.000Z</time>
</trkpt>
<trkpt lat="45.9047510" lon="9.8330940">
	<ele>1920.40</ele>
	<time>2023-11-18T10:16:02.000Z</time>
</trkpt>
<trkpt lat="45.9047500" lon="9.8330900">
	<ele>1920.60</ele>
	<time>2023-11-18T10:16:03.000Z</time>
</trkpt>
<trkpt lat="45.9047490" lon="9.8330860">
	<ele>1920.60</ele>
	<time>2023-11-18T10:16:04.000Z</time>
</trkpt>
<trkpt lat="45.9047490" lon="9.8330800">
	<ele>1920.60</ele>
	<time>2023-11-18T10:16:05.000Z</time>
</trkpt>
<trkpt lat="45.9047480" lon="9.8330790">
	<ele>1920.80</ele>
	<time>2023-11-18T10:16:06.000Z</time>
</trkpt>
<trkpt lat="45.9047450" lon="9.8330750">
	<ele>1921.00</ele>
	<time>2023-11-18T10:16:07.000Z</time>
</trkpt>
<trkpt lat="45.9047420" lon="9.8330730">
	<ele>1921.00</ele>
	<time>2023-11-18T10:16:08.000Z</time>
</trkpt>
<trkpt lat="45.9047410" lon="9.8330730">
	<ele>1921.20</ele>
	<time>2023-11-18T10:16:09.000Z</time>
</trkpt>
<trkpt lat="45.9047410" lon="9.8330680">
	<ele>1921.40</ele>
	<time>2023-11-18T10:16:10.000Z</time>
</trkpt>
<trkpt lat="45.9047380" lon="9.8330640">
	<ele>1921.60</ele>
	<time>2023-11-18T10:16:11.000Z</time>
</trkpt>
<trkpt lat="45.9047350" lon="9.8330610">
	<ele>1921.80</ele>
	<time>2023-11-18T10:16:12.000Z</time>
</trkpt>
<trkpt lat="45.9047310" lon="9.8330560">
	<ele>1922.00</ele>
	<time>2023-11-18T10:16:13.000Z</time>
</trkpt>
<trkpt lat="45.9047290" lon="9.8330540">
	<ele>1922.00</ele>
	<time>2023-11-18T10:16:14.000Z</time>
</trkpt>
<trkpt lat="45.9047240" lon="9.8330510">
	<ele>1922.20</ele>
	<time>2023-11-18T10:16:15.000Z</time>
</trkpt>
<trkpt lat="45.9047210" lon="9.8330510">
	<ele>1922.40</ele>
	<time>2023-11-18T10:16:16.000Z</time>
</trkpt>
<trkpt lat="45.9047180" lon="9.8330520">
	<ele>1922.40</ele>
	<time>2023-11-18T10:16:17.000Z</time>
</trkpt>
<trkpt lat="45.9047110" lon="9.8330550">
	<ele>1922.40</ele>
	<time>2023-11-18T10:16:18.000Z</time>
</trkpt>
<trkpt lat="45.9047090" lon="9.8330570">
	<ele>1922.60</ele>
	<time>2023-11-18T10:16:19.000Z</time>
</trkpt>
<trkpt lat="45.9047100" lon="9.8330560">
	<ele>1922.60</ele>
	<time>2023-11-18T10:16:20.000Z</time>
</trkpt>
<trkpt lat="45.9047110" lon="9.8330550">
	<ele>1922.80</ele>
	<time>2023-11-18T10:16:21.000Z</time>
</trkpt>
<trkpt lat="45.9047110" lon="9.8330550">
	<ele>1923.00</ele>
	<time>2023-11-18T10:16:22.000Z</time>
</trkpt>
<trkpt lat="45.9047110" lon="9.8330550">
	<ele>1923.00</ele>
	<time>2023-11-18T10:16:23.000Z</time>
</trkpt>
<trkpt lat="45.9047110" lon="9.8330550">
	<ele>1923.00</ele>
	<time>2023-11-18T10:16:24.000Z</time>
</trkpt>
<trkpt lat="45.9047110" lon="9.8330550">
	<ele>1923.20</ele>
	<time>2023-11-18T10:16:25.000Z</time>
</trkpt>
<trkpt lat="45.9047110" lon="9.8330550">
	<ele>1923.20</ele>
	<time>2023-11-18T10:16:26.000Z</time>
</trkpt>
<trkpt lat="45.9047110" lon="9.8330550">
	<ele>1923.00</ele>
	<time>2023-11-18T10:16:27.000Z</time>
</trkpt>
<trkpt lat="45.9047110" lon="9.8330550">
	<ele>1923.00</ele>
	<time>2023-11-18T10:16:28.000Z</time>
</trkpt>
<trkpt lat="45.9047110" lon="9.8330550">
	<ele>1923.20</ele>
	<time>2023-11-18T10:16:29.000Z</time>
</trkpt>
<trkpt lat="45.9047110" lon="9.8330550">
	<ele>1923.40</ele>
	<time>2023-11-18T10:16:30.000Z</time>
</trkpt>
<trkpt lat="45.9047110" lon="9.8330550">
	<ele>1923.60</ele>
	<time>2023-11-18T10:16:31.000Z</time>
</trkpt>
<trkpt lat="45.9047110" lon="9.8330550">
	<ele>1923.80</ele>
	<time>2023-11-18T10:16:32.000Z</time>
</trkpt>
<trkpt lat="45.9047110" lon="9.8330550">
	<ele>1924.00</ele>
	<time>2023-11-18T10:16:33.000Z</time>
</trkpt>
<trkpt lat="45.9047110" lon="9.8330550">
	<ele>1924.20</ele>
	<time>2023-11-18T10:16:34.000Z</time>
</trkpt>
<trkpt lat="45.9047070" lon="9.8330540">
	<ele>1924.20</ele>
	<time>2023-11-18T10:16:35.000Z</time>
</trkpt>
<trkpt lat="45.9046970" lon="9.8330500">
	<ele>1924.60</ele>
	<time>2023-11-18T10:16:36.000Z</time>
</trkpt>
<trkpt lat="45.9046880" lon="9.8330480">
	<ele>1924.60</ele>
	<time>2023-11-18T10:16:37.000Z</time>
</trkpt>
<trkpt lat="45.9046800" lon="9.8330440">
	<ele>1925.00</ele>
	<time>2023-11-18T10:16:38.000Z</time>
</trkpt>
<trkpt lat="45.9046740" lon="9.8330400">
	<ele>1925.00</ele>
	<time>2023-11-18T10:16:39.000Z</time>
</trkpt>
<trkpt lat="45.9046670" lon="9.8330410">
	<ele>1925.20</ele>
	<time>2023-11-18T10:16:40.000Z</time>
</trkpt>
<trkpt lat="45.9046580" lon="9.8330370">
	<ele>1925.20</ele>
	<time>2023-11-18T10:16:41.000Z</time>
</trkpt>
<trkpt lat="45.9046490" lon="9.8330320">
	<ele>1925.20</ele>
	<time>2023-11-18T10:16:42.000Z</time>
</trkpt>
<trkpt lat="45.9046390" lon="9.8330270">
	<ele>1925.20</ele>
	<time>2023-11-18T10:16:43.000Z</time>
</trkpt>
<trkpt lat="45.9046330" lon="9.8330210">
	<ele>1925.20</ele>
	<time>2023-11-18T10:16:44.000Z</time>
</trkpt>
<trkpt lat="45.9046300" lon="9.8330230">
	<ele>1925.40</ele>
	<time>2023-11-18T10:16:45.000Z</time>
</trkpt>
<trkpt lat="45.9046240" lon="9.8330230">
	<ele>1925.60</ele>
	<time>2023-11-18T10:16:46.000Z</time>
</trkpt>
<trkpt lat="45.9046200" lon="9.8330210">
	<ele>1925.80</ele>
	<time>2023-11-18T10:16:47.000Z</time>
</trkpt>
<trkpt lat="45.9046180" lon="9.8330220">
	<ele>1925.80</ele>
	<time>2023-11-18T10:16:48.000Z</time>
</trkpt>
<trkpt lat="45.9046140" lon="9.8330240">
	<ele>1926.00</ele>
	<time>2023-11-18T10:16:49.000Z</time>
</trkpt>
<trkpt lat="45.9046090" lon="9.8330250">
	<ele>1926.40</ele>
	<time>2023-11-18T10:16:50.000Z</time>
</trkpt>
<trkpt lat="45.9046050" lon="9.8330240">
	<ele>1926.40</ele>
	<time>2023-11-18T10:16:51.000Z</time>
</trkpt>
<trkpt lat="45.9046010" lon="9.8330230">
	<ele>1926.60</ele>
	<time>2023-11-18T10:16:52.000Z</time>
</trkpt>
<trkpt lat="45.9045970" lon="9.8330230">
	<ele>1926.60</ele>
	<time>2023-11-18T10:16:53.000Z</time>
</trkpt>
<trkpt lat="45.9045930" lon="9.8330220">
	<ele>1926.80</ele>
	<time>2023-11-18T10:16:54.000Z</time>
</trkpt>
<trkpt lat="45.9045900" lon="9.8330230">
	<ele>1927.00</ele>
	<time>2023-11-18T10:16:55.000Z</time>
</trkpt>
<trkpt lat="45.9045890" lon="9.8330250">
	<ele>1927.00</ele>
	<time>2023-11-18T10:16:56.000Z</time>
</trkpt>
<trkpt lat="45.9045870" lon="9.8330280">
	<ele>1927.20</ele>
	<time>2023-11-18T10:16:57.000Z</time>
</trkpt>
<trkpt lat="45.9045850" lon="9.8330280">
	<ele>1927.40</ele>
	<time>2023-11-18T10:16:58.000Z</time>
</trkpt>
<trkpt lat="45.9045840" lon="9.8330260">
	<ele>1927.40</ele>
	<time>2023-11-18T10:16:59.000Z</time>
</trkpt>
<trkpt lat="45.9045800" lon="9.8330250">
	<ele>1927.60</ele>
	<time>2023-11-18T10:17:00.000Z</time>
</trkpt>
<trkpt lat="45.9045770" lon="9.8330240">
	<ele>1927.80</ele>
	<time>2023-11-18T10:17:01.000Z</time>
</trkpt>
<trkpt lat="45.9045710" lon="9.8330250">
	<ele>1927.80</ele>
	<time>2023-11-18T10:17:02.000Z</time>
</trkpt>
<trkpt lat="45.9045680" lon="9.8330230">
	<ele>1928.00</ele>
	<time>2023-11-18T10:17:03.000Z</time>
</trkpt>
<trkpt lat="45.9045670" lon="9.8330220">
	<ele>1928.40</ele>
	<time>2023-11-18T10:17:04.000Z</time>
</trkpt>
<trkpt lat="45.9045670" lon="9.8330220">
	<ele>1928.40</ele>
	<time>2023-11-18T10:17:05.000Z</time>
</trkpt>
<trkpt lat="45.9045670" lon="9.8330220">
	<ele>1928.60</ele>
	<time>2023-11-18T10:17:06.000Z</time>
</trkpt>
<trkpt lat="45.9045670" lon="9.8330220">
	<ele>1928.80</ele>
	<time>2023-11-18T10:17:07.000Z</time>
</trkpt>
<trkpt lat="45.9045670" lon="9.8330220">
	<ele>1929.00</ele>
	<time>2023-11-18T10:17:08.000Z</time>
</trkpt>
<trkpt lat="45.9045670" lon="9.8330220">
	<ele>1929.20</ele>
	<time>2023-11-18T10:17:09.000Z</time>
</trkpt>
<trkpt lat="45.9045670" lon="9.8330220">
	<ele>1929.40</ele>
	<time>2023-11-18T10:17:10.000Z</time>
</trkpt>
<trkpt lat="45.9045670" lon="9.8330220">
	<ele>1929.40</ele>
	<time>2023-11-18T10:17:11.000Z</time>
</trkpt>
<trkpt lat="45.9045670" lon="9.8330220">
	<ele>1929.40</ele>
	<time>2023-11-18T10:17:12.000Z</time>
</trkpt>
<trkpt lat="45.9045670" lon="9.8330220">
	<ele>1929.60</ele>
	<time>2023-11-18T10:17:13.000Z</time>
</trkpt>
<trkpt lat="45.9045670" lon="9.8330220">
	<ele>1929.80</ele>
	<time>2023-11-18T10:17:14.000Z</time>
</trkpt>
<trkpt lat="45.9045670" lon="9.8330220">
	<ele>1930.00</ele>
	<time>2023-11-18T10:17:15.000Z</time>
</trkpt>
<trkpt lat="45.9045670" lon="9.8330220">
	<ele>1930.20</ele>
	<time>2023-11-18T10:17:16.000Z</time>
</trkpt>
<trkpt lat="45.9045670" lon="9.8330220">
	<ele>1930.20</ele>
	<time>2023-11-18T10:17:17.000Z</time>
</trkpt>
<trkpt lat="45.9045670" lon="9.8330220">
	<ele>1930.20</ele>
	<time>2023-11-18T10:17:18.000Z</time>
</trkpt>
<trkpt lat="45.9045670" lon="9.8330220">
	<ele>1930.20</ele>
	<time>2023-11-18T10:17:19.000Z</time>
</trkpt>
<trkpt lat="45.9045670" lon="9.8330220">
	<ele>1930.20</ele>
	<time>2023-11-18T10:17:20.000Z</time>
</trkpt>
<trkpt lat="45.9045620" lon="9.8330220">
	<ele>1930.40</ele>
	<time>2023-11-18T10:17:21.000Z</time>
</trkpt>
<trkpt lat="45.9045590" lon="9.8330220">
	<ele>1930.80</ele>
	<time>2023-11-18T10:17:22.000Z</time>
</trkpt>
<trkpt lat="45.9045570" lon="9.8330220">
	<ele>1931.00</ele>
	<time>2023-11-18T10:17:23.000Z</time>
</trkpt>
<trkpt lat="45.9045550" lon="9.8330220">
	<ele>1931.20</ele>
	<time>2023-11-18T10:17:24.000Z</time>
</trkpt>
<trkpt lat="45.9045520" lon="9.8330220">
	<ele>1931.40</ele>
	<time>2023-11-18T10:17:25.000Z</time>
</trkpt>
<trkpt lat="45.9045470" lon="9.8330220">
	<ele>1931.40</ele>
	<time>2023-11-18T10:17:26.000Z</time>
</trkpt>
<trkpt lat="45.9045430" lon="9.8330220">
	<ele>1931.40</ele>
	<time>2023-11-18T10:17:27.000Z</time>
</trkpt>
<trkpt lat="45.9045410" lon="9.8330220">
	<ele>1931.60</ele>
	<time>2023-11-18T10:17:28.000Z</time>
</trkpt>
<trkpt lat="45.9045380" lon="9.8330220">
	<ele>1931.60</ele>
	<time>2023-11-18T10:17:29.000Z</time>
</trkpt>
<trkpt lat="45.9045360" lon="9.8330220">
	<ele>1931.80</ele>
	<time>2023-11-18T10:17:30.000Z</time>
</trkpt>
<trkpt lat="45.9045360" lon="9.8330220">
	<ele>1932.00</ele>
	<time>2023-11-18T10:17:31.000Z</time>
</trkpt>
<trkpt lat="45.9045340" lon="9.8330220">
	<ele>1932.00</ele>
	<time>2023-11-18T10:17:32.000Z</time>
</trkpt>
<trkpt lat="45.9045290" lon="9.8330220">
	<ele>1932.20</ele>
	<time>2023-11-18T10:17:33.000Z</time>
</trkpt>
<trkpt lat="45.9045270" lon="9.8330220">
	<ele>1932.20</ele>
	<time>2023-11-18T10:17:34.000Z</time>
</trkpt>
<trkpt lat="45.9045240" lon="9.8330220">
	<ele>1932.40</ele>
	<time>2023-11-18T10:17:35.000Z</time>
</trkpt>
<trkpt lat="45.9045180" lon="9.8330220">
	<ele>1932.40</ele>
	<time>2023-11-18T10:17:36.000Z</time>
</trkpt>
<trkpt lat="45.9045140" lon="9.8330220">
	<ele>1932.40</ele>
	<time>2023-11-18T10:17:37.000Z</time>
</trkpt>
<trkpt lat="45.9045100" lon="9.8330220">
	<ele>1932.60</ele>
	<time>2023-11-18T10:17:38.000Z</time>
</trkpt>
<trkpt lat="45.9045090" lon="9.8330220">
	<ele>1932.60</ele>
	<time>2023-11-18T10:17:39.000Z</time>
</trkpt>
<trkpt lat="45.9045040" lon="9.8330220">
	<ele>1932.80</ele>
	<time>2023-11-18T10:17:40.000Z</time>
</trkpt>
<trkpt lat="45.9045000" lon="9.8330220">
	<ele>1932.80</ele>
	<time>2023-11-18T10:17:41.000Z</time>
</trkpt>
<trkpt lat="45.9044950" lon="9.8330220">
	<ele>1933.00</ele>
	<time>2023-11-18T10:17:42.000Z</time>
</trkpt>
<trkpt lat="45.9044890" lon="9.8330220">
	<ele>1933.20</ele>
	<time>2023-11-18T10:17:43.000Z</time>
</trkpt>
<trkpt lat="45.9044810" lon="9.8330220">
	<ele>1933.40</ele>
	<time>2023-11-18T10:17:44.000Z</time>
</trkpt>
<trkpt lat="45.9044780" lon="9.8330220">
	<ele>1933.40</ele>
	<time>2023-11-18T10:17:45.000Z</time>
</trkpt>
<trkpt lat="45.9044750" lon="9.8330220">
	<ele>1933.40</ele>
	<time>2023-11-18T10:17:46.000Z</time>
</trkpt>
<trkpt lat="45.9044730" lon="9.8330220">
	<ele>1933.40</ele>
	<time>2023-11-18T10:17:47.000Z</time>
</trkpt>
<trkpt lat="45.9044690" lon="9.8330220">
	<ele>1933.60</ele>
	<time>2023-11-18T10:17:48.000Z</time>
</trkpt>
<trkpt lat="45.9044660" lon="9.8330220">
	<ele>1933.60</ele>
	<time>2023-11-18T10:17:49.000Z</time>
</trkpt>
<trkpt lat="45.9044660" lon="9.8330200">
	<ele>1933.80</ele>
	<time>2023-11-18T10:17:50.000Z</time>
</trkpt>
<trkpt lat="45.9044610" lon="9.8330190">
	<ele>1933.80</ele>
	<time>2023-11-18T10:17:51.000Z</time>
</trkpt>
<trkpt lat="45.9044580" lon="9.8330180">
	<ele>1933.80</ele>
	<time>2023-11-18T10:17:52.000Z</time>
</trkpt>
<trkpt lat="45.9044560" lon="9.8330180">
	<ele>1934.00</ele>
	<time>2023-11-18T10:17:53.000Z</time>
</trkpt>
<trkpt lat="45.9044520" lon="9.8330140">
	<ele>1934.00</ele>
	<time>2023-11-18T10:17:54.000Z</time>
</trkpt>
<trkpt lat="45.9044480" lon="9.8330120">
	<ele>1934.00</ele>
	<time>2023-11-18T10:17:55.000Z</time>
</trkpt>
<trkpt lat="45.9044460" lon="9.8330110">
	<ele>1934.00</ele>
	<time>2023-11-18T10:17:56.000Z</time>
</trkpt>
<trkpt lat="45.9044400" lon="9.8330110">
	<ele>1934.20</ele>
	<time>2023-11-18T10:17:57.000Z</time>
</trkpt>
<trkpt lat="45.9044360" lon="9.8330110">
	<ele>1934.20</ele>
	<time>2023-11-18T10:17:58.000Z</time>
</trkpt>
<trkpt lat="45.9044320" lon="9.8330090">
	<ele>1934.40</ele>
	<time>2023-11-18T10:17:59.000Z</time>
</trkpt>
<trkpt lat="45.9044280" lon="9.8330080">
	<ele>1934.40</ele>
	<time>2023-11-18T10:18:00.000Z</time>
</trkpt>
<trkpt lat="45.9044240" lon="9.8330080">
	<ele>1934.60</ele>
	<time>2023-11-18T10:18:01.000Z</time>
</trkpt>
<trkpt lat="45.9044200" lon="9.8330080">
	<ele>1935.00</ele>
	<time>2023-11-18T10:18:02.000Z</time>
</trkpt>
<trkpt lat="45.9044180" lon="9.8330070">
	<ele>1935.20</ele>
	<time>2023-11-18T10:18:03.000Z</time>
</trkpt>
<trkpt lat="45.9044170" lon="9.8330070">
	<ele>1935.40</ele>
	<time>2023-11-18T10:18:04.000Z</time>
</trkpt>
<trkpt lat="45.9044170" lon="9.8330070">
	<ele>1935.40</ele>
	<time>2023-11-18T10:18:05.000Z</time>
</trkpt>
<trkpt lat="45.9044170" lon="9.8330070">
	<ele>1935.60</ele>
	<time>2023-11-18T10:18:06.000Z</time>
</trkpt>
<trkpt lat="45.9044160" lon="9.8330070">
	<ele>1935.80</ele>
	<time>2023-11-18T10:18:07.000Z</time>
</trkpt>
<trkpt lat="45.9044160" lon="9.8330070">
	<ele>1936.00</ele>
	<time>2023-11-18T10:18:08.000Z</time>
</trkpt>
<trkpt lat="45.9044160" lon="9.8330070">
	<ele>1936.20</ele>
	<time>2023-11-18T10:18:09.000Z</time>
</trkpt>
<trkpt lat="45.9044130" lon="9.8330060">
	<ele>1936.40</ele>
	<time>2023-11-18T10:18:10.000Z</time>
</trkpt>
<trkpt lat="45.9044100" lon="9.8330060">
	<ele>1936.60</ele>
	<time>2023-11-18T10:18:11.000Z</time>
</trkpt>
<trkpt lat="45.9044080" lon="9.8330060">
	<ele>1936.60</ele>
	<time>2023-11-18T10:18:12.000Z</time>
</trkpt>
<trkpt lat="45.9044050" lon="9.8330040">
	<ele>1936.60</ele>
	<time>2023-11-18T10:18:13.000Z</time>
</trkpt>
<trkpt lat="45.9044010" lon="9.8330020">
	<ele>1936.80</ele>
	<time>2023-11-18T10:18:14.000Z</time>
</trkpt>
<trkpt lat="45.9043970" lon="9.8329990">
	<ele>1937.00</ele>
	<time>2023-11-18T10:18:15.000Z</time>
</trkpt>
<trkpt lat="45.9043940" lon="9.8329960">
	<ele>1937.00</ele>
	<time>2023-11-18T10:18:16.000Z</time>
</trkpt>
<trkpt lat="45.9043900" lon="9.8329920">
	<ele>1937.20</ele>
	<time>2023-11-18T10:18:17.000Z</time>
</trkpt>
<trkpt lat="45.9043860" lon="9.8329900">
	<ele>1937.20</ele>
	<time>2023-11-18T10:18:18.000Z</time>
</trkpt>
<trkpt lat="45.9043840" lon="9.8329860">
	<ele>1937.40</ele>
	<time>2023-11-18T10:18:19.000Z</time>
</trkpt>
<trkpt lat="45.9043830" lon="9.8329840">
	<ele>1937.40</ele>
	<time>2023-11-18T10:18:20.000Z</time>
</trkpt>
<trkpt lat="45.9043820" lon="9.8329840">
	<ele>1937.60</ele>
	<time>2023-11-18T10:18:21.000Z</time>
</trkpt>
<trkpt lat="45.9043800" lon="9.8329830">
	<ele>1937.60</ele>
	<time>2023-11-18T10:18:22.000Z</time>
</trkpt>
<trkpt lat="45.9043770" lon="9.8329820">
	<ele>1938.00</ele>
	<time>2023-11-18T10:18:23.000Z</time>
</trkpt>
<trkpt lat="45.9043750" lon="9.8329820">
	<ele>1938.20</ele>
	<time>2023-11-18T10:18:24.000Z</time>
</trkpt>
<trkpt lat="45.9043730" lon="9.8329810">
	<ele>1938.40</ele>
	<time>2023-11-18T10:18:25.000Z</time>
</trkpt>
<trkpt lat="45.9043700" lon="9.8329800">
	<ele>1938.60</ele>
	<time>2023-11-18T10:18:26.000Z</time>
</trkpt>
<trkpt lat="45.9043660" lon="9.8329800">
	<ele>1938.60</ele>
	<time>2023-11-18T10:18:27.000Z</time>
</trkpt>
<trkpt lat="45.9043640" lon="9.8329800">
	<ele>1938.80</ele>
	<time>2023-11-18T10:18:28.000Z</time>
</trkpt>
<trkpt lat="45.9043610" lon="9.8329800">
	<ele>1939.00</ele>
	<time>2023-11-18T10:18:29.000Z</time>
</trkpt>
<trkpt lat="45.9043590" lon="9.8329800">
	<ele>1938.80</ele>
	<time>2023-11-18T10:18:30.000Z</time>
</trkpt>
<trkpt lat="45.9043550" lon="9.8329790">
	<ele>1939.00</ele>
	<time>2023-11-18T10:18:31.000Z</time>
</trkpt>
<trkpt lat="45.9043520" lon="9.8329790">
	<ele>1939.00</ele>
	<time>2023-11-18T10:18:32.000Z</time>
</trkpt>
<trkpt lat="45.9043470" lon="9.8329790">
	<ele>1939.00</ele>
	<time>2023-11-18T10:18:33.000Z</time>
</trkpt>
<trkpt lat="45.9043420" lon="9.8329790">
	<ele>1939.00</ele>
	<time>2023-11-18T10:18:34.000Z</time>
</trkpt>
<trkpt lat="45.9043380" lon="9.8329790">
	<ele>1939.00</ele>
	<time>2023-11-18T10:18:35.000Z</time>
</trkpt>
<trkpt lat="45.9043350" lon="9.8329790">
	<ele>1939.00</ele>
	<time>2023-11-18T10:18:36.000Z</time>
</trkpt>
<trkpt lat="45.9043310" lon="9.8329790">
	<ele>1939.00</ele>
	<time>2023-11-18T10:18:37.000Z</time>
</trkpt>
<trkpt lat="45.9043280" lon="9.8329790">
	<ele>1939.00</ele>
	<time>2023-11-18T10:18:38.000Z</time>
</trkpt>
<trkpt lat="45.9043250" lon="9.8329790">
	<ele>1939.20</ele>
	<time>2023-11-18T10:18:39.000Z</time>
</trkpt>
<trkpt lat="45.9043200" lon="9.8329790">
	<ele>1939.20</ele>
	<time>2023-11-18T10:18:40.000Z</time>
</trkpt>
<trkpt lat="45.9043180" lon="9.8329790">
	<ele>1939.40</ele>
	<time>2023-11-18T10:18:41.000Z</time>
</trkpt>
<trkpt lat="45.9043160" lon="9.8329790">
	<ele>1939.40</ele>
	<time>2023-11-18T10:18:42.000Z</time>
</trkpt>
<trkpt lat="45.9043140" lon="9.8329790">
	<ele>1939.40</ele>
	<time>2023-11-18T10:18:43.000Z</time>
</trkpt>
<trkpt lat="45.9043140" lon="9.8329790">
	<ele>1939.60</ele>
	<time>2023-11-18T10:18:44.000Z</time>
</trkpt>
<trkpt lat="45.9043130" lon="9.8329790">
	<ele>1939.80</ele>
	<time>2023-11-18T10:18:45.000Z</time>
</trkpt>
<trkpt lat="45.9043120" lon="9.8329790">
	<ele>1940.00</ele>
	<time>2023-11-18T10:18:46.000Z</time>
</trkpt>
<trkpt lat="45.9043110" lon="9.8329780">
	<ele>1940.20</ele>
	<time>2023-11-18T10:18:47.000Z</time>
</trkpt>
<trkpt lat="45.9043100" lon="9.8329780">
	<ele>1940.20</ele>
	<time>2023-11-18T10:18:48.000Z</time>
</trkpt>
<trkpt lat="45.9043080" lon="9.8329780">
	<ele>1940.20</ele>
	<time>2023-11-18T10:18:49.000Z</time>
</trkpt>
<trkpt lat="45.9043060" lon="9.8329770">
	<ele>1940.40</ele>
	<time>2023-11-18T10:18:50.000Z</time>
</trkpt>
<trkpt lat="45.9043030" lon="9.8329770">
	<ele>1940.60</ele>
	<time>2023-11-18T10:18:51.000Z</time>
</trkpt>
<trkpt lat="45.9043010" lon="9.8329760">
	<ele>1940.80</ele>
	<time>2023-11-18T10:18:52.000Z</time>
</trkpt>
<trkpt lat="45.9042970" lon="9.8329760">
	<ele>1941.00</ele>
	<time>2023-11-18T10:18:53.000Z</time>
</trkpt>
<trkpt lat="45.9042960" lon="9.8329740">
	<ele>1941.00</ele>
	<time>2023-11-18T10:18:54.000Z</time>
</trkpt>
<trkpt lat="45.9042940" lon="9.8329720">
	<ele>1941.20</ele>
	<time>2023-11-18T10:18:55.000Z</time>
</trkpt>
<trkpt lat="45.9042910" lon="9.8329700">
	<ele>1941.40</ele>
	<time>2023-11-18T10:18:56.000Z</time>
</trkpt>
<trkpt lat="45.9042880" lon="9.8329680">
	<ele>1941.60</ele>
	<time>2023-11-18T10:18:57.000Z</time>
</trkpt>
<trkpt lat="45.9042840" lon="9.8329640">
	<ele>1941.60</ele>
	<time>2023-11-18T10:18:58.000Z</time>
</trkpt>
<trkpt lat="45.9042780" lon="9.8329600">
	<ele>1941.80</ele>
	<time>2023-11-18T10:18:59.000Z</time>
</trkpt>
<trkpt lat="45.9042730" lon="9.8329580">
	<ele>1941.80</ele>
	<time>2023-11-18T10:19:00.000Z</time>
</trkpt>
<trkpt lat="45.9042690" lon="9.8329570">
	<ele>1941.80</ele>
	<time>2023-11-18T10:19:01.000Z</time>
</trkpt>
<trkpt lat="45.9042650" lon="9.8329560">
	<ele>1941.80</ele>
	<time>2023-11-18T10:19:02.000Z</time>
</trkpt>
<trkpt lat="45.9042630" lon="9.8329550">
	<ele>1941.80</ele>
	<time>2023-11-18T10:19:03.000Z</time>
</trkpt>
<trkpt lat="45.9042610" lon="9.8329540">
	<ele>1942.00</ele>
	<time>2023-11-18T10:19:04.000Z</time>
</trkpt>
<trkpt lat="45.9042580" lon="9.8329530">
	<ele>1942.00</ele>
	<time>2023-11-18T10:19:05.000Z</time>
</trkpt>
<trkpt lat="45.9042550" lon="9.8329530">
	<ele>1942.20</ele>
	<time>2023-11-18T10:19:06.000Z</time>
</trkpt>
<trkpt lat="45.9042510" lon="9.8329530">
	<ele>1942.20</ele>
	<time>2023-11-18T10:19:07.000Z</time>
</trkpt>
<trkpt lat="45.9042470" lon="9.8329520">
	<ele>1942.40</ele>
	<time>2023-11-18T10:19:08.000Z</time>
</trkpt>
<trkpt lat="45.9042430" lon="9.8329520">
	<ele>1942.40</ele>
	<time>2023-11-18T10:19:09.000Z</time>
</trkpt>
<trkpt lat="45.9042390" lon="9.8329510">
	<ele>1942.60</ele>
	<time>2023-11-18T10:19:10.000Z</time>
</trkpt>
<trkpt lat="45.9042360" lon="9.8329500">
	<ele>1942.60</ele>
	<time>2023-11-18T10:19:11.000Z</time>
</trkpt>
<trkpt lat="45.9042320" lon="9.8329480">
	<ele>1942.80</ele>
	<time>2023-11-18T10:19:12.000Z</time>
</trkpt>
<trkpt lat="45.9042290" lon="9.8329470">
	<ele>1942.80</ele>
	<time>2023-11-18T10:19:13.000Z</time>
</trkpt>
<trkpt lat="45.9042260" lon="9.8329470">
	<ele>1943.00</ele>
	<time>2023-11-18T10:19:14.000Z</time>
</trkpt>
<trkpt lat="45.9042240" lon="9.8329450">
	<ele>1943.40</ele>
	<time>2023-11-18T10:19:15.000Z</time>
</trkpt>
<trkpt lat="45.9042200" lon="9.8329430">
	<ele>1943.40</ele>
	<time>2023-11-18T10:19:16.000Z</time>
</trkpt>
<trkpt lat="45.9042160" lon="9.8329410">
	<ele>1943.60</ele>
	<time>2023-11-18T10:19:17.000Z</time>
</trkpt>
<trkpt lat="45.9042120" lon="9.8329390">
	<ele>1943.60</ele>
	<time>2023-11-18T10:19:18.000Z</time>
</trkpt>
<trkpt lat="45.9042070" lon="9.8329370">
	<ele>1943.60</ele>
	<time>2023-11-18T10:19:19.000Z</time>
</trkpt>
<trkpt lat="45.9042030" lon="9.8329360">
	<ele>1943.80</ele>
	<time>2023-11-18T10:19:20.000Z</time>
</trkpt>
<trkpt lat="45.9041990" lon="9.8329350">
	<ele>1944.00</ele>
	<time>2023-11-18T10:19:21.000Z</time>
</trkpt>
<trkpt lat="45.9041960" lon="9.8329340">
	<ele>1944.20</ele>
	<time>2023-11-18T10:19:22.000Z</time>
</trkpt>
<trkpt lat="45.9041930" lon="9.8329330">
	<ele>1944.20</ele>
	<time>2023-11-18T10:19:23.000Z</time>
</trkpt>
<trkpt lat="45.9041890" lon="9.8329320">
	<ele>1944.20</ele>
	<time>2023-11-18T10:19:24.000Z</time>
</trkpt>
<trkpt lat="45.9041850" lon="9.8329300">
	<ele>1944.40</ele>
	<time>2023-11-18T10:19:25.000Z</time>
</trkpt>
<trkpt lat="45.9041800" lon="9.8329270">
	<ele>1944.40</ele>
	<time>2023-11-18T10:19:26.000Z</time>
</trkpt>
<trkpt lat="45.9041750" lon="9.8329230">
	<ele>1944.40</ele>
	<time>2023-11-18T10:19:27.000Z</time>
</trkpt>
<trkpt lat="45.9041700" lon="9.8329190">
	<ele>1944.60</ele>
	<time>2023-11-18T10:19:28.000Z</time>
</trkpt>
<trkpt lat="45.9041660" lon="9.8329160">
	<ele>1944.60</ele>
	<time>2023-11-18T10:19:29.000Z</time>
</trkpt>
<trkpt lat="45.9041620" lon="9.8329130">
	<ele>1944.60</ele>
	<time>2023-11-18T10:19:30.000Z</time>
</trkpt>
<trkpt lat="45.9041560" lon="9.8329120">
	<ele>1944.80</ele>
	<time>2023-11-18T10:19:31.000Z</time>
</trkpt>
<trkpt lat="45.9041510" lon="9.8329100">
	<ele>1944.80</ele>
	<time>2023-11-18T10:19:32.000Z</time>
</trkpt>
<trkpt lat="45.9041470" lon="9.8329100">
	<ele>1944.80</ele>
	<time>2023-11-18T10:19:33.000Z</time>
</trkpt>
<trkpt lat="45.9041420" lon="9.8329090">
	<ele>1944.80</ele>
	<time>2023-11-18T10:19:34.000Z</time>
</trkpt>
<trkpt lat="45.9041380" lon="9.8329080">
	<ele>1944.80</ele>
	<time>2023-11-18T10:19:35.000Z</time>
</trkpt>
<trkpt lat="45.9041340" lon="9.8329080">
	<ele>1945.00</ele>
	<time>2023-11-18T10:19:36.000Z</time>
</trkpt>
<trkpt lat="45.9041300" lon="9.8329070">
	<ele>1945.20</ele>
	<time>2023-11-18T10:19:37.000Z</time>
</trkpt>
<trkpt lat="45.9041270" lon="9.8329070">
	<ele>1945.20</ele>
	<time>2023-11-18T10:19:38.000Z</time>
</trkpt>
<trkpt lat="45.9041240" lon="9.8329070">
	<ele>1945.20</ele>
	<time>2023-11-18T10:19:39.000Z</time>
</trkpt>
<trkpt lat="45.9041210" lon="9.8329070">
	<ele>1945.20</ele>
	<time>2023-11-18T10:19:40.000Z</time>
</trkpt>
<trkpt lat="45.9041180" lon="9.8329070">
	<ele>1945.20</ele>
	<time>2023-11-18T10:19:41.000Z</time>
</trkpt>
<trkpt lat="45.9041160" lon="9.8329060">
	<ele>1945.20</ele>
	<time>2023-11-18T10:19:42.000Z</time>
</trkpt>
<trkpt lat="45.9041150" lon="9.8329060">
	<ele>1945.20</ele>
	<time>2023-11-18T10:19:43.000Z</time>
</trkpt>
<trkpt lat="45.9041140" lon="9.8329060">
	<ele>1945.00</ele>
	<time>2023-11-18T10:19:44.000Z</time>
</trkpt>
<trkpt lat="45.9041130" lon="9.8329060">
	<ele>1945.00</ele>
	<time>2023-11-18T10:19:45.000Z</time>
</trkpt>
<trkpt lat="45.9041120" lon="9.8329060">
	<ele>1945.00</ele>
	<time>2023-11-18T10:19:46.000Z</time>
</trkpt>
<trkpt lat="45.9041120" lon="9.8329060">
	<ele>1945.00</ele>
	<time>2023-11-18T10:19:47.000Z</time>
</trkpt>
<trkpt lat="45.9041110" lon="9.8329060">
	<ele>1944.80</ele>
	<time>2023-11-18T10:19:48.000Z</time>
</trkpt>
<trkpt lat="45.9041110" lon="9.8329060">
	<ele>1944.60</ele>
	<time>2023-11-18T10:19:49.000Z</time>
</trkpt>
<trkpt lat="45.9041110" lon="9.8329060">
	<ele>1944.60</ele>
	<time>2023-11-18T10:19:50.000Z</time>
</trkpt>
<trkpt lat="45.9041110" lon="9.8329060">
	<ele>1944.60</ele>
	<time>2023-11-18T10:19:51.000Z</time>
</trkpt>
<trkpt lat="45.9041100" lon="9.8329070">
	<ele>1944.60</ele>
	<time>2023-11-18T10:19:52.000Z</time>
</trkpt>
<trkpt lat="45.9041100" lon="9.8329070">
	<ele>1944.60</ele>
	<time>2023-11-18T10:19:53.000Z</time>
</trkpt>
<trkpt lat="45.9041100" lon="9.8329070">
	<ele>1944.60</ele>
	<time>2023-11-18T10:19:54.000Z</time>
</trkpt>
<trkpt lat="45.9041100" lon="9.8329070">
	<ele>1944.60</ele>
	<time>2023-11-18T10:19:55.000Z</time>
</trkpt>
<trkpt lat="45.9041100" lon="9.8329080">
	<ele>1944.60</ele>
	<time>2023-11-18T10:19:56.000Z</time>
</trkpt>
<trkpt lat="45.9041100" lon="9.8329080">
	<ele>1944.80</ele>
	<time>2023-11-18T10:19:57.000Z</time>
</trkpt>
<trkpt lat="45.9041100" lon="9.8329080">
	<ele>1945.00</ele>
	<time>2023-11-18T10:19:58.000Z</time>
</trkpt>
<trkpt lat="45.9041090" lon="9.8329090">
	<ele>1945.00</ele>
	<time>2023-11-18T10:19:59.000Z</time>
</trkpt>
<trkpt lat="45.9041090" lon="9.8329090">
	<ele>1945.00</ele>
	<time>2023-11-18T10:20:00.000Z</time>
</trkpt>
<trkpt lat="45.9041090" lon="9.8329090">
	<ele>1945.20</ele>
	<time>2023-11-18T10:20:01.000Z</time>
</trkpt>
<trkpt lat="45.9041090" lon="9.8329100">
	<ele>1945.20</ele>
	<time>2023-11-18T10:20:02.000Z</time>
</trkpt>
<trkpt lat="45.9041090" lon="9.8329100">
	<ele>1945.20</ele>
	<time>2023-11-18T10:20:03.000Z</time>
</trkpt>
<trkpt lat="45.9041090" lon="9.8329100">
	<ele>1945.20</ele>
	<time>2023-11-18T10:20:04.000Z</time>
</trkpt>
<trkpt lat="45.9041090" lon="9.8329110">
	<ele>1945.20</ele>
	<time>2023-11-18T10:20:05.000Z</time>
</trkpt>
<trkpt lat="45.9041090" lon="9.8329110">
	<ele>1945.20</ele>
	<time>2023-11-18T10:20:06.000Z</time>
</trkpt>
<trkpt lat="45.9041090" lon="9.8329120">
	<ele>1945.00</ele>
	<time>2023-11-18T10:20:07.000Z</time>
</trkpt>
<trkpt lat="45.9041090" lon="9.8329120">
	<ele>1945.00</ele>
	<time>2023-11-18T10:20:08.000Z</time>
</trkpt>
<trkpt lat="45.9041090" lon="9.8329130">
	<ele>1945.00</ele>
	<time>2023-11-18T10:20:09.000Z</time>
</trkpt>
<trkpt lat="45.9041090" lon="9.8329140">
	<ele>1945.00</ele>
	<time>2023-11-18T10:20:10.000Z</time>
</trkpt>
<trkpt lat="45.9041100" lon="9.8329160">
	<ele>1945.20</ele>
	<time>2023-11-18T10:20:11.000Z</time>
</trkpt>
<trkpt lat="45.9041100" lon="9.8329170">
	<ele>1945.20</ele>
	<time>2023-11-18T10:20:12.000Z</time>
</trkpt>
<trkpt lat="45.9041100" lon="9.8329180">
	<ele>1945.20</ele>
	<time>2023-11-18T10:20:13.000Z</time>
</trkpt>
<trkpt lat="45.9041100" lon="9.8329190">
	<ele>1945.20</ele>
	<time>2023-11-18T10:20:14.000Z</time>
</trkpt>
<trkpt lat="45.9041100" lon="9.8329200">
	<ele>1945.20</ele>
	<time>2023-11-18T10:20:15.000Z</time>
</trkpt>
<trkpt lat="45.9041100" lon="9.8329210">
	<ele>1945.20</ele>
	<time>2023-11-18T10:20:16.000Z</time>
</trkpt>
<trkpt lat="45.9041100" lon="9.8329220">
	<ele>1945.20</ele>
	<time>2023-11-18T10:20:17.000Z</time>
</trkpt>
<trkpt lat="45.9041100" lon="9.8329220">
	<ele>1945.40</ele>
	<time>2023-11-18T10:20:18.000Z</time>
</trkpt>
<trkpt lat="45.9041100" lon="9.8329230">
	<ele>1945.40</ele>
	<time>2023-11-18T10:20:19.000Z</time>
</trkpt>
<trkpt lat="45.9041100" lon="9.8329230">
	<ele>1945.60</ele>
	<time>2023-11-18T10:20:20.000Z</time>
</trkpt>
<trkpt lat="45.9041100" lon="9.8329230">
	<ele>1945.60</ele>
	<time>2023-11-18T10:20:21.000Z</time>
</trkpt>
<trkpt lat="45.9041100" lon="9.8329230">
	<ele>1945.60</ele>
	<time>2023-11-18T10:20:22.000Z</time>
</trkpt>
<trkpt lat="45.9041100" lon="9.8329240">
	<ele>1945.60</ele>
	<time>2023-11-18T10:20:23.000Z</time>
</trkpt>
<trkpt lat="45.9041100" lon="9.8329240">
	<ele>1945.60</ele>
	<time>2023-11-18T10:20:24.000Z</time>
</trkpt>
<trkpt lat="45.9041100" lon="9.8329240">
	<ele>1945.60</ele>
	<time>2023-11-18T10:20:25.000Z</time>
</trkpt>
<trkpt lat="45.9041100" lon="9.8329240">
	<ele>1945.60</ele>
	<time>2023-11-18T10:20:26.000Z</time>
</trkpt>
<trkpt lat="45.9041100" lon="9.8329240">
	<ele>1945.60</ele>
	<time>2023-11-18T10:20:27.000Z</time>
</trkpt>
<trkpt lat="45.9041100" lon="9.8329240">
	<ele>1945.40</ele>
	<time>2023-11-18T10:20:28.000Z</time>
</trkpt>
<trkpt lat="45.9041100" lon="9.8329240">
	<ele>1945.40</ele>
	<time>2023-11-18T10:20:29.000Z</time>
</trkpt>
<trkpt lat="45.9041100" lon="9.8329240">
	<ele>1945.40</ele>
	<time>2023-11-18T10:20:30.000Z</time>
</trkpt>
<trkpt lat="45.9041090" lon="9.8329240">
	<ele>1945.40</ele>
	<time>2023-11-18T10:20:31.000Z</time>
</trkpt>
<trkpt lat="45.9041090" lon="9.8329240">
	<ele>1945.40</ele>
	<time>2023-11-18T10:20:32.000Z</time>
</trkpt>
<trkpt lat="45.9041090" lon="9.8329240">
	<ele>1945.40</ele>
	<time>2023-11-18T10:20:33.000Z</time>
</trkpt>
<trkpt lat="45.9041090" lon="9.8329240">
	<ele>1945.40</ele>
	<time>2023-11-18T10:20:34.000Z</time>
</trkpt>
<trkpt lat="45.9041090" lon="9.8329240">
	<ele>1945.40</ele>
	<time>2023-11-18T10:20:35.000Z</time>
</trkpt>
<trkpt lat="45.9041090" lon="9.8329230">
	<ele>1945.40</ele>
	<time>2023-11-18T10:20:36.000Z</time>
</trkpt>
<trkpt lat="45.9041090" lon="9.8329230">
	<ele>1945.40</ele>
	<time>2023-11-18T10:20:37.000Z</time>
</trkpt>
<trkpt lat="45.9041090" lon="9.8329230">
	<ele>1945.40</ele>
	<time>2023-11-18T10:20:38.000Z</time>
</trkpt>
<trkpt lat="45.9041090" lon="9.8329230">
	<ele>1945.40</ele>
	<time>2023-11-18T10:20:39.000Z</time>
</trkpt>
<trkpt lat="45.9041090" lon="9.8329230">
	<ele>1945.40</ele>
	<time>2023-11-18T10:20:40.000Z</time>
</trkpt>
<trkpt lat="45.9041090" lon="9.8329230">
	<ele>1945.40</ele>
	<time>2023-11-18T10:20:41.000Z</time>
</trkpt>
<trkpt lat="45.9041090" lon="9.8329230">
	<ele>1945.40</ele>
	<time>2023-11-18T10:20:42.000Z</time>
</trkpt>
<trkpt lat="45.9041090" lon="9.8329230">
	<ele>1945.40</ele>
	<time>2023-11-18T10:20:43.000Z</time>
</trkpt>
<trkpt lat="45.9041090" lon="9.8329230">
	<ele>1945.40</ele>
	<time>2023-11-18T10:20:44.000Z</time>
</trkpt>
<trkpt lat="45.9041080" lon="9.8329160">
	<ele>1945.40</ele>
	<time>2023-11-18T10:20:45.000Z</time>
</trkpt>
<trkpt lat="45.9041040" lon="9.8328980">
	<ele>1945.40</ele>
	<time>2023-11-18T10:20:46.000Z</time>
</trkpt>
<trkpt lat="45.9041010" lon="9.8328790">
	<ele>1945.40</ele>
	<time>2023-11-18T10:20:47.000Z</time>
</trkpt>
<trkpt lat="45.9040970" lon="9.8328630">
	<ele>1945.20</ele>
	<time>2023-11-18T10:20:48.000Z</time>
</trkpt>
<trkpt lat="45.9040910" lon="9.8328470">
	<ele>1945.20</ele>
	<time>2023-11-18T10:20:49.000Z</time>
</trkpt>
<trkpt lat="45.9040870" lon="9.8328330">
	<ele>1945.20</ele>
	<time>2023-11-18T10:20:50.000Z</time>
</trkpt>
<trkpt lat="45.9040850" lon="9.8328160">
	<ele>1945.00</ele>
	<time>2023-11-18T10:20:51.000Z</time>
</trkpt>
<trkpt lat="45.9040840" lon="9.8328040">
	<ele>1945.00</ele>
	<time>2023-11-18T10:20:52.000Z</time>
</trkpt>
<trkpt lat="45.9040820" lon="9.8327940">
	<ele>1945.00</ele>
	<time>2023-11-18T10:20:53.000Z</time>
</trkpt>
<trkpt lat="45.9040810" lon="9.8327840">
	<ele>1945.00</ele>
	<time>2023-11-18T10:20:54.000Z</time>
</trkpt>
<trkpt lat="45.9040820" lon="9.8327760">
	<ele>1945.20</ele>
	<time>2023-11-18T10:20:55.000Z</time>
</trkpt>
<trkpt lat="45.9040790" lon="9.8327650">
	<ele>1945.20</ele>
	<time>2023-11-18T10:20:56.000Z</time>
</trkpt>
<trkpt lat="45.9040760" lon="9.8327500">
	<ele>1945.20</ele>
	<time>2023-11-18T10:20:57.000Z</time>
</trkpt>
<trkpt lat="45.9040710" lon="9.8327360">
	<ele>1945.20</ele>
	<time>2023-11-18T10:20:58.000Z</time>
</trkpt>
<trkpt lat="45.9040660" lon="9.8327220">
	<ele>1945.20</ele>
	<time>2023-11-18T10:20:59.000Z</time>
</trkpt>
<trkpt lat="45.9040580" lon="9.8327070">
	<ele>1945.20</ele>
	<time>2023-11-18T10:21:00.000Z</time>
</trkpt>
<trkpt lat="45.9040540" lon="9.8326920">
	<ele>1945.20</ele>
	<time>2023-11-18T10:21:01.000Z</time>
</trkpt>
<trkpt lat="45.9040500" lon="9.8326790">
	<ele>1945.20</ele>
	<time>2023-11-18T10:21:02.000Z</time>
</trkpt>
<trkpt lat="45.9040470" lon="9.8326660">
	<ele>1945.20</ele>
	<time>2023-11-18T10:21:03.000Z</time>
</trkpt>
<trkpt lat="45.9040420" lon="9.8326490">
	<ele>1945.00</ele>
	<time>2023-11-18T10:21:04.000Z</time>
</trkpt>
<trkpt lat="45.9040350" lon="9.8326300">
	<ele>1945.00</ele>
	<time>2023-11-18T10:21:05.000Z</time>
</trkpt>
<trkpt lat="45.9040300" lon="9.8326140">
	<ele>1945.00</ele>
	<time>2023-11-18T10:21:06.000Z</time>
</trkpt>
<trkpt lat="45.9040260" lon="9.8326000">
	<ele>1944.80</ele>
	<time>2023-11-18T10:21:07.000Z</time>
</trkpt>
<trkpt lat="45.9040230" lon="9.8325850">
	<ele>1944.80</ele>
	<time>2023-11-18T10:21:08.000Z</time>
</trkpt>
<trkpt lat="45.9040210" lon="9.8325710">
	<ele>1944.80</ele>
	<time>2023-11-18T10:21:09.000Z</time>
</trkpt>
<trkpt lat="45.9040150" lon="9.8325580">
	<ele>1944.40</ele>
	<time>2023-11-18T10:21:10.000Z</time>
</trkpt>
<trkpt lat="45.9040130" lon="9.8325460">
	<ele>1944.20</ele>
	<time>2023-11-18T10:21:11.000Z</time>
</trkpt>
<trkpt lat="45.9040100" lon="9.8325330">
	<ele>1944.00</ele>
	<time>2023-11-18T10:21:12.000Z</time>
</trkpt>
<trkpt lat="45.9040080" lon="9.8325180">
	<ele>1943.80</ele>
	<time>2023-11-18T10:21:13.000Z</time>
</trkpt>
<trkpt lat="45.9040030" lon="9.8325050">
	<ele>1943.60</ele>
	<time>2023-11-18T10:21:14.000Z</time>
</trkpt>
<trkpt lat="45.9040010" lon="9.8324890">
	<ele>1943.40</ele>
	<time>2023-11-18T10:21:15.000Z</time>
</trkpt>
<trkpt lat="45.9039960" lon="9.8324750">
	<ele>1943.20</ele>
	<time>2023-11-18T10:21:16.000Z</time>
</trkpt>
<trkpt lat="45.9039910" lon="9.8324600">
	<ele>1943.00</ele>
	<time>2023-11-18T10:21:17.000Z</time>
</trkpt>
<trkpt lat="45.9039840" lon="9.8324510">
	<ele>1943.00</ele>
	<time>2023-11-18T10:21:18.000Z</time>
</trkpt>
<trkpt lat="45.9039800" lon="9.8324470">
	<ele>1942.60</ele>
	<time>2023-11-18T10:21:19.000Z</time>
</trkpt>
<trkpt lat="45.9039760" lon="9.8324450">
	<ele>1942.40</ele>
	<time>2023-11-18T10:21:20.000Z</time>
</trkpt>
<trkpt lat="45.9039740" lon="9.8324440">
	<ele>1942.20</ele>
	<time>2023-11-18T10:21:21.000Z</time>
</trkpt>
<trkpt lat="45.9039730" lon="9.8324440">
	<ele>1942.00</ele>
	<time>2023-11-18T10:21:22.000Z</time>
</trkpt>
<trkpt lat="45.9039740" lon="9.8324450">
	<ele>1942.00</ele>
	<time>2023-11-18T10:21:23.000Z</time>
</trkpt>
<trkpt lat="45.9039760" lon="9.8324480">
	<ele>1941.80</ele>
	<time>2023-11-18T10:21:24.000Z</time>
</trkpt>
<trkpt lat="45.9039770" lon="9.8324500">
	<ele>1941.80</ele>
	<time>2023-11-18T10:21:25.000Z</time>
</trkpt>
<trkpt lat="45.9039760" lon="9.8324510">
	<ele>1941.60</ele>
	<time>2023-11-18T10:21:26.000Z</time>
</trkpt>
<trkpt lat="45.9039770" lon="9.8324530">
	<ele>1941.60</ele>
	<time>2023-11-18T10:21:27.000Z</time>
</trkpt>
<trkpt lat="45.9039780" lon="9.8324540">
	<ele>1941.60</ele>
	<time>2023-11-18T10:21:28.000Z</time>
</trkpt>
<trkpt lat="45.9039790" lon="9.8324550">
	<ele>1941.60</ele>
	<time>2023-11-18T10:21:29.000Z</time>
</trkpt>
<trkpt lat="45.9039800" lon="9.8324560">
	<ele>1941.60</ele>
	<time>2023-11-18T10:21:30.000Z</time>
</trkpt>
<trkpt lat="45.9039800" lon="9.8324560">
	<ele>1941.60</ele>
	<time>2023-11-18T10:21:31.000Z</time>
</trkpt>
<trkpt lat="45.9039800" lon="9.8324560">
	<ele>1941.60</ele>
	<time>2023-11-18T10:21:32.000Z</time>
</trkpt>
<trkpt lat="45.9039800" lon="9.8324560">
	<ele>1941.80</ele>
	<time>2023-11-18T10:21:33.000Z</time>
</trkpt>
<trkpt lat="45.9039800" lon="9.8324560">
	<ele>1941.80</ele>
	<time>2023-11-18T10:21:34.000Z</time>
</trkpt>
<trkpt lat="45.9039800" lon="9.8324560">
	<ele>1941.80</ele>
	<time>2023-11-18T10:21:35.000Z</time>
</trkpt>
<trkpt lat="45.9039800" lon="9.8324560">
	<ele>1941.80</ele>
	<time>2023-11-18T10:21:36.000Z</time>
</trkpt>
<trkpt lat="45.9039800" lon="9.8324500">
	<ele>1941.60</ele>
	<time>2023-11-18T10:21:37.000Z</time>
</trkpt>
<trkpt lat="45.9039780" lon="9.8324260">
	<ele>1941.60</ele>
	<time>2023-11-18T10:21:38.000Z</time>
</trkpt>
<trkpt lat="45.9039730" lon="9.8324080">
	<ele>1941.40</ele>
	<time>2023-11-18T10:21:39.000Z</time>
</trkpt>
<trkpt lat="45.9039690" lon="9.8323880">
	<ele>1941.40</ele>
	<time>2023-11-18T10:21:40.000Z</time>
</trkpt>
<trkpt lat="45.9039680" lon="9.8323680">
	<ele>1941.40</ele>
	<time>2023-11-18T10:21:41.000Z</time>
</trkpt>
<trkpt lat="45.9039650" lon="9.8323500">
	<ele>1941.40</ele>
	<time>2023-11-18T10:21:42.000Z</time>
</trkpt>
<trkpt lat="45.9039640" lon="9.8323320">
	<ele>1941.60</ele>
	<time>2023-11-18T10:21:43.000Z</time>
</trkpt>
<trkpt lat="45.9039640" lon="9.8323130">
	<ele>1941.60</ele>
	<time>2023-11-18T10:21:44.000Z</time>
</trkpt>
<trkpt lat="45.9039630" lon="9.8322960">
	<ele>1941.80</ele>
	<time>2023-11-18T10:21:45.000Z</time>
</trkpt>
<trkpt lat="45.9039620" lon="9.8322780">
	<ele>1941.80</ele>
	<time>2023-11-18T10:21:46.000Z</time>
</trkpt>
<trkpt lat="45.9039630" lon="9.8322680">
	<ele>1942.00</ele>
	<time>2023-11-18T10:21:47.000Z</time>
</trkpt>
<trkpt lat="45.9039670" lon="9.8322550">
	<ele>1942.00</ele>
	<time>2023-11-18T10:21:48.000Z</time>
</trkpt>
<trkpt lat="45.9039720" lon="9.8322370">
	<ele>1942.00</ele>
	<time>2023-11-18T10:21:49.000Z</time>
</trkpt>
<trkpt lat="45.9039760" lon="9.8322220">
	<ele>1942.20</ele>
	<time>2023-11-18T10:21:50.000Z</time>
</trkpt>
<trkpt lat="45.9039790" lon="9.8322090">
	<ele>1942.20</ele>
	<time>2023-11-18T10:21:51.000Z</time>
</trkpt>
<trkpt lat="45.9039830" lon="9.8321950">
	<ele>1942.20</ele>
	<time>2023-11-18T10:21:52.000Z</time>
</trkpt>
<trkpt lat="45.9039840" lon="9.8321800">
	<ele>1942.20</ele>
	<time>2023-11-18T10:21:53.000Z</time>
</trkpt>
<trkpt lat="45.9039820" lon="9.8321690">
	<ele>1942.20</ele>
	<time>2023-11-18T10:21:54.000Z</time>
</trkpt>
<trkpt lat="45.9039800" lon="9.8321560">
	<ele>1942.20</ele>
	<time>2023-11-18T10:21:55.000Z</time>
</trkpt>
<trkpt lat="45.9039770" lon="9.8321450">
	<ele>1942.20</ele>
	<time>2023-11-18T10:21:56.000Z</time>
</trkpt>
<trkpt lat="45.9039750" lon="9.8321320">
	<ele>1942.20</ele>
	<time>2023-11-18T10:21:57.000Z</time>
</trkpt>
<trkpt lat="45.9039730" lon="9.8321200">
	<ele>1942.20</ele>
	<time>2023-11-18T10:21:58.000Z</time>
</trkpt>
<trkpt lat="45.9039740" lon="9.8321060">
	<ele>1942.40</ele>
	<time>2023-11-18T10:21:59.000Z</time>
</trkpt>
<trkpt lat="45.9039730" lon="9.8320950">
	<ele>1942.40</ele>
	<time>2023-11-18T10:22:00.000Z</time>
</trkpt>
<trkpt lat="45.9039730" lon="9.8320830">
	<ele>1942.40</ele>
	<time>2023-11-18T10:22:01.000Z</time>
</trkpt>
<trkpt lat="45.9039740" lon="9.8320710">
	<ele>1942.60</ele>
	<time>2023-11-18T10:22:02.000Z</time>
</trkpt>
<trkpt lat="45.9039730" lon="9.8320600">
	<ele>1942.60</ele>
	<time>2023-11-18T10:22:03.000Z</time>
</trkpt>
<trkpt lat="45.9039740" lon="9.8320490">
	<ele>1942.60</ele>
	<time>2023-11-18T10:22:04.000Z</time>
</trkpt>
<trkpt lat="45.9039730" lon="9.8320360">
	<ele>1942.60</ele>
	<time>2023-11-18T10:22:05.000Z</time>
</trkpt>
<trkpt lat="45.9039740" lon="9.8320260">
	<ele>1942.80</ele>
	<time>2023-11-18T10:22:06.000Z</time>
</trkpt>
<trkpt lat="45.9039750" lon="9.8320170">
	<ele>1942.80</ele>
	<time>2023-11-18T10:22:07.000Z</time>
</trkpt>
<trkpt lat="45.9039760" lon="9.8320070">
	<ele>1942.80</ele>
	<time>2023-11-18T10:22:08.000Z</time>
</trkpt>
<trkpt lat="45.9039770" lon="9.8319950">
	<ele>1943.00</ele>
	<time>2023-11-18T10:22:09.000Z</time>
</trkpt>
<trkpt lat="45.9039750" lon="9.8319850">
	<ele>1943.00</ele>
	<time>2023-11-18T10:22:10.000Z</time>
</trkpt>
<trkpt lat="45.9039760" lon="9.8319710">
	<ele>1943.20</ele>
	<time>2023-11-18T10:22:11.000Z</time>
</trkpt>
<trkpt lat="45.9039770" lon="9.8319630">
	<ele>1943.20</ele>
	<time>2023-11-18T10:22:12.000Z</time>
</trkpt>
<trkpt lat="45.9039770" lon="9.8319560">
	<ele>1943.40</ele>
	<time>2023-11-18T10:22:13.000Z</time>
</trkpt>
<trkpt lat="45.9039780" lon="9.8319430">
	<ele>1943.60</ele>
	<time>2023-11-18T10:22:14.000Z</time>
</trkpt>
<trkpt lat="45.9039830" lon="9.8319280">
	<ele>1943.60</ele>
	<time>2023-11-18T10:22:15.000Z</time>
</trkpt>
<trkpt lat="45.9039840" lon="9.8319150">
	<ele>1943.60</ele>
	<time>2023-11-18T10:22:16.000Z</time>
</trkpt>
<trkpt lat="45.9039860" lon="9.8319010">
	<ele>1943.60</ele>
	<time>2023-11-18T10:22:17.000Z</time>
</trkpt>
<trkpt lat="45.9039880" lon="9.8318880">
	<ele>1943.80</ele>
	<time>2023-11-18T10:22:18.000Z</time>
</trkpt>
<trkpt lat="45.9039900" lon="9.8318740">
	<ele>1943.80</ele>
	<time>2023-11-18T10:22:19.000Z</time>
</trkpt>
<trkpt lat="45.9039870" lon="9.8318610">
	<ele>1943.80</ele>
	<time>2023-11-18T10:22:20.000Z</time>
</trkpt>
<trkpt lat="45.9039830" lon="9.8318490">
	<ele>1943.80</ele>
	<time>2023-11-18T10:22:21.000Z</time>
</trkpt>
<trkpt lat="45.9039820" lon="9.8318380">
	<ele>1943.80</ele>
	<time>2023-11-18T10:22:22.000Z</time>
</trkpt>
<trkpt lat="45.9039840" lon="9.8318260">
	<ele>1943.80</ele>
	<time>2023-11-18T10:22:23.000Z</time>
</trkpt>
<trkpt lat="45.9039790" lon="9.8318160">
	<ele>1943.80</ele>
	<time>2023-11-18T10:22:24.000Z</time>
</trkpt>
<trkpt lat="45.9039820" lon="9.8318080">
	<ele>1943.80</ele>
	<time>2023-11-18T10:22:25.000Z</time>
</trkpt>
<trkpt lat="45.9039810" lon="9.8318000">
	<ele>1943.80</ele>
	<time>2023-11-18T10:22:26.000Z</time>
</trkpt>
<trkpt lat="45.9039760" lon="9.8317920">
	<ele>1944.00</ele>
	<time>2023-11-18T10:22:27.000Z</time>
</trkpt>
<trkpt lat="45.9039760" lon="9.8317820">
	<ele>1944.00</ele>
	<time>2023-11-18T10:22:28.000Z</time>
</trkpt>
<trkpt lat="45.9039780" lon="9.8317700">
	<ele>1944.00</ele>
	<time>2023-11-18T10:22:29.000Z</time>
</trkpt>
<trkpt lat="45.9039790" lon="9.8317600">
	<ele>1944.20</ele>
	<time>2023-11-18T10:22:30.000Z</time>
</trkpt>
<trkpt lat="45.9039840" lon="9.8317480">
	<ele>1944.20</ele>
	<time>2023-11-18T10:22:31.000Z</time>
</trkpt>
<trkpt lat="45.9039920" lon="9.8317360">
	<ele>1944.20</ele>
	<time>2023-11-18T10:22:32.000Z</time>
</trkpt>
<trkpt lat="45.9039950" lon="9.8317240">
	<ele>1944.20</ele>
	<time>2023-11-18T10:22:33.000Z</time>
</trkpt>
<trkpt lat="45.9039980" lon="9.8317120">
	<ele>1944.40</ele>
	<time>2023-11-18T10:22:34.000Z</time>
</trkpt>
<trkpt lat="45.9040020" lon="9.8316980">
	<ele>1944.40</ele>
	<time>2023-11-18T10:22:35.000Z</time>
</trkpt>
<trkpt lat="45.9040040" lon="9.8316870">
	<ele>1944.40</ele>
	<time>2023-11-18T10:22:36.000Z</time>
</trkpt>
<trkpt lat="45.9040080" lon="9.8316730">
	<ele>1944.40</ele>
	<time>2023-11-18T10:22:37.000Z</time>
</trkpt>
<trkpt lat="45.9040100" lon="9.8316590">
	<ele>1944.40</ele>
	<time>2023-11-18T10:22:38.000Z</time>
</trkpt>
<trkpt lat="45.9040150" lon="9.8316470">
	<ele>1944.40</ele>
	<time>2023-11-18T10:22:39.000Z</time>
</trkpt>
<trkpt lat="45.9040200" lon="9.8316330">
	<ele>1944.40</ele>
	<time>2023-11-18T10:22:40.000Z</time>
</trkpt>
<trkpt lat="45.9040230" lon="9.8316180">
	<ele>1944.40</ele>
	<time>2023-11-18T10:22:41.000Z</time>
</trkpt>
<trkpt lat="45.9040260" lon="9.8316010">
	<ele>1944.40</ele>
	<time>2023-11-18T10:22:42.000Z</time>
</trkpt>
<trkpt lat="45.9040250" lon="9.8315850">
	<ele>1944.40</ele>
	<time>2023-11-18T10:22:43.000Z</time>
</trkpt>
<trkpt lat="45.9040230" lon="9.8315720">
	<ele>1944.40</ele>
	<time>2023-11-18T10:22:44.000Z</time>
</trkpt>
<trkpt lat="45.9040220" lon="9.8315610">
	<ele>1944.60</ele>
	<time>2023-11-18T10:22:45.000Z</time>
</trkpt>
<trkpt lat="45.9040210" lon="9.8315490">
	<ele>1944.60</ele>
	<time>2023-11-18T10:22:46.000Z</time>
</trkpt>
<trkpt lat="45.9040200" lon="9.8315390">
	<ele>1944.60</ele>
	<time>2023-11-18T10:22:47.000Z</time>
</trkpt>
<trkpt lat="45.9040180" lon="9.8315270">
	<ele>1944.60</ele>
	<time>2023-11-18T10:22:48.000Z</time>
</trkpt>
<trkpt lat="45.9040150" lon="9.8315150">
	<ele>1944.60</ele>
	<time>2023-11-18T10:22:49.000Z</time>
</trkpt>
<trkpt lat="45.9040120" lon="9.8315040">
	<ele>1944.60</ele>
	<time>2023-11-18T10:22:50.000Z</time>
</trkpt>
<trkpt lat="45.9040100" lon="9.8314900">
	<ele>1944.60</ele>
	<time>2023-11-18T10:22:51.000Z</time>
</trkpt>
<trkpt lat="45.9040100" lon="9.8314770">
	<ele>1944.60</ele>
	<time>2023-11-18T10:22:52.000Z</time>
</trkpt>
<trkpt lat="45.9040100" lon="9.8314640">
	<ele>1944.80</ele>
	<time>2023-11-18T10:22:53.000Z</time>
</trkpt>
<trkpt lat="45.9040120" lon="9.8314500">
	<ele>1945.00</ele>
	<time>2023-11-18T10:22:54.000Z</time>
</trkpt>
<trkpt lat="45.9040170" lon="9.8314380">
	<ele>1945.00</ele>
	<time>2023-11-18T10:22:55.000Z</time>
</trkpt>
<trkpt lat="45.9040190" lon="9.8314240">
	<ele>1945.20</ele>
	<time>2023-11-18T10:22:56.000Z</time>
</trkpt>
<trkpt lat="45.9040200" lon="9.8314110">
	<ele>1945.20</ele>
	<time>2023-11-18T10:22:57.000Z</time>
</trkpt>
<trkpt lat="45.9040220" lon="9.8313960">
	<ele>1945.40</ele>
	<time>2023-11-18T10:22:58.000Z</time>
</trkpt>
<trkpt lat="45.9040240" lon="9.8313810">
	<ele>1945.40</ele>
	<time>2023-11-18T10:22:59.000Z</time>
</trkpt>
<trkpt lat="45.9040240" lon="9.8313670">
	<ele>1945.20</ele>
	<time>2023-11-18T10:23:00.000Z</time>
</trkpt>
<trkpt lat="45.9040280" lon="9.8313530">
	<ele>1945.20</ele>
	<time>2023-11-18T10:23:01.000Z</time>
</trkpt>
<trkpt lat="45.9040300" lon="9.8313390">
	<ele>1945.20</ele>
	<time>2023-11-18T10:23:02.000Z</time>
</trkpt>
<trkpt lat="45.9040300" lon="9.8313250">
	<ele>1945.20</ele>
	<time>2023-11-18T10:23:03.000Z</time>
</trkpt>
<trkpt lat="45.9040310" lon="9.8313120">
	<ele>1945.20</ele>
	<time>2023-11-18T10:23:04.000Z</time>
</trkpt>
<trkpt lat="45.9040310" lon="9.8312970">
	<ele>1945.20</ele>
	<time>2023-11-18T10:23:05.000Z</time>
</trkpt>
<trkpt lat="45.9040320" lon="9.8312860">
	<ele>1945.20</ele>
	<time>2023-11-18T10:23:06.000Z</time>
</trkpt>
<trkpt lat="45.9040360" lon="9.8312740">
	<ele>1945.00</ele>
	<time>2023-11-18T10:23:07.000Z</time>
</trkpt>
<trkpt lat="45.9040370" lon="9.8312620">
	<ele>1945.00</ele>
	<time>2023-11-18T10:23:08.000Z</time>
</trkpt>
<trkpt lat="45.9040370" lon="9.8312550">
	<ele>1945.00</ele>
	<time>2023-11-18T10:23:09.000Z</time>
</trkpt>
<trkpt lat="45.9040360" lon="9.8312530">
	<ele>1945.00</ele>
	<time>2023-11-18T10:23:10.000Z</time>
</trkpt>
<trkpt lat="45.9040320" lon="9.8312560">
	<ele>1945.00</ele>
	<time>2023-11-18T10:23:11.000Z</time>
</trkpt>
<trkpt lat="45.9040280" lon="9.8312550">
	<ele>1945.00</ele>
	<time>2023-11-18T10:23:12.000Z</time>
</trkpt>
<trkpt lat="45.9040280" lon="9.8312530">
	<ele>1945.00</ele>
	<time>2023-11-18T10:23:13.000Z</time>
</trkpt>
<trkpt lat="45.9040280" lon="9.8312480">
	<ele>1945.00</ele>
	<time>2023-11-18T10:23:14.000Z</time>
</trkpt>
<trkpt lat="45.9040310" lon="9.8312360">
	<ele>1944.80</ele>
	<time>2023-11-18T10:23:15.000Z</time>
</trkpt>
<trkpt lat="45.9040340" lon="9.8312230">
	<ele>1944.60</ele>
	<time>2023-11-18T10:23:16.000Z</time>
</trkpt>
<trkpt lat="45.9040390" lon="9.8312110">
	<ele>1944.60</ele>
	<time>2023-11-18T10:23:17.000Z</time>
</trkpt>
<trkpt lat="45.9040430" lon="9.8311940">
	<ele>1944.40</ele>
	<time>2023-11-18T10:23:18.000Z</time>
</trkpt>
<trkpt lat="45.9040440" lon="9.8311820">
	<ele>1944.40</ele>
	<time>2023-11-18T10:23:19.000Z</time>
</trkpt>
<trkpt lat="45.9040490" lon="9.8311610">
	<ele>1944.20</ele>
	<time>2023-11-18T10:23:20.000Z</time>
</trkpt>
<trkpt lat="45.9040520" lon="9.8311490">
	<ele>1944.40</ele>
	<time>2023-11-18T10:23:21.000Z</time>
</trkpt>
<trkpt lat="45.9040520" lon="9.8311430">
	<ele>1944.40</ele>
	<time>2023-11-18T10:23:22.000Z</time>
</trkpt>
<trkpt lat="45.9040520" lon="9.8311370">
	<ele>1944.20</ele>
	<time>2023-11-18T10:23:23.000Z</time>
</trkpt>
<trkpt lat="45.9040530" lon="9.8311350">
	<ele>1944.20</ele>
	<time>2023-11-18T10:23:24.000Z</time>
</trkpt>
<trkpt lat="45.9040520" lon="9.8311340">
	<ele>1944.20</ele>
	<time>2023-11-18T10:23:25.000Z</time>
</trkpt>
<trkpt lat="45.9040520" lon="9.8311340">
	<ele>1944.20</ele>
	<time>2023-11-18T10:23:26.000Z</time>
</trkpt>
<trkpt lat="45.9040520" lon="9.8311340">
	<ele>1944.20</ele>
	<time>2023-11-18T10:23:27.000Z</time>
</trkpt>
<trkpt lat="45.9040510" lon="9.8311320">
	<ele>1944.00</ele>
	<time>2023-11-18T10:23:28.000Z</time>
</trkpt>
<trkpt lat="45.9040510" lon="9.8311300">
	<ele>1944.00</ele>
	<time>2023-11-18T10:23:29.000Z</time>
</trkpt>
<trkpt lat="45.9040520" lon="9.8311300">
	<ele>1944.00</ele>
	<time>2023-11-18T10:23:30.000Z</time>
</trkpt>
<trkpt lat="45.9040540" lon="9.8311280">
	<ele>1944.00</ele>
	<time>2023-11-18T10:23:31.000Z</time>
</trkpt>
<trkpt lat="45.9040560" lon="9.8311270">
	<ele>1944.20</ele>
	<time>2023-11-18T10:23:32.000Z</time>
</trkpt>
<trkpt lat="45.9040580" lon="9.8311280">
	<ele>1944.20</ele>
	<time>2023-11-18T10:23:33.000Z</time>
</trkpt>
<trkpt lat="45.9040610" lon="9.8311270">
	<ele>1944.40</ele>
	<time>2023-11-18T10:23:34.000Z</time>
</trkpt>
<trkpt lat="45.9040610" lon="9.8311270">
	<ele>1944.40</ele>
	<time>2023-11-18T10:23:35.000Z</time>
</trkpt>
<trkpt lat="45.9040610" lon="9.8311290">
	<ele>1945.00</ele>
	<time>2023-11-18T10:23:36.000Z</time>
</trkpt>
<trkpt lat="45.9040630" lon="9.8311300">
	<ele>1945.00</ele>
	<time>2023-11-18T10:23:37.000Z</time>
</trkpt>
<trkpt lat="45.9040640" lon="9.8311310">
	<ele>1945.00</ele>
	<time>2023-11-18T10:23:38.000Z</time>
</trkpt>
<trkpt lat="45.9040660" lon="9.8311300">
	<ele>1945.00</ele>
	<time>2023-11-18T10:23:39.000Z</time>
</trkpt>
<trkpt lat="45.9040680" lon="9.8311300">
	<ele>1945.00</ele>
	<time>2023-11-18T10:23:40.000Z</time>
</trkpt>
<trkpt lat="45.9040700" lon="9.8311260">
	<ele>1945.00</ele>
	<time>2023-11-18T10:23:41.000Z</time>
</trkpt>
<trkpt lat="45.9040730" lon="9.8311190">
	<ele>1945.00</ele>
	<time>2023-11-18T10:23:42.000Z</time>
</trkpt>
<trkpt lat="45.9040760" lon="9.8311130">
	<ele>1945.00</ele>
	<time>2023-11-18T10:23:43.000Z</time>
</trkpt>
<trkpt lat="45.9040770" lon="9.8311030">
	<ele>1945.00</ele>
	<time>2023-11-18T10:23:44.000Z</time>
</trkpt>
<trkpt lat="45.9040800" lon="9.8310930">
	<ele>1945.00</ele>
	<time>2023-11-18T10:23:45.000Z</time>
</trkpt>
<trkpt lat="45.9040810" lon="9.8310810">
	<ele>1945.00</ele>
	<time>2023-11-18T10:23:46.000Z</time>
</trkpt>
<trkpt lat="45.9040850" lon="9.8310680">
	<ele>1945.00</ele>
	<time>2023-11-18T10:23:47.000Z</time>
</trkpt>
<trkpt lat="45.9040870" lon="9.8310550">
	<ele>1945.00</ele>
	<time>2023-11-18T10:23:48.000Z</time>
</trkpt>
<trkpt lat="45.9040920" lon="9.8310450">
	<ele>1945.00</ele>
	<time>2023-11-18T10:23:49.000Z</time>
</trkpt>
<trkpt lat="45.9040970" lon="9.8310350">
	<ele>1945.00</ele>
	<time>2023-11-18T10:23:50.000Z</time>
</trkpt>
<trkpt lat="45.9041000" lon="9.8310250">
	<ele>1945.00</ele>
	<time>2023-11-18T10:23:51.000Z</time>
</trkpt>
<trkpt lat="45.9041020" lon="9.8310160">
	<ele>1945.00</ele>
	<time>2023-11-18T10:23:52.000Z</time>
</trkpt>
<trkpt lat="45.9041020" lon="9.8310060">
	<ele>1945.00</ele>
	<time>2023-11-18T10:23:53.000Z</time>
</trkpt>
<trkpt lat="45.9041030" lon="9.8310000">
	<ele>1945.00</ele>
	<time>2023-11-18T10:23:54.000Z</time>
</trkpt>
<trkpt lat="45.9041010" lon="9.8309900">
	<ele>1945.00</ele>
	<time>2023-11-18T10:23:55.000Z</time>
</trkpt>
<trkpt lat="45.9041000" lon="9.8309780">
	<ele>1945.00</ele>
	<time>2023-11-18T10:23:56.000Z</time>
</trkpt>
<trkpt lat="45.9041000" lon="9.8309620">
	<ele>1945.00</ele>
	<time>2023-11-18T10:23:57.000Z</time>
</trkpt>
<trkpt lat="45.9041030" lon="9.8309490">
	<ele>1945.00</ele>
	<time>2023-11-18T10:23:58.000Z</time>
</trkpt>
<trkpt lat="45.9041060" lon="9.8309390">
	<ele>1945.00</ele>
	<time>2023-11-18T10:23:59.000Z</time>
</trkpt>
<trkpt lat="45.9041070" lon="9.8309310">
	<ele>1945.00</ele>
	<time>2023-11-18T10:24:00.000Z</time>
</trkpt>
<trkpt lat="45.9041090" lon="9.8309250">
	<ele>1945.00</ele>
	<time>2023-11-18T10:24:01.000Z</time>
</trkpt>
<trkpt lat="45.9041130" lon="9.8309150">
	<ele>1945.00</ele>
	<time>2023-11-18T10:24:02.000Z</time>
</trkpt>
<trkpt lat="45.9041090" lon="9.8309020">
	<ele>1945.00</ele>
	<time>2023-11-18T10:24:03.000Z</time>
</trkpt>
<trkpt lat="45.9041070" lon="9.8308890">
	<ele>1945.00</ele>
	<time>2023-11-18T10:24:04.000Z</time>
</trkpt>
<trkpt lat="45.9040980" lon="9.8308790">
	<ele>1945.00</ele>
	<time>2023-11-18T10:24:05.000Z</time>
</trkpt>
<trkpt lat="45.9040890" lon="9.8308750">
	<ele>1945.00</ele>
	<time>2023-11-18T10:24:06.000Z</time>
</trkpt>
<trkpt lat="45.9040810" lon="9.8308660">
	<ele>1945.00</ele>
	<time>2023-11-18T10:24:07.000Z</time>
</trkpt>
<trkpt lat="45.9040790" lon="9.8308640">
	<ele>1945.00</ele>
	<time>2023-11-18T10:24:08.000Z</time>
</trkpt>
<trkpt lat="45.9040820" lon="9.8308500">
	<ele>1945.00</ele>
	<time>2023-11-18T10:24:09.000Z</time>
</trkpt>
<trkpt lat="45.9040900" lon="9.8308360">
	<ele>1945.00</ele>
	<time>2023-11-18T10:24:10.000Z</time>
</trkpt>
<trkpt lat="45.9040900" lon="9.8308260">
	<ele>1945.00</ele>
	<time>2023-11-18T10:24:11.000Z</time>
</trkpt>
<trkpt lat="45.9040920" lon="9.8308170">
	<ele>1945.00</ele>
	<time>2023-11-18T10:24:12.000Z</time>
</trkpt>
<trkpt lat="45.9040930" lon="9.8308090">
	<ele>1945.00</ele>
	<time>2023-11-18T10:24:13.000Z</time>
</trkpt>
<trkpt lat="45.9040990" lon="9.8308030">
	<ele>1945.00</ele>
	<time>2023-11-18T10:24:14.000Z</time>
</trkpt>
<trkpt lat="45.9041050" lon="9.8307940">
	<ele>1945.00</ele>
	<time>2023-11-18T10:24:15.000Z</time>
</trkpt>
<trkpt lat="45.9041100" lon="9.8307850">
	<ele>1945.00</ele>
	<time>2023-11-18T10:24:16.000Z</time>
</trkpt>
<trkpt lat="45.9041130" lon="9.8307780">
	<ele>1945.00</ele>
	<time>2023-11-18T10:24:17.000Z</time>
</trkpt>
<trkpt lat="45.9041190" lon="9.8307760">
	<ele>1945.00</ele>
	<time>2023-11-18T10:24:18.000Z</time>
</trkpt>
<trkpt lat="45.9041260" lon="9.8307710">
	<ele>1945.00</ele>
	<time>2023-11-18T10:24:19.000Z</time>
</trkpt>
<trkpt lat="45.9041310" lon="9.8307670">
	<ele>1945.00</ele>
	<time>2023-11-18T10:24:20.000Z</time>
</trkpt>
<trkpt lat="45.9041350" lon="9.8307650">
	<ele>1945.00</ele>
	<time>2023-11-18T10:24:21.000Z</time>
</trkpt>
<trkpt lat="45.9041420" lon="9.8307650">
	<ele>1945.00</ele>
	<time>2023-11-18T10:24:22.000Z</time>
</trkpt>
<trkpt lat="45.9041460" lon="9.8307620">
	<ele>1945.00</ele>
	<time>2023-11-18T10:24:23.000Z</time>
</trkpt>
<trkpt lat="45.9041500" lon="9.8307590">
	<ele>1945.00</ele>
	<time>2023-11-18T10:24:24.000Z</time>
</trkpt>
<trkpt lat="45.9041530" lon="9.8307540">
	<ele>1945.00</ele>
	<time>2023-11-18T10:24:25.000Z</time>
</trkpt>
<trkpt lat="45.9041550" lon="9.8307500">
	<ele>1945.00</ele>
	<time>2023-11-18T10:24:26.000Z</time>
</trkpt>
<trkpt lat="45.9041600" lon="9.8307490">
	<ele>1945.00</ele>
	<time>2023-11-18T10:24:27.000Z</time>
</trkpt>
<trkpt lat="45.9041640" lon="9.8307480">
	<ele>1945.00</ele>
	<time>2023-11-18T10:24:28.000Z</time>
</trkpt>
<trkpt lat="45.9041680" lon="9.8307450">
	<ele>1945.00</ele>
	<time>2023-11-18T10:24:29.000Z</time>
</trkpt>
<trkpt lat="45.9041720" lon="9.8307420">
	<ele>1945.00</ele>
	<time>2023-11-18T10:24:30.000Z</time>
</trkpt>
<trkpt lat="45.9041750" lon="9.8307420">
	<ele>1945.00</ele>
	<time>2023-11-18T10:24:31.000Z</time>
</trkpt>
<trkpt lat="45.9041790" lon="9.8307420">
	<ele>1945.00</ele>
	<time>2023-11-18T10:24:32.000Z</time>
</trkpt>
<trkpt lat="45.9041820" lon="9.8307390">
	<ele>1945.00</ele>
	<time>2023-11-18T10:24:33.000Z</time>
</trkpt>
<trkpt lat="45.9041850" lon="9.8307350">
	<ele>1945.00</ele>
	<time>2023-11-18T10:24:34.000Z</time>
</trkpt>
<trkpt lat="45.9041900" lon="9.8307290">
	<ele>1945.00</ele>
	<time>2023-11-18T10:24:35.000Z</time>
</trkpt>
<trkpt lat="45.9041940" lon="9.8307200">
	<ele>1945.00</ele>
	<time>2023-11-18T10:24:36.000Z</time>
</trkpt>
<trkpt lat="45.9041960" lon="9.8307150">
	<ele>1934.80</ele>
	<time>2023-11-18T10:24:37.000Z</time>
</trkpt>
<trkpt lat="45.9041960" lon="9.8307110">
	<ele>1934.80</ele>
	<time>2023-11-18T10:24:38.000Z</time>
</trkpt>
<trkpt lat="45.9041980" lon="9.8307080">
	<ele>1934.80</ele>
	<time>2023-11-18T10:24:39.000Z</time>
</trkpt>
<trkpt lat="45.9042040" lon="9.8307040">
	<ele>1934.80</ele>
	<time>2023-11-18T10:24:40.000Z</time>
</trkpt>
<trkpt lat="45.9042090" lon="9.8306990">
	<ele>1934.80</ele>
	<time>2023-11-18T10:24:41.000Z</time>
</trkpt>
<trkpt lat="45.9042130" lon="9.8306930">
	<ele>1934.80</ele>
	<time>2023-11-18T10:24:42.000Z</time>
</trkpt>
<trkpt lat="45.9042130" lon="9.8306860">
	<ele>1934.60</ele>
	<time>2023-11-18T10:24:43.000Z</time>
</trkpt>
<trkpt lat="45.9042100" lon="9.8306810">
	<ele>1934.00</ele>
	<time>2023-11-18T10:24:44.000Z</time>
</trkpt>
<trkpt lat="45.9042090" lon="9.8306780">
	<ele>1933.80</ele>
	<time>2023-11-18T10:24:45.000Z</time>
</trkpt>
<trkpt lat="45.9042090" lon="9.8306760">
	<ele>1933.60</ele>
	<time>2023-11-18T10:24:46.000Z</time>
</trkpt>
<trkpt lat="45.9042090" lon="9.8306750">
	<ele>1933.40</ele>
	<time>2023-11-18T10:24:47.000Z</time>
</trkpt>
<trkpt lat="45.9042110" lon="9.8306720">
	<ele>1933.20</ele>
	<time>2023-11-18T10:24:48.000Z</time>
</trkpt>
<trkpt lat="45.9042120" lon="9.8306690">
	<ele>1933.00</ele>
	<time>2023-11-18T10:24:49.000Z</time>
</trkpt>
<trkpt lat="45.9042150" lon="9.8306680">
	<ele>1932.80</ele>
	<time>2023-11-18T10:24:50.000Z</time>
</trkpt>
<trkpt lat="45.9042190" lon="9.8306620">
	<ele>1932.80</ele>
	<time>2023-11-18T10:24:51.000Z</time>
</trkpt>
<trkpt lat="45.9042210" lon="9.8306570">
	<ele>1932.40</ele>
	<time>2023-11-18T10:24:52.000Z</time>
</trkpt>
<trkpt lat="45.9042220" lon="9.8306480">
	<ele>1932.20</ele>
	<time>2023-11-18T10:24:53.000Z</time>
</trkpt>
<trkpt lat="45.9042250" lon="9.8306410">
	<ele>1932.20</ele>
	<time>2023-11-18T10:24:54.000Z</time>
</trkpt>
<trkpt lat="45.9042290" lon="9.8306380">
	<ele>1932.00</ele>
	<time>2023-11-18T10:24:55.000Z</time>
</trkpt>
<trkpt lat="45.9042320" lon="9.8306350">
	<ele>1931.40</ele>
	<time>2023-11-18T10:24:56.000Z</time>
</trkpt>
<trkpt lat="45.9042380" lon="9.8306330">
	<ele>1931.20</ele>
	<time>2023-11-18T10:24:57.000Z</time>
</trkpt>
<trkpt lat="45.9042420" lon="9.8306300">
	<ele>1931.00</ele>
	<time>2023-11-18T10:24:58.000Z</time>
</trkpt>
<trkpt lat="45.9042480" lon="9.8306260">
	<ele>1930.80</ele>
	<time>2023-11-18T10:24:59.000Z</time>
</trkpt>
<trkpt lat="45.9042510" lon="9.8306220">
	<ele>1930.60</ele>
	<time>2023-11-18T10:25:00.000Z</time>
</trkpt>
<trkpt lat="45.9042550" lon="9.8306170">
	<ele>1930.40</ele>
	<time>2023-11-18T10:25:01.000Z</time>
</trkpt>
<trkpt lat="45.9042580" lon="9.8306150">
	<ele>1930.20</ele>
	<time>2023-11-18T10:25:02.000Z</time>
</trkpt>
<trkpt lat="45.9042630" lon="9.8306130">
	<ele>1930.00</ele>
	<time>2023-11-18T10:25:03.000Z</time>
</trkpt>
<trkpt lat="45.9042670" lon="9.8306090">
	<ele>1929.80</ele>
	<time>2023-11-18T10:25:04.000Z</time>
</trkpt>
<trkpt lat="45.9042720" lon="9.8306010">
	<ele>1929.60</ele>
	<time>2023-11-18T10:25:05.000Z</time>
</trkpt>
<trkpt lat="45.9042760" lon="9.8305960">
	<ele>1929.40</ele>
	<time>2023-11-18T10:25:06.000Z</time>
</trkpt>
<trkpt lat="45.9042790" lon="9.8305910">
	<ele>1929.20</ele>
	<time>2023-11-18T10:25:07.000Z</time>
</trkpt>
<trkpt lat="45.9042830" lon="9.8305870">
	<ele>1929.00</ele>
	<time>2023-11-18T10:25:08.000Z</time>
</trkpt>
<trkpt lat="45.9042870" lon="9.8305830">
	<ele>1928.60</ele>
	<time>2023-11-18T10:25:09.000Z</time>
</trkpt>
<trkpt lat="45.9042890" lon="9.8305780">
	<ele>1928.40</ele>
	<time>2023-11-18T10:25:10.000Z</time>
</trkpt>
<trkpt lat="45.9042910" lon="9.8305750">
	<ele>1928.20</ele>
	<time>2023-11-18T10:25:11.000Z</time>
</trkpt>
<trkpt lat="45.9042920" lon="9.8305670">
	<ele>1928.00</ele>
	<time>2023-11-18T10:25:12.000Z</time>
</trkpt>
<trkpt lat="45.9042930" lon="9.8305640">
	<ele>1927.80</ele>
	<time>2023-11-18T10:25:13.000Z</time>
</trkpt>
<trkpt lat="45.9042960" lon="9.8305620">
	<ele>1927.60</ele>
	<time>2023-11-18T10:25:14.000Z</time>
</trkpt>
<trkpt lat="45.9042990" lon="9.8305620">
	<ele>1927.40</ele>
	<time>2023-11-18T10:25:15.000Z</time>
</trkpt>
<trkpt lat="45.9043050" lon="9.8305640">
	<ele>1927.40</ele>
	<time>2023-11-18T10:25:16.000Z</time>
</trkpt>
<trkpt lat="45.9043110" lon="9.8305640">
	<ele>1927.20</ele>
	<time>2023-11-18T10:25:17.000Z</time>
</trkpt>
<trkpt lat="45.9043140" lon="9.8305660">
	<ele>1927.20</ele>
	<time>2023-11-18T10:25:18.000Z</time>
</trkpt>
<trkpt lat="45.9043200" lon="9.8305700">
	<ele>1927.00</ele>
	<time>2023-11-18T10:25:19.000Z</time>
</trkpt>
<trkpt lat="45.9043260" lon="9.8305740">
	<ele>1926.80</ele>
	<time>2023-11-18T10:25:20.000Z</time>
</trkpt>
<trkpt lat="45.9043320" lon="9.8305760">
	<ele>1926.40</ele>
	<time>2023-11-18T10:25:21.000Z</time>
</trkpt>
<trkpt lat="45.9043390" lon="9.8305770">
	<ele>1926.20</ele>
	<time>2023-11-18T10:25:22.000Z</time>
</trkpt>
<trkpt lat="45.9043420" lon="9.8305750">
	<ele>1926.20</ele>
	<time>2023-11-18T10:25:23.000Z</time>
</trkpt>
<trkpt lat="45.9043450" lon="9.8305730">
	<ele>1925.80</ele>
	<time>2023-11-18T10:25:24.000Z</time>
</trkpt>
<trkpt lat="45.9043460" lon="9.8305700">
	<ele>1925.60</ele>
	<time>2023-11-18T10:25:25.000Z</time>
</trkpt>
<trkpt lat="45.9043510" lon="9.8305690">
	<ele>1925.60</ele>
	<time>2023-11-18T10:25:26.000Z</time>
</trkpt>
<trkpt lat="45.9043570" lon="9.8305680">
	<ele>1925.40</ele>
	<time>2023-11-18T10:25:27.000Z</time>
</trkpt>
<trkpt lat="45.9043600" lon="9.8305690">
	<ele>1925.40</ele>
	<time>2023-11-18T10:25:28.000Z</time>
</trkpt>
<trkpt lat="45.9043680" lon="9.8305710">
	<ele>1925.20</ele>
	<time>2023-11-18T10:25:29.000Z</time>
</trkpt>
<trkpt lat="45.9043750" lon="9.8305760">
	<ele>1925.00</ele>
	<time>2023-11-18T10:25:30.000Z</time>
</trkpt>
<trkpt lat="45.9043810" lon="9.8305760">
	<ele>1924.80</ele>
	<time>2023-11-18T10:25:31.000Z</time>
</trkpt>
<trkpt lat="45.9043850" lon="9.8305780">
	<ele>1924.60</ele>
	<time>2023-11-18T10:25:32.000Z</time>
</trkpt>
<trkpt lat="45.9043880" lon="9.8305790">
	<ele>1924.60</ele>
	<time>2023-11-18T10:25:33.000Z</time>
</trkpt>
<trkpt lat="45.9043920" lon="9.8305820">
	<ele>1924.60</ele>
	<time>2023-11-18T10:25:34.000Z</time>
</trkpt>
<trkpt lat="45.9043990" lon="9.8305870">
	<ele>1924.40</ele>
	<time>2023-11-18T10:25:35.000Z</time>
</trkpt>
<trkpt lat="45.9044030" lon="9.8305920">
	<ele>1924.20</ele>
	<time>2023-11-18T10:25:36.000Z</time>
</trkpt>
<trkpt lat="45.9044070" lon="9.8305930">
	<ele>1923.80</ele>
	<time>2023-11-18T10:25:37.000Z</time>
</trkpt>
<trkpt lat="45.9044170" lon="9.8305930">
	<ele>1923.60</ele>
	<time>2023-11-18T10:25:38.000Z</time>
</trkpt>
<trkpt lat="45.9044220" lon="9.8305930">
	<ele>1923.40</ele>
	<time>2023-11-18T10:25:39.000Z</time>
</trkpt>
<trkpt lat="45.9044250" lon="9.8305910">
	<ele>1923.20</ele>
	<time>2023-11-18T10:25:40.000Z</time>
</trkpt>
<trkpt lat="45.9044280" lon="9.8305880">
	<ele>1923.00</ele>
	<time>2023-11-18T10:25:41.000Z</time>
</trkpt>
<trkpt lat="45.9044240" lon="9.8305820">
	<ele>1922.80</ele>
	<time>2023-11-18T10:25:42.000Z</time>
</trkpt>
<trkpt lat="45.9044230" lon="9.8305770">
	<ele>1922.80</ele>
	<time>2023-11-18T10:25:43.000Z</time>
</trkpt>
<trkpt lat="45.9044230" lon="9.8305730">
	<ele>1922.40</ele>
	<time>2023-11-18T10:25:44.000Z</time>
</trkpt>
<trkpt lat="45.9044210" lon="9.8305660">
	<ele>1922.20</ele>
	<time>2023-11-18T10:25:45.000Z</time>
</trkpt>
<trkpt lat="45.9044220" lon="9.8305600">
	<ele>1922.00</ele>
	<time>2023-11-18T10:25:46.000Z</time>
</trkpt>
<trkpt lat="45.9044220" lon="9.8305550">
	<ele>1921.80</ele>
	<time>2023-11-18T10:25:47.000Z</time>
</trkpt>
<trkpt lat="45.9044210" lon="9.8305540">
	<ele>1921.80</ele>
	<time>2023-11-18T10:25:48.000Z</time>
</trkpt>
<trkpt lat="45.9044190" lon="9.8305530">
	<ele>1921.80</ele>
	<time>2023-11-18T10:25:49.000Z</time>
</trkpt>
<trkpt lat="45.9044180" lon="9.8305530">
	<ele>1921.60</ele>
	<time>2023-11-18T10:25:50.000Z</time>
</trkpt>
<trkpt lat="45.9044180" lon="9.8305520">
	<ele>1921.60</ele>
	<time>2023-11-18T10:25:51.000Z</time>
</trkpt>
<trkpt lat="45.9044140" lon="9.8305480">
	<ele>1921.60</ele>
	<time>2023-11-18T10:25:52.000Z</time>
</trkpt>
<trkpt lat="45.9044130" lon="9.8305430">
	<ele>1921.40</ele>
	<time>2023-11-18T10:25:53.000Z</time>
</trkpt>
<trkpt lat="45.9044140" lon="9.8305390">
	<ele>1921.20</ele>
	<time>2023-11-18T10:25:54.000Z</time>
</trkpt>
<trkpt lat="45.9044140" lon="9.8305360">
	<ele>1921.00</ele>
	<time>2023-11-18T10:25:55.000Z</time>
</trkpt>
<trkpt lat="45.9044150" lon="9.8305330">
	<ele>1920.80</ele>
	<time>2023-11-18T10:25:56.000Z</time>
</trkpt>
<trkpt lat="45.9044170" lon="9.8305320">
	<ele>1920.40</ele>
	<time>2023-11-18T10:25:57.000Z</time>
</trkpt>
<trkpt lat="45.9044210" lon="9.8305300">
	<ele>1920.40</ele>
	<time>2023-11-18T10:25:58.000Z</time>
</trkpt>
<trkpt lat="45.9044230" lon="9.8305270">
	<ele>1920.20</ele>
	<time>2023-11-18T10:25:59.000Z</time>
</trkpt>
<trkpt lat="45.9044220" lon="9.8305260">
	<ele>1920.00</ele>
	<time>2023-11-18T10:26:00.000Z</time>
</trkpt>
<trkpt lat="45.9044230" lon="9.8305260">
	<ele>1919.80</ele>
	<time>2023-11-18T10:26:01.000Z</time>
</trkpt>
<trkpt lat="45.9044230" lon="9.8305260">
	<ele>1919.60</ele>
	<time>2023-11-18T10:26:02.000Z</time>
</trkpt>
<trkpt lat="45.9044230" lon="9.8305260">
	<ele>1919.60</ele>
	<time>2023-11-18T10:26:03.000Z</time>
</trkpt>
<trkpt lat="45.9044230" lon="9.8305260">
	<ele>1919.40</ele>
	<time>2023-11-18T10:26:04.000Z</time>
</trkpt>
<trkpt lat="45.9044230" lon="9.8305260">
	<ele>1919.40</ele>
	<time>2023-11-18T10:26:05.000Z</time>
</trkpt>
<trkpt lat="45.9044230" lon="9.8305260">
	<ele>1919.20</ele>
	<time>2023-11-18T10:26:06.000Z</time>
</trkpt>
<trkpt lat="45.9044230" lon="9.8305260">
	<ele>1919.20</ele>
	<time>2023-11-18T10:26:07.000Z</time>
</trkpt>
<trkpt lat="45.9044230" lon="9.8305260">
	<ele>1919.20</ele>
	<time>2023-11-18T10:26:08.000Z</time>
</trkpt>
<trkpt lat="45.9044230" lon="9.8305260">
	<ele>1919.00</ele>
	<time>2023-11-18T10:26:09.000Z</time>
</trkpt>
<trkpt lat="45.9044230" lon="9.8305260">
	<ele>1918.80</ele>
	<time>2023-11-18T10:26:10.000Z</time>
</trkpt>
<trkpt lat="45.9044230" lon="9.8305260">
	<ele>1918.60</ele>
	<time>2023-11-18T10:26:11.000Z</time>
</trkpt>
<trkpt lat="45.9044270" lon="9.8305230">
	<ele>1918.40</ele>
	<time>2023-11-18T10:26:12.000Z</time>
</trkpt>
<trkpt lat="45.9044330" lon="9.8305170">
	<ele>1918.20</ele>
	<time>2023-11-18T10:26:13.000Z</time>
</trkpt>
<trkpt lat="45.9044400" lon="9.8305110">
	<ele>1917.80</ele>
	<time>2023-11-18T10:26:14.000Z</time>
</trkpt>
<trkpt lat="45.9044470" lon="9.8305060">
	<ele>1917.60</ele>
	<time>2023-11-18T10:26:15.000Z</time>
</trkpt>
<trkpt lat="45.9044550" lon="9.8305030">
	<ele>1917.60</ele>
	<time>2023-11-18T10:26:16.000Z</time>
</trkpt>
<trkpt lat="45.9044650" lon="9.8304990">
	<ele>1917.40</ele>
	<time>2023-11-18T10:26:17.000Z</time>
</trkpt>
<trkpt lat="45.9044740" lon="9.8304930">
	<ele>1917.20</ele>
	<time>2023-11-18T10:26:18.000Z</time>
</trkpt>
<trkpt lat="45.9044810" lon="9.8304840">
	<ele>1917.00</ele>
	<time>2023-11-18T10:26:19.000Z</time>
</trkpt>
<trkpt lat="45.9044920" lon="9.8304760">
	<ele>1916.80</ele>
	<time>2023-11-18T10:26:20.000Z</time>
</trkpt>
<trkpt lat="45.9045000" lon="9.8304680">
	<ele>1916.40</ele>
	<time>2023-11-18T10:26:21.000Z</time>
</trkpt>
<trkpt lat="45.9045030" lon="9.8304610">
	<ele>1916.20</ele>
	<time>2023-11-18T10:26:22.000Z</time>
</trkpt>
<trkpt lat="45.9045070" lon="9.8304540">
	<ele>1915.80</ele>
	<time>2023-11-18T10:26:23.000Z</time>
</trkpt>
<trkpt lat="45.9045100" lon="9.8304430">
	<ele>1915.60</ele>
	<time>2023-11-18T10:26:24.000Z</time>
</trkpt>
<trkpt lat="45.9045130" lon="9.8304310">
	<ele>1915.20</ele>
	<time>2023-11-18T10:26:25.000Z</time>
</trkpt>
<trkpt lat="45.9045100" lon="9.8304160">
	<ele>1915.00</ele>
	<time>2023-11-18T10:26:26.000Z</time>
</trkpt>
<trkpt lat="45.9045110" lon="9.8304030">
	<ele>1914.60</ele>
	<time>2023-11-18T10:26:27.000Z</time>
</trkpt>
<trkpt lat="45.9045150" lon="9.8303930">
	<ele>1914.40</ele>
	<time>2023-11-18T10:26:28.000Z</time>
</trkpt>
<trkpt lat="45.9045130" lon="9.8303820">
	<ele>1914.20</ele>
	<time>2023-11-18T10:26:29.000Z</time>
</trkpt>
<trkpt lat="45.9045140" lon="9.8303700">
	<ele>1914.00</ele>
	<time>2023-11-18T10:26:30.000Z</time>
</trkpt>
<trkpt lat="45.9045120" lon="9.8303570">
	<ele>1914.00</ele>
	<time>2023-11-18T10:26:31.000Z</time>
</trkpt>
<trkpt lat="45.9045090" lon="9.8303430">
	<ele>1913.80</ele>
	<time>2023-11-18T10:26:32.000Z</time>
</trkpt>
<trkpt lat="45.9045070" lon="9.8303300">
	<ele>1913.80</ele>
	<time>2023-11-18T10:26:33.000Z</time>
</trkpt>
<trkpt lat="45.9045100" lon="9.8303200">
	<ele>1913.60</ele>
	<time>2023-11-18T10:26:34.000Z</time>
</trkpt>
<trkpt lat="45.9045090" lon="9.8303080">
	<ele>1913.40</ele>
	<time>2023-11-18T10:26:35.000Z</time>
</trkpt>
<trkpt lat="45.9045090" lon="9.8302940">
	<ele>1913.40</ele>
	<time>2023-11-18T10:26:36.000Z</time>
</trkpt>
<trkpt lat="45.9045080" lon="9.8302800">
	<ele>1913.40</ele>
	<time>2023-11-18T10:26:37.000Z</time>
</trkpt>
<trkpt lat="45.9045090" lon="9.8302670">
	<ele>1913.20</ele>
	<time>2023-11-18T10:26:38.000Z</time>
</trkpt>
<trkpt lat="45.9045080" lon="9.8302560">
	<ele>1913.00</ele>
	<time>2023-11-18T10:26:39.000Z</time>
</trkpt>
<trkpt lat="45.9045120" lon="9.8302460">
	<ele>1913.00</ele>
	<time>2023-11-18T10:26:40.000Z</time>
</trkpt>
<trkpt lat="45.9045110" lon="9.8302370">
	<ele>1912.60</ele>
	<time>2023-11-18T10:26:41.000Z</time>
</trkpt>
<trkpt lat="45.9045080" lon="9.8302300">
	<ele>1912.40</ele>
	<time>2023-11-18T10:26:42.000Z</time>
</trkpt>
<trkpt lat="45.9045070" lon="9.8302200">
	<ele>1912.40</ele>
	<time>2023-11-18T10:26:43.000Z</time>
</trkpt>
<trkpt lat="45.9045060" lon="9.8302110">
	<ele>1912.40</ele>
	<time>2023-11-18T10:26:44.000Z</time>
</trkpt>
<trkpt lat="45.9045080" lon="9.8302000">
	<ele>1912.20</ele>
	<time>2023-11-18T10:26:45.000Z</time>
</trkpt>
<trkpt lat="45.9045110" lon="9.8301860">
	<ele>1912.20</ele>
	<time>2023-11-18T10:26:46.000Z</time>
</trkpt>
<trkpt lat="45.9045150" lon="9.8301670">
	<ele>1912.20</ele>
	<time>2023-11-18T10:26:47.000Z</time>
</trkpt>
<trkpt lat="45.9045200" lon="9.8301530">
	<ele>1912.00</ele>
	<time>2023-11-18T10:26:48.000Z</time>
</trkpt>
<trkpt lat="45.9045220" lon="9.8301440">
	<ele>1912.00</ele>
	<time>2023-11-18T10:26:49.000Z</time>
</trkpt>
<trkpt lat="45.9045230" lon="9.8301330">
	<ele>1911.80</ele>
	<time>2023-11-18T10:26:50.000Z</time>
</trkpt>
<trkpt lat="45.9045230" lon="9.8301200">
	<ele>1911.60</ele>
	<time>2023-11-18T10:26:51.000Z</time>
</trkpt>
<trkpt lat="45.9045230" lon="9.8301130">
	<ele>1911.60</ele>
	<time>2023-11-18T10:26:52.000Z</time>
</trkpt>
<trkpt lat="45.9045220" lon="9.8301070">
	<ele>1911.60</ele>
	<time>2023-11-18T10:26:53.000Z</time>
</trkpt>
<trkpt lat="45.9045220" lon="9.8301040">
	<ele>1911.40</ele>
	<time>2023-11-18T10:26:54.000Z</time>
</trkpt>
<trkpt lat="45.9045220" lon="9.8300980">
	<ele>1911.20</ele>
	<time>2023-11-18T10:26:55.000Z</time>
</trkpt>
<trkpt lat="45.9045280" lon="9.8300890">
	<ele>1911.20</ele>
	<time>2023-11-18T10:26:56.000Z</time>
</trkpt>
<trkpt lat="45.9045310" lon="9.8300810">
	<ele>1911.20</ele>
	<time>2023-11-18T10:26:57.000Z</time>
</trkpt>
<trkpt lat="45.9045300" lon="9.8300750">
	<ele>1910.80</ele>
	<time>2023-11-18T10:26:58.000Z</time>
</trkpt>
<trkpt lat="45.9045310" lon="9.8300680">
	<ele>1910.80</ele>
	<time>2023-11-18T10:26:59.000Z</time>
</trkpt>
<trkpt lat="45.9045320" lon="9.8300600">
	<ele>1910.60</ele>
	<time>2023-11-18T10:27:00.000Z</time>
</trkpt>
<trkpt lat="45.9045300" lon="9.8300500">
	<ele>1910.40</ele>
	<time>2023-11-18T10:27:01.000Z</time>
</trkpt>
<trkpt lat="45.9045280" lon="9.8300440">
	<ele>1910.20</ele>
	<time>2023-11-18T10:27:02.000Z</time>
</trkpt>
<trkpt lat="45.9045260" lon="9.8300350">
	<ele>1910.20</ele>
	<time>2023-11-18T10:27:03.000Z</time>
</trkpt>
<trkpt lat="45.9045260" lon="9.8300280">
	<ele>1910.00</ele>
	<time>2023-11-18T10:27:04.000Z</time>
</trkpt>
<trkpt lat="45.9045250" lon="9.8300210">
	<ele>1909.80</ele>
	<time>2023-11-18T10:27:05.000Z</time>
</trkpt>
<trkpt lat="45.9045210" lon="9.8300100">
	<ele>1909.60</ele>
	<time>2023-11-18T10:27:06.000Z</time>
</trkpt>
<trkpt lat="45.9045160" lon="9.8300030">
	<ele>1909.40</ele>
	<time>2023-11-18T10:27:07.000Z</time>
</trkpt>
<trkpt lat="45.9045120" lon="9.8299960">
	<ele>1909.40</ele>
	<time>2023-11-18T10:27:08.000Z</time>
</trkpt>
<trkpt lat="45.9045120" lon="9.8299890">
	<ele>1909.40</ele>
	<time>2023-11-18T10:27:09.000Z</time>
</trkpt>
<trkpt lat="45.9045090" lon="9.8299810">
	<ele>1909.20</ele>
	<time>2023-11-18T10:27:10.000Z</time>
</trkpt>
<trkpt lat="45.9045090" lon="9.8299720">
	<ele>1909.00</ele>
	<time>2023-11-18T10:27:11.000Z</time>
</trkpt>
<trkpt lat="45.9045110" lon="9.8299650">
	<ele>1908.80</ele>
	<time>2023-11-18T10:27:12.000Z</time>
</trkpt>
<trkpt lat="45.9045110" lon="9.8299600">
	<ele>1908.80</ele>
	<time>2023-11-18T10:27:13.000Z</time>
</trkpt>
<trkpt lat="45.9045030" lon="9.8299520">
	<ele>1908.60</ele>
	<time>2023-11-18T10:27:14.000Z</time>
</trkpt>
<trkpt lat="45.9045010" lon="9.8299460">
	<ele>1908.60</ele>
	<time>2023-11-18T10:27:15.000Z</time>
</trkpt>
<trkpt lat="45.9045010" lon="9.8299350">
	<ele>1908.40</ele>
	<time>2023-11-18T10:27:16.000Z</time>
</trkpt>
<trkpt lat="45.9045000" lon="9.8299290">
	<ele>1908.20</ele>
	<time>2023-11-18T10:27:17.000Z</time>
</trkpt>
<trkpt lat="45.9044980" lon="9.8299250">
	<ele>1908.00</ele>
	<time>2023-11-18T10:27:18.000Z</time>
</trkpt>
<trkpt lat="45.9044900" lon="9.8299220">
	<ele>1907.80</ele>
	<time>2023-11-18T10:27:19.000Z</time>
</trkpt>
<trkpt lat="45.9044830" lon="9.8299130">
	<ele>1907.60</ele>
	<time>2023-11-18T10:27:20.000Z</time>
</trkpt>
<trkpt lat="45.9044810" lon="9.8298990">
	<ele>1907.40</ele>
	<time>2023-11-18T10:27:21.000Z</time>
</trkpt>
<trkpt lat="45.9044800" lon="9.8298930">
	<ele>1907.20</ele>
	<time>2023-11-18T10:27:22.000Z</time>
</trkpt>
<trkpt lat="45.9044800" lon="9.8298850">
	<ele>1907.20</ele>
	<time>2023-11-18T10:27:23.000Z</time>
</trkpt>
<trkpt lat="45.9044770" lon="9.8298700">
	<ele>1907.00</ele>
	<time>2023-11-18T10:27:24.000Z</time>
</trkpt>
<trkpt lat="45.9044760" lon="9.8298550">
	<ele>1907.00</ele>
	<time>2023-11-18T10:27:25.000Z</time>
</trkpt>
<trkpt lat="45.9044740" lon="9.8298420">
	<ele>1906.80</ele>
	<time>2023-11-18T10:27:26.000Z</time>
</trkpt>
<trkpt lat="45.9044710" lon="9.8298270">
	<ele>1906.60</ele>
	<time>2023-11-18T10:27:27.000Z</time>
</trkpt>
<trkpt lat="45.9044640" lon="9.8298150">
	<ele>1906.40</ele>
	<time>2023-11-18T10:27:28.000Z</time>
</trkpt>
<trkpt lat="45.9044610" lon="9.8298040">
	<ele>1906.20</ele>
	<time>2023-11-18T10:27:29.000Z</time>
</trkpt>
<trkpt lat="45.9044630" lon="9.8297940">
	<ele>1906.20</ele>
	<time>2023-11-18T10:27:30.000Z</time>
</trkpt>
<trkpt lat="45.9044650" lon="9.8297840">
	<ele>1906.00</ele>
	<time>2023-11-18T10:27:31.000Z</time>
</trkpt>
<trkpt lat="45.9044650" lon="9.8297720">
	<ele>1906.00</ele>
	<time>2023-11-18T10:27:32.000Z</time>
</trkpt>
<trkpt lat="45.9044650" lon="9.8297580">
	<ele>1905.80</ele>
	<time>2023-11-18T10:27:33.000Z</time>
</trkpt>
<trkpt lat="45.9044640" lon="9.8297450">
	<ele>1905.80</ele>
	<time>2023-11-18T10:27:34.000Z</time>
</trkpt>
<trkpt lat="45.9044590" lon="9.8297320">
	<ele>1905.60</ele>
	<time>2023-11-18T10:27:35.000Z</time>
</trkpt>
<trkpt lat="45.9044560" lon="9.8297230">
	<ele>1905.40</ele>
	<time>2023-11-18T10:27:36.000Z</time>
</trkpt>
<trkpt lat="45.9044540" lon="9.8297140">
	<ele>1905.20</ele>
	<time>2023-11-18T10:27:37.000Z</time>
</trkpt>
<trkpt lat="45.9044480" lon="9.8297050">
	<ele>1905.20</ele>
	<time>2023-11-18T10:27:38.000Z</time>
</trkpt>
<trkpt lat="45.9044390" lon="9.8296930">
	<ele>1905.00</ele>
	<time>2023-11-18T10:27:39.000Z</time>
</trkpt>
<trkpt lat="45.9044320" lon="9.8296850">
	<ele>1904.80</ele>
	<time>2023-11-18T10:27:40.000Z</time>
</trkpt>
<trkpt lat="45.9044290" lon="9.8296790">
	<ele>1904.80</ele>
	<time>2023-11-18T10:27:41.000Z</time>
</trkpt>
<trkpt lat="45.9044300" lon="9.8296670">
	<ele>1904.80</ele>
	<time>2023-11-18T10:27:42.000Z</time>
</trkpt>
<trkpt lat="45.9044310" lon="9.8296570">
	<ele>1904.80</ele>
	<time>2023-11-18T10:27:43.000Z</time>
</trkpt>
<trkpt lat="45.9044300" lon="9.8296450">
	<ele>1904.80</ele>
	<time>2023-11-18T10:27:44.000Z</time>
</trkpt>
<trkpt lat="45.9044280" lon="9.8296250">
	<ele>1904.80</ele>
	<time>2023-11-18T10:27:45.000Z</time>
</trkpt>
<trkpt lat="45.9044170" lon="9.8296100">
	<ele>1904.80</ele>
	<time>2023-11-18T10:27:46.000Z</time>
</trkpt>
<trkpt lat="45.9044110" lon="9.8295960">
	<ele>1905.00</ele>
	<time>2023-11-18T10:27:47.000Z</time>
</trkpt>
<trkpt lat="45.9044040" lon="9.8295910">
	<ele>1905.00</ele>
	<time>2023-11-18T10:27:48.000Z</time>
</trkpt>
<trkpt lat="45.9044010" lon="9.8295830">
	<ele>1905.20</ele>
	<time>2023-11-18T10:27:49.000Z</time>
</trkpt>
<trkpt lat="45.9044000" lon="9.8295710">
	<ele>1905.20</ele>
	<time>2023-11-18T10:27:50.000Z</time>
</trkpt>
<trkpt lat="45.9043970" lon="9.8295590">
	<ele>1905.40</ele>
	<time>2023-11-18T10:27:51.000Z</time>
</trkpt>
<trkpt lat="45.9043970" lon="9.8295510">
	<ele>1905.60</ele>
	<time>2023-11-18T10:27:52.000Z</time>
</trkpt>
<trkpt lat="45.9043950" lon="9.8295400">
	<ele>1905.60</ele>
	<time>2023-11-18T10:27:53.000Z</time>
</trkpt>
<trkpt lat="45.9043930" lon="9.8295300">
	<ele>1905.60</ele>
	<time>2023-11-18T10:27:54.000Z</time>
</trkpt>
<trkpt lat="45.9043920" lon="9.8295200">
	<ele>1905.80</ele>
	<time>2023-11-18T10:27:55.000Z</time>
</trkpt>
<trkpt lat="45.9043910" lon="9.8295110">
	<ele>1905.60</ele>
	<time>2023-11-18T10:27:56.000Z</time>
</trkpt>
<trkpt lat="45.9043900" lon="9.8295080">
	<ele>1905.40</ele>
	<time>2023-11-18T10:27:57.000Z</time>
</trkpt>
<trkpt lat="45.9043900" lon="9.8295070">
	<ele>1905.40</ele>
	<time>2023-11-18T10:27:58.000Z</time>
</trkpt>
<trkpt lat="45.9043900" lon="9.8295050">
	<ele>1905.20</ele>
	<time>2023-11-18T10:27:59.000Z</time>
</trkpt>
<trkpt lat="45.9043900" lon="9.8295030">
	<ele>1905.20</ele>
	<time>2023-11-18T10:28:00.000Z</time>
</trkpt>
<trkpt lat="45.9043890" lon="9.8295030">
	<ele>1905.00</ele>
	<time>2023-11-18T10:28:01.000Z</time>
</trkpt>
<trkpt lat="45.9043890" lon="9.8295020">
	<ele>1905.00</ele>
	<time>2023-11-18T10:28:02.000Z</time>
</trkpt>
<trkpt lat="45.9043880" lon="9.8295020">
	<ele>1905.00</ele>
	<time>2023-11-18T10:28:03.000Z</time>
</trkpt>
<trkpt lat="45.9043890" lon="9.8295040">
	<ele>1904.80</ele>
	<time>2023-11-18T10:28:04.000Z</time>
</trkpt>
<trkpt lat="45.9043910" lon="9.8295070">
	<ele>1904.80</ele>
	<time>2023-11-18T10:28:05.000Z</time>
</trkpt>
<trkpt lat="45.9043920" lon="9.8295110">
	<ele>1904.80</ele>
	<time>2023-11-18T10:28:06.000Z</time>
</trkpt>
<trkpt lat="45.9043940" lon="9.8295100">
	<ele>1905.00</ele>
	<time>2023-11-18T10:28:07.000Z</time>
</trkpt>
<trkpt lat="45.9043990" lon="9.8295070">
	<ele>1905.00</ele>
	<time>2023-11-18T10:28:08.000Z</time>
</trkpt>
<trkpt lat="45.9044040" lon="9.8295010">
	<ele>1905.00</ele>
	<time>2023-11-18T10:28:09.000Z</time>
</trkpt>
<trkpt lat="45.9044070" lon="9.8294900">
	<ele>1905.00</ele>
	<time>2023-11-18T10:28:10.000Z</time>
</trkpt>
<trkpt lat="45.9044080" lon="9.8294800">
	<ele>1905.20</ele>
	<time>2023-11-18T10:28:11.000Z</time>
</trkpt>
<trkpt lat="45.9044130" lon="9.8294680">
	<ele>1905.20</ele>
	<time>2023-11-18T10:28:12.000Z</time>
</trkpt>
<trkpt lat="45.9044170" lon="9.8294550">
	<ele>1905.20</ele>
	<time>2023-11-18T10:28:13.000Z</time>
</trkpt>
<trkpt lat="45.9044230" lon="9.8294430">
	<ele>1905.20</ele>
	<time>2023-11-18T10:28:14.000Z</time>
</trkpt>
<trkpt lat="45.9044290" lon="9.8294330">
	<ele>1905.20</ele>
	<time>2023-11-18T10:28:15.000Z</time>
</trkpt>
<trkpt lat="45.9044340" lon="9.8294200">
	<ele>1905.20</ele>
	<time>2023-11-18T10:28:16.000Z</time>
</trkpt>
<trkpt lat="45.9044390" lon="9.8294030">
	<ele>1905.20</ele>
	<time>2023-11-18T10:28:17.000Z</time>
</trkpt>
<trkpt lat="45.9044440" lon="9.8293910">
	<ele>1905.00</ele>
	<time>2023-11-18T10:28:18.000Z</time>
</trkpt>
<trkpt lat="45.9044510" lon="9.8293800">
	<ele>1904.60</ele>
	<time>2023-11-18T10:28:19.000Z</time>
</trkpt>
<trkpt lat="45.9044570" lon="9.8293700">
	<ele>1904.40</ele>
	<time>2023-11-18T10:28:20.000Z</time>
</trkpt>
<trkpt lat="45.9044610" lon="9.8293590">
	<ele>1904.40</ele>
	<time>2023-11-18T10:28:21.000Z</time>
</trkpt>
<trkpt lat="45.9044650" lon="9.8293390">
	<ele>1904.20</ele>
	<time>2023-11-18T10:28:22.000Z</time>
</trkpt>
<trkpt lat="45.9044700" lon="9.8293230">
	<ele>1904.00</ele>
	<time>2023-11-18T10:28:23.000Z</time>
</trkpt>
<trkpt lat="45.9044730" lon="9.8293110">
	<ele>1904.00</ele>
	<time>2023-11-18T10:28:24.000Z</time>
</trkpt>
<trkpt lat="45.9044790" lon="9.8293050">
	<ele>1903.80</ele>
	<time>2023-11-18T10:28:25.000Z</time>
</trkpt>
<trkpt lat="45.9044860" lon="9.8293040">
	<ele>1903.60</ele>
	<time>2023-11-18T10:28:26.000Z</time>
</trkpt>
<trkpt lat="45.9044930" lon="9.8292990">
	<ele>1903.60</ele>
	<time>2023-11-18T10:28:27.000Z</time>
</trkpt>
<trkpt lat="45.9045030" lon="9.8292820">
	<ele>1903.60</ele>
	<time>2023-11-18T10:28:28.000Z</time>
</trkpt>
<trkpt lat="45.9045120" lon="9.8292620">
	<ele>1903.40</ele>
	<time>2023-11-18T10:28:29.000Z</time>
</trkpt>
<trkpt lat="45.9045270" lon="9.8292460">
	<ele>1903.40</ele>
	<time>2023-11-18T10:28:30.000Z</time>
</trkpt>
<trkpt lat="45.9045360" lon="9.8292350">
	<ele>1903.20</ele>
	<time>2023-11-18T10:28:31.000Z</time>
</trkpt>
<trkpt lat="45.9045450" lon="9.8292210">
	<ele>1903.20</ele>
	<time>2023-11-18T10:28:32.000Z</time>
</trkpt>
<trkpt lat="45.9045500" lon="9.8292100">
	<ele>1903.00</ele>
	<time>2023-11-18T10:28:33.000Z</time>
</trkpt>
<trkpt lat="45.9045560" lon="9.8291940">
	<ele>1903.00</ele>
	<time>2023-11-18T10:28:34.000Z</time>
</trkpt>
<trkpt lat="45.9045640" lon="9.8291740">
	<ele>1903.00</ele>
	<time>2023-11-18T10:28:35.000Z</time>
</trkpt>
<trkpt lat="45.9045670" lon="9.8291590">
	<ele>1903.00</ele>
	<time>2023-11-18T10:28:36.000Z</time>
</trkpt>
<trkpt lat="45.9045650" lon="9.8291450">
	<ele>1903.00</ele>
	<time>2023-11-18T10:28:37.000Z</time>
</trkpt>
<trkpt lat="45.9045660" lon="9.8291320">
	<ele>1903.00</ele>
	<time>2023-11-18T10:28:38.000Z</time>
</trkpt>
<trkpt lat="45.9045670" lon="9.8291190">
	<ele>1902.80</ele>
	<time>2023-11-18T10:28:39.000Z</time>
</trkpt>
<trkpt lat="45.9045670" lon="9.8291080">
	<ele>1902.80</ele>
	<time>2023-11-18T10:28:40.000Z</time>
</trkpt>
<trkpt lat="45.9045660" lon="9.8291010">
	<ele>1902.60</ele>
	<time>2023-11-18T10:28:41.000Z</time>
</trkpt>
<trkpt lat="45.9045630" lon="9.8290910">
	<ele>1902.40</ele>
	<time>2023-11-18T10:28:42.000Z</time>
</trkpt>
<trkpt lat="45.9045630" lon="9.8290800">
	<ele>1902.00</ele>
	<time>2023-11-18T10:28:43.000Z</time>
</trkpt>
<trkpt lat="45.9045600" lon="9.8290670">
	<ele>1901.80</ele>
	<time>2023-11-18T10:28:44.000Z</time>
</trkpt>
<trkpt lat="45.9045540" lon="9.8290550">
	<ele>1901.60</ele>
	<time>2023-11-18T10:28:45.000Z</time>
</trkpt>
<trkpt lat="45.9045470" lon="9.8290420">
	<ele>1901.60</ele>
	<time>2023-11-18T10:28:46.000Z</time>
</trkpt>
<trkpt lat="45.9045390" lon="9.8290300">
	<ele>1901.40</ele>
	<time>2023-11-18T10:28:47.000Z</time>
</trkpt>
<trkpt lat="45.9045290" lon="9.8290200">
	<ele>1901.40</ele>
	<time>2023-11-18T10:28:48.000Z</time>
</trkpt>
<trkpt lat="45.9045190" lon="9.8290150">
	<ele>1901.40</ele>
	<time>2023-11-18T10:28:49.000Z</time>
</trkpt>
<trkpt lat="45.9045100" lon="9.8290100">
	<ele>1901.40</ele>
	<time>2023-11-18T10:28:50.000Z</time>
</trkpt>
<trkpt lat="45.9045010" lon="9.8290040">
	<ele>1901.40</ele>
	<time>2023-11-18T10:28:51.000Z</time>
</trkpt>
<trkpt lat="45.9044920" lon="9.8290000">
	<ele>1901.20</ele>
	<time>2023-11-18T10:28:52.000Z</time>
</trkpt>
<trkpt lat="45.9044820" lon="9.8289940">
	<ele>1901.00</ele>
	<time>2023-11-18T10:28:53.000Z</time>
</trkpt>
<trkpt lat="45.9044760" lon="9.8289890">
	<ele>1900.60</ele>
	<time>2023-11-18T10:28:54.000Z</time>
</trkpt>
<trkpt lat="45.9044720" lon="9.8289810">
	<ele>1900.20</ele>
	<time>2023-11-18T10:28:55.000Z</time>
</trkpt>
<trkpt lat="45.9044680" lon="9.8289720">
	<ele>1900.20</ele>
	<time>2023-11-18T10:28:56.000Z</time>
</trkpt>
<trkpt lat="45.9044650" lon="9.8289690">
	<ele>1900.00</ele>
	<time>2023-11-18T10:28:57.000Z</time>
</trkpt>
<trkpt lat="45.9044640" lon="9.8289670">
	<ele>1899.80</ele>
	<time>2023-11-18T10:28:58.000Z</time>
</trkpt>
<trkpt lat="45.9044610" lon="9.8289660">
	<ele>1899.40</ele>
	<time>2023-11-18T10:28:59.000Z</time>
</trkpt>
<trkpt lat="45.9044550" lon="9.8289610">
	<ele>1899.20</ele>
	<time>2023-11-18T10:29:00.000Z</time>
</trkpt>
<trkpt lat="45.9044490" lon="9.8289550">
	<ele>1899.00</ele>
	<time>2023-11-18T10:29:01.000Z</time>
</trkpt>
<trkpt lat="45.9044440" lon="9.8289480">
	<ele>1898.60</ele>
	<time>2023-11-18T10:29:02.000Z</time>
</trkpt>
<trkpt lat="45.9044380" lon="9.8289430">
	<ele>1898.40</ele>
	<time>2023-11-18T10:29:03.000Z</time>
</trkpt>
<trkpt lat="45.9044350" lon="9.8289420">
	<ele>1898.00</ele>
	<time>2023-11-18T10:29:04.000Z</time>
</trkpt>
<trkpt lat="45.9044290" lon="9.8289410">
	<ele>1897.80</ele>
	<time>2023-11-18T10:29:05.000Z</time>
</trkpt>
<trkpt lat="45.9044190" lon="9.8289370">
	<ele>1897.60</ele>
	<time>2023-11-18T10:29:06.000Z</time>
</trkpt>
<trkpt lat="45.9044120" lon="9.8289360">
	<ele>1897.40</ele>
	<time>2023-11-18T10:29:07.000Z</time>
</trkpt>
<trkpt lat="45.9044080" lon="9.8289350">
	<ele>1897.40</ele>
	<time>2023-11-18T10:29:08.000Z</time>
</trkpt>
<trkpt lat="45.9044030" lon="9.8289310">
	<ele>1897.00</ele>
	<time>2023-11-18T10:29:09.000Z</time>
</trkpt>
<trkpt lat="45.9044000" lon="9.8289230">
	<ele>1896.80</ele>
	<time>2023-11-18T10:29:10.000Z</time>
</trkpt>
<trkpt lat="45.9043990" lon="9.8289130">
	<ele>1896.60</ele>
	<time>2023-11-18T10:29:11.000Z</time>
</trkpt>
<trkpt lat="45.9044020" lon="9.8289010">
	<ele>1896.40</ele>
	<time>2023-11-18T10:29:12.000Z</time>
</trkpt>
<trkpt lat="45.9044020" lon="9.8288920">
	<ele>1896.40</ele>
	<time>2023-11-18T10:29:13.000Z</time>
</trkpt>
<trkpt lat="45.9044010" lon="9.8288840">
	<ele>1896.40</ele>
	<time>2023-11-18T10:29:14.000Z</time>
</trkpt>
<trkpt lat="45.9044000" lon="9.8288780">
	<ele>1896.00</ele>
	<time>2023-11-18T10:29:15.000Z</time>
</trkpt>
<trkpt lat="45.9043950" lon="9.8288730">
	<ele>1895.60</ele>
	<time>2023-11-18T10:29:16.000Z</time>
</trkpt>
<trkpt lat="45.9043910" lon="9.8288690">
	<ele>1895.40</ele>
	<time>2023-11-18T10:29:17.000Z</time>
</trkpt>
<trkpt lat="45.9043880" lon="9.8288640">
	<ele>1895.20</ele>
	<time>2023-11-18T10:29:18.000Z</time>
</trkpt>
<trkpt lat="45.9043850" lon="9.8288590">
	<ele>1895.00</ele>
	<time>2023-11-18T10:29:19.000Z</time>
</trkpt>
<trkpt lat="45.9043830" lon="9.8288480">
	<ele>1894.80</ele>
	<time>2023-11-18T10:29:20.000Z</time>
</trkpt>
<trkpt lat="45.9043810" lon="9.8288430">
	<ele>1894.40</ele>
	<time>2023-11-18T10:29:21.000Z</time>
</trkpt>
<trkpt lat="45.9043760" lon="9.8288360">
	<ele>1894.40</ele>
	<time>2023-11-18T10:29:22.000Z</time>
</trkpt>
<trkpt lat="45.9043730" lon="9.8288260">
	<ele>1894.20</ele>
	<time>2023-11-18T10:29:23.000Z</time>
</trkpt>
<trkpt lat="45.9043690" lon="9.8288170">
	<ele>1894.00</ele>
	<time>2023-11-18T10:29:24.000Z</time>
</trkpt>
<trkpt lat="45.9043640" lon="9.8288070">
	<ele>1893.60</ele>
	<time>2023-11-18T10:29:25.000Z</time>
</trkpt>
<trkpt lat="45.9043580" lon="9.8287950">
	<ele>1893.40</ele>
	<time>2023-11-18T10:29:26.000Z</time>
</trkpt>
<trkpt lat="45.9043510" lon="9.8287850">
	<ele>1893.20</ele>
	<time>2023-11-18T10:29:27.000Z</time>
</trkpt>
<trkpt lat="45.9043450" lon="9.8287790">
	<ele>1893.00</ele>
	<time>2023-11-18T10:29:28.000Z</time>
</trkpt>
<trkpt lat="45.9043380" lon="9.8287750">
	<ele>1892.80</ele>
	<time>2023-11-18T10:29:29.000Z</time>
</trkpt>
<trkpt lat="45.9043320" lon="9.8287740">
	<ele>1892.60</ele>
	<time>2023-11-18T10:29:30.000Z</time>
</trkpt>
<trkpt lat="45.9043290" lon="9.8287730">
	<ele>1892.40</ele>
	<time>2023-11-18T10:29:31.000Z</time>
</trkpt>
<trkpt lat="45.9043260" lon="9.8287720">
	<ele>1892.00</ele>
	<time>2023-11-18T10:29:32.000Z</time>
</trkpt>
<trkpt lat="45.9043230" lon="9.8287710">
	<ele>1892.00</ele>
	<time>2023-11-18T10:29:33.000Z</time>
</trkpt>
<trkpt lat="45.9043170" lon="9.8287670">
	<ele>1891.80</ele>
	<time>2023-11-18T10:29:34.000Z</time>
</trkpt>
<trkpt lat="45.9043150" lon="9.8287640">
	<ele>1891.80</ele>
	<time>2023-11-18T10:29:35.000Z</time>
</trkpt>
<trkpt lat="45.9043120" lon="9.8287630">
	<ele>1891.60</ele>
	<time>2023-11-18T10:29:36.000Z</time>
</trkpt>
<trkpt lat="45.9043100" lon="9.8287640">
	<ele>1891.60</ele>
	<time>2023-11-18T10:29:37.000Z</time>
</trkpt>
<trkpt lat="45.9043050" lon="9.8287670">
	<ele>1891.60</ele>
	<time>2023-11-18T10:29:38.000Z</time>
</trkpt>
<trkpt lat="45.9043010" lon="9.8287700">
	<ele>1891.40</ele>
	<time>2023-11-18T10:29:39.000Z</time>
</trkpt>
<trkpt lat="45.9042980" lon="9.8287720">
	<ele>1891.40</ele>
	<time>2023-11-18T10:29:40.000Z</time>
</trkpt>
<trkpt lat="45.9042900" lon="9.8287720">
	<ele>1891.20</ele>
	<time>2023-11-18T10:29:41.000Z</time>
</trkpt>
<trkpt lat="45.9042800" lon="9.8287700">
	<ele>1890.80</ele>
	<time>2023-11-18T10:29:42.000Z</time>
</trkpt>
<trkpt lat="45.9042730" lon="9.8287690">
	<ele>1890.60</ele>
	<time>2023-11-18T10:29:43.000Z</time>
</trkpt>
<trkpt lat="45.9042680" lon="9.8287700">
	<ele>1890.60</ele>
	<time>2023-11-18T10:29:44.000Z</time>
</trkpt>
<trkpt lat="45.9042630" lon="9.8287680">
	<ele>1890.40</ele>
	<time>2023-11-18T10:29:45.000Z</time>
</trkpt>
<trkpt lat="45.9042590" lon="9.8287650">
	<ele>1890.40</ele>
	<time>2023-11-18T10:29:46.000Z</time>
</trkpt>
<trkpt lat="45.9042580" lon="9.8287600">
	<ele>1890.20</ele>
	<time>2023-11-18T10:29:47.000Z</time>
</trkpt>
<trkpt lat="45.9042580" lon="9.8287540">
	<ele>1890.20</ele>
	<time>2023-11-18T10:29:48.000Z</time>
</trkpt>
<trkpt lat="45.9042570" lon="9.8287480">
	<ele>1890.00</ele>
	<time>2023-11-18T10:29:49.000Z</time>
</trkpt>
<trkpt lat="45.9042530" lon="9.8287430">
	<ele>1889.80</ele>
	<time>2023-11-18T10:29:50.000Z</time>
</trkpt>
<trkpt lat="45.9042450" lon="9.8287330">
	<ele>1889.80</ele>
	<time>2023-11-18T10:29:51.000Z</time>
</trkpt>
<trkpt lat="45.9042420" lon="9.8287220">
	<ele>1889.60</ele>
	<time>2023-11-18T10:29:52.000Z</time>
</trkpt>
<trkpt lat="45.9042390" lon="9.8287150">
	<ele>1889.20</ele>
	<time>2023-11-18T10:29:53.000Z</time>
</trkpt>
<trkpt lat="45.9042350" lon="9.8287060">
	<ele>1888.80</ele>
	<time>2023-11-18T10:29:54.000Z</time>
</trkpt>
<trkpt lat="45.9042300" lon="9.8286930">
	<ele>1888.60</ele>
	<time>2023-11-18T10:29:55.000Z</time>
</trkpt>
<trkpt lat="45.9042300" lon="9.8286820">
	<ele>1888.60</ele>
	<time>2023-11-18T10:29:56.000Z</time>
</trkpt>
<trkpt lat="45.9042300" lon="9.8286740">
	<ele>1888.40</ele>
	<time>2023-11-18T10:29:57.000Z</time>
</trkpt>
<trkpt lat="45.9042290" lon="9.8286670">
	<ele>1888.20</ele>
	<time>2023-11-18T10:29:58.000Z</time>
</trkpt>
<trkpt lat="45.9042270" lon="9.8286620">
	<ele>1888.00</ele>
	<time>2023-11-18T10:29:59.000Z</time>
</trkpt>
<trkpt lat="45.9042250" lon="9.8286560">
	<ele>1888.00</ele>
	<time>2023-11-18T10:30:00.000Z</time>
</trkpt>
<trkpt lat="45.9042230" lon="9.8286510">
	<ele>1888.00</ele>
	<time>2023-11-18T10:30:01.000Z</time>
</trkpt>
<trkpt lat="45.9042200" lon="9.8286470">
	<ele>1887.80</ele>
	<time>2023-11-18T10:30:02.000Z</time>
</trkpt>
<trkpt lat="45.9042180" lon="9.8286460">
	<ele>1887.60</ele>
	<time>2023-11-18T10:30:03.000Z</time>
</trkpt>
<trkpt lat="45.9042180" lon="9.8286440">
	<ele>1887.40</ele>
	<time>2023-11-18T10:30:04.000Z</time>
</trkpt>
<trkpt lat="45.9042190" lon="9.8286400">
	<ele>1887.20</ele>
	<time>2023-11-18T10:30:05.000Z</time>
</trkpt>
<trkpt lat="45.9042160" lon="9.8286340">
	<ele>1887.00</ele>
	<time>2023-11-18T10:30:06.000Z</time>
</trkpt>
<trkpt lat="45.9042120" lon="9.8286300">
	<ele>1887.00</ele>
	<time>2023-11-18T10:30:07.000Z</time>
</trkpt>
<trkpt lat="45.9042090" lon="9.8286240">
	<ele>1886.80</ele>
	<time>2023-11-18T10:30:08.000Z</time>
</trkpt>
<trkpt lat="45.9042060" lon="9.8286130">
	<ele>1886.60</ele>
	<time>2023-11-18T10:30:09.000Z</time>
</trkpt>
<trkpt lat="45.9042040" lon="9.8286060">
	<ele>1886.40</ele>
	<time>2023-11-18T10:30:10.000Z</time>
</trkpt>
<trkpt lat="45.9041980" lon="9.8286000">
	<ele>1886.20</ele>
	<time>2023-11-18T10:30:11.000Z</time>
</trkpt>
<trkpt lat="45.9041950" lon="9.8285900">
	<ele>1885.60</ele>
	<time>2023-11-18T10:30:12.000Z</time>
</trkpt>
<trkpt lat="45.9041910" lon="9.8285810">
	<ele>1885.40</ele>
	<time>2023-11-18T10:30:13.000Z</time>
</trkpt>
<trkpt lat="45.9041880" lon="9.8285720">
	<ele>1885.00</ele>
	<time>2023-11-18T10:30:14.000Z</time>
</trkpt>
<trkpt lat="45.9041840" lon="9.8285670">
	<ele>1884.60</ele>
	<time>2023-11-18T10:30:15.000Z</time>
</trkpt>
<trkpt lat="45.9041820" lon="9.8285660">
	<ele>1884.60</ele>
	<time>2023-11-18T10:30:16.000Z</time>
</trkpt>
<trkpt lat="45.9041810" lon="9.8285600">
	<ele>1884.20</ele>
	<time>2023-11-18T10:30:17.000Z</time>
</trkpt>
<trkpt lat="45.9041820" lon="9.8285530">
	<ele>1884.00</ele>
	<time>2023-11-18T10:30:18.000Z</time>
</trkpt>
<trkpt lat="45.9041780" lon="9.8285430">
	<ele>1883.80</ele>
	<time>2023-11-18T10:30:19.000Z</time>
</trkpt>
<trkpt lat="45.9041730" lon="9.8285320">
	<ele>1883.60</ele>
	<time>2023-11-18T10:30:20.000Z</time>
</trkpt>
<trkpt lat="45.9041670" lon="9.8285200">
	<ele>1883.40</ele>
	<time>2023-11-18T10:30:21.000Z</time>
</trkpt>
<trkpt lat="45.9041660" lon="9.8285070">
	<ele>1883.20</ele>
	<time>2023-11-18T10:30:22.000Z</time>
</trkpt>
<trkpt lat="45.9041660" lon="9.8284970">
	<ele>1883.20</ele>
	<time>2023-11-18T10:30:23.000Z</time>
</trkpt>
<trkpt lat="45.9041620" lon="9.8284820">
	<ele>1882.80</ele>
	<time>2023-11-18T10:30:24.000Z</time>
</trkpt>
<trkpt lat="45.9041540" lon="9.8284740">
	<ele>1882.80</ele>
	<time>2023-11-18T10:30:25.000Z</time>
</trkpt>
<trkpt lat="45.9041470" lon="9.8284720">
	<ele>1882.60</ele>
	<time>2023-11-18T10:30:26.000Z</time>
</trkpt>
<trkpt lat="45.9041410" lon="9.8284690">
	<ele>1882.40</ele>
	<time>2023-11-18T10:30:27.000Z</time>
</trkpt>
<trkpt lat="45.9041430" lon="9.8284560">
	<ele>1882.40</ele>
	<time>2023-11-18T10:30:28.000Z</time>
</trkpt>
<trkpt lat="45.9041420" lon="9.8284440">
	<ele>1882.20</ele>
	<time>2023-11-18T10:30:29.000Z</time>
</trkpt>
<trkpt lat="45.9041410" lon="9.8284330">
	<ele>1882.00</ele>
	<time>2023-11-18T10:30:30.000Z</time>
</trkpt>
<trkpt lat="45.9041390" lon="9.8284270">
	<ele>1882.00</ele>
	<time>2023-11-18T10:30:31.000Z</time>
</trkpt>
<trkpt lat="45.9041350" lon="9.8284200">
	<ele>1881.80</ele>
	<time>2023-11-18T10:30:32.000Z</time>
</trkpt>
<trkpt lat="45.9041400" lon="9.8284130">
	<ele>1881.60</ele>
	<time>2023-11-18T10:30:33.000Z</time>
</trkpt>
<trkpt lat="45.9041410" lon="9.8284040">
	<ele>1881.40</ele>
	<time>2023-11-18T10:30:34.000Z</time>
</trkpt>
<trkpt lat="45.9041400" lon="9.8283930">
	<ele>1881.40</ele>
	<time>2023-11-18T10:30:35.000Z</time>
</trkpt>
<trkpt lat="45.9041370" lon="9.8283830">
	<ele>1881.20</ele>
	<time>2023-11-18T10:30:36.000Z</time>
</trkpt>
<trkpt lat="45.9041350" lon="9.8283720">
	<ele>1881.00</ele>
	<time>2023-11-18T10:30:37.000Z</time>
</trkpt>
<trkpt lat="45.9041340" lon="9.8283650">
	<ele>1880.60</ele>
	<time>2023-11-18T10:30:38.000Z</time>
</trkpt>
<trkpt lat="45.9041350" lon="9.8283610">
	<ele>1880.40</ele>
	<time>2023-11-18T10:30:39.000Z</time>
</trkpt>
<trkpt lat="45.9041280" lon="9.8283520">
	<ele>1880.20</ele>
	<time>2023-11-18T10:30:40.000Z</time>
</trkpt>
<trkpt lat="45.9041240" lon="9.8283460">
	<ele>1880.00</ele>
	<time>2023-11-18T10:30:41.000Z</time>
</trkpt>
<trkpt lat="45.9041220" lon="9.8283410">
	<ele>1879.60</ele>
	<time>2023-11-18T10:30:42.000Z</time>
</trkpt>
<trkpt lat="45.9041200" lon="9.8283330">
	<ele>1879.40</ele>
	<time>2023-11-18T10:30:43.000Z</time>
</trkpt>
<trkpt lat="45.9041180" lon="9.8283230">
	<ele>1879.40</ele>
	<time>2023-11-18T10:30:44.000Z</time>
</trkpt>
<trkpt lat="45.9041190" lon="9.8283150">
	<ele>1879.20</ele>
	<time>2023-11-18T10:30:45.000Z</time>
</trkpt>
<trkpt lat="45.9041220" lon="9.8283040">
	<ele>1879.00</ele>
	<time>2023-11-18T10:30:46.000Z</time>
</trkpt>
<trkpt lat="45.9041230" lon="9.8282920">
	<ele>1878.60</ele>
	<time>2023-11-18T10:30:47.000Z</time>
</trkpt>
<trkpt lat="45.9041270" lon="9.8282830">
	<ele>1878.40</ele>
	<time>2023-11-18T10:30:48.000Z</time>
</trkpt>
<trkpt lat="45.9041230" lon="9.8282770">
	<ele>1878.20</ele>
	<time>2023-11-18T10:30:49.000Z</time>
</trkpt>
<trkpt lat="45.9041250" lon="9.8282640">
	<ele>1878.00</ele>
	<time>2023-11-18T10:30:50.000Z</time>
</trkpt>
<trkpt lat="45.9041290" lon="9.8282540">
	<ele>1877.60</ele>
	<time>2023-11-18T10:30:51.000Z</time>
</trkpt>
<trkpt lat="45.9041320" lon="9.8282440">
	<ele>1877.40</ele>
	<time>2023-11-18T10:30:52.000Z</time>
</trkpt>
<trkpt lat="45.9041310" lon="9.8282340">
	<ele>1877.20</ele>
	<time>2023-11-18T10:30:53.000Z</time>
</trkpt>
<trkpt lat="45.9041330" lon="9.8282240">
	<ele>1877.20</ele>
	<time>2023-11-18T10:30:54.000Z</time>
</trkpt>
<trkpt lat="45.9041350" lon="9.8282150">
	<ele>1877.00</ele>
	<time>2023-11-18T10:30:55.000Z</time>
</trkpt>
<trkpt lat="45.9041330" lon="9.8282100">
	<ele>1876.60</ele>
	<time>2023-11-18T10:30:56.000Z</time>
</trkpt>
<trkpt lat="45.9041300" lon="9.8282050">
	<ele>1876.40</ele>
	<time>2023-11-18T10:30:57.000Z</time>
</trkpt>
<trkpt lat="45.9041270" lon="9.8282000">
	<ele>1876.40</ele>
	<time>2023-11-18T10:30:58.000Z</time>
</trkpt>
<trkpt lat="45.9041210" lon="9.8281920">
	<ele>1876.20</ele>
	<time>2023-11-18T10:30:59.000Z</time>
</trkpt>
<trkpt lat="45.9041180" lon="9.8281870">
	<ele>1876.00</ele>
	<time>2023-11-18T10:31:00.000Z</time>
</trkpt>
<trkpt lat="45.9041120" lon="9.8281800">
	<ele>1875.60</ele>
	<time>2023-11-18T10:31:01.000Z</time>
</trkpt>
<trkpt lat="45.9041060" lon="9.8281750">
	<ele>1875.40</ele>
	<time>2023-11-18T10:31:02.000Z</time>
</trkpt>
<trkpt lat="45.9041020" lon="9.8281720">
	<ele>1875.20</ele>
	<time>2023-11-18T10:31:03.000Z</time>
</trkpt>
<trkpt lat="45.9040980" lon="9.8281680">
	<ele>1874.80</ele>
	<time>2023-11-18T10:31:04.000Z</time>
</trkpt>
<trkpt lat="45.9040930" lon="9.8281600">
	<ele>1874.60</ele>
	<time>2023-11-18T10:31:05.000Z</time>
</trkpt>
<trkpt lat="45.9040900" lon="9.8281560">
	<ele>1874.60</ele>
	<time>2023-11-18T10:31:06.000Z</time>
</trkpt>
<trkpt lat="45.9040890" lon="9.8281530">
	<ele>1874.40</ele>
	<time>2023-11-18T10:31:07.000Z</time>
</trkpt>
<trkpt lat="45.9040850" lon="9.8281490">
	<ele>1874.20</ele>
	<time>2023-11-18T10:31:08.000Z</time>
</trkpt>
<trkpt lat="45.9040810" lon="9.8281430">
	<ele>1873.80</ele>
	<time>2023-11-18T10:31:09.000Z</time>
</trkpt>
<trkpt lat="45.9040740" lon="9.8281350">
	<ele>1873.40</ele>
	<time>2023-11-18T10:31:10.000Z</time>
</trkpt>
<trkpt lat="45.9040720" lon="9.8281340">
	<ele>1873.20</ele>
	<time>2023-11-18T10:31:11.000Z</time>
</trkpt>
<trkpt lat="45.9040680" lon="9.8281360">
	<ele>1873.00</ele>
	<time>2023-11-18T10:31:12.000Z</time>
</trkpt>
<trkpt lat="45.9040650" lon="9.8281360">
	<ele>1872.60</ele>
	<time>2023-11-18T10:31:13.000Z</time>
</trkpt>
<trkpt lat="45.9040610" lon="9.8281360">
	<ele>1872.40</ele>
	<time>2023-11-18T10:31:14.000Z</time>
</trkpt>
<trkpt lat="45.9040600" lon="9.8281350">
	<ele>1872.20</ele>
	<time>2023-11-18T10:31:15.000Z</time>
</trkpt>
<trkpt lat="45.9040590" lon="9.8281270">
	<ele>1872.00</ele>
	<time>2023-11-18T10:31:16.000Z</time>
</trkpt>
<trkpt lat="45.9040550" lon="9.8281200">
	<ele>1872.00</ele>
	<time>2023-11-18T10:31:17.000Z</time>
</trkpt>
<trkpt lat="45.9040530" lon="9.8281120">
	<ele>1871.80</ele>
	<time>2023-11-18T10:31:18.000Z</time>
</trkpt>
<trkpt lat="45.9040500" lon="9.8281050">
	<ele>1871.60</ele>
	<time>2023-11-18T10:31:19.000Z</time>
</trkpt>
<trkpt lat="45.9040460" lon="9.8281020">
	<ele>1871.40</ele>
	<time>2023-11-18T10:31:20.000Z</time>
</trkpt>
<trkpt lat="45.9040430" lon="9.8281010">
	<ele>1871.40</ele>
	<time>2023-11-18T10:31:21.000Z</time>
</trkpt>
<trkpt lat="45.9040390" lon="9.8280960">
	<ele>1871.20</ele>
	<time>2023-11-18T10:31:22.000Z</time>
</trkpt>
<trkpt lat="45.9040350" lon="9.8280940">
	<ele>1870.80</ele>
	<time>2023-11-18T10:31:23.000Z</time>
</trkpt>
<trkpt lat="45.9040320" lon="9.8280910">
	<ele>1870.60</ele>
	<time>2023-11-18T10:31:24.000Z</time>
</trkpt>
<trkpt lat="45.9040290" lon="9.8280870">
	<ele>1870.40</ele>
	<time>2023-11-18T10:31:25.000Z</time>
</trkpt>
<trkpt lat="45.9040250" lon="9.8280840">
	<ele>1870.20</ele>
	<time>2023-11-18T10:31:26.000Z</time>
</trkpt>
<trkpt lat="45.9040200" lon="9.8280820">
	<ele>1870.20</ele>
	<time>2023-11-18T10:31:27.000Z</time>
</trkpt>
<trkpt lat="45.9040120" lon="9.8280780">
	<ele>1870.00</ele>
	<time>2023-11-18T10:31:28.000Z</time>
</trkpt>
<trkpt lat="45.9040050" lon="9.8280730">
	<ele>1869.80</ele>
	<time>2023-11-18T10:31:29.000Z</time>
</trkpt>
<trkpt lat="45.9039980" lon="9.8280750">
	<ele>1869.60</ele>
	<time>2023-11-18T10:31:30.000Z</time>
</trkpt>
<trkpt lat="45.9039910" lon="9.8280770">
	<ele>1869.20</ele>
	<time>2023-11-18T10:31:31.000Z</time>
</trkpt>
<trkpt lat="45.9039840" lon="9.8280800">
	<ele>1869.00</ele>
	<time>2023-11-18T10:31:32.000Z</time>
</trkpt>
<trkpt lat="45.9039800" lon="9.8280810">
	<ele>1868.80</ele>
	<time>2023-11-18T10:31:33.000Z</time>
</trkpt>
<trkpt lat="45.9039760" lon="9.8280840">
	<ele>1868.80</ele>
	<time>2023-11-18T10:31:34.000Z</time>
</trkpt>
<trkpt lat="45.9039710" lon="9.8280800">
	<ele>1868.60</ele>
	<time>2023-11-18T10:31:35.000Z</time>
</trkpt>
<trkpt lat="45.9039690" lon="9.8280720">
	<ele>1868.40</ele>
	<time>2023-11-18T10:31:36.000Z</time>
</trkpt>
<trkpt lat="45.9039670" lon="9.8280630">
	<ele>1868.20</ele>
	<time>2023-11-18T10:31:37.000Z</time>
</trkpt>
<trkpt lat="45.9039630" lon="9.8280520">
	<ele>1868.20</ele>
	<time>2023-11-18T10:31:38.000Z</time>
</trkpt>
<trkpt lat="45.9039580" lon="9.8280420">
	<ele>1868.00</ele>
	<time>2023-11-18T10:31:39.000Z</time>
</trkpt>
<trkpt lat="45.9039530" lon="9.8280350">
	<ele>1867.60</ele>
	<time>2023-11-18T10:31:40.000Z</time>
</trkpt>
<trkpt lat="45.9039460" lon="9.8280270">
	<ele>1867.20</ele>
	<time>2023-11-18T10:31:41.000Z</time>
</trkpt>
<trkpt lat="45.9039400" lon="9.8280180">
	<ele>1867.00</ele>
	<time>2023-11-18T10:31:42.000Z</time>
</trkpt>
<trkpt lat="45.9039320" lon="9.8280090">
	<ele>1866.80</ele>
	<time>2023-11-18T10:31:43.000Z</time>
</trkpt>
<trkpt lat="45.9039270" lon="9.8280000">
	<ele>1866.60</ele>
	<time>2023-11-18T10:31:44.000Z</time>
</trkpt>
<trkpt lat="45.9039250" lon="9.8279880">
	<ele>1866.40</ele>
	<time>2023-11-18T10:31:45.000Z</time>
</trkpt>
<trkpt lat="45.9039200" lon="9.8279710">
	<ele>1866.20</ele>
	<time>2023-11-18T10:31:46.000Z</time>
</trkpt>
<trkpt lat="45.9039170" lon="9.8279590">
	<ele>1865.80</ele>
	<time>2023-11-18T10:31:47.000Z</time>
</trkpt>
<trkpt lat="45.9039120" lon="9.8279540">
	<ele>1865.40</ele>
	<time>2023-11-18T10:31:48.000Z</time>
</trkpt>
<trkpt lat="45.9039050" lon="9.8279540">
	<ele>1865.00</ele>
	<time>2023-11-18T10:31:49.000Z</time>
</trkpt>
<trkpt lat="45.9039010" lon="9.8279530">
	<ele>1864.80</ele>
	<time>2023-11-18T10:31:50.000Z</time>
</trkpt>
<trkpt lat="45.9039000" lon="9.8279550">
	<ele>1864.80</ele>
	<time>2023-11-18T10:31:51.000Z</time>
</trkpt>
<trkpt lat="45.9039010" lon="9.8279590">
	<ele>1864.60</ele>
	<time>2023-11-18T10:31:52.000Z</time>
</trkpt>
<trkpt lat="45.9039020" lon="9.8279600">
	<ele>1864.40</ele>
	<time>2023-11-18T10:31:53.000Z</time>
</trkpt>
<trkpt lat="45.9039030" lon="9.8279600">
	<ele>1864.40</ele>
	<time>2023-11-18T10:31:54.000Z</time>
</trkpt>
<trkpt lat="45.9039030" lon="9.8279580">
	<ele>1864.40</ele>
	<time>2023-11-18T10:31:55.000Z</time>
</trkpt>
<trkpt lat="45.9039010" lon="9.8279570">
	<ele>1864.40</ele>
	<time>2023-11-18T10:31:56.000Z</time>
</trkpt>
<trkpt lat="45.9039010" lon="9.8279580">
	<ele>1864.40</ele>
	<time>2023-11-18T10:31:57.000Z</time>
</trkpt>
<trkpt lat="45.9039000" lon="9.8279610">
	<ele>1864.40</ele>
	<time>2023-11-18T10:31:58.000Z</time>
</trkpt>
<trkpt lat="45.9038990" lon="9.8279620">
	<ele>1864.20</ele>
	<time>2023-11-18T10:31:59.000Z</time>
</trkpt>
<trkpt lat="45.9039000" lon="9.8279610">
	<ele>1864.20</ele>
	<time>2023-11-18T10:32:00.000Z</time>
</trkpt>
<trkpt lat="45.9039010" lon="9.8279620">
	<ele>1864.20</ele>
	<time>2023-11-18T10:32:01.000Z</time>
</trkpt>
<trkpt lat="45.9039000" lon="9.8279610">
	<ele>1864.20</ele>
	<time>2023-11-18T10:32:02.000Z</time>
</trkpt>
<trkpt lat="45.9039000" lon="9.8279610">
	<ele>1864.20</ele>
	<time>2023-11-18T10:32:03.000Z</time>
</trkpt>
<trkpt lat="45.9039000" lon="9.8279610">
	<ele>1864.00</ele>
	<time>2023-11-18T10:32:04.000Z</time>
</trkpt>
<trkpt lat="45.9039000" lon="9.8279610">
	<ele>1864.20</ele>
	<time>2023-11-18T10:32:05.000Z</time>
</trkpt>
<trkpt lat="45.9039000" lon="9.8279610">
	<ele>1864.20</ele>
	<time>2023-11-18T10:32:06.000Z</time>
</trkpt>
<trkpt lat="45.9039000" lon="9.8279610">
	<ele>1864.20</ele>
	<time>2023-11-18T10:32:07.000Z</time>
</trkpt>
<trkpt lat="45.9039000" lon="9.8279610">
	<ele>1864.20</ele>
	<time>2023-11-18T10:32:08.000Z</time>
</trkpt>
<trkpt lat="45.9039000" lon="9.8279610">
	<ele>1864.00</ele>
	<time>2023-11-18T10:32:09.000Z</time>
</trkpt>
<trkpt lat="45.9039000" lon="9.8279610">
	<ele>1864.20</ele>
	<time>2023-11-18T10:32:10.000Z</time>
</trkpt>
<trkpt lat="45.9039000" lon="9.8279610">
	<ele>1864.00</ele>
	<time>2023-11-18T10:32:11.000Z</time>
</trkpt>
<trkpt lat="45.9039000" lon="9.8279610">
	<ele>1864.00</ele>
	<time>2023-11-18T10:32:12.000Z</time>
</trkpt>
<trkpt lat="45.9039000" lon="9.8279610">
	<ele>1864.00</ele>
	<time>2023-11-18T10:32:13.000Z</time>
</trkpt>
<trkpt lat="45.9039000" lon="9.8279610">
	<ele>1864.00</ele>
	<time>2023-11-18T10:32:14.000Z</time>
</trkpt>
<trkpt lat="45.9039000" lon="9.8279610">
	<ele>1864.20</ele>
	<time>2023-11-18T10:32:15.000Z</time>
</trkpt>
<trkpt lat="45.9039000" lon="9.8279600">
	<ele>1864.20</ele>
	<time>2023-11-18T10:32:16.000Z</time>
</trkpt>
<trkpt lat="45.9038990" lon="9.8279600">
	<ele>1864.20</ele>
	<time>2023-11-18T10:32:17.000Z</time>
</trkpt>
<trkpt lat="45.9038990" lon="9.8279600">
	<ele>1864.20</ele>
	<time>2023-11-18T10:32:18.000Z</time>
</trkpt>
<trkpt lat="45.9038980" lon="9.8279590">
	<ele>1864.20</ele>
	<time>2023-11-18T10:32:19.000Z</time>
</trkpt>
<trkpt lat="45.9038970" lon="9.8279590">
	<ele>1864.20</ele>
	<time>2023-11-18T10:32:20.000Z</time>
</trkpt>
<trkpt lat="45.9038950" lon="9.8279590">
	<ele>1864.20</ele>
	<time>2023-11-18T10:32:21.000Z</time>
</trkpt>
<trkpt lat="45.9038950" lon="9.8279580">
	<ele>1864.20</ele>
	<time>2023-11-18T10:32:22.000Z</time>
</trkpt>
<trkpt lat="45.9038940" lon="9.8279570">
	<ele>1864.20</ele>
	<time>2023-11-18T10:32:23.000Z</time>
</trkpt>
<trkpt lat="45.9038940" lon="9.8279570">
	<ele>1864.20</ele>
	<time>2023-11-18T10:32:24.000Z</time>
</trkpt>
<trkpt lat="45.9038940" lon="9.8279570">
	<ele>1864.20</ele>
	<time>2023-11-18T10:32:25.000Z</time>
</trkpt>
<trkpt lat="45.9038930" lon="9.8279570">
	<ele>1864.20</ele>
	<time>2023-11-18T10:32:26.000Z</time>
</trkpt>
<trkpt lat="45.9038920" lon="9.8279570">
	<ele>1864.20</ele>
	<time>2023-11-18T10:32:27.000Z</time>
</trkpt>
<trkpt lat="45.9038920" lon="9.8279570">
	<ele>1864.20</ele>
	<time>2023-11-18T10:32:28.000Z</time>
</trkpt>
<trkpt lat="45.9038920" lon="9.8279570">
	<ele>1864.00</ele>
	<time>2023-11-18T10:32:29.000Z</time>
</trkpt>
<trkpt lat="45.9038920" lon="9.8279560">
	<ele>1864.00</ele>
	<time>2023-11-18T10:32:30.000Z</time>
</trkpt>
<trkpt lat="45.9038910" lon="9.8279550">
	<ele>1864.00</ele>
	<time>2023-11-18T10:32:31.000Z</time>
</trkpt>
<trkpt lat="45.9038910" lon="9.8279550">
	<ele>1864.00</ele>
	<time>2023-11-18T10:32:32.000Z</time>
</trkpt>
<trkpt lat="45.9038910" lon="9.8279540">
	<ele>1864.00</ele>
	<time>2023-11-18T10:32:33.000Z</time>
</trkpt>
<trkpt lat="45.9038910" lon="9.8279540">
	<ele>1864.00</ele>
	<time>2023-11-18T10:32:34.000Z</time>
</trkpt>
<trkpt lat="45.9038910" lon="9.8279540">
	<ele>1864.20</ele>
	<time>2023-11-18T10:32:35.000Z</time>
</trkpt>
<trkpt lat="45.9038910" lon="9.8279540">
	<ele>1864.00</ele>
	<time>2023-11-18T10:32:36.000Z</time>
</trkpt>
<trkpt lat="45.9038910" lon="9.8279530">
	<ele>1864.00</ele>
	<time>2023-11-18T10:32:37.000Z</time>
</trkpt>
<trkpt lat="45.9038910" lon="9.8279520">
	<ele>1864.00</ele>
	<time>2023-11-18T10:32:38.000Z</time>
</trkpt>
<trkpt lat="45.9038910" lon="9.8279510">
	<ele>1863.80</ele>
	<time>2023-11-18T10:32:39.000Z</time>
</trkpt>
<trkpt lat="45.9038910" lon="9.8279500">
	<ele>1863.80</ele>
	<time>2023-11-18T10:32:40.000Z</time>
</trkpt>
<trkpt lat="45.9038870" lon="9.8279460">
	<ele>1863.80</ele>
	<time>2023-11-18T10:32:41.000Z</time>
</trkpt>
<trkpt lat="45.9038770" lon="9.8279330">
	<ele>1863.80</ele>
	<time>2023-11-18T10:32:42.000Z</time>
</trkpt>
<trkpt lat="45.9038660" lon="9.8279210">
	<ele>1863.60</ele>
	<time>2023-11-18T10:32:43.000Z</time>
</trkpt>
<trkpt lat="45.9038560" lon="9.8279070">
	<ele>1863.40</ele>
	<time>2023-11-18T10:32:44.000Z</time>
</trkpt>
<trkpt lat="45.9038490" lon="9.8278900">
	<ele>1863.40</ele>
	<time>2023-11-18T10:32:45.000Z</time>
</trkpt>
<trkpt lat="45.9038440" lon="9.8278710">
	<ele>1863.20</ele>
	<time>2023-11-18T10:32:46.000Z</time>
</trkpt>
<trkpt lat="45.9038400" lon="9.8278520">
	<ele>1863.20</ele>
	<time>2023-11-18T10:32:47.000Z</time>
</trkpt>
<trkpt lat="45.9038300" lon="9.8278320">
	<ele>1863.20</ele>
	<time>2023-11-18T10:32:48.000Z</time>
</trkpt>
<trkpt lat="45.9038180" lon="9.8278140">
	<ele>1863.00</ele>
	<time>2023-11-18T10:32:49.000Z</time>
</trkpt>
<trkpt lat="45.9038060" lon="9.8277990">
	<ele>1862.80</ele>
	<time>2023-11-18T10:32:50.000Z</time>
</trkpt>
<trkpt lat="45.9038000" lon="9.8277870">
	<ele>1862.40</ele>
	<time>2023-11-18T10:32:51.000Z</time>
</trkpt>
<trkpt lat="45.9037910" lon="9.8277740">
	<ele>1862.20</ele>
	<time>2023-11-18T10:32:52.000Z</time>
</trkpt>
<trkpt lat="45.9037850" lon="9.8277630">
	<ele>1862.00</ele>
	<time>2023-11-18T10:32:53.000Z</time>
</trkpt>
<trkpt lat="45.9037780" lon="9.8277560">
	<ele>1861.80</ele>
	<time>2023-11-18T10:32:54.000Z</time>
</trkpt>
<trkpt lat="45.9037710" lon="9.8277430">
	<ele>1861.60</ele>
	<time>2023-11-18T10:32:55.000Z</time>
</trkpt>
<trkpt lat="45.9037650" lon="9.8277300">
	<ele>1861.40</ele>
	<time>2023-11-18T10:32:56.000Z</time>
</trkpt>
<trkpt lat="45.9037610" lon="9.8277170">
	<ele>1861.40</ele>
	<time>2023-11-18T10:32:57.000Z</time>
</trkpt>
<trkpt lat="45.9037580" lon="9.8277020">
	<ele>1861.20</ele>
	<time>2023-11-18T10:32:58.000Z</time>
</trkpt>
<trkpt lat="45.9037540" lon="9.8276900">
	<ele>1861.00</ele>
	<time>2023-11-18T10:32:59.000Z</time>
</trkpt>
<trkpt lat="45.9037490" lon="9.8276750">
	<ele>1860.80</ele>
	<time>2023-11-18T10:33:00.000Z</time>
</trkpt>
<trkpt lat="45.9037450" lon="9.8276590">
	<ele>1860.80</ele>
	<time>2023-11-18T10:33:01.000Z</time>
</trkpt>
<trkpt lat="45.9037460" lon="9.8276450">
	<ele>1860.60</ele>
	<time>2023-11-18T10:33:02.000Z</time>
</trkpt>
<trkpt lat="45.9037480" lon="9.8276330">
	<ele>1860.60</ele>
	<time>2023-11-18T10:33:03.000Z</time>
</trkpt>
<trkpt lat="45.9037500" lon="9.8276220">
	<ele>1860.40</ele>
	<time>2023-11-18T10:33:04.000Z</time>
</trkpt>
<trkpt lat="45.9037470" lon="9.8276090">
	<ele>1860.20</ele>
	<time>2023-11-18T10:33:05.000Z</time>
</trkpt>
<trkpt lat="45.9037450" lon="9.8275950">
	<ele>1860.20</ele>
	<time>2023-11-18T10:33:06.000Z</time>
</trkpt>
<trkpt lat="45.9037410" lon="9.8275810">
	<ele>1860.00</ele>
	<time>2023-11-18T10:33:07.000Z</time>
</trkpt>
<trkpt lat="45.9037380" lon="9.8275690">
	<ele>1859.80</ele>
	<time>2023-11-18T10:33:08.000Z</time>
</trkpt>
<trkpt lat="45.9037360" lon="9.8275590">
	<ele>1859.80</ele>
	<time>2023-11-18T10:33:09.000Z</time>
</trkpt>
<trkpt lat="45.9037380" lon="9.8275460">
	<ele>1859.60</ele>
	<time>2023-11-18T10:33:10.000Z</time>
</trkpt>
<trkpt lat="45.9037390" lon="9.8275290">
	<ele>1859.40</ele>
	<time>2023-11-18T10:33:11.000Z</time>
</trkpt>
<trkpt lat="45.9037400" lon="9.8275150">
	<ele>1859.40</ele>
	<time>2023-11-18T10:33:12.000Z</time>
</trkpt>
<trkpt lat="45.9037390" lon="9.8275030">
	<ele>1859.20</ele>
	<time>2023-11-18T10:33:13.000Z</time>
</trkpt>
<trkpt lat="45.9037380" lon="9.8274940">
	<ele>1859.20</ele>
	<time>2023-11-18T10:33:14.000Z</time>
</trkpt>
<trkpt lat="45.9037340" lon="9.8274850">
	<ele>1859.20</ele>
	<time>2023-11-18T10:33:15.000Z</time>
</trkpt>
<trkpt lat="45.9037330" lon="9.8274760">
	<ele>1859.20</ele>
	<time>2023-11-18T10:33:16.000Z</time>
</trkpt>
<trkpt lat="45.9037330" lon="9.8274650">
	<ele>1859.20</ele>
	<time>2023-11-18T10:33:17.000Z</time>
</trkpt>
<trkpt lat="45.9037320" lon="9.8274580">
	<ele>1859.20</ele>
	<time>2023-11-18T10:33:18.000Z</time>
</trkpt>
<trkpt lat="45.9037310" lon="9.8274510">
	<ele>1859.20</ele>
	<time>2023-11-18T10:33:19.000Z</time>
</trkpt>
<trkpt lat="45.9037290" lon="9.8274450">
	<ele>1859.00</ele>
	<time>2023-11-18T10:33:20.000Z</time>
</trkpt>
<trkpt lat="45.9037250" lon="9.8274360">
	<ele>1859.00</ele>
	<time>2023-11-18T10:33:21.000Z</time>
</trkpt>
<trkpt lat="45.9037220" lon="9.8274280">
	<ele>1858.60</ele>
	<time>2023-11-18T10:33:22.000Z</time>
</trkpt>
<trkpt lat="45.9037190" lon="9.8274230">
	<ele>1858.40</ele>
	<time>2023-11-18T10:33:23.000Z</time>
</trkpt>
<trkpt lat="45.9037150" lon="9.8274210">
	<ele>1858.20</ele>
	<time>2023-11-18T10:33:24.000Z</time>
</trkpt>
<trkpt lat="45.9037120" lon="9.8274220">
	<ele>1857.80</ele>
	<time>2023-11-18T10:33:25.000Z</time>
</trkpt>
<trkpt lat="45.9037090" lon="9.8274240">
	<ele>1857.60</ele>
	<time>2023-11-18T10:33:26.000Z</time>
</trkpt>
<trkpt lat="45.9037070" lon="9.8274200">
	<ele>1857.60</ele>
	<time>2023-11-18T10:33:27.000Z</time>
</trkpt>
<trkpt lat="45.9037030" lon="9.8274120">
	<ele>1857.40</ele>
	<time>2023-11-18T10:33:28.000Z</time>
</trkpt>
<trkpt lat="45.9036990" lon="9.8274040">
	<ele>1857.40</ele>
	<time>2023-11-18T10:33:29.000Z</time>
</trkpt>
<trkpt lat="45.9036980" lon="9.8273960">
	<ele>1857.20</ele>
	<time>2023-11-18T10:33:30.000Z</time>
</trkpt>
<trkpt lat="45.9036980" lon="9.8273870">
	<ele>1857.00</ele>
	<time>2023-11-18T10:33:31.000Z</time>
</trkpt>
<trkpt lat="45.9036980" lon="9.8273780">
	<ele>1856.80</ele>
	<time>2023-11-18T10:33:32.000Z</time>
</trkpt>
<trkpt lat="45.9036990" lon="9.8273690">
	<ele>1856.60</ele>
	<time>2023-11-18T10:33:33.000Z</time>
</trkpt>
<trkpt lat="45.9037000" lon="9.8273620">
	<ele>1856.40</ele>
	<time>2023-11-18T10:33:34.000Z</time>
</trkpt>
<trkpt lat="45.9037020" lon="9.8273550">
	<ele>1856.40</ele>
	<time>2023-11-18T10:33:35.000Z</time>
</trkpt>
<trkpt lat="45.9037030" lon="9.8273470">
	<ele>1856.20</ele>
	<time>2023-11-18T10:33:36.000Z</time>
</trkpt>
<trkpt lat="45.9037020" lon="9.8273410">
	<ele>1855.80</ele>
	<time>2023-11-18T10:33:37.000Z</time>
</trkpt>
<trkpt lat="45.9036980" lon="9.8273340">
	<ele>1855.80</ele>
	<time>2023-11-18T10:33:38.000Z</time>
</trkpt>
<trkpt lat="45.9036950" lon="9.8273300">
	<ele>1855.60</ele>
	<time>2023-11-18T10:33:39.000Z</time>
</trkpt>
<trkpt lat="45.9036920" lon="9.8273270">
	<ele>1855.40</ele>
	<time>2023-11-18T10:33:40.000Z</time>
</trkpt>
<trkpt lat="45.9036860" lon="9.8273230">
	<ele>1855.20</ele>
	<time>2023-11-18T10:33:41.000Z</time>
</trkpt>
<trkpt lat="45.9036810" lon="9.8273170">
	<ele>1855.00</ele>
	<time>2023-11-18T10:33:42.000Z</time>
</trkpt>
<trkpt lat="45.9036810" lon="9.8273070">
	<ele>1854.60</ele>
	<time>2023-11-18T10:33:43.000Z</time>
</trkpt>
<trkpt lat="45.9036830" lon="9.8273000">
	<ele>1854.20</ele>
	<time>2023-11-18T10:33:44.000Z</time>
</trkpt>
<trkpt lat="45.9036810" lon="9.8272900">
	<ele>1853.80</ele>
	<time>2023-11-18T10:33:45.000Z</time>
</trkpt>
<trkpt lat="45.9036780" lon="9.8272820">
	<ele>1853.60</ele>
	<time>2023-11-18T10:33:46.000Z</time>
</trkpt>
<trkpt lat="45.9036720" lon="9.8272740">
	<ele>1853.20</ele>
	<time>2023-11-18T10:33:47.000Z</time>
</trkpt>
<trkpt lat="45.9036640" lon="9.8272700">
	<ele>1853.20</ele>
	<time>2023-11-18T10:33:48.000Z</time>
</trkpt>
<trkpt lat="45.9036560" lon="9.8272630">
	<ele>1853.00</ele>
	<time>2023-11-18T10:33:49.000Z</time>
</trkpt>
<trkpt lat="45.9036490" lon="9.8272560">
	<ele>1852.60</ele>
	<time>2023-11-18T10:33:50.000Z</time>
</trkpt>
<trkpt lat="45.9036440" lon="9.8272490">
	<ele>1852.40</ele>
	<time>2023-11-18T10:33:51.000Z</time>
</trkpt>
<trkpt lat="45.9036410" lon="9.8272410">
	<ele>1852.00</ele>
	<time>2023-11-18T10:33:52.000Z</time>
</trkpt>
<trkpt lat="45.9036400" lon="9.8272320">
	<ele>1852.00</ele>
	<time>2023-11-18T10:33:53.000Z</time>
</trkpt>
<trkpt lat="45.9036370" lon="9.8272220">
	<ele>1851.60</ele>
	<time>2023-11-18T10:33:54.000Z</time>
</trkpt>
<trkpt lat="45.9036370" lon="9.8272130">
	<ele>1851.40</ele>
	<time>2023-11-18T10:33:55.000Z</time>
</trkpt>
<trkpt lat="45.9036350" lon="9.8272030">
	<ele>1851.40</ele>
	<time>2023-11-18T10:33:56.000Z</time>
</trkpt>
<trkpt lat="45.9036380" lon="9.8271940">
	<ele>1851.20</ele>
	<time>2023-11-18T10:33:57.000Z</time>
</trkpt>
<trkpt lat="45.9036320" lon="9.8271800">
	<ele>1851.20</ele>
	<time>2023-11-18T10:33:58.000Z</time>
</trkpt>
<trkpt lat="45.9036290" lon="9.8271700">
	<ele>1851.00</ele>
	<time>2023-11-18T10:33:59.000Z</time>
</trkpt>
<trkpt lat="45.9036310" lon="9.8271620">
	<ele>1850.80</ele>
	<time>2023-11-18T10:34:00.000Z</time>
</trkpt>
<trkpt lat="45.9036320" lon="9.8271560">
	<ele>1850.60</ele>
	<time>2023-11-18T10:34:01.000Z</time>
</trkpt>
<trkpt lat="45.9036320" lon="9.8271490">
	<ele>1850.60</ele>
	<time>2023-11-18T10:34:02.000Z</time>
</trkpt>
<trkpt lat="45.9036260" lon="9.8271390">
	<ele>1850.40</ele>
	<time>2023-11-18T10:34:03.000Z</time>
</trkpt>
<trkpt lat="45.9036190" lon="9.8271310">
	<ele>1850.20</ele>
	<time>2023-11-18T10:34:04.000Z</time>
</trkpt>
<trkpt lat="45.9036130" lon="9.8271280">
	<ele>1850.00</ele>
	<time>2023-11-18T10:34:05.000Z</time>
</trkpt>
<trkpt lat="45.9036040" lon="9.8271240">
	<ele>1850.00</ele>
	<time>2023-11-18T10:34:06.000Z</time>
</trkpt>
<trkpt lat="45.9035960" lon="9.8271180">
	<ele>1849.80</ele>
	<time>2023-11-18T10:34:07.000Z</time>
</trkpt>
<trkpt lat="45.9035890" lon="9.8271110">
	<ele>1849.60</ele>
	<time>2023-11-18T10:34:08.000Z</time>
</trkpt>
<trkpt lat="45.9035800" lon="9.8271040">
	<ele>1849.40</ele>
	<time>2023-11-18T10:34:09.000Z</time>
</trkpt>
<trkpt lat="45.9035720" lon="9.8270950">
	<ele>1849.20</ele>
	<time>2023-11-18T10:34:10.000Z</time>
</trkpt>
<trkpt lat="45.9035640" lon="9.8270880">
	<ele>1848.80</ele>
	<time>2023-11-18T10:34:11.000Z</time>
</trkpt>
<trkpt lat="45.9035550" lon="9.8270820">
	<ele>1848.60</ele>
	<time>2023-11-18T10:34:12.000Z</time>
</trkpt>
<trkpt lat="45.9035460" lon="9.8270770">
	<ele>1848.20</ele>
	<time>2023-11-18T10:34:13.000Z</time>
</trkpt>
<trkpt lat="45.9035390" lon="9.8270730">
	<ele>1847.80</ele>
	<time>2023-11-18T10:34:14.000Z</time>
</trkpt>
<trkpt lat="45.9035330" lon="9.8270710">
	<ele>1847.60</ele>
	<time>2023-11-18T10:34:15.000Z</time>
</trkpt>
<trkpt lat="45.9035270" lon="9.8270680">
	<ele>1847.20</ele>
	<time>2023-11-18T10:34:16.000Z</time>
</trkpt>
<trkpt lat="45.9035240" lon="9.8270650">
	<ele>1847.00</ele>
	<time>2023-11-18T10:34:17.000Z</time>
</trkpt>
<trkpt lat="45.9035200" lon="9.8270630">
	<ele>1846.80</ele>
	<time>2023-11-18T10:34:18.000Z</time>
</trkpt>
<trkpt lat="45.9035130" lon="9.8270610">
	<ele>1846.60</ele>
	<time>2023-11-18T10:34:19.000Z</time>
</trkpt>
<trkpt lat="45.9035030" lon="9.8270580">
	<ele>1846.40</ele>
	<time>2023-11-18T10:34:20.000Z</time>
</trkpt>
<trkpt lat="45.9034950" lon="9.8270560">
	<ele>1846.40</ele>
	<time>2023-11-18T10:34:21.000Z</time>
</trkpt>
<trkpt lat="45.9034880" lon="9.8270520">
	<ele>1846.00</ele>
	<time>2023-11-18T10:34:22.000Z</time>
</trkpt>
<trkpt lat="45.9034840" lon="9.8270500">
	<ele>1845.80</ele>
	<time>2023-11-18T10:34:23.000Z</time>
</trkpt>
<trkpt lat="45.9034780" lon="9.8270490">
	<ele>1845.60</ele>
	<time>2023-11-18T10:34:24.000Z</time>
</trkpt>
<trkpt lat="45.9034730" lon="9.8270510">
	<ele>1845.40</ele>
	<time>2023-11-18T10:34:25.000Z</time>
</trkpt>
<trkpt lat="45.9034660" lon="9.8270520">
	<ele>1845.40</ele>
	<time>2023-11-18T10:34:26.000Z</time>
</trkpt>
<trkpt lat="45.9034610" lon="9.8270520">
	<ele>1845.20</ele>
	<time>2023-11-18T10:34:27.000Z</time>
</trkpt>
<trkpt lat="45.9034540" lon="9.8270520">
	<ele>1845.00</ele>
	<time>2023-11-18T10:34:28.000Z</time>
</trkpt>
<trkpt lat="45.9034470" lon="9.8270540">
	<ele>1844.80</ele>
	<time>2023-11-18T10:34:29.000Z</time>
</trkpt>
<trkpt lat="45.9034430" lon="9.8270540">
	<ele>1844.80</ele>
	<time>2023-11-18T10:34:30.000Z</time>
</trkpt>
<trkpt lat="45.9034390" lon="9.8270500">
	<ele>1844.40</ele>
	<time>2023-11-18T10:34:31.000Z</time>
</trkpt>
<trkpt lat="45.9034360" lon="9.8270410">
	<ele>1844.20</ele>
	<time>2023-11-18T10:34:32.000Z</time>
</trkpt>
<trkpt lat="45.9034310" lon="9.8270360">
	<ele>1843.80</ele>
	<time>2023-11-18T10:34:33.000Z</time>
</trkpt>
<trkpt lat="45.9034280" lon="9.8270310">
	<ele>1843.40</ele>
	<time>2023-11-18T10:34:34.000Z</time>
</trkpt>
<trkpt lat="45.9034250" lon="9.8270270">
	<ele>1843.00</ele>
	<time>2023-11-18T10:34:35.000Z</time>
</trkpt>
<trkpt lat="45.9034170" lon="9.8270200">
	<ele>1842.60</ele>
	<time>2023-11-18T10:34:36.000Z</time>
</trkpt>
<trkpt lat="45.9034070" lon="9.8270110">
	<ele>1842.20</ele>
	<time>2023-11-18T10:34:37.000Z</time>
</trkpt>
<trkpt lat="45.9033960" lon="9.8270040">
	<ele>1842.00</ele>
	<time>2023-11-18T10:34:38.000Z</time>
</trkpt>
<trkpt lat="45.9033860" lon="9.8269990">
	<ele>1841.60</ele>
	<time>2023-11-18T10:34:39.000Z</time>
</trkpt>
<trkpt lat="45.9033770" lon="9.8269910">
	<ele>1841.40</ele>
	<time>2023-11-18T10:34:40.000Z</time>
</trkpt>
<trkpt lat="45.9033710" lon="9.8269830">
	<ele>1841.00</ele>
	<time>2023-11-18T10:34:41.000Z</time>
</trkpt>
<trkpt lat="45.9033630" lon="9.8269810">
	<ele>1840.60</ele>
	<time>2023-11-18T10:34:42.000Z</time>
</trkpt>
<trkpt lat="45.9033570" lon="9.8269840">
	<ele>1840.40</ele>
	<time>2023-11-18T10:34:43.000Z</time>
</trkpt>
<trkpt lat="45.9033450" lon="9.8269840">
	<ele>1840.00</ele>
	<time>2023-11-18T10:34:44.000Z</time>
</trkpt>
<trkpt lat="45.9033370" lon="9.8269800">
	<ele>1839.80</ele>
	<time>2023-11-18T10:34:45.000Z</time>
</trkpt>
<trkpt lat="45.9033270" lon="9.8269790">
	<ele>1839.60</ele>
	<time>2023-11-18T10:34:46.000Z</time>
</trkpt>
<trkpt lat="45.9033170" lon="9.8269820">
	<ele>1839.60</ele>
	<time>2023-11-18T10:34:47.000Z</time>
</trkpt>
<trkpt lat="45.9033050" lon="9.8269850">
	<ele>1839.40</ele>
	<time>2023-11-18T10:34:48.000Z</time>
</trkpt>
<trkpt lat="45.9032950" lon="9.8269890">
	<ele>1839.40</ele>
	<time>2023-11-18T10:34:49.000Z</time>
</trkpt>
<trkpt lat="45.9032850" lon="9.8269920">
	<ele>1839.40</ele>
	<time>2023-11-18T10:34:50.000Z</time>
</trkpt>
<trkpt lat="45.9032740" lon="9.8269920">
	<ele>1839.20</ele>
	<time>2023-11-18T10:34:51.000Z</time>
</trkpt>
<trkpt lat="45.9032680" lon="9.8269910">
	<ele>1839.20</ele>
	<time>2023-11-18T10:34:52.000Z</time>
</trkpt>
<trkpt lat="45.9032610" lon="9.8269900">
	<ele>1839.00</ele>
	<time>2023-11-18T10:34:53.000Z</time>
</trkpt>
<trkpt lat="45.9032580" lon="9.8269920">
	<ele>1839.00</ele>
	<time>2023-11-18T10:34:54.000Z</time>
</trkpt>
<trkpt lat="45.9032520" lon="9.8269900">
	<ele>1839.00</ele>
	<time>2023-11-18T10:34:55.000Z</time>
</trkpt>
<trkpt lat="45.9032460" lon="9.8269860">
	<ele>1838.80</ele>
	<time>2023-11-18T10:34:56.000Z</time>
</trkpt>
<trkpt lat="45.9032420" lon="9.8269860">
	<ele>1838.80</ele>
	<time>2023-11-18T10:34:57.000Z</time>
</trkpt>
<trkpt lat="45.9032390" lon="9.8269860">
	<ele>1838.60</ele>
	<time>2023-11-18T10:34:58.000Z</time>
</trkpt>
<trkpt lat="45.9032310" lon="9.8269840">
	<ele>1838.40</ele>
	<time>2023-11-18T10:34:59.000Z</time>
</trkpt>
<trkpt lat="45.9032270" lon="9.8269830">
	<ele>1838.40</ele>
	<time>2023-11-18T10:35:00.000Z</time>
</trkpt>
<trkpt lat="45.9032250" lon="9.8269870">
	<ele>1838.20</ele>
	<time>2023-11-18T10:35:01.000Z</time>
</trkpt>
<trkpt lat="45.9032220" lon="9.8269860">
	<ele>1838.20</ele>
	<time>2023-11-18T10:35:02.000Z</time>
</trkpt>
<trkpt lat="45.9032190" lon="9.8269830">
	<ele>1838.20</ele>
	<time>2023-11-18T10:35:03.000Z</time>
</trkpt>
<trkpt lat="45.9032170" lon="9.8269780">
	<ele>1837.80</ele>
	<time>2023-11-18T10:35:04.000Z</time>
</trkpt>
<trkpt lat="45.9032090" lon="9.8269700">
	<ele>1837.60</ele>
	<time>2023-11-18T10:35:05.000Z</time>
</trkpt>
<trkpt lat="45.9032060" lon="9.8269670">
	<ele>1837.40</ele>
	<time>2023-11-18T10:35:06.000Z</time>
</trkpt>
<trkpt lat="45.9032000" lon="9.8269610">
	<ele>1837.20</ele>
	<time>2023-11-18T10:35:07.000Z</time>
</trkpt>
<trkpt lat="45.9031960" lon="9.8269500">
	<ele>1837.00</ele>
	<time>2023-11-18T10:35:08.000Z</time>
</trkpt>
<trkpt lat="45.9031940" lon="9.8269380">
	<ele>1836.80</ele>
	<time>2023-11-18T10:35:09.000Z</time>
</trkpt>
<trkpt lat="45.9031890" lon="9.8269290">
	<ele>1836.80</ele>
	<time>2023-11-18T10:35:10.000Z</time>
</trkpt>
<trkpt lat="45.9031860" lon="9.8269270">
	<ele>1836.80</ele>
	<time>2023-11-18T10:35:11.000Z</time>
</trkpt>
<trkpt lat="45.9031820" lon="9.8269200">
	<ele>1836.60</ele>
	<time>2023-11-18T10:35:12.000Z</time>
</trkpt>
<trkpt lat="45.9031750" lon="9.8269160">
	<ele>1836.60</ele>
	<time>2023-11-18T10:35:13.000Z</time>
</trkpt>
<trkpt lat="45.9031660" lon="9.8269090">
	<ele>1836.80</ele>
	<time>2023-11-18T10:35:14.000Z</time>
</trkpt>
<trkpt lat="45.9031610" lon="9.8269070">
	<ele>1837.00</ele>
	<time>2023-11-18T10:35:15.000Z</time>
</trkpt>
<trkpt lat="45.9031520" lon="9.8269020">
	<ele>1837.00</ele>
	<time>2023-11-18T10:35:16.000Z</time>
</trkpt>
<trkpt lat="45.9031510" lon="9.8268970">
	<ele>1837.00</ele>
	<time>2023-11-18T10:35:17.000Z</time>
</trkpt>
<trkpt lat="45.9031410" lon="9.8268910">
	<ele>1837.20</ele>
	<time>2023-11-18T10:35:18.000Z</time>
</trkpt>
<trkpt lat="45.9031290" lon="9.8268830">
	<ele>1837.20</ele>
	<time>2023-11-18T10:35:19.000Z</time>
</trkpt>
<trkpt lat="45.9031250" lon="9.8268840">
	<ele>1837.20</ele>
	<time>2023-11-18T10:35:20.000Z</time>
</trkpt>
<trkpt lat="45.9031170" lon="9.8268790">
	<ele>1837.40</ele>
	<time>2023-11-18T10:35:21.000Z</time>
</trkpt>
<trkpt lat="45.9031130" lon="9.8268800">
	<ele>1837.40</ele>
	<time>2023-11-18T10:35:22.000Z</time>
</trkpt>
<trkpt lat="45.9031100" lon="9.8268790">
	<ele>1837.40</ele>
	<time>2023-11-18T10:35:23.000Z</time>
</trkpt>
<trkpt lat="45.9031050" lon="9.8268760">
	<ele>1837.60</ele>
	<time>2023-11-18T10:35:24.000Z</time>
</trkpt>
<trkpt lat="45.9031000" lon="9.8268730">
	<ele>1837.60</ele>
	<time>2023-11-18T10:35:25.000Z</time>
</trkpt>
<trkpt lat="45.9030970" lon="9.8268700">
	<ele>1837.80</ele>
	<time>2023-11-18T10:35:26.000Z</time>
</trkpt>
<trkpt lat="45.9030940" lon="9.8268670">
	<ele>1837.80</ele>
	<time>2023-11-18T10:35:27.000Z</time>
</trkpt>
<trkpt lat="45.9030840" lon="9.8268630">
	<ele>1838.00</ele>
	<time>2023-11-18T10:35:28.000Z</time>
</trkpt>
<trkpt lat="45.9030820" lon="9.8268610">
	<ele>1838.20</ele>
	<time>2023-11-18T10:35:29.000Z</time>
</trkpt>
<trkpt lat="45.9030810" lon="9.8268610">
	<ele>1838.20</ele>
	<time>2023-11-18T10:35:30.000Z</time>
</trkpt>
<trkpt lat="45.9030810" lon="9.8268610">
	<ele>1838.20</ele>
	<time>2023-11-18T10:35:31.000Z</time>
</trkpt>
<trkpt lat="45.9030800" lon="9.8268630">
	<ele>1838.20</ele>
	<time>2023-11-18T10:35:32.000Z</time>
</trkpt>
<trkpt lat="45.9030780" lon="9.8268670">
	<ele>1838.40</ele>
	<time>2023-11-18T10:35:33.000Z</time>
</trkpt>
<trkpt lat="45.9030760" lon="9.8268720">
	<ele>1838.40</ele>
	<time>2023-11-18T10:35:34.000Z</time>
</trkpt>
<trkpt lat="45.9030700" lon="9.8268800">
	<ele>1838.40</ele>
	<time>2023-11-18T10:35:35.000Z</time>
</trkpt>
<trkpt lat="45.9030660" lon="9.8268880">
	<ele>1838.40</ele>
	<time>2023-11-18T10:35:36.000Z</time>
</trkpt>
<trkpt lat="45.9030650" lon="9.8269020">
	<ele>1838.20</ele>
	<time>2023-11-18T10:35:37.000Z</time>
</trkpt>
<trkpt lat="45.9030620" lon="9.8269180">
	<ele>1838.00</ele>
	<time>2023-11-18T10:35:38.000Z</time>
</trkpt>
<trkpt lat="45.9030580" lon="9.8269360">
	<ele>1837.60</ele>
	<time>2023-11-18T10:35:39.000Z</time>
</trkpt>
<trkpt lat="45.9030520" lon="9.8269510">
	<ele>1837.40</ele>
	<time>2023-11-18T10:35:40.000Z</time>
</trkpt>
<trkpt lat="45.9030470" lon="9.8269620">
	<ele>1837.20</ele>
	<time>2023-11-18T10:35:41.000Z</time>
</trkpt>
<trkpt lat="45.9030440" lon="9.8269740">
	<ele>1837.20</ele>
	<time>2023-11-18T10:35:42.000Z</time>
</trkpt>
<trkpt lat="45.9030400" lon="9.8269880">
	<ele>1837.20</ele>
	<time>2023-11-18T10:35:43.000Z</time>
</trkpt>
<trkpt lat="45.9030360" lon="9.8270020">
	<ele>1837.00</ele>
	<time>2023-11-18T10:35:44.000Z</time>
</trkpt>
<trkpt lat="45.9030320" lon="9.8270160">
	<ele>1837.00</ele>
	<time>2023-11-18T10:35:45.000Z</time>
</trkpt>
<trkpt lat="45.9030280" lon="9.8270300">
	<ele>1836.80</ele>
	<time>2023-11-18T10:35:46.000Z</time>
</trkpt>
<trkpt lat="45.9030270" lon="9.8270440">
	<ele>1836.80</ele>
	<time>2023-11-18T10:35:47.000Z</time>
</trkpt>
<trkpt lat="45.9030240" lon="9.8270590">
	<ele>1836.60</ele>
	<time>2023-11-18T10:35:48.000Z</time>
</trkpt>
<trkpt lat="45.9030220" lon="9.8270740">
	<ele>1836.60</ele>
	<time>2023-11-18T10:35:49.000Z</time>
</trkpt>
<trkpt lat="45.9030200" lon="9.8270910">
	<ele>1836.60</ele>
	<time>2023-11-18T10:35:50.000Z</time>
</trkpt>
<trkpt lat="45.9030180" lon="9.8271090">
	<ele>1836.40</ele>
	<time>2023-11-18T10:35:51.000Z</time>
</trkpt>
<trkpt lat="45.9030170" lon="9.8271240">
	<ele>1836.20</ele>
	<time>2023-11-18T10:35:52.000Z</time>
</trkpt>
<trkpt lat="45.9030170" lon="9.8271380">
	<ele>1836.00</ele>
	<time>2023-11-18T10:35:53.000Z</time>
</trkpt>
<trkpt lat="45.9030160" lon="9.8271520">
	<ele>1835.80</ele>
	<time>2023-11-18T10:35:54.000Z</time>
</trkpt>
<trkpt lat="45.9030140" lon="9.8271680">
	<ele>1835.80</ele>
	<time>2023-11-18T10:35:55.000Z</time>
</trkpt>
<trkpt lat="45.9030100" lon="9.8271830">
	<ele>1835.60</ele>
	<time>2023-11-18T10:35:56.000Z</time>
</trkpt>
<trkpt lat="45.9030100" lon="9.8272000">
	<ele>1835.40</ele>
	<time>2023-11-18T10:35:57.000Z</time>
</trkpt>
<trkpt lat="45.9030090" lon="9.8272160">
	<ele>1835.40</ele>
	<time>2023-11-18T10:35:58.000Z</time>
</trkpt>
<trkpt lat="45.9030020" lon="9.8272320">
	<ele>1835.40</ele>
	<time>2023-11-18T10:35:59.000Z</time>
</trkpt>
<trkpt lat="45.9029940" lon="9.8272440">
	<ele>1835.40</ele>
	<time>2023-11-18T10:36:00.000Z</time>
</trkpt>
<trkpt lat="45.9029880" lon="9.8272520">
	<ele>1835.40</ele>
	<time>2023-11-18T10:36:01.000Z</time>
</trkpt>
<trkpt lat="45.9029780" lon="9.8272570">
	<ele>1835.40</ele>
	<time>2023-11-18T10:36:02.000Z</time>
</trkpt>
<trkpt lat="45.9029680" lon="9.8272560">
	<ele>1835.40</ele>
	<time>2023-11-18T10:36:03.000Z</time>
</trkpt>
<trkpt lat="45.9029580" lon="9.8272520">
	<ele>1835.40</ele>
	<time>2023-11-18T10:36:04.000Z</time>
</trkpt>
<trkpt lat="45.9029460" lon="9.8272510">
	<ele>1835.40</ele>
	<time>2023-11-18T10:36:05.000Z</time>
</trkpt>
<trkpt lat="45.9029350" lon="9.8272550">
	<ele>1835.60</ele>
	<time>2023-11-18T10:36:06.000Z</time>
</trkpt>
<trkpt lat="45.9029240" lon="9.8272610">
	<ele>1835.60</ele>
	<time>2023-11-18T10:36:07.000Z</time>
</trkpt>
<trkpt lat="45.9029090" lon="9.8272640">
	<ele>1835.60</ele>
	<time>2023-11-18T10:36:08.000Z</time>
</trkpt>
<trkpt lat="45.9029010" lon="9.8272710">
	<ele>1835.60</ele>
	<time>2023-11-18T10:36:09.000Z</time>
</trkpt>
<trkpt lat="45.9028900" lon="9.8272790">
	<ele>1835.60</ele>
	<time>2023-11-18T10:36:10.000Z</time>
</trkpt>
<trkpt lat="45.9028810" lon="9.8272900">
	<ele>1835.40</ele>
	<time>2023-11-18T10:36:11.000Z</time>
</trkpt>
<trkpt lat="45.9028720" lon="9.8272950">
	<ele>1835.00</ele>
	<time>2023-11-18T10:36:12.000Z</time>
</trkpt>
<trkpt lat="45.9028640" lon="9.8273030">
	<ele>1834.80</ele>
	<time>2023-11-18T10:36:13.000Z</time>
</trkpt>
<trkpt lat="45.9028550" lon="9.8273130">
	<ele>1834.40</ele>
	<time>2023-11-18T10:36:14.000Z</time>
</trkpt>
<trkpt lat="45.9028460" lon="9.8273220">
	<ele>1834.20</ele>
	<time>2023-11-18T10:36:15.000Z</time>
</trkpt>
<trkpt lat="45.9028370" lon="9.8273280">
	<ele>1834.00</ele>
	<time>2023-11-18T10:36:16.000Z</time>
</trkpt>
<trkpt lat="45.9028330" lon="9.8273340">
	<ele>1833.80</ele>
	<time>2023-11-18T10:36:17.000Z</time>
</trkpt>
<trkpt lat="45.9028300" lon="9.8273360">
	<ele>1833.60</ele>
	<time>2023-11-18T10:36:18.000Z</time>
</trkpt>
<trkpt lat="45.9028290" lon="9.8273370">
	<ele>1833.60</ele>
	<time>2023-11-18T10:36:19.000Z</time>
</trkpt>
<trkpt lat="45.9028300" lon="9.8273370">
	<ele>1833.60</ele>
	<time>2023-11-18T10:36:20.000Z</time>
</trkpt>
<trkpt lat="45.9028310" lon="9.8273360">
	<ele>1833.60</ele>
	<time>2023-11-18T10:36:21.000Z</time>
</trkpt>
<trkpt lat="45.9028310" lon="9.8273350">
	<ele>1833.80</ele>
	<time>2023-11-18T10:36:22.000Z</time>
</trkpt>
<trkpt lat="45.9028320" lon="9.8273340">
	<ele>1834.00</ele>
	<time>2023-11-18T10:36:23.000Z</time>
</trkpt>
<trkpt lat="45.9028280" lon="9.8273350">
	<ele>1834.20</ele>
	<time>2023-11-18T10:36:24.000Z</time>
</trkpt>
<trkpt lat="45.9028260" lon="9.8273390">
	<ele>1834.20</ele>
	<time>2023-11-18T10:36:25.000Z</time>
</trkpt>
<trkpt lat="45.9028300" lon="9.8273460">
	<ele>1834.20</ele>
	<time>2023-11-18T10:36:26.000Z</time>
</trkpt>
<trkpt lat="45.9028330" lon="9.8273550">
	<ele>1834.40</ele>
	<time>2023-11-18T10:36:27.000Z</time>
</trkpt>
<trkpt lat="45.9028310" lon="9.8273630">
	<ele>1834.00</ele>
	<time>2023-11-18T10:36:28.000Z</time>
</trkpt>
<trkpt lat="45.9028250" lon="9.8273750">
	<ele>1834.00</ele>
	<time>2023-11-18T10:36:29.000Z</time>
</trkpt>
<trkpt lat="45.9028210" lon="9.8273850">
	<ele>1833.60</ele>
	<time>2023-11-18T10:36:30.000Z</time>
</trkpt>
<trkpt lat="45.9028140" lon="9.8273950">
	<ele>1833.40</ele>
	<time>2023-11-18T10:36:31.000Z</time>
</trkpt>
<trkpt lat="45.9028100" lon="9.8274030">
	<ele>1833.20</ele>
	<time>2023-11-18T10:36:32.000Z</time>
</trkpt>
<trkpt lat="45.9028030" lon="9.8274120">
	<ele>1833.00</ele>
	<time>2023-11-18T10:36:33.000Z</time>
</trkpt>
<trkpt lat="45.9027980" lon="9.8274220">
	<ele>1832.80</ele>
	<time>2023-11-18T10:36:34.000Z</time>
</trkpt>
<trkpt lat="45.9027910" lon="9.8274300">
	<ele>1832.80</ele>
	<time>2023-11-18T10:36:35.000Z</time>
</trkpt>
<trkpt lat="45.9027870" lon="9.8274370">
	<ele>1832.60</ele>
	<time>2023-11-18T10:36:36.000Z</time>
</trkpt>
<trkpt lat="45.9027810" lon="9.8274470">
	<ele>1832.60</ele>
	<time>2023-11-18T10:36:37.000Z</time>
</trkpt>
<trkpt lat="45.9027780" lon="9.8274560">
	<ele>1832.40</ele>
	<time>2023-11-18T10:36:38.000Z</time>
</trkpt>
<trkpt lat="45.9027730" lon="9.8274660">
	<ele>1832.20</ele>
	<time>2023-11-18T10:36:39.000Z</time>
</trkpt>
<trkpt lat="45.9027690" lon="9.8274800">
	<ele>1832.20</ele>
	<time>2023-11-18T10:36:40.000Z</time>
</trkpt>
<trkpt lat="45.9027660" lon="9.8274910">
	<ele>1832.20</ele>
	<time>2023-11-18T10:36:41.000Z</time>
</trkpt>
<trkpt lat="45.9027620" lon="9.8275020">
	<ele>1832.20</ele>
	<time>2023-11-18T10:36:42.000Z</time>
</trkpt>
<trkpt lat="45.9027570" lon="9.8275110">
	<ele>1832.20</ele>
	<time>2023-11-18T10:36:43.000Z</time>
</trkpt>
<trkpt lat="45.9027550" lon="9.8275190">
	<ele>1832.00</ele>
	<time>2023-11-18T10:36:44.000Z</time>
</trkpt>
<trkpt lat="45.9027540" lon="9.8275260">
	<ele>1832.00</ele>
	<time>2023-11-18T10:36:45.000Z</time>
</trkpt>
<trkpt lat="45.9027480" lon="9.8275300">
	<ele>1831.80</ele>
	<time>2023-11-18T10:36:46.000Z</time>
</trkpt>
<trkpt lat="45.9027430" lon="9.8275370">
	<ele>1831.80</ele>
	<time>2023-11-18T10:36:47.000Z</time>
</trkpt>
<trkpt lat="45.9027360" lon="9.8275450">
	<ele>1831.40</ele>
	<time>2023-11-18T10:36:48.000Z</time>
</trkpt>
<trkpt lat="45.9027320" lon="9.8275500">
	<ele>1831.20</ele>
	<time>2023-11-18T10:36:49.000Z</time>
</trkpt>
<trkpt lat="45.9027270" lon="9.8275550">
	<ele>1830.80</ele>
	<time>2023-11-18T10:36:50.000Z</time>
</trkpt>
<trkpt lat="45.9027260" lon="9.8275640">
	<ele>1830.40</ele>
	<time>2023-11-18T10:36:51.000Z</time>
</trkpt>
<trkpt lat="45.9027240" lon="9.8275730">
	<ele>1830.00</ele>
	<time>2023-11-18T10:36:52.000Z</time>
</trkpt>
<trkpt lat="45.9027230" lon="9.8275840">
	<ele>1830.00</ele>
	<time>2023-11-18T10:36:53.000Z</time>
</trkpt>
<trkpt lat="45.9027230" lon="9.8275930">
	<ele>1829.80</ele>
	<time>2023-11-18T10:36:54.000Z</time>
</trkpt>
<trkpt lat="45.9027200" lon="9.8275990">
	<ele>1829.40</ele>
	<time>2023-11-18T10:36:55.000Z</time>
</trkpt>
<trkpt lat="45.9027180" lon="9.8276040">
	<ele>1829.40</ele>
	<time>2023-11-18T10:36:56.000Z</time>
</trkpt>
<trkpt lat="45.9027120" lon="9.8276100">
	<ele>1829.20</ele>
	<time>2023-11-18T10:36:57.000Z</time>
</trkpt>
<trkpt lat="45.9027040" lon="9.8276120">
	<ele>1829.20</ele>
	<time>2023-11-18T10:36:58.000Z</time>
</trkpt>
<trkpt lat="45.9026980" lon="9.8276100">
	<ele>1829.00</ele>
	<time>2023-11-18T10:36:59.000Z</time>
</trkpt>
<trkpt lat="45.9026920" lon="9.8276030">
	<ele>1828.80</ele>
	<time>2023-11-18T10:37:00.000Z</time>
</trkpt>
<trkpt lat="45.9026830" lon="9.8275990">
	<ele>1828.60</ele>
	<time>2023-11-18T10:37:01.000Z</time>
</trkpt>
<trkpt lat="45.9026790" lon="9.8275980">
	<ele>1828.40</ele>
	<time>2023-11-18T10:37:02.000Z</time>
</trkpt>
<trkpt lat="45.9026740" lon="9.8275950">
	<ele>1828.00</ele>
	<time>2023-11-18T10:37:03.000Z</time>
</trkpt>
<trkpt lat="45.9026660" lon="9.8275890">
	<ele>1827.80</ele>
	<time>2023-11-18T10:37:04.000Z</time>
</trkpt>
<trkpt lat="45.9026520" lon="9.8275810">
	<ele>1827.60</ele>
	<time>2023-11-18T10:37:05.000Z</time>
</trkpt>
<trkpt lat="45.9026420" lon="9.8275770">
	<ele>1827.20</ele>
	<time>2023-11-18T10:37:06.000Z</time>
</trkpt>
<trkpt lat="45.9026370" lon="9.8275780">
	<ele>1826.80</ele>
	<time>2023-11-18T10:37:07.000Z</time>
</trkpt>
<trkpt lat="45.9026330" lon="9.8275790">
	<ele>1826.60</ele>
	<time>2023-11-18T10:37:08.000Z</time>
</trkpt>
<trkpt lat="45.9026290" lon="9.8275800">
	<ele>1826.20</ele>
	<time>2023-11-18T10:37:09.000Z</time>
</trkpt>
<trkpt lat="45.9026220" lon="9.8275810">
	<ele>1826.00</ele>
	<time>2023-11-18T10:37:10.000Z</time>
</trkpt>
<trkpt lat="45.9026170" lon="9.8275810">
	<ele>1825.80</ele>
	<time>2023-11-18T10:37:11.000Z</time>
</trkpt>
<trkpt lat="45.9026120" lon="9.8275790">
	<ele>1825.60</ele>
	<time>2023-11-18T10:37:12.000Z</time>
</trkpt>
<trkpt lat="45.9026070" lon="9.8275780">
	<ele>1825.40</ele>
	<time>2023-11-18T10:37:13.000Z</time>
</trkpt>
<trkpt lat="45.9026020" lon="9.8275750">
	<ele>1825.20</ele>
	<time>2023-11-18T10:37:14.000Z</time>
</trkpt>
<trkpt lat="45.9025970" lon="9.8275710">
	<ele>1825.00</ele>
	<time>2023-11-18T10:37:15.000Z</time>
</trkpt>
<trkpt lat="45.9025920" lon="9.8275730">
	<ele>1824.60</ele>
	<time>2023-11-18T10:37:16.000Z</time>
</trkpt>
<trkpt lat="45.9025870" lon="9.8275730">
	<ele>1824.20</ele>
	<time>2023-11-18T10:37:17.000Z</time>
</trkpt>
<trkpt lat="45.9025780" lon="9.8275690">
	<ele>1823.80</ele>
	<time>2023-11-18T10:37:18.000Z</time>
</trkpt>
<trkpt lat="45.9025700" lon="9.8275690">
	<ele>1823.60</ele>
	<time>2023-11-18T10:37:19.000Z</time>
</trkpt>
<trkpt lat="45.9025630" lon="9.8275710">
	<ele>1823.40</ele>
	<time>2023-11-18T10:37:20.000Z</time>
</trkpt>
<trkpt lat="45.9025620" lon="9.8275750">
	<ele>1823.00</ele>
	<time>2023-11-18T10:37:21.000Z</time>
</trkpt>
<trkpt lat="45.9025590" lon="9.8275790">
	<ele>1822.80</ele>
	<time>2023-11-18T10:37:22.000Z</time>
</trkpt>
<trkpt lat="45.9025500" lon="9.8275850">
	<ele>1822.40</ele>
	<time>2023-11-18T10:37:23.000Z</time>
</trkpt>
<trkpt lat="45.9025420" lon="9.8275920">
	<ele>1822.40</ele>
	<time>2023-11-18T10:37:24.000Z</time>
</trkpt>
<trkpt lat="45.9025360" lon="9.8275980">
	<ele>1822.20</ele>
	<time>2023-11-18T10:37:25.000Z</time>
</trkpt>
<trkpt lat="45.9025320" lon="9.8276050">
	<ele>1822.20</ele>
	<time>2023-11-18T10:37:26.000Z</time>
</trkpt>
<trkpt lat="45.9025290" lon="9.8276100">
	<ele>1822.00</ele>
	<time>2023-11-18T10:37:27.000Z</time>
</trkpt>
<trkpt lat="45.9025270" lon="9.8276140">
	<ele>1822.00</ele>
	<time>2023-11-18T10:37:28.000Z</time>
</trkpt>
<trkpt lat="45.9025260" lon="9.8276130">
	<ele>1822.00</ele>
	<time>2023-11-18T10:37:29.000Z</time>
</trkpt>
<trkpt lat="45.9025260" lon="9.8276090">
	<ele>1821.80</ele>
	<time>2023-11-18T10:37:30.000Z</time>
</trkpt>
<trkpt lat="45.9025270" lon="9.8276050">
	<ele>1821.60</ele>
	<time>2023-11-18T10:37:31.000Z</time>
</trkpt>
<trkpt lat="45.9025300" lon="9.8275970">
	<ele>1821.40</ele>
	<time>2023-11-18T10:37:32.000Z</time>
</trkpt>
<trkpt lat="45.9025270" lon="9.8275900">
	<ele>1821.20</ele>
	<time>2023-11-18T10:37:33.000Z</time>
</trkpt>
<trkpt lat="45.9025240" lon="9.8275880">
	<ele>1821.00</ele>
	<time>2023-11-18T10:37:34.000Z</time>
</trkpt>
<trkpt lat="45.9025190" lon="9.8275900">
	<ele>1820.80</ele>
	<time>2023-11-18T10:37:35.000Z</time>
</trkpt>
<trkpt lat="45.9025160" lon="9.8275980">
	<ele>1820.60</ele>
	<time>2023-11-18T10:37:36.000Z</time>
</trkpt>
<trkpt lat="45.9025160" lon="9.8276070">
	<ele>1820.40</ele>
	<time>2023-11-18T10:37:37.000Z</time>
</trkpt>
<trkpt lat="45.9025150" lon="9.8276160">
	<ele>1820.20</ele>
	<time>2023-11-18T10:37:38.000Z</time>
</trkpt>
<trkpt lat="45.9025140" lon="9.8276240">
	<ele>1819.80</ele>
	<time>2023-11-18T10:37:39.000Z</time>
</trkpt>
<trkpt lat="45.9025110" lon="9.8276250">
	<ele>1819.80</ele>
	<time>2023-11-18T10:37:40.000Z</time>
</trkpt>
<trkpt lat="45.9025040" lon="9.8276250">
	<ele>1819.40</ele>
	<time>2023-11-18T10:37:41.000Z</time>
</trkpt>
<trkpt lat="45.9024990" lon="9.8276220">
	<ele>1819.40</ele>
	<time>2023-11-18T10:37:42.000Z</time>
</trkpt>
<trkpt lat="45.9024960" lon="9.8276220">
	<ele>1819.20</ele>
	<time>2023-11-18T10:37:43.000Z</time>
</trkpt>
<trkpt lat="45.9024940" lon="9.8276220">
	<ele>1818.80</ele>
	<time>2023-11-18T10:37:44.000Z</time>
</trkpt>
<trkpt lat="45.9024850" lon="9.8276190">
	<ele>1818.60</ele>
	<time>2023-11-18T10:37:45.000Z</time>
</trkpt>
<trkpt lat="45.9024760" lon="9.8276150">
	<ele>1818.00</ele>
	<time>2023-11-18T10:37:46.000Z</time>
</trkpt>
<trkpt lat="45.9024670" lon="9.8276130">
	<ele>1817.80</ele>
	<time>2023-11-18T10:37:47.000Z</time>
</trkpt>
<trkpt lat="45.9024570" lon="9.8276100">
	<ele>1817.40</ele>
	<time>2023-11-18T10:37:48.000Z</time>
</trkpt>
<trkpt lat="45.9024450" lon="9.8276100">
	<ele>1817.00</ele>
	<time>2023-11-18T10:37:49.000Z</time>
</trkpt>
<trkpt lat="45.9024380" lon="9.8276160">
	<ele>1816.80</ele>
	<time>2023-11-18T10:37:50.000Z</time>
</trkpt>
<trkpt lat="45.9024340" lon="9.8276280">
	<ele>1816.40</ele>
	<time>2023-11-18T10:37:51.000Z</time>
</trkpt>
<trkpt lat="45.9024300" lon="9.8276400">
	<ele>1815.80</ele>
	<time>2023-11-18T10:37:52.000Z</time>
</trkpt>
<trkpt lat="45.9024270" lon="9.8276510">
	<ele>1815.40</ele>
	<time>2023-11-18T10:37:53.000Z</time>
</trkpt>
<trkpt lat="45.9024240" lon="9.8276630">
	<ele>1815.20</ele>
	<time>2023-11-18T10:37:54.000Z</time>
</trkpt>
<trkpt lat="45.9024170" lon="9.8276710">
	<ele>1815.20</ele>
	<time>2023-11-18T10:37:55.000Z</time>
</trkpt>
<trkpt lat="45.9024120" lon="9.8276790">
	<ele>1815.00</ele>
	<time>2023-11-18T10:37:56.000Z</time>
</trkpt>
<trkpt lat="45.9024060" lon="9.8276850">
	<ele>1815.00</ele>
	<time>2023-11-18T10:37:57.000Z</time>
</trkpt>
<trkpt lat="45.9023980" lon="9.8276920">
	<ele>1814.60</ele>
	<time>2023-11-18T10:37:58.000Z</time>
</trkpt>
<trkpt lat="45.9023890" lon="9.8277010">
	<ele>1814.60</ele>
	<time>2023-11-18T10:37:59.000Z</time>
</trkpt>
<trkpt lat="45.9023830" lon="9.8277100">
	<ele>1814.40</ele>
	<time>2023-11-18T10:38:00.000Z</time>
</trkpt>
<trkpt lat="45.9023780" lon="9.8277190">
	<ele>1814.20</ele>
	<time>2023-11-18T10:38:01.000Z</time>
</trkpt>
<trkpt lat="45.9023760" lon="9.8277260">
	<ele>1813.80</ele>
	<time>2023-11-18T10:38:02.000Z</time>
</trkpt>
<trkpt lat="45.9023770" lon="9.8277350">
	<ele>1813.60</ele>
	<time>2023-11-18T10:38:03.000Z</time>
</trkpt>
<trkpt lat="45.9023670" lon="9.8277410">
	<ele>1813.40</ele>
	<time>2023-11-18T10:38:04.000Z</time>
</trkpt>
<trkpt lat="45.9023580" lon="9.8277470">
	<ele>1813.20</ele>
	<time>2023-11-18T10:38:05.000Z</time>
</trkpt>
<trkpt lat="45.9023540" lon="9.8277540">
	<ele>1812.80</ele>
	<time>2023-11-18T10:38:06.000Z</time>
</trkpt>
<trkpt lat="45.9023470" lon="9.8277630">
	<ele>1812.60</ele>
	<time>2023-11-18T10:38:07.000Z</time>
</trkpt>
<trkpt lat="45.9023420" lon="9.8277700">
	<ele>1812.00</ele>
	<time>2023-11-18T10:38:08.000Z</time>
</trkpt>
<trkpt lat="45.9023420" lon="9.8277740">
	<ele>1811.60</ele>
	<time>2023-11-18T10:38:09.000Z</time>
</trkpt>
<trkpt lat="45.9023380" lon="9.8277800">
	<ele>1811.40</ele>
	<time>2023-11-18T10:38:10.000Z</time>
</trkpt>
<trkpt lat="45.9023350" lon="9.8277850">
	<ele>1811.20</ele>
	<time>2023-11-18T10:38:11.000Z</time>
</trkpt>
<trkpt lat="45.9023320" lon="9.8277900">
	<ele>1811.00</ele>
	<time>2023-11-18T10:38:12.000Z</time>
</trkpt>
<trkpt lat="45.9023310" lon="9.8277950">
	<ele>1810.80</ele>
	<time>2023-11-18T10:38:13.000Z</time>
</trkpt>
<trkpt lat="45.9023270" lon="9.8277990">
	<ele>1810.60</ele>
	<time>2023-11-18T10:38:14.000Z</time>
</trkpt>
<trkpt lat="45.9023250" lon="9.8278060">
	<ele>1810.40</ele>
	<time>2023-11-18T10:38:15.000Z</time>
</trkpt>
<trkpt lat="45.9023260" lon="9.8278120">
	<ele>1810.20</ele>
	<time>2023-11-18T10:38:16.000Z</time>
</trkpt>
<trkpt lat="45.9023220" lon="9.8278140">
	<ele>1810.00</ele>
	<time>2023-11-18T10:38:17.000Z</time>
</trkpt>
<trkpt lat="45.9023190" lon="9.8278170">
	<ele>1809.80</ele>
	<time>2023-11-18T10:38:18.000Z</time>
</trkpt>
<trkpt lat="45.9023140" lon="9.8278200">
	<ele>1809.60</ele>
	<time>2023-11-18T10:38:19.000Z</time>
</trkpt>
<trkpt lat="45.9023100" lon="9.8278240">
	<ele>1809.20</ele>
	<time>2023-11-18T10:38:20.000Z</time>
</trkpt>
<trkpt lat="45.9023050" lon="9.8278320">
	<ele>1809.00</ele>
	<time>2023-11-18T10:38:21.000Z</time>
</trkpt>
<trkpt lat="45.9023000" lon="9.8278410">
	<ele>1808.80</ele>
	<time>2023-11-18T10:38:22.000Z</time>
</trkpt>
<trkpt lat="45.9022950" lon="9.8278520">
	<ele>1808.60</ele>
	<time>2023-11-18T10:38:23.000Z</time>
</trkpt>
<trkpt lat="45.9022890" lon="9.8278610">
	<ele>1808.20</ele>
	<time>2023-11-18T10:38:24.000Z</time>
</trkpt>
<trkpt lat="45.9022840" lon="9.8278620">
	<ele>1807.80</ele>
	<time>2023-11-18T10:38:25.000Z</time>
</trkpt>
<trkpt lat="45.9022750" lon="9.8278670">
	<ele>1807.40</ele>
	<time>2023-11-18T10:38:26.000Z</time>
</trkpt>
<trkpt lat="45.9022690" lon="9.8278710">
	<ele>1807.00</ele>
	<time>2023-11-18T10:38:27.000Z</time>
</trkpt>
<trkpt lat="45.9022620" lon="9.8278740">
	<ele>1806.80</ele>
	<time>2023-11-18T10:38:28.000Z</time>
</trkpt>
<trkpt lat="45.9022530" lon="9.8278760">
	<ele>1806.60</ele>
	<time>2023-11-18T10:38:29.000Z</time>
</trkpt>
<trkpt lat="45.9022450" lon="9.8278790">
	<ele>1806.20</ele>
	<time>2023-11-18T10:38:30.000Z</time>
</trkpt>
<trkpt lat="45.9022370" lon="9.8278820">
	<ele>1806.00</ele>
	<time>2023-11-18T10:38:31.000Z</time>
</trkpt>
<trkpt lat="45.9022320" lon="9.8278840">
	<ele>1805.80</ele>
	<time>2023-11-18T10:38:32.000Z</time>
</trkpt>
<trkpt lat="45.9022290" lon="9.8278870">
	<ele>1805.40</ele>
	<time>2023-11-18T10:38:33.000Z</time>
</trkpt>
<trkpt lat="45.9022290" lon="9.8278900">
	<ele>1805.20</ele>
	<time>2023-11-18T10:38:34.000Z</time>
</trkpt>
<trkpt lat="45.9022260" lon="9.8278910">
	<ele>1805.20</ele>
	<time>2023-11-18T10:38:35.000Z</time>
</trkpt>
<trkpt lat="45.9022250" lon="9.8278920">
	<ele>1805.00</ele>
	<time>2023-11-18T10:38:36.000Z</time>
</trkpt>
<trkpt lat="45.9022180" lon="9.8278930">
	<ele>1804.80</ele>
	<time>2023-11-18T10:38:37.000Z</time>
</trkpt>
<trkpt lat="45.9022120" lon="9.8278920">
	<ele>1804.40</ele>
	<time>2023-11-18T10:38:38.000Z</time>
</trkpt>
<trkpt lat="45.9022060" lon="9.8278940">
	<ele>1804.20</ele>
	<time>2023-11-18T10:38:39.000Z</time>
</trkpt>
<trkpt lat="45.9022000" lon="9.8278920">
	<ele>1804.00</ele>
	<time>2023-11-18T10:38:40.000Z</time>
</trkpt>
<trkpt lat="45.9021970" lon="9.8278900">
	<ele>1804.00</ele>
	<time>2023-11-18T10:38:41.000Z</time>
</trkpt>
<trkpt lat="45.9021960" lon="9.8278890">
	<ele>1803.80</ele>
	<time>2023-11-18T10:38:42.000Z</time>
</trkpt>
<trkpt lat="45.9021940" lon="9.8278890">
	<ele>1803.80</ele>
	<time>2023-11-18T10:38:43.000Z</time>
</trkpt>
<trkpt lat="45.9021940" lon="9.8278910">
	<ele>1803.60</ele>
	<time>2023-11-18T10:38:44.000Z</time>
</trkpt>
<trkpt lat="45.9021930" lon="9.8278960">
	<ele>1803.40</ele>
	<time>2023-11-18T10:38:45.000Z</time>
</trkpt>
<trkpt lat="45.9021890" lon="9.8278990">
	<ele>1803.20</ele>
	<time>2023-11-18T10:38:46.000Z</time>
</trkpt>
<trkpt lat="45.9021850" lon="9.8278980">
	<ele>1803.20</ele>
	<time>2023-11-18T10:38:47.000Z</time>
</trkpt>
<trkpt lat="45.9021830" lon="9.8278980">
	<ele>1803.00</ele>
	<time>2023-11-18T10:38:48.000Z</time>
</trkpt>
<trkpt lat="45.9021820" lon="9.8278980">
	<ele>1802.80</ele>
	<time>2023-11-18T10:38:49.000Z</time>
</trkpt>
<trkpt lat="45.9021800" lon="9.8279000">
	<ele>1802.80</ele>
	<time>2023-11-18T10:38:50.000Z</time>
</trkpt>
<trkpt lat="45.9021810" lon="9.8279010">
	<ele>1802.80</ele>
	<time>2023-11-18T10:38:51.000Z</time>
</trkpt>
<trkpt lat="45.9021770" lon="9.8279010">
	<ele>1802.60</ele>
	<time>2023-11-18T10:38:52.000Z</time>
</trkpt>
<trkpt lat="45.9021700" lon="9.8278980">
	<ele>1802.00</ele>
	<time>2023-11-18T10:38:53.000Z</time>
</trkpt>
<trkpt lat="45.9021650" lon="9.8278980">
	<ele>1801.80</ele>
	<time>2023-11-18T10:38:54.000Z</time>
</trkpt>
<trkpt lat="45.9021590" lon="9.8278970">
	<ele>1801.40</ele>
	<time>2023-11-18T10:38:55.000Z</time>
</trkpt>
<trkpt lat="45.9021540" lon="9.8278950">
	<ele>1801.00</ele>
	<time>2023-11-18T10:38:56.000Z</time>
</trkpt>
<trkpt lat="45.9021450" lon="9.8278920">
	<ele>1800.80</ele>
	<time>2023-11-18T10:38:57.000Z</time>
</trkpt>
<trkpt lat="45.9021370" lon="9.8278950">
	<ele>1800.40</ele>
	<time>2023-11-18T10:38:58.000Z</time>
</trkpt>
<trkpt lat="45.9021290" lon="9.8279000">
	<ele>1800.00</ele>
	<time>2023-11-18T10:38:59.000Z</time>
</trkpt>
<trkpt lat="45.9021280" lon="9.8279090">
	<ele>1799.80</ele>
	<time>2023-11-18T10:39:00.000Z</time>
</trkpt>
<trkpt lat="45.9021250" lon="9.8279110">
	<ele>1799.60</ele>
	<time>2023-11-18T10:39:01.000Z</time>
</trkpt>
<trkpt lat="45.9021190" lon="9.8279160">
	<ele>1799.60</ele>
	<time>2023-11-18T10:39:02.000Z</time>
</trkpt>
<trkpt lat="45.9021170" lon="9.8279180">
	<ele>1799.20</ele>
	<time>2023-11-18T10:39:03.000Z</time>
</trkpt>
<trkpt lat="45.9021170" lon="9.8279180">
	<ele>1799.00</ele>
	<time>2023-11-18T10:39:04.000Z</time>
</trkpt>
<trkpt lat="45.9021150" lon="9.8279190">
	<ele>1798.80</ele>
	<time>2023-11-18T10:39:05.000Z</time>
</trkpt>
<trkpt lat="45.9021110" lon="9.8279200">
	<ele>1798.60</ele>
	<time>2023-11-18T10:39:06.000Z</time>
</trkpt>
<trkpt lat="45.9021030" lon="9.8279200">
	<ele>1798.60</ele>
	<time>2023-11-18T10:39:07.000Z</time>
</trkpt>
<trkpt lat="45.9020960" lon="9.8279200">
	<ele>1798.40</ele>
	<time>2023-11-18T10:39:08.000Z</time>
</trkpt>
<trkpt lat="45.9020880" lon="9.8279210">
	<ele>1798.20</ele>
	<time>2023-11-18T10:39:09.000Z</time>
</trkpt>
<trkpt lat="45.9020810" lon="9.8279240">
	<ele>1798.00</ele>
	<time>2023-11-18T10:39:10.000Z</time>
</trkpt>
<trkpt lat="45.9020760" lon="9.8279260">
	<ele>1797.80</ele>
	<time>2023-11-18T10:39:11.000Z</time>
</trkpt>
<trkpt lat="45.9020700" lon="9.8279290">
	<ele>1797.60</ele>
	<time>2023-11-18T10:39:12.000Z</time>
</trkpt>
<trkpt lat="45.9020640" lon="9.8279340">
	<ele>1797.40</ele>
	<time>2023-11-18T10:39:13.000Z</time>
</trkpt>
<trkpt lat="45.9020590" lon="9.8279340">
	<ele>1797.20</ele>
	<time>2023-11-18T10:39:14.000Z</time>
</trkpt>
<trkpt lat="45.9020540" lon="9.8279270">
	<ele>1797.00</ele>
	<time>2023-11-18T10:39:15.000Z</time>
</trkpt>
<trkpt lat="45.9020520" lon="9.8279200">
	<ele>1796.80</ele>
	<time>2023-11-18T10:39:16.000Z</time>
</trkpt>
<trkpt lat="45.9020500" lon="9.8279160">
	<ele>1796.60</ele>
	<time>2023-11-18T10:39:17.000Z</time>
</trkpt>
<trkpt lat="45.9020480" lon="9.8279130">
	<ele>1796.40</ele>
	<time>2023-11-18T10:39:18.000Z</time>
</trkpt>
<trkpt lat="45.9020520" lon="9.8279080">
	<ele>1796.20</ele>
	<time>2023-11-18T10:39:19.000Z</time>
</trkpt>
<trkpt lat="45.9020490" lon="9.8279010">
	<ele>1796.20</ele>
	<time>2023-11-18T10:39:20.000Z</time>
</trkpt>
<trkpt lat="45.9020460" lon="9.8278940">
	<ele>1796.20</ele>
	<time>2023-11-18T10:39:21.000Z</time>
</trkpt>
<trkpt lat="45.9020430" lon="9.8278880">
	<ele>1796.20</ele>
	<time>2023-11-18T10:39:22.000Z</time>
</trkpt>
<trkpt lat="45.9020430" lon="9.8278800">
	<ele>1795.80</ele>
	<time>2023-11-18T10:39:23.000Z</time>
</trkpt>
<trkpt lat="45.9020430" lon="9.8278730">
	<ele>1795.60</ele>
	<time>2023-11-18T10:39:24.000Z</time>
</trkpt>
<trkpt lat="45.9020420" lon="9.8278670">
	<ele>1795.40</ele>
	<time>2023-11-18T10:39:25.000Z</time>
</trkpt>
<trkpt lat="45.9020400" lon="9.8278630">
	<ele>1795.20</ele>
	<time>2023-11-18T10:39:26.000Z</time>
</trkpt>
<trkpt lat="45.9020350" lon="9.8278580">
	<ele>1795.00</ele>
	<time>2023-11-18T10:39:27.000Z</time>
</trkpt>
<trkpt lat="45.9020320" lon="9.8278540">
	<ele>1794.60</ele>
	<time>2023-11-18T10:39:28.000Z</time>
</trkpt>
<trkpt lat="45.9020260" lon="9.8278510">
	<ele>1794.40</ele>
	<time>2023-11-18T10:39:29.000Z</time>
</trkpt>
<trkpt lat="45.9020220" lon="9.8278490">
	<ele>1794.00</ele>
	<time>2023-11-18T10:39:30.000Z</time>
</trkpt>
<trkpt lat="45.9020190" lon="9.8278450">
	<ele>1793.80</ele>
	<time>2023-11-18T10:39:31.000Z</time>
</trkpt>
<trkpt lat="45.9020130" lon="9.8278410">
	<ele>1793.60</ele>
	<time>2023-11-18T10:39:32.000Z</time>
</trkpt>
<trkpt lat="45.9020080" lon="9.8278360">
	<ele>1793.40</ele>
	<time>2023-11-18T10:39:33.000Z</time>
</trkpt>
<trkpt lat="45.9020040" lon="9.8278340">
	<ele>1793.00</ele>
	<time>2023-11-18T10:39:34.000Z</time>
</trkpt>
<trkpt lat="45.9019990" lon="9.8278300">
	<ele>1792.60</ele>
	<time>2023-11-18T10:39:35.000Z</time>
</trkpt>
<trkpt lat="45.9019930" lon="9.8278260">
	<ele>1792.40</ele>
	<time>2023-11-18T10:39:36.000Z</time>
</trkpt>
<trkpt lat="45.9019840" lon="9.8278230">
	<ele>1792.20</ele>
	<time>2023-11-18T10:39:37.000Z</time>
</trkpt>
<trkpt lat="45.9019750" lon="9.8278220">
	<ele>1792.00</ele>
	<time>2023-11-18T10:39:38.000Z</time>
</trkpt>
<trkpt lat="45.9019670" lon="9.8278180">
	<ele>1791.80</ele>
	<time>2023-11-18T10:39:39.000Z</time>
</trkpt>
<trkpt lat="45.9019580" lon="9.8278150">
	<ele>1791.60</ele>
	<time>2023-11-18T10:39:40.000Z</time>
</trkpt>
<trkpt lat="45.9019480" lon="9.8278120">
	<ele>1791.60</ele>
	<time>2023-11-18T10:39:41.000Z</time>
</trkpt>
<trkpt lat="45.9019370" lon="9.8278070">
	<ele>1791.40</ele>
	<time>2023-11-18T10:39:42.000Z</time>
</trkpt>
<trkpt lat="45.9019270" lon="9.8278040">
	<ele>1791.20</ele>
	<time>2023-11-18T10:39:43.000Z</time>
</trkpt>
<trkpt lat="45.9019150" lon="9.8278010">
	<ele>1791.00</ele>
	<time>2023-11-18T10:39:44.000Z</time>
</trkpt>
<trkpt lat="45.9019020" lon="9.8277970">
	<ele>1790.80</ele>
	<time>2023-11-18T10:39:45.000Z</time>
</trkpt>
<trkpt lat="45.9018920" lon="9.8277960">
	<ele>1790.60</ele>
	<time>2023-11-18T10:39:46.000Z</time>
</trkpt>
<trkpt lat="45.9018890" lon="9.8277980">
	<ele>1790.40</ele>
	<time>2023-11-18T10:39:47.000Z</time>
</trkpt>
<trkpt lat="45.9018820" lon="9.8277980">
	<ele>1790.20</ele>
	<time>2023-11-18T10:39:48.000Z</time>
</trkpt>
<trkpt lat="45.9018740" lon="9.8277980">
	<ele>1790.00</ele>
	<time>2023-11-18T10:39:49.000Z</time>
</trkpt>
<trkpt lat="45.9018640" lon="9.8277940">
	<ele>1790.00</ele>
	<time>2023-11-18T10:39:50.000Z</time>
</trkpt>
<trkpt lat="45.9018600" lon="9.8277930">
	<ele>1789.80</ele>
	<time>2023-11-18T10:39:51.000Z</time>
</trkpt>
<trkpt lat="45.9018590" lon="9.8277940">
	<ele>1789.80</ele>
	<time>2023-11-18T10:39:52.000Z</time>
</trkpt>
<trkpt lat="45.9018580" lon="9.8277930">
	<ele>1789.60</ele>
	<time>2023-11-18T10:39:53.000Z</time>
</trkpt>
<trkpt lat="45.9018570" lon="9.8277920">
	<ele>1789.60</ele>
	<time>2023-11-18T10:39:54.000Z</time>
</trkpt>
<trkpt lat="45.9018560" lon="9.8277910">
	<ele>1789.60</ele>
	<time>2023-11-18T10:39:55.000Z</time>
</trkpt>
<trkpt lat="45.9018550" lon="9.8277900">
	<ele>1789.60</ele>
	<time>2023-11-18T10:39:56.000Z</time>
</trkpt>
<trkpt lat="45.9018510" lon="9.8277840">
	<ele>1789.60</ele>
	<time>2023-11-18T10:39:57.000Z</time>
</trkpt>
<trkpt lat="45.9018490" lon="9.8277840">
	<ele>1789.60</ele>
	<time>2023-11-18T10:39:58.000Z</time>
</trkpt>
<trkpt lat="45.9018460" lon="9.8277810">
	<ele>1789.60</ele>
	<time>2023-11-18T10:39:59.000Z</time>
</trkpt>
<trkpt lat="45.9018430" lon="9.8277760">
	<ele>1789.60</ele>
	<time>2023-11-18T10:40:00.000Z</time>
</trkpt>
<trkpt lat="45.9018360" lon="9.8277710">
	<ele>1789.60</ele>
	<time>2023-11-18T10:40:01.000Z</time>
</trkpt>
<trkpt lat="45.9018310" lon="9.8277710">
	<ele>1789.60</ele>
	<time>2023-11-18T10:40:02.000Z</time>
</trkpt>
<trkpt lat="45.9018240" lon="9.8277700">
	<ele>1789.60</ele>
	<time>2023-11-18T10:40:03.000Z</time>
</trkpt>
<trkpt lat="45.9018180" lon="9.8277760">
	<ele>1789.40</ele>
	<time>2023-11-18T10:40:04.000Z</time>
</trkpt>
<trkpt lat="45.9018110" lon="9.8277780">
	<ele>1789.40</ele>
	<time>2023-11-18T10:40:05.000Z</time>
</trkpt>
<trkpt lat="45.9018060" lon="9.8277770">
	<ele>1789.20</ele>
	<time>2023-11-18T10:40:06.000Z</time>
</trkpt>
<trkpt lat="45.9018020" lon="9.8277740">
	<ele>1789.20</ele>
	<time>2023-11-18T10:40:07.000Z</time>
</trkpt>
<trkpt lat="45.9017980" lon="9.8277710">
	<ele>1789.20</ele>
	<time>2023-11-18T10:40:08.000Z</time>
</trkpt>
<trkpt lat="45.9017920" lon="9.8277650">
	<ele>1789.20</ele>
	<time>2023-11-18T10:40:09.000Z</time>
</trkpt>
<trkpt lat="45.9017860" lon="9.8277550">
	<ele>1789.20</ele>
	<time>2023-11-18T10:40:10.000Z</time>
</trkpt>
<trkpt lat="45.9017840" lon="9.8277470">
	<ele>1789.00</ele>
	<time>2023-11-18T10:40:11.000Z</time>
</trkpt>
<trkpt lat="45.9017810" lon="9.8277420">
	<ele>1789.00</ele>
	<time>2023-11-18T10:40:12.000Z</time>
</trkpt>
<trkpt lat="45.9017770" lon="9.8277380">
	<ele>1788.80</ele>
	<time>2023-11-18T10:40:13.000Z</time>
</trkpt>
<trkpt lat="45.9017740" lon="9.8277290">
	<ele>1788.60</ele>
	<time>2023-11-18T10:40:14.000Z</time>
</trkpt>
<trkpt lat="45.9017690" lon="9.8277180">
	<ele>1788.60</ele>
	<time>2023-11-18T10:40:15.000Z</time>
</trkpt>
<trkpt lat="45.9017680" lon="9.8277070">
	<ele>1788.20</ele>
	<time>2023-11-18T10:40:16.000Z</time>
</trkpt>
<trkpt lat="45.9017650" lon="9.8276960">
	<ele>1788.00</ele>
	<time>2023-11-18T10:40:17.000Z</time>
</trkpt>
<trkpt lat="45.9017600" lon="9.8276860">
	<ele>1787.80</ele>
	<time>2023-11-18T10:40:18.000Z</time>
</trkpt>
<trkpt lat="45.9017550" lon="9.8276790">
	<ele>1787.60</ele>
	<time>2023-11-18T10:40:19.000Z</time>
</trkpt>
<trkpt lat="45.9017510" lon="9.8276700">
	<ele>1787.40</ele>
	<time>2023-11-18T10:40:20.000Z</time>
</trkpt>
<trkpt lat="45.9017450" lon="9.8276640">
	<ele>1787.20</ele>
	<time>2023-11-18T10:40:21.000Z</time>
</trkpt>
<trkpt lat="45.9017350" lon="9.8276580">
	<ele>1787.00</ele>
	<time>2023-11-18T10:40:22.000Z</time>
</trkpt>
<trkpt lat="45.9017270" lon="9.8276490">
	<ele>1787.00</ele>
	<time>2023-11-18T10:40:23.000Z</time>
</trkpt>
<trkpt lat="45.9017180" lon="9.8276440">
	<ele>1786.80</ele>
	<time>2023-11-18T10:40:24.000Z</time>
</trkpt>
<trkpt lat="45.9017120" lon="9.8276390">
	<ele>1786.80</ele>
	<time>2023-11-18T10:40:25.000Z</time>
</trkpt>
<trkpt lat="45.9017080" lon="9.8276330">
	<ele>1786.60</ele>
	<time>2023-11-18T10:40:26.000Z</time>
</trkpt>
<trkpt lat="45.9017040" lon="9.8276230">
	<ele>1786.60</ele>
	<time>2023-11-18T10:40:27.000Z</time>
</trkpt>
<trkpt lat="45.9016970" lon="9.8276130">
	<ele>1786.40</ele>
	<time>2023-11-18T10:40:28.000Z</time>
</trkpt>
<trkpt lat="45.9016920" lon="9.8276050">
	<ele>1786.40</ele>
	<time>2023-11-18T10:40:29.000Z</time>
</trkpt>
<trkpt lat="45.9016850" lon="9.8275990">
	<ele>1786.40</ele>
	<time>2023-11-18T10:40:30.000Z</time>
</trkpt>
<trkpt lat="45.9016800" lon="9.8275940">
	<ele>1786.40</ele>
	<time>2023-11-18T10:40:31.000Z</time>
</trkpt>
<trkpt lat="45.9016740" lon="9.8275890">
	<ele>1786.40</ele>
	<time>2023-11-18T10:40:32.000Z</time>
</trkpt>
<trkpt lat="45.9016690" lon="9.8275840">
	<ele>1786.40</ele>
	<time>2023-11-18T10:40:33.000Z</time>
</trkpt>
<trkpt lat="45.9016650" lon="9.8275770">
	<ele>1786.60</ele>
	<time>2023-11-18T10:40:34.000Z</time>
</trkpt>
<trkpt lat="45.9016610" lon="9.8275720">
	<ele>1786.60</ele>
	<time>2023-11-18T10:40:35.000Z</time>
</trkpt>
<trkpt lat="45.9016550" lon="9.8275660">
	<ele>1786.80</ele>
	<time>2023-11-18T10:40:36.000Z</time>
</trkpt>
<trkpt lat="45.9016490" lon="9.8275630">
	<ele>1787.00</ele>
	<time>2023-11-18T10:40:37.000Z</time>
</trkpt>
<trkpt lat="45.9016390" lon="9.8275610">
	<ele>1787.00</ele>
	<time>2023-11-18T10:40:38.000Z</time>
</trkpt>
<trkpt lat="45.9016310" lon="9.8275550">
	<ele>1787.00</ele>
	<time>2023-11-18T10:40:39.000Z</time>
</trkpt>
<trkpt lat="45.9016240" lon="9.8275500">
	<ele>1787.00</ele>
	<time>2023-11-18T10:40:40.000Z</time>
</trkpt>
<trkpt lat="45.9016170" lon="9.8275450">
	<ele>1787.00</ele>
	<time>2023-11-18T10:40:41.000Z</time>
</trkpt>
<trkpt lat="45.9016120" lon="9.8275400">
	<ele>1787.00</ele>
	<time>2023-11-18T10:40:42.000Z</time>
</trkpt>
<trkpt lat="45.9016090" lon="9.8275330">
	<ele>1787.00</ele>
	<time>2023-11-18T10:40:43.000Z</time>
</trkpt>
<trkpt lat="45.9016110" lon="9.8275300">
	<ele>1787.00</ele>
	<time>2023-11-18T10:40:44.000Z</time>
</trkpt>
<trkpt lat="45.9016100" lon="9.8275260">
	<ele>1786.80</ele>
	<time>2023-11-18T10:40:45.000Z</time>
</trkpt>
<trkpt lat="45.9016060" lon="9.8275180">
	<ele>1787.00</ele>
	<time>2023-11-18T10:40:46.000Z</time>
</trkpt>
<trkpt lat="45.9016020" lon="9.8275080">
	<ele>1787.00</ele>
	<time>2023-11-18T10:40:47.000Z</time>
</trkpt>
<trkpt lat="45.9015970" lon="9.8275000">
	<ele>1787.20</ele>
	<time>2023-11-18T10:40:48.000Z</time>
</trkpt>
<trkpt lat="45.9015910" lon="9.8274930">
	<ele>1787.20</ele>
	<time>2023-11-18T10:40:49.000Z</time>
</trkpt>
<trkpt lat="45.9015870" lon="9.8274870">
	<ele>1787.40</ele>
	<time>2023-11-18T10:40:50.000Z</time>
</trkpt>
<trkpt lat="45.9015860" lon="9.8274820">
	<ele>1787.40</ele>
	<time>2023-11-18T10:40:51.000Z</time>
</trkpt>
<trkpt lat="45.9015820" lon="9.8274760">
	<ele>1787.60</ele>
	<time>2023-11-18T10:40:52.000Z</time>
</trkpt>
<trkpt lat="45.9015790" lon="9.8274690">
	<ele>1787.60</ele>
	<time>2023-11-18T10:40:53.000Z</time>
</trkpt>
<trkpt lat="45.9015760" lon="9.8274640">
	<ele>1787.80</ele>
	<time>2023-11-18T10:40:54.000Z</time>
</trkpt>
<trkpt lat="45.9015700" lon="9.8274540">
	<ele>1788.00</ele>
	<time>2023-11-18T10:40:55.000Z</time>
</trkpt>
<trkpt lat="45.9015640" lon="9.8274480">
	<ele>1788.00</ele>
	<time>2023-11-18T10:40:56.000Z</time>
</trkpt>
<trkpt lat="45.9015600" lon="9.8274430">
	<ele>1788.20</ele>
	<time>2023-11-18T10:40:57.000Z</time>
</trkpt>
<trkpt lat="45.9015550" lon="9.8274400">
	<ele>1788.40</ele>
	<time>2023-11-18T10:40:58.000Z</time>
</trkpt>
<trkpt lat="45.9015530" lon="9.8274380">
	<ele>1788.60</ele>
	<time>2023-11-18T10:40:59.000Z</time>
</trkpt>
<trkpt lat="45.9015470" lon="9.8274340">
	<ele>1788.60</ele>
	<time>2023-11-18T10:41:00.000Z</time>
</trkpt>
<trkpt lat="45.9015430" lon="9.8274270">
	<ele>1788.80</ele>
	<time>2023-11-18T10:41:01.000Z</time>
</trkpt>
<trkpt lat="45.9015400" lon="9.8274200">
	<ele>1788.80</ele>
	<time>2023-11-18T10:41:02.000Z</time>
</trkpt>
<trkpt lat="45.9015390" lon="9.8274120">
	<ele>1789.00</ele>
	<time>2023-11-18T10:41:03.000Z</time>
</trkpt>
<trkpt lat="45.9015390" lon="9.8274070">
	<ele>1789.00</ele>
	<time>2023-11-18T10:41:04.000Z</time>
</trkpt>
<trkpt lat="45.9015370" lon="9.8274060">
	<ele>1789.20</ele>
	<time>2023-11-18T10:41:05.000Z</time>
</trkpt>
<trkpt lat="45.9015320" lon="9.8274040">
	<ele>1789.40</ele>
	<time>2023-11-18T10:41:06.000Z</time>
</trkpt>
<trkpt lat="45.9015280" lon="9.8274040">
	<ele>1789.60</ele>
	<time>2023-11-18T10:41:07.000Z</time>
</trkpt>
<trkpt lat="45.9015250" lon="9.8274040">
	<ele>1789.80</ele>
	<time>2023-11-18T10:41:08.000Z</time>
</trkpt>
<trkpt lat="45.9015210" lon="9.8274040">
	<ele>1789.80</ele>
	<time>2023-11-18T10:41:09.000Z</time>
</trkpt>
<trkpt lat="45.9015190" lon="9.8274030">
	<ele>1790.00</ele>
	<time>2023-11-18T10:41:10.000Z</time>
</trkpt>
<trkpt lat="45.9015160" lon="9.8274010">
	<ele>1790.00</ele>
	<time>2023-11-18T10:41:11.000Z</time>
</trkpt>
<trkpt lat="45.9015130" lon="9.8274020">
	<ele>1790.00</ele>
	<time>2023-11-18T10:41:12.000Z</time>
</trkpt>
<trkpt lat="45.9015110" lon="9.8274020">
	<ele>1789.80</ele>
	<time>2023-11-18T10:41:13.000Z</time>
</trkpt>
<trkpt lat="45.9015110" lon="9.8273990">
	<ele>1789.80</ele>
	<time>2023-11-18T10:41:14.000Z</time>
</trkpt>
<trkpt lat="45.9015080" lon="9.8273980">
	<ele>1790.00</ele>
	<time>2023-11-18T10:41:15.000Z</time>
</trkpt>
<trkpt lat="45.9015070" lon="9.8273970">
	<ele>1790.20</ele>
	<time>2023-11-18T10:41:16.000Z</time>
</trkpt>
<trkpt lat="45.9015040" lon="9.8273960">
	<ele>1790.20</ele>
	<time>2023-11-18T10:41:17.000Z</time>
</trkpt>
<trkpt lat="45.9015000" lon="9.8273950">
	<ele>1790.60</ele>
	<time>2023-11-18T10:41:18.000Z</time>
</trkpt>
<trkpt lat="45.9014980" lon="9.8273950">
	<ele>1790.80</ele>
	<time>2023-11-18T10:41:19.000Z</time>
</trkpt>
<trkpt lat="45.9014980" lon="9.8273940">
	<ele>1791.00</ele>
	<time>2023-11-18T10:41:20.000Z</time>
</trkpt>
<trkpt lat="45.9014980" lon="9.8273940">
	<ele>1791.20</ele>
	<time>2023-11-18T10:41:21.000Z</time>
</trkpt>
<trkpt lat="45.9014980" lon="9.8273940">
	<ele>1791.20</ele>
	<time>2023-11-18T10:41:22.000Z</time>
</trkpt>
<trkpt lat="45.9014980" lon="9.8273940">
	<ele>1791.40</ele>
	<time>2023-11-18T10:41:23.000Z</time>
</trkpt>
<trkpt lat="45.9014980" lon="9.8273940">
	<ele>1791.40</ele>
	<time>2023-11-18T10:41:24.000Z</time>
</trkpt>
<trkpt lat="45.9014980" lon="9.8273940">
	<ele>1791.60</ele>
	<time>2023-11-18T10:41:25.000Z</time>
</trkpt>
<trkpt lat="45.9014980" lon="9.8273940">
	<ele>1791.80</ele>
	<time>2023-11-18T10:41:26.000Z</time>
</trkpt>
<trkpt lat="45.9014980" lon="9.8273940">
	<ele>1792.20</ele>
	<time>2023-11-18T10:41:27.000Z</time>
</trkpt>
<trkpt lat="45.9014980" lon="9.8273940">
	<ele>1792.20</ele>
	<time>2023-11-18T10:41:28.000Z</time>
</trkpt>
<trkpt lat="45.9014980" lon="9.8273940">
	<ele>1792.40</ele>
	<time>2023-11-18T10:41:29.000Z</time>
</trkpt>
<trkpt lat="45.9014980" lon="9.8273940">
	<ele>1792.40</ele>
	<time>2023-11-18T10:41:30.000Z</time>
</trkpt>
<trkpt lat="45.9014980" lon="9.8273940">
	<ele>1792.60</ele>
	<time>2023-11-18T10:41:31.000Z</time>
</trkpt>
<trkpt lat="45.9014980" lon="9.8273940">
	<ele>1792.60</ele>
	<time>2023-11-18T10:41:32.000Z</time>
</trkpt>
<trkpt lat="45.9014980" lon="9.8273940">
	<ele>1792.80</ele>
	<time>2023-11-18T10:41:33.000Z</time>
</trkpt>
<trkpt lat="45.9014980" lon="9.8273940">
	<ele>1792.80</ele>
	<time>2023-11-18T10:41:34.000Z</time>
</trkpt>
<trkpt lat="45.9014980" lon="9.8273940">
	<ele>1793.00</ele>
	<time>2023-11-18T10:41:35.000Z</time>
</trkpt>
<trkpt lat="45.9014960" lon="9.8273920">
	<ele>1793.00</ele>
	<time>2023-11-18T10:41:36.000Z</time>
</trkpt>
<trkpt lat="45.9014930" lon="9.8273900">
	<ele>1793.20</ele>
	<time>2023-11-18T10:41:37.000Z</time>
</trkpt>
<trkpt lat="45.9014910" lon="9.8273880">
	<ele>1793.20</ele>
	<time>2023-11-18T10:41:38.000Z</time>
</trkpt>
<trkpt lat="45.9014890" lon="9.8273850">
	<ele>1793.40</ele>
	<time>2023-11-18T10:41:39.000Z</time>
</trkpt>
<trkpt lat="45.9014880" lon="9.8273830">
	<ele>1793.40</ele>
	<time>2023-11-18T10:41:40.000Z</time>
</trkpt>
<trkpt lat="45.9014870" lon="9.8273790">
	<ele>1793.40</ele>
	<time>2023-11-18T10:41:41.000Z</time>
</trkpt>
<trkpt lat="45.9014860" lon="9.8273790">
	<ele>1793.40</ele>
	<time>2023-11-18T10:41:42.000Z</time>
</trkpt>
<trkpt lat="45.9014860" lon="9.8273780">
	<ele>1793.60</ele>
	<time>2023-11-18T10:41:43.000Z</time>
</trkpt>
<trkpt lat="45.9014860" lon="9.8273770">
	<ele>1793.60</ele>
	<time>2023-11-18T10:41:44.000Z</time>
</trkpt>
<trkpt lat="45.9014860" lon="9.8273750">
	<ele>1793.60</ele>
	<time>2023-11-18T10:41:45.000Z</time>
</trkpt>
<trkpt lat="45.9014860" lon="9.8273730">
	<ele>1793.80</ele>
	<time>2023-11-18T10:41:46.000Z</time>
</trkpt>
<trkpt lat="45.9014850" lon="9.8273720">
	<ele>1794.00</ele>
	<time>2023-11-18T10:41:47.000Z</time>
</trkpt>
<trkpt lat="45.9014850" lon="9.8273700">
	<ele>1794.00</ele>
	<time>2023-11-18T10:41:48.000Z</time>
</trkpt>
<trkpt lat="45.9014850" lon="9.8273700">
	<ele>1794.20</ele>
	<time>2023-11-18T10:41:49.000Z</time>
</trkpt>
<trkpt lat="45.9014850" lon="9.8273690">
	<ele>1794.40</ele>
	<time>2023-11-18T10:41:50.000Z</time>
</trkpt>
<trkpt lat="45.9014850" lon="9.8273680">
	<ele>1794.40</ele>
	<time>2023-11-18T10:41:51.000Z</time>
</trkpt>
<trkpt lat="45.9014840" lon="9.8273680">
	<ele>1794.40</ele>
	<time>2023-11-18T10:41:52.000Z</time>
</trkpt>
<trkpt lat="45.9014840" lon="9.8273660">
	<ele>1794.60</ele>
	<time>2023-11-18T10:41:53.000Z</time>
</trkpt>
<trkpt lat="45.9014840" lon="9.8273630">
	<ele>1794.60</ele>
	<time>2023-11-18T10:41:54.000Z</time>
</trkpt>
<trkpt lat="45.9014840" lon="9.8273630">
	<ele>1795.00</ele>
	<time>2023-11-18T10:41:55.000Z</time>
</trkpt>
<trkpt lat="45.9014840" lon="9.8273610">
	<ele>1795.20</ele>
	<time>2023-11-18T10:41:56.000Z</time>
</trkpt>
<trkpt lat="45.9014840" lon="9.8273540">
	<ele>1795.40</ele>
	<time>2023-11-18T10:41:57.000Z</time>
</trkpt>
<trkpt lat="45.9014830" lon="9.8273470">
	<ele>1795.40</ele>
	<time>2023-11-18T10:41:58.000Z</time>
</trkpt>
<trkpt lat="45.9014820" lon="9.8273440">
	<ele>1795.40</ele>
	<time>2023-11-18T10:41:59.000Z</time>
</trkpt>
<trkpt lat="45.9014790" lon="9.8273410">
	<ele>1795.60</ele>
	<time>2023-11-18T10:42:00.000Z</time>
</trkpt>
<trkpt lat="45.9014770" lon="9.8273360">
	<ele>1795.60</ele>
	<time>2023-11-18T10:42:01.000Z</time>
</trkpt>
<trkpt lat="45.9014750" lon="9.8273310">
	<ele>1796.00</ele>
	<time>2023-11-18T10:42:02.000Z</time>
</trkpt>
<trkpt lat="45.9014730" lon="9.8273280">
	<ele>1796.20</ele>
	<time>2023-11-18T10:42:03.000Z</time>
</trkpt>
<trkpt lat="45.9014700" lon="9.8273260">
	<ele>1796.40</ele>
	<time>2023-11-18T10:42:04.000Z</time>
</trkpt>
<trkpt lat="45.9014680" lon="9.8273250">
	<ele>1796.60</ele>
	<time>2023-11-18T10:42:05.000Z</time>
</trkpt>
<trkpt lat="45.9014640" lon="9.8273230">
	<ele>1796.60</ele>
	<time>2023-11-18T10:42:06.000Z</time>
</trkpt>
<trkpt lat="45.9014630" lon="9.8273170">
	<ele>1796.60</ele>
	<time>2023-11-18T10:42:07.000Z</time>
</trkpt>
<trkpt lat="45.9014590" lon="9.8273110">
	<ele>1797.20</ele>
	<time>2023-11-18T10:42:08.000Z</time>
</trkpt>
<trkpt lat="45.9014550" lon="9.8273060">
	<ele>1797.40</ele>
	<time>2023-11-18T10:42:09.000Z</time>
</trkpt>
<trkpt lat="45.9014510" lon="9.8273020">
	<ele>1797.60</ele>
	<time>2023-11-18T10:42:10.000Z</time>
</trkpt>
<trkpt lat="45.9014460" lon="9.8272980">
	<ele>1797.60</ele>
	<time>2023-11-18T10:42:11.000Z</time>
</trkpt>
<trkpt lat="45.9014440" lon="9.8272940">
	<ele>1797.60</ele>
	<time>2023-11-18T10:42:12.000Z</time>
</trkpt>
<trkpt lat="45.9014390" lon="9.8272910">
	<ele>1797.40</ele>
	<time>2023-11-18T10:42:13.000Z</time>
</trkpt>
<trkpt lat="45.9014350" lon="9.8272860">
	<ele>1797.40</ele>
	<time>2023-11-18T10:42:14.000Z</time>
</trkpt>
<trkpt lat="45.9014310" lon="9.8272760">
	<ele>1797.20</ele>
	<time>2023-11-18T10:42:15.000Z</time>
</trkpt>
<trkpt lat="45.9014250" lon="9.8272500">
	<ele>1797.00</ele>
	<time>2023-11-18T10:42:16.000Z</time>
</trkpt>
<trkpt lat="45.9014190" lon="9.8272270">
	<ele>1796.80</ele>
	<time>2023-11-18T10:42:17.000Z</time>
</trkpt>
<trkpt lat="45.9014150" lon="9.8272040">
	<ele>1796.80</ele>
	<time>2023-11-18T10:42:18.000Z</time>
</trkpt>
<trkpt lat="45.9014120" lon="9.8271850">
	<ele>1796.80</ele>
	<time>2023-11-18T10:42:19.000Z</time>
</trkpt>
<trkpt lat="45.9014110" lon="9.8271660">
	<ele>1796.80</ele>
	<time>2023-11-18T10:42:20.000Z</time>
</trkpt>
<trkpt lat="45.9014100" lon="9.8271480">
	<ele>1796.80</ele>
	<time>2023-11-18T10:42:21.000Z</time>
</trkpt>
<trkpt lat="45.9014070" lon="9.8271280">
	<ele>1797.00</ele>
	<time>2023-11-18T10:42:22.000Z</time>
</trkpt>
<trkpt lat="45.9013980" lon="9.8271080">
	<ele>1797.00</ele>
	<time>2023-11-18T10:42:23.000Z</time>
</trkpt>
<trkpt lat="45.9013910" lon="9.8270880">
	<ele>1797.20</ele>
	<time>2023-11-18T10:42:24.000Z</time>
</trkpt>
<trkpt lat="45.9013880" lon="9.8270810">
	<ele>1797.20</ele>
	<time>2023-11-18T10:42:25.000Z</time>
</trkpt>
<trkpt lat="45.9013850" lon="9.8270760">
	<ele>1797.20</ele>
	<time>2023-11-18T10:42:26.000Z</time>
</trkpt>
<trkpt lat="45.9013850" lon="9.8270680">
	<ele>1797.40</ele>
	<time>2023-11-18T10:42:27.000Z</time>
</trkpt>
<trkpt lat="45.9013850" lon="9.8270560">
	<ele>1797.40</ele>
	<time>2023-11-18T10:42:28.000Z</time>
</trkpt>
<trkpt lat="45.9013870" lon="9.8270430">
	<ele>1797.40</ele>
	<time>2023-11-18T10:42:29.000Z</time>
</trkpt>
<trkpt lat="45.9013910" lon="9.8270240">
	<ele>1797.40</ele>
	<time>2023-11-18T10:42:30.000Z</time>
</trkpt>
<trkpt lat="45.9013920" lon="9.8270110">
	<ele>1797.40</ele>
	<time>2023-11-18T10:42:31.000Z</time>
</trkpt>
<trkpt lat="45.9013920" lon="9.8269960">
	<ele>1797.40</ele>
	<time>2023-11-18T10:42:32.000Z</time>
</trkpt>
<trkpt lat="45.9013950" lon="9.8269820">
	<ele>1797.40</ele>
	<time>2023-11-18T10:42:33.000Z</time>
</trkpt>
<trkpt lat="45.9013950" lon="9.8269670">
	<ele>1797.40</ele>
	<time>2023-11-18T10:42:34.000Z</time>
</trkpt>
<trkpt lat="45.9013950" lon="9.8269540">
	<ele>1797.40</ele>
	<time>2023-11-18T10:42:35.000Z</time>
</trkpt>
<trkpt lat="45.9013950" lon="9.8269430">
	<ele>1797.40</ele>
	<time>2023-11-18T10:42:36.000Z</time>
</trkpt>
<trkpt lat="45.9013990" lon="9.8269310">
	<ele>1797.20</ele>
	<time>2023-11-18T10:42:37.000Z</time>
</trkpt>
<trkpt lat="45.9014000" lon="9.8269230">
	<ele>1797.20</ele>
	<time>2023-11-18T10:42:38.000Z</time>
</trkpt>
<trkpt lat="45.9013990" lon="9.8269200">
	<ele>1797.00</ele>
	<time>2023-11-18T10:42:39.000Z</time>
</trkpt>
<trkpt lat="45.9013970" lon="9.8269180">
	<ele>1797.00</ele>
	<time>2023-11-18T10:42:40.000Z</time>
</trkpt>
<trkpt lat="45.9013970" lon="9.8269190">
	<ele>1797.00</ele>
	<time>2023-11-18T10:42:41.000Z</time>
</trkpt>
<trkpt lat="45.9013980" lon="9.8269200">
	<ele>1796.80</ele>
	<time>2023-11-18T10:42:42.000Z</time>
</trkpt>
<trkpt lat="45.9013980" lon="9.8269200">
	<ele>1796.80</ele>
	<time>2023-11-18T10:42:43.000Z</time>
</trkpt>
<trkpt lat="45.9013980" lon="9.8269220">
	<ele>1796.80</ele>
	<time>2023-11-18T10:42:44.000Z</time>
</trkpt>
<trkpt lat="45.9013970" lon="9.8269240">
	<ele>1796.80</ele>
	<time>2023-11-18T10:42:45.000Z</time>
</trkpt>
<trkpt lat="45.9013950" lon="9.8269250">
	<ele>1797.20</ele>
	<time>2023-11-18T10:42:46.000Z</time>
</trkpt>
<trkpt lat="45.9013940" lon="9.8269250">
	<ele>1797.40</ele>
	<time>2023-11-18T10:42:47.000Z</time>
</trkpt>
<trkpt lat="45.9013930" lon="9.8269240">
	<ele>1797.40</ele>
	<time>2023-11-18T10:42:48.000Z</time>
</trkpt>
<trkpt lat="45.9013920" lon="9.8269220">
	<ele>1797.60</ele>
	<time>2023-11-18T10:42:49.000Z</time>
</trkpt>
<trkpt lat="45.9013910" lon="9.8269210">
	<ele>1797.60</ele>
	<time>2023-11-18T10:42:50.000Z</time>
</trkpt>
<trkpt lat="45.9013910" lon="9.8269190">
	<ele>1797.60</ele>
	<time>2023-11-18T10:42:51.000Z</time>
</trkpt>
<trkpt lat="45.9013920" lon="9.8269200">
	<ele>1797.60</ele>
	<time>2023-11-18T10:42:52.000Z</time>
</trkpt>
<trkpt lat="45.9013930" lon="9.8269190">
	<ele>1797.40</ele>
	<time>2023-11-18T10:42:53.000Z</time>
</trkpt>
<trkpt lat="45.9013960" lon="9.8269160">
	<ele>1797.40</ele>
	<time>2023-11-18T10:42:54.000Z</time>
</trkpt>
<trkpt lat="45.9014030" lon="9.8269140">
	<ele>1797.20</ele>
	<time>2023-11-18T10:42:55.000Z</time>
</trkpt>
<trkpt lat="45.9014090" lon="9.8269080">
	<ele>1797.00</ele>
	<time>2023-11-18T10:42:56.000Z</time>
</trkpt>
<trkpt lat="45.9014130" lon="9.8268980">
	<ele>1796.80</ele>
	<time>2023-11-18T10:42:57.000Z</time>
</trkpt>
<trkpt lat="45.9014140" lon="9.8268830">
	<ele>1796.60</ele>
	<time>2023-11-18T10:42:58.000Z</time>
</trkpt>
<trkpt lat="45.9014120" lon="9.8268660">
	<ele>1796.60</ele>
	<time>2023-11-18T10:42:59.000Z</time>
</trkpt>
<trkpt lat="45.9014070" lon="9.8268510">
	<ele>1796.40</ele>
	<time>2023-11-18T10:43:00.000Z</time>
</trkpt>
<trkpt lat="45.9014000" lon="9.8268400">
	<ele>1796.40</ele>
	<time>2023-11-18T10:43:01.000Z</time>
</trkpt>
<trkpt lat="45.9013940" lon="9.8268290">
	<ele>1796.20</ele>
	<time>2023-11-18T10:43:02.000Z</time>
</trkpt>
<trkpt lat="45.9013880" lon="9.8268190">
	<ele>1796.20</ele>
	<time>2023-11-18T10:43:03.000Z</time>
</trkpt>
<trkpt lat="45.9013870" lon="9.8268120">
	<ele>1796.20</ele>
	<time>2023-11-18T10:43:04.000Z</time>
</trkpt>
<trkpt lat="45.9013830" lon="9.8267980">
	<ele>1796.20</ele>
	<time>2023-11-18T10:43:05.000Z</time>
</trkpt>
<trkpt lat="45.9013800" lon="9.8267870">
	<ele>1796.40</ele>
	<time>2023-11-18T10:43:06.000Z</time>
</trkpt>
<trkpt lat="45.9013740" lon="9.8267730">
	<ele>1796.60</ele>
	<time>2023-11-18T10:43:07.000Z</time>
</trkpt>
<trkpt lat="45.9013670" lon="9.8267660">
	<ele>1796.60</ele>
	<time>2023-11-18T10:43:08.000Z</time>
</trkpt>
<trkpt lat="45.9013640" lon="9.8267570">
	<ele>1796.60</ele>
	<time>2023-11-18T10:43:09.000Z</time>
</trkpt>
<trkpt lat="45.9013650" lon="9.8267430">
	<ele>1796.80</ele>
	<time>2023-11-18T10:43:10.000Z</time>
</trkpt>
<trkpt lat="45.9013660" lon="9.8267280">
	<ele>1796.80</ele>
	<time>2023-11-18T10:43:11.000Z</time>
</trkpt>
<trkpt lat="45.9013690" lon="9.8267120">
	<ele>1797.00</ele>
	<time>2023-11-18T10:43:12.000Z</time>
</trkpt>
<trkpt lat="45.9013710" lon="9.8267020">
	<ele>1797.00</ele>
	<time>2023-11-18T10:43:13.000Z</time>
</trkpt>
<trkpt lat="45.9013730" lon="9.8266910">
	<ele>1797.00</ele>
	<time>2023-11-18T10:43:14.000Z</time>
</trkpt>
<trkpt lat="45.9013700" lon="9.8266830">
	<ele>1797.20</ele>
	<time>2023-11-18T10:43:15.000Z</time>
</trkpt>
<trkpt lat="45.9013710" lon="9.8266770">
	<ele>1797.20</ele>
	<time>2023-11-18T10:43:16.000Z</time>
</trkpt>
<trkpt lat="45.9013710" lon="9.8266740">
	<ele>1797.40</ele>
	<time>2023-11-18T10:43:17.000Z</time>
</trkpt>
<trkpt lat="45.9013710" lon="9.8266730">
	<ele>1797.40</ele>
	<time>2023-11-18T10:43:18.000Z</time>
</trkpt>
<trkpt lat="45.9013700" lon="9.8266730">
	<ele>1797.40</ele>
	<time>2023-11-18T10:43:19.000Z</time>
</trkpt>
<trkpt lat="45.9013690" lon="9.8266710">
	<ele>1797.40</ele>
	<time>2023-11-18T10:43:20.000Z</time>
</trkpt>
<trkpt lat="45.9013680" lon="9.8266670">
	<ele>1797.40</ele>
	<time>2023-11-18T10:43:21.000Z</time>
</trkpt>
<trkpt lat="45.9013670" lon="9.8266610">
	<ele>1797.40</ele>
	<time>2023-11-18T10:43:22.000Z</time>
</trkpt>
<trkpt lat="45.9013650" lon="9.8266520">
	<ele>1797.40</ele>
	<time>2023-11-18T10:43:23.000Z</time>
</trkpt>
<trkpt lat="45.9013610" lon="9.8266450">
	<ele>1797.40</ele>
	<time>2023-11-18T10:43:24.000Z</time>
</trkpt>
<trkpt lat="45.9013560" lon="9.8266380">
	<ele>1797.40</ele>
	<time>2023-11-18T10:43:25.000Z</time>
</trkpt>
<trkpt lat="45.9013520" lon="9.8266340">
	<ele>1797.20</ele>
	<time>2023-11-18T10:43:26.000Z</time>
</trkpt>
<trkpt lat="45.9013470" lon="9.8266270">
	<ele>1796.80</ele>
	<time>2023-11-18T10:43:27.000Z</time>
</trkpt>
<trkpt lat="45.9013420" lon="9.8266190">
	<ele>1796.60</ele>
	<time>2023-11-18T10:43:28.000Z</time>
</trkpt>
<trkpt lat="45.9013370" lon="9.8266080">
	<ele>1796.40</ele>
	<time>2023-11-18T10:43:29.000Z</time>
</trkpt>
<trkpt lat="45.9013300" lon="9.8265940">
	<ele>1796.20</ele>
	<time>2023-11-18T10:43:30.000Z</time>
</trkpt>
<trkpt lat="45.9013270" lon="9.8265760">
	<ele>1796.00</ele>
	<time>2023-11-18T10:43:31.000Z</time>
</trkpt>
<trkpt lat="45.9013250" lon="9.8265640">
	<ele>1795.80</ele>
	<time>2023-11-18T10:43:32.000Z</time>
</trkpt>
<trkpt lat="45.9013250" lon="9.8265490">
	<ele>1795.60</ele>
	<time>2023-11-18T10:43:33.000Z</time>
</trkpt>
<trkpt lat="45.9013260" lon="9.8265330">
	<ele>1795.60</ele>
	<time>2023-11-18T10:43:34.000Z</time>
</trkpt>
<trkpt lat="45.9013270" lon="9.8265180">
	<ele>1795.60</ele>
	<time>2023-11-18T10:43:35.000Z</time>
</trkpt>
<trkpt lat="45.9013270" lon="9.8265040">
	<ele>1795.60</ele>
	<time>2023-11-18T10:43:36.000Z</time>
</trkpt>
<trkpt lat="45.9013300" lon="9.8264890">
	<ele>1795.60</ele>
	<time>2023-11-18T10:43:37.000Z</time>
</trkpt>
<trkpt lat="45.9013340" lon="9.8264790">
	<ele>1795.60</ele>
	<time>2023-11-18T10:43:38.000Z</time>
</trkpt>
<trkpt lat="45.9013370" lon="9.8264700">
	<ele>1795.80</ele>
	<time>2023-11-18T10:43:39.000Z</time>
</trkpt>
<trkpt lat="45.9013380" lon="9.8264600">
	<ele>1795.80</ele>
	<time>2023-11-18T10:43:40.000Z</time>
</trkpt>
<trkpt lat="45.9013380" lon="9.8264530">
	<ele>1795.80</ele>
	<time>2023-11-18T10:43:41.000Z</time>
</trkpt>
<trkpt lat="45.9013430" lon="9.8264450">
	<ele>1796.00</ele>
	<time>2023-11-18T10:43:42.000Z</time>
</trkpt>
<trkpt lat="45.9013450" lon="9.8264320">
	<ele>1796.00</ele>
	<time>2023-11-18T10:43:43.000Z</time>
</trkpt>
<trkpt lat="45.9013490" lon="9.8264190">
	<ele>1796.20</ele>
	<time>2023-11-18T10:43:44.000Z</time>
</trkpt>
<trkpt lat="45.9013510" lon="9.8264070">
	<ele>1796.40</ele>
	<time>2023-11-18T10:43:45.000Z</time>
</trkpt>
<trkpt lat="45.9013540" lon="9.8263920">
	<ele>1796.60</ele>
	<time>2023-11-18T10:43:46.000Z</time>
</trkpt>
<trkpt lat="45.9013490" lon="9.8263760">
	<ele>1796.60</ele>
	<time>2023-11-18T10:43:47.000Z</time>
</trkpt>
<trkpt lat="45.9013410" lon="9.8263660">
	<ele>1796.60</ele>
	<time>2023-11-18T10:43:48.000Z</time>
</trkpt>
<trkpt lat="45.9013290" lon="9.8263610">
	<ele>1796.60</ele>
	<time>2023-11-18T10:43:49.000Z</time>
</trkpt>
<trkpt lat="45.9013190" lon="9.8263590">
	<ele>1796.60</ele>
	<time>2023-11-18T10:43:50.000Z</time>
</trkpt>
<trkpt lat="45.9013090" lon="9.8263540">
	<ele>1796.60</ele>
	<time>2023-11-18T10:43:51.000Z</time>
</trkpt>
<trkpt lat="45.9013000" lon="9.8263480">
	<ele>1796.60</ele>
	<time>2023-11-18T10:43:52.000Z</time>
</trkpt>
<trkpt lat="45.9012940" lon="9.8263400">
	<ele>1796.60</ele>
	<time>2023-11-18T10:43:53.000Z</time>
</trkpt>
<trkpt lat="45.9012920" lon="9.8263310">
	<ele>1796.60</ele>
	<time>2023-11-18T10:43:54.000Z</time>
</trkpt>
<trkpt lat="45.9012930" lon="9.8263190">
	<ele>1796.60</ele>
	<time>2023-11-18T10:43:55.000Z</time>
</trkpt>
<trkpt lat="45.9012970" lon="9.8263110">
	<ele>1796.60</ele>
	<time>2023-11-18T10:43:56.000Z</time>
</trkpt>
<trkpt lat="45.9013010" lon="9.8263010">
	<ele>1796.60</ele>
	<time>2023-11-18T10:43:57.000Z</time>
</trkpt>
<trkpt lat="45.9013050" lon="9.8262920">
	<ele>1796.60</ele>
	<time>2023-11-18T10:43:58.000Z</time>
</trkpt>
<trkpt lat="45.9013030" lon="9.8262810">
	<ele>1796.80</ele>
	<time>2023-11-18T10:43:59.000Z</time>
</trkpt>
<trkpt lat="45.9013020" lon="9.8262680">
	<ele>1797.00</ele>
	<time>2023-11-18T10:44:00.000Z</time>
</trkpt>
<trkpt lat="45.9012980" lon="9.8262560">
	<ele>1797.00</ele>
	<time>2023-11-18T10:44:01.000Z</time>
</trkpt>
<trkpt lat="45.9012940" lon="9.8262460">
	<ele>1797.40</ele>
	<time>2023-11-18T10:44:02.000Z</time>
</trkpt>
<trkpt lat="45.9012910" lon="9.8262410">
	<ele>1797.80</ele>
	<time>2023-11-18T10:44:03.000Z</time>
</trkpt>
<trkpt lat="45.9012880" lon="9.8262370">
	<ele>1798.00</ele>
	<time>2023-11-18T10:44:04.000Z</time>
</trkpt>
<trkpt lat="45.9012850" lon="9.8262320">
	<ele>1798.40</ele>
	<time>2023-11-18T10:44:05.000Z</time>
</trkpt>
<trkpt lat="45.9012830" lon="9.8262270">
	<ele>1798.60</ele>
	<time>2023-11-18T10:44:06.000Z</time>
</trkpt>
<trkpt lat="45.9012810" lon="9.8262230">
	<ele>1798.80</ele>
	<time>2023-11-18T10:44:07.000Z</time>
</trkpt>
<trkpt lat="45.9012840" lon="9.8262150">
	<ele>1798.80</ele>
	<time>2023-11-18T10:44:08.000Z</time>
</trkpt>
<trkpt lat="45.9012860" lon="9.8262100">
	<ele>1799.00</ele>
	<time>2023-11-18T10:44:09.000Z</time>
</trkpt>
<trkpt lat="45.9012860" lon="9.8262020">
	<ele>1799.20</ele>
	<time>2023-11-18T10:44:10.000Z</time>
</trkpt>
<trkpt lat="45.9012860" lon="9.8261900">
	<ele>1799.40</ele>
	<time>2023-11-18T10:44:11.000Z</time>
</trkpt>
<trkpt lat="45.9012820" lon="9.8261780">
	<ele>1799.60</ele>
	<time>2023-11-18T10:44:12.000Z</time>
</trkpt>
<trkpt lat="45.9012750" lon="9.8261690">
	<ele>1799.80</ele>
	<time>2023-11-18T10:44:13.000Z</time>
</trkpt>
<trkpt lat="45.9012670" lon="9.8261620">
	<ele>1800.00</ele>
	<time>2023-11-18T10:44:14.000Z</time>
</trkpt>
<trkpt lat="45.9012650" lon="9.8261580">
	<ele>1800.00</ele>
	<time>2023-11-18T10:44:15.000Z</time>
</trkpt>
<trkpt lat="45.9012650" lon="9.8261490">
	<ele>1800.20</ele>
	<time>2023-11-18T10:44:16.000Z</time>
</trkpt>
<trkpt lat="45.9012640" lon="9.8261400">
	<ele>1800.20</ele>
	<time>2023-11-18T10:44:17.000Z</time>
</trkpt>
<trkpt lat="45.9012620" lon="9.8261310">
	<ele>1800.20</ele>
	<time>2023-11-18T10:44:18.000Z</time>
</trkpt>
<trkpt lat="45.9012600" lon="9.8261250">
	<ele>1800.20</ele>
	<time>2023-11-18T10:44:19.000Z</time>
</trkpt>
<trkpt lat="45.9012580" lon="9.8261200">
	<ele>1800.40</ele>
	<time>2023-11-18T10:44:20.000Z</time>
</trkpt>
<trkpt lat="45.9012560" lon="9.8261130">
	<ele>1800.60</ele>
	<time>2023-11-18T10:44:21.000Z</time>
</trkpt>
<trkpt lat="45.9012520" lon="9.8261050">
	<ele>1800.60</ele>
	<time>2023-11-18T10:44:22.000Z</time>
</trkpt>
<trkpt lat="45.9012490" lon="9.8260960">
	<ele>1800.80</ele>
	<time>2023-11-18T10:44:23.000Z</time>
</trkpt>
<trkpt lat="45.9012480" lon="9.8260920">
	<ele>1801.00</ele>
	<time>2023-11-18T10:44:24.000Z</time>
</trkpt>
<trkpt lat="45.9012480" lon="9.8260900">
	<ele>1801.00</ele>
	<time>2023-11-18T10:44:25.000Z</time>
</trkpt>
<trkpt lat="45.9012470" lon="9.8260870">
	<ele>1801.20</ele>
	<time>2023-11-18T10:44:26.000Z</time>
</trkpt>
<trkpt lat="45.9012460" lon="9.8260850">
	<ele>1801.20</ele>
	<time>2023-11-18T10:44:27.000Z</time>
</trkpt>
<trkpt lat="45.9012460" lon="9.8260830">
	<ele>1801.60</ele>
	<time>2023-11-18T10:44:28.000Z</time>
</trkpt>
<trkpt lat="45.9012460" lon="9.8260840">
	<ele>1801.60</ele>
	<time>2023-11-18T10:44:29.000Z</time>
</trkpt>
<trkpt lat="45.9012470" lon="9.8260840">
	<ele>1801.80</ele>
	<time>2023-11-18T10:44:30.000Z</time>
</trkpt>
<trkpt lat="45.9012480" lon="9.8260850">
	<ele>1801.80</ele>
	<time>2023-11-18T10:44:31.000Z</time>
</trkpt>
<trkpt lat="45.9012480" lon="9.8260830">
	<ele>1801.80</ele>
	<time>2023-11-18T10:44:32.000Z</time>
</trkpt>
<trkpt lat="45.9012460" lon="9.8260770">
	<ele>1801.80</ele>
	<time>2023-11-18T10:44:33.000Z</time>
</trkpt>
<trkpt lat="45.9012420" lon="9.8260760">
	<ele>1801.80</ele>
	<time>2023-11-18T10:44:34.000Z</time>
</trkpt>
<trkpt lat="45.9012350" lon="9.8260760">
	<ele>1801.80</ele>
	<time>2023-11-18T10:44:35.000Z</time>
</trkpt>
<trkpt lat="45.9012310" lon="9.8260730">
	<ele>1801.80</ele>
	<time>2023-11-18T10:44:36.000Z</time>
</trkpt>
<trkpt lat="45.9012270" lon="9.8260710">
	<ele>1801.80</ele>
	<time>2023-11-18T10:44:37.000Z</time>
</trkpt>
<trkpt lat="45.9012230" lon="9.8260670">
	<ele>1802.00</ele>
	<time>2023-11-18T10:44:38.000Z</time>
</trkpt>
<trkpt lat="45.9012170" lon="9.8260630">
	<ele>1802.00</ele>
	<time>2023-11-18T10:44:39.000Z</time>
</trkpt>
<trkpt lat="45.9012110" lon="9.8260580">
	<ele>1802.20</ele>
	<time>2023-11-18T10:44:40.000Z</time>
</trkpt>
<trkpt lat="45.9012040" lon="9.8260540">
	<ele>1802.40</ele>
	<time>2023-11-18T10:44:41.000Z</time>
</trkpt>
<trkpt lat="45.9012000" lon="9.8260490">
	<ele>1802.60</ele>
	<time>2023-11-18T10:44:42.000Z</time>
</trkpt>
<trkpt lat="45.9011950" lon="9.8260500">
	<ele>1802.60</ele>
	<time>2023-11-18T10:44:43.000Z</time>
</trkpt>
<trkpt lat="45.9011920" lon="9.8260470">
	<ele>1802.60</ele>
	<time>2023-11-18T10:44:44.000Z</time>
</trkpt>
<trkpt lat="45.9011910" lon="9.8260460">
	<ele>1802.60</ele>
	<time>2023-11-18T10:44:45.000Z</time>
</trkpt>
<trkpt lat="45.9011880" lon="9.8260440">
	<ele>1802.60</ele>
	<time>2023-11-18T10:44:46.000Z</time>
</trkpt>
<trkpt lat="45.9011840" lon="9.8260430">
	<ele>1802.60</ele>
	<time>2023-11-18T10:44:47.000Z</time>
</trkpt>
<trkpt lat="45.9011790" lon="9.8260360">
	<ele>1802.60</ele>
	<time>2023-11-18T10:44:48.000Z</time>
</trkpt>
<trkpt lat="45.9011750" lon="9.8260320">
	<ele>1802.60</ele>
	<time>2023-11-18T10:44:49.000Z</time>
</trkpt>
<trkpt lat="45.9011730" lon="9.8260310">
	<ele>1802.60</ele>
	<time>2023-11-18T10:44:50.000Z</time>
</trkpt>
<trkpt lat="45.9011720" lon="9.8260320">
	<ele>1802.60</ele>
	<time>2023-11-18T10:44:51.000Z</time>
</trkpt>
<trkpt lat="45.9011730" lon="9.8260360">
	<ele>1802.60</ele>
	<time>2023-11-18T10:44:52.000Z</time>
</trkpt>
<trkpt lat="45.9011710" lon="9.8260370">
	<ele>1802.60</ele>
	<time>2023-11-18T10:44:53.000Z</time>
</trkpt>
<trkpt lat="45.9011690" lon="9.8260380">
	<ele>1802.60</ele>
	<time>2023-11-18T10:44:54.000Z</time>
</trkpt>
<trkpt lat="45.9011680" lon="9.8260400">
	<ele>1802.60</ele>
	<time>2023-11-18T10:44:55.000Z</time>
</trkpt>
<trkpt lat="45.9011670" lon="9.8260420">
	<ele>1802.60</ele>
	<time>2023-11-18T10:44:56.000Z</time>
</trkpt>
<trkpt lat="45.9011660" lon="9.8260410">
	<ele>1802.60</ele>
	<time>2023-11-18T10:44:57.000Z</time>
</trkpt>
<trkpt lat="45.9011660" lon="9.8260410">
	<ele>1802.40</ele>
	<time>2023-11-18T10:44:58.000Z</time>
</trkpt>
<trkpt lat="45.9011660" lon="9.8260410">
	<ele>1802.40</ele>
	<time>2023-11-18T10:44:59.000Z</time>
</trkpt>
<trkpt lat="45.9011660" lon="9.8260400">
	<ele>1802.40</ele>
	<time>2023-11-18T10:45:00.000Z</time>
</trkpt>
<trkpt lat="45.9011660" lon="9.8260400">
	<ele>1802.40</ele>
	<time>2023-11-18T10:45:01.000Z</time>
</trkpt>
<trkpt lat="45.9011660" lon="9.8260400">
	<ele>1802.40</ele>
	<time>2023-11-18T10:45:02.000Z</time>
</trkpt>
<trkpt lat="45.9011660" lon="9.8260400">
	<ele>1802.40</ele>
	<time>2023-11-18T10:45:03.000Z</time>
</trkpt>
<trkpt lat="45.9011660" lon="9.8260400">
	<ele>1802.40</ele>
	<time>2023-11-18T10:45:04.000Z</time>
</trkpt>
<trkpt lat="45.9011660" lon="9.8260400">
	<ele>1802.40</ele>
	<time>2023-11-18T10:45:05.000Z</time>
</trkpt>
<trkpt lat="45.9011660" lon="9.8260400">
	<ele>1802.40</ele>
	<time>2023-11-18T10:45:06.000Z</time>
</trkpt>
<trkpt lat="45.9011660" lon="9.8260400">
	<ele>1802.40</ele>
	<time>2023-11-18T10:45:07.000Z</time>
</trkpt>
<trkpt lat="45.9011660" lon="9.8260400">
	<ele>1802.40</ele>
	<time>2023-11-18T10:45:08.000Z</time>
</trkpt>
<trkpt lat="45.9011660" lon="9.8260400">
	<ele>1802.40</ele>
	<time>2023-11-18T10:45:09.000Z</time>
</trkpt>
<trkpt lat="45.9011660" lon="9.8260400">
	<ele>1802.40</ele>
	<time>2023-11-18T10:45:10.000Z</time>
</trkpt>
<trkpt lat="45.9011660" lon="9.8260400">
	<ele>1802.40</ele>
	<time>2023-11-18T10:45:11.000Z</time>
</trkpt>
<trkpt lat="45.9011660" lon="9.8260400">
	<ele>1802.40</ele>
	<time>2023-11-18T10:45:12.000Z</time>
</trkpt>
<trkpt lat="45.9011660" lon="9.8260400">
	<ele>1802.40</ele>
	<time>2023-11-18T10:45:13.000Z</time>
</trkpt>
<trkpt lat="45.9011620" lon="9.8260380">
	<ele>1802.40</ele>
	<time>2023-11-18T10:45:14.000Z</time>
</trkpt>
<trkpt lat="45.9011500" lon="9.8260280">
	<ele>1802.40</ele>
	<time>2023-11-18T10:45:15.000Z</time>
</trkpt>
<trkpt lat="45.9011400" lon="9.8260170">
	<ele>1802.40</ele>
	<time>2023-11-18T10:45:16.000Z</time>
</trkpt>
<trkpt lat="45.9011300" lon="9.8260070">
	<ele>1802.40</ele>
	<time>2023-11-18T10:45:17.000Z</time>
</trkpt>
<trkpt lat="45.9011190" lon="9.8259990">
	<ele>1802.40</ele>
	<time>2023-11-18T10:45:18.000Z</time>
</trkpt>
<trkpt lat="45.9011090" lon="9.8259880">
	<ele>1802.40</ele>
	<time>2023-11-18T10:45:19.000Z</time>
</trkpt>
<trkpt lat="45.9011000" lon="9.8259780">
	<ele>1802.40</ele>
	<time>2023-11-18T10:45:20.000Z</time>
</trkpt>
<trkpt lat="45.9010910" lon="9.8259660">
	<ele>1802.40</ele>
	<time>2023-11-18T10:45:21.000Z</time>
</trkpt>
<trkpt lat="45.9010850" lon="9.8259570">
	<ele>1802.40</ele>
	<time>2023-11-18T10:45:22.000Z</time>
</trkpt>
<trkpt lat="45.9010760" lon="9.8259480">
	<ele>1802.40</ele>
	<time>2023-11-18T10:45:23.000Z</time>
</trkpt>
<trkpt lat="45.9010770" lon="9.8259390">
	<ele>1802.40</ele>
	<time>2023-11-18T10:45:24.000Z</time>
</trkpt>
<trkpt lat="45.9010780" lon="9.8259320">
	<ele>1802.40</ele>
	<time>2023-11-18T10:45:25.000Z</time>
</trkpt>
<trkpt lat="45.9010810" lon="9.8259300">
	<ele>1802.40</ele>
	<time>2023-11-18T10:45:26.000Z</time>
</trkpt>
<trkpt lat="45.9010830" lon="9.8259260">
	<ele>1802.40</ele>
	<time>2023-11-18T10:45:27.000Z</time>
</trkpt>
<trkpt lat="45.9010860" lon="9.8259270">
	<ele>1802.40</ele>
	<time>2023-11-18T10:45:28.000Z</time>
</trkpt>
<trkpt lat="45.9010850" lon="9.8259230">
	<ele>1802.40</ele>
	<time>2023-11-18T10:45:29.000Z</time>
</trkpt>
<trkpt lat="45.9010860" lon="9.8259230">
	<ele>1802.40</ele>
	<time>2023-11-18T10:45:30.000Z</time>
</trkpt>
<trkpt lat="45.9010860" lon="9.8259250">
	<ele>1802.40</ele>
	<time>2023-11-18T10:45:31.000Z</time>
</trkpt>
<trkpt lat="45.9010860" lon="9.8259250">
	<ele>1802.40</ele>
	<time>2023-11-18T10:45:32.000Z</time>
</trkpt>
<trkpt lat="45.9010820" lon="9.8259240">
	<ele>1802.40</ele>
	<time>2023-11-18T10:45:33.000Z</time>
</trkpt>
<trkpt lat="45.9010800" lon="9.8259240">
	<ele>1802.40</ele>
	<time>2023-11-18T10:45:34.000Z</time>
</trkpt>
<trkpt lat="45.9010800" lon="9.8259240">
	<ele>1802.20</ele>
	<time>2023-11-18T10:45:35.000Z</time>
</trkpt>
<trkpt lat="45.9010800" lon="9.8259240">
	<ele>1802.20</ele>
	<time>2023-11-18T10:45:36.000Z</time>
</trkpt>
<trkpt lat="45.9010800" lon="9.8259240">
	<ele>1802.20</ele>
	<time>2023-11-18T10:45:37.000Z</time>
</trkpt>
<trkpt lat="45.9010800" lon="9.8259240">
	<ele>1802.20</ele>
	<time>2023-11-18T10:45:38.000Z</time>
</trkpt>
<trkpt lat="45.9010800" lon="9.8259240">
	<ele>1802.20</ele>
	<time>2023-11-18T10:45:39.000Z</time>
</trkpt>
<trkpt lat="45.9010800" lon="9.8259240">
	<ele>1802.20</ele>
	<time>2023-11-18T10:45:40.000Z</time>
</trkpt>
<trkpt lat="45.9010800" lon="9.8259240">
	<ele>1802.20</ele>
	<time>2023-11-18T10:45:41.000Z</time>
</trkpt>
<trkpt lat="45.9010800" lon="9.8259240">
	<ele>1802.20</ele>
	<time>2023-11-18T10:45:42.000Z</time>
</trkpt>
<trkpt lat="45.9010800" lon="9.8259240">
	<ele>1802.20</ele>
	<time>2023-11-18T10:45:43.000Z</time>
</trkpt>
<trkpt lat="45.9010800" lon="9.8259240">
	<ele>1802.20</ele>
	<time>2023-11-18T10:45:44.000Z</time>
</trkpt>
<trkpt lat="45.9010800" lon="9.8259240">
	<ele>1802.20</ele>
	<time>2023-11-18T10:45:45.000Z</time>
</trkpt>
<trkpt lat="45.9010800" lon="9.8259240">
	<ele>1802.20</ele>
	<time>2023-11-18T10:45:46.000Z</time>
</trkpt>
<trkpt lat="45.9010800" lon="9.8259240">
	<ele>1802.20</ele>
	<time>2023-11-18T10:45:47.000Z</time>
</trkpt>
<trkpt lat="45.9010800" lon="9.8259240">
	<ele>1802.20</ele>
	<time>2023-11-18T10:45:48.000Z</time>
</trkpt>
<trkpt lat="45.9010800" lon="9.8259240">
	<ele>1802.20</ele>
	<time>2023-11-18T10:45:49.000Z</time>
</trkpt>
<trkpt lat="45.9010800" lon="9.8259240">
	<ele>1802.20</ele>
	<time>2023-11-18T10:45:50.000Z</time>
</trkpt>
<trkpt lat="45.9010800" lon="9.8259240">
	<ele>1802.20</ele>
	<time>2023-11-18T10:45:51.000Z</time>
</trkpt>
<trkpt lat="45.9010800" lon="9.8259240">
	<ele>1802.20</ele>
	<time>2023-11-18T10:45:52.000Z</time>
</trkpt>
<trkpt lat="45.9010800" lon="9.8259240">
	<ele>1802.20</ele>
	<time>2023-11-18T10:45:53.000Z</time>
</trkpt>
<trkpt lat="45.9010800" lon="9.8259240">
	<ele>1802.20</ele>
	<time>2023-11-18T10:45:54.000Z</time>
</trkpt>
<trkpt lat="45.9010800" lon="9.8259240">
	<ele>1802.20</ele>
	<time>2023-11-18T10:45:55.000Z</time>
</trkpt>
<trkpt lat="45.9010800" lon="9.8259240">
	<ele>1802.20</ele>
	<time>2023-11-18T10:45:56.000Z</time>
</trkpt>
<trkpt lat="45.9010800" lon="9.8259240">
	<ele>1802.20</ele>
	<time>2023-11-18T10:45:57.000Z</time>
</trkpt>
<trkpt lat="45.9010800" lon="9.8259240">
	<ele>1802.20</ele>
	<time>2023-11-18T10:45:58.000Z</time>
</trkpt>
<trkpt lat="45.9010800" lon="9.8259230">
	<ele>1802.20</ele>
	<time>2023-11-18T10:45:59.000Z</time>
</trkpt>
<trkpt lat="45.9010790" lon="9.8259220">
	<ele>1802.20</ele>
	<time>2023-11-18T10:46:00.000Z</time>
</trkpt>
<trkpt lat="45.9010790" lon="9.8259220">
	<ele>1802.20</ele>
	<time>2023-11-18T10:46:01.000Z</time>
</trkpt>
<trkpt lat="45.9010790" lon="9.8259220">
	<ele>1802.20</ele>
	<time>2023-11-18T10:46:02.000Z</time>
</trkpt>
<trkpt lat="45.9010780" lon="9.8259220">
	<ele>1802.20</ele>
	<time>2023-11-18T10:46:03.000Z</time>
</trkpt>
<trkpt lat="45.9010780" lon="9.8259220">
	<ele>1802.20</ele>
	<time>2023-11-18T10:46:04.000Z</time>
</trkpt>
<trkpt lat="45.9010780" lon="9.8259210">
	<ele>1802.20</ele>
	<time>2023-11-18T10:46:05.000Z</time>
</trkpt>
<trkpt lat="45.9010780" lon="9.8259210">
	<ele>1802.20</ele>
	<time>2023-11-18T10:46:06.000Z</time>
</trkpt>
<trkpt lat="45.9010780" lon="9.8259210">
	<ele>1802.20</ele>
	<time>2023-11-18T10:46:07.000Z</time>
</trkpt>
<trkpt lat="45.9010780" lon="9.8259210">
	<ele>1802.20</ele>
	<time>2023-11-18T10:46:08.000Z</time>
</trkpt>
<trkpt lat="45.9010780" lon="9.8259210">
	<ele>1802.20</ele>
	<time>2023-11-18T10:46:09.000Z</time>
</trkpt>
<trkpt lat="45.9010780" lon="9.8259210">
	<ele>1802.20</ele>
	<time>2023-11-18T10:46:10.000Z</time>
</trkpt>
<trkpt lat="45.9010780" lon="9.8259210">
	<ele>1802.20</ele>
	<time>2023-11-18T10:46:11.000Z</time>
</trkpt>
<trkpt lat="45.9010790" lon="9.8259210">
	<ele>1802.20</ele>
	<time>2023-11-18T10:46:12.000Z</time>
</trkpt>
<trkpt lat="45.9010790" lon="9.8259210">
	<ele>1802.20</ele>
	<time>2023-11-18T10:46:13.000Z</time>
</trkpt>
<trkpt lat="45.9010790" lon="9.8259210">
	<ele>1802.20</ele>
	<time>2023-11-18T10:46:14.000Z</time>
</trkpt>
<trkpt lat="45.9010790" lon="9.8259210">
	<ele>1802.20</ele>
	<time>2023-11-18T10:46:15.000Z</time>
</trkpt>
<trkpt lat="45.9010790" lon="9.8259210">
	<ele>1802.20</ele>
	<time>2023-11-18T10:46:16.000Z</time>
</trkpt>
<trkpt lat="45.9010790" lon="9.8259210">
	<ele>1802.20</ele>
	<time>2023-11-18T10:46:17.000Z</time>
</trkpt>
<trkpt lat="45.9010790" lon="9.8259210">
	<ele>1802.20</ele>
	<time>2023-11-18T10:46:18.000Z</time>
</trkpt>
<trkpt lat="45.9010790" lon="9.8259210">
	<ele>1802.20</ele>
	<time>2023-11-18T10:46:19.000Z</time>
</trkpt>
<trkpt lat="45.9010790" lon="9.8259210">
	<ele>1802.20</ele>
	<time>2023-11-18T10:46:20.000Z</time>
</trkpt>
<trkpt lat="45.9010790" lon="9.8259210">
	<ele>1802.20</ele>
	<time>2023-11-18T10:46:21.000Z</time>
</trkpt>
<trkpt lat="45.9010790" lon="9.8259210">
	<ele>1802.20</ele>
	<time>2023-11-18T10:46:22.000Z</time>
</trkpt>
<trkpt lat="45.9010790" lon="9.8259220">
	<ele>1802.20</ele>
	<time>2023-11-18T10:46:23.000Z</time>
</trkpt>
<trkpt lat="45.9010790" lon="9.8259220">
	<ele>1802.20</ele>
	<time>2023-11-18T10:46:24.000Z</time>
</trkpt>
<trkpt lat="45.9010790" lon="9.8259220">
	<ele>1802.20</ele>
	<time>2023-11-18T10:46:25.000Z</time>
</trkpt>
<trkpt lat="45.9010790" lon="9.8259220">
	<ele>1802.20</ele>
	<time>2023-11-18T10:46:26.000Z</time>
</trkpt>
<trkpt lat="45.9010790" lon="9.8259220">
	<ele>1802.20</ele>
	<time>2023-11-18T10:46:27.000Z</time>
</trkpt>
<trkpt lat="45.9010790" lon="9.8259220">
	<ele>1802.20</ele>
	<time>2023-11-18T10:46:28.000Z</time>
</trkpt>
<trkpt lat="45.9010790" lon="9.8259220">
	<ele>1802.20</ele>
	<time>2023-11-18T10:46:29.000Z</time>
</trkpt>
<trkpt lat="45.9010800" lon="9.8259220">
	<ele>1802.20</ele>
	<time>2023-11-18T10:46:30.000Z</time>
</trkpt>
<trkpt lat="45.9010800" lon="9.8259220">
	<ele>1802.20</ele>
	<time>2023-11-18T10:46:31.000Z</time>
</trkpt>
<trkpt lat="45.9010800" lon="9.8259220">
	<ele>1802.20</ele>
	<time>2023-11-18T10:46:32.000Z</time>
</trkpt>
<trkpt lat="45.9010810" lon="9.8259220">
	<ele>1802.20</ele>
	<time>2023-11-18T10:46:33.000Z</time>
</trkpt>
<trkpt lat="45.9010810" lon="9.8259220">
	<ele>1802.20</ele>
	<time>2023-11-18T10:46:34.000Z</time>
</trkpt>
<trkpt lat="45.9010820" lon="9.8259220">
	<ele>1802.20</ele>
	<time>2023-11-18T10:46:35.000Z</time>
</trkpt>
<trkpt lat="45.9010830" lon="9.8259220">
	<ele>1802.20</ele>
	<time>2023-11-18T10:46:36.000Z</time>
</trkpt>
<trkpt lat="45.9010830" lon="9.8259220">
	<ele>1802.20</ele>
	<time>2023-11-18T10:46:37.000Z</time>
</trkpt>
<trkpt lat="45.9010850" lon="9.8259220">
	<ele>1802.20</ele>
	<time>2023-11-18T10:46:38.000Z</time>
</trkpt>
<trkpt lat="45.9010860" lon="9.8259220">
	<ele>1802.20</ele>
	<time>2023-11-18T10:46:39.000Z</time>
</trkpt>
<trkpt lat="45.9010860" lon="9.8259220">
	<ele>1802.20</ele>
	<time>2023-11-18T10:46:40.000Z</time>
</trkpt>
<trkpt lat="45.9010860" lon="9.8259210">
	<ele>1802.20</ele>
	<time>2023-11-18T10:46:41.000Z</time>
</trkpt>
<trkpt lat="45.9010860" lon="9.8259210">
	<ele>1802.20</ele>
	<time>2023-11-18T10:46:42.000Z</time>
</trkpt>
<trkpt lat="45.9010870" lon="9.8259200">
	<ele>1802.20</ele>
	<time>2023-11-18T10:46:43.000Z</time>
</trkpt>
<trkpt lat="45.9010870" lon="9.8259200">
	<ele>1802.20</ele>
	<time>2023-11-18T10:46:44.000Z</time>
</trkpt>
<trkpt lat="45.9010870" lon="9.8259200">
	<ele>1802.20</ele>
	<time>2023-11-18T10:46:45.000Z</time>
</trkpt>
<trkpt lat="45.9010870" lon="9.8259200">
	<ele>1802.20</ele>
	<time>2023-11-18T10:46:46.000Z</time>
</trkpt>
<trkpt lat="45.9010880" lon="9.8259190">
	<ele>1802.20</ele>
	<time>2023-11-18T10:46:47.000Z</time>
</trkpt>
<trkpt lat="45.9010880" lon="9.8259190">
	<ele>1802.20</ele>
	<time>2023-11-18T10:46:48.000Z</time>
</trkpt>
<trkpt lat="45.9010880" lon="9.8259190">
	<ele>1802.20</ele>
	<time>2023-11-18T10:46:49.000Z</time>
</trkpt>
<trkpt lat="45.9010880" lon="9.8259190">
	<ele>1802.20</ele>
	<time>2023-11-18T10:46:50.000Z</time>
</trkpt>
<trkpt lat="45.9010880" lon="9.8259190">
	<ele>1802.20</ele>
	<time>2023-11-18T10:46:51.000Z</time>
</trkpt>
<trkpt lat="45.9010880" lon="9.8259190">
	<ele>1802.20</ele>
	<time>2023-11-18T10:46:52.000Z</time>
</trkpt>
<trkpt lat="45.9010880" lon="9.8259190">
	<ele>1802.20</ele>
	<time>2023-11-18T10:46:53.000Z</time>
</trkpt>
<trkpt lat="45.9010890" lon="9.8259190">
	<ele>1802.20</ele>
	<time>2023-11-18T10:46:54.000Z</time>
</trkpt>
<trkpt lat="45.9010890" lon="9.8259190">
	<ele>1802.20</ele>
	<time>2023-11-18T10:46:55.000Z</time>
</trkpt>
<trkpt lat="45.9010890" lon="9.8259180">
	<ele>1802.20</ele>
	<time>2023-11-18T10:46:56.000Z</time>
</trkpt>
<trkpt lat="45.9010890" lon="9.8259180">
	<ele>1802.20</ele>
	<time>2023-11-18T10:46:57.000Z</time>
</trkpt>
<trkpt lat="45.9010900" lon="9.8259180">
	<ele>1802.20</ele>
	<time>2023-11-18T10:46:58.000Z</time>
</trkpt>
<trkpt lat="45.9010900" lon="9.8259180">
	<ele>1802.20</ele>
	<time>2023-11-18T10:46:59.000Z</time>
</trkpt>
<trkpt lat="45.9010910" lon="9.8259180">
	<ele>1802.20</ele>
	<time>2023-11-18T10:47:00.000Z</time>
</trkpt>
<trkpt lat="45.9010920" lon="9.8259180">
	<ele>1802.20</ele>
	<time>2023-11-18T10:47:01.000Z</time>
</trkpt>
<trkpt lat="45.9010940" lon="9.8259170">
	<ele>1802.20</ele>
	<time>2023-11-18T10:47:02.000Z</time>
</trkpt>
<trkpt lat="45.9010950" lon="9.8259170">
	<ele>1802.20</ele>
	<time>2023-11-18T10:47:03.000Z</time>
</trkpt>
<trkpt lat="45.9010970" lon="9.8259170">
	<ele>1802.20</ele>
	<time>2023-11-18T10:47:04.000Z</time>
</trkpt>
<trkpt lat="45.9010980" lon="9.8259170">
	<ele>1802.20</ele>
	<time>2023-11-18T10:47:05.000Z</time>
</trkpt>
<trkpt lat="45.9010980" lon="9.8259170">
	<ele>1802.20</ele>
	<time>2023-11-18T10:47:06.000Z</time>
</trkpt>
<trkpt lat="45.9010990" lon="9.8259170">
	<ele>1802.20</ele>
	<time>2023-11-18T10:47:07.000Z</time>
</trkpt>
<trkpt lat="45.9010990" lon="9.8259170">
	<ele>1802.20</ele>
	<time>2023-11-18T10:47:08.000Z</time>
</trkpt>
<trkpt lat="45.9010990" lon="9.8259170">
	<ele>1802.20</ele>
	<time>2023-11-18T10:47:09.000Z</time>
</trkpt>
<trkpt lat="45.9010990" lon="9.8259170">
	<ele>1802.20</ele>
	<time>2023-11-18T10:47:10.000Z</time>
</trkpt>
<trkpt lat="45.9010990" lon="9.8259170">
	<ele>1802.20</ele>
	<time>2023-11-18T10:47:11.000Z</time>
</trkpt>
<trkpt lat="45.9010990" lon="9.8259170">
	<ele>1802.20</ele>
	<time>2023-11-18T10:47:12.000Z</time>
</trkpt>
<trkpt lat="45.9010990" lon="9.8259170">
	<ele>1802.20</ele>
	<time>2023-11-18T10:47:13.000Z</time>
</trkpt>
<trkpt lat="45.9010990" lon="9.8259170">
	<ele>1802.20</ele>
	<time>2023-11-18T10:47:14.000Z</time>
</trkpt>
<trkpt lat="45.9010990" lon="9.8259170">
	<ele>1802.20</ele>
	<time>2023-11-18T10:47:15.000Z</time>
</trkpt>
<trkpt lat="45.9010990" lon="9.8259170">
	<ele>1802.20</ele>
	<time>2023-11-18T10:47:16.000Z</time>
</trkpt>
<trkpt lat="45.9010990" lon="9.8259170">
	<ele>1802.20</ele>
	<time>2023-11-18T10:47:17.000Z</time>
</trkpt>
<trkpt lat="45.9010990" lon="9.8259180">
	<ele>1802.20</ele>
	<time>2023-11-18T10:47:18.000Z</time>
</trkpt>
<trkpt lat="45.9011000" lon="9.8259180">
	<ele>1802.20</ele>
	<time>2023-11-18T10:47:19.000Z</time>
</trkpt>
<trkpt lat="45.9011000" lon="9.8259180">
	<ele>1802.20</ele>
	<time>2023-11-18T10:47:20.000Z</time>
</trkpt>
<trkpt lat="45.9011000" lon="9.8259180">
	<ele>1802.20</ele>
	<time>2023-11-18T10:47:21.000Z</time>
</trkpt>
<trkpt lat="45.9011000" lon="9.8259180">
	<ele>1802.20</ele>
	<time>2023-11-18T10:47:22.000Z</time>
</trkpt>
<trkpt lat="45.9011000" lon="9.8259180">
	<ele>1802.20</ele>
	<time>2023-11-18T10:47:23.000Z</time>
</trkpt>
<trkpt lat="45.9011000" lon="9.8259180">
	<ele>1802.20</ele>
	<time>2023-11-18T10:47:24.000Z</time>
</trkpt>
<trkpt lat="45.9010990" lon="9.8259180">
	<ele>1802.20</ele>
	<time>2023-11-18T10:47:25.000Z</time>
</trkpt>
<trkpt lat="45.9010990" lon="9.8259180">
	<ele>1802.20</ele>
	<time>2023-11-18T10:47:26.000Z</time>
</trkpt>
<trkpt lat="45.9010990" lon="9.8259180">
	<ele>1802.20</ele>
	<time>2023-11-18T10:47:27.000Z</time>
</trkpt>
<trkpt lat="45.9010990" lon="9.8259180">
	<ele>1802.20</ele>
	<time>2023-11-18T10:47:28.000Z</time>
</trkpt>
<trkpt lat="45.9010990" lon="9.8259180">
	<ele>1802.20</ele>
	<time>2023-11-18T10:47:29.000Z</time>
</trkpt>
<trkpt lat="45.9010990" lon="9.8259180">
	<ele>1802.20</ele>
	<time>2023-11-18T10:47:30.000Z</time>
</trkpt>
<trkpt lat="45.9010990" lon="9.8259180">
	<ele>1802.20</ele>
	<time>2023-11-18T10:47:31.000Z</time>
</trkpt>
<trkpt lat="45.9010990" lon="9.8259180">
	<ele>1802.20</ele>
	<time>2023-11-18T10:47:32.000Z</time>
</trkpt>
<trkpt lat="45.9010980" lon="9.8259180">
	<ele>1802.20</ele>
	<time>2023-11-18T10:47:33.000Z</time>
</trkpt>
<trkpt lat="45.9010980" lon="9.8259180">
	<ele>1802.20</ele>
	<time>2023-11-18T10:47:34.000Z</time>
</trkpt>
<trkpt lat="45.9010980" lon="9.8259190">
	<ele>1802.20</ele>
	<time>2023-11-18T10:47:35.000Z</time>
</trkpt>
<trkpt lat="45.9010980" lon="9.8259190">
	<ele>1802.20</ele>
	<time>2023-11-18T10:47:36.000Z</time>
</trkpt>
<trkpt lat="45.9010980" lon="9.8259190">
	<ele>1802.20</ele>
	<time>2023-11-18T10:47:37.000Z</time>
</trkpt>
<trkpt lat="45.9010980" lon="9.8259190">
	<ele>1802.20</ele>
	<time>2023-11-18T10:47:38.000Z</time>
</trkpt>
<trkpt lat="45.9010980" lon="9.8259200">
	<ele>1802.20</ele>
	<time>2023-11-18T10:47:39.000Z</time>
</trkpt>
<trkpt lat="45.9010980" lon="9.8259200">
	<ele>1802.20</ele>
	<time>2023-11-18T10:47:40.000Z</time>
</trkpt>
<trkpt lat="45.9010970" lon="9.8259200">
	<ele>1802.20</ele>
	<time>2023-11-18T10:47:41.000Z</time>
</trkpt>
<trkpt lat="45.9010970" lon="9.8259210">
	<ele>1802.20</ele>
	<time>2023-11-18T10:47:42.000Z</time>
</trkpt>
<trkpt lat="45.9010960" lon="9.8259210">
	<ele>1802.20</ele>
	<time>2023-11-18T10:47:43.000Z</time>
</trkpt>
<trkpt lat="45.9010950" lon="9.8259210">
	<ele>1802.20</ele>
	<time>2023-11-18T10:47:44.000Z</time>
</trkpt>
<trkpt lat="45.9010950" lon="9.8259210">
	<ele>1802.20</ele>
	<time>2023-11-18T10:47:45.000Z</time>
</trkpt>
<trkpt lat="45.9010950" lon="9.8259220">
	<ele>1802.20</ele>
	<time>2023-11-18T10:47:46.000Z</time>
</trkpt>
<trkpt lat="45.9010940" lon="9.8259220">
	<ele>1802.20</ele>
	<time>2023-11-18T10:47:47.000Z</time>
</trkpt>
<trkpt lat="45.9010940" lon="9.8259220">
	<ele>1802.20</ele>
	<time>2023-11-18T10:47:48.000Z</time>
</trkpt>
<trkpt lat="45.9010930" lon="9.8259220">
	<ele>1802.20</ele>
	<time>2023-11-18T10:47:49.000Z</time>
</trkpt>
<trkpt lat="45.9010930" lon="9.8259220">
	<ele>1802.20</ele>
	<time>2023-11-18T10:47:50.000Z</time>
</trkpt>
<trkpt lat="45.9010930" lon="9.8259220">
	<ele>1802.20</ele>
	<time>2023-11-18T10:47:51.000Z</time>
</trkpt>
<trkpt lat="45.9010930" lon="9.8259220">
	<ele>1802.20</ele>
	<time>2023-11-18T10:47:52.000Z</time>
</trkpt>
<trkpt lat="45.9010920" lon="9.8259220">
	<ele>1802.20</ele>
	<time>2023-11-18T10:47:53.000Z</time>
</trkpt>
<trkpt lat="45.9010920" lon="9.8259220">
	<ele>1802.20</ele>
	<time>2023-11-18T10:47:54.000Z</time>
</trkpt>
<trkpt lat="45.9010920" lon="9.8259230">
	<ele>1802.20</ele>
	<time>2023-11-18T10:47:55.000Z</time>
</trkpt>
<trkpt lat="45.9010910" lon="9.8259230">
	<ele>1802.20</ele>
	<time>2023-11-18T10:47:56.000Z</time>
</trkpt>
<trkpt lat="45.9010910" lon="9.8259230">
	<ele>1802.20</ele>
	<time>2023-11-18T10:47:57.000Z</time>
</trkpt>
<trkpt lat="45.9010910" lon="9.8259230">
	<ele>1802.20</ele>
	<time>2023-11-18T10:47:58.000Z</time>
</trkpt>
<trkpt lat="45.9010910" lon="9.8259230">
	<ele>1802.20</ele>
	<time>2023-11-18T10:47:59.000Z</time>
</trkpt>
<trkpt lat="45.9010900" lon="9.8259240">
	<ele>1802.20</ele>
	<time>2023-11-18T10:48:00.000Z</time>
</trkpt>
<trkpt lat="45.9010900" lon="9.8259240">
	<ele>1802.20</ele>
	<time>2023-11-18T10:48:01.000Z</time>
</trkpt>
<trkpt lat="45.9010900" lon="9.8259240">
	<ele>1802.20</ele>
	<time>2023-11-18T10:48:02.000Z</time>
</trkpt>
<trkpt lat="45.9010890" lon="9.8259240">
	<ele>1802.20</ele>
	<time>2023-11-18T10:48:03.000Z</time>
</trkpt>
<trkpt lat="45.9010890" lon="9.8259240">
	<ele>1802.20</ele>
	<time>2023-11-18T10:48:04.000Z</time>
</trkpt>
<trkpt lat="45.9010890" lon="9.8259240">
	<ele>1802.20</ele>
	<time>2023-11-18T10:48:05.000Z</time>
</trkpt>
<trkpt lat="45.9010880" lon="9.8259240">
	<ele>1802.20</ele>
	<time>2023-11-18T10:48:06.000Z</time>
</trkpt>
<trkpt lat="45.9010880" lon="9.8259230">
	<ele>1802.20</ele>
	<time>2023-11-18T10:48:07.000Z</time>
</trkpt>
<trkpt lat="45.9010880" lon="9.8259230">
	<ele>1802.20</ele>
	<time>2023-11-18T10:48:08.000Z</time>
</trkpt>
<trkpt lat="45.9010870" lon="9.8259230">
	<ele>1802.20</ele>
	<time>2023-11-18T10:48:09.000Z</time>
</trkpt>
<trkpt lat="45.9010870" lon="9.8259230">
	<ele>1802.20</ele>
	<time>2023-11-18T10:48:10.000Z</time>
</trkpt>
<trkpt lat="45.9010870" lon="9.8259220">
	<ele>1802.20</ele>
	<time>2023-11-18T10:48:11.000Z</time>
</trkpt>
<trkpt lat="45.9010870" lon="9.8259220">
	<ele>1802.20</ele>
	<time>2023-11-18T10:48:12.000Z</time>
</trkpt>
<trkpt lat="45.9010870" lon="9.8259220">
	<ele>1802.20</ele>
	<time>2023-11-18T10:48:13.000Z</time>
</trkpt>
<trkpt lat="45.9010860" lon="9.8259210">
	<ele>1802.20</ele>
	<time>2023-11-18T10:48:14.000Z</time>
</trkpt>
<trkpt lat="45.9010860" lon="9.8259210">
	<ele>1802.20</ele>
	<time>2023-11-18T10:48:15.000Z</time>
</trkpt>
<trkpt lat="45.9010860" lon="9.8259210">
	<ele>1802.20</ele>
	<time>2023-11-18T10:48:16.000Z</time>
</trkpt>
<trkpt lat="45.9010860" lon="9.8259210">
	<ele>1802.20</ele>
	<time>2023-11-18T10:48:17.000Z</time>
</trkpt>
<trkpt lat="45.9010850" lon="9.8259210">
	<ele>1802.20</ele>
	<time>2023-11-18T10:48:18.000Z</time>
</trkpt>
<trkpt lat="45.9010850" lon="9.8259200">
	<ele>1802.20</ele>
	<time>2023-11-18T10:48:19.000Z</time>
</trkpt>
<trkpt lat="45.9010840" lon="9.8259200">
	<ele>1802.20</ele>
	<time>2023-11-18T10:48:20.000Z</time>
</trkpt>
<trkpt lat="45.9010840" lon="9.8259200">
	<ele>1802.20</ele>
	<time>2023-11-18T10:48:21.000Z</time>
</trkpt>
<trkpt lat="45.9010830" lon="9.8259200">
	<ele>1802.20</ele>
	<time>2023-11-18T10:48:22.000Z</time>
</trkpt>
<trkpt lat="45.9010830" lon="9.8259200">
	<ele>1802.20</ele>
	<time>2023-11-18T10:48:23.000Z</time>
</trkpt>
<trkpt lat="45.9010820" lon="9.8259200">
	<ele>1802.20</ele>
	<time>2023-11-18T10:48:24.000Z</time>
</trkpt>
<trkpt lat="45.9010810" lon="9.8259200">
	<ele>1802.20</ele>
	<time>2023-11-18T10:48:25.000Z</time>
</trkpt>
<trkpt lat="45.9010800" lon="9.8259200">
	<ele>1802.20</ele>
	<time>2023-11-18T10:48:26.000Z</time>
</trkpt>
<trkpt lat="45.9010790" lon="9.8259190">
	<ele>1802.20</ele>
	<time>2023-11-18T10:48:27.000Z</time>
</trkpt>
<trkpt lat="45.9010790" lon="9.8259190">
	<ele>1802.20</ele>
	<time>2023-11-18T10:48:28.000Z</time>
</trkpt>
<trkpt lat="45.9010780" lon="9.8259190">
	<ele>1802.20</ele>
	<time>2023-11-18T10:48:29.000Z</time>
</trkpt>
<trkpt lat="45.9010780" lon="9.8259190">
	<ele>1802.20</ele>
	<time>2023-11-18T10:48:30.000Z</time>
</trkpt>
<trkpt lat="45.9010770" lon="9.8259190">
	<ele>1802.20</ele>
	<time>2023-11-18T10:48:31.000Z</time>
</trkpt>
<trkpt lat="45.9010770" lon="9.8259190">
	<ele>1802.20</ele>
	<time>2023-11-18T10:48:32.000Z</time>
</trkpt>
<trkpt lat="45.9010760" lon="9.8259190">
	<ele>1802.20</ele>
	<time>2023-11-18T10:48:33.000Z</time>
</trkpt>
<trkpt lat="45.9010760" lon="9.8259190">
	<ele>1802.20</ele>
	<time>2023-11-18T10:48:34.000Z</time>
</trkpt>
<trkpt lat="45.9010760" lon="9.8259190">
	<ele>1802.20</ele>
	<time>2023-11-18T10:48:35.000Z</time>
</trkpt>
<trkpt lat="45.9010760" lon="9.8259180">
	<ele>1802.20</ele>
	<time>2023-11-18T10:48:36.000Z</time>
</trkpt>
<trkpt lat="45.9010750" lon="9.8259180">
	<ele>1802.20</ele>
	<time>2023-11-18T10:48:37.000Z</time>
</trkpt>
<trkpt lat="45.9010750" lon="9.8259180">
	<ele>1802.20</ele>
	<time>2023-11-18T10:48:38.000Z</time>
</trkpt>
<trkpt lat="45.9010750" lon="9.8259180">
	<ele>1802.20</ele>
	<time>2023-11-18T10:48:39.000Z</time>
</trkpt>
<trkpt lat="45.9010750" lon="9.8259180">
	<ele>1802.20</ele>
	<time>2023-11-18T10:48:40.000Z</time>
</trkpt>
<trkpt lat="45.9010750" lon="9.8259180">
	<ele>1802.20</ele>
	<time>2023-11-18T10:48:41.000Z</time>
</trkpt>
<trkpt lat="45.9010750" lon="9.8259180">
	<ele>1802.20</ele>
	<time>2023-11-18T10:48:42.000Z</time>
</trkpt>
<trkpt lat="45.9010750" lon="9.8259180">
	<ele>1802.20</ele>
	<time>2023-11-18T10:48:43.000Z</time>
</trkpt>
<trkpt lat="45.9010740" lon="9.8259180">
	<ele>1802.20</ele>
	<time>2023-11-18T10:48:44.000Z</time>
</trkpt>
<trkpt lat="45.9010740" lon="9.8259180">
	<ele>1802.20</ele>
	<time>2023-11-18T10:48:45.000Z</time>
</trkpt>
<trkpt lat="45.9010740" lon="9.8259180">
	<ele>1802.20</ele>
	<time>2023-11-18T10:48:46.000Z</time>
</trkpt>
<trkpt lat="45.9010740" lon="9.8259190">
	<ele>1802.20</ele>
	<time>2023-11-18T10:48:47.000Z</time>
</trkpt>
<trkpt lat="45.9010740" lon="9.8259190">
	<ele>1802.20</ele>
	<time>2023-11-18T10:48:48.000Z</time>
</trkpt>
<trkpt lat="45.9010730" lon="9.8259190">
	<ele>1802.20</ele>
	<time>2023-11-18T10:48:49.000Z</time>
</trkpt>
<trkpt lat="45.9010730" lon="9.8259190">
	<ele>1802.20</ele>
	<time>2023-11-18T10:48:50.000Z</time>
</trkpt>
<trkpt lat="45.9010730" lon="9.8259190">
	<ele>1802.20</ele>
	<time>2023-11-18T10:48:51.000Z</time>
</trkpt>
<trkpt lat="45.9010730" lon="9.8259190">
	<ele>1802.20</ele>
	<time>2023-11-18T10:48:52.000Z</time>
</trkpt>
<trkpt lat="45.9010730" lon="9.8259190">
	<ele>1802.20</ele>
	<time>2023-11-18T10:48:53.000Z</time>
</trkpt>
<trkpt lat="45.9010730" lon="9.8259190">
	<ele>1802.20</ele>
	<time>2023-11-18T10:48:54.000Z</time>
</trkpt>
<trkpt lat="45.9010730" lon="9.8259190">
	<ele>1802.20</ele>
	<time>2023-11-18T10:48:55.000Z</time>
</trkpt>
<trkpt lat="45.9010730" lon="9.8259190">
	<ele>1802.20</ele>
	<time>2023-11-18T10:48:56.000Z</time>
</trkpt>
<trkpt lat="45.9010730" lon="9.8259190">
	<ele>1802.20</ele>
	<time>2023-11-18T10:48:57.000Z</time>
</trkpt>
<trkpt lat="45.9010730" lon="9.8259190">
	<ele>1802.20</ele>
	<time>2023-11-18T10:48:58.000Z</time>
</trkpt>
<trkpt lat="45.9010730" lon="9.8259190">
	<ele>1802.20</ele>
	<time>2023-11-18T10:48:59.000Z</time>
</trkpt>
<trkpt lat="45.9010730" lon="9.8259200">
	<ele>1802.20</ele>
	<time>2023-11-18T10:49:00.000Z</time>
</trkpt>
<trkpt lat="45.9010730" lon="9.8259200">
	<ele>1802.20</ele>
	<time>2023-11-18T10:49:01.000Z</time>
</trkpt>
<trkpt lat="45.9010730" lon="9.8259200">
	<ele>1802.20</ele>
	<time>2023-11-18T10:49:02.000Z</time>
</trkpt>
<trkpt lat="45.9010730" lon="9.8259200">
	<ele>1802.20</ele>
	<time>2023-11-18T10:49:03.000Z</time>
</trkpt>
<trkpt lat="45.9010740" lon="9.8259200">
	<ele>1802.20</ele>
	<time>2023-11-18T10:49:04.000Z</time>
</trkpt>
<trkpt lat="45.9010740" lon="9.8259200">
	<ele>1802.20</ele>
	<time>2023-11-18T10:49:05.000Z</time>
</trkpt>
<trkpt lat="45.9010740" lon="9.8259200">
	<ele>1802.20</ele>
	<time>2023-11-18T10:49:06.000Z</time>
</trkpt>
<trkpt lat="45.9010740" lon="9.8259200">
	<ele>1802.20</ele>
	<time>2023-11-18T10:49:07.000Z</time>
</trkpt>
<trkpt lat="45.9010740" lon="9.8259200">
	<ele>1802.20</ele>
	<time>2023-11-18T10:49:08.000Z</time>
</trkpt>
<trkpt lat="45.9010740" lon="9.8259200">
	<ele>1802.20</ele>
	<time>2023-11-18T10:49:09.000Z</time>
</trkpt>
<trkpt lat="45.9010740" lon="9.8259200">
	<ele>1802.20</ele>
	<time>2023-11-18T10:49:10.000Z</time>
</trkpt>
<trkpt lat="45.9010740" lon="9.8259190">
	<ele>1802.20</ele>
	<time>2023-11-18T10:49:11.000Z</time>
</trkpt>
<trkpt lat="45.9010740" lon="9.8259190">
	<ele>1802.20</ele>
	<time>2023-11-18T10:49:12.000Z</time>
</trkpt>
<trkpt lat="45.9010740" lon="9.8259200">
	<ele>1802.20</ele>
	<time>2023-11-18T10:49:13.000Z</time>
</trkpt>
<trkpt lat="45.9010740" lon="9.8259200">
	<ele>1802.20</ele>
	<time>2023-11-18T10:49:14.000Z</time>
</trkpt>
<trkpt lat="45.9010740" lon="9.8259200">
	<ele>1802.20</ele>
	<time>2023-11-18T10:49:15.000Z</time>
</trkpt>
<trkpt lat="45.9010740" lon="9.8259200">
	<ele>1802.20</ele>
	<time>2023-11-18T10:49:16.000Z</time>
</trkpt>
<trkpt lat="45.9010740" lon="9.8259200">
	<ele>1802.20</ele>
	<time>2023-11-18T10:49:17.000Z</time>
</trkpt>
<trkpt lat="45.9010740" lon="9.8259200">
	<ele>1802.20</ele>
	<time>2023-11-18T10:49:18.000Z</time>
</trkpt>
<trkpt lat="45.9010740" lon="9.8259200">
	<ele>1802.20</ele>
	<time>2023-11-18T10:49:19.000Z</time>
</trkpt>
<trkpt lat="45.9010740" lon="9.8259200">
	<ele>1802.20</ele>
	<time>2023-11-18T10:49:20.000Z</time>
</trkpt>
<trkpt lat="45.9010740" lon="9.8259190">
	<ele>1802.20</ele>
	<time>2023-11-18T10:49:21.000Z</time>
</trkpt>
<trkpt lat="45.9010740" lon="9.8259190">
	<ele>1802.20</ele>
	<time>2023-11-18T10:49:22.000Z</time>
</trkpt>
<trkpt lat="45.9010740" lon="9.8259190">
	<ele>1802.20</ele>
	<time>2023-11-18T10:49:23.000Z</time>
</trkpt>
<trkpt lat="45.9010740" lon="9.8259190">
	<ele>1802.20</ele>
	<time>2023-11-18T10:49:24.000Z</time>
</trkpt>
<trkpt lat="45.9010740" lon="9.8259200">
	<ele>1802.20</ele>
	<time>2023-11-18T10:49:25.000Z</time>
</trkpt>
<trkpt lat="45.9010740" lon="9.8259200">
	<ele>1802.20</ele>
	<time>2023-11-18T10:49:26.000Z</time>
</trkpt>
<trkpt lat="45.9010740" lon="9.8259200">
	<ele>1802.20</ele>
	<time>2023-11-18T10:49:27.000Z</time>
</trkpt>
<trkpt lat="45.9010740" lon="9.8259200">
	<ele>1802.20</ele>
	<time>2023-11-18T10:49:28.000Z</time>
</trkpt>
<trkpt lat="45.9010740" lon="9.8259200">
	<ele>1802.20</ele>
	<time>2023-11-18T10:49:29.000Z</time>
</trkpt>
<trkpt lat="45.9010740" lon="9.8259200">
	<ele>1802.20</ele>
	<time>2023-11-18T10:49:30.000Z</time>
</trkpt>
<trkpt lat="45.9010740" lon="9.8259200">
	<ele>1802.20</ele>
	<time>2023-11-18T10:49:31.000Z</time>
</trkpt>
<trkpt lat="45.9010740" lon="9.8259200">
	<ele>1802.20</ele>
	<time>2023-11-18T10:49:32.000Z</time>
</trkpt>
<trkpt lat="45.9010740" lon="9.8259190">
	<ele>1802.20</ele>
	<time>2023-11-18T10:49:33.000Z</time>
</trkpt>
<trkpt lat="45.9010740" lon="9.8259190">
	<ele>1802.20</ele>
	<time>2023-11-18T10:49:34.000Z</time>
</trkpt>
<trkpt lat="45.9010740" lon="9.8259190">
	<ele>1802.20</ele>
	<time>2023-11-18T10:49:35.000Z</time>
</trkpt>
<trkpt lat="45.9010740" lon="9.8259190">
	<ele>1802.20</ele>
	<time>2023-11-18T10:49:36.000Z</time>
</trkpt>
<trkpt lat="45.9010740" lon="9.8259190">
	<ele>1802.20</ele>
	<time>2023-11-18T10:49:37.000Z</time>
</trkpt>
<trkpt lat="45.9010740" lon="9.8259190">
	<ele>1802.20</ele>
	<time>2023-11-18T10:49:38.000Z</time>
</trkpt>
<trkpt lat="45.9010740" lon="9.8259190">
	<ele>1802.20</ele>
	<time>2023-11-18T10:49:39.000Z</time>
</trkpt>
<trkpt lat="45.9010740" lon="9.8259190">
	<ele>1802.20</ele>
	<time>2023-11-18T10:49:40.000Z</time>
</trkpt>
<trkpt lat="45.9010740" lon="9.8259190">
	<ele>1802.20</ele>
	<time>2023-11-18T10:49:41.000Z</time>
</trkpt>
<trkpt lat="45.9010740" lon="9.8259190">
	<ele>1802.20</ele>
	<time>2023-11-18T10:49:42.000Z</time>
</trkpt>
<trkpt lat="45.9010740" lon="9.8259190">
	<ele>1802.20</ele>
	<time>2023-11-18T10:49:43.000Z</time>
</trkpt>
<trkpt lat="45.9010740" lon="9.8259190">
	<ele>1802.20</ele>
	<time>2023-11-18T10:49:44.000Z</time>
</trkpt>
<trkpt lat="45.9010740" lon="9.8259190">
	<ele>1802.20</ele>
	<time>2023-11-18T10:49:45.000Z</time>
</trkpt>
<trkpt lat="45.9010740" lon="9.8259190">
	<ele>1802.20</ele>
	<time>2023-11-18T10:49:46.000Z</time>
</trkpt>
<trkpt lat="45.9010740" lon="9.8259190">
	<ele>1802.20</ele>
	<time>2023-11-18T10:49:47.000Z</time>
</trkpt>
<trkpt lat="45.9010740" lon="9.8259190">
	<ele>1802.20</ele>
	<time>2023-11-18T10:49:48.000Z</time>
</trkpt>
<trkpt lat="45.9010740" lon="9.8259200">
	<ele>1802.20</ele>
	<time>2023-11-18T10:49:49.000Z</time>
</trkpt>
<trkpt lat="45.9010750" lon="9.8259200">
	<ele>1802.20</ele>
	<time>2023-11-18T10:49:50.000Z</time>
</trkpt>
<trkpt lat="45.9010750" lon="9.8259200">
	<ele>1802.20</ele>
	<time>2023-11-18T10:49:51.000Z</time>
</trkpt>
<trkpt lat="45.9010750" lon="9.8259200">
	<ele>1802.20</ele>
	<time>2023-11-18T10:49:52.000Z</time>
</trkpt>
<trkpt lat="45.9010750" lon="9.8259200">
	<ele>1802.20</ele>
	<time>2023-11-18T10:49:53.000Z</time>
</trkpt>
<trkpt lat="45.9010750" lon="9.8259200">
	<ele>1802.20</ele>
	<time>2023-11-18T10:49:54.000Z</time>
</trkpt>
<trkpt lat="45.9010750" lon="9.8259200">
	<ele>1802.20</ele>
	<time>2023-11-18T10:49:55.000Z</time>
</trkpt>
<trkpt lat="45.9010750" lon="9.8259200">
	<ele>1802.20</ele>
	<time>2023-11-18T10:49:56.000Z</time>
</trkpt>
<trkpt lat="45.9010750" lon="9.8259200">
	<ele>1802.20</ele>
	<time>2023-11-18T10:49:57.000Z</time>
</trkpt>
<trkpt lat="45.9010750" lon="9.8259200">
	<ele>1802.20</ele>
	<time>2023-11-18T10:49:58.000Z</time>
</trkpt>
<trkpt lat="45.9010750" lon="9.8259200">
	<ele>1802.20</ele>
	<time>2023-11-18T10:49:59.000Z</time>
</trkpt>
<trkpt lat="45.9010750" lon="9.8259200">
	<ele>1802.20</ele>
	<time>2023-11-18T10:50:00.000Z</time>
</trkpt>
<trkpt lat="45.9010750" lon="9.8259200">
	<ele>1802.20</ele>
	<time>2023-11-18T10:50:01.000Z</time>
</trkpt>
<trkpt lat="45.9010750" lon="9.8259200">
	<ele>1802.20</ele>
	<time>2023-11-18T10:50:02.000Z</time>
</trkpt>
<trkpt lat="45.9010750" lon="9.8259210">
	<ele>1802.20</ele>
	<time>2023-11-18T10:50:03.000Z</time>
</trkpt>
<trkpt lat="45.9010750" lon="9.8259210">
	<ele>1802.20</ele>
	<time>2023-11-18T10:50:04.000Z</time>
</trkpt>
<trkpt lat="45.9010760" lon="9.8259210">
	<ele>1802.20</ele>
	<time>2023-11-18T10:50:05.000Z</time>
</trkpt>
<trkpt lat="45.9010750" lon="9.8259210">
	<ele>1802.20</ele>
	<time>2023-11-18T10:50:06.000Z</time>
</trkpt>
<trkpt lat="45.9010750" lon="9.8259210">
	<ele>1802.20</ele>
	<time>2023-11-18T10:50:07.000Z</time>
</trkpt>
<trkpt lat="45.9010750" lon="9.8259200">
	<ele>1802.20</ele>
	<time>2023-11-18T10:50:08.000Z</time>
</trkpt>
<trkpt lat="45.9010750" lon="9.8259200">
	<ele>1802.20</ele>
	<time>2023-11-18T10:50:09.000Z</time>
</trkpt>
<trkpt lat="45.9010750" lon="9.8259200">
	<ele>1802.20</ele>
	<time>2023-11-18T10:50:10.000Z</time>
</trkpt>
<trkpt lat="45.9010750" lon="9.8259200">
	<ele>1802.20</ele>
	<time>2023-11-18T10:50:11.000Z</time>
</trkpt>
<trkpt lat="45.9010750" lon="9.8259210">
	<ele>1802.20</ele>
	<time>2023-11-18T10:50:12.000Z</time>
</trkpt>
<trkpt lat="45.9010750" lon="9.8259210">
	<ele>1802.20</ele>
	<time>2023-11-18T10:50:13.000Z</time>
</trkpt>
<trkpt lat="45.9010750" lon="9.8259210">
	<ele>1802.20</ele>
	<time>2023-11-18T10:50:14.000Z</time>
</trkpt>
<trkpt lat="45.9010750" lon="9.8259200">
	<ele>1802.20</ele>
	<time>2023-11-18T10:50:15.000Z</time>
</trkpt>
<trkpt lat="45.9010750" lon="9.8259200">
	<ele>1802.20</ele>
	<time>2023-11-18T10:50:16.000Z</time>
</trkpt>
<trkpt lat="45.9010750" lon="9.8259210">
	<ele>1802.20</ele>
	<time>2023-11-18T10:50:17.000Z</time>
</trkpt>
<trkpt lat="45.9010760" lon="9.8259210">
	<ele>1802.20</ele>
	<time>2023-11-18T10:50:18.000Z</time>
</trkpt>
<trkpt lat="45.9010760" lon="9.8259210">
	<ele>1802.20</ele>
	<time>2023-11-18T10:50:19.000Z</time>
</trkpt>
<trkpt lat="45.9010760" lon="9.8259220">
	<ele>1802.20</ele>
	<time>2023-11-18T10:50:20.000Z</time>
</trkpt>
<trkpt lat="45.9010760" lon="9.8259220">
	<ele>1802.20</ele>
	<time>2023-11-18T10:50:21.000Z</time>
</trkpt>
<trkpt lat="45.9010760" lon="9.8259220">
	<ele>1802.20</ele>
	<time>2023-11-18T10:50:22.000Z</time>
</trkpt>
<trkpt lat="45.9010760" lon="9.8259220">
	<ele>1802.20</ele>
	<time>2023-11-18T10:50:23.000Z</time>
</trkpt>
<trkpt lat="45.9010760" lon="9.8259220">
	<ele>1802.20</ele>
	<time>2023-11-18T10:50:24.000Z</time>
</trkpt>
<trkpt lat="45.9010760" lon="9.8259220">
	<ele>1802.20</ele>
	<time>2023-11-18T10:50:25.000Z</time>
</trkpt>
<trkpt lat="45.9010760" lon="9.8259220">
	<ele>1802.20</ele>
	<time>2023-11-18T10:50:26.000Z</time>
</trkpt>
<trkpt lat="45.9010760" lon="9.8259220">
	<ele>1802.20</ele>
	<time>2023-11-18T10:50:27.000Z</time>
</trkpt>
<trkpt lat="45.9010760" lon="9.8259220">
	<ele>1802.20</ele>
	<time>2023-11-18T10:50:28.000Z</time>
</trkpt>
<trkpt lat="45.9010760" lon="9.8259220">
	<ele>1802.20</ele>
	<time>2023-11-18T10:50:29.000Z</time>
</trkpt>
<trkpt lat="45.9010760" lon="9.8259220">
	<ele>1802.20</ele>
	<time>2023-11-18T10:50:30.000Z</time>
</trkpt>
<trkpt lat="45.9010760" lon="9.8259220">
	<ele>1802.20</ele>
	<time>2023-11-18T10:50:31.000Z</time>
</trkpt>
<trkpt lat="45.9010760" lon="9.8259220">
	<ele>1802.20</ele>
	<time>2023-11-18T10:50:32.000Z</time>
</trkpt>
<trkpt lat="45.9010760" lon="9.8259220">
	<ele>1802.20</ele>
	<time>2023-11-18T10:50:33.000Z</time>
</trkpt>
<trkpt lat="45.9010760" lon="9.8259220">
	<ele>1802.20</ele>
	<time>2023-11-18T10:50:34.000Z</time>
</trkpt>
<trkpt lat="45.9010760" lon="9.8259220">
	<ele>1802.20</ele>
	<time>2023-11-18T10:50:35.000Z</time>
</trkpt>
<trkpt lat="45.9010760" lon="9.8259220">
	<ele>1802.20</ele>
	<time>2023-11-18T10:50:36.000Z</time>
</trkpt>
<trkpt lat="45.9010770" lon="9.8259220">
	<ele>1802.20</ele>
	<time>2023-11-18T10:50:37.000Z</time>
</trkpt>
<trkpt lat="45.9010770" lon="9.8259220">
	<ele>1802.20</ele>
	<time>2023-11-18T10:50:38.000Z</time>
</trkpt>
<trkpt lat="45.9010770" lon="9.8259220">
	<ele>1802.20</ele>
	<time>2023-11-18T10:50:39.000Z</time>
</trkpt>
<trkpt lat="45.9010770" lon="9.8259220">
	<ele>1802.20</ele>
	<time>2023-11-18T10:50:40.000Z</time>
</trkpt>
<trkpt lat="45.9010770" lon="9.8259230">
	<ele>1802.20</ele>
	<time>2023-11-18T10:50:41.000Z</time>
</trkpt>
<trkpt lat="45.9010770" lon="9.8259220">
	<ele>1802.20</ele>
	<time>2023-11-18T10:50:42.000Z</time>
</trkpt>
<trkpt lat="45.9010770" lon="9.8259220">
	<ele>1802.20</ele>
	<time>2023-11-18T10:50:43.000Z</time>
</trkpt>
<trkpt lat="45.9010770" lon="9.8259220">
	<ele>1802.20</ele>
	<time>2023-11-18T10:50:44.000Z</time>
</trkpt>
<trkpt lat="45.9010770" lon="9.8259220">
	<ele>1802.20</ele>
	<time>2023-11-18T10:50:45.000Z</time>
</trkpt>
<trkpt lat="45.9010770" lon="9.8259220">
	<ele>1802.20</ele>
	<time>2023-11-18T10:50:46.000Z</time>
</trkpt>
<trkpt lat="45.9010770" lon="9.8259220">
	<ele>1802.20</ele>
	<time>2023-11-18T10:50:47.000Z</time>
</trkpt>
<trkpt lat="45.9010770" lon="9.8259230">
	<ele>1802.20</ele>
	<time>2023-11-18T10:50:48.000Z</time>
</trkpt>
<trkpt lat="45.9010770" lon="9.8259230">
	<ele>1802.20</ele>
	<time>2023-11-18T10:50:49.000Z</time>
</trkpt>
<trkpt lat="45.9010770" lon="9.8259220">
	<ele>1802.20</ele>
	<time>2023-11-18T10:50:50.000Z</time>
</trkpt>
<trkpt lat="45.9010770" lon="9.8259230">
	<ele>1802.20</ele>
	<time>2023-11-18T10:50:51.000Z</time>
</trkpt>
<trkpt lat="45.9010770" lon="9.8259230">
	<ele>1802.20</ele>
	<time>2023-11-18T10:50:52.000Z</time>
</trkpt>
<trkpt lat="45.9010770" lon="9.8259230">
	<ele>1802.20</ele>
	<time>2023-11-18T10:50:53.000Z</time>
</trkpt>
<trkpt lat="45.9010770" lon="9.8259230">
	<ele>1802.20</ele>
	<time>2023-11-18T10:50:54.000Z</time>
</trkpt>
<trkpt lat="45.9010770" lon="9.8259230">
	<ele>1802.20</ele>
	<time>2023-11-18T10:50:55.000Z</time>
</trkpt>
<trkpt lat="45.9010770" lon="9.8259230">
	<ele>1802.20</ele>
	<time>2023-11-18T10:50:56.000Z</time>
</trkpt>
<trkpt lat="45.9010770" lon="9.8259230">
	<ele>1802.20</ele>
	<time>2023-11-18T10:50:57.000Z</time>
</trkpt>
<trkpt lat="45.9010770" lon="9.8259230">
	<ele>1802.20</ele>
	<time>2023-11-18T10:50:58.000Z</time>
</trkpt>
<trkpt lat="45.9010770" lon="9.8259230">
	<ele>1802.20</ele>
	<time>2023-11-18T10:50:59.000Z</time>
</trkpt>
<trkpt lat="45.9010770" lon="9.8259230">
	<ele>1802.20</ele>
	<time>2023-11-18T10:51:00.000Z</time>
</trkpt>
<trkpt lat="45.9010780" lon="9.8259230">
	<ele>1802.20</ele>
	<time>2023-11-18T10:51:01.000Z</time>
</trkpt>
<trkpt lat="45.9010780" lon="9.8259230">
	<ele>1802.20</ele>
	<time>2023-11-18T10:51:02.000Z</time>
</trkpt>
<trkpt lat="45.9010770" lon="9.8259230">
	<ele>1802.20</ele>
	<time>2023-11-18T10:51:03.000Z</time>
</trkpt>
<trkpt lat="45.9010780" lon="9.8259230">
	<ele>1802.20</ele>
	<time>2023-11-18T10:51:04.000Z</time>
</trkpt>
<trkpt lat="45.9010780" lon="9.8259230">
	<ele>1802.20</ele>
	<time>2023-11-18T10:51:05.000Z</time>
</trkpt>
<trkpt lat="45.9010780" lon="9.8259230">
	<ele>1802.20</ele>
	<time>2023-11-18T10:51:06.000Z</time>
</trkpt>
<trkpt lat="45.9010780" lon="9.8259230">
	<ele>1802.20</ele>
	<time>2023-11-18T10:51:07.000Z</time>
</trkpt>
<trkpt lat="45.9010780" lon="9.8259230">
	<ele>1802.20</ele>
	<time>2023-11-18T10:51:08.000Z</time>
</trkpt>
<trkpt lat="45.9010780" lon="9.8259230">
	<ele>1802.20</ele>
	<time>2023-11-18T10:51:09.000Z</time>
</trkpt>
<trkpt lat="45.9010780" lon="9.8259230">
	<ele>1802.20</ele>
	<time>2023-11-18T10:51:10.000Z</time>
</trkpt>
<trkpt lat="45.9010780" lon="9.8259230">
	<ele>1802.20</ele>
	<time>2023-11-18T10:51:11.000Z</time>
</trkpt>
<trkpt lat="45.9010780" lon="9.8259230">
	<ele>1802.20</ele>
	<time>2023-11-18T10:51:12.000Z</time>
</trkpt>
<trkpt lat="45.9010780" lon="9.8259240">
	<ele>1802.20</ele>
	<time>2023-11-18T10:51:13.000Z</time>
</trkpt>
<trkpt lat="45.9010780" lon="9.8259240">
	<ele>1802.20</ele>
	<time>2023-11-18T10:51:14.000Z</time>
</trkpt>
<trkpt lat="45.9010780" lon="9.8259240">
	<ele>1802.20</ele>
	<time>2023-11-18T10:51:15.000Z</time>
</trkpt>
<trkpt lat="45.9010780" lon="9.8259240">
	<ele>1802.20</ele>
	<time>2023-11-18T10:51:16.000Z</time>
</trkpt>
<trkpt lat="45.9010780" lon="9.8259240">
	<ele>1802.20</ele>
	<time>2023-11-18T10:51:17.000Z</time>
</trkpt>
<trkpt lat="45.9010780" lon="9.8259240">
	<ele>1802.20</ele>
	<time>2023-11-18T10:51:18.000Z</time>
</trkpt>
<trkpt lat="45.9010780" lon="9.8259240">
	<ele>1802.20</ele>
	<time>2023-11-18T10:51:19.000Z</time>
</trkpt>
<trkpt lat="45.9010780" lon="9.8259240">
	<ele>1802.20</ele>
	<time>2023-11-18T10:51:20.000Z</time>
</trkpt>
<trkpt lat="45.9010780" lon="9.8259240">
	<ele>1802.20</ele>
	<time>2023-11-18T10:51:21.000Z</time>
</trkpt>
<trkpt lat="45.9010780" lon="9.8259240">
	<ele>1802.20</ele>
	<time>2023-11-18T10:51:22.000Z</time>
</trkpt>
<trkpt lat="45.9010780" lon="9.8259240">
	<ele>1802.20</ele>
	<time>2023-11-18T10:51:23.000Z</time>
</trkpt>
<trkpt lat="45.9010790" lon="9.8259240">
	<ele>1802.20</ele>
	<time>2023-11-18T10:51:24.000Z</time>
</trkpt>
<trkpt lat="45.9010780" lon="9.8259240">
	<ele>1802.20</ele>
	<time>2023-11-18T10:51:25.000Z</time>
</trkpt>
<trkpt lat="45.9010780" lon="9.8259240">
	<ele>1802.20</ele>
	<time>2023-11-18T10:51:26.000Z</time>
</trkpt>
<trkpt lat="45.9010780" lon="9.8259240">
	<ele>1802.20</ele>
	<time>2023-11-18T10:51:27.000Z</time>
</trkpt>
<trkpt lat="45.9010790" lon="9.8259240">
	<ele>1802.20</ele>
	<time>2023-11-18T10:51:28.000Z</time>
</trkpt>
<trkpt lat="45.9010790" lon="9.8259240">
	<ele>1802.20</ele>
	<time>2023-11-18T10:51:29.000Z</time>
</trkpt>
<trkpt lat="45.9010790" lon="9.8259240">
	<ele>1802.20</ele>
	<time>2023-11-18T10:51:30.000Z</time>
</trkpt>
<trkpt lat="45.9010790" lon="9.8259240">
	<ele>1802.20</ele>
	<time>2023-11-18T10:51:31.000Z</time>
</trkpt>
<trkpt lat="45.9010790" lon="9.8259240">
	<ele>1802.20</ele>
	<time>2023-11-18T10:51:32.000Z</time>
</trkpt>
<trkpt lat="45.9010790" lon="9.8259240">
	<ele>1802.20</ele>
	<time>2023-11-18T10:51:33.000Z</time>
</trkpt>
<trkpt lat="45.9010790" lon="9.8259240">
	<ele>1802.20</ele>
	<time>2023-11-18T10:51:34.000Z</time>
</trkpt>
<trkpt lat="45.9010790" lon="9.8259250">
	<ele>1802.20</ele>
	<time>2023-11-18T10:51:35.000Z</time>
</trkpt>
<trkpt lat="45.9010790" lon="9.8259250">
	<ele>1802.20</ele>
	<time>2023-11-18T10:51:36.000Z</time>
</trkpt>
<trkpt lat="45.9010790" lon="9.8259250">
	<ele>1802.20</ele>
	<time>2023-11-18T10:51:37.000Z</time>
</trkpt>
<trkpt lat="45.9010790" lon="9.8259250">
	<ele>1802.20</ele>
	<time>2023-11-18T10:51:38.000Z</time>
</trkpt>
<trkpt lat="45.9010790" lon="9.8259250">
	<ele>1802.20</ele>
	<time>2023-11-18T10:51:39.000Z</time>
</trkpt>
<trkpt lat="45.9010790" lon="9.8259250">
	<ele>1802.20</ele>
	<time>2023-11-18T10:51:40.000Z</time>
</trkpt>
<trkpt lat="45.9010790" lon="9.8259250">
	<ele>1802.20</ele>
	<time>2023-11-18T10:51:41.000Z</time>
</trkpt>
<trkpt lat="45.9010790" lon="9.8259250">
	<ele>1802.20</ele>
	<time>2023-11-18T10:51:42.000Z</time>
</trkpt>
<trkpt lat="45.9010790" lon="9.8259250">
	<ele>1802.20</ele>
	<time>2023-11-18T10:51:43.000Z</time>
</trkpt>
<trkpt lat="45.9010790" lon="9.8259250">
	<ele>1802.20</ele>
	<time>2023-11-18T10:51:44.000Z</time>
</trkpt>
<trkpt lat="45.9010800" lon="9.8259250">
	<ele>1802.20</ele>
	<time>2023-11-18T10:51:45.000Z</time>
</trkpt>
<trkpt lat="45.9010800" lon="9.8259260">
	<ele>1802.20</ele>
	<time>2023-11-18T10:51:46.000Z</time>
</trkpt>
<trkpt lat="45.9010800" lon="9.8259260">
	<ele>1802.20</ele>
	<time>2023-11-18T10:51:47.000Z</time>
</trkpt>
<trkpt lat="45.9010800" lon="9.8259250">
	<ele>1802.20</ele>
	<time>2023-11-18T10:51:48.000Z</time>
</trkpt>
<trkpt lat="45.9010800" lon="9.8259250">
	<ele>1802.20</ele>
	<time>2023-11-18T10:51:49.000Z</time>
</trkpt>
<trkpt lat="45.9010800" lon="9.8259250">
	<ele>1802.20</ele>
	<time>2023-11-18T10:51:50.000Z</time>
</trkpt>
<trkpt lat="45.9010800" lon="9.8259250">
	<ele>1802.20</ele>
	<time>2023-11-18T10:51:51.000Z</time>
</trkpt>
<trkpt lat="45.9010800" lon="9.8259250">
	<ele>1802.20</ele>
	<time>2023-11-18T10:51:52.000Z</time>
</trkpt>
<trkpt lat="45.9010800" lon="9.8259250">
	<ele>1802.20</ele>
	<time>2023-11-18T10:51:53.000Z</time>
</trkpt>
<trkpt lat="45.9010790" lon="9.8259250">
	<ele>1802.20</ele>
	<time>2023-11-18T10:51:54.000Z</time>
</trkpt>
<trkpt lat="45.9010790" lon="9.8259250">
	<ele>1802.20</ele>
	<time>2023-11-18T10:51:55.000Z</time>
</trkpt>
<trkpt lat="45.9010800" lon="9.8259250">
	<ele>1802.20</ele>
	<time>2023-11-18T10:51:56.000Z</time>
</trkpt>
<trkpt lat="45.9010800" lon="9.8259250">
	<ele>1802.20</ele>
	<time>2023-11-18T10:51:57.000Z</time>
</trkpt>
<trkpt lat="45.9010800" lon="9.8259250">
	<ele>1802.20</ele>
	<time>2023-11-18T10:51:58.000Z</time>
</trkpt>
<trkpt lat="45.9010800" lon="9.8259250">
	<ele>1802.20</ele>
	<time>2023-11-18T10:51:59.000Z</time>
</trkpt>
<trkpt lat="45.9010800" lon="9.8259250">
	<ele>1802.20</ele>
	<time>2023-11-18T10:52:00.000Z</time>
</trkpt>
<trkpt lat="45.9010800" lon="9.8259250">
	<ele>1802.20</ele>
	<time>2023-11-18T10:52:01.000Z</time>
</trkpt>
<trkpt lat="45.9010800" lon="9.8259250">
	<ele>1802.20</ele>
	<time>2023-11-18T10:52:02.000Z</time>
</trkpt>
<trkpt lat="45.9010800" lon="9.8259250">
	<ele>1802.20</ele>
	<time>2023-11-18T10:52:03.000Z</time>
</trkpt>
<trkpt lat="45.9010800" lon="9.8259250">
	<ele>1802.20</ele>
	<time>2023-11-18T10:52:04.000Z</time>
</trkpt>
<trkpt lat="45.9010800" lon="9.8259250">
	<ele>1802.20</ele>
	<time>2023-11-18T10:52:05.000Z</time>
</trkpt>
<trkpt lat="45.9010800" lon="9.8259260">
	<ele>1802.20</ele>
	<time>2023-11-18T10:52:06.000Z</time>
</trkpt>
<trkpt lat="45.9010800" lon="9.8259260">
	<ele>1802.20</ele>
	<time>2023-11-18T10:52:07.000Z</time>
</trkpt>
<trkpt lat="45.9010800" lon="9.8259260">
	<ele>1802.20</ele>
	<time>2023-11-18T10:52:08.000Z</time>
</trkpt>
<trkpt lat="45.9010800" lon="9.8259260">
	<ele>1802.20</ele>
	<time>2023-11-18T10:52:09.000Z</time>
</trkpt>
<trkpt lat="45.9010800" lon="9.8259250">
	<ele>1802.20</ele>
	<time>2023-11-18T10:52:10.000Z</time>
</trkpt>
<trkpt lat="45.9010800" lon="9.8259250">
	<ele>1802.20</ele>
	<time>2023-11-18T10:52:11.000Z</time>
</trkpt>
<trkpt lat="45.9010800" lon="9.8259250">
	<ele>1802.20</ele>
	<time>2023-11-18T10:52:12.000Z</time>
</trkpt>
<trkpt lat="45.9010800" lon="9.8259250">
	<ele>1802.20</ele>
	<time>2023-11-18T10:52:13.000Z</time>
</trkpt>
<trkpt lat="45.9010800" lon="9.8259250">
	<ele>1802.20</ele>
	<time>2023-11-18T10:52:14.000Z</time>
</trkpt>
<trkpt lat="45.9010800" lon="9.8259250">
	<ele>1802.20</ele>
	<time>2023-11-18T10:52:15.000Z</time>
</trkpt>
<trkpt lat="45.9010800" lon="9.8259250">
	<ele>1802.20</ele>
	<time>2023-11-18T10:52:16.000Z</time>
</trkpt>
<trkpt lat="45.9010800" lon="9.8259250">
	<ele>1802.20</ele>
	<time>2023-11-18T10:52:17.000Z</time>
</trkpt>
<trkpt lat="45.9010800" lon="9.8259250">
	<ele>1802.20</ele>
	<time>2023-11-18T10:52:18.000Z</time>
</trkpt>
<trkpt lat="45.9010800" lon="9.8259250">
	<ele>1802.20</ele>
	<time>2023-11-18T10:52:19.000Z</time>
</trkpt>
<trkpt lat="45.9010800" lon="9.8259250">
	<ele>1802.20</ele>
	<time>2023-11-18T10:52:20.000Z</time>
</trkpt>
<trkpt lat="45.9010800" lon="9.8259250">
	<ele>1802.20</ele>
	<time>2023-11-18T10:52:21.000Z</time>
</trkpt>
<trkpt lat="45.9010800" lon="9.8259250">
	<ele>1802.20</ele>
	<time>2023-11-18T10:52:22.000Z</time>
</trkpt>
<trkpt lat="45.9010800" lon="9.8259250">
	<ele>1802.20</ele>
	<time>2023-11-18T10:52:23.000Z</time>
</trkpt>
<trkpt lat="45.9010790" lon="9.8259250">
	<ele>1802.20</ele>
	<time>2023-11-18T10:52:24.000Z</time>
</trkpt>
<trkpt lat="45.9010790" lon="9.8259250">
	<ele>1802.20</ele>
	<time>2023-11-18T10:52:25.000Z</time>
</trkpt>
<trkpt lat="45.9010790" lon="9.8259250">
	<ele>1802.20</ele>
	<time>2023-11-18T10:52:26.000Z</time>
</trkpt>
<trkpt lat="45.9010790" lon="9.8259250">
	<ele>1802.20</ele>
	<time>2023-11-18T10:52:27.000Z</time>
</trkpt>
<trkpt lat="45.9010790" lon="9.8259250">
	<ele>1802.20</ele>
	<time>2023-11-18T10:52:28.000Z</time>
</trkpt>
<trkpt lat="45.9010790" lon="9.8259250">
	<ele>1802.20</ele>
	<time>2023-11-18T10:52:29.000Z</time>
</trkpt>
<trkpt lat="45.9010790" lon="9.8259250">
	<ele>1802.20</ele>
	<time>2023-11-18T10:52:30.000Z</time>
</trkpt>
<trkpt lat="45.9010790" lon="9.8259250">
	<ele>1802.20</ele>
	<time>2023-11-18T10:52:31.000Z</time>
</trkpt>
<trkpt lat="45.9010790" lon="9.8259250">
	<ele>1802.20</ele>
	<time>2023-11-18T10:52:32.000Z</time>
</trkpt>
<trkpt lat="45.9010790" lon="9.8259250">
	<ele>1802.20</ele>
	<time>2023-11-18T10:52:33.000Z</time>
</trkpt>
<trkpt lat="45.9010800" lon="9.8259250">
	<ele>1802.20</ele>
	<time>2023-11-18T10:52:34.000Z</time>
</trkpt>
<trkpt lat="45.9010800" lon="9.8259250">
	<ele>1802.20</ele>
	<time>2023-11-18T10:52:35.000Z</time>
</trkpt>
<trkpt lat="45.9010800" lon="9.8259250">
	<ele>1802.20</ele>
	<time>2023-11-18T10:52:36.000Z</time>
</trkpt>
<trkpt lat="45.9010800" lon="9.8259250">
	<ele>1802.20</ele>
	<time>2023-11-18T10:52:37.000Z</time>
</trkpt>
<trkpt lat="45.9010800" lon="9.8259250">
	<ele>1802.20</ele>
	<time>2023-11-18T10:52:38.000Z</time>
</trkpt>
<trkpt lat="45.9010800" lon="9.8259250">
	<ele>1802.20</ele>
	<time>2023-11-18T10:52:39.000Z</time>
</trkpt>
<trkpt lat="45.9010800" lon="9.8259260">
	<ele>1802.20</ele>
	<time>2023-11-18T10:52:40.000Z</time>
</trkpt>
<trkpt lat="45.9010800" lon="9.8259260">
	<ele>1802.20</ele>
	<time>2023-11-18T10:52:41.000Z</time>
</trkpt>
<trkpt lat="45.9010800" lon="9.8259260">
	<ele>1802.20</ele>
	<time>2023-11-18T10:52:42.000Z</time>
</trkpt>
<trkpt lat="45.9010810" lon="9.8259260">
	<ele>1802.20</ele>
	<time>2023-11-18T10:52:43.000Z</time>
</trkpt>
<trkpt lat="45.9010810" lon="9.8259260">
	<ele>1802.20</ele>
	<time>2023-11-18T10:52:44.000Z</time>
</trkpt>
<trkpt lat="45.9010810" lon="9.8259260">
	<ele>1802.20</ele>
	<time>2023-11-18T10:52:45.000Z</time>
</trkpt>
<trkpt lat="45.9010810" lon="9.8259260">
	<ele>1802.20</ele>
	<time>2023-11-18T10:52:46.000Z</time>
</trkpt>
<trkpt lat="45.9010810" lon="9.8259270">
	<ele>1802.20</ele>
	<time>2023-11-18T10:52:47.000Z</time>
</trkpt>
<trkpt lat="45.9010810" lon="9.8259270">
	<ele>1802.20</ele>
	<time>2023-11-18T10:52:48.000Z</time>
</trkpt>
<trkpt lat="45.9010810" lon="9.8259270">
	<ele>1802.20</ele>
	<time>2023-11-18T10:52:49.000Z</time>
</trkpt>
<trkpt lat="45.9010810" lon="9.8259270">
	<ele>1802.20</ele>
	<time>2023-11-18T10:52:50.000Z</time>
</trkpt>
<trkpt lat="45.9010810" lon="9.8259270">
	<ele>1802.20</ele>
	<time>2023-11-18T10:52:51.000Z</time>
</trkpt>
<trkpt lat="45.9010810" lon="9.8259270">
	<ele>1802.20</ele>
	<time>2023-11-18T10:52:52.000Z</time>
</trkpt>
<trkpt lat="45.9010810" lon="9.8259270">
	<ele>1802.20</ele>
	<time>2023-11-18T10:52:53.000Z</time>
</trkpt>
<trkpt lat="45.9010810" lon="9.8259270">
	<ele>1802.20</ele>
	<time>2023-11-18T10:52:54.000Z</time>
</trkpt>
<trkpt lat="45.9010810" lon="9.8259270">
	<ele>1802.20</ele>
	<time>2023-11-18T10:52:55.000Z</time>
</trkpt>
<trkpt lat="45.9010810" lon="9.8259270">
	<ele>1802.20</ele>
	<time>2023-11-18T10:52:56.000Z</time>
</trkpt>
<trkpt lat="45.9010810" lon="9.8259270">
	<ele>1802.20</ele>
	<time>2023-11-18T10:52:57.000Z</time>
</trkpt>
<trkpt lat="45.9010810" lon="9.8259270">
	<ele>1802.20</ele>
	<time>2023-11-18T10:52:58.000Z</time>
</trkpt>
<trkpt lat="45.9010810" lon="9.8259270">
	<ele>1802.20</ele>
	<time>2023-11-18T10:52:59.000Z</time>
</trkpt>
<trkpt lat="45.9010810" lon="9.8259270">
	<ele>1802.20</ele>
	<time>2023-11-18T10:53:00.000Z</time>
</trkpt>
<trkpt lat="45.9010810" lon="9.8259270">
	<ele>1802.20</ele>
	<time>2023-11-18T10:53:01.000Z</time>
</trkpt>
<trkpt lat="45.9010810" lon="9.8259270">
	<ele>1802.20</ele>
	<time>2023-11-18T10:53:02.000Z</time>
</trkpt>
<trkpt lat="45.9010810" lon="9.8259280">
	<ele>1802.20</ele>
	<time>2023-11-18T10:53:03.000Z</time>
</trkpt>
<trkpt lat="45.9010810" lon="9.8259280">
	<ele>1802.20</ele>
	<time>2023-11-18T10:53:04.000Z</time>
</trkpt>
<trkpt lat="45.9010810" lon="9.8259280">
	<ele>1802.20</ele>
	<time>2023-11-18T10:53:05.000Z</time>
</trkpt>
<trkpt lat="45.9010810" lon="9.8259280">
	<ele>1802.20</ele>
	<time>2023-11-18T10:53:06.000Z</time>
</trkpt>
<trkpt lat="45.9010810" lon="9.8259270">
	<ele>1802.20</ele>
	<time>2023-11-18T10:53:07.000Z</time>
</trkpt>
<trkpt lat="45.9010810" lon="9.8259270">
	<ele>1802.20</ele>
	<time>2023-11-18T10:53:08.000Z</time>
</trkpt>
<trkpt lat="45.9010810" lon="9.8259270">
	<ele>1802.20</ele>
	<time>2023-11-18T10:53:09.000Z</time>
</trkpt>
<trkpt lat="45.9010810" lon="9.8259270">
	<ele>1802.20</ele>
	<time>2023-11-18T10:53:10.000Z</time>
</trkpt>
<trkpt lat="45.9010810" lon="9.8259270">
	<ele>1802.20</ele>
	<time>2023-11-18T10:53:11.000Z</time>
</trkpt>
<trkpt lat="45.9010810" lon="9.8259270">
	<ele>1802.20</ele>
	<time>2023-11-18T10:53:12.000Z</time>
</trkpt>
<trkpt lat="45.9010810" lon="9.8259270">
	<ele>1802.20</ele>
	<time>2023-11-18T10:53:13.000Z</time>
</trkpt>
<trkpt lat="45.9010810" lon="9.8259270">
	<ele>1802.20</ele>
	<time>2023-11-18T10:53:14.000Z</time>
</trkpt>
<trkpt lat="45.9010810" lon="9.8259270">
	<ele>1802.20</ele>
	<time>2023-11-18T10:53:15.000Z</time>
</trkpt>
<trkpt lat="45.9010810" lon="9.8259270">
	<ele>1802.20</ele>
	<time>2023-11-18T10:53:16.000Z</time>
</trkpt>
<trkpt lat="45.9010810" lon="9.8259270">
	<ele>1802.20</ele>
	<time>2023-11-18T10:53:17.000Z</time>
</trkpt>
<trkpt lat="45.9010810" lon="9.8259270">
	<ele>1802.20</ele>
	<time>2023-11-18T10:53:18.000Z</time>
</trkpt>
<trkpt lat="45.9010810" lon="9.8259270">
	<ele>1802.20</ele>
	<time>2023-11-18T10:53:19.000Z</time>
</trkpt>
<trkpt lat="45.9010810" lon="9.8259270">
	<ele>1802.20</ele>
	<time>2023-11-18T10:53:20.000Z</time>
</trkpt>
<trkpt lat="45.9010810" lon="9.8259270">
	<ele>1802.20</ele>
	<time>2023-11-18T10:53:21.000Z</time>
</trkpt>
<trkpt lat="45.9010810" lon="9.8259270">
	<ele>1802.20</ele>
	<time>2023-11-18T10:53:22.000Z</time>
</trkpt>
<trkpt lat="45.9010810" lon="9.8259270">
	<ele>1802.20</ele>
	<time>2023-11-18T10:53:23.000Z</time>
</trkpt>
<trkpt lat="45.9010810" lon="9.8259270">
	<ele>1802.20</ele>
	<time>2023-11-18T10:53:24.000Z</time>
</trkpt>
<trkpt lat="45.9010810" lon="9.8259270">
	<ele>1802.20</ele>
	<time>2023-11-18T10:53:25.000Z</time>
</trkpt>
<trkpt lat="45.9010810" lon="9.8259270">
	<ele>1802.20</ele>
	<time>2023-11-18T10:53:26.000Z</time>
</trkpt>
<trkpt lat="45.9010810" lon="9.8259270">
	<ele>1802.20</ele>
	<time>2023-11-18T10:53:27.000Z</time>
</trkpt>
<trkpt lat="45.9010810" lon="9.8259270">
	<ele>1802.20</ele>
	<time>2023-11-18T10:53:28.000Z</time>
</trkpt>
<trkpt lat="45.9010810" lon="9.8259270">
	<ele>1802.20</ele>
	<time>2023-11-18T10:53:29.000Z</time>
</trkpt>
<trkpt lat="45.9010810" lon="9.8259270">
	<ele>1802.20</ele>
	<time>2023-11-18T10:53:30.000Z</time>
</trkpt>
<trkpt lat="45.9010810" lon="9.8259270">
	<ele>1802.20</ele>
	<time>2023-11-18T10:53:31.000Z</time>
</trkpt>
<trkpt lat="45.9010810" lon="9.8259270">
	<ele>1802.20</ele>
	<time>2023-11-18T10:53:32.000Z</time>
</trkpt>
<trkpt lat="45.9010810" lon="9.8259270">
	<ele>1802.20</ele>
	<time>2023-11-18T10:53:33.000Z</time>
</trkpt>
<trkpt lat="45.9010810" lon="9.8259260">
	<ele>1802.20</ele>
	<time>2023-11-18T10:53:34.000Z</time>
</trkpt>
<trkpt lat="45.9010810" lon="9.8259260">
	<ele>1802.20</ele>
	<time>2023-11-18T10:53:35.000Z</time>
</trkpt>
<trkpt lat="45.9010810" lon="9.8259260">
	<ele>1802.20</ele>
	<time>2023-11-18T10:53:36.000Z</time>
</trkpt>
<trkpt lat="45.9010810" lon="9.8259260">
	<ele>1802.20</ele>
	<time>2023-11-18T10:53:37.000Z</time>
</trkpt>
<trkpt lat="45.9010810" lon="9.8259260">
	<ele>1802.20</ele>
	<time>2023-11-18T10:53:38.000Z</time>
</trkpt>
<trkpt lat="45.9010810" lon="9.8259260">
	<ele>1802.20</ele>
	<time>2023-11-18T10:53:39.000Z</time>
</trkpt>
<trkpt lat="45.9010810" lon="9.8259260">
	<ele>1802.20</ele>
	<time>2023-11-18T10:53:40.000Z</time>
</trkpt>
<trkpt lat="45.9010810" lon="9.8259260">
	<ele>1802.20</ele>
	<time>2023-11-18T10:53:41.000Z</time>
</trkpt>
<trkpt lat="45.9010820" lon="9.8259270">
	<ele>1802.20</ele>
	<time>2023-11-18T10:53:42.000Z</time>
</trkpt>
<trkpt lat="45.9010820" lon="9.8259270">
	<ele>1802.20</ele>
	<time>2023-11-18T10:53:43.000Z</time>
</trkpt>
<trkpt lat="45.9010820" lon="9.8259270">
	<ele>1802.20</ele>
	<time>2023-11-18T10:53:44.000Z</time>
</trkpt>
<trkpt lat="45.9010820" lon="9.8259270">
	<ele>1802.20</ele>
	<time>2023-11-18T10:53:45.000Z</time>
</trkpt>
<trkpt lat="45.9010820" lon="9.8259270">
	<ele>1802.20</ele>
	<time>2023-11-18T10:53:46.000Z</time>
</trkpt>
<trkpt lat="45.9010820" lon="9.8259270">
	<ele>1802.20</ele>
	<time>2023-11-18T10:53:47.000Z</time>
</trkpt>
<trkpt lat="45.9010820" lon="9.8259270">
	<ele>1802.20</ele>
	<time>2023-11-18T10:53:48.000Z</time>
</trkpt>
<trkpt lat="45.9010820" lon="9.8259270">
	<ele>1802.20</ele>
	<time>2023-11-18T10:53:49.000Z</time>
</trkpt>
<trkpt lat="45.9010820" lon="9.8259270">
	<ele>1802.20</ele>
	<time>2023-11-18T10:53:50.000Z</time>
</trkpt>
<trkpt lat="45.9010820" lon="9.8259270">
	<ele>1802.20</ele>
	<time>2023-11-18T10:53:51.000Z</time>
</trkpt>
<trkpt lat="45.9010820" lon="9.8259270">
	<ele>1802.20</ele>
	<time>2023-11-18T10:53:52.000Z</time>
</trkpt>
<trkpt lat="45.9010820" lon="9.8259270">
	<ele>1802.20</ele>
	<time>2023-11-18T10:53:53.000Z</time>
</trkpt>
<trkpt lat="45.9010820" lon="9.8259270">
	<ele>1802.20</ele>
	<time>2023-11-18T10:53:54.000Z</time>
</trkpt>
<trkpt lat="45.9010820" lon="9.8259270">
	<ele>1802.20</ele>
	<time>2023-11-18T10:53:55.000Z</time>
</trkpt>
<trkpt lat="45.9010820" lon="9.8259270">
	<ele>1802.20</ele>
	<time>2023-11-18T10:53:56.000Z</time>
</trkpt>
<trkpt lat="45.9010820" lon="9.8259270">
	<ele>1802.20</ele>
	<time>2023-11-18T10:53:57.000Z</time>
</trkpt>
<trkpt lat="45.9010820" lon="9.8259270">
	<ele>1802.20</ele>
	<time>2023-11-18T10:53:58.000Z</time>
</trkpt>
<trkpt lat="45.9010820" lon="9.8259270">
	<ele>1802.20</ele>
	<time>2023-11-18T10:53:59.000Z</time>
</trkpt>
<trkpt lat="45.9010820" lon="9.8259280">
	<ele>1802.20</ele>
	<time>2023-11-18T10:54:00.000Z</time>
</trkpt>
<trkpt lat="45.9010830" lon="9.8259280">
	<ele>1802.20</ele>
	<time>2023-11-18T10:54:01.000Z</time>
</trkpt>
<trkpt lat="45.9010830" lon="9.8259280">
	<ele>1802.20</ele>
	<time>2023-11-18T10:54:02.000Z</time>
</trkpt>
<trkpt lat="45.9010830" lon="9.8259280">
	<ele>1802.20</ele>
	<time>2023-11-18T10:54:03.000Z</time>
</trkpt>
<trkpt lat="45.9010830" lon="9.8259280">
	<ele>1802.20</ele>
	<time>2023-11-18T10:54:04.000Z</time>
</trkpt>
<trkpt lat="45.9010830" lon="9.8259280">
	<ele>1802.20</ele>
	<time>2023-11-18T10:54:05.000Z</time>
</trkpt>
<trkpt lat="45.9010830" lon="9.8259280">
	<ele>1802.20</ele>
	<time>2023-11-18T10:54:06.000Z</time>
</trkpt>
<trkpt lat="45.9010830" lon="9.8259280">
	<ele>1802.20</ele>
	<time>2023-11-18T10:54:07.000Z</time>
</trkpt>
<trkpt lat="45.9010830" lon="9.8259280">
	<ele>1802.20</ele>
	<time>2023-11-18T10:54:08.000Z</time>
</trkpt>
<trkpt lat="45.9010830" lon="9.8259280">
	<ele>1802.20</ele>
	<time>2023-11-18T10:54:09.000Z</time>
</trkpt>
<trkpt lat="45.9010890" lon="9.8259300">
	<ele>1802.20</ele>
	<time>2023-11-18T10:54:10.000Z</time>
</trkpt>
<trkpt lat="45.9010910" lon="9.8259280">
	<ele>1802.20</ele>
	<time>2023-11-18T10:54:11.000Z</time>
</trkpt>
<trkpt lat="45.9010960" lon="9.8259310">
	<ele>1802.20</ele>
	<time>2023-11-18T10:54:12.000Z</time>
</trkpt>
<trkpt lat="45.9011020" lon="9.8259330">
	<ele>1802.20</ele>
	<time>2023-11-18T10:54:13.000Z</time>
</trkpt>
<trkpt lat="45.9011020" lon="9.8259330">
	<ele>1802.20</ele>
	<time>2023-11-18T10:54:14.000Z</time>
</trkpt>
<trkpt lat="45.9011020" lon="9.8259330">
	<ele>1802.20</ele>
	<time>2023-11-18T10:54:15.000Z</time>
</trkpt>
<trkpt lat="45.9011020" lon="9.8259330">
	<ele>1802.20</ele>
	<time>2023-11-18T10:54:16.000Z</time>
</trkpt>
<trkpt lat="45.9011020" lon="9.8259330">
	<ele>1802.20</ele>
	<time>2023-11-18T10:54:17.000Z</time>
</trkpt>
<trkpt lat="45.9011020" lon="9.8259330">
	<ele>1802.20</ele>
	<time>2023-11-18T10:54:18.000Z</time>
</trkpt>
<trkpt lat="45.9011020" lon="9.8259330">
	<ele>1802.20</ele>
	<time>2023-11-18T10:54:19.000Z</time>
</trkpt>
<trkpt lat="45.9011340" lon="9.8259430">
	<ele>1802.20</ele>
	<time>2023-11-18T10:54:20.000Z</time>
</trkpt>
<trkpt lat="45.9011360" lon="9.8259440">
	<ele>1802.20</ele>
	<time>2023-11-18T10:54:21.000Z</time>
</trkpt>
<trkpt lat="45.9011360" lon="9.8259440">
	<ele>1802.20</ele>
	<time>2023-11-18T10:54:22.000Z</time>
</trkpt>
<trkpt lat="45.9011390" lon="9.8259470">
	<ele>1802.20</ele>
	<time>2023-11-18T10:54:23.000Z</time>
</trkpt>
<trkpt lat="45.9011410" lon="9.8259520">
	<ele>1802.20</ele>
	<time>2023-11-18T10:54:24.000Z</time>
</trkpt>
<trkpt lat="45.9011430" lon="9.8259580">
	<ele>1802.20</ele>
	<time>2023-11-18T10:54:25.000Z</time>
</trkpt>
<trkpt lat="45.9011460" lon="9.8259610">
	<ele>1802.20</ele>
	<time>2023-11-18T10:54:26.000Z</time>
</trkpt>
<trkpt lat="45.9011470" lon="9.8259630">
	<ele>1802.20</ele>
	<time>2023-11-18T10:54:27.000Z</time>
</trkpt>
<trkpt lat="45.9011480" lon="9.8259630">
	<ele>1802.20</ele>
	<time>2023-11-18T10:54:28.000Z</time>
</trkpt>
<trkpt lat="45.9011480" lon="9.8259650">
	<ele>1802.20</ele>
	<time>2023-11-18T10:54:29.000Z</time>
</trkpt>
<trkpt lat="45.9011480" lon="9.8259650">
	<ele>1802.20</ele>
	<time>2023-11-18T10:54:30.000Z</time>
</trkpt>
<trkpt lat="45.9011480" lon="9.8259650">
	<ele>1802.20</ele>
	<time>2023-11-18T10:54:31.000Z</time>
</trkpt>
<trkpt lat="45.9011480" lon="9.8259660">
	<ele>1802.20</ele>
	<time>2023-11-18T10:54:32.000Z</time>
</trkpt>
<trkpt lat="45.9011480" lon="9.8259660">
	<ele>1802.20</ele>
	<time>2023-11-18T10:54:33.000Z</time>
</trkpt>
<trkpt lat="45.9011480" lon="9.8259660">
	<ele>1802.20</ele>
	<time>2023-11-18T10:54:34.000Z</time>
</trkpt>
<trkpt lat="45.9011470" lon="9.8259660">
	<ele>1802.20</ele>
	<time>2023-11-18T10:54:35.000Z</time>
</trkpt>
<trkpt lat="45.9011460" lon="9.8259650">
	<ele>1802.20</ele>
	<time>2023-11-18T10:54:36.000Z</time>
</trkpt>
<trkpt lat="45.9011460" lon="9.8259650">
	<ele>1802.20</ele>
	<time>2023-11-18T10:54:37.000Z</time>
</trkpt>
<trkpt lat="45.9011440" lon="9.8259650">
	<ele>1802.20</ele>
	<time>2023-11-18T10:54:38.000Z</time>
</trkpt>
<trkpt lat="45.9011440" lon="9.8259650">
	<ele>1802.20</ele>
	<time>2023-11-18T10:54:39.000Z</time>
</trkpt>
<trkpt lat="45.9011440" lon="9.8259650">
	<ele>1802.20</ele>
	<time>2023-11-18T10:54:40.000Z</time>
</trkpt>
<trkpt lat="45.9011440" lon="9.8259650">
	<ele>1802.20</ele>
	<time>2023-11-18T10:54:41.000Z</time>
</trkpt>
<trkpt lat="45.9011440" lon="9.8259650">
	<ele>1802.20</ele>
	<time>2023-11-18T10:54:42.000Z</time>
</trkpt>
<trkpt lat="45.9011440" lon="9.8259650">
	<ele>1802.20</ele>
	<time>2023-11-18T10:54:43.000Z</time>
</trkpt>
<trkpt lat="45.9011440" lon="9.8259650">
	<ele>1802.20</ele>
	<time>2023-11-18T10:54:44.000Z</time>
</trkpt>
<trkpt lat="45.9011420" lon="9.8259650">
	<ele>1802.20</ele>
	<time>2023-11-18T10:54:45.000Z</time>
</trkpt>
<trkpt lat="45.9011400" lon="9.8259640">
	<ele>1802.20</ele>
	<time>2023-11-18T10:54:46.000Z</time>
</trkpt>
<trkpt lat="45.9011380" lon="9.8259630">
	<ele>1802.20</ele>
	<time>2023-11-18T10:54:47.000Z</time>
</trkpt>
<trkpt lat="45.9011380" lon="9.8259630">
	<ele>1802.20</ele>
	<time>2023-11-18T10:54:48.000Z</time>
</trkpt>
<trkpt lat="45.9011330" lon="9.8259580">
	<ele>1802.20</ele>
	<time>2023-11-18T10:54:49.000Z</time>
</trkpt>
<trkpt lat="45.9011310" lon="9.8259560">
	<ele>1802.20</ele>
	<time>2023-11-18T10:54:50.000Z</time>
</trkpt>
<trkpt lat="45.9011300" lon="9.8259540">
	<ele>1802.20</ele>
	<time>2023-11-18T10:54:51.000Z</time>
</trkpt>
<trkpt lat="45.9011240" lon="9.8259450">
	<ele>1802.20</ele>
	<time>2023-11-18T10:54:52.000Z</time>
</trkpt>
<trkpt lat="45.9011220" lon="9.8259370">
	<ele>1802.20</ele>
	<time>2023-11-18T10:54:53.000Z</time>
</trkpt>
<trkpt lat="45.9011220" lon="9.8259340">
	<ele>1802.20</ele>
	<time>2023-11-18T10:54:54.000Z</time>
</trkpt>
<trkpt lat="45.9011220" lon="9.8259340">
	<ele>1802.20</ele>
	<time>2023-11-18T10:54:55.000Z</time>
</trkpt>
<trkpt lat="45.9011210" lon="9.8259320">
	<ele>1802.20</ele>
	<time>2023-11-18T10:54:56.000Z</time>
</trkpt>
<trkpt lat="45.9011210" lon="9.8259320">
	<ele>1802.20</ele>
	<time>2023-11-18T10:54:57.000Z</time>
</trkpt>
<trkpt lat="45.9011210" lon="9.8259310">
	<ele>1802.20</ele>
	<time>2023-11-18T10:54:58.000Z</time>
</trkpt>
<trkpt lat="45.9011210" lon="9.8259310">
	<ele>1802.20</ele>
	<time>2023-11-18T10:54:59.000Z</time>
</trkpt>
<trkpt lat="45.9011210" lon="9.8259300">
	<ele>1802.20</ele>
	<time>2023-11-18T10:55:00.000Z</time>
</trkpt>
<trkpt lat="45.9011210" lon="9.8259300">
	<ele>1802.20</ele>
	<time>2023-11-18T10:55:01.000Z</time>
</trkpt>
<trkpt lat="45.9011210" lon="9.8259300">
	<ele>1802.20</ele>
	<time>2023-11-18T10:55:02.000Z</time>
</trkpt>
<trkpt lat="45.9011210" lon="9.8259300">
	<ele>1802.20</ele>
	<time>2023-11-18T10:55:03.000Z</time>
</trkpt>
<trkpt lat="45.9011200" lon="9.8259300">
	<ele>1802.20</ele>
	<time>2023-11-18T10:55:04.000Z</time>
</trkpt>
<trkpt lat="45.9011200" lon="9.8259300">
	<ele>1802.20</ele>
	<time>2023-11-18T10:55:05.000Z</time>
</trkpt>
<trkpt lat="45.9011200" lon="9.8259300">
	<ele>1802.20</ele>
	<time>2023-11-18T10:55:06.000Z</time>
</trkpt>
<trkpt lat="45.9011190" lon="9.8259290">
	<ele>1802.20</ele>
	<time>2023-11-18T10:55:07.000Z</time>
</trkpt>
<trkpt lat="45.9011190" lon="9.8259290">
	<ele>1802.20</ele>
	<time>2023-11-18T10:55:08.000Z</time>
</trkpt>
<trkpt lat="45.9011190" lon="9.8259290">
	<ele>1802.20</ele>
	<time>2023-11-18T10:55:09.000Z</time>
</trkpt>
<trkpt lat="45.9011200" lon="9.8259290">
	<ele>1802.20</ele>
	<time>2023-11-18T10:55:10.000Z</time>
</trkpt>
<trkpt lat="45.9011200" lon="9.8259290">
	<ele>1802.20</ele>
	<time>2023-11-18T10:55:11.000Z</time>
</trkpt>
<trkpt lat="45.9011200" lon="9.8259290">
	<ele>1802.20</ele>
	<time>2023-11-18T10:55:12.000Z</time>
</trkpt>
<trkpt lat="45.9011200" lon="9.8259290">
	<ele>1802.20</ele>
	<time>2023-11-18T10:55:13.000Z</time>
</trkpt>
<trkpt lat="45.9011200" lon="9.8259290">
	<ele>1802.20</ele>
	<time>2023-11-18T10:55:14.000Z</time>
</trkpt>
<trkpt lat="45.9011200" lon="9.8259290">
	<ele>1802.20</ele>
	<time>2023-11-18T10:55:15.000Z</time>
</trkpt>
<trkpt lat="45.9011210" lon="9.8259290">
	<ele>1802.20</ele>
	<time>2023-11-18T10:55:16.000Z</time>
</trkpt>
<trkpt lat="45.9011210" lon="9.8259290">
	<ele>1802.20</ele>
	<time>2023-11-18T10:55:17.000Z</time>
</trkpt>
<trkpt lat="45.9011210" lon="9.8259290">
	<ele>1802.20</ele>
	<time>2023-11-18T10:55:18.000Z</time>
</trkpt>
<trkpt lat="45.9011210" lon="9.8259290">
	<ele>1802.20</ele>
	<time>2023-11-18T10:55:19.000Z</time>
</trkpt>
<trkpt lat="45.9011210" lon="9.8259290">
	<ele>1802.20</ele>
	<time>2023-11-18T10:55:20.000Z</time>
</trkpt>
<trkpt lat="45.9011200" lon="9.8259290">
	<ele>1802.20</ele>
	<time>2023-11-18T10:55:21.000Z</time>
</trkpt>
<trkpt lat="45.9011200" lon="9.8259280">
	<ele>1802.20</ele>
	<time>2023-11-18T10:55:22.000Z</time>
</trkpt>
<trkpt lat="45.9011200" lon="9.8259280">
	<ele>1802.20</ele>
	<time>2023-11-18T10:55:23.000Z</time>
</trkpt>
<trkpt lat="45.9011200" lon="9.8259280">
	<ele>1802.20</ele>
	<time>2023-11-18T10:55:24.000Z</time>
</trkpt>
<trkpt lat="45.9011200" lon="9.8259270">
	<ele>1802.20</ele>
	<time>2023-11-18T10:55:25.000Z</time>
</trkpt>
<trkpt lat="45.9011200" lon="9.8259270">
	<ele>1802.20</ele>
	<time>2023-11-18T10:55:26.000Z</time>
</trkpt>
<trkpt lat="45.9011200" lon="9.8259270">
	<ele>1802.20</ele>
	<time>2023-11-18T10:55:27.000Z</time>
</trkpt>
<trkpt lat="45.9011200" lon="9.8259270">
	<ele>1802.20</ele>
	<time>2023-11-18T10:55:28.000Z</time>
</trkpt>
<trkpt lat="45.9011200" lon="9.8259260">
	<ele>1802.20</ele>
	<time>2023-11-18T10:55:29.000Z</time>
</trkpt>
<trkpt lat="45.9011200" lon="9.8259260">
	<ele>1802.20</ele>
	<time>2023-11-18T10:55:30.000Z</time>
</trkpt>
<trkpt lat="45.9011200" lon="9.8259260">
	<ele>1802.20</ele>
	<time>2023-11-18T10:55:31.000Z</time>
</trkpt>
<trkpt lat="45.9011200" lon="9.8259260">
	<ele>1802.20</ele>
	<time>2023-11-18T10:55:32.000Z</time>
</trkpt>
<trkpt lat="45.9011190" lon="9.8259250">
	<ele>1802.20</ele>
	<time>2023-11-18T10:55:33.000Z</time>
</trkpt>
<trkpt lat="45.9011190" lon="9.8259250">
	<ele>1802.20</ele>
	<time>2023-11-18T10:55:34.000Z</time>
</trkpt>
<trkpt lat="45.9011190" lon="9.8259250">
	<ele>1802.20</ele>
	<time>2023-11-18T10:55:35.000Z</time>
</trkpt>
<trkpt lat="45.9011190" lon="9.8259250">
	<ele>1802.20</ele>
	<time>2023-11-18T10:55:36.000Z</time>
</trkpt>
<trkpt lat="45.9011190" lon="9.8259250">
	<ele>1802.20</ele>
	<time>2023-11-18T10:55:37.000Z</time>
</trkpt>
<trkpt lat="45.9011190" lon="9.8259240">
	<ele>1802.20</ele>
	<time>2023-11-18T10:55:38.000Z</time>
</trkpt>
<trkpt lat="45.9011180" lon="9.8259240">
	<ele>1802.20</ele>
	<time>2023-11-18T10:55:39.000Z</time>
</trkpt>
<trkpt lat="45.9011170" lon="9.8259240">
	<ele>1802.20</ele>
	<time>2023-11-18T10:55:40.000Z</time>
</trkpt>
<trkpt lat="45.9011160" lon="9.8259240">
	<ele>1802.20</ele>
	<time>2023-11-18T10:55:41.000Z</time>
</trkpt>
<trkpt lat="45.9011150" lon="9.8259240">
	<ele>1802.20</ele>
	<time>2023-11-18T10:55:42.000Z</time>
</trkpt>
<trkpt lat="45.9011140" lon="9.8259240">
	<ele>1802.20</ele>
	<time>2023-11-18T10:55:43.000Z</time>
</trkpt>
<trkpt lat="45.9011140" lon="9.8259240">
	<ele>1802.20</ele>
	<time>2023-11-18T10:55:44.000Z</time>
</trkpt>
<trkpt lat="45.9011140" lon="9.8259240">
	<ele>1802.20</ele>
	<time>2023-11-18T10:55:45.000Z</time>
</trkpt>
<trkpt lat="45.9011140" lon="9.8259240">
	<ele>1802.20</ele>
	<time>2023-11-18T10:55:46.000Z</time>
</trkpt>
<trkpt lat="45.9011140" lon="9.8259240">
	<ele>1802.20</ele>
	<time>2023-11-18T10:55:47.000Z</time>
</trkpt>
<trkpt lat="45.9011130" lon="9.8259240">
	<ele>1802.20</ele>
	<time>2023-11-18T10:55:48.000Z</time>
</trkpt>
<trkpt lat="45.9011130" lon="9.8259240">
	<ele>1802.20</ele>
	<time>2023-11-18T10:55:49.000Z</time>
</trkpt>
<trkpt lat="45.9011130" lon="9.8259240">
	<ele>1802.20</ele>
	<time>2023-11-18T10:55:50.000Z</time>
</trkpt>
<trkpt lat="45.9011130" lon="9.8259240">
	<ele>1802.20</ele>
	<time>2023-11-18T10:55:51.000Z</time>
</trkpt>
<trkpt lat="45.9011130" lon="9.8259240">
	<ele>1802.20</ele>
	<time>2023-11-18T10:55:52.000Z</time>
</trkpt>
<trkpt lat="45.9011130" lon="9.8259230">
	<ele>1802.20</ele>
	<time>2023-11-18T10:55:53.000Z</time>
</trkpt>
<trkpt lat="45.9011130" lon="9.8259230">
	<ele>1802.20</ele>
	<time>2023-11-18T10:55:54.000Z</time>
</trkpt>
<trkpt lat="45.9011130" lon="9.8259220">
	<ele>1802.20</ele>
	<time>2023-11-18T10:55:55.000Z</time>
</trkpt>
<trkpt lat="45.9011120" lon="9.8259210">
	<ele>1802.20</ele>
	<time>2023-11-18T10:55:56.000Z</time>
</trkpt>
<trkpt lat="45.9011120" lon="9.8259210">
	<ele>1802.20</ele>
	<time>2023-11-18T10:55:57.000Z</time>
</trkpt>
<trkpt lat="45.9011120" lon="9.8259200">
	<ele>1802.20</ele>
	<time>2023-11-18T10:55:58.000Z</time>
</trkpt>
<trkpt lat="45.9011110" lon="9.8259200">
	<ele>1802.20</ele>
	<time>2023-11-18T10:55:59.000Z</time>
</trkpt>
<trkpt lat="45.9011100" lon="9.8259200">
	<ele>1802.20</ele>
	<time>2023-11-18T10:56:00.000Z</time>
</trkpt>
<trkpt lat="45.9011090" lon="9.8259200">
	<ele>1802.20</ele>
	<time>2023-11-18T10:56:01.000Z</time>
</trkpt>
<trkpt lat="45.9011080" lon="9.8259200">
	<ele>1802.20</ele>
	<time>2023-11-18T10:56:02.000Z</time>
</trkpt>
<trkpt lat="45.9011070" lon="9.8259200">
	<ele>1802.20</ele>
	<time>2023-11-18T10:56:03.000Z</time>
</trkpt>
<trkpt lat="45.9011060" lon="9.8259200">
	<ele>1802.20</ele>
	<time>2023-11-18T10:56:04.000Z</time>
</trkpt>
<trkpt lat="45.9011050" lon="9.8259200">
	<ele>1802.20</ele>
	<time>2023-11-18T10:56:05.000Z</time>
</trkpt>
<trkpt lat="45.9011050" lon="9.8259210">
	<ele>1802.20</ele>
	<time>2023-11-18T10:56:06.000Z</time>
</trkpt>
<trkpt lat="45.9011040" lon="9.8259220">
	<ele>1802.20</ele>
	<time>2023-11-18T10:56:07.000Z</time>
</trkpt>
<trkpt lat="45.9011040" lon="9.8259230">
	<ele>1802.20</ele>
	<time>2023-11-18T10:56:08.000Z</time>
</trkpt>
<trkpt lat="45.9011040" lon="9.8259240">
	<ele>1802.20</ele>
	<time>2023-11-18T10:56:09.000Z</time>
</trkpt>
<trkpt lat="45.9011040" lon="9.8259260">
	<ele>1802.20</ele>
	<time>2023-11-18T10:56:10.000Z</time>
</trkpt>
<trkpt lat="45.9011040" lon="9.8259280">
	<ele>1802.20</ele>
	<time>2023-11-18T10:56:11.000Z</time>
</trkpt>
<trkpt lat="45.9011040" lon="9.8259280">
	<ele>1802.20</ele>
	<time>2023-11-18T10:56:12.000Z</time>
</trkpt>
<trkpt lat="45.9011040" lon="9.8259290">
	<ele>1802.20</ele>
	<time>2023-11-18T10:56:13.000Z</time>
</trkpt>
<trkpt lat="45.9011040" lon="9.8259290">
	<ele>1802.20</ele>
	<time>2023-11-18T10:56:14.000Z</time>
</trkpt>
<trkpt lat="45.9011040" lon="9.8259290">
	<ele>1802.20</ele>
	<time>2023-11-18T10:56:15.000Z</time>
</trkpt>
<trkpt lat="45.9011040" lon="9.8259290">
	<ele>1802.20</ele>
	<time>2023-11-18T10:56:16.000Z</time>
</trkpt>
<trkpt lat="45.9011030" lon="9.8259290">
	<ele>1802.20</ele>
	<time>2023-11-18T10:56:17.000Z</time>
</trkpt>
<trkpt lat="45.9011020" lon="9.8259310">
	<ele>1802.20</ele>
	<time>2023-11-18T10:56:18.000Z</time>
</trkpt>
<trkpt lat="45.9011020" lon="9.8259330">
	<ele>1802.20</ele>
	<time>2023-11-18T10:56:19.000Z</time>
</trkpt>
<trkpt lat="45.9011020" lon="9.8259350">
	<ele>1802.20</ele>
	<time>2023-11-18T10:56:20.000Z</time>
</trkpt>
<trkpt lat="45.9011020" lon="9.8259370">
	<ele>1802.20</ele>
	<time>2023-11-18T10:56:21.000Z</time>
</trkpt>
<trkpt lat="45.9011030" lon="9.8259380">
	<ele>1802.20</ele>
	<time>2023-11-18T10:56:22.000Z</time>
</trkpt>
<trkpt lat="45.9011030" lon="9.8259390">
	<ele>1802.20</ele>
	<time>2023-11-18T10:56:23.000Z</time>
</trkpt>
<trkpt lat="45.9011040" lon="9.8259400">
	<ele>1802.20</ele>
	<time>2023-11-18T10:56:24.000Z</time>
</trkpt>
<trkpt lat="45.9011040" lon="9.8259410">
	<ele>1802.20</ele>
	<time>2023-11-18T10:56:25.000Z</time>
</trkpt>
<trkpt lat="45.9011040" lon="9.8259420">
	<ele>1802.20</ele>
	<time>2023-11-18T10:56:26.000Z</time>
</trkpt>
<trkpt lat="45.9011050" lon="9.8259430">
	<ele>1802.20</ele>
	<time>2023-11-18T10:56:27.000Z</time>
</trkpt>
<trkpt lat="45.9011050" lon="9.8259430">
	<ele>1802.20</ele>
	<time>2023-11-18T10:56:28.000Z</time>
</trkpt>
<trkpt lat="45.9011050" lon="9.8259440">
	<ele>1802.20</ele>
	<time>2023-11-18T10:56:29.000Z</time>
</trkpt>
<trkpt lat="45.9011060" lon="9.8259430">
	<ele>1802.20</ele>
	<time>2023-11-18T10:56:30.000Z</time>
</trkpt>
<trkpt lat="45.9011060" lon="9.8259430">
	<ele>1802.20</ele>
	<time>2023-11-18T10:56:31.000Z</time>
</trkpt>
<trkpt lat="45.9011060" lon="9.8259430">
	<ele>1802.20</ele>
	<time>2023-11-18T10:56:32.000Z</time>
</trkpt>
<trkpt lat="45.9011060" lon="9.8259430">
	<ele>1802.20</ele>
	<time>2023-11-18T10:56:33.000Z</time>
</trkpt>
<trkpt lat="45.9011060" lon="9.8259430">
	<ele>1802.20</ele>
	<time>2023-11-18T10:56:34.000Z</time>
</trkpt>
<trkpt lat="45.9011060" lon="9.8259430">
	<ele>1802.20</ele>
	<time>2023-11-18T10:56:35.000Z</time>
</trkpt>
<trkpt lat="45.9011060" lon="9.8259430">
	<ele>1802.20</ele>
	<time>2023-11-18T10:56:36.000Z</time>
</trkpt>
<trkpt lat="45.9011040" lon="9.8259390">
	<ele>1802.20</ele>
	<time>2023-11-18T10:56:37.000Z</time>
</trkpt>
<trkpt lat="45.9011000" lon="9.8259270">
	<ele>1802.20</ele>
	<time>2023-11-18T10:56:38.000Z</time>
</trkpt>
<trkpt lat="45.9010980" lon="9.8259180">
	<ele>1802.20</ele>
	<time>2023-11-18T10:56:39.000Z</time>
</trkpt>
<trkpt lat="45.9010960" lon="9.8259150">
	<ele>1802.20</ele>
	<time>2023-11-18T10:56:40.000Z</time>
</trkpt>
<trkpt lat="45.9010960" lon="9.8259110">
	<ele>1802.20</ele>
	<time>2023-11-18T10:56:41.000Z</time>
</trkpt>
<trkpt lat="45.9010950" lon="9.8259060">
	<ele>1802.20</ele>
	<time>2023-11-18T10:56:42.000Z</time>
</trkpt>
<trkpt lat="45.9010930" lon="9.8259010">
	<ele>1802.20</ele>
	<time>2023-11-18T10:56:43.000Z</time>
</trkpt>
<trkpt lat="45.9010890" lon="9.8259010">
	<ele>1802.20</ele>
	<time>2023-11-18T10:56:44.000Z</time>
</trkpt>
<trkpt lat="45.9010850" lon="9.8258940">
	<ele>1802.20</ele>
	<time>2023-11-18T10:56:45.000Z</time>
</trkpt>
<trkpt lat="45.9010820" lon="9.8258880">
	<ele>1802.20</ele>
	<time>2023-11-18T10:56:46.000Z</time>
</trkpt>
<trkpt lat="45.9010830" lon="9.8258890">
	<ele>1802.20</ele>
	<time>2023-11-18T10:56:47.000Z</time>
</trkpt>
<trkpt lat="45.9010840" lon="9.8258910">
	<ele>1802.20</ele>
	<time>2023-11-18T10:56:48.000Z</time>
</trkpt>
<trkpt lat="45.9010850" lon="9.8258930">
	<ele>1802.20</ele>
	<time>2023-11-18T10:56:49.000Z</time>
</trkpt>
<trkpt lat="45.9010860" lon="9.8258940">
	<ele>1802.20</ele>
	<time>2023-11-18T10:56:50.000Z</time>
</trkpt>
<trkpt lat="45.9010850" lon="9.8258920">
	<ele>1802.20</ele>
	<time>2023-11-18T10:56:51.000Z</time>
</trkpt>
<trkpt lat="45.9010850" lon="9.8258920">
	<ele>1802.20</ele>
	<time>2023-11-18T10:56:52.000Z</time>
</trkpt>
<trkpt lat="45.9010860" lon="9.8258930">
	<ele>1802.20</ele>
	<time>2023-11-18T10:56:53.000Z</time>
</trkpt>
<trkpt lat="45.9010870" lon="9.8258950">
	<ele>1802.20</ele>
	<time>2023-11-18T10:56:54.000Z</time>
</trkpt>
<trkpt lat="45.9010870" lon="9.8258960">
	<ele>1802.20</ele>
	<time>2023-11-18T10:56:55.000Z</time>
</trkpt>
<trkpt lat="45.9010870" lon="9.8258960">
	<ele>1802.20</ele>
	<time>2023-11-18T10:56:56.000Z</time>
</trkpt>
<trkpt lat="45.9010870" lon="9.8258960">
	<ele>1802.20</ele>
	<time>2023-11-18T10:56:57.000Z</time>
</trkpt>
<trkpt lat="45.9010870" lon="9.8258960">
	<ele>1802.20</ele>
	<time>2023-11-18T10:56:58.000Z</time>
</trkpt>
<trkpt lat="45.9010870" lon="9.8258960">
	<ele>1802.20</ele>
	<time>2023-11-18T10:56:59.000Z</time>
</trkpt>
<trkpt lat="45.9010870" lon="9.8258960">
	<ele>1802.20</ele>
	<time>2023-11-18T10:57:00.000Z</time>
</trkpt>
<trkpt lat="45.9010870" lon="9.8258960">
	<ele>1802.20</ele>
	<time>2023-11-18T10:57:01.000Z</time>
</trkpt>
<trkpt lat="45.9010870" lon="9.8258960">
	<ele>1802.20</ele>
	<time>2023-11-18T10:57:02.000Z</time>
</trkpt>
<trkpt lat="45.9010870" lon="9.8258960">
	<ele>1802.20</ele>
	<time>2023-11-18T10:57:03.000Z</time>
</trkpt>
<trkpt lat="45.9010870" lon="9.8258960">
	<ele>1802.20</ele>
	<time>2023-11-18T10:57:04.000Z</time>
</trkpt>
<trkpt lat="45.9010860" lon="9.8258960">
	<ele>1802.20</ele>
	<time>2023-11-18T10:57:05.000Z</time>
</trkpt>
<trkpt lat="45.9010860" lon="9.8258960">
	<ele>1802.20</ele>
	<time>2023-11-18T10:57:06.000Z</time>
</trkpt>
<trkpt lat="45.9010860" lon="9.8258960">
	<ele>1802.20</ele>
	<time>2023-11-18T10:57:07.000Z</time>
</trkpt>
<trkpt lat="45.9010860" lon="9.8258960">
	<ele>1802.20</ele>
	<time>2023-11-18T10:57:08.000Z</time>
</trkpt>
<trkpt lat="45.9010850" lon="9.8258960">
	<ele>1802.20</ele>
	<time>2023-11-18T10:57:09.000Z</time>
</trkpt>
<trkpt lat="45.9010850" lon="9.8258960">
	<ele>1802.20</ele>
	<time>2023-11-18T10:57:10.000Z</time>
</trkpt>
<trkpt lat="45.9010850" lon="9.8258960">
	<ele>1802.20</ele>
	<time>2023-11-18T10:57:11.000Z</time>
</trkpt>
<trkpt lat="45.9010850" lon="9.8258960">
	<ele>1802.20</ele>
	<time>2023-11-18T10:57:12.000Z</time>
</trkpt>
<trkpt lat="45.9010850" lon="9.8258960">
	<ele>1802.20</ele>
	<time>2023-11-18T10:57:13.000Z</time>
</trkpt>
<trkpt lat="45.9010850" lon="9.8258960">
	<ele>1802.20</ele>
	<time>2023-11-18T10:57:14.000Z</time>
</trkpt>
<trkpt lat="45.9010850" lon="9.8258960">
	<ele>1802.20</ele>
	<time>2023-11-18T10:57:15.000Z</time>
</trkpt>
<trkpt lat="45.9010850" lon="9.8258960">
	<ele>1802.20</ele>
	<time>2023-11-18T10:57:16.000Z</time>
</trkpt>
<trkpt lat="45.9010850" lon="9.8258960">
	<ele>1802.20</ele>
	<time>2023-11-18T10:57:17.000Z</time>
</trkpt>
<trkpt lat="45.9010850" lon="9.8258960">
	<ele>1802.20</ele>
	<time>2023-11-18T10:57:18.000Z</time>
</trkpt>
<trkpt lat="45.9010840" lon="9.8258960">
	<ele>1802.20</ele>
	<time>2023-11-18T10:57:19.000Z</time>
</trkpt>
<trkpt lat="45.9010840" lon="9.8258960">
	<ele>1802.20</ele>
	<time>2023-11-18T10:57:20.000Z</time>
</trkpt>
<trkpt lat="45.9010840" lon="9.8258960">
	<ele>1802.20</ele>
	<time>2023-11-18T10:57:21.000Z</time>
</trkpt>
<trkpt lat="45.9010840" lon="9.8258960">
	<ele>1802.20</ele>
	<time>2023-11-18T10:57:22.000Z</time>
</trkpt>
<trkpt lat="45.9010840" lon="9.8258970">
	<ele>1802.20</ele>
	<time>2023-11-18T10:57:23.000Z</time>
</trkpt>
<trkpt lat="45.9010840" lon="9.8258970">
	<ele>1802.20</ele>
	<time>2023-11-18T10:57:24.000Z</time>
</trkpt>
<trkpt lat="45.9010830" lon="9.8258970">
	<ele>1802.20</ele>
	<time>2023-11-18T10:57:25.000Z</time>
</trkpt>
<trkpt lat="45.9010830" lon="9.8258970">
	<ele>1802.20</ele>
	<time>2023-11-18T10:57:26.000Z</time>
</trkpt>
<trkpt lat="45.9010830" lon="9.8258970">
	<ele>1802.20</ele>
	<time>2023-11-18T10:57:27.000Z</time>
</trkpt>
<trkpt lat="45.9010830" lon="9.8258970">
	<ele>1802.20</ele>
	<time>2023-11-18T10:57:28.000Z</time>
</trkpt>
<trkpt lat="45.9010820" lon="9.8258970">
	<ele>1802.20</ele>
	<time>2023-11-18T10:57:29.000Z</time>
</trkpt>
<trkpt lat="45.9010820" lon="9.8258970">
	<ele>1802.20</ele>
	<time>2023-11-18T10:57:30.000Z</time>
</trkpt>
<trkpt lat="45.9010820" lon="9.8258970">
	<ele>1802.20</ele>
	<time>2023-11-18T10:57:31.000Z</time>
</trkpt>
<trkpt lat="45.9010820" lon="9.8258980">
	<ele>1802.20</ele>
	<time>2023-11-18T10:57:32.000Z</time>
</trkpt>
<trkpt lat="45.9010820" lon="9.8258980">
	<ele>1802.20</ele>
	<time>2023-11-18T10:57:33.000Z</time>
</trkpt>
<trkpt lat="45.9010820" lon="9.8258980">
	<ele>1802.20</ele>
	<time>2023-11-18T10:57:34.000Z</time>
</trkpt>
<trkpt lat="45.9010820" lon="9.8258980">
	<ele>1802.20</ele>
	<time>2023-11-18T10:57:35.000Z</time>
</trkpt>
<trkpt lat="45.9010810" lon="9.8258980">
	<ele>1802.20</ele>
	<time>2023-11-18T10:57:36.000Z</time>
</trkpt>
<trkpt lat="45.9010810" lon="9.8258980">
	<ele>1802.20</ele>
	<time>2023-11-18T10:57:37.000Z</time>
</trkpt>
<trkpt lat="45.9010810" lon="9.8258980">
	<ele>1802.20</ele>
	<time>2023-11-18T10:57:38.000Z</time>
</trkpt>
<trkpt lat="45.9010810" lon="9.8258980">
	<ele>1802.20</ele>
	<time>2023-11-18T10:57:39.000Z</time>
</trkpt>
<trkpt lat="45.9010800" lon="9.8258980">
	<ele>1802.20</ele>
	<time>2023-11-18T10:57:40.000Z</time>
</trkpt>
<trkpt lat="45.9010800" lon="9.8258980">
	<ele>1802.20</ele>
	<time>2023-11-18T10:57:41.000Z</time>
</trkpt>
<trkpt lat="45.9010790" lon="9.8258980">
	<ele>1802.20</ele>
	<time>2023-11-18T10:57:42.000Z</time>
</trkpt>
<trkpt lat="45.9010790" lon="9.8258980">
	<ele>1802.20</ele>
	<time>2023-11-18T10:57:43.000Z</time>
</trkpt>
<trkpt lat="45.9010790" lon="9.8258980">
	<ele>1802.20</ele>
	<time>2023-11-18T10:57:44.000Z</time>
</trkpt>
<trkpt lat="45.9010790" lon="9.8258980">
	<ele>1802.20</ele>
	<time>2023-11-18T10:57:45.000Z</time>
</trkpt>
<trkpt lat="45.9010790" lon="9.8258980">
	<ele>1802.20</ele>
	<time>2023-11-18T10:57:46.000Z</time>
</trkpt>
<trkpt lat="45.9010780" lon="9.8258980">
	<ele>1802.20</ele>
	<time>2023-11-18T10:57:47.000Z</time>
</trkpt>
<trkpt lat="45.9010770" lon="9.8258970">
	<ele>1802.20</ele>
	<time>2023-11-18T10:57:48.000Z</time>
</trkpt>
<trkpt lat="45.9010760" lon="9.8258970">
	<ele>1802.20</ele>
	<time>2023-11-18T10:57:49.000Z</time>
</trkpt>
<trkpt lat="45.9010760" lon="9.8258970">
	<ele>1802.20</ele>
	<time>2023-11-18T10:57:50.000Z</time>
</trkpt>
<trkpt lat="45.9010760" lon="9.8258970">
	<ele>1802.20</ele>
	<time>2023-11-18T10:57:51.000Z</time>
</trkpt>
<trkpt lat="45.9010750" lon="9.8258960">
	<ele>1802.20</ele>
	<time>2023-11-18T10:57:52.000Z</time>
</trkpt>
<trkpt lat="45.9010740" lon="9.8258950">
	<ele>1802.20</ele>
	<time>2023-11-18T10:57:53.000Z</time>
</trkpt>
<trkpt lat="45.9010720" lon="9.8258940">
	<ele>1802.20</ele>
	<time>2023-11-18T10:57:54.000Z</time>
</trkpt>
<trkpt lat="45.9010710" lon="9.8258930">
	<ele>1802.20</ele>
	<time>2023-11-18T10:57:55.000Z</time>
</trkpt>
<trkpt lat="45.9010690" lon="9.8258930">
	<ele>1802.20</ele>
	<time>2023-11-18T10:57:56.000Z</time>
</trkpt>
<trkpt lat="45.9010680" lon="9.8258930">
	<ele>1802.20</ele>
	<time>2023-11-18T10:57:57.000Z</time>
</trkpt>
<trkpt lat="45.9010670" lon="9.8258930">
	<ele>1802.20</ele>
	<time>2023-11-18T10:57:58.000Z</time>
</trkpt>
<trkpt lat="45.9010670" lon="9.8258930">
	<ele>1802.20</ele>
	<time>2023-11-18T10:57:59.000Z</time>
</trkpt>
<trkpt lat="45.9010670" lon="9.8258930">
	<ele>1802.20</ele>
	<time>2023-11-18T10:58:00.000Z</time>
</trkpt>
<trkpt lat="45.9010670" lon="9.8258930">
	<ele>1802.20</ele>
	<time>2023-11-18T10:58:01.000Z</time>
</trkpt>
<trkpt lat="45.9010670" lon="9.8258930">
	<ele>1802.20</ele>
	<time>2023-11-18T10:58:02.000Z</time>
</trkpt>
<trkpt lat="45.9010670" lon="9.8258930">
	<ele>1802.20</ele>
	<time>2023-11-18T10:58:03.000Z</time>
</trkpt>
<trkpt lat="45.9010670" lon="9.8258930">
	<ele>1802.20</ele>
	<time>2023-11-18T10:58:04.000Z</time>
</trkpt>
<trkpt lat="45.9010660" lon="9.8258930">
	<ele>1802.20</ele>
	<time>2023-11-18T10:58:05.000Z</time>
</trkpt>
<trkpt lat="45.9010660" lon="9.8258930">
	<ele>1802.20</ele>
	<time>2023-11-18T10:58:06.000Z</time>
</trkpt>
<trkpt lat="45.9010650" lon="9.8258930">
	<ele>1802.20</ele>
	<time>2023-11-18T10:58:07.000Z</time>
</trkpt>
<trkpt lat="45.9010650" lon="9.8258930">
	<ele>1802.20</ele>
	<time>2023-11-18T10:58:08.000Z</time>
</trkpt>
<trkpt lat="45.9010640" lon="9.8258920">
	<ele>1802.20</ele>
	<time>2023-11-18T10:58:09.000Z</time>
</trkpt>
<trkpt lat="45.9010640" lon="9.8258920">
	<ele>1802.20</ele>
	<time>2023-11-18T10:58:10.000Z</time>
</trkpt>
<trkpt lat="45.9010640" lon="9.8258920">
	<ele>1802.20</ele>
	<time>2023-11-18T10:58:11.000Z</time>
</trkpt>
<trkpt lat="45.9010640" lon="9.8258920">
	<ele>1802.20</ele>
	<time>2023-11-18T10:58:12.000Z</time>
</trkpt>
<trkpt lat="45.9010640" lon="9.8258920">
	<ele>1802.20</ele>
	<time>2023-11-18T10:58:13.000Z</time>
</trkpt>
<trkpt lat="45.9010640" lon="9.8258920">
	<ele>1802.20</ele>
	<time>2023-11-18T10:58:14.000Z</time>
</trkpt>
<trkpt lat="45.9010640" lon="9.8258920">
	<ele>1802.20</ele>
	<time>2023-11-18T10:58:15.000Z</time>
</trkpt>
<trkpt lat="45.9010640" lon="9.8258920">
	<ele>1802.20</ele>
	<time>2023-11-18T10:58:16.000Z</time>
</trkpt>
<trkpt lat="45.9010640" lon="9.8258920">
	<ele>1802.20</ele>
	<time>2023-11-18T10:58:17.000Z</time>
</trkpt>
<trkpt lat="45.9010650" lon="9.8258920">
	<ele>1802.20</ele>
	<time>2023-11-18T10:58:18.000Z</time>
</trkpt>
<trkpt lat="45.9010650" lon="9.8258910">
	<ele>1802.20</ele>
	<time>2023-11-18T10:58:19.000Z</time>
</trkpt>
<trkpt lat="45.9010650" lon="9.8258910">
	<ele>1802.20</ele>
	<time>2023-11-18T10:58:20.000Z</time>
</trkpt>
<trkpt lat="45.9010650" lon="9.8258910">
	<ele>1802.20</ele>
	<time>2023-11-18T10:58:21.000Z</time>
</trkpt>
<trkpt lat="45.9010650" lon="9.8258900">
	<ele>1802.20</ele>
	<time>2023-11-18T10:58:22.000Z</time>
</trkpt>
<trkpt lat="45.9010650" lon="9.8258900">
	<ele>1802.20</ele>
	<time>2023-11-18T10:58:23.000Z</time>
</trkpt>
<trkpt lat="45.9010650" lon="9.8258900">
	<ele>1802.20</ele>
	<time>2023-11-18T10:58:24.000Z</time>
</trkpt>
<trkpt lat="45.9010650" lon="9.8258900">
	<ele>1802.20</ele>
	<time>2023-11-18T10:58:25.000Z</time>
</trkpt>
<trkpt lat="45.9010650" lon="9.8258900">
	<ele>1802.20</ele>
	<time>2023-11-18T10:58:26.000Z</time>
</trkpt>
<trkpt lat="45.9010650" lon="9.8258900">
	<ele>1802.20</ele>
	<time>2023-11-18T10:58:27.000Z</time>
</trkpt>
<trkpt lat="45.9010650" lon="9.8258900">
	<ele>1802.20</ele>
	<time>2023-11-18T10:58:28.000Z</time>
</trkpt>
<trkpt lat="45.9010650" lon="9.8258900">
	<ele>1802.20</ele>
	<time>2023-11-18T10:58:29.000Z</time>
</trkpt>
<trkpt lat="45.9010650" lon="9.8258900">
	<ele>1802.20</ele>
	<time>2023-11-18T10:58:30.000Z</time>
</trkpt>
<trkpt lat="45.9010650" lon="9.8258900">
	<ele>1802.20</ele>
	<time>2023-11-18T10:58:31.000Z</time>
</trkpt>
<trkpt lat="45.9010650" lon="9.8258900">
	<ele>1802.20</ele>
	<time>2023-11-18T10:58:32.000Z</time>
</trkpt>
<trkpt lat="45.9010650" lon="9.8258900">
	<ele>1802.20</ele>
	<time>2023-11-18T10:58:33.000Z</time>
</trkpt>
<trkpt lat="45.9010650" lon="9.8258900">
	<ele>1802.20</ele>
	<time>2023-11-18T10:58:34.000Z</time>
</trkpt>
<trkpt lat="45.9010660" lon="9.8258900">
	<ele>1802.20</ele>
	<time>2023-11-18T10:58:35.000Z</time>
</trkpt>
<trkpt lat="45.9010660" lon="9.8258910">
	<ele>1802.20</ele>
	<time>2023-11-18T10:58:36.000Z</time>
</trkpt>
<trkpt lat="45.9010680" lon="9.8258920">
	<ele>1802.20</ele>
	<time>2023-11-18T10:58:37.000Z</time>
</trkpt>
<trkpt lat="45.9010690" lon="9.8258940">
	<ele>1802.20</ele>
	<time>2023-11-18T10:58:38.000Z</time>
</trkpt>
<trkpt lat="45.9010700" lon="9.8258960">
	<ele>1802.20</ele>
	<time>2023-11-18T10:58:39.000Z</time>
</trkpt>
<trkpt lat="45.9010700" lon="9.8258970">
	<ele>1802.20</ele>
	<time>2023-11-18T10:58:40.000Z</time>
</trkpt>
<trkpt lat="45.9010710" lon="9.8258980">
	<ele>1802.20</ele>
	<time>2023-11-18T10:58:41.000Z</time>
</trkpt>
<trkpt lat="45.9010710" lon="9.8258990">
	<ele>1802.20</ele>
	<time>2023-11-18T10:58:42.000Z</time>
</trkpt>
<trkpt lat="45.9010710" lon="9.8259000">
	<ele>1802.20</ele>
	<time>2023-11-18T10:58:43.000Z</time>
</trkpt>
<trkpt lat="45.9010710" lon="9.8259000">
	<ele>1802.20</ele>
	<time>2023-11-18T10:58:44.000Z</time>
</trkpt>
<trkpt lat="45.9010710" lon="9.8259000">
	<ele>1802.20</ele>
	<time>2023-11-18T10:58:45.000Z</time>
</trkpt>
<trkpt lat="45.9010710" lon="9.8259000">
	<ele>1802.20</ele>
	<time>2023-11-18T10:58:46.000Z</time>
</trkpt>
<trkpt lat="45.9010710" lon="9.8259010">
	<ele>1802.20</ele>
	<time>2023-11-18T10:58:47.000Z</time>
</trkpt>
<trkpt lat="45.9010710" lon="9.8259010">
	<ele>1802.20</ele>
	<time>2023-11-18T10:58:48.000Z</time>
</trkpt>
<trkpt lat="45.9010720" lon="9.8259010">
	<ele>1802.20</ele>
	<time>2023-11-18T10:58:49.000Z</time>
</trkpt>
<trkpt lat="45.9010720" lon="9.8259010">
	<ele>1802.20</ele>
	<time>2023-11-18T10:58:50.000Z</time>
</trkpt>
<trkpt lat="45.9010720" lon="9.8259010">
	<ele>1802.20</ele>
	<time>2023-11-18T10:58:51.000Z</time>
</trkpt>
<trkpt lat="45.9010720" lon="9.8259010">
	<ele>1802.20</ele>
	<time>2023-11-18T10:58:52.000Z</time>
</trkpt>
<trkpt lat="45.9010720" lon="9.8259010">
	<ele>1802.20</ele>
	<time>2023-11-18T10:58:53.000Z</time>
</trkpt>
<trkpt lat="45.9010720" lon="9.8259010">
	<ele>1802.20</ele>
	<time>2023-11-18T10:58:54.000Z</time>
</trkpt>
<trkpt lat="45.9010710" lon="9.8259010">
	<ele>1802.20</ele>
	<time>2023-11-18T10:58:55.000Z</time>
</trkpt>
<trkpt lat="45.9010710" lon="9.8259010">
	<ele>1802.20</ele>
	<time>2023-11-18T10:58:56.000Z</time>
</trkpt>
<trkpt lat="45.9010710" lon="9.8259010">
	<ele>1802.20</ele>
	<time>2023-11-18T10:58:57.000Z</time>
</trkpt>
<trkpt lat="45.9010710" lon="9.8259000">
	<ele>1802.20</ele>
	<time>2023-11-18T10:58:58.000Z</time>
</trkpt>
<trkpt lat="45.9010710" lon="9.8259000">
	<ele>1802.20</ele>
	<time>2023-11-18T10:58:59.000Z</time>
</trkpt>
<trkpt lat="45.9010710" lon="9.8259000">
	<ele>1802.20</ele>
	<time>2023-11-18T10:59:00.000Z</time>
</trkpt>
<trkpt lat="45.9010710" lon="9.8259000">
	<ele>1802.20</ele>
	<time>2023-11-18T10:59:01.000Z</time>
</trkpt>
<trkpt lat="45.9010710" lon="9.8259000">
	<ele>1802.20</ele>
	<time>2023-11-18T10:59:02.000Z</time>
</trkpt>
<trkpt lat="45.9010710" lon="9.8259000">
	<ele>1802.20</ele>
	<time>2023-11-18T10:59:03.000Z</time>
</trkpt>
<trkpt lat="45.9010700" lon="9.8259000">
	<ele>1802.20</ele>
	<time>2023-11-18T10:59:04.000Z</time>
</trkpt>
<trkpt lat="45.9010700" lon="9.8259000">
	<ele>1802.20</ele>
	<time>2023-11-18T10:59:05.000Z</time>
</trkpt>
<trkpt lat="45.9010700" lon="9.8259000">
	<ele>1802.20</ele>
	<time>2023-11-18T10:59:06.000Z</time>
</trkpt>
<trkpt lat="45.9010700" lon="9.8259000">
	<ele>1802.20</ele>
	<time>2023-11-18T10:59:07.000Z</time>
</trkpt>
<trkpt lat="45.9010700" lon="9.8259000">
	<ele>1802.20</ele>
	<time>2023-11-18T10:59:08.000Z</time>
</trkpt>
<trkpt lat="45.9010700" lon="9.8258990">
	<ele>1802.20</ele>
	<time>2023-11-18T10:59:09.000Z</time>
</trkpt>
<trkpt lat="45.9010690" lon="9.8258980">
	<ele>1802.20</ele>
	<time>2023-11-18T10:59:10.000Z</time>
</trkpt>
<trkpt lat="45.9010690" lon="9.8258980">
	<ele>1802.20</ele>
	<time>2023-11-18T10:59:11.000Z</time>
</trkpt>
<trkpt lat="45.9010690" lon="9.8258980">
	<ele>1802.20</ele>
	<time>2023-11-18T10:59:12.000Z</time>
</trkpt>
<trkpt lat="45.9010690" lon="9.8258960">
	<ele>1802.20</ele>
	<time>2023-11-18T10:59:13.000Z</time>
</trkpt>
<trkpt lat="45.9010680" lon="9.8258940">
	<ele>1802.20</ele>
	<time>2023-11-18T10:59:14.000Z</time>
</trkpt>
<trkpt lat="45.9010670" lon="9.8258930">
	<ele>1802.20</ele>
	<time>2023-11-18T10:59:15.000Z</time>
</trkpt>
<trkpt lat="45.9010660" lon="9.8258920">
	<ele>1802.20</ele>
	<time>2023-11-18T10:59:16.000Z</time>
</trkpt>
<trkpt lat="45.9010650" lon="9.8258920">
	<ele>1802.20</ele>
	<time>2023-11-18T10:59:17.000Z</time>
</trkpt>
<trkpt lat="45.9010640" lon="9.8258910">
	<ele>1802.20</ele>
	<time>2023-11-18T10:59:18.000Z</time>
</trkpt>
<trkpt lat="45.9010630" lon="9.8258910">
	<ele>1802.20</ele>
	<time>2023-11-18T10:59:19.000Z</time>
</trkpt>
<trkpt lat="45.9010630" lon="9.8258910">
	<ele>1802.20</ele>
	<time>2023-11-18T10:59:20.000Z</time>
</trkpt>
<trkpt lat="45.9010620" lon="9.8258910">
	<ele>1802.20</ele>
	<time>2023-11-18T10:59:21.000Z</time>
</trkpt>
<trkpt lat="45.9010620" lon="9.8258910">
	<ele>1802.20</ele>
	<time>2023-11-18T10:59:22.000Z</time>
</trkpt>
<trkpt lat="45.9010620" lon="9.8258910">
	<ele>1802.20</ele>
	<time>2023-11-18T10:59:23.000Z</time>
</trkpt>
<trkpt lat="45.9010620" lon="9.8258910">
	<ele>1802.20</ele>
	<time>2023-11-18T10:59:24.000Z</time>
</trkpt>
<trkpt lat="45.9010610" lon="9.8258910">
	<ele>1802.20</ele>
	<time>2023-11-18T10:59:25.000Z</time>
</trkpt>
<trkpt lat="45.9010610" lon="9.8258900">
	<ele>1802.20</ele>
	<time>2023-11-18T10:59:26.000Z</time>
</trkpt>
<trkpt lat="45.9010610" lon="9.8258900">
	<ele>1802.20</ele>
	<time>2023-11-18T10:59:27.000Z</time>
</trkpt>
<trkpt lat="45.9010610" lon="9.8258900">
	<ele>1802.20</ele>
	<time>2023-11-18T10:59:28.000Z</time>
</trkpt>
<trkpt lat="45.9010610" lon="9.8258900">
	<ele>1802.20</ele>
	<time>2023-11-18T10:59:29.000Z</time>
</trkpt>
<trkpt lat="45.9010600" lon="9.8258910">
	<ele>1802.20</ele>
	<time>2023-11-18T10:59:30.000Z</time>
</trkpt>
<trkpt lat="45.9010600" lon="9.8258910">
	<ele>1802.20</ele>
	<time>2023-11-18T10:59:31.000Z</time>
</trkpt>
<trkpt lat="45.9010600" lon="9.8258910">
	<ele>1802.20</ele>
	<time>2023-11-18T10:59:32.000Z</time>
</trkpt>
<trkpt lat="45.9010600" lon="9.8258910">
	<ele>1802.20</ele>
	<time>2023-11-18T10:59:33.000Z</time>
</trkpt>
<trkpt lat="45.9010600" lon="9.8258920">
	<ele>1802.20</ele>
	<time>2023-11-18T10:59:34.000Z</time>
</trkpt>
<trkpt lat="45.9010590" lon="9.8258920">
	<ele>1802.20</ele>
	<time>2023-11-18T10:59:35.000Z</time>
</trkpt>
<trkpt lat="45.9010590" lon="9.8258920">
	<ele>1802.20</ele>
	<time>2023-11-18T10:59:36.000Z</time>
</trkpt>
<trkpt lat="45.9010590" lon="9.8258920">
	<ele>1802.20</ele>
	<time>2023-11-18T10:59:37.000Z</time>
</trkpt>
<trkpt lat="45.9010590" lon="9.8258920">
	<ele>1802.20</ele>
	<time>2023-11-18T10:59:38.000Z</time>
</trkpt>
<trkpt lat="45.9010590" lon="9.8258920">
	<ele>1802.20</ele>
	<time>2023-11-18T10:59:39.000Z</time>
</trkpt>
<trkpt lat="45.9010590" lon="9.8258920">
	<ele>1802.20</ele>
	<time>2023-11-18T10:59:40.000Z</time>
</trkpt>
<trkpt lat="45.9010590" lon="9.8258920">
	<ele>1802.20</ele>
	<time>2023-11-18T10:59:41.000Z</time>
</trkpt>
<trkpt lat="45.9010590" lon="9.8258920">
	<ele>1802.20</ele>
	<time>2023-11-18T10:59:42.000Z</time>
</trkpt>
<trkpt lat="45.9010590" lon="9.8258930">
	<ele>1802.20</ele>
	<time>2023-11-18T10:59:43.000Z</time>
</trkpt>
<trkpt lat="45.9010590" lon="9.8258930">
	<ele>1802.20</ele>
	<time>2023-11-18T10:59:44.000Z</time>
</trkpt>
<trkpt lat="45.9010590" lon="9.8258930">
	<ele>1802.20</ele>
	<time>2023-11-18T10:59:45.000Z</time>
</trkpt>
<trkpt lat="45.9010590" lon="9.8258930">
	<ele>1802.20</ele>
	<time>2023-11-18T10:59:46.000Z</time>
</trkpt>
<trkpt lat="45.9010590" lon="9.8258930">
	<ele>1802.20</ele>
	<time>2023-11-18T10:59:47.000Z</time>
</trkpt>
<trkpt lat="45.9010590" lon="9.8258930">
	<ele>1802.20</ele>
	<time>2023-11-18T10:59:48.000Z</time>
</trkpt>
<trkpt lat="45.9010590" lon="9.8258930">
	<ele>1802.20</ele>
	<time>2023-11-18T10:59:49.000Z</time>
</trkpt>
<trkpt lat="45.9010590" lon="9.8258930">
	<ele>1802.20</ele>
	<time>2023-11-18T10:59:50.000Z</time>
</trkpt>
<trkpt lat="45.9010590" lon="9.8258940">
	<ele>1802.20</ele>
	<time>2023-11-18T10:59:51.000Z</time>
</trkpt>
<trkpt lat="45.9010590" lon="9.8258940">
	<ele>1802.20</ele>
	<time>2023-11-18T10:59:52.000Z</time>
</trkpt>
<trkpt lat="45.9010590" lon="9.8258940">
	<ele>1802.20</ele>
	<time>2023-11-18T10:59:53.000Z</time>
</trkpt>
<trkpt lat="45.9010590" lon="9.8258940">
	<ele>1802.20</ele>
	<time>2023-11-18T10:59:54.000Z</time>
</trkpt>
<trkpt lat="45.9010590" lon="9.8258950">
	<ele>1802.20</ele>
	<time>2023-11-18T10:59:55.000Z</time>
</trkpt>
<trkpt lat="45.9010590" lon="9.8258950">
	<ele>1802.20</ele>
	<time>2023-11-18T10:59:56.000Z</time>
</trkpt>
<trkpt lat="45.9010590" lon="9.8258950">
	<ele>1802.20</ele>
	<time>2023-11-18T10:59:57.000Z</time>
</trkpt>
<trkpt lat="45.9010590" lon="9.8258950">
	<ele>1802.20</ele>
	<time>2023-11-18T10:59:58.000Z</time>
</trkpt>
<trkpt lat="45.9010590" lon="9.8258960">
	<ele>1802.20</ele>
	<time>2023-11-18T10:59:59.000Z</time>
</trkpt>
<trkpt lat="45.9010590" lon="9.8258960">
	<ele>1802.20</ele>
	<time>2023-11-18T11:00:00.000Z</time>
</trkpt>
<trkpt lat="45.9010590" lon="9.8258960">
	<ele>1802.20</ele>
	<time>2023-11-18T11:00:01.000Z</time>
</trkpt>
<trkpt lat="45.9010590" lon="9.8258960">
	<ele>1802.20</ele>
	<time>2023-11-18T11:00:02.000Z</time>
</trkpt>
<trkpt lat="45.9010600" lon="9.8258970">
	<ele>1802.20</ele>
	<time>2023-11-18T11:00:03.000Z</time>
</trkpt>
<trkpt lat="45.9010600" lon="9.8258970">
	<ele>1802.20</ele>
	<time>2023-11-18T11:00:04.000Z</time>
</trkpt>
<trkpt lat="45.9010600" lon="9.8258970">
	<ele>1802.20</ele>
	<time>2023-11-18T11:00:05.000Z</time>
</trkpt>
<trkpt lat="45.9010600" lon="9.8258970">
	<ele>1802.20</ele>
	<time>2023-11-18T11:00:06.000Z</time>
</trkpt>
<trkpt lat="45.9010600" lon="9.8258970">
	<ele>1802.20</ele>
	<time>2023-11-18T11:00:07.000Z</time>
</trkpt>
<trkpt lat="45.9010600" lon="9.8258980">
	<ele>1802.20</ele>
	<time>2023-11-18T11:00:08.000Z</time>
</trkpt>
<trkpt lat="45.9010600" lon="9.8258980">
	<ele>1802.20</ele>
	<time>2023-11-18T11:00:09.000Z</time>
</trkpt>
<trkpt lat="45.9010600" lon="9.8258980">
	<ele>1802.20</ele>
	<time>2023-11-18T11:00:10.000Z</time>
</trkpt>
<trkpt lat="45.9010600" lon="9.8258980">
	<ele>1802.20</ele>
	<time>2023-11-18T11:00:11.000Z</time>
</trkpt>
<trkpt lat="45.9010600" lon="9.8258980">
	<ele>1802.20</ele>
	<time>2023-11-18T11:00:12.000Z</time>
</trkpt>
<trkpt lat="45.9010600" lon="9.8258980">
	<ele>1802.20</ele>
	<time>2023-11-18T11:00:13.000Z</time>
</trkpt>
<trkpt lat="45.9010600" lon="9.8258980">
	<ele>1802.20</ele>
	<time>2023-11-18T11:00:14.000Z</time>
</trkpt>
<trkpt lat="45.9010600" lon="9.8258980">
	<ele>1802.20</ele>
	<time>2023-11-18T11:00:15.000Z</time>
</trkpt>
<trkpt lat="45.9010600" lon="9.8258980">
	<ele>1802.20</ele>
	<time>2023-11-18T11:00:16.000Z</time>
</trkpt>
<trkpt lat="45.9010600" lon="9.8258980">
	<ele>1802.20</ele>
	<time>2023-11-18T11:00:17.000Z</time>
</trkpt>
<trkpt lat="45.9010600" lon="9.8258990">
	<ele>1802.20</ele>
	<time>2023-11-18T11:00:18.000Z</time>
</trkpt>
<trkpt lat="45.9010610" lon="9.8258990">
	<ele>1802.20</ele>
	<time>2023-11-18T11:00:19.000Z</time>
</trkpt>
<trkpt lat="45.9010610" lon="9.8258990">
	<ele>1802.20</ele>
	<time>2023-11-18T11:00:20.000Z</time>
</trkpt>
<trkpt lat="45.9010610" lon="9.8258990">
	<ele>1802.20</ele>
	<time>2023-11-18T11:00:21.000Z</time>
</trkpt>
<trkpt lat="45.9010610" lon="9.8258990">
	<ele>1802.20</ele>
	<time>2023-11-18T11:00:22.000Z</time>
</trkpt>
<trkpt lat="45.9010610" lon="9.8259000">
	<ele>1802.20</ele>
	<time>2023-11-18T11:00:23.000Z</time>
</trkpt>
<trkpt lat="45.9010610" lon="9.8259000">
	<ele>1802.20</ele>
	<time>2023-11-18T11:00:24.000Z</time>
</trkpt>
<trkpt lat="45.9010610" lon="9.8259000">
	<ele>1802.20</ele>
	<time>2023-11-18T11:00:25.000Z</time>
</trkpt>
<trkpt lat="45.9010610" lon="9.8259000">
	<ele>1802.20</ele>
	<time>2023-11-18T11:00:26.000Z</time>
</trkpt>
<trkpt lat="45.9010610" lon="9.8258990">
	<ele>1802.20</ele>
	<time>2023-11-18T11:00:27.000Z</time>
</trkpt>
<trkpt lat="45.9010610" lon="9.8258990">
	<ele>1802.20</ele>
	<time>2023-11-18T11:00:28.000Z</time>
</trkpt>
<trkpt lat="45.9010610" lon="9.8258990">
	<ele>1802.20</ele>
	<time>2023-11-18T11:00:29.000Z</time>
</trkpt>
<trkpt lat="45.9010610" lon="9.8258990">
	<ele>1802.20</ele>
	<time>2023-11-18T11:00:30.000Z</time>
</trkpt>
<trkpt lat="45.9010610" lon="9.8258990">
	<ele>1802.20</ele>
	<time>2023-11-18T11:00:31.000Z</time>
</trkpt>
<trkpt lat="45.9010610" lon="9.8258990">
	<ele>1802.20</ele>
	<time>2023-11-18T11:00:32.000Z</time>
</trkpt>
<trkpt lat="45.9010610" lon="9.8258990">
	<ele>1802.20</ele>
	<time>2023-11-18T11:00:33.000Z</time>
</trkpt>
<trkpt lat="45.9010610" lon="9.8258990">
	<ele>1802.20</ele>
	<time>2023-11-18T11:00:34.000Z</time>
</trkpt>
<trkpt lat="45.9010610" lon="9.8258990">
	<ele>1802.20</ele>
	<time>2023-11-18T11:00:35.000Z</time>
</trkpt>
<trkpt lat="45.9010610" lon="9.8258990">
	<ele>1802.20</ele>
	<time>2023-11-18T11:00:36.000Z</time>
</trkpt>
<trkpt lat="45.9010610" lon="9.8258990">
	<ele>1802.20</ele>
	<time>2023-11-18T11:00:37.000Z</time>
</trkpt>
<trkpt lat="45.9010610" lon="9.8258990">
	<ele>1802.20</ele>
	<time>2023-11-18T11:00:38.000Z</time>
</trkpt>
<trkpt lat="45.9010610" lon="9.8259000">
	<ele>1802.20</ele>
	<time>2023-11-18T11:00:39.000Z</time>
</trkpt>
<trkpt lat="45.9010610" lon="9.8258990">
	<ele>1802.20</ele>
	<time>2023-11-18T11:00:40.000Z</time>
</trkpt>
<trkpt lat="45.9010610" lon="9.8258990">
	<ele>1802.20</ele>
	<time>2023-11-18T11:00:41.000Z</time>
</trkpt>
<trkpt lat="45.9010610" lon="9.8259000">
	<ele>1802.20</ele>
	<time>2023-11-18T11:00:42.000Z</time>
</trkpt>
<trkpt lat="45.9010620" lon="9.8259000">
	<ele>1802.20</ele>
	<time>2023-11-18T11:00:43.000Z</time>
</trkpt>
<trkpt lat="45.9010620" lon="9.8259000">
	<ele>1802.20</ele>
	<time>2023-11-18T11:00:44.000Z</time>
</trkpt>
<trkpt lat="45.9010620" lon="9.8259000">
	<ele>1802.20</ele>
	<time>2023-11-18T11:00:45.000Z</time>
</trkpt>
<trkpt lat="45.9010620" lon="9.8259000">
	<ele>1802.20</ele>
	<time>2023-11-18T11:00:46.000Z</time>
</trkpt>
<trkpt lat="45.9010620" lon="9.8259000">
	<ele>1802.20</ele>
	<time>2023-11-18T11:00:47.000Z</time>
</trkpt>
<trkpt lat="45.9010620" lon="9.8259000">
	<ele>1802.20</ele>
	<time>2023-11-18T11:00:48.000Z</time>
</trkpt>
<trkpt lat="45.9010620" lon="9.8259000">
	<ele>1802.20</ele>
	<time>2023-11-18T11:00:49.000Z</time>
</trkpt>
<trkpt lat="45.9010620" lon="9.8259000">
	<ele>1802.20</ele>
	<time>2023-11-18T11:00:50.000Z</time>
</trkpt>
<trkpt lat="45.9010620" lon="9.8259000">
	<ele>1802.20</ele>
	<time>2023-11-18T11:00:51.000Z</time>
</trkpt>
<trkpt lat="45.9010620" lon="9.8259000">
	<ele>1802.20</ele>
	<time>2023-11-18T11:00:52.000Z</time>
</trkpt>
<trkpt lat="45.9010620" lon="9.8259000">
	<ele>1802.20</ele>
	<time>2023-11-18T11:00:53.000Z</time>
</trkpt>
<trkpt lat="45.9010620" lon="9.8259000">
	<ele>1802.20</ele>
	<time>2023-11-18T11:00:54.000Z</time>
</trkpt>
<trkpt lat="45.9010620" lon="9.8259000">
	<ele>1802.20</ele>
	<time>2023-11-18T11:00:55.000Z</time>
</trkpt>
<trkpt lat="45.9010620" lon="9.8259000">
	<ele>1802.20</ele>
	<time>2023-11-18T11:00:56.000Z</time>
</trkpt>
<trkpt lat="45.9010620" lon="9.8259000">
	<ele>1802.20</ele>
	<time>2023-11-18T11:00:57.000Z</time>
</trkpt>
<trkpt lat="45.9010620" lon="9.8259000">
	<ele>1802.20</ele>
	<time>2023-11-18T11:00:58.000Z</time>
</trkpt>
<trkpt lat="45.9010620" lon="9.8259000">
	<ele>1802.20</ele>
	<time>2023-11-18T11:00:59.000Z</time>
</trkpt>
<trkpt lat="45.9010620" lon="9.8259000">
	<ele>1802.20</ele>
	<time>2023-11-18T11:01:00.000Z</time>
</trkpt>
<trkpt lat="45.9010620" lon="9.8259000">
	<ele>1802.20</ele>
	<time>2023-11-18T11:01:01.000Z</time>
</trkpt>
<trkpt lat="45.9010620" lon="9.8259000">
	<ele>1802.20</ele>
	<time>2023-11-18T11:01:02.000Z</time>
</trkpt>
<trkpt lat="45.9010620" lon="9.8259000">
	<ele>1802.20</ele>
	<time>2023-11-18T11:01:03.000Z</time>
</trkpt>
<trkpt lat="45.9010620" lon="9.8259000">
	<ele>1802.20</ele>
	<time>2023-11-18T11:01:04.000Z</time>
</trkpt>
<trkpt lat="45.9010620" lon="9.8259000">
	<ele>1802.20</ele>
	<time>2023-11-18T11:01:05.000Z</time>
</trkpt>
<trkpt lat="45.9010620" lon="9.8259000">
	<ele>1802.20</ele>
	<time>2023-11-18T11:01:06.000Z</time>
</trkpt>
<trkpt lat="45.9010620" lon="9.8259000">
	<ele>1802.20</ele>
	<time>2023-11-18T11:01:07.000Z</time>
</trkpt>
<trkpt lat="45.9010620" lon="9.8259000">
	<ele>1802.20</ele>
	<time>2023-11-18T11:01:08.000Z</time>
</trkpt>
<trkpt lat="45.9010620" lon="9.8259000">
	<ele>1802.20</ele>
	<time>2023-11-18T11:01:09.000Z</time>
</trkpt>
<trkpt lat="45.9010620" lon="9.8259000">
	<ele>1802.20</ele>
	<time>2023-11-18T11:01:10.000Z</time>
</trkpt>
<trkpt lat="45.9010620" lon="9.8259000">
	<ele>1802.20</ele>
	<time>2023-11-18T11:01:11.000Z</time>
</trkpt>
<trkpt lat="45.9010630" lon="9.8259000">
	<ele>1802.20</ele>
	<time>2023-11-18T11:01:12.000Z</time>
</trkpt>
<trkpt lat="45.9010630" lon="9.8259000">
	<ele>1802.20</ele>
	<time>2023-11-18T11:01:13.000Z</time>
</trkpt>
<trkpt lat="45.9010630" lon="9.8259000">
	<ele>1802.20</ele>
	<time>2023-11-18T11:01:14.000Z</time>
</trkpt>
<trkpt lat="45.9010630" lon="9.8259000">
	<ele>1802.20</ele>
	<time>2023-11-18T11:01:15.000Z</time>
</trkpt>
<trkpt lat="45.9010630" lon="9.8259000">
	<ele>1802.20</ele>
	<time>2023-11-18T11:01:16.000Z</time>
</trkpt>
<trkpt lat="45.9010630" lon="9.8259000">
	<ele>1802.20</ele>
	<time>2023-11-18T11:01:17.000Z</time>
</trkpt>
<trkpt lat="45.9010630" lon="9.8259000">
	<ele>1802.20</ele>
	<time>2023-11-18T11:01:18.000Z</time>
</trkpt>
<trkpt lat="45.9010630" lon="9.8259010">
	<ele>1802.20</ele>
	<time>2023-11-18T11:01:19.000Z</time>
</trkpt>
<trkpt lat="45.9010630" lon="9.8259010">
	<ele>1802.20</ele>
	<time>2023-11-18T11:01:20.000Z</time>
</trkpt>
<trkpt lat="45.9010630" lon="9.8259010">
	<ele>1802.20</ele>
	<time>2023-11-18T11:01:21.000Z</time>
</trkpt>
<trkpt lat="45.9010630" lon="9.8259010">
	<ele>1802.20</ele>
	<time>2023-11-18T11:01:22.000Z</time>
</trkpt>
<trkpt lat="45.9010630" lon="9.8259010">
	<ele>1802.20</ele>
	<time>2023-11-18T11:01:23.000Z</time>
</trkpt>
<trkpt lat="45.9010630" lon="9.8259010">
	<ele>1802.20</ele>
	<time>2023-11-18T11:01:24.000Z</time>
</trkpt>
<trkpt lat="45.9010630" lon="9.8259010">
	<ele>1802.20</ele>
	<time>2023-11-18T11:01:25.000Z</time>
</trkpt>
<trkpt lat="45.9010630" lon="9.8259010">
	<ele>1802.20</ele>
	<time>2023-11-18T11:01:26.000Z</time>
</trkpt>
<trkpt lat="45.9010630" lon="9.8259010">
	<ele>1802.20</ele>
	<time>2023-11-18T11:01:27.000Z</time>
</trkpt>
<trkpt lat="45.9010630" lon="9.8259010">
	<ele>1802.20</ele>
	<time>2023-11-18T11:01:28.000Z</time>
</trkpt>
<trkpt lat="45.9010630" lon="9.8259010">
	<ele>1802.20</ele>
	<time>2023-11-18T11:01:29.000Z</time>
</trkpt>
<trkpt lat="45.9010630" lon="9.8259010">
	<ele>1802.20</ele>
	<time>2023-11-18T11:01:30.000Z</time>
</trkpt>
<trkpt lat="45.9010640" lon="9.8259020">
	<ele>1802.20</ele>
	<time>2023-11-18T11:01:31.000Z</time>
</trkpt>
<trkpt lat="45.9010640" lon="9.8259020">
	<ele>1802.20</ele>
	<time>2023-11-18T11:01:32.000Z</time>
</trkpt>
<trkpt lat="45.9010640" lon="9.8259020">
	<ele>1802.20</ele>
	<time>2023-11-18T11:01:33.000Z</time>
</trkpt>
<trkpt lat="45.9010640" lon="9.8259020">
	<ele>1802.20</ele>
	<time>2023-11-18T11:01:34.000Z</time>
</trkpt>
<trkpt lat="45.9010640" lon="9.8259020">
	<ele>1802.20</ele>
	<time>2023-11-18T11:01:35.000Z</time>
</trkpt>
<trkpt lat="45.9010640" lon="9.8259030">
	<ele>1802.20</ele>
	<time>2023-11-18T11:01:36.000Z</time>
</trkpt>
<trkpt lat="45.9010640" lon="9.8259030">
	<ele>1802.20</ele>
	<time>2023-11-18T11:01:37.000Z</time>
</trkpt>
<trkpt lat="45.9010650" lon="9.8259030">
	<ele>1802.20</ele>
	<time>2023-11-18T11:01:38.000Z</time>
</trkpt>
<trkpt lat="45.9010640" lon="9.8259030">
	<ele>1802.20</ele>
	<time>2023-11-18T11:01:39.000Z</time>
</trkpt>
<trkpt lat="45.9010640" lon="9.8259030">
	<ele>1802.20</ele>
	<time>2023-11-18T11:01:40.000Z</time>
</trkpt>
<trkpt lat="45.9010640" lon="9.8259030">
	<ele>1802.20</ele>
	<time>2023-11-18T11:01:41.000Z</time>
</trkpt>
<trkpt lat="45.9010650" lon="9.8259030">
	<ele>1802.20</ele>
	<time>2023-11-18T11:01:42.000Z</time>
</trkpt>
<trkpt lat="45.9010650" lon="9.8259030">
	<ele>1802.20</ele>
	<time>2023-11-18T11:01:43.000Z</time>
</trkpt>
<trkpt lat="45.9010650" lon="9.8259030">
	<ele>1802.20</ele>
	<time>2023-11-18T11:01:44.000Z</time>
</trkpt>
<trkpt lat="45.9010650" lon="9.8259030">
	<ele>1802.20</ele>
	<time>2023-11-18T11:01:45.000Z</time>
</trkpt>
<trkpt lat="45.9010650" lon="9.8259030">
	<ele>1802.20</ele>
	<time>2023-11-18T11:01:46.000Z</time>
</trkpt>
<trkpt lat="45.9010650" lon="9.8259040">
	<ele>1802.20</ele>
	<time>2023-11-18T11:01:47.000Z</time>
</trkpt>
<trkpt lat="45.9010650" lon="9.8259040">
	<ele>1802.20</ele>
	<time>2023-11-18T11:01:48.000Z</time>
</trkpt>
<trkpt lat="45.9010650" lon="9.8259040">
	<ele>1802.20</ele>
	<time>2023-11-18T11:01:49.000Z</time>
</trkpt>
<trkpt lat="45.9010650" lon="9.8259040">
	<ele>1802.20</ele>
	<time>2023-11-18T11:01:50.000Z</time>
</trkpt>
<trkpt lat="45.9010650" lon="9.8259040">
	<ele>1802.20</ele>
	<time>2023-11-18T11:01:51.000Z</time>
</trkpt>
<trkpt lat="45.9010650" lon="9.8259040">
	<ele>1802.20</ele>
	<time>2023-11-18T11:01:52.000Z</time>
</trkpt>
<trkpt lat="45.9010650" lon="9.8259040">
	<ele>1802.20</ele>
	<time>2023-11-18T11:01:53.000Z</time>
</trkpt>
<trkpt lat="45.9010650" lon="9.8259040">
	<ele>1802.20</ele>
	<time>2023-11-18T11:01:54.000Z</time>
</trkpt>
<trkpt lat="45.9010660" lon="9.8259050">
	<ele>1802.20</ele>
	<time>2023-11-18T11:01:55.000Z</time>
</trkpt>
<trkpt lat="45.9010660" lon="9.8259050">
	<ele>1802.20</ele>
	<time>2023-11-18T11:01:56.000Z</time>
</trkpt>
<trkpt lat="45.9010660" lon="9.8259050">
	<ele>1802.20</ele>
	<time>2023-11-18T11:01:57.000Z</time>
</trkpt>
<trkpt lat="45.9010660" lon="9.8259050">
	<ele>1802.20</ele>
	<time>2023-11-18T11:01:58.000Z</time>
</trkpt>
<trkpt lat="45.9010660" lon="9.8259050">
	<ele>1802.20</ele>
	<time>2023-11-18T11:01:59.000Z</time>
</trkpt>
<trkpt lat="45.9010660" lon="9.8259050">
	<ele>1802.20</ele>
	<time>2023-11-18T11:02:00.000Z</time>
</trkpt>
<trkpt lat="45.9010660" lon="9.8259050">
	<ele>1802.20</ele>
	<time>2023-11-18T11:02:01.000Z</time>
</trkpt>
<trkpt lat="45.9010660" lon="9.8259050">
	<ele>1802.20</ele>
	<time>2023-11-18T11:02:02.000Z</time>
</trkpt>
<trkpt lat="45.9010660" lon="9.8259050">
	<ele>1802.20</ele>
	<time>2023-11-18T11:02:03.000Z</time>
</trkpt>
<trkpt lat="45.9010660" lon="9.8259050">
	<ele>1802.20</ele>
	<time>2023-11-18T11:02:04.000Z</time>
</trkpt>
<trkpt lat="45.9010660" lon="9.8259050">
	<ele>1802.20</ele>
	<time>2023-11-18T11:02:05.000Z</time>
</trkpt>
<trkpt lat="45.9010660" lon="9.8259050">
	<ele>1802.20</ele>
	<time>2023-11-18T11:02:06.000Z</time>
</trkpt>
<trkpt lat="45.9010660" lon="9.8259060">
	<ele>1802.20</ele>
	<time>2023-11-18T11:02:07.000Z</time>
</trkpt>
<trkpt lat="45.9010670" lon="9.8259060">
	<ele>1802.20</ele>
	<time>2023-11-18T11:02:08.000Z</time>
</trkpt>
<trkpt lat="45.9010670" lon="9.8259060">
	<ele>1802.20</ele>
	<time>2023-11-18T11:02:09.000Z</time>
</trkpt>
<trkpt lat="45.9010670" lon="9.8259060">
	<ele>1802.20</ele>
	<time>2023-11-18T11:02:10.000Z</time>
</trkpt>
<trkpt lat="45.9010670" lon="9.8259060">
	<ele>1802.20</ele>
	<time>2023-11-18T11:02:11.000Z</time>
</trkpt>
<trkpt lat="45.9010670" lon="9.8259060">
	<ele>1802.20</ele>
	<time>2023-11-18T11:02:12.000Z</time>
</trkpt>
<trkpt lat="45.9010670" lon="9.8259060">
	<ele>1802.20</ele>
	<time>2023-11-18T11:02:13.000Z</time>
</trkpt>
<trkpt lat="45.9010670" lon="9.8259070">
	<ele>1802.20</ele>
	<time>2023-11-18T11:02:14.000Z</time>
</trkpt>
<trkpt lat="45.9010670" lon="9.8259070">
	<ele>1802.20</ele>
	<time>2023-11-18T11:02:15.000Z</time>
</trkpt>
<trkpt lat="45.9010670" lon="9.8259070">
	<ele>1802.20</ele>
	<time>2023-11-18T11:02:16.000Z</time>
</trkpt>
<trkpt lat="45.9010670" lon="9.8259070">
	<ele>1802.20</ele>
	<time>2023-11-18T11:02:17.000Z</time>
</trkpt>
<trkpt lat="45.9010670" lon="9.8259070">
	<ele>1802.20</ele>
	<time>2023-11-18T11:02:18.000Z</time>
</trkpt>
<trkpt lat="45.9010670" lon="9.8259070">
	<ele>1802.20</ele>
	<time>2023-11-18T11:02:19.000Z</time>
</trkpt>
<trkpt lat="45.9010670" lon="9.8259070">
	<ele>1802.20</ele>
	<time>2023-11-18T11:02:20.000Z</time>
</trkpt>
<trkpt lat="45.9010670" lon="9.8259070">
	<ele>1802.20</ele>
	<time>2023-11-18T11:02:21.000Z</time>
</trkpt>
<trkpt lat="45.9010670" lon="9.8259070">
	<ele>1802.20</ele>
	<time>2023-11-18T11:02:22.000Z</time>
</trkpt>
<trkpt lat="45.9010670" lon="9.8259070">
	<ele>1802.20</ele>
	<time>2023-11-18T11:02:23.000Z</time>
</trkpt>
<trkpt lat="45.9010670" lon="9.8259070">
	<ele>1802.20</ele>
	<time>2023-11-18T11:02:24.000Z</time>
</trkpt>
<trkpt lat="45.9010670" lon="9.8259070">
	<ele>1802.20</ele>
	<time>2023-11-18T11:02:25.000Z</time>
</trkpt>
<trkpt lat="45.9010670" lon="9.8259070">
	<ele>1802.20</ele>
	<time>2023-11-18T11:02:26.000Z</time>
</trkpt>
<trkpt lat="45.9010670" lon="9.8259070">
	<ele>1802.20</ele>
	<time>2023-11-18T11:02:27.000Z</time>
</trkpt>
<trkpt lat="45.9010670" lon="9.8259070">
	<ele>1802.20</ele>
	<time>2023-11-18T11:02:28.000Z</time>
</trkpt>
<trkpt lat="45.9010670" lon="9.8259070">
	<ele>1802.20</ele>
	<time>2023-11-18T11:02:29.000Z</time>
</trkpt>
<trkpt lat="45.9010670" lon="9.8259070">
	<ele>1802.20</ele>
	<time>2023-11-18T11:02:30.000Z</time>
</trkpt>
<trkpt lat="45.9010670" lon="9.8259070">
	<ele>1802.20</ele>
	<time>2023-11-18T11:02:31.000Z</time>
</trkpt>
<trkpt lat="45.9010670" lon="9.8259070">
	<ele>1802.20</ele>
	<time>2023-11-18T11:02:32.000Z</time>
</trkpt>
<trkpt lat="45.9010670" lon="9.8259070">
	<ele>1802.20</ele>
	<time>2023-11-18T11:02:33.000Z</time>
</trkpt>
<trkpt lat="45.9010670" lon="9.8259070">
	<ele>1802.20</ele>
	<time>2023-11-18T11:02:34.000Z</time>
</trkpt>
<trkpt lat="45.9010670" lon="9.8259080">
	<ele>1802.20</ele>
	<time>2023-11-18T11:02:35.000Z</time>
</trkpt>
<trkpt lat="45.9010670" lon="9.8259080">
	<ele>1802.20</ele>
	<time>2023-11-18T11:02:36.000Z</time>
</trkpt>
<trkpt lat="45.9010670" lon="9.8259080">
	<ele>1802.20</ele>
	<time>2023-11-18T11:02:37.000Z</time>
</trkpt>
<trkpt lat="45.9010670" lon="9.8259080">
	<ele>1802.20</ele>
	<time>2023-11-18T11:02:38.000Z</time>
</trkpt>
<trkpt lat="45.9010670" lon="9.8259080">
	<ele>1802.20</ele>
	<time>2023-11-18T11:02:39.000Z</time>
</trkpt>
<trkpt lat="45.9010670" lon="9.8259080">
	<ele>1802.20</ele>
	<time>2023-11-18T11:02:40.000Z</time>
</trkpt>
<trkpt lat="45.9010670" lon="9.8259080">
	<ele>1802.20</ele>
	<time>2023-11-18T11:02:41.000Z</time>
</trkpt>
<trkpt lat="45.9010670" lon="9.8259080">
	<ele>1802.20</ele>
	<time>2023-11-18T11:02:42.000Z</time>
</trkpt>
<trkpt lat="45.9010670" lon="9.8259080">
	<ele>1802.20</ele>
	<time>2023-11-18T11:02:43.000Z</time>
</trkpt>
<trkpt lat="45.9010670" lon="9.8259080">
	<ele>1802.20</ele>
	<time>2023-11-18T11:02:44.000Z</time>
</trkpt>
<trkpt lat="45.9010670" lon="9.8259080">
	<ele>1802.20</ele>
	<time>2023-11-18T11:02:45.000Z</time>
</trkpt>
<trkpt lat="45.9010680" lon="9.8259080">
	<ele>1802.20</ele>
	<time>2023-11-18T11:02:46.000Z</time>
</trkpt>
<trkpt lat="45.9010680" lon="9.8259080">
	<ele>1802.20</ele>
	<time>2023-11-18T11:02:47.000Z</time>
</trkpt>
<trkpt lat="45.9010680" lon="9.8259080">
	<ele>1802.20</ele>
	<time>2023-11-18T11:02:48.000Z</time>
</trkpt>
<trkpt lat="45.9010680" lon="9.8259080">
	<ele>1802.20</ele>
	<time>2023-11-18T11:02:49.000Z</time>
</trkpt>
<trkpt lat="45.9010680" lon="9.8259080">
	<ele>1802.20</ele>
	<time>2023-11-18T11:02:50.000Z</time>
</trkpt>
<trkpt lat="45.9010680" lon="9.8259080">
	<ele>1802.20</ele>
	<time>2023-11-18T11:02:51.000Z</time>
</trkpt>
<trkpt lat="45.9010680" lon="9.8259080">
	<ele>1802.20</ele>
	<time>2023-11-18T11:02:52.000Z</time>
</trkpt>
<trkpt lat="45.9010680" lon="9.8259080">
	<ele>1802.20</ele>
	<time>2023-11-18T11:02:53.000Z</time>
</trkpt>
<trkpt lat="45.9010680" lon="9.8259080">
	<ele>1802.20</ele>
	<time>2023-11-18T11:02:54.000Z</time>
</trkpt>
<trkpt lat="45.9010690" lon="9.8259080">
	<ele>1802.20</ele>
	<time>2023-11-18T11:02:55.000Z</time>
</trkpt>
<trkpt lat="45.9010690" lon="9.8259080">
	<ele>1802.20</ele>
	<time>2023-11-18T11:02:56.000Z</time>
</trkpt>
<trkpt lat="45.9010690" lon="9.8259080">
	<ele>1802.20</ele>
	<time>2023-11-18T11:02:57.000Z</time>
</trkpt>
<trkpt lat="45.9010680" lon="9.8259080">
	<ele>1802.20</ele>
	<time>2023-11-18T11:02:58.000Z</time>
</trkpt>
<trkpt lat="45.9010680" lon="9.8259080">
	<ele>1802.20</ele>
	<time>2023-11-18T11:02:59.000Z</time>
</trkpt>
<trkpt lat="45.9010690" lon="9.8259080">
	<ele>1802.20</ele>
	<time>2023-11-18T11:03:00.000Z</time>
</trkpt>
<trkpt lat="45.9010680" lon="9.8259080">
	<ele>1802.20</ele>
	<time>2023-11-18T11:03:01.000Z</time>
</trkpt>
<trkpt lat="45.9010680" lon="9.8259080">
	<ele>1802.20</ele>
	<time>2023-11-18T11:03:02.000Z</time>
</trkpt>
<trkpt lat="45.9010680" lon="9.8259080">
	<ele>1802.20</ele>
	<time>2023-11-18T11:03:03.000Z</time>
</trkpt>
<trkpt lat="45.9010680" lon="9.8259080">
	<ele>1802.20</ele>
	<time>2023-11-18T11:03:04.000Z</time>
</trkpt>
<trkpt lat="45.9010680" lon="9.8259080">
	<ele>1802.20</ele>
	<time>2023-11-18T11:03:05.000Z</time>
</trkpt>
<trkpt lat="45.9010680" lon="9.8259080">
	<ele>1802.20</ele>
	<time>2023-11-18T11:03:06.000Z</time>
</trkpt>
<trkpt lat="45.9010680" lon="9.8259080">
	<ele>1802.20</ele>
	<time>2023-11-18T11:03:07.000Z</time>
</trkpt>
<trkpt lat="45.9010690" lon="9.8259080">
	<ele>1802.20</ele>
	<time>2023-11-18T11:03:08.000Z</time>
</trkpt>
<trkpt lat="45.9010690" lon="9.8259080">
	<ele>1802.20</ele>
	<time>2023-11-18T11:03:09.000Z</time>
</trkpt>
<trkpt lat="45.9010690" lon="9.8259080">
	<ele>1802.20</ele>
	<time>2023-11-18T11:03:10.000Z</time>
</trkpt>
<trkpt lat="45.9010690" lon="9.8259080">
	<ele>1802.20</ele>
	<time>2023-11-18T11:03:11.000Z</time>
</trkpt>
<trkpt lat="45.9010690" lon="9.8259090">
	<ele>1802.20</ele>
	<time>2023-11-18T11:03:12.000Z</time>
</trkpt>
<trkpt lat="45.9010690" lon="9.8259090">
	<ele>1802.20</ele>
	<time>2023-11-18T11:03:13.000Z</time>
</trkpt>
<trkpt lat="45.9010690" lon="9.8259090">
	<ele>1802.20</ele>
	<time>2023-11-18T11:03:14.000Z</time>
</trkpt>
<trkpt lat="45.9010690" lon="9.8259090">
	<ele>1802.20</ele>
	<time>2023-11-18T11:03:15.000Z</time>
</trkpt>
<trkpt lat="45.9010690" lon="9.8259090">
	<ele>1802.20</ele>
	<time>2023-11-18T11:03:16.000Z</time>
</trkpt>
<trkpt lat="45.9010690" lon="9.8259090">
	<ele>1802.20</ele>
	<time>2023-11-18T11:03:17.000Z</time>
</trkpt>
<trkpt lat="45.9010690" lon="9.8259090">
	<ele>1802.20</ele>
	<time>2023-11-18T11:03:18.000Z</time>
</trkpt>
<trkpt lat="45.9010690" lon="9.8259090">
	<ele>1802.20</ele>
	<time>2023-11-18T11:03:19.000Z</time>
</trkpt>
<trkpt lat="45.9010690" lon="9.8259090">
	<ele>1802.20</ele>
	<time>2023-11-18T11:03:20.000Z</time>
</trkpt>
<trkpt lat="45.9010690" lon="9.8259080">
	<ele>1802.20</ele>
	<time>2023-11-18T11:03:21.000Z</time>
</trkpt>
<trkpt lat="45.9010680" lon="9.8259080">
	<ele>1802.20</ele>
	<time>2023-11-18T11:03:22.000Z</time>
</trkpt>
<trkpt lat="45.9010680" lon="9.8259080">
	<ele>1802.20</ele>
	<time>2023-11-18T11:03:23.000Z</time>
</trkpt>
<trkpt lat="45.9010690" lon="9.8259080">
	<ele>1802.20</ele>
	<time>2023-11-18T11:03:24.000Z</time>
</trkpt>
<trkpt lat="45.9010690" lon="9.8259090">
	<ele>1802.20</ele>
	<time>2023-11-18T11:03:25.000Z</time>
</trkpt>
<trkpt lat="45.9010690" lon="9.8259090">
	<ele>1802.20</ele>
	<time>2023-11-18T11:03:26.000Z</time>
</trkpt>
<trkpt lat="45.9010690" lon="9.8259090">
	<ele>1802.20</ele>
	<time>2023-11-18T11:03:27.000Z</time>
</trkpt>
<trkpt lat="45.9010690" lon="9.8259090">
	<ele>1802.20</ele>
	<time>2023-11-18T11:03:28.000Z</time>
</trkpt>
<trkpt lat="45.9010690" lon="9.8259090">
	<ele>1802.20</ele>
	<time>2023-11-18T11:03:29.000Z</time>
</trkpt>
<trkpt lat="45.9010690" lon="9.8259090">
	<ele>1802.20</ele>
	<time>2023-11-18T11:03:30.000Z</time>
</trkpt>
<trkpt lat="45.9010690" lon="9.8259090">
	<ele>1802.20</ele>
	<time>2023-11-18T11:03:31.000Z</time>
</trkpt>
<trkpt lat="45.9010690" lon="9.8259090">
	<ele>1802.20</ele>
	<time>2023-11-18T11:03:32.000Z</time>
</trkpt>
<trkpt lat="45.9010690" lon="9.8259090">
	<ele>1802.20</ele>
	<time>2023-11-18T11:03:33.000Z</time>
</trkpt>
<trkpt lat="45.9010690" lon="9.8259090">
	<ele>1802.20</ele>
	<time>2023-11-18T11:03:34.000Z</time>
</trkpt>
<trkpt lat="45.9010690" lon="9.8259090">
	<ele>1802.20</ele>
	<time>2023-11-18T11:03:35.000Z</time>
</trkpt>
<trkpt lat="45.9010690" lon="9.8259090">
	<ele>1802.20</ele>
	<time>2023-11-18T11:03:36.000Z</time>
</trkpt>
<trkpt lat="45.9010690" lon="9.8259090">
	<ele>1802.20</ele>
	<time>2023-11-18T11:03:37.000Z</time>
</trkpt>
<trkpt lat="45.9010700" lon="9.8259090">
	<ele>1802.20</ele>
	<time>2023-11-18T11:03:38.000Z</time>
</trkpt>
<trkpt lat="45.9010700" lon="9.8259090">
	<ele>1802.20</ele>
	<time>2023-11-18T11:03:39.000Z</time>
</trkpt>
<trkpt lat="45.9010700" lon="9.8259100">
	<ele>1802.20</ele>
	<time>2023-11-18T11:03:40.000Z</time>
</trkpt>
<trkpt lat="45.9010700" lon="9.8259100">
	<ele>1802.20</ele>
	<time>2023-11-18T11:03:41.000Z</time>
</trkpt>
<trkpt lat="45.9010700" lon="9.8259100">
	<ele>1802.20</ele>
	<time>2023-11-18T11:03:42.000Z</time>
</trkpt>
<trkpt lat="45.9010700" lon="9.8259100">
	<ele>1802.20</ele>
	<time>2023-11-18T11:03:43.000Z</time>
</trkpt>
<trkpt lat="45.9010700" lon="9.8259090">
	<ele>1802.20</ele>
	<time>2023-11-18T11:03:44.000Z</time>
</trkpt>
<trkpt lat="45.9010700" lon="9.8259090">
	<ele>1802.20</ele>
	<time>2023-11-18T11:03:45.000Z</time>
</trkpt>
<trkpt lat="45.9010700" lon="9.8259090">
	<ele>1802.20</ele>
	<time>2023-11-18T11:03:46.000Z</time>
</trkpt>
<trkpt lat="45.9010700" lon="9.8259100">
	<ele>1802.20</ele>
	<time>2023-11-18T11:03:47.000Z</time>
</trkpt>
<trkpt lat="45.9010700" lon="9.8259100">
	<ele>1802.20</ele>
	<time>2023-11-18T11:03:48.000Z</time>
</trkpt>
<trkpt lat="45.9010700" lon="9.8259100">
	<ele>1802.20</ele>
	<time>2023-11-18T11:03:49.000Z</time>
</trkpt>
<trkpt lat="45.9010700" lon="9.8259110">
	<ele>1802.20</ele>
	<time>2023-11-18T11:03:50.000Z</time>
</trkpt>
<trkpt lat="45.9010710" lon="9.8259110">
	<ele>1802.20</ele>
	<time>2023-11-18T11:03:51.000Z</time>
</trkpt>
<trkpt lat="45.9010710" lon="9.8259110">
	<ele>1802.20</ele>
	<time>2023-11-18T11:03:52.000Z</time>
</trkpt>
<trkpt lat="45.9010710" lon="9.8259110">
	<ele>1802.20</ele>
	<time>2023-11-18T11:03:53.000Z</time>
</trkpt>
<trkpt lat="45.9010710" lon="9.8259110">
	<ele>1802.20</ele>
	<time>2023-11-18T11:03:54.000Z</time>
</trkpt>
<trkpt lat="45.9010710" lon="9.8259110">
	<ele>1802.20</ele>
	<time>2023-11-18T11:03:55.000Z</time>
</trkpt>
<trkpt lat="45.9010710" lon="9.8259120">
	<ele>1802.20</ele>
	<time>2023-11-18T11:03:56.000Z</time>
</trkpt>
<trkpt lat="45.9010710" lon="9.8259120">
	<ele>1802.20</ele>
	<time>2023-11-18T11:03:57.000Z</time>
</trkpt>
<trkpt lat="45.9010710" lon="9.8259120">
	<ele>1802.20</ele>
	<time>2023-11-18T11:03:58.000Z</time>
</trkpt>
<trkpt lat="45.9010710" lon="9.8259120">
	<ele>1802.20</ele>
	<time>2023-11-18T11:03:59.000Z</time>
</trkpt>
<trkpt lat="45.9010710" lon="9.8259120">
	<ele>1802.20</ele>
	<time>2023-11-18T11:04:00.000Z</time>
</trkpt>
<trkpt lat="45.9010710" lon="9.8259120">
	<ele>1802.20</ele>
	<time>2023-11-18T11:04:01.000Z</time>
</trkpt>
<trkpt lat="45.9010710" lon="9.8259120">
	<ele>1802.20</ele>
	<time>2023-11-18T11:04:02.000Z</time>
</trkpt>
<trkpt lat="45.9010710" lon="9.8259120">
	<ele>1802.20</ele>
	<time>2023-11-18T11:04:03.000Z</time>
</trkpt>
<trkpt lat="45.9010720" lon="9.8259120">
	<ele>1802.20</ele>
	<time>2023-11-18T11:04:04.000Z</time>
</trkpt>
<trkpt lat="45.9010720" lon="9.8259120">
	<ele>1802.20</ele>
	<time>2023-11-18T11:04:05.000Z</time>
</trkpt>
<trkpt lat="45.9010720" lon="9.8259120">
	<ele>1802.20</ele>
	<time>2023-11-18T11:04:06.000Z</time>
</trkpt>
<trkpt lat="45.9010720" lon="9.8259120">
	<ele>1802.20</ele>
	<time>2023-11-18T11:04:07.000Z</time>
</trkpt>
<trkpt lat="45.9010720" lon="9.8259120">
	<ele>1802.20</ele>
	<time>2023-11-18T11:04:08.000Z</time>
</trkpt>
<trkpt lat="45.9010720" lon="9.8259120">
	<ele>1802.20</ele>
	<time>2023-11-18T11:04:09.000Z</time>
</trkpt>
<trkpt lat="45.9010720" lon="9.8259130">
	<ele>1802.20</ele>
	<time>2023-11-18T11:04:10.000Z</time>
</trkpt>
<trkpt lat="45.9010720" lon="9.8259130">
	<ele>1802.20</ele>
	<time>2023-11-18T11:04:11.000Z</time>
</trkpt>
<trkpt lat="45.9010720" lon="9.8259130">
	<ele>1802.20</ele>
	<time>2023-11-18T11:04:12.000Z</time>
</trkpt>
<trkpt lat="45.9010720" lon="9.8259130">
	<ele>1802.20</ele>
	<time>2023-11-18T11:04:13.000Z</time>
</trkpt>
<trkpt lat="45.9010720" lon="9.8259130">
	<ele>1802.20</ele>
	<time>2023-11-18T11:04:14.000Z</time>
</trkpt>
<trkpt lat="45.9010720" lon="9.8259130">
	<ele>1802.20</ele>
	<time>2023-11-18T11:04:15.000Z</time>
</trkpt>
<trkpt lat="45.9010720" lon="9.8259130">
	<ele>1802.20</ele>
	<time>2023-11-18T11:04:16.000Z</time>
</trkpt>
<trkpt lat="45.9010720" lon="9.8259130">
	<ele>1802.20</ele>
	<time>2023-11-18T11:04:17.000Z</time>
</trkpt>
<trkpt lat="45.9010720" lon="9.8259140">
	<ele>1802.20</ele>
	<time>2023-11-18T11:04:18.000Z</time>
</trkpt>
<trkpt lat="45.9010720" lon="9.8259130">
	<ele>1802.20</ele>
	<time>2023-11-18T11:04:19.000Z</time>
</trkpt>
<trkpt lat="45.9010720" lon="9.8259130">
	<ele>1802.20</ele>
	<time>2023-11-18T11:04:20.000Z</time>
</trkpt>
<trkpt lat="45.9010720" lon="9.8259130">
	<ele>1802.20</ele>
	<time>2023-11-18T11:04:21.000Z</time>
</trkpt>
<trkpt lat="45.9010720" lon="9.8259130">
	<ele>1802.20</ele>
	<time>2023-11-18T11:04:22.000Z</time>
</trkpt>
<trkpt lat="45.9010720" lon="9.8259130">
	<ele>1802.20</ele>
	<time>2023-11-18T11:04:23.000Z</time>
</trkpt>
<trkpt lat="45.9010720" lon="9.8259130">
	<ele>1802.20</ele>
	<time>2023-11-18T11:04:24.000Z</time>
</trkpt>
<trkpt lat="45.9010720" lon="9.8259130">
	<ele>1802.20</ele>
	<time>2023-11-18T11:04:25.000Z</time>
</trkpt>
<trkpt lat="45.9010720" lon="9.8259130">
	<ele>1802.20</ele>
	<time>2023-11-18T11:04:26.000Z</time>
</trkpt>
<trkpt lat="45.9010720" lon="9.8259130">
	<ele>1802.20</ele>
	<time>2023-11-18T11:04:27.000Z</time>
</trkpt>
<trkpt lat="45.9010730" lon="9.8259130">
	<ele>1802.20</ele>
	<time>2023-11-18T11:04:28.000Z</time>
</trkpt>
<trkpt lat="45.9010720" lon="9.8259130">
	<ele>1802.20</ele>
	<time>2023-11-18T11:04:29.000Z</time>
</trkpt>
<trkpt lat="45.9010750" lon="9.8259170">
	<ele>1802.20</ele>
	<time>2023-11-18T11:04:30.000Z</time>
</trkpt>
<trkpt lat="45.9010800" lon="9.8259220">
	<ele>1802.20</ele>
	<time>2023-11-18T11:04:31.000Z</time>
</trkpt>
<trkpt lat="45.9010850" lon="9.8259240">
	<ele>1802.20</ele>
	<time>2023-11-18T11:04:32.000Z</time>
</trkpt>
<trkpt lat="45.9010880" lon="9.8259290">
	<ele>1802.20</ele>
	<time>2023-11-18T11:04:33.000Z</time>
</trkpt>
<trkpt lat="45.9010880" lon="9.8259290">
	<ele>1802.20</ele>
	<time>2023-11-18T11:04:34.000Z</time>
</trkpt>
<trkpt lat="45.9010880" lon="9.8259290">
	<ele>1802.20</ele>
	<time>2023-11-18T11:04:35.000Z</time>
</trkpt>
<trkpt lat="45.9010880" lon="9.8259290">
	<ele>1802.20</ele>
	<time>2023-11-18T11:04:36.000Z</time>
</trkpt>
<trkpt lat="45.9010880" lon="9.8259290">
	<ele>1802.20</ele>
	<time>2023-11-18T11:04:37.000Z</time>
</trkpt>
<trkpt lat="45.9010880" lon="9.8259290">
	<ele>1802.20</ele>
	<time>2023-11-18T11:04:38.000Z</time>
</trkpt>
<trkpt lat="45.9010880" lon="9.8259290">
	<ele>1802.20</ele>
	<time>2023-11-18T11:04:39.000Z</time>
</trkpt>
<trkpt lat="45.9011020" lon="9.8259480">
	<ele>1802.20</ele>
	<time>2023-11-18T11:04:40.000Z</time>
</trkpt>
<trkpt lat="45.9011030" lon="9.8259490">
	<ele>1802.20</ele>
	<time>2023-11-18T11:04:41.000Z</time>
</trkpt>
<trkpt lat="45.9011040" lon="9.8259490">
	<ele>1802.20</ele>
	<time>2023-11-18T11:04:42.000Z</time>
</trkpt>
<trkpt lat="45.9011060" lon="9.8259500">
	<ele>1802.20</ele>
	<time>2023-11-18T11:04:43.000Z</time>
</trkpt>
<trkpt lat="45.9011060" lon="9.8259500">
	<ele>1802.20</ele>
	<time>2023-11-18T11:04:44.000Z</time>
</trkpt>
<trkpt lat="45.9011060" lon="9.8259500">
	<ele>1802.20</ele>
	<time>2023-11-18T11:04:45.000Z</time>
</trkpt>
<trkpt lat="45.9011070" lon="9.8259500">
	<ele>1802.20</ele>
	<time>2023-11-18T11:04:46.000Z</time>
</trkpt>
<trkpt lat="45.9011080" lon="9.8259500">
	<ele>1802.20</ele>
	<time>2023-11-18T11:04:47.000Z</time>
</trkpt>
<trkpt lat="45.9011090" lon="9.8259500">
	<ele>1802.20</ele>
	<time>2023-11-18T11:04:48.000Z</time>
</trkpt>
<trkpt lat="45.9011090" lon="9.8259510">
	<ele>1802.20</ele>
	<time>2023-11-18T11:04:49.000Z</time>
</trkpt>
<trkpt lat="45.9011100" lon="9.8259520">
	<ele>1802.20</ele>
	<time>2023-11-18T11:04:50.000Z</time>
</trkpt>
<trkpt lat="45.9011100" lon="9.8259530">
	<ele>1802.20</ele>
	<time>2023-11-18T11:04:51.000Z</time>
</trkpt>
<trkpt lat="45.9011100" lon="9.8259540">
	<ele>1802.20</ele>
	<time>2023-11-18T11:04:52.000Z</time>
</trkpt>
<trkpt lat="45.9011100" lon="9.8259540">
	<ele>1802.20</ele>
	<time>2023-11-18T11:04:53.000Z</time>
</trkpt>
<trkpt lat="45.9011100" lon="9.8259540">
	<ele>1802.20</ele>
	<time>2023-11-18T11:04:54.000Z</time>
</trkpt>
<trkpt lat="45.9011100" lon="9.8259540">
	<ele>1802.20</ele>
	<time>2023-11-18T11:04:55.000Z</time>
</trkpt>
<trkpt lat="45.9011100" lon="9.8259540">
	<ele>1802.20</ele>
	<time>2023-11-18T11:04:56.000Z</time>
</trkpt>
<trkpt lat="45.9011100" lon="9.8259540">
	<ele>1802.20</ele>
	<time>2023-11-18T11:04:57.000Z</time>
</trkpt>
<trkpt lat="45.9011100" lon="9.8259550">
	<ele>1802.20</ele>
	<time>2023-11-18T11:04:58.000Z</time>
</trkpt>
<trkpt lat="45.9011100" lon="9.8259560">
	<ele>1802.20</ele>
	<time>2023-11-18T11:04:59.000Z</time>
</trkpt>
<trkpt lat="45.9011100" lon="9.8259560">
	<ele>1802.20</ele>
	<time>2023-11-18T11:05:00.000Z</time>
</trkpt>
<trkpt lat="45.9011100" lon="9.8259560">
	<ele>1802.20</ele>
	<time>2023-11-18T11:05:01.000Z</time>
</trkpt>
<trkpt lat="45.9011100" lon="9.8259560">
	<ele>1802.20</ele>
	<time>2023-11-18T11:05:02.000Z</time>
</trkpt>
<trkpt lat="45.9011100" lon="9.8259560">
	<ele>1802.20</ele>
	<time>2023-11-18T11:05:03.000Z</time>
</trkpt>
<trkpt lat="45.9011100" lon="9.8259560">
	<ele>1802.20</ele>
	<time>2023-11-18T11:05:04.000Z</time>
</trkpt>
<trkpt lat="45.9011100" lon="9.8259560">
	<ele>1802.20</ele>
	<time>2023-11-18T11:05:05.000Z</time>
</trkpt>
<trkpt lat="45.9011100" lon="9.8259560">
	<ele>1802.20</ele>
	<time>2023-11-18T11:05:06.000Z</time>
</trkpt>
<trkpt lat="45.9011100" lon="9.8259560">
	<ele>1802.20</ele>
	<time>2023-11-18T11:05:07.000Z</time>
</trkpt>
<trkpt lat="45.9011100" lon="9.8259560">
	<ele>1802.20</ele>
	<time>2023-11-18T11:05:08.000Z</time>
</trkpt>
<trkpt lat="45.9011100" lon="9.8259560">
	<ele>1802.20</ele>
	<time>2023-11-18T11:05:09.000Z</time>
</trkpt>
<trkpt lat="45.9011100" lon="9.8259560">
	<ele>1802.20</ele>
	<time>2023-11-18T11:05:10.000Z</time>
</trkpt>
<trkpt lat="45.9011100" lon="9.8259560">
	<ele>1802.20</ele>
	<time>2023-11-18T11:05:11.000Z</time>
</trkpt>
<trkpt lat="45.9011100" lon="9.8259560">
	<ele>1802.20</ele>
	<time>2023-11-18T11:05:12.000Z</time>
</trkpt>
<trkpt lat="45.9011100" lon="9.8259560">
	<ele>1802.20</ele>
	<time>2023-11-18T11:05:13.000Z</time>
</trkpt>
<trkpt lat="45.9011100" lon="9.8259560">
	<ele>1802.20</ele>
	<time>2023-11-18T11:05:14.000Z</time>
</trkpt>
<trkpt lat="45.9011100" lon="9.8259560">
	<ele>1802.20</ele>
	<time>2023-11-18T11:05:15.000Z</time>
</trkpt>
<trkpt lat="45.9011100" lon="9.8259560">
	<ele>1802.20</ele>
	<time>2023-11-18T11:05:16.000Z</time>
</trkpt>
<trkpt lat="45.9011100" lon="9.8259560">
	<ele>1802.20</ele>
	<time>2023-11-18T11:05:17.000Z</time>
</trkpt>
<trkpt lat="45.9011100" lon="9.8259560">
	<ele>1802.20</ele>
	<time>2023-11-18T11:05:18.000Z</time>
</trkpt>
<trkpt lat="45.9011100" lon="9.8259560">
	<ele>1802.20</ele>
	<time>2023-11-18T11:05:19.000Z</time>
</trkpt>
<trkpt lat="45.9011100" lon="9.8259560">
	<ele>1802.20</ele>
	<time>2023-11-18T11:05:20.000Z</time>
</trkpt>
<trkpt lat="45.9011100" lon="9.8259560">
	<ele>1802.20</ele>
	<time>2023-11-18T11:05:21.000Z</time>
</trkpt>
<trkpt lat="45.9011100" lon="9.8259560">
	<ele>1802.20</ele>
	<time>2023-11-18T11:05:22.000Z</time>
</trkpt>
<trkpt lat="45.9011100" lon="9.8259560">
	<ele>1802.20</ele>
	<time>2023-11-18T11:05:23.000Z</time>
</trkpt>
<trkpt lat="45.9011130" lon="9.8259570">
	<ele>1802.20</ele>
	<time>2023-11-18T11:05:24.000Z</time>
</trkpt>
<trkpt lat="45.9011140" lon="9.8259570">
	<ele>1802.20</ele>
	<time>2023-11-18T11:05:25.000Z</time>
</trkpt>
<trkpt lat="45.9011140" lon="9.8259580">
	<ele>1802.20</ele>
	<time>2023-11-18T11:05:26.000Z</time>
</trkpt>
<trkpt lat="45.9011140" lon="9.8259580">
	<ele>1802.20</ele>
	<time>2023-11-18T11:05:27.000Z</time>
</trkpt>
<trkpt lat="45.9011150" lon="9.8259580">
	<ele>1802.20</ele>
	<time>2023-11-18T11:05:28.000Z</time>
</trkpt>
<trkpt lat="45.9011150" lon="9.8259580">
	<ele>1802.20</ele>
	<time>2023-11-18T11:05:29.000Z</time>
</trkpt>
<trkpt lat="45.9011150" lon="9.8259580">
	<ele>1802.20</ele>
	<time>2023-11-18T11:05:30.000Z</time>
</trkpt>
<trkpt lat="45.9011150" lon="9.8259590">
	<ele>1802.20</ele>
	<time>2023-11-18T11:05:31.000Z</time>
</trkpt>
<trkpt lat="45.9011150" lon="9.8259600">
	<ele>1802.20</ele>
	<time>2023-11-18T11:05:32.000Z</time>
</trkpt>
<trkpt lat="45.9011150" lon="9.8259610">
	<ele>1802.20</ele>
	<time>2023-11-18T11:05:33.000Z</time>
</trkpt>
<trkpt lat="45.9011150" lon="9.8259610">
	<ele>1802.20</ele>
	<time>2023-11-18T11:05:34.000Z</time>
</trkpt>
<trkpt lat="45.9011150" lon="9.8259610">
	<ele>1802.20</ele>
	<time>2023-11-18T11:05:35.000Z</time>
</trkpt>
<trkpt lat="45.9011150" lon="9.8259610">
	<ele>1802.20</ele>
	<time>2023-11-18T11:05:36.000Z</time>
</trkpt>
<trkpt lat="45.9011150" lon="9.8259610">
	<ele>1802.20</ele>
	<time>2023-11-18T11:05:37.000Z</time>
</trkpt>
<trkpt lat="45.9011150" lon="9.8259610">
	<ele>1802.20</ele>
	<time>2023-11-18T11:05:38.000Z</time>
</trkpt>
<trkpt lat="45.9011150" lon="9.8259610">
	<ele>1802.20</ele>
	<time>2023-11-18T11:05:39.000Z</time>
</trkpt>
<trkpt lat="45.9011150" lon="9.8259610">
	<ele>1802.20</ele>
	<time>2023-11-18T11:05:40.000Z</time>
</trkpt>
<trkpt lat="45.9011150" lon="9.8259610">
	<ele>1802.20</ele>
	<time>2023-11-18T11:05:41.000Z</time>
</trkpt>
<trkpt lat="45.9011150" lon="9.8259610">
	<ele>1802.20</ele>
	<time>2023-11-18T11:05:42.000Z</time>
</trkpt>
<trkpt lat="45.9011140" lon="9.8259620">
	<ele>1802.20</ele>
	<time>2023-11-18T11:05:43.000Z</time>
</trkpt>
<trkpt lat="45.9011140" lon="9.8259620">
	<ele>1802.20</ele>
	<time>2023-11-18T11:05:44.000Z</time>
</trkpt>
<trkpt lat="45.9011120" lon="9.8259630">
	<ele>1802.20</ele>
	<time>2023-11-18T11:05:45.000Z</time>
</trkpt>
<trkpt lat="45.9011100" lon="9.8259630">
	<ele>1802.20</ele>
	<time>2023-11-18T11:05:46.000Z</time>
</trkpt>
<trkpt lat="45.9011080" lon="9.8259640">
	<ele>1802.20</ele>
	<time>2023-11-18T11:05:47.000Z</time>
</trkpt>
<trkpt lat="45.9011070" lon="9.8259640">
	<ele>1802.20</ele>
	<time>2023-11-18T11:05:48.000Z</time>
</trkpt>
<trkpt lat="45.9011070" lon="9.8259650">
	<ele>1802.20</ele>
	<time>2023-11-18T11:05:49.000Z</time>
</trkpt>
<trkpt lat="45.9011060" lon="9.8259660">
	<ele>1802.20</ele>
	<time>2023-11-18T11:05:50.000Z</time>
</trkpt>
<trkpt lat="45.9011050" lon="9.8259660">
	<ele>1802.20</ele>
	<time>2023-11-18T11:05:51.000Z</time>
</trkpt>
<trkpt lat="45.9011050" lon="9.8259660">
	<ele>1802.20</ele>
	<time>2023-11-18T11:05:52.000Z</time>
</trkpt>
<trkpt lat="45.9011050" lon="9.8259670">
	<ele>1802.20</ele>
	<time>2023-11-18T11:05:53.000Z</time>
</trkpt>
<trkpt lat="45.9011050" lon="9.8259670">
	<ele>1802.20</ele>
	<time>2023-11-18T11:05:54.000Z</time>
</trkpt>
<trkpt lat="45.9011050" lon="9.8259680">
	<ele>1802.20</ele>
	<time>2023-11-18T11:05:55.000Z</time>
</trkpt>
<trkpt lat="45.9011050" lon="9.8259700">
	<ele>1802.20</ele>
	<time>2023-11-18T11:05:56.000Z</time>
</trkpt>
<trkpt lat="45.9011050" lon="9.8259720">
	<ele>1802.20</ele>
	<time>2023-11-18T11:05:57.000Z</time>
</trkpt>
<trkpt lat="45.9011050" lon="9.8259760">
	<ele>1802.20</ele>
	<time>2023-11-18T11:05:58.000Z</time>
</trkpt>
<trkpt lat="45.9011050" lon="9.8259830">
	<ele>1802.20</ele>
	<time>2023-11-18T11:05:59.000Z</time>
</trkpt>
<trkpt lat="45.9011050" lon="9.8259900">
	<ele>1802.20</ele>
	<time>2023-11-18T11:06:00.000Z</time>
</trkpt>
<trkpt lat="45.9011050" lon="9.8259940">
	<ele>1802.20</ele>
	<time>2023-11-18T11:06:01.000Z</time>
</trkpt>
<trkpt lat="45.9011050" lon="9.8259970">
	<ele>1802.20</ele>
	<time>2023-11-18T11:06:02.000Z</time>
</trkpt>
<trkpt lat="45.9011050" lon="9.8259990">
	<ele>1802.20</ele>
	<time>2023-11-18T11:06:03.000Z</time>
</trkpt>
<trkpt lat="45.9011050" lon="9.8260000">
	<ele>1802.20</ele>
	<time>2023-11-18T11:06:04.000Z</time>
</trkpt>
<trkpt lat="45.9011050" lon="9.8260010">
	<ele>1802.20</ele>
	<time>2023-11-18T11:06:05.000Z</time>
</trkpt>
<trkpt lat="45.9011060" lon="9.8260010">
	<ele>1802.20</ele>
	<time>2023-11-18T11:06:06.000Z</time>
</trkpt>
<trkpt lat="45.9011070" lon="9.8260010">
	<ele>1802.20</ele>
	<time>2023-11-18T11:06:07.000Z</time>
</trkpt>
<trkpt lat="45.9011070" lon="9.8260020">
	<ele>1802.20</ele>
	<time>2023-11-18T11:06:08.000Z</time>
</trkpt>
<trkpt lat="45.9011080" lon="9.8260030">
	<ele>1802.20</ele>
	<time>2023-11-18T11:06:09.000Z</time>
</trkpt>
<trkpt lat="45.9011080" lon="9.8260030">
	<ele>1802.20</ele>
	<time>2023-11-18T11:06:10.000Z</time>
</trkpt>
<trkpt lat="45.9011080" lon="9.8260040">
	<ele>1802.20</ele>
	<time>2023-11-18T11:06:11.000Z</time>
</trkpt>
<trkpt lat="45.9011090" lon="9.8260040">
	<ele>1802.20</ele>
	<time>2023-11-18T11:06:12.000Z</time>
</trkpt>
<trkpt lat="45.9011100" lon="9.8260050">
	<ele>1802.20</ele>
	<time>2023-11-18T11:06:13.000Z</time>
</trkpt>
<trkpt lat="45.9011110" lon="9.8260050">
	<ele>1802.20</ele>
	<time>2023-11-18T11:06:14.000Z</time>
</trkpt>
<trkpt lat="45.9011120" lon="9.8260050">
	<ele>1802.20</ele>
	<time>2023-11-18T11:06:15.000Z</time>
</trkpt>
<trkpt lat="45.9011130" lon="9.8260050">
	<ele>1802.20</ele>
	<time>2023-11-18T11:06:16.000Z</time>
</trkpt>
<trkpt lat="45.9011140" lon="9.8260050">
	<ele>1802.20</ele>
	<time>2023-11-18T11:06:17.000Z</time>
</trkpt>
<trkpt lat="45.9011140" lon="9.8260050">
	<ele>1802.20</ele>
	<time>2023-11-18T11:06:18.000Z</time>
</trkpt>
<trkpt lat="45.9011150" lon="9.8260050">
	<ele>1802.20</ele>
	<time>2023-11-18T11:06:19.000Z</time>
</trkpt>
<trkpt lat="45.9011150" lon="9.8260050">
	<ele>1802.20</ele>
	<time>2023-11-18T11:06:20.000Z</time>
</trkpt>
<trkpt lat="45.9011150" lon="9.8260050">
	<ele>1802.20</ele>
	<time>2023-11-18T11:06:21.000Z</time>
</trkpt>
<trkpt lat="45.9011150" lon="9.8260050">
	<ele>1802.20</ele>
	<time>2023-11-18T11:06:22.000Z</time>
</trkpt>
<trkpt lat="45.9011190" lon="9.8260070">
	<ele>1802.20</ele>
	<time>2023-11-18T11:06:23.000Z</time>
</trkpt>
<trkpt lat="45.9011310" lon="9.8260170">
	<ele>1802.20</ele>
	<time>2023-11-18T11:06:24.000Z</time>
</trkpt>
<trkpt lat="45.9011400" lon="9.8260260">
	<ele>1802.20</ele>
	<time>2023-11-18T11:06:25.000Z</time>
</trkpt>
<trkpt lat="45.9011490" lon="9.8260350">
	<ele>1802.20</ele>
	<time>2023-11-18T11:06:26.000Z</time>
</trkpt>
<trkpt lat="45.9011610" lon="9.8260420">
	<ele>1802.20</ele>
	<time>2023-11-18T11:06:27.000Z</time>
</trkpt>
<trkpt lat="45.9011740" lon="9.8260500">
	<ele>1802.20</ele>
	<time>2023-11-18T11:06:28.000Z</time>
</trkpt>
<trkpt lat="45.9011870" lon="9.8260590">
	<ele>1802.20</ele>
	<time>2023-11-18T11:06:29.000Z</time>
</trkpt>
<trkpt lat="45.9011990" lon="9.8260650">
	<ele>1802.20</ele>
	<time>2023-11-18T11:06:30.000Z</time>
</trkpt>
<trkpt lat="45.9012060" lon="9.8260720">
	<ele>1802.20</ele>
	<time>2023-11-18T11:06:31.000Z</time>
</trkpt>
<trkpt lat="45.9012110" lon="9.8260790">
	<ele>1802.20</ele>
	<time>2023-11-18T11:06:32.000Z</time>
</trkpt>
<trkpt lat="45.9012110" lon="9.8260810">
	<ele>1802.20</ele>
	<time>2023-11-18T11:06:33.000Z</time>
</trkpt>
<trkpt lat="45.9012100" lon="9.8260800">
	<ele>1802.20</ele>
	<time>2023-11-18T11:06:34.000Z</time>
</trkpt>
<trkpt lat="45.9012100" lon="9.8260850">
	<ele>1803.60</ele>
	<time>2023-11-18T11:06:35.000Z</time>
</trkpt>
<trkpt lat="45.9012110" lon="9.8260870">
	<ele>1804.40</ele>
	<time>2023-11-18T11:06:36.000Z</time>
</trkpt>
<trkpt lat="45.9012070" lon="9.8260930">
	<ele>1804.80</ele>
	<time>2023-11-18T11:06:37.000Z</time>
</trkpt>
<trkpt lat="45.9012060" lon="9.8260970">
	<ele>1805.00</ele>
	<time>2023-11-18T11:06:38.000Z</time>
</trkpt>
<trkpt lat="45.9012060" lon="9.8260970">
	<ele>1805.20</ele>
	<time>2023-11-18T11:06:39.000Z</time>
</trkpt>
<trkpt lat="45.9012070" lon="9.8260960">
	<ele>1805.20</ele>
	<time>2023-11-18T11:06:40.000Z</time>
</trkpt>
<trkpt lat="45.9012080" lon="9.8260990">
	<ele>1805.20</ele>
	<time>2023-11-18T11:06:41.000Z</time>
</trkpt>
<trkpt lat="45.9012120" lon="9.8260990">
	<ele>1805.40</ele>
	<time>2023-11-18T11:06:42.000Z</time>
</trkpt>
<trkpt lat="45.9012150" lon="9.8261000">
	<ele>1805.40</ele>
	<time>2023-11-18T11:06:43.000Z</time>
</trkpt>
<trkpt lat="45.9012150" lon="9.8261020">
	<ele>1805.40</ele>
	<time>2023-11-18T11:06:44.000Z</time>
</trkpt>
<trkpt lat="45.9012150" lon="9.8261030">
	<ele>1805.40</ele>
	<time>2023-11-18T11:06:45.000Z</time>
</trkpt>
<trkpt lat="45.9012120" lon="9.8260960">
	<ele>1805.20</ele>
	<time>2023-11-18T11:06:46.000Z</time>
</trkpt>
<trkpt lat="45.9012100" lon="9.8260920">
	<ele>1805.20</ele>
	<time>2023-11-18T11:06:47.000Z</time>
</trkpt>
<trkpt lat="45.9012070" lon="9.8260930">
	<ele>1805.20</ele>
	<time>2023-11-18T11:06:48.000Z</time>
</trkpt>
<trkpt lat="45.9012120" lon="9.8260940">
	<ele>1805.20</ele>
	<time>2023-11-18T11:06:49.000Z</time>
</trkpt>
<trkpt lat="45.9012130" lon="9.8260990">
	<ele>1805.20</ele>
	<time>2023-11-18T11:06:50.000Z</time>
</trkpt>
<trkpt lat="45.9012110" lon="9.8261060">
	<ele>1805.20</ele>
	<time>2023-11-18T11:06:51.000Z</time>
</trkpt>
<trkpt lat="45.9012120" lon="9.8261140">
	<ele>1805.00</ele>
	<time>2023-11-18T11:06:52.000Z</time>
</trkpt>
<trkpt lat="45.9012160" lon="9.8261180">
	<ele>1805.00</ele>
	<time>2023-11-18T11:06:53.000Z</time>
</trkpt>
<trkpt lat="45.9012180" lon="9.8261210">
	<ele>1805.00</ele>
	<time>2023-11-18T11:06:54.000Z</time>
</trkpt>
<trkpt lat="45.9012210" lon="9.8261260">
	<ele>1805.00</ele>
	<time>2023-11-18T11:06:55.000Z</time>
</trkpt>
<trkpt lat="45.9012260" lon="9.8261290">
	<ele>1805.00</ele>
	<time>2023-11-18T11:06:56.000Z</time>
</trkpt>
<trkpt lat="45.9012290" lon="9.8261320">
	<ele>1804.80</ele>
	<time>2023-11-18T11:06:57.000Z</time>
</trkpt>
<trkpt lat="45.9012330" lon="9.8261330">
	<ele>1804.60</ele>
	<time>2023-11-18T11:06:58.000Z</time>
</trkpt>
<trkpt lat="45.9012340" lon="9.8261370">
	<ele>1804.60</ele>
	<time>2023-11-18T11:06:59.000Z</time>
</trkpt>
<trkpt lat="45.9012340" lon="9.8261400">
	<ele>1804.60</ele>
	<time>2023-11-18T11:07:00.000Z</time>
</trkpt>
<trkpt lat="45.9012340" lon="9.8261410">
	<ele>1804.60</ele>
	<time>2023-11-18T11:07:01.000Z</time>
</trkpt>
<trkpt lat="45.9012340" lon="9.8261410">
	<ele>1804.60</ele>
	<time>2023-11-18T11:07:02.000Z</time>
</trkpt>
<trkpt lat="45.9012340" lon="9.8261410">
	<ele>1804.80</ele>
	<time>2023-11-18T11:07:03.000Z</time>
</trkpt>
<trkpt lat="45.9012340" lon="9.8261410">
	<ele>1805.00</ele>
	<time>2023-11-18T11:07:04.000Z</time>
</trkpt>
<trkpt lat="45.9012340" lon="9.8261410">
	<ele>1805.00</ele>
	<time>2023-11-18T11:07:05.000Z</time>
</trkpt>
<trkpt lat="45.9012340" lon="9.8261410">
	<ele>1805.00</ele>
	<time>2023-11-18T11:07:06.000Z</time>
</trkpt>
<trkpt lat="45.9012340" lon="9.8261410">
	<ele>1805.00</ele>
	<time>2023-11-18T11:07:07.000Z</time>
</trkpt>
<trkpt lat="45.9012340" lon="9.8261410">
	<ele>1805.00</ele>
	<time>2023-11-18T11:07:08.000Z</time>
</trkpt>
<trkpt lat="45.9012340" lon="9.8261410">
	<ele>1805.00</ele>
	<time>2023-11-18T11:07:09.000Z</time>
</trkpt>
<trkpt lat="45.9012340" lon="9.8261410">
	<ele>1805.00</ele>
	<time>2023-11-18T11:07:10.000Z</time>
</trkpt>
<trkpt lat="45.9012340" lon="9.8261410">
	<ele>1805.00</ele>
	<time>2023-11-18T11:07:11.000Z</time>
</trkpt>
<trkpt lat="45.9012340" lon="9.8261410">
	<ele>1805.00</ele>
	<time>2023-11-18T11:07:12.000Z</time>
</trkpt>
<trkpt lat="45.9012340" lon="9.8261410">
	<ele>1804.80</ele>
	<time>2023-11-18T11:07:13.000Z</time>
</trkpt>
<trkpt lat="45.9012330" lon="9.8261410">
	<ele>1804.80</ele>
	<time>2023-11-18T11:07:14.000Z</time>
</trkpt>
<trkpt lat="45.9012330" lon="9.8261400">
	<ele>1804.80</ele>
	<time>2023-11-18T11:07:15.000Z</time>
</trkpt>
<trkpt lat="45.9012330" lon="9.8261400">
	<ele>1804.60</ele>
	<time>2023-11-18T11:07:16.000Z</time>
</trkpt>
<trkpt lat="45.9012330" lon="9.8261390">
	<ele>1804.80</ele>
	<time>2023-11-18T11:07:17.000Z</time>
</trkpt>
<trkpt lat="45.9012330" lon="9.8261390">
	<ele>1804.80</ele>
	<time>2023-11-18T11:07:18.000Z</time>
</trkpt>
<trkpt lat="45.9012320" lon="9.8261390">
	<ele>1804.80</ele>
	<time>2023-11-18T11:07:19.000Z</time>
</trkpt>
<trkpt lat="45.9012320" lon="9.8261390">
	<ele>1804.80</ele>
	<time>2023-11-18T11:07:20.000Z</time>
</trkpt>
<trkpt lat="45.9012320" lon="9.8261390">
	<ele>1804.80</ele>
	<time>2023-11-18T11:07:21.000Z</time>
</trkpt>
<trkpt lat="45.9012320" lon="9.8261390">
	<ele>1804.80</ele>
	<time>2023-11-18T11:07:22.000Z</time>
</trkpt>
<trkpt lat="45.9012320" lon="9.8261390">
	<ele>1804.60</ele>
	<time>2023-11-18T11:07:23.000Z</time>
</trkpt>
<trkpt lat="45.9012320" lon="9.8261390">
	<ele>1804.60</ele>
	<time>2023-11-18T11:07:24.000Z</time>
</trkpt>
<trkpt lat="45.9012330" lon="9.8261390">
	<ele>1804.60</ele>
	<time>2023-11-18T11:07:25.000Z</time>
</trkpt>
<trkpt lat="45.9012330" lon="9.8261390">
	<ele>1804.60</ele>
	<time>2023-11-18T11:07:26.000Z</time>
</trkpt>
<trkpt lat="45.9012330" lon="9.8261400">
	<ele>1804.40</ele>
	<time>2023-11-18T11:07:27.000Z</time>
</trkpt>
<trkpt lat="45.9012330" lon="9.8261400">
	<ele>1804.20</ele>
	<time>2023-11-18T11:07:28.000Z</time>
</trkpt>
<trkpt lat="45.9012330" lon="9.8261400">
	<ele>1804.20</ele>
	<time>2023-11-18T11:07:29.000Z</time>
</trkpt>
<trkpt lat="45.9012330" lon="9.8261400">
	<ele>1804.00</ele>
	<time>2023-11-18T11:07:30.000Z</time>
</trkpt>
<trkpt lat="45.9012330" lon="9.8261410">
	<ele>1803.60</ele>
	<time>2023-11-18T11:07:31.000Z</time>
</trkpt>
<trkpt lat="45.9012330" lon="9.8261410">
	<ele>1803.40</ele>
	<time>2023-11-18T11:07:32.000Z</time>
</trkpt>
<trkpt lat="45.9012330" lon="9.8261410">
	<ele>1803.00</ele>
	<time>2023-11-18T11:07:33.000Z</time>
</trkpt>
<trkpt lat="45.9012330" lon="9.8261410">
	<ele>1802.80</ele>
	<time>2023-11-18T11:07:34.000Z</time>
</trkpt>
<trkpt lat="45.9012370" lon="9.8261500">
	<ele>1802.60</ele>
	<time>2023-11-18T11:07:35.000Z</time>
</trkpt>
<trkpt lat="45.9012410" lon="9.8261640">
	<ele>1802.60</ele>
	<time>2023-11-18T11:07:36.000Z</time>
</trkpt>
<trkpt lat="45.9012460" lon="9.8261720">
	<ele>1802.40</ele>
	<time>2023-11-18T11:07:37.000Z</time>
</trkpt>
<trkpt lat="45.9012480" lon="9.8261800">
	<ele>1802.60</ele>
	<time>2023-11-18T11:07:38.000Z</time>
</trkpt>
<trkpt lat="45.9012520" lon="9.8261880">
	<ele>1802.40</ele>
	<time>2023-11-18T11:07:39.000Z</time>
</trkpt>
<trkpt lat="45.9012540" lon="9.8261940">
	<ele>1802.20</ele>
	<time>2023-11-18T11:07:40.000Z</time>
</trkpt>
<trkpt lat="45.9012580" lon="9.8262000">
	<ele>1802.20</ele>
	<time>2023-11-18T11:07:41.000Z</time>
</trkpt>
<trkpt lat="45.9012630" lon="9.8262070">
	<ele>1802.20</ele>
	<time>2023-11-18T11:07:42.000Z</time>
</trkpt>
<trkpt lat="45.9012660" lon="9.8262180">
	<ele>1802.20</ele>
	<time>2023-11-18T11:07:43.000Z</time>
</trkpt>
<trkpt lat="45.9012710" lon="9.8262270">
	<ele>1802.20</ele>
	<time>2023-11-18T11:07:44.000Z</time>
</trkpt>
<trkpt lat="45.9012720" lon="9.8262290">
	<ele>1802.20</ele>
	<time>2023-11-18T11:07:45.000Z</time>
</trkpt>
<trkpt lat="45.9012720" lon="9.8262340">
	<ele>1802.00</ele>
	<time>2023-11-18T11:07:46.000Z</time>
</trkpt>
<trkpt lat="45.9012700" lon="9.8262390">
	<ele>1802.00</ele>
	<time>2023-11-18T11:07:47.000Z</time>
</trkpt>
<trkpt lat="45.9012670" lon="9.8262440">
	<ele>1802.00</ele>
	<time>2023-11-18T11:07:48.000Z</time>
</trkpt>
<trkpt lat="45.9012650" lon="9.8262520">
	<ele>1802.00</ele>
	<time>2023-11-18T11:07:49.000Z</time>
</trkpt>
<trkpt lat="45.9012660" lon="9.8262590">
	<ele>1802.00</ele>
	<time>2023-11-18T11:07:50.000Z</time>
</trkpt>
<trkpt lat="45.9012680" lon="9.8262700">
	<ele>1801.80</ele>
	<time>2023-11-18T11:07:51.000Z</time>
</trkpt>
<trkpt lat="45.9012720" lon="9.8262750">
	<ele>1801.60</ele>
	<time>2023-11-18T11:07:52.000Z</time>
</trkpt>
<trkpt lat="45.9012790" lon="9.8262810">
	<ele>1801.60</ele>
	<time>2023-11-18T11:07:53.000Z</time>
</trkpt>
<trkpt lat="45.9012820" lon="9.8262860">
	<ele>1801.40</ele>
	<time>2023-11-18T11:07:54.000Z</time>
</trkpt>
<trkpt lat="45.9012820" lon="9.8262930">
	<ele>1801.20</ele>
	<time>2023-11-18T11:07:55.000Z</time>
</trkpt>
<trkpt lat="45.9012830" lon="9.8262990">
	<ele>1801.00</ele>
	<time>2023-11-18T11:07:56.000Z</time>
</trkpt>
<trkpt lat="45.9012810" lon="9.8263030">
	<ele>1800.80</ele>
	<time>2023-11-18T11:07:57.000Z</time>
</trkpt>
<trkpt lat="45.9012790" lon="9.8263090">
	<ele>1800.80</ele>
	<time>2023-11-18T11:07:58.000Z</time>
</trkpt>
<trkpt lat="45.9012750" lon="9.8263230">
	<ele>1800.60</ele>
	<time>2023-11-18T11:07:59.000Z</time>
</trkpt>
<trkpt lat="45.9012720" lon="9.8263360">
	<ele>1800.60</ele>
	<time>2023-11-18T11:08:00.000Z</time>
</trkpt>
<trkpt lat="45.9012750" lon="9.8263450">
	<ele>1800.60</ele>
	<time>2023-11-18T11:08:01.000Z</time>
</trkpt>
<trkpt lat="45.9012850" lon="9.8263510">
	<ele>1800.60</ele>
	<time>2023-11-18T11:08:02.000Z</time>
</trkpt>
<trkpt lat="45.9012920" lon="9.8263540">
	<ele>1800.40</ele>
	<time>2023-11-18T11:08:03.000Z</time>
</trkpt>
<trkpt lat="45.9013000" lon="9.8263560">
	<ele>1800.40</ele>
	<time>2023-11-18T11:08:04.000Z</time>
</trkpt>
<trkpt lat="45.9013090" lon="9.8263590">
	<ele>1800.40</ele>
	<time>2023-11-18T11:08:05.000Z</time>
</trkpt>
<trkpt lat="45.9013220" lon="9.8263590">
	<ele>1800.40</ele>
	<time>2023-11-18T11:08:06.000Z</time>
</trkpt>
<trkpt lat="45.9013320" lon="9.8263610">
	<ele>1800.40</ele>
	<time>2023-11-18T11:08:07.000Z</time>
</trkpt>
<trkpt lat="45.9013390" lon="9.8263590">
	<ele>1800.60</ele>
	<time>2023-11-18T11:08:08.000Z</time>
</trkpt>
<trkpt lat="45.9013480" lon="9.8263580">
	<ele>1800.60</ele>
	<time>2023-11-18T11:08:09.000Z</time>
</trkpt>
<trkpt lat="45.9013530" lon="9.8263580">
	<ele>1800.60</ele>
	<time>2023-11-18T11:08:10.000Z</time>
</trkpt>
<trkpt lat="45.9013550" lon="9.8263570">
	<ele>1800.60</ele>
	<time>2023-11-18T11:08:11.000Z</time>
</trkpt>
<trkpt lat="45.9013560" lon="9.8263580">
	<ele>1800.80</ele>
	<time>2023-11-18T11:08:12.000Z</time>
</trkpt>
<trkpt lat="45.9013560" lon="9.8263580">
	<ele>1800.80</ele>
	<time>2023-11-18T11:08:13.000Z</time>
</trkpt>
<trkpt lat="45.9013550" lon="9.8263580">
	<ele>1800.80</ele>
	<time>2023-11-18T11:08:14.000Z</time>
</trkpt>
<trkpt lat="45.9013570" lon="9.8263580">
	<ele>1800.80</ele>
	<time>2023-11-18T11:08:15.000Z</time>
</trkpt>
<trkpt lat="45.9013620" lon="9.8263530">
	<ele>1800.80</ele>
	<time>2023-11-18T11:08:16.000Z</time>
</trkpt>
<trkpt lat="45.9013630" lon="9.8263510">
	<ele>1800.80</ele>
	<time>2023-11-18T11:08:17.000Z</time>
</trkpt>
<trkpt lat="45.9013650" lon="9.8263490">
	<ele>1800.80</ele>
	<time>2023-11-18T11:08:18.000Z</time>
</trkpt>
<trkpt lat="45.9013660" lon="9.8263480">
	<ele>1800.80</ele>
	<time>2023-11-18T11:08:19.000Z</time>
</trkpt>
<trkpt lat="45.9013660" lon="9.8263460">
	<ele>1800.80</ele>
	<time>2023-11-18T11:08:20.000Z</time>
</trkpt>
<trkpt lat="45.9013670" lon="9.8263460">
	<ele>1801.00</ele>
	<time>2023-11-18T11:08:21.000Z</time>
</trkpt>
<trkpt lat="45.9013670" lon="9.8263470">
	<ele>1801.00</ele>
	<time>2023-11-18T11:08:22.000Z</time>
</trkpt>
<trkpt lat="45.9013670" lon="9.8263470">
	<ele>1801.00</ele>
	<time>2023-11-18T11:08:23.000Z</time>
</trkpt>
<trkpt lat="45.9013670" lon="9.8263470">
	<ele>1801.00</ele>
	<time>2023-11-18T11:08:24.000Z</time>
</trkpt>
<trkpt lat="45.9013670" lon="9.8263470">
	<ele>1801.00</ele>
	<time>2023-11-18T11:08:25.000Z</time>
</trkpt>
<trkpt lat="45.9013670" lon="9.8263470">
	<ele>1801.00</ele>
	<time>2023-11-18T11:08:26.000Z</time>
</trkpt>
<trkpt lat="45.9013670" lon="9.8263470">
	<ele>1800.80</ele>
	<time>2023-11-18T11:08:27.000Z</time>
</trkpt>
<trkpt lat="45.9013670" lon="9.8263470">
	<ele>1800.60</ele>
	<time>2023-11-18T11:08:28.000Z</time>
</trkpt>
<trkpt lat="45.9013670" lon="9.8263470">
	<ele>1800.60</ele>
	<time>2023-11-18T11:08:29.000Z</time>
</trkpt>
<trkpt lat="45.9013670" lon="9.8263470">
	<ele>1800.40</ele>
	<time>2023-11-18T11:08:30.000Z</time>
</trkpt>
<trkpt lat="45.9013670" lon="9.8263470">
	<ele>1800.40</ele>
	<time>2023-11-18T11:08:31.000Z</time>
</trkpt>
<trkpt lat="45.9013670" lon="9.8263470">
	<ele>1800.40</ele>
	<time>2023-11-18T11:08:32.000Z</time>
</trkpt>
<trkpt lat="45.9013670" lon="9.8263470">
	<ele>1800.40</ele>
	<time>2023-11-18T11:08:33.000Z</time>
</trkpt>
<trkpt lat="45.9013670" lon="9.8263470">
	<ele>1800.40</ele>
	<time>2023-11-18T11:08:34.000Z</time>
</trkpt>
<trkpt lat="45.9013670" lon="9.8263470">
	<ele>1800.40</ele>
	<time>2023-11-18T11:08:35.000Z</time>
</trkpt>
<trkpt lat="45.9013670" lon="9.8263470">
	<ele>1800.40</ele>
	<time>2023-11-18T11:08:36.000Z</time>
</trkpt>
<trkpt lat="45.9013670" lon="9.8263480">
	<ele>1800.40</ele>
	<time>2023-11-18T11:08:37.000Z</time>
</trkpt>
<trkpt lat="45.9013670" lon="9.8263480">
	<ele>1800.60</ele>
	<time>2023-11-18T11:08:38.000Z</time>
</trkpt>
<trkpt lat="45.9013640" lon="9.8263510">
	<ele>1800.60</ele>
	<time>2023-11-18T11:08:39.000Z</time>
</trkpt>
<trkpt lat="45.9013530" lon="9.8263610">
	<ele>1800.40</ele>
	<time>2023-11-18T11:08:40.000Z</time>
</trkpt>
<trkpt lat="45.9013440" lon="9.8263750">
	<ele>1800.20</ele>
	<time>2023-11-18T11:08:41.000Z</time>
</trkpt>
<trkpt lat="45.9013360" lon="9.8263900">
	<ele>1800.00</ele>
	<time>2023-11-18T11:08:42.000Z</time>
</trkpt>
<trkpt lat="45.9013310" lon="9.8263970">
	<ele>1800.20</ele>
	<time>2023-11-18T11:08:43.000Z</time>
</trkpt>
<trkpt lat="45.9013270" lon="9.8264030">
	<ele>1800.00</ele>
	<time>2023-11-18T11:08:44.000Z</time>
</trkpt>
<trkpt lat="45.9013230" lon="9.8264070">
	<ele>1799.80</ele>
	<time>2023-11-18T11:08:45.000Z</time>
</trkpt>
<trkpt lat="45.9013200" lon="9.8264100">
	<ele>1799.80</ele>
	<time>2023-11-18T11:08:46.000Z</time>
</trkpt>
<trkpt lat="45.9013160" lon="9.8264110">
	<ele>1799.60</ele>
	<time>2023-11-18T11:08:47.000Z</time>
</trkpt>
<trkpt lat="45.9013130" lon="9.8264160">
	<ele>1799.60</ele>
	<time>2023-11-18T11:08:48.000Z</time>
</trkpt>
<trkpt lat="45.9013110" lon="9.8264200">
	<ele>1799.60</ele>
	<time>2023-11-18T11:08:49.000Z</time>
</trkpt>
<trkpt lat="45.9013070" lon="9.8264240">
	<ele>1799.40</ele>
	<time>2023-11-18T11:08:50.000Z</time>
</trkpt>
<trkpt lat="45.9013020" lon="9.8264260">
	<ele>1799.20</ele>
	<time>2023-11-18T11:08:51.000Z</time>
</trkpt>
<trkpt lat="45.9013000" lon="9.8264280">
	<ele>1799.00</ele>
	<time>2023-11-18T11:08:52.000Z</time>
</trkpt>
<trkpt lat="45.9012990" lon="9.8264290">
	<ele>1798.80</ele>
	<time>2023-11-18T11:08:53.000Z</time>
</trkpt>
<trkpt lat="45.9012990" lon="9.8264290">
	<ele>1798.80</ele>
	<time>2023-11-18T11:08:54.000Z</time>
</trkpt>
<trkpt lat="45.9012990" lon="9.8264290">
	<ele>1799.00</ele>
	<time>2023-11-18T11:08:55.000Z</time>
</trkpt>
<trkpt lat="45.9012990" lon="9.8264290">
	<ele>1799.00</ele>
	<time>2023-11-18T11:08:56.000Z</time>
</trkpt>
<trkpt lat="45.9012990" lon="9.8264290">
	<ele>1799.00</ele>
	<time>2023-11-18T11:08:57.000Z</time>
</trkpt>
<trkpt lat="45.9012990" lon="9.8264290">
	<ele>1799.20</ele>
	<time>2023-11-18T11:08:58.000Z</time>
</trkpt>
<trkpt lat="45.9012990" lon="9.8264290">
	<ele>1799.20</ele>
	<time>2023-11-18T11:08:59.000Z</time>
</trkpt>
<trkpt lat="45.9012990" lon="9.8264290">
	<ele>1799.00</ele>
	<time>2023-11-18T11:09:00.000Z</time>
</trkpt>
<trkpt lat="45.9012990" lon="9.8264290">
	<ele>1799.00</ele>
	<time>2023-11-18T11:09:01.000Z</time>
</trkpt>
<trkpt lat="45.9012990" lon="9.8264290">
	<ele>1798.80</ele>
	<time>2023-11-18T11:09:02.000Z</time>
</trkpt>
<trkpt lat="45.9012990" lon="9.8264290">
	<ele>1798.60</ele>
	<time>2023-11-18T11:09:03.000Z</time>
</trkpt>
<trkpt lat="45.9012990" lon="9.8264290">
	<ele>1798.40</ele>
	<time>2023-11-18T11:09:04.000Z</time>
</trkpt>
<trkpt lat="45.9012990" lon="9.8264290">
	<ele>1798.20</ele>
	<time>2023-11-18T11:09:05.000Z</time>
</trkpt>
<trkpt lat="45.9012990" lon="9.8264290">
	<ele>1798.00</ele>
	<time>2023-11-18T11:09:06.000Z</time>
</trkpt>
<trkpt lat="45.9012990" lon="9.8264290">
	<ele>1797.80</ele>
	<time>2023-11-18T11:09:07.000Z</time>
</trkpt>
<trkpt lat="45.9012990" lon="9.8264290">
	<ele>1797.60</ele>
	<time>2023-11-18T11:09:08.000Z</time>
</trkpt>
<trkpt lat="45.9012930" lon="9.8264340">
	<ele>1797.60</ele>
	<time>2023-11-18T11:09:09.000Z</time>
</trkpt>
<trkpt lat="45.9012740" lon="9.8264400">
	<ele>1797.40</ele>
	<time>2023-11-18T11:09:10.000Z</time>
</trkpt>
<trkpt lat="45.9012560" lon="9.8264440">
	<ele>1797.40</ele>
	<time>2023-11-18T11:09:11.000Z</time>
</trkpt>
<trkpt lat="45.9012390" lon="9.8264490">
	<ele>1797.20</ele>
	<time>2023-11-18T11:09:12.000Z</time>
</trkpt>
<trkpt lat="45.9012240" lon="9.8264600">
	<ele>1797.00</ele>
	<time>2023-11-18T11:09:13.000Z</time>
</trkpt>
<trkpt lat="45.9012110" lon="9.8264740">
	<ele>1796.60</ele>
	<time>2023-11-18T11:09:14.000Z</time>
</trkpt>
<trkpt lat="45.9011950" lon="9.8264880">
	<ele>1796.20</ele>
	<time>2023-11-18T11:09:15.000Z</time>
</trkpt>
<trkpt lat="45.9011800" lon="9.8265020">
	<ele>1796.00</ele>
	<time>2023-11-18T11:09:16.000Z</time>
</trkpt>
<trkpt lat="45.9011650" lon="9.8265200">
	<ele>1795.80</ele>
	<time>2023-11-18T11:09:17.000Z</time>
</trkpt>
<trkpt lat="45.9011480" lon="9.8265410">
	<ele>1795.80</ele>
	<time>2023-11-18T11:09:18.000Z</time>
</trkpt>
<trkpt lat="45.9011380" lon="9.8265510">
	<ele>1795.60</ele>
	<time>2023-11-18T11:09:19.000Z</time>
</trkpt>
<trkpt lat="45.9011260" lon="9.8265610">
	<ele>1795.60</ele>
	<time>2023-11-18T11:09:20.000Z</time>
</trkpt>
<trkpt lat="45.9011170" lon="9.8265720">
	<ele>1795.40</ele>
	<time>2023-11-18T11:09:21.000Z</time>
</trkpt>
<trkpt lat="45.9011090" lon="9.8265840">
	<ele>1795.20</ele>
	<time>2023-11-18T11:09:22.000Z</time>
</trkpt>
<trkpt lat="45.9011050" lon="9.8265970">
	<ele>1794.80</ele>
	<time>2023-11-18T11:09:23.000Z</time>
</trkpt>
<trkpt lat="45.9011000" lon="9.8266100">
	<ele>1794.60</ele>
	<time>2023-11-18T11:09:24.000Z</time>
</trkpt>
<trkpt lat="45.9010970" lon="9.8266230">
	<ele>1794.40</ele>
	<time>2023-11-18T11:09:25.000Z</time>
</trkpt>
<trkpt lat="45.9010940" lon="9.8266330">
	<ele>1794.20</ele>
	<time>2023-11-18T11:09:26.000Z</time>
</trkpt>
<trkpt lat="45.9010870" lon="9.8266400">
	<ele>1794.00</ele>
	<time>2023-11-18T11:09:27.000Z</time>
</trkpt>
<trkpt lat="45.9010800" lon="9.8266460">
	<ele>1793.80</ele>
	<time>2023-11-18T11:09:28.000Z</time>
</trkpt>
<trkpt lat="45.9010740" lon="9.8266520">
	<ele>1793.80</ele>
	<time>2023-11-18T11:09:29.000Z</time>
</trkpt>
<trkpt lat="45.9010670" lon="9.8266560">
	<ele>1793.60</ele>
	<time>2023-11-18T11:09:30.000Z</time>
</trkpt>
<trkpt lat="45.9010650" lon="9.8266630">
	<ele>1793.40</ele>
	<time>2023-11-18T11:09:31.000Z</time>
</trkpt>
<trkpt lat="45.9010620" lon="9.8266740">
	<ele>1793.20</ele>
	<time>2023-11-18T11:09:32.000Z</time>
</trkpt>
<trkpt lat="45.9010600" lon="9.8266840">
	<ele>1793.20</ele>
	<time>2023-11-18T11:09:33.000Z</time>
</trkpt>
<trkpt lat="45.9010570" lon="9.8266890">
	<ele>1793.20</ele>
	<time>2023-11-18T11:09:34.000Z</time>
</trkpt>
<trkpt lat="45.9010540" lon="9.8266910">
	<ele>1793.00</ele>
	<time>2023-11-18T11:09:35.000Z</time>
</trkpt>
<trkpt lat="45.9010480" lon="9.8266960">
	<ele>1792.80</ele>
	<time>2023-11-18T11:09:36.000Z</time>
</trkpt>
<trkpt lat="45.9010400" lon="9.8266990">
	<ele>1792.60</ele>
	<time>2023-11-18T11:09:37.000Z</time>
</trkpt>
<trkpt lat="45.9010340" lon="9.8267050">
	<ele>1792.40</ele>
	<time>2023-11-18T11:09:38.000Z</time>
</trkpt>
<trkpt lat="45.9010290" lon="9.8267100">
	<ele>1792.20</ele>
	<time>2023-11-18T11:09:39.000Z</time>
</trkpt>
<trkpt lat="45.9010160" lon="9.8267190">
	<ele>1792.00</ele>
	<time>2023-11-18T11:09:40.000Z</time>
</trkpt>
<trkpt lat="45.9010040" lon="9.8267270">
	<ele>1791.60</ele>
	<time>2023-11-18T11:09:41.000Z</time>
</trkpt>
<trkpt lat="45.9009910" lon="9.8267360">
	<ele>1791.40</ele>
	<time>2023-11-18T11:09:42.000Z</time>
</trkpt>
<trkpt lat="45.9009790" lon="9.8267430">
	<ele>1790.80</ele>
	<time>2023-11-18T11:09:43.000Z</time>
</trkpt>
<trkpt lat="45.9009720" lon="9.8267530">
	<ele>1790.60</ele>
	<time>2023-11-18T11:09:44.000Z</time>
</trkpt>
<trkpt lat="45.9009680" lon="9.8267590">
	<ele>1790.20</ele>
	<time>2023-11-18T11:09:45.000Z</time>
</trkpt>
<trkpt lat="45.9009630" lon="9.8267600">
	<ele>1790.00</ele>
	<time>2023-11-18T11:09:46.000Z</time>
</trkpt>
<trkpt lat="45.9009590" lon="9.8267700">
	<ele>1789.80</ele>
	<time>2023-11-18T11:09:47.000Z</time>
</trkpt>
<trkpt lat="45.9009530" lon="9.8267760">
	<ele>1789.60</ele>
	<time>2023-11-18T11:09:48.000Z</time>
</trkpt>
<trkpt lat="45.9009460" lon="9.8267820">
	<ele>1789.40</ele>
	<time>2023-11-18T11:09:49.000Z</time>
</trkpt>
<trkpt lat="45.9009380" lon="9.8267880">
	<ele>1789.20</ele>
	<time>2023-11-18T11:09:50.000Z</time>
</trkpt>
<trkpt lat="45.9009320" lon="9.8267920">
	<ele>1789.00</ele>
	<time>2023-11-18T11:09:51.000Z</time>
</trkpt>
<trkpt lat="45.9009290" lon="9.8267960">
	<ele>1788.80</ele>
	<time>2023-11-18T11:09:52.000Z</time>
</trkpt>
<trkpt lat="45.9009270" lon="9.8268000">
	<ele>1788.40</ele>
	<time>2023-11-18T11:09:53.000Z</time>
</trkpt>
<trkpt lat="45.9009250" lon="9.8268030">
	<ele>1788.20</ele>
	<time>2023-11-18T11:09:54.000Z</time>
</trkpt>
<trkpt lat="45.9009220" lon="9.8268070">
	<ele>1788.00</ele>
	<time>2023-11-18T11:09:55.000Z</time>
</trkpt>
<trkpt lat="45.9009170" lon="9.8268100">
	<ele>1787.80</ele>
	<time>2023-11-18T11:09:56.000Z</time>
</trkpt>
<trkpt lat="45.9009140" lon="9.8268110">
	<ele>1787.40</ele>
	<time>2023-11-18T11:09:57.000Z</time>
</trkpt>
<trkpt lat="45.9009080" lon="9.8268160">
	<ele>1787.20</ele>
	<time>2023-11-18T11:09:58.000Z</time>
</trkpt>
<trkpt lat="45.9009040" lon="9.8268240">
	<ele>1786.80</ele>
	<time>2023-11-18T11:09:59.000Z</time>
</trkpt>
<trkpt lat="45.9008980" lon="9.8268280">
	<ele>1786.20</ele>
	<time>2023-11-18T11:10:00.000Z</time>
</trkpt>
<trkpt lat="45.9008940" lon="9.8268360">
	<ele>1785.80</ele>
	<time>2023-11-18T11:10:01.000Z</time>
</trkpt>
<trkpt lat="45.9008920" lon="9.8268410">
	<ele>1785.40</ele>
	<time>2023-11-18T11:10:02.000Z</time>
</trkpt>
<trkpt lat="45.9008890" lon="9.8268460">
	<ele>1785.20</ele>
	<time>2023-11-18T11:10:03.000Z</time>
</trkpt>
<trkpt lat="45.9008850" lon="9.8268480">
	<ele>1784.80</ele>
	<time>2023-11-18T11:10:04.000Z</time>
</trkpt>
<trkpt lat="45.9008810" lon="9.8268520">
	<ele>1784.40</ele>
	<time>2023-11-18T11:10:05.000Z</time>
</trkpt>
<trkpt lat="45.9008810" lon="9.8268580">
	<ele>1784.20</ele>
	<time>2023-11-18T11:10:06.000Z</time>
</trkpt>
<trkpt lat="45.9008780" lon="9.8268600">
	<ele>1783.80</ele>
	<time>2023-11-18T11:10:07.000Z</time>
</trkpt>
<trkpt lat="45.9008760" lon="9.8268640">
	<ele>1783.80</ele>
	<time>2023-11-18T11:10:08.000Z</time>
</trkpt>
<trkpt lat="45.9008710" lon="9.8268660">
	<ele>1783.60</ele>
	<time>2023-11-18T11:10:09.000Z</time>
</trkpt>
<trkpt lat="45.9008590" lon="9.8268670">
	<ele>1783.60</ele>
	<time>2023-11-18T11:10:10.000Z</time>
</trkpt>
<trkpt lat="45.9008490" lon="9.8268700">
	<ele>1783.20</ele>
	<time>2023-11-18T11:10:11.000Z</time>
</trkpt>
<trkpt lat="45.9008440" lon="9.8268760">
	<ele>1783.00</ele>
	<time>2023-11-18T11:10:12.000Z</time>
</trkpt>
<trkpt lat="45.9008370" lon="9.8268810">
	<ele>1782.60</ele>
	<time>2023-11-18T11:10:13.000Z</time>
</trkpt>
<trkpt lat="45.9008310" lon="9.8268880">
	<ele>1782.20</ele>
	<time>2023-11-18T11:10:14.000Z</time>
</trkpt>
<trkpt lat="45.9008260" lon="9.8268900">
	<ele>1782.20</ele>
	<time>2023-11-18T11:10:15.000Z</time>
</trkpt>
<trkpt lat="45.9008220" lon="9.8268900">
	<ele>1781.80</ele>
	<time>2023-11-18T11:10:16.000Z</time>
</trkpt>
<trkpt lat="45.9008200" lon="9.8268860">
	<ele>1782.00</ele>
	<time>2023-11-18T11:10:17.000Z</time>
</trkpt>
<trkpt lat="45.9008170" lon="9.8268830">
	<ele>1782.00</ele>
	<time>2023-11-18T11:10:18.000Z</time>
</trkpt>
<trkpt lat="45.9008040" lon="9.8268780">
	<ele>1781.60</ele>
	<time>2023-11-18T11:10:19.000Z</time>
</trkpt>
<trkpt lat="45.9007930" lon="9.8268750">
	<ele>1781.40</ele>
	<time>2023-11-18T11:10:20.000Z</time>
</trkpt>
<trkpt lat="45.9007880" lon="9.8268720">
	<ele>1781.20</ele>
	<time>2023-11-18T11:10:21.000Z</time>
</trkpt>
<trkpt lat="45.9007840" lon="9.8268740">
	<ele>1780.60</ele>
	<time>2023-11-18T11:10:22.000Z</time>
</trkpt>
<trkpt lat="45.9007790" lon="9.8268780">
	<ele>1780.20</ele>
	<time>2023-11-18T11:10:23.000Z</time>
</trkpt>
<trkpt lat="45.9007730" lon="9.8268810">
	<ele>1779.80</ele>
	<time>2023-11-18T11:10:24.000Z</time>
</trkpt>
<trkpt lat="45.9007670" lon="9.8268830">
	<ele>1779.40</ele>
	<time>2023-11-18T11:10:25.000Z</time>
</trkpt>
<trkpt lat="45.9007630" lon="9.8268840">
	<ele>1779.20</ele>
	<time>2023-11-18T11:10:26.000Z</time>
</trkpt>
<trkpt lat="45.9007580" lon="9.8268850">
	<ele>1779.20</ele>
	<time>2023-11-18T11:10:27.000Z</time>
</trkpt>
<trkpt lat="45.9007530" lon="9.8268870">
	<ele>1779.00</ele>
	<time>2023-11-18T11:10:28.000Z</time>
</trkpt>
<trkpt lat="45.9007470" lon="9.8268900">
	<ele>1778.80</ele>
	<time>2023-11-18T11:10:29.000Z</time>
</trkpt>
<trkpt lat="45.9007390" lon="9.8268950">
	<ele>1778.40</ele>
	<time>2023-11-18T11:10:30.000Z</time>
</trkpt>
<trkpt lat="45.9007340" lon="9.8268980">
	<ele>1778.20</ele>
	<time>2023-11-18T11:10:31.000Z</time>
</trkpt>
<trkpt lat="45.9007280" lon="9.8269010">
	<ele>1778.00</ele>
	<time>2023-11-18T11:10:32.000Z</time>
</trkpt>
<trkpt lat="45.9007220" lon="9.8269040">
	<ele>1777.80</ele>
	<time>2023-11-18T11:10:33.000Z</time>
</trkpt>
<trkpt lat="45.9007160" lon="9.8269060">
	<ele>1777.40</ele>
	<time>2023-11-18T11:10:34.000Z</time>
</trkpt>
<trkpt lat="45.9007080" lon="9.8269040">
	<ele>1777.20</ele>
	<time>2023-11-18T11:10:35.000Z</time>
</trkpt>
<trkpt lat="45.9007030" lon="9.8269050">
	<ele>1776.80</ele>
	<time>2023-11-18T11:10:36.000Z</time>
</trkpt>
<trkpt lat="45.9006980" lon="9.8269040">
	<ele>1776.60</ele>
	<time>2023-11-18T11:10:37.000Z</time>
</trkpt>
<trkpt lat="45.9006950" lon="9.8268980">
	<ele>1776.40</ele>
	<time>2023-11-18T11:10:38.000Z</time>
</trkpt>
<trkpt lat="45.9006930" lon="9.8268950">
	<ele>1776.40</ele>
	<time>2023-11-18T11:10:39.000Z</time>
</trkpt>
<trkpt lat="45.9006890" lon="9.8268920">
	<ele>1776.00</ele>
	<time>2023-11-18T11:10:40.000Z</time>
</trkpt>
<trkpt lat="45.9006840" lon="9.8268900">
	<ele>1776.00</ele>
	<time>2023-11-18T11:10:41.000Z</time>
</trkpt>
<trkpt lat="45.9006810" lon="9.8268890">
	<ele>1775.60</ele>
	<time>2023-11-18T11:10:42.000Z</time>
</trkpt>
<trkpt lat="45.9006760" lon="9.8268830">
	<ele>1775.60</ele>
	<time>2023-11-18T11:10:43.000Z</time>
</trkpt>
<trkpt lat="45.9006720" lon="9.8268760">
	<ele>1775.40</ele>
	<time>2023-11-18T11:10:44.000Z</time>
</trkpt>
<trkpt lat="45.9006690" lon="9.8268720">
	<ele>1775.20</ele>
	<time>2023-11-18T11:10:45.000Z</time>
</trkpt>
<trkpt lat="45.9006650" lon="9.8268720">
	<ele>1775.00</ele>
	<time>2023-11-18T11:10:46.000Z</time>
</trkpt>
<trkpt lat="45.9006620" lon="9.8268720">
	<ele>1774.60</ele>
	<time>2023-11-18T11:10:47.000Z</time>
</trkpt>
<trkpt lat="45.9006580" lon="9.8268690">
	<ele>1774.40</ele>
	<time>2023-11-18T11:10:48.000Z</time>
</trkpt>
<trkpt lat="45.9006550" lon="9.8268650">
	<ele>1774.20</ele>
	<time>2023-11-18T11:10:49.000Z</time>
</trkpt>
<trkpt lat="45.9006480" lon="9.8268630">
	<ele>1774.00</ele>
	<time>2023-11-18T11:10:50.000Z</time>
</trkpt>
<trkpt lat="45.9006380" lon="9.8268620">
	<ele>1773.80</ele>
	<time>2023-11-18T11:10:51.000Z</time>
</trkpt>
<trkpt lat="45.9006300" lon="9.8268590">
	<ele>1773.60</ele>
	<time>2023-11-18T11:10:52.000Z</time>
</trkpt>
<trkpt lat="45.9006250" lon="9.8268590">
	<ele>1773.20</ele>
	<time>2023-11-18T11:10:53.000Z</time>
</trkpt>
<trkpt lat="45.9006190" lon="9.8268560">
	<ele>1773.00</ele>
	<time>2023-11-18T11:10:54.000Z</time>
</trkpt>
<trkpt lat="45.9006150" lon="9.8268530">
	<ele>1772.80</ele>
	<time>2023-11-18T11:10:55.000Z</time>
</trkpt>
<trkpt lat="45.9006070" lon="9.8268560">
	<ele>1772.60</ele>
	<time>2023-11-18T11:10:56.000Z</time>
</trkpt>
<trkpt lat="45.9006010" lon="9.8268620">
	<ele>1772.20</ele>
	<time>2023-11-18T11:10:57.000Z</time>
</trkpt>
<trkpt lat="45.9005980" lon="9.8268700">
	<ele>1772.00</ele>
	<time>2023-11-18T11:10:58.000Z</time>
</trkpt>
<trkpt lat="45.9005930" lon="9.8268690">
	<ele>1771.80</ele>
	<time>2023-11-18T11:10:59.000Z</time>
</trkpt>
<trkpt lat="45.9005880" lon="9.8268700">
	<ele>1771.80</ele>
	<time>2023-11-18T11:11:00.000Z</time>
</trkpt>
<trkpt lat="45.9005830" lon="9.8268690">
	<ele>1771.60</ele>
	<time>2023-11-18T11:11:01.000Z</time>
</trkpt>
<trkpt lat="45.9005740" lon="9.8268680">
	<ele>1771.60</ele>
	<time>2023-11-18T11:11:02.000Z</time>
</trkpt>
<trkpt lat="45.9005670" lon="9.8268660">
	<ele>1771.20</ele>
	<time>2023-11-18T11:11:03.000Z</time>
</trkpt>
<trkpt lat="45.9005620" lon="9.8268600">
	<ele>1770.80</ele>
	<time>2023-11-18T11:11:04.000Z</time>
</trkpt>
<trkpt lat="45.9005520" lon="9.8268570">
	<ele>1770.80</ele>
	<time>2023-11-18T11:11:05.000Z</time>
</trkpt>
<trkpt lat="45.9005450" lon="9.8268560">
	<ele>1770.40</ele>
	<time>2023-11-18T11:11:06.000Z</time>
</trkpt>
<trkpt lat="45.9005360" lon="9.8268550">
	<ele>1770.20</ele>
	<time>2023-11-18T11:11:07.000Z</time>
</trkpt>
<trkpt lat="45.9005280" lon="9.8268550">
	<ele>1769.80</ele>
	<time>2023-11-18T11:11:08.000Z</time>
</trkpt>
<trkpt lat="45.9005180" lon="9.8268540">
	<ele>1769.60</ele>
	<time>2023-11-18T11:11:09.000Z</time>
</trkpt>
<trkpt lat="45.9005090" lon="9.8268490">
	<ele>1769.60</ele>
	<time>2023-11-18T11:11:10.000Z</time>
</trkpt>
<trkpt lat="45.9004990" lon="9.8268440">
	<ele>1769.40</ele>
	<time>2023-11-18T11:11:11.000Z</time>
</trkpt>
<trkpt lat="45.9004870" lon="9.8268420">
	<ele>1769.40</ele>
	<time>2023-11-18T11:11:12.000Z</time>
</trkpt>
<trkpt lat="45.9004790" lon="9.8268380">
	<ele>1769.40</ele>
	<time>2023-11-18T11:11:13.000Z</time>
</trkpt>
<trkpt lat="45.9004710" lon="9.8268360">
	<ele>1769.00</ele>
	<time>2023-11-18T11:11:14.000Z</time>
</trkpt>
<trkpt lat="45.9004610" lon="9.8268340">
	<ele>1768.80</ele>
	<time>2023-11-18T11:11:15.000Z</time>
</trkpt>
<trkpt lat="45.9004520" lon="9.8268340">
	<ele>1768.40</ele>
	<time>2023-11-18T11:11:16.000Z</time>
</trkpt>
<trkpt lat="45.9004450" lon="9.8268310">
	<ele>1768.20</ele>
	<time>2023-11-18T11:11:17.000Z</time>
</trkpt>
<trkpt lat="45.9004340" lon="9.8268270">
	<ele>1767.80</ele>
	<time>2023-11-18T11:11:18.000Z</time>
</trkpt>
<trkpt lat="45.9004240" lon="9.8268230">
	<ele>1767.60</ele>
	<time>2023-11-18T11:11:19.000Z</time>
</trkpt>
<trkpt lat="45.9004150" lon="9.8268200">
	<ele>1767.40</ele>
	<time>2023-11-18T11:11:20.000Z</time>
</trkpt>
<trkpt lat="45.9004040" lon="9.8268180">
	<ele>1767.20</ele>
	<time>2023-11-18T11:11:21.000Z</time>
</trkpt>
<trkpt lat="45.9003960" lon="9.8268170">
	<ele>1767.00</ele>
	<time>2023-11-18T11:11:22.000Z</time>
</trkpt>
<trkpt lat="45.9003880" lon="9.8268120">
	<ele>1766.80</ele>
	<time>2023-11-18T11:11:23.000Z</time>
</trkpt>
<trkpt lat="45.9003780" lon="9.8268070">
	<ele>1766.60</ele>
	<time>2023-11-18T11:11:24.000Z</time>
</trkpt>
<trkpt lat="45.9003670" lon="9.8268030">
	<ele>1766.20</ele>
	<time>2023-11-18T11:11:25.000Z</time>
</trkpt>
<trkpt lat="45.9003560" lon="9.8268000">
	<ele>1766.00</ele>
	<time>2023-11-18T11:11:26.000Z</time>
</trkpt>
<trkpt lat="45.9003460" lon="9.8267990">
	<ele>1765.60</ele>
	<time>2023-11-18T11:11:27.000Z</time>
</trkpt>
<trkpt lat="45.9003360" lon="9.8267980">
	<ele>1765.40</ele>
	<time>2023-11-18T11:11:28.000Z</time>
</trkpt>
<trkpt lat="45.9003270" lon="9.8267980">
	<ele>1765.20</ele>
	<time>2023-11-18T11:11:29.000Z</time>
</trkpt>
<trkpt lat="45.9003170" lon="9.8267990">
	<ele>1765.00</ele>
	<time>2023-11-18T11:11:30.000Z</time>
</trkpt>
<trkpt lat="45.9003040" lon="9.8267980">
	<ele>1764.60</ele>
	<time>2023-11-18T11:11:31.000Z</time>
</trkpt>
<trkpt lat="45.9002960" lon="9.8268020">
	<ele>1764.40</ele>
	<time>2023-11-18T11:11:32.000Z</time>
</trkpt>
<trkpt lat="45.9002880" lon="9.8268010">
	<ele>1764.20</ele>
	<time>2023-11-18T11:11:33.000Z</time>
</trkpt>
<trkpt lat="45.9002770" lon="9.8268010">
	<ele>1764.00</ele>
	<time>2023-11-18T11:11:34.000Z</time>
</trkpt>
<trkpt lat="45.9002660" lon="9.8268020">
	<ele>1763.80</ele>
	<time>2023-11-18T11:11:35.000Z</time>
</trkpt>
<trkpt lat="45.9002620" lon="9.8268050">
	<ele>1763.60</ele>
	<time>2023-11-18T11:11:36.000Z</time>
</trkpt>
<trkpt lat="45.9002560" lon="9.8268070">
	<ele>1763.40</ele>
	<time>2023-11-18T11:11:37.000Z</time>
</trkpt>
<trkpt lat="45.9002500" lon="9.8268140">
	<ele>1763.00</ele>
	<time>2023-11-18T11:11:38.000Z</time>
</trkpt>
<trkpt lat="45.9002450" lon="9.8268200">
	<ele>1762.80</ele>
	<time>2023-11-18T11:11:39.000Z</time>
</trkpt>
<trkpt lat="45.9002400" lon="9.8268250">
	<ele>1762.60</ele>
	<time>2023-11-18T11:11:40.000Z</time>
</trkpt>
<trkpt lat="45.9002340" lon="9.8268300">
	<ele>1762.60</ele>
	<time>2023-11-18T11:11:41.000Z</time>
</trkpt>
<trkpt lat="45.9002280" lon="9.8268350">
	<ele>1762.00</ele>
	<time>2023-11-18T11:11:42.000Z</time>
</trkpt>
<trkpt lat="45.9002240" lon="9.8268400">
	<ele>1761.80</ele>
	<time>2023-11-18T11:11:43.000Z</time>
</trkpt>
<trkpt lat="45.9002180" lon="9.8268430">
	<ele>1761.60</ele>
	<time>2023-11-18T11:11:44.000Z</time>
</trkpt>
<trkpt lat="45.9002080" lon="9.8268420">
	<ele>1761.40</ele>
	<time>2023-11-18T11:11:45.000Z</time>
</trkpt>
<trkpt lat="45.9001990" lon="9.8268400">
	<ele>1761.20</ele>
	<time>2023-11-18T11:11:46.000Z</time>
</trkpt>
<trkpt lat="45.9001880" lon="9.8268380">
	<ele>1761.20</ele>
	<time>2023-11-18T11:11:47.000Z</time>
</trkpt>
<trkpt lat="45.9001770" lon="9.8268350">
	<ele>1761.00</ele>
	<time>2023-11-18T11:11:48.000Z</time>
</trkpt>
<trkpt lat="45.9001680" lon="9.8268360">
	<ele>1760.60</ele>
	<time>2023-11-18T11:11:49.000Z</time>
</trkpt>
<trkpt lat="45.9001560" lon="9.8268400">
	<ele>1760.40</ele>
	<time>2023-11-18T11:11:50.000Z</time>
</trkpt>
<trkpt lat="45.9001480" lon="9.8268430">
	<ele>1760.20</ele>
	<time>2023-11-18T11:11:51.000Z</time>
</trkpt>
<trkpt lat="45.9001400" lon="9.8268460">
	<ele>1760.20</ele>
	<time>2023-11-18T11:11:52.000Z</time>
</trkpt>
<trkpt lat="45.9001320" lon="9.8268460">
	<ele>1759.60</ele>
	<time>2023-11-18T11:11:53.000Z</time>
</trkpt>
<trkpt lat="45.9001190" lon="9.8268480">
	<ele>1759.40</ele>
	<time>2023-11-18T11:11:54.000Z</time>
</trkpt>
<trkpt lat="45.9001090" lon="9.8268520">
	<ele>1759.20</ele>
	<time>2023-11-18T11:11:55.000Z</time>
</trkpt>
<trkpt lat="45.9000960" lon="9.8268570">
	<ele>1759.00</ele>
	<time>2023-11-18T11:11:56.000Z</time>
</trkpt>
<trkpt lat="45.9000830" lon="9.8268640">
	<ele>1758.80</ele>
	<time>2023-11-18T11:11:57.000Z</time>
</trkpt>
<trkpt lat="45.9000710" lon="9.8268710">
	<ele>1758.60</ele>
	<time>2023-11-18T11:11:58.000Z</time>
</trkpt>
<trkpt lat="45.9000600" lon="9.8268760">
	<ele>1758.40</ele>
	<time>2023-11-18T11:11:59.000Z</time>
</trkpt>
<trkpt lat="45.9000450" lon="9.8268780">
	<ele>1758.00</ele>
	<time>2023-11-18T11:12:00.000Z</time>
</trkpt>
<trkpt lat="45.9000330" lon="9.8268770">
	<ele>1757.80</ele>
	<time>2023-11-18T11:12:01.000Z</time>
</trkpt>
<trkpt lat="45.9000220" lon="9.8268770">
	<ele>1757.60</ele>
	<time>2023-11-18T11:12:02.000Z</time>
</trkpt>
<trkpt lat="45.9000110" lon="9.8268770">
	<ele>1757.40</ele>
	<time>2023-11-18T11:12:03.000Z</time>
</trkpt>
<trkpt lat="45.9000010" lon="9.8268760">
	<ele>1757.20</ele>
	<time>2023-11-18T11:12:04.000Z</time>
</trkpt>
<trkpt lat="45.8999870" lon="9.8268780">
	<ele>1756.80</ele>
	<time>2023-11-18T11:12:05.000Z</time>
</trkpt>
<trkpt lat="45.8999740" lon="9.8268840">
	<ele>1756.60</ele>
	<time>2023-11-18T11:12:06.000Z</time>
</trkpt>
<trkpt lat="45.8999620" lon="9.8268900">
	<ele>1756.40</ele>
	<time>2023-11-18T11:12:07.000Z</time>
</trkpt>
<trkpt lat="45.8999480" lon="9.8268980">
	<ele>1756.20</ele>
	<time>2023-11-18T11:12:08.000Z</time>
</trkpt>
<trkpt lat="45.8999320" lon="9.8269030">
	<ele>1756.00</ele>
	<time>2023-11-18T11:12:09.000Z</time>
</trkpt>
<trkpt lat="45.8999180" lon="9.8269050">
	<ele>1755.80</ele>
	<time>2023-11-18T11:12:10.000Z</time>
</trkpt>
<trkpt lat="45.8999060" lon="9.8269110">
	<ele>1755.80</ele>
	<time>2023-11-18T11:12:11.000Z</time>
</trkpt>
<trkpt lat="45.8998920" lon="9.8269140">
	<ele>1755.60</ele>
	<time>2023-11-18T11:12:12.000Z</time>
</trkpt>
<trkpt lat="45.8998860" lon="9.8269200">
	<ele>1755.60</ele>
	<time>2023-11-18T11:12:13.000Z</time>
</trkpt>
<trkpt lat="45.8998780" lon="9.8269290">
	<ele>1755.60</ele>
	<time>2023-11-18T11:12:14.000Z</time>
</trkpt>
<trkpt lat="45.8998670" lon="9.8269350">
	<ele>1755.40</ele>
	<time>2023-11-18T11:12:15.000Z</time>
</trkpt>
<trkpt lat="45.8998570" lon="9.8269400">
	<ele>1755.40</ele>
	<time>2023-11-18T11:12:16.000Z</time>
</trkpt>
<trkpt lat="45.8998480" lon="9.8269420">
	<ele>1755.20</ele>
	<time>2023-11-18T11:12:17.000Z</time>
</trkpt>
<trkpt lat="45.8998380" lon="9.8269400">
	<ele>1755.20</ele>
	<time>2023-11-18T11:12:18.000Z</time>
</trkpt>
<trkpt lat="45.8998270" lon="9.8269370">
	<ele>1754.80</ele>
	<time>2023-11-18T11:12:19.000Z</time>
</trkpt>
<trkpt lat="45.8998190" lon="9.8269400">
	<ele>1754.80</ele>
	<time>2023-11-18T11:12:20.000Z</time>
</trkpt>
<trkpt lat="45.8998080" lon="9.8269390">
	<ele>1754.40</ele>
	<time>2023-11-18T11:12:21.000Z</time>
</trkpt>
<trkpt lat="45.8997960" lon="9.8269370">
	<ele>1754.20</ele>
	<time>2023-11-18T11:12:22.000Z</time>
</trkpt>
<trkpt lat="45.8997830" lon="9.8269330">
	<ele>1754.00</ele>
	<time>2023-11-18T11:12:23.000Z</time>
</trkpt>
<trkpt lat="45.8997700" lon="9.8269330">
	<ele>1753.80</ele>
	<time>2023-11-18T11:12:24.000Z</time>
</trkpt>
<trkpt lat="45.8997590" lon="9.8269360">
	<ele>1753.60</ele>
	<time>2023-11-18T11:12:25.000Z</time>
</trkpt>
<trkpt lat="45.8997490" lon="9.8269400">
	<ele>1753.40</ele>
	<time>2023-11-18T11:12:26.000Z</time>
</trkpt>
<trkpt lat="45.8997420" lon="9.8269440">
	<ele>1753.20</ele>
	<time>2023-11-18T11:12:27.000Z</time>
</trkpt>
<trkpt lat="45.8997330" lon="9.8269440">
	<ele>1753.20</ele>
	<time>2023-11-18T11:12:28.000Z</time>
</trkpt>
<trkpt lat="45.8997240" lon="9.8269420">
	<ele>1753.20</ele>
	<time>2023-11-18T11:12:29.000Z</time>
</trkpt>
<trkpt lat="45.8997150" lon="9.8269440">
	<ele>1753.00</ele>
	<time>2023-11-18T11:12:30.000Z</time>
</trkpt>
<trkpt lat="45.8997110" lon="9.8269450">
	<ele>1753.00</ele>
	<time>2023-11-18T11:12:31.000Z</time>
</trkpt>
<trkpt lat="45.8997080" lon="9.8269470">
	<ele>1753.20</ele>
	<time>2023-11-18T11:12:32.000Z</time>
</trkpt>
<trkpt lat="45.8997070" lon="9.8269470">
	<ele>1753.20</ele>
	<time>2023-11-18T11:12:33.000Z</time>
</trkpt>
<trkpt lat="45.8997060" lon="9.8269470">
	<ele>1753.20</ele>
	<time>2023-11-18T11:12:34.000Z</time>
</trkpt>
<trkpt lat="45.8997070" lon="9.8269460">
	<ele>1753.20</ele>
	<time>2023-11-18T11:12:35.000Z</time>
</trkpt>
<trkpt lat="45.8997070" lon="9.8269470">
	<ele>1753.20</ele>
	<time>2023-11-18T11:12:36.000Z</time>
</trkpt>
<trkpt lat="45.8997070" lon="9.8269460">
	<ele>1753.20</ele>
	<time>2023-11-18T11:12:37.000Z</time>
</trkpt>
<trkpt lat="45.8997070" lon="9.8269460">
	<ele>1753.40</ele>
	<time>2023-11-18T11:12:38.000Z</time>
</trkpt>
<trkpt lat="45.8997060" lon="9.8269480">
	<ele>1753.40</ele>
	<time>2023-11-18T11:12:39.000Z</time>
</trkpt>
<trkpt lat="45.8997050" lon="9.8269470">
	<ele>1753.40</ele>
	<time>2023-11-18T11:12:40.000Z</time>
</trkpt>
<trkpt lat="45.8997020" lon="9.8269460">
	<ele>1753.40</ele>
	<time>2023-11-18T11:12:41.000Z</time>
</trkpt>
<trkpt lat="45.8996960" lon="9.8269480">
	<ele>1753.40</ele>
	<time>2023-11-18T11:12:42.000Z</time>
</trkpt>
<trkpt lat="45.8996890" lon="9.8269510">
	<ele>1753.40</ele>
	<time>2023-11-18T11:12:43.000Z</time>
</trkpt>
<trkpt lat="45.8996810" lon="9.8269550">
	<ele>1753.20</ele>
	<time>2023-11-18T11:12:44.000Z</time>
</trkpt>
<trkpt lat="45.8996720" lon="9.8269560">
	<ele>1753.00</ele>
	<time>2023-11-18T11:12:45.000Z</time>
</trkpt>
<trkpt lat="45.8996610" lon="9.8269540">
	<ele>1752.80</ele>
	<time>2023-11-18T11:12:46.000Z</time>
</trkpt>
<trkpt lat="45.8996510" lon="9.8269560">
	<ele>1752.80</ele>
	<time>2023-11-18T11:12:47.000Z</time>
</trkpt>
<trkpt lat="45.8996410" lon="9.8269570">
	<ele>1752.80</ele>
	<time>2023-11-18T11:12:48.000Z</time>
</trkpt>
<trkpt lat="45.8996330" lon="9.8269570">
	<ele>1752.80</ele>
	<time>2023-11-18T11:12:49.000Z</time>
</trkpt>
<trkpt lat="45.8996250" lon="9.8269570">
	<ele>1752.80</ele>
	<time>2023-11-18T11:12:50.000Z</time>
</trkpt>
<trkpt lat="45.8996160" lon="9.8269580">
	<ele>1752.80</ele>
	<time>2023-11-18T11:12:51.000Z</time>
</trkpt>
<trkpt lat="45.8996050" lon="9.8269530">
	<ele>1752.80</ele>
	<time>2023-11-18T11:12:52.000Z</time>
</trkpt>
<trkpt lat="45.8995920" lon="9.8269500">
	<ele>1752.80</ele>
	<time>2023-11-18T11:12:53.000Z</time>
</trkpt>
<trkpt lat="45.8995790" lon="9.8269530">
	<ele>1752.60</ele>
	<time>2023-11-18T11:12:54.000Z</time>
</trkpt>
<trkpt lat="45.8995660" lon="9.8269510">
	<ele>1752.40</ele>
	<time>2023-11-18T11:12:55.000Z</time>
</trkpt>
<trkpt lat="45.8995510" lon="9.8269480">
	<ele>1752.40</ele>
	<time>2023-11-18T11:12:56.000Z</time>
</trkpt>
<trkpt lat="45.8995360" lon="9.8269460">
	<ele>1752.20</ele>
	<time>2023-11-18T11:12:57.000Z</time>
</trkpt>
<trkpt lat="45.8995180" lon="9.8269460">
	<ele>1752.20</ele>
	<time>2023-11-18T11:12:58.000Z</time>
</trkpt>
<trkpt lat="45.8995030" lon="9.8269520">
	<ele>1752.00</ele>
	<time>2023-11-18T11:12:59.000Z</time>
</trkpt>
<trkpt lat="45.8994910" lon="9.8269630">
	<ele>1752.00</ele>
	<time>2023-11-18T11:13:00.000Z</time>
</trkpt>
<trkpt lat="45.8994800" lon="9.8269760">
	<ele>1752.00</ele>
	<time>2023-11-18T11:13:01.000Z</time>
</trkpt>
<trkpt lat="45.8994670" lon="9.8269810">
	<ele>1752.00</ele>
	<time>2023-11-18T11:13:02.000Z</time>
</trkpt>
<trkpt lat="45.8994520" lon="9.8269820">
	<ele>1751.80</ele>
	<time>2023-11-18T11:13:03.000Z</time>
</trkpt>
<trkpt lat="45.8994410" lon="9.8269830">
	<ele>1751.80</ele>
	<time>2023-11-18T11:13:04.000Z</time>
</trkpt>
<trkpt lat="45.8994290" lon="9.8269860">
	<ele>1751.60</ele>
	<time>2023-11-18T11:13:05.000Z</time>
</trkpt>
<trkpt lat="45.8994180" lon="9.8269910">
	<ele>1751.60</ele>
	<time>2023-11-18T11:13:06.000Z</time>
</trkpt>
<trkpt lat="45.8994080" lon="9.8269900">
	<ele>1751.40</ele>
	<time>2023-11-18T11:13:07.000Z</time>
</trkpt>
<trkpt lat="45.8993980" lon="9.8269910">
	<ele>1751.60</ele>
	<time>2023-11-18T11:13:08.000Z</time>
</trkpt>
<trkpt lat="45.8993860" lon="9.8269920">
	<ele>1751.60</ele>
	<time>2023-11-18T11:13:09.000Z</time>
</trkpt>
<trkpt lat="45.8993740" lon="9.8269920">
	<ele>1751.60</ele>
	<time>2023-11-18T11:13:10.000Z</time>
</trkpt>
<trkpt lat="45.8993620" lon="9.8269980">
	<ele>1751.60</ele>
	<time>2023-11-18T11:13:11.000Z</time>
</trkpt>
<trkpt lat="45.8993470" lon="9.8270010">
	<ele>1751.60</ele>
	<time>2023-11-18T11:13:12.000Z</time>
</trkpt>
<trkpt lat="45.8993370" lon="9.8270010">
	<ele>1751.60</ele>
	<time>2023-11-18T11:13:13.000Z</time>
</trkpt>
<trkpt lat="45.8993310" lon="9.8270070">
	<ele>1751.60</ele>
	<time>2023-11-18T11:13:14.000Z</time>
</trkpt>
<trkpt lat="45.8993260" lon="9.8270160">
	<ele>1751.40</ele>
	<time>2023-11-18T11:13:15.000Z</time>
</trkpt>
<trkpt lat="45.8993240" lon="9.8270130">
	<ele>1751.40</ele>
	<time>2023-11-18T11:13:16.000Z</time>
</trkpt>
<trkpt lat="45.8993290" lon="9.8270200">
	<ele>1751.20</ele>
	<time>2023-11-18T11:13:17.000Z</time>
</trkpt>
<trkpt lat="45.8993260" lon="9.8270200">
	<ele>1751.00</ele>
	<time>2023-11-18T11:13:18.000Z</time>
</trkpt>
<trkpt lat="45.8993230" lon="9.8270270">
	<ele>1751.00</ele>
	<time>2023-11-18T11:13:19.000Z</time>
</trkpt>
<trkpt lat="45.8993210" lon="9.8270390">
	<ele>1750.60</ele>
	<time>2023-11-18T11:13:20.000Z</time>
</trkpt>
<trkpt lat="45.8993240" lon="9.8270490">
	<ele>1750.40</ele>
	<time>2023-11-18T11:13:21.000Z</time>
</trkpt>
<trkpt lat="45.8993250" lon="9.8270600">
	<ele>1750.00</ele>
	<time>2023-11-18T11:13:22.000Z</time>
</trkpt>
<trkpt lat="45.8993140" lon="9.8270670">
	<ele>1749.60</ele>
	<time>2023-11-18T11:13:23.000Z</time>
</trkpt>
<trkpt lat="45.8993050" lon="9.8270820">
	<ele>1749.20</ele>
	<time>2023-11-18T11:13:24.000Z</time>
</trkpt>
<trkpt lat="45.8992970" lon="9.8270980">
	<ele>1749.00</ele>
	<time>2023-11-18T11:13:25.000Z</time>
</trkpt>
<trkpt lat="45.8992860" lon="9.8271130">
	<ele>1748.80</ele>
	<time>2023-11-18T11:13:26.000Z</time>
</trkpt>
<trkpt lat="45.8992740" lon="9.8271250">
	<ele>1748.80</ele>
	<time>2023-11-18T11:13:27.000Z</time>
</trkpt>
<trkpt lat="45.8992600" lon="9.8271290">
	<ele>1748.60</ele>
	<time>2023-11-18T11:13:28.000Z</time>
</trkpt>
<trkpt lat="45.8992510" lon="9.8271430">
	<ele>1748.60</ele>
	<time>2023-11-18T11:13:29.000Z</time>
</trkpt>
<trkpt lat="45.8992440" lon="9.8271550">
	<ele>1748.40</ele>
	<time>2023-11-18T11:13:30.000Z</time>
</trkpt>
<trkpt lat="45.8992440" lon="9.8271680">
	<ele>1748.40</ele>
	<time>2023-11-18T11:13:31.000Z</time>
</trkpt>
<trkpt lat="45.8992340" lon="9.8271710">
	<ele>1747.80</ele>
	<time>2023-11-18T11:13:32.000Z</time>
</trkpt>
<trkpt lat="45.8992200" lon="9.8271830">
	<ele>1747.40</ele>
	<time>2023-11-18T11:13:33.000Z</time>
</trkpt>
<trkpt lat="45.8992070" lon="9.8271890">
	<ele>1747.00</ele>
	<time>2023-11-18T11:13:34.000Z</time>
</trkpt>
<trkpt lat="45.8991990" lon="9.8271980">
	<ele>1746.80</ele>
	<time>2023-11-18T11:13:35.000Z</time>
</trkpt>
<trkpt lat="45.8991840" lon="9.8272030">
	<ele>1746.60</ele>
	<time>2023-11-18T11:13:36.000Z</time>
</trkpt>
<trkpt lat="45.8991710" lon="9.8271960">
	<ele>1747.00</ele>
	<time>2023-11-18T11:13:37.000Z</time>
</trkpt>
<trkpt lat="45.8991660" lon="9.8271950">
	<ele>1746.80</ele>
	<time>2023-11-18T11:13:38.000Z</time>
</trkpt>
<trkpt lat="45.8991590" lon="9.8271930">
	<ele>1746.60</ele>
	<time>2023-11-18T11:13:39.000Z</time>
</trkpt>
<trkpt lat="45.8991530" lon="9.8271920">
	<ele>1746.60</ele>
	<time>2023-11-18T11:13:40.000Z</time>
</trkpt>
<trkpt lat="45.8991500" lon="9.8271850">
	<ele>1746.40</ele>
	<time>2023-11-18T11:13:41.000Z</time>
</trkpt>
<trkpt lat="45.8991440" lon="9.8271820">
	<ele>1746.20</ele>
	<time>2023-11-18T11:13:42.000Z</time>
</trkpt>
<trkpt lat="45.8991370" lon="9.8271820">
	<ele>1746.20</ele>
	<time>2023-11-18T11:13:43.000Z</time>
</trkpt>
<trkpt lat="45.8991320" lon="9.8271820">
	<ele>1746.00</ele>
	<time>2023-11-18T11:13:44.000Z</time>
</trkpt>
<trkpt lat="45.8991230" lon="9.8271850">
	<ele>1745.80</ele>
	<time>2023-11-18T11:13:45.000Z</time>
</trkpt>
<trkpt lat="45.8991200" lon="9.8271920">
	<ele>1745.40</ele>
	<time>2023-11-18T11:13:46.000Z</time>
</trkpt>
<trkpt lat="45.8991110" lon="9.8271980">
	<ele>1745.00</ele>
	<time>2023-11-18T11:13:47.000Z</time>
</trkpt>
<trkpt lat="45.8991080" lon="9.8272020">
	<ele>1744.60</ele>
	<time>2023-11-18T11:13:48.000Z</time>
</trkpt>
<trkpt lat="45.8991020" lon="9.8272170">
	<ele>1744.20</ele>
	<time>2023-11-18T11:13:49.000Z</time>
</trkpt>
<trkpt lat="45.8991000" lon="9.8272270">
	<ele>1743.80</ele>
	<time>2023-11-18T11:13:50.000Z</time>
</trkpt>
<trkpt lat="45.8990860" lon="9.8272380">
	<ele>1743.60</ele>
	<time>2023-11-18T11:13:51.000Z</time>
</trkpt>
<trkpt lat="45.8990760" lon="9.8272520">
	<ele>1743.20</ele>
	<time>2023-11-18T11:13:52.000Z</time>
</trkpt>
<trkpt lat="45.8990700" lon="9.8272740">
	<ele>1743.20</ele>
	<time>2023-11-18T11:13:53.000Z</time>
</trkpt>
<trkpt lat="45.8990620" lon="9.8272900">
	<ele>1743.00</ele>
	<time>2023-11-18T11:13:54.000Z</time>
</trkpt>
<trkpt lat="45.8990540" lon="9.8273120">
	<ele>1742.80</ele>
	<time>2023-11-18T11:13:55.000Z</time>
</trkpt>
<trkpt lat="45.8990470" lon="9.8273350">
	<ele>1742.60</ele>
	<time>2023-11-18T11:13:56.000Z</time>
</trkpt>
<trkpt lat="45.8990420" lon="9.8273460">
	<ele>1742.60</ele>
	<time>2023-11-18T11:13:57.000Z</time>
</trkpt>
<trkpt lat="45.8990330" lon="9.8273560">
	<ele>1742.20</ele>
	<time>2023-11-18T11:13:58.000Z</time>
</trkpt>
<trkpt lat="45.8990220" lon="9.8273630">
	<ele>1742.00</ele>
	<time>2023-11-18T11:13:59.000Z</time>
</trkpt>
<trkpt lat="45.8990110" lon="9.8273750">
	<ele>1741.80</ele>
	<time>2023-11-18T11:14:00.000Z</time>
</trkpt>
<trkpt lat="45.8990040" lon="9.8273810">
	<ele>1741.60</ele>
	<time>2023-11-18T11:14:01.000Z</time>
</trkpt>
<trkpt lat="45.8989940" lon="9.8273860">
	<ele>1741.60</ele>
	<time>2023-11-18T11:14:02.000Z</time>
</trkpt>
<trkpt lat="45.8989870" lon="9.8273990">
	<ele>1741.40</ele>
	<time>2023-11-18T11:14:03.000Z</time>
</trkpt>
<trkpt lat="45.8989880" lon="9.8274160">
	<ele>1741.40</ele>
	<time>2023-11-18T11:14:04.000Z</time>
</trkpt>
<trkpt lat="45.8989800" lon="9.8274210">
	<ele>1741.40</ele>
	<time>2023-11-18T11:14:05.000Z</time>
</trkpt>
<trkpt lat="45.8989710" lon="9.8274280">
	<ele>1741.40</ele>
	<time>2023-11-18T11:14:06.000Z</time>
</trkpt>
<trkpt lat="45.8989630" lon="9.8274370">
	<ele>1741.40</ele>
	<time>2023-11-18T11:14:07.000Z</time>
</trkpt>
<trkpt lat="45.8989500" lon="9.8274430">
	<ele>1741.20</ele>
	<time>2023-11-18T11:14:08.000Z</time>
</trkpt>
<trkpt lat="45.8989340" lon="9.8274470">
	<ele>1741.00</ele>
	<time>2023-11-18T11:14:09.000Z</time>
</trkpt>
<trkpt lat="45.8989160" lon="9.8274490">
	<ele>1741.00</ele>
	<time>2023-11-18T11:14:10.000Z</time>
</trkpt>
<trkpt lat="45.8989050" lon="9.8274500">
	<ele>1740.80</ele>
	<time>2023-11-18T11:14:11.000Z</time>
</trkpt>
<trkpt lat="45.8988980" lon="9.8274560">
	<ele>1740.60</ele>
	<time>2023-11-18T11:14:12.000Z</time>
</trkpt>
<trkpt lat="45.8988850" lon="9.8274560">
	<ele>1740.40</ele>
	<time>2023-11-18T11:14:13.000Z</time>
</trkpt>
<trkpt lat="45.8988690" lon="9.8274610">
	<ele>1740.20</ele>
	<time>2023-11-18T11:14:14.000Z</time>
</trkpt>
<trkpt lat="45.8988550" lon="9.8274730">
	<ele>1740.20</ele>
	<time>2023-11-18T11:14:15.000Z</time>
</trkpt>
<trkpt lat="45.8988400" lon="9.8274820">
	<ele>1740.00</ele>
	<time>2023-11-18T11:14:16.000Z</time>
</trkpt>
<trkpt lat="45.8988330" lon="9.8274960">
	<ele>1739.60</ele>
	<time>2023-11-18T11:14:17.000Z</time>
</trkpt>
<trkpt lat="45.8988220" lon="9.8275100">
	<ele>1739.60</ele>
	<time>2023-11-18T11:14:18.000Z</time>
</trkpt>
<trkpt lat="45.8988140" lon="9.8275170">
	<ele>1739.40</ele>
	<time>2023-11-18T11:14:19.000Z</time>
</trkpt>
<trkpt lat="45.8988010" lon="9.8275220">
	<ele>1739.20</ele>
	<time>2023-11-18T11:14:20.000Z</time>
</trkpt>
<trkpt lat="45.8987880" lon="9.8275250">
	<ele>1739.20</ele>
	<time>2023-11-18T11:14:21.000Z</time>
</trkpt>
<trkpt lat="45.8987760" lon="9.8275320">
	<ele>1739.00</ele>
	<time>2023-11-18T11:14:22.000Z</time>
</trkpt>
<trkpt lat="45.8987640" lon="9.8275400">
	<ele>1739.00</ele>
	<time>2023-11-18T11:14:23.000Z</time>
</trkpt>
<trkpt lat="45.8987500" lon="9.8275430">
	<ele>1738.80</ele>
	<time>2023-11-18T11:14:24.000Z</time>
</trkpt>
<trkpt lat="45.8987350" lon="9.8275500">
	<ele>1738.60</ele>
	<time>2023-11-18T11:14:25.000Z</time>
</trkpt>
<trkpt lat="45.8987210" lon="9.8275530">
	<ele>1738.60</ele>
	<time>2023-11-18T11:14:26.000Z</time>
</trkpt>
<trkpt lat="45.8987100" lon="9.8275580">
	<ele>1738.40</ele>
	<time>2023-11-18T11:14:27.000Z</time>
</trkpt>
<trkpt lat="45.8987010" lon="9.8275620">
	<ele>1738.20</ele>
	<time>2023-11-18T11:14:28.000Z</time>
</trkpt>
<trkpt lat="45.8986930" lon="9.8275670">
	<ele>1738.00</ele>
	<time>2023-11-18T11:14:29.000Z</time>
</trkpt>
<trkpt lat="45.8986900" lon="9.8275750">
	<ele>1737.80</ele>
	<time>2023-11-18T11:14:30.000Z</time>
</trkpt>
<trkpt lat="45.8986880" lon="9.8275770">
	<ele>1737.80</ele>
	<time>2023-11-18T11:14:31.000Z</time>
</trkpt>
<trkpt lat="45.8986830" lon="9.8275830">
	<ele>1737.60</ele>
	<time>2023-11-18T11:14:32.000Z</time>
</trkpt>
<trkpt lat="45.8986730" lon="9.8275890">
	<ele>1737.60</ele>
	<time>2023-11-18T11:14:33.000Z</time>
</trkpt>
<trkpt lat="45.8986640" lon="9.8275970">
	<ele>1737.40</ele>
	<time>2023-11-18T11:14:34.000Z</time>
</trkpt>
<trkpt lat="45.8986580" lon="9.8276000">
	<ele>1737.20</ele>
	<time>2023-11-18T11:14:35.000Z</time>
</trkpt>
<trkpt lat="45.8986530" lon="9.8276020">
	<ele>1737.00</ele>
	<time>2023-11-18T11:14:36.000Z</time>
</trkpt>
<trkpt lat="45.8986450" lon="9.8276080">
	<ele>1736.80</ele>
	<time>2023-11-18T11:14:37.000Z</time>
</trkpt>
<trkpt lat="45.8986340" lon="9.8276140">
	<ele>1736.60</ele>
	<time>2023-11-18T11:14:38.000Z</time>
</trkpt>
<trkpt lat="45.8986250" lon="9.8276200">
	<ele>1736.40</ele>
	<time>2023-11-18T11:14:39.000Z</time>
</trkpt>
<trkpt lat="45.8986160" lon="9.8276230">
	<ele>1736.20</ele>
	<time>2023-11-18T11:14:40.000Z</time>
</trkpt>
<trkpt lat="45.8986080" lon="9.8276350">
	<ele>1735.80</ele>
	<time>2023-11-18T11:14:41.000Z</time>
</trkpt>
<trkpt lat="45.8986140" lon="9.8276430">
	<ele>1735.60</ele>
	<time>2023-11-18T11:14:42.000Z</time>
</trkpt>
<trkpt lat="45.8986050" lon="9.8276410">
	<ele>1735.40</ele>
	<time>2023-11-18T11:14:43.000Z</time>
</trkpt>
<trkpt lat="45.8985940" lon="9.8276360">
	<ele>1735.40</ele>
	<time>2023-11-18T11:14:44.000Z</time>
</trkpt>
<trkpt lat="45.8985930" lon="9.8276540">
	<ele>1735.20</ele>
	<time>2023-11-18T11:14:45.000Z</time>
</trkpt>
<trkpt lat="45.8985940" lon="9.8276530">
	<ele>1735.00</ele>
	<time>2023-11-18T11:14:46.000Z</time>
</trkpt>
<trkpt lat="45.8985990" lon="9.8276630">
	<ele>1734.80</ele>
	<time>2023-11-18T11:14:47.000Z</time>
</trkpt>
<trkpt lat="45.8985810" lon="9.8276690">
	<ele>1734.60</ele>
	<time>2023-11-18T11:14:48.000Z</time>
</trkpt>
<trkpt lat="45.8985640" lon="9.8276680">
	<ele>1734.60</ele>
	<time>2023-11-18T11:14:49.000Z</time>
</trkpt>
<trkpt lat="45.8985540" lon="9.8276670">
	<ele>1734.20</ele>
	<time>2023-11-18T11:14:50.000Z</time>
</trkpt>
<trkpt lat="45.8985460" lon="9.8276750">
	<ele>1734.00</ele>
	<time>2023-11-18T11:14:51.000Z</time>
</trkpt>
<trkpt lat="45.8985340" lon="9.8276810">
	<ele>1733.80</ele>
	<time>2023-11-18T11:14:52.000Z</time>
</trkpt>
<trkpt lat="45.8985240" lon="9.8276850">
	<ele>1733.60</ele>
	<time>2023-11-18T11:14:53.000Z</time>
</trkpt>
<trkpt lat="45.8985130" lon="9.8276840">
	<ele>1733.40</ele>
	<time>2023-11-18T11:14:54.000Z</time>
</trkpt>
<trkpt lat="45.8985000" lon="9.8276780">
	<ele>1733.40</ele>
	<time>2023-11-18T11:14:55.000Z</time>
</trkpt>
<trkpt lat="45.8984890" lon="9.8276720">
	<ele>1733.00</ele>
	<time>2023-11-18T11:14:56.000Z</time>
</trkpt>
<trkpt lat="45.8984840" lon="9.8276690">
	<ele>1733.00</ele>
	<time>2023-11-18T11:14:57.000Z</time>
</trkpt>
<trkpt lat="45.8984700" lon="9.8276690">
	<ele>1732.60</ele>
	<time>2023-11-18T11:14:58.000Z</time>
</trkpt>
<trkpt lat="45.8984620" lon="9.8276730">
	<ele>1732.40</ele>
	<time>2023-11-18T11:14:59.000Z</time>
</trkpt>
<trkpt lat="45.8984510" lon="9.8276760">
	<ele>1732.20</ele>
	<time>2023-11-18T11:15:00.000Z</time>
</trkpt>
<trkpt lat="45.8984400" lon="9.8276820">
	<ele>1732.00</ele>
	<time>2023-11-18T11:15:01.000Z</time>
</trkpt>
<trkpt lat="45.8984320" lon="9.8276840">
	<ele>1731.80</ele>
	<time>2023-11-18T11:15:02.000Z</time>
</trkpt>
<trkpt lat="45.8984180" lon="9.8276830">
	<ele>1731.40</ele>
	<time>2023-11-18T11:15:03.000Z</time>
</trkpt>
<trkpt lat="45.8984060" lon="9.8276850">
	<ele>1731.40</ele>
	<time>2023-11-18T11:15:04.000Z</time>
</trkpt>
<trkpt lat="45.8983890" lon="9.8276810">
	<ele>1731.20</ele>
	<time>2023-11-18T11:15:05.000Z</time>
</trkpt>
<trkpt lat="45.8983760" lon="9.8276800">
	<ele>1731.20</ele>
	<time>2023-11-18T11:15:06.000Z</time>
</trkpt>
<trkpt lat="45.8983660" lon="9.8276770">
	<ele>1731.20</ele>
	<time>2023-11-18T11:15:07.000Z</time>
</trkpt>
<trkpt lat="45.8983580" lon="9.8276740">
	<ele>1731.20</ele>
	<time>2023-11-18T11:15:08.000Z</time>
</trkpt>
<trkpt lat="45.8983560" lon="9.8276700">
	<ele>1731.20</ele>
	<time>2023-11-18T11:15:09.000Z</time>
</trkpt>
<trkpt lat="45.8983470" lon="9.8276690">
	<ele>1731.20</ele>
	<time>2023-11-18T11:15:10.000Z</time>
</trkpt>
<trkpt lat="45.8983320" lon="9.8276650">
	<ele>1731.00</ele>
	<time>2023-11-18T11:15:11.000Z</time>
</trkpt>
<trkpt lat="45.8983190" lon="9.8276660">
	<ele>1731.00</ele>
	<time>2023-11-18T11:15:12.000Z</time>
</trkpt>
<trkpt lat="45.8983080" lon="9.8276660">
	<ele>1730.80</ele>
	<time>2023-11-18T11:15:13.000Z</time>
</trkpt>
<trkpt lat="45.8982980" lon="9.8276670">
	<ele>1730.60</ele>
	<time>2023-11-18T11:15:14.000Z</time>
</trkpt>
<trkpt lat="45.8982940" lon="9.8276690">
	<ele>1730.40</ele>
	<time>2023-11-18T11:15:15.000Z</time>
</trkpt>
<trkpt lat="45.8982890" lon="9.8276700">
	<ele>1730.20</ele>
	<time>2023-11-18T11:15:16.000Z</time>
</trkpt>
<trkpt lat="45.8982880" lon="9.8276690">
	<ele>1730.00</ele>
	<time>2023-11-18T11:15:17.000Z</time>
</trkpt>
<trkpt lat="45.8982840" lon="9.8276680">
	<ele>1729.80</ele>
	<time>2023-11-18T11:15:18.000Z</time>
</trkpt>
<trkpt lat="45.8982800" lon="9.8276650">
	<ele>1729.80</ele>
	<time>2023-11-18T11:15:19.000Z</time>
</trkpt>
<trkpt lat="45.8982720" lon="9.8276640">
	<ele>1729.80</ele>
	<time>2023-11-18T11:15:20.000Z</time>
</trkpt>
<trkpt lat="45.8982620" lon="9.8276660">
	<ele>1729.60</ele>
	<time>2023-11-18T11:15:21.000Z</time>
</trkpt>
<trkpt lat="45.8982520" lon="9.8276680">
	<ele>1729.60</ele>
	<time>2023-11-18T11:15:22.000Z</time>
</trkpt>
<trkpt lat="45.8982450" lon="9.8276720">
	<ele>1729.60</ele>
	<time>2023-11-18T11:15:23.000Z</time>
</trkpt>
<trkpt lat="45.8982420" lon="9.8276790">
	<ele>1729.40</ele>
	<time>2023-11-18T11:15:24.000Z</time>
</trkpt>
<trkpt lat="45.8982350" lon="9.8276890">
	<ele>1729.40</ele>
	<time>2023-11-18T11:15:25.000Z</time>
</trkpt>
<trkpt lat="45.8982300" lon="9.8276980">
	<ele>1729.20</ele>
	<time>2023-11-18T11:15:26.000Z</time>
</trkpt>
<trkpt lat="45.8982250" lon="9.8277080">
	<ele>1729.00</ele>
	<time>2023-11-18T11:15:27.000Z</time>
</trkpt>
<trkpt lat="45.8982190" lon="9.8277170">
	<ele>1729.00</ele>
	<time>2023-11-18T11:15:28.000Z</time>
</trkpt>
<trkpt lat="45.8982090" lon="9.8277230">
	<ele>1729.00</ele>
	<time>2023-11-18T11:15:29.000Z</time>
</trkpt>
<trkpt lat="45.8981990" lon="9.8277290">
	<ele>1728.60</ele>
	<time>2023-11-18T11:15:30.000Z</time>
</trkpt>
<trkpt lat="45.8981890" lon="9.8277370">
	<ele>1728.40</ele>
	<time>2023-11-18T11:15:31.000Z</time>
</trkpt>
<trkpt lat="45.8981780" lon="9.8277490">
	<ele>1728.40</ele>
	<time>2023-11-18T11:15:32.000Z</time>
</trkpt>
<trkpt lat="45.8981700" lon="9.8277610">
	<ele>1728.00</ele>
	<time>2023-11-18T11:15:33.000Z</time>
</trkpt>
<trkpt lat="45.8981560" lon="9.8277630">
	<ele>1727.60</ele>
	<time>2023-11-18T11:15:34.000Z</time>
</trkpt>
<trkpt lat="45.8981450" lon="9.8277650">
	<ele>1727.40</ele>
	<time>2023-11-18T11:15:35.000Z</time>
</trkpt>
<trkpt lat="45.8981360" lon="9.8277690">
	<ele>1727.40</ele>
	<time>2023-11-18T11:15:36.000Z</time>
</trkpt>
<trkpt lat="45.8981250" lon="9.8277720">
	<ele>1727.20</ele>
	<time>2023-11-18T11:15:37.000Z</time>
</trkpt>
<trkpt lat="45.8981140" lon="9.8277760">
	<ele>1727.20</ele>
	<time>2023-11-18T11:15:38.000Z</time>
</trkpt>
<trkpt lat="45.8981030" lon="9.8277850">
	<ele>1727.20</ele>
	<time>2023-11-18T11:15:39.000Z</time>
</trkpt>
<trkpt lat="45.8980940" lon="9.8277880">
	<ele>1727.20</ele>
	<time>2023-11-18T11:15:40.000Z</time>
</trkpt>
<trkpt lat="45.8980830" lon="9.8277930">
	<ele>1727.00</ele>
	<time>2023-11-18T11:15:41.000Z</time>
</trkpt>
<trkpt lat="45.8980700" lon="9.8277930">
	<ele>1726.80</ele>
	<time>2023-11-18T11:15:42.000Z</time>
</trkpt>
<trkpt lat="45.8980540" lon="9.8277940">
	<ele>1726.60</ele>
	<time>2023-11-18T11:15:43.000Z</time>
</trkpt>
<trkpt lat="45.8980390" lon="9.8277920">
	<ele>1726.60</ele>
	<time>2023-11-18T11:15:44.000Z</time>
</trkpt>
<trkpt lat="45.8980250" lon="9.8277870">
	<ele>1726.40</ele>
	<time>2023-11-18T11:15:45.000Z</time>
</trkpt>
<trkpt lat="45.8980100" lon="9.8277850">
	<ele>1726.20</ele>
	<time>2023-11-18T11:15:46.000Z</time>
</trkpt>
<trkpt lat="45.8979960" lon="9.8277850">
	<ele>1726.20</ele>
	<time>2023-11-18T11:15:47.000Z</time>
</trkpt>
<trkpt lat="45.8979860" lon="9.8277880">
	<ele>1726.00</ele>
	<time>2023-11-18T11:15:48.000Z</time>
</trkpt>
<trkpt lat="45.8979720" lon="9.8277920">
	<ele>1726.00</ele>
	<time>2023-11-18T11:15:49.000Z</time>
</trkpt>
<trkpt lat="45.8979620" lon="9.8277910">
	<ele>1725.80</ele>
	<time>2023-11-18T11:15:50.000Z</time>
</trkpt>
<trkpt lat="45.8979540" lon="9.8277930">
	<ele>1725.60</ele>
	<time>2023-11-18T11:15:51.000Z</time>
</trkpt>
<trkpt lat="45.8979470" lon="9.8277960">
	<ele>1725.60</ele>
	<time>2023-11-18T11:15:52.000Z</time>
</trkpt>
<trkpt lat="45.8979390" lon="9.8277970">
	<ele>1725.40</ele>
	<time>2023-11-18T11:15:53.000Z</time>
</trkpt>
<trkpt lat="45.8979300" lon="9.8277970">
	<ele>1725.00</ele>
	<time>2023-11-18T11:15:54.000Z</time>
</trkpt>
<trkpt lat="45.8979260" lon="9.8277980">
	<ele>1724.80</ele>
	<time>2023-11-18T11:15:55.000Z</time>
</trkpt>
<trkpt lat="45.8979230" lon="9.8277970">
	<ele>1724.60</ele>
	<time>2023-11-18T11:15:56.000Z</time>
</trkpt>
<trkpt lat="45.8979210" lon="9.8277970">
	<ele>1724.20</ele>
	<time>2023-11-18T11:15:57.000Z</time>
</trkpt>
<trkpt lat="45.8979200" lon="9.8277950">
	<ele>1724.00</ele>
	<time>2023-11-18T11:15:58.000Z</time>
</trkpt>
<trkpt lat="45.8979200" lon="9.8277940">
	<ele>1724.00</ele>
	<time>2023-11-18T11:15:59.000Z</time>
</trkpt>
<trkpt lat="45.8979200" lon="9.8277940">
	<ele>1723.80</ele>
	<time>2023-11-18T11:16:00.000Z</time>
</trkpt>
<trkpt lat="45.8979190" lon="9.8277940">
	<ele>1723.80</ele>
	<time>2023-11-18T11:16:01.000Z</time>
</trkpt>
<trkpt lat="45.8979200" lon="9.8277930">
	<ele>1723.60</ele>
	<time>2023-11-18T11:16:02.000Z</time>
</trkpt>
<trkpt lat="45.8979210" lon="9.8277960">
	<ele>1723.80</ele>
	<time>2023-11-18T11:16:03.000Z</time>
</trkpt>
<trkpt lat="45.8979230" lon="9.8277980">
	<ele>1723.80</ele>
	<time>2023-11-18T11:16:04.000Z</time>
</trkpt>
<trkpt lat="45.8979230" lon="9.8278000">
	<ele>1723.80</ele>
	<time>2023-11-18T11:16:05.000Z</time>
</trkpt>
<trkpt lat="45.8979230" lon="9.8278000">
	<ele>1723.80</ele>
	<time>2023-11-18T11:16:06.000Z</time>
</trkpt>
<trkpt lat="45.8979230" lon="9.8278000">
	<ele>1724.00</ele>
	<time>2023-11-18T11:16:07.000Z</time>
</trkpt>
<trkpt lat="45.8979230" lon="9.8278000">
	<ele>1724.00</ele>
	<time>2023-11-18T11:16:08.000Z</time>
</trkpt>
<trkpt lat="45.8979230" lon="9.8278000">
	<ele>1724.00</ele>
	<time>2023-11-18T11:16:09.000Z</time>
</trkpt>
<trkpt lat="45.8979230" lon="9.8278000">
	<ele>1724.20</ele>
	<time>2023-11-18T11:16:10.000Z</time>
</trkpt>
<trkpt lat="45.8979230" lon="9.8278000">
	<ele>1724.20</ele>
	<time>2023-11-18T11:16:11.000Z</time>
</trkpt>
<trkpt lat="45.8979230" lon="9.8278000">
	<ele>1724.20</ele>
	<time>2023-11-18T11:16:12.000Z</time>
</trkpt>
<trkpt lat="45.8979230" lon="9.8278000">
	<ele>1724.00</ele>
	<time>2023-11-18T11:16:13.000Z</time>
</trkpt>
<trkpt lat="45.8979230" lon="9.8278000">
	<ele>1724.00</ele>
	<time>2023-11-18T11:16:14.000Z</time>
</trkpt>
<trkpt lat="45.8979230" lon="9.8278000">
	<ele>1724.00</ele>
	<time>2023-11-18T11:16:15.000Z</time>
</trkpt>
<trkpt lat="45.8979230" lon="9.8278000">
	<ele>1723.80</ele>
	<time>2023-11-18T11:16:16.000Z</time>
</trkpt>
<trkpt lat="45.8979230" lon="9.8278000">
	<ele>1723.80</ele>
	<time>2023-11-18T11:16:17.000Z</time>
</trkpt>
<trkpt lat="45.8979210" lon="9.8278030">
	<ele>1723.80</ele>
	<time>2023-11-18T11:16:18.000Z</time>
</trkpt>
<trkpt lat="45.8979140" lon="9.8278210">
	<ele>1723.80</ele>
	<time>2023-11-18T11:16:19.000Z</time>
</trkpt>
<trkpt lat="45.8979090" lon="9.8278360">
	<ele>1723.60</ele>
	<time>2023-11-18T11:16:20.000Z</time>
</trkpt>
<trkpt lat="45.8979010" lon="9.8278520">
	<ele>1723.60</ele>
	<time>2023-11-18T11:16:21.000Z</time>
</trkpt>
<trkpt lat="45.8978960" lon="9.8278660">
	<ele>1723.40</ele>
	<time>2023-11-18T11:16:22.000Z</time>
</trkpt>
<trkpt lat="45.8978910" lon="9.8278780">
	<ele>1723.20</ele>
	<time>2023-11-18T11:16:23.000Z</time>
</trkpt>
<trkpt lat="45.8978860" lon="9.8278920">
	<ele>1722.80</ele>
	<time>2023-11-18T11:16:24.000Z</time>
</trkpt>
<trkpt lat="45.8978800" lon="9.8279080">
	<ele>1722.80</ele>
	<time>2023-11-18T11:16:25.000Z</time>
</trkpt>
<trkpt lat="45.8978760" lon="9.8279200">
	<ele>1722.60</ele>
	<time>2023-11-18T11:16:26.000Z</time>
</trkpt>
<trkpt lat="45.8978700" lon="9.8279340">
	<ele>1722.40</ele>
	<time>2023-11-18T11:16:27.000Z</time>
</trkpt>
<trkpt lat="45.8978670" lon="9.8279430">
	<ele>1722.20</ele>
	<time>2023-11-18T11:16:28.000Z</time>
</trkpt>
<trkpt lat="45.8978610" lon="9.8279520">
	<ele>1722.00</ele>
	<time>2023-11-18T11:16:29.000Z</time>
</trkpt>
<trkpt lat="45.8978550" lon="9.8279560">
	<ele>1721.60</ele>
	<time>2023-11-18T11:16:30.000Z</time>
</trkpt>
<trkpt lat="45.8978470" lon="9.8279550">
	<ele>1721.40</ele>
	<time>2023-11-18T11:16:31.000Z</time>
</trkpt>
<trkpt lat="45.8978400" lon="9.8279530">
	<ele>1721.20</ele>
	<time>2023-11-18T11:16:32.000Z</time>
</trkpt>
<trkpt lat="45.8978340" lon="9.8279520">
	<ele>1721.00</ele>
	<time>2023-11-18T11:16:33.000Z</time>
</trkpt>
<trkpt lat="45.8978230" lon="9.8279540">
	<ele>1720.80</ele>
	<time>2023-11-18T11:16:34.000Z</time>
</trkpt>
<trkpt lat="45.8978120" lon="9.8279580">
	<ele>1720.60</ele>
	<time>2023-11-18T11:16:35.000Z</time>
</trkpt>
<trkpt lat="45.8978030" lon="9.8279630">
	<ele>1720.40</ele>
	<time>2023-11-18T11:16:36.000Z</time>
</trkpt>
<trkpt lat="45.8977940" lon="9.8279690">
	<ele>1720.20</ele>
	<time>2023-11-18T11:16:37.000Z</time>
</trkpt>
<trkpt lat="45.8977880" lon="9.8279720">
	<ele>1720.00</ele>
	<time>2023-11-18T11:16:38.000Z</time>
</trkpt>
<trkpt lat="45.8977800" lon="9.8279750">
	<ele>1719.80</ele>
	<time>2023-11-18T11:16:39.000Z</time>
</trkpt>
<trkpt lat="45.8977680" lon="9.8279810">
	<ele>1719.40</ele>
	<time>2023-11-18T11:16:40.000Z</time>
</trkpt>
<trkpt lat="45.8977520" lon="9.8279870">
	<ele>1719.00</ele>
	<time>2023-11-18T11:16:41.000Z</time>
</trkpt>
<trkpt lat="45.8977390" lon="9.8279990">
	<ele>1718.80</ele>
	<time>2023-11-18T11:16:42.000Z</time>
</trkpt>
<trkpt lat="45.8977290" lon="9.8280130">
	<ele>1718.60</ele>
	<time>2023-11-18T11:16:43.000Z</time>
</trkpt>
<trkpt lat="45.8977220" lon="9.8280260">
	<ele>1718.40</ele>
	<time>2023-11-18T11:16:44.000Z</time>
</trkpt>
<trkpt lat="45.8977150" lon="9.8280360">
	<ele>1718.20</ele>
	<time>2023-11-18T11:16:45.000Z</time>
</trkpt>
<trkpt lat="45.8977050" lon="9.8280460">
	<ele>1718.00</ele>
	<time>2023-11-18T11:16:46.000Z</time>
</trkpt>
<trkpt lat="45.8976940" lon="9.8280560">
	<ele>1718.00</ele>
	<time>2023-11-18T11:16:47.000Z</time>
</trkpt>
<trkpt lat="45.8976860" lon="9.8280670">
	<ele>1718.00</ele>
	<time>2023-11-18T11:16:48.000Z</time>
</trkpt>
<trkpt lat="45.8976770" lon="9.8280760">
	<ele>1717.60</ele>
	<time>2023-11-18T11:16:49.000Z</time>
</trkpt>
<trkpt lat="45.8976690" lon="9.8280860">
	<ele>1717.40</ele>
	<time>2023-11-18T11:16:50.000Z</time>
</trkpt>
<trkpt lat="45.8976600" lon="9.8280970">
	<ele>1717.20</ele>
	<time>2023-11-18T11:16:51.000Z</time>
</trkpt>
<trkpt lat="45.8976550" lon="9.8280980">
	<ele>1717.20</ele>
	<time>2023-11-18T11:16:52.000Z</time>
</trkpt>
<trkpt lat="45.8976490" lon="9.8280940">
	<ele>1717.00</ele>
	<time>2023-11-18T11:16:53.000Z</time>
</trkpt>
<trkpt lat="45.8976420" lon="9.8280870">
	<ele>1717.00</ele>
	<time>2023-11-18T11:16:54.000Z</time>
</trkpt>
<trkpt lat="45.8976350" lon="9.8280890">
	<ele>1716.80</ele>
	<time>2023-11-18T11:16:55.000Z</time>
</trkpt>
<trkpt lat="45.8976300" lon="9.8280990">
	<ele>1716.80</ele>
	<time>2023-11-18T11:16:56.000Z</time>
</trkpt>
<trkpt lat="45.8976210" lon="9.8281080">
	<ele>1716.60</ele>
	<time>2023-11-18T11:16:57.000Z</time>
</trkpt>
<trkpt lat="45.8976090" lon="9.8281140">
	<ele>1716.40</ele>
	<time>2023-11-18T11:16:58.000Z</time>
</trkpt>
<trkpt lat="45.8975970" lon="9.8281200">
	<ele>1716.20</ele>
	<time>2023-11-18T11:16:59.000Z</time>
</trkpt>
<trkpt lat="45.8975860" lon="9.8281250">
	<ele>1716.00</ele>
	<time>2023-11-18T11:17:00.000Z</time>
</trkpt>
<trkpt lat="45.8975760" lon="9.8281310">
	<ele>1716.00</ele>
	<time>2023-11-18T11:17:01.000Z</time>
</trkpt>
<trkpt lat="45.8975660" lon="9.8281400">
	<ele>1715.80</ele>
	<time>2023-11-18T11:17:02.000Z</time>
</trkpt>
<trkpt lat="45.8975580" lon="9.8281450">
	<ele>1715.60</ele>
	<time>2023-11-18T11:17:03.000Z</time>
</trkpt>
<trkpt lat="45.8975510" lon="9.8281460">
	<ele>1715.60</ele>
	<time>2023-11-18T11:17:04.000Z</time>
</trkpt>
<trkpt lat="45.8975420" lon="9.8281520">
	<ele>1715.40</ele>
	<time>2023-11-18T11:17:05.000Z</time>
</trkpt>
<trkpt lat="45.8975350" lon="9.8281550">
	<ele>1715.20</ele>
	<time>2023-11-18T11:17:06.000Z</time>
</trkpt>
<trkpt lat="45.8975280" lon="9.8281570">
	<ele>1715.00</ele>
	<time>2023-11-18T11:17:07.000Z</time>
</trkpt>
<trkpt lat="45.8975230" lon="9.8281620">
	<ele>1714.60</ele>
	<time>2023-11-18T11:17:08.000Z</time>
</trkpt>
<trkpt lat="45.8975170" lon="9.8281670">
	<ele>1714.40</ele>
	<time>2023-11-18T11:17:09.000Z</time>
</trkpt>
<trkpt lat="45.8975090" lon="9.8281700">
	<ele>1714.40</ele>
	<time>2023-11-18T11:17:10.000Z</time>
</trkpt>
<trkpt lat="45.8974970" lon="9.8281700">
	<ele>1714.20</ele>
	<time>2023-11-18T11:17:11.000Z</time>
</trkpt>
<trkpt lat="45.8974840" lon="9.8281690">
	<ele>1714.20</ele>
	<time>2023-11-18T11:17:12.000Z</time>
</trkpt>
<trkpt lat="45.8974720" lon="9.8281670">
	<ele>1714.00</ele>
	<time>2023-11-18T11:17:13.000Z</time>
</trkpt>
<trkpt lat="45.8974590" lon="9.8281660">
	<ele>1713.80</ele>
	<time>2023-11-18T11:17:14.000Z</time>
</trkpt>
<trkpt lat="45.8974460" lon="9.8281650">
	<ele>1713.60</ele>
	<time>2023-11-18T11:17:15.000Z</time>
</trkpt>
<trkpt lat="45.8974380" lon="9.8281670">
	<ele>1713.40</ele>
	<time>2023-11-18T11:17:16.000Z</time>
</trkpt>
<trkpt lat="45.8974320" lon="9.8281740">
	<ele>1713.20</ele>
	<time>2023-11-18T11:17:17.000Z</time>
</trkpt>
<trkpt lat="45.8974230" lon="9.8281820">
	<ele>1713.00</ele>
	<time>2023-11-18T11:17:18.000Z</time>
</trkpt>
<trkpt lat="45.8974120" lon="9.8281840">
	<ele>1712.80</ele>
	<time>2023-11-18T11:17:19.000Z</time>
</trkpt>
<trkpt lat="45.8974000" lon="9.8281850">
	<ele>1712.80</ele>
	<time>2023-11-18T11:17:20.000Z</time>
</trkpt>
<trkpt lat="45.8973900" lon="9.8281890">
	<ele>1712.60</ele>
	<time>2023-11-18T11:17:21.000Z</time>
</trkpt>
<trkpt lat="45.8973800" lon="9.8281930">
	<ele>1712.60</ele>
	<time>2023-11-18T11:17:22.000Z</time>
</trkpt>
<trkpt lat="45.8973680" lon="9.8281940">
	<ele>1712.40</ele>
	<time>2023-11-18T11:17:23.000Z</time>
</trkpt>
<trkpt lat="45.8973530" lon="9.8281950">
	<ele>1712.40</ele>
	<time>2023-11-18T11:17:24.000Z</time>
</trkpt>
<trkpt lat="45.8973400" lon="9.8281990">
	<ele>1712.20</ele>
	<time>2023-11-18T11:17:25.000Z</time>
</trkpt>
<trkpt lat="45.8973300" lon="9.8282020">
	<ele>1712.00</ele>
	<time>2023-11-18T11:17:26.000Z</time>
</trkpt>
<trkpt lat="45.8973190" lon="9.8282020">
	<ele>1711.80</ele>
	<time>2023-11-18T11:17:27.000Z</time>
</trkpt>
<trkpt lat="45.8973080" lon="9.8282010">
	<ele>1711.60</ele>
	<time>2023-11-18T11:17:28.000Z</time>
</trkpt>
<trkpt lat="45.8973020" lon="9.8281980">
	<ele>1711.60</ele>
	<time>2023-11-18T11:17:29.000Z</time>
</trkpt>
<trkpt lat="45.8972950" lon="9.8282000">
	<ele>1711.20</ele>
	<time>2023-11-18T11:17:30.000Z</time>
</trkpt>
<trkpt lat="45.8972890" lon="9.8281990">
	<ele>1711.00</ele>
	<time>2023-11-18T11:17:31.000Z</time>
</trkpt>
<trkpt lat="45.8972850" lon="9.8281990">
	<ele>1710.80</ele>
	<time>2023-11-18T11:17:32.000Z</time>
</trkpt>
<trkpt lat="45.8972820" lon="9.8282030">
	<ele>1710.80</ele>
	<time>2023-11-18T11:17:33.000Z</time>
</trkpt>
<trkpt lat="45.8972760" lon="9.8282050">
	<ele>1710.60</ele>
	<time>2023-11-18T11:17:34.000Z</time>
</trkpt>
<trkpt lat="45.8972680" lon="9.8282160">
	<ele>1710.60</ele>
	<time>2023-11-18T11:17:35.000Z</time>
</trkpt>
<trkpt lat="45.8972620" lon="9.8282240">
	<ele>1710.40</ele>
	<time>2023-11-18T11:17:36.000Z</time>
</trkpt>
<trkpt lat="45.8972580" lon="9.8282300">
	<ele>1710.20</ele>
	<time>2023-11-18T11:17:37.000Z</time>
</trkpt>
<trkpt lat="45.8972480" lon="9.8282390">
	<ele>1710.00</ele>
	<time>2023-11-18T11:17:38.000Z</time>
</trkpt>
<trkpt lat="45.8972400" lon="9.8282510">
	<ele>1709.80</ele>
	<time>2023-11-18T11:17:39.000Z</time>
</trkpt>
<trkpt lat="45.8972320" lon="9.8282630">
	<ele>1709.80</ele>
	<time>2023-11-18T11:17:40.000Z</time>
</trkpt>
<trkpt lat="45.8972270" lon="9.8282750">
	<ele>1709.60</ele>
	<time>2023-11-18T11:17:41.000Z</time>
</trkpt>
<trkpt lat="45.8972220" lon="9.8282870">
	<ele>1709.40</ele>
	<time>2023-11-18T11:17:42.000Z</time>
</trkpt>
<trkpt lat="45.8972190" lon="9.8282990">
	<ele>1709.20</ele>
	<time>2023-11-18T11:17:43.000Z</time>
</trkpt>
<trkpt lat="45.8972130" lon="9.8283090">
	<ele>1709.00</ele>
	<time>2023-11-18T11:17:44.000Z</time>
</trkpt>
<trkpt lat="45.8972090" lon="9.8283200">
	<ele>1709.00</ele>
	<time>2023-11-18T11:17:45.000Z</time>
</trkpt>
<trkpt lat="45.8972050" lon="9.8283290">
	<ele>1709.00</ele>
	<time>2023-11-18T11:17:46.000Z</time>
</trkpt>
<trkpt lat="45.8971990" lon="9.8283380">
	<ele>1708.80</ele>
	<time>2023-11-18T11:17:47.000Z</time>
</trkpt>
<trkpt lat="45.8971900" lon="9.8283430">
	<ele>1708.80</ele>
	<time>2023-11-18T11:17:48.000Z</time>
</trkpt>
<trkpt lat="45.8971770" lon="9.8283470">
	<ele>1708.60</ele>
	<time>2023-11-18T11:17:49.000Z</time>
</trkpt>
<trkpt lat="45.8971680" lon="9.8283570">
	<ele>1708.40</ele>
	<time>2023-11-18T11:17:50.000Z</time>
</trkpt>
<trkpt lat="45.8971620" lon="9.8283670">
	<ele>1708.20</ele>
	<time>2023-11-18T11:17:51.000Z</time>
</trkpt>
<trkpt lat="45.8971590" lon="9.8283800">
	<ele>1708.00</ele>
	<time>2023-11-18T11:17:52.000Z</time>
</trkpt>
<trkpt lat="45.8971560" lon="9.8283920">
	<ele>1707.80</ele>
	<time>2023-11-18T11:17:53.000Z</time>
</trkpt>
<trkpt lat="45.8971520" lon="9.8284050">
	<ele>1707.80</ele>
	<time>2023-11-18T11:17:54.000Z</time>
</trkpt>
<trkpt lat="45.8971460" lon="9.8284180">
	<ele>1707.60</ele>
	<time>2023-11-18T11:17:55.000Z</time>
</trkpt>
<trkpt lat="45.8971430" lon="9.8284330">
	<ele>1707.60</ele>
	<time>2023-11-18T11:17:56.000Z</time>
</trkpt>
<trkpt lat="45.8971390" lon="9.8284480">
	<ele>1707.40</ele>
	<time>2023-11-18T11:17:57.000Z</time>
</trkpt>
<trkpt lat="45.8971360" lon="9.8284630">
	<ele>1707.40</ele>
	<time>2023-11-18T11:17:58.000Z</time>
</trkpt>
<trkpt lat="45.8971310" lon="9.8284770">
	<ele>1707.20</ele>
	<time>2023-11-18T11:17:59.000Z</time>
</trkpt>
<trkpt lat="45.8971210" lon="9.8284900">
	<ele>1706.80</ele>
	<time>2023-11-18T11:18:00.000Z</time>
</trkpt>
<trkpt lat="45.8971130" lon="9.8285020">
	<ele>1706.80</ele>
	<time>2023-11-18T11:18:01.000Z</time>
</trkpt>
<trkpt lat="45.8971050" lon="9.8285120">
	<ele>1706.60</ele>
	<time>2023-11-18T11:18:02.000Z</time>
</trkpt>
<trkpt lat="45.8971000" lon="9.8285270">
	<ele>1706.40</ele>
	<time>2023-11-18T11:18:03.000Z</time>
</trkpt>
<trkpt lat="45.8970970" lon="9.8285410">
	<ele>1706.20</ele>
	<time>2023-11-18T11:18:04.000Z</time>
</trkpt>
<trkpt lat="45.8970910" lon="9.8285510">
	<ele>1706.00</ele>
	<time>2023-11-18T11:18:05.000Z</time>
</trkpt>
<trkpt lat="45.8970840" lon="9.8285610">
	<ele>1705.80</ele>
	<time>2023-11-18T11:18:06.000Z</time>
</trkpt>
<trkpt lat="45.8970780" lon="9.8285690">
	<ele>1705.80</ele>
	<time>2023-11-18T11:18:07.000Z</time>
</trkpt>
<trkpt lat="45.8970710" lon="9.8285770">
	<ele>1705.60</ele>
	<time>2023-11-18T11:18:08.000Z</time>
</trkpt>
<trkpt lat="45.8970670" lon="9.8285810">
	<ele>1705.60</ele>
	<time>2023-11-18T11:18:09.000Z</time>
</trkpt>
<trkpt lat="45.8970630" lon="9.8285850">
	<ele>1705.40</ele>
	<time>2023-11-18T11:18:10.000Z</time>
</trkpt>
<trkpt lat="45.8970550" lon="9.8285890">
	<ele>1705.40</ele>
	<time>2023-11-18T11:18:11.000Z</time>
</trkpt>
<trkpt lat="45.8970440" lon="9.8285950">
	<ele>1705.40</ele>
	<time>2023-11-18T11:18:12.000Z</time>
</trkpt>
<trkpt lat="45.8970370" lon="9.8286060">
	<ele>1705.00</ele>
	<time>2023-11-18T11:18:13.000Z</time>
</trkpt>
<trkpt lat="45.8970290" lon="9.8286160">
	<ele>1704.80</ele>
	<time>2023-11-18T11:18:14.000Z</time>
</trkpt>
<trkpt lat="45.8970200" lon="9.8286250">
	<ele>1704.80</ele>
	<time>2023-11-18T11:18:15.000Z</time>
</trkpt>
<trkpt lat="45.8970110" lon="9.8286380">
	<ele>1704.60</ele>
	<time>2023-11-18T11:18:16.000Z</time>
</trkpt>
<trkpt lat="45.8970050" lon="9.8286510">
	<ele>1704.40</ele>
	<time>2023-11-18T11:18:17.000Z</time>
</trkpt>
<trkpt lat="45.8970020" lon="9.8286610">
	<ele>1704.20</ele>
	<time>2023-11-18T11:18:18.000Z</time>
</trkpt>
<trkpt lat="45.8969950" lon="9.8286670">
	<ele>1704.20</ele>
	<time>2023-11-18T11:18:19.000Z</time>
</trkpt>
<trkpt lat="45.8969870" lon="9.8286760">
	<ele>1704.20</ele>
	<time>2023-11-18T11:18:20.000Z</time>
</trkpt>
<trkpt lat="45.8969810" lon="9.8286860">
	<ele>1704.20</ele>
	<time>2023-11-18T11:18:21.000Z</time>
</trkpt>
<trkpt lat="45.8969720" lon="9.8286910">
	<ele>1704.20</ele>
	<time>2023-11-18T11:18:22.000Z</time>
</trkpt>
<trkpt lat="45.8969620" lon="9.8286980">
	<ele>1704.20</ele>
	<time>2023-11-18T11:18:23.000Z</time>
</trkpt>
<trkpt lat="45.8969550" lon="9.8287050">
	<ele>1704.00</ele>
	<time>2023-11-18T11:18:24.000Z</time>
</trkpt>
<trkpt lat="45.8969490" lon="9.8287130">
	<ele>1704.00</ele>
	<time>2023-11-18T11:18:25.000Z</time>
</trkpt>
<trkpt lat="45.8969440" lon="9.8287200">
	<ele>1703.80</ele>
	<time>2023-11-18T11:18:26.000Z</time>
</trkpt>
<trkpt lat="45.8969370" lon="9.8287230">
	<ele>1703.60</ele>
	<time>2023-11-18T11:18:27.000Z</time>
</trkpt>
<trkpt lat="45.8969300" lon="9.8287280">
	<ele>1703.40</ele>
	<time>2023-11-18T11:18:28.000Z</time>
</trkpt>
<trkpt lat="45.8969240" lon="9.8287290">
	<ele>1703.40</ele>
	<time>2023-11-18T11:18:29.000Z</time>
</trkpt>
<trkpt lat="45.8969200" lon="9.8287390">
	<ele>1703.20</ele>
	<time>2023-11-18T11:18:30.000Z</time>
</trkpt>
<trkpt lat="45.8969130" lon="9.8287470">
	<ele>1703.00</ele>
	<time>2023-11-18T11:18:31.000Z</time>
</trkpt>
<trkpt lat="45.8969010" lon="9.8287550">
	<ele>1702.80</ele>
	<time>2023-11-18T11:18:32.000Z</time>
</trkpt>
<trkpt lat="45.8968900" lon="9.8287630">
	<ele>1702.60</ele>
	<time>2023-11-18T11:18:33.000Z</time>
</trkpt>
<trkpt lat="45.8968800" lon="9.8287680">
	<ele>1702.60</ele>
	<time>2023-11-18T11:18:34.000Z</time>
</trkpt>
<trkpt lat="45.8968670" lon="9.8287700">
	<ele>1702.40</ele>
	<time>2023-11-18T11:18:35.000Z</time>
</trkpt>
<trkpt lat="45.8968570" lon="9.8287710">
	<ele>1702.20</ele>
	<time>2023-11-18T11:18:36.000Z</time>
</trkpt>
<trkpt lat="45.8968470" lon="9.8287710">
	<ele>1702.00</ele>
	<time>2023-11-18T11:18:37.000Z</time>
</trkpt>
<trkpt lat="45.8968360" lon="9.8287690">
	<ele>1701.80</ele>
	<time>2023-11-18T11:18:38.000Z</time>
</trkpt>
<trkpt lat="45.8968240" lon="9.8287690">
	<ele>1701.40</ele>
	<time>2023-11-18T11:18:39.000Z</time>
</trkpt>
<trkpt lat="45.8968120" lon="9.8287720">
	<ele>1701.20</ele>
	<time>2023-11-18T11:18:40.000Z</time>
</trkpt>
<trkpt lat="45.8967970" lon="9.8287730">
	<ele>1701.00</ele>
	<time>2023-11-18T11:18:41.000Z</time>
</trkpt>
<trkpt lat="45.8967820" lon="9.8287750">
	<ele>1701.00</ele>
	<time>2023-11-18T11:18:42.000Z</time>
</trkpt>
<trkpt lat="45.8967680" lon="9.8287760">
	<ele>1700.80</ele>
	<time>2023-11-18T11:18:43.000Z</time>
</trkpt>
<trkpt lat="45.8967580" lon="9.8287790">
	<ele>1700.80</ele>
	<time>2023-11-18T11:18:44.000Z</time>
</trkpt>
<trkpt lat="45.8967470" lon="9.8287830">
	<ele>1700.80</ele>
	<time>2023-11-18T11:18:45.000Z</time>
</trkpt>
<trkpt lat="45.8967390" lon="9.8287870">
	<ele>1700.80</ele>
	<time>2023-11-18T11:18:46.000Z</time>
</trkpt>
<trkpt lat="45.8967320" lon="9.8287910">
	<ele>1700.80</ele>
	<time>2023-11-18T11:18:47.000Z</time>
</trkpt>
<trkpt lat="45.8967230" lon="9.8287940">
	<ele>1700.60</ele>
	<time>2023-11-18T11:18:48.000Z</time>
</trkpt>
<trkpt lat="45.8967100" lon="9.8287940">
	<ele>1700.60</ele>
	<time>2023-11-18T11:18:49.000Z</time>
</trkpt>
<trkpt lat="45.8966970" lon="9.8287890">
	<ele>1700.40</ele>
	<time>2023-11-18T11:18:50.000Z</time>
</trkpt>
<trkpt lat="45.8966840" lon="9.8287860">
	<ele>1700.40</ele>
	<time>2023-11-18T11:18:51.000Z</time>
</trkpt>
<trkpt lat="45.8966750" lon="9.8287820">
	<ele>1700.40</ele>
	<time>2023-11-18T11:18:52.000Z</time>
</trkpt>
<trkpt lat="45.8966680" lon="9.8287810">
	<ele>1700.40</ele>
	<time>2023-11-18T11:18:53.000Z</time>
</trkpt>
<trkpt lat="45.8966630" lon="9.8287800">
	<ele>1700.40</ele>
	<time>2023-11-18T11:18:54.000Z</time>
</trkpt>
<trkpt lat="45.8966620" lon="9.8287770">
	<ele>1700.40</ele>
	<time>2023-11-18T11:18:55.000Z</time>
</trkpt>
<trkpt lat="45.8966610" lon="9.8287770">
	<ele>1700.20</ele>
	<time>2023-11-18T11:18:56.000Z</time>
</trkpt>
<trkpt lat="45.8966590" lon="9.8287770">
	<ele>1700.20</ele>
	<time>2023-11-18T11:18:57.000Z</time>
</trkpt>
<trkpt lat="45.8966570" lon="9.8287750">
	<ele>1700.40</ele>
	<time>2023-11-18T11:18:58.000Z</time>
</trkpt>
<trkpt lat="45.8966560" lon="9.8287750">
	<ele>1700.40</ele>
	<time>2023-11-18T11:18:59.000Z</time>
</trkpt>
<trkpt lat="45.8966550" lon="9.8287780">
	<ele>1700.40</ele>
	<time>2023-11-18T11:19:00.000Z</time>
</trkpt>
<trkpt lat="45.8966560" lon="9.8287810">
	<ele>1700.40</ele>
	<time>2023-11-18T11:19:01.000Z</time>
</trkpt>
<trkpt lat="45.8966560" lon="9.8287820">
	<ele>1700.40</ele>
	<time>2023-11-18T11:19:02.000Z</time>
</trkpt>
<trkpt lat="45.8966570" lon="9.8287840">
	<ele>1700.40</ele>
	<time>2023-11-18T11:19:03.000Z</time>
</trkpt>
<trkpt lat="45.8966560" lon="9.8287830">
	<ele>1700.40</ele>
	<time>2023-11-18T11:19:04.000Z</time>
</trkpt>
<trkpt lat="45.8966570" lon="9.8287820">
	<ele>1700.40</ele>
	<time>2023-11-18T11:19:05.000Z</time>
</trkpt>
<trkpt lat="45.8966570" lon="9.8287820">
	<ele>1700.40</ele>
	<time>2023-11-18T11:19:06.000Z</time>
</trkpt>
<trkpt lat="45.8966570" lon="9.8287820">
	<ele>1700.40</ele>
	<time>2023-11-18T11:19:07.000Z</time>
</trkpt>
<trkpt lat="45.8966570" lon="9.8287820">
	<ele>1700.40</ele>
	<time>2023-11-18T11:19:08.000Z</time>
</trkpt>
<trkpt lat="45.8966570" lon="9.8287820">
	<ele>1700.20</ele>
	<time>2023-11-18T11:19:09.000Z</time>
</trkpt>
<trkpt lat="45.8966570" lon="9.8287820">
	<ele>1700.20</ele>
	<time>2023-11-18T11:19:10.000Z</time>
</trkpt>
<trkpt lat="45.8966570" lon="9.8287820">
	<ele>1700.00</ele>
	<time>2023-11-18T11:19:11.000Z</time>
</trkpt>
<trkpt lat="45.8966570" lon="9.8287820">
	<ele>1700.00</ele>
	<time>2023-11-18T11:19:12.000Z</time>
</trkpt>
<trkpt lat="45.8966570" lon="9.8287820">
	<ele>1700.00</ele>
	<time>2023-11-18T11:19:13.000Z</time>
</trkpt>
<trkpt lat="45.8966570" lon="9.8287820">
	<ele>1700.00</ele>
	<time>2023-11-18T11:19:14.000Z</time>
</trkpt>
<trkpt lat="45.8966570" lon="9.8287820">
	<ele>1700.00</ele>
	<time>2023-11-18T11:19:15.000Z</time>
</trkpt>
<trkpt lat="45.8966570" lon="9.8287820">
	<ele>1700.00</ele>
	<time>2023-11-18T11:19:16.000Z</time>
</trkpt>
<trkpt lat="45.8966560" lon="9.8287820">
	<ele>1700.00</ele>
	<time>2023-11-18T11:19:17.000Z</time>
</trkpt>
<trkpt lat="45.8966560" lon="9.8287820">
	<ele>1700.00</ele>
	<time>2023-11-18T11:19:18.000Z</time>
</trkpt>
<trkpt lat="45.8966560" lon="9.8287820">
	<ele>1700.00</ele>
	<time>2023-11-18T11:19:19.000Z</time>
</trkpt>
<trkpt lat="45.8966560" lon="9.8287820">
	<ele>1699.80</ele>
	<time>2023-11-18T11:19:20.000Z</time>
</trkpt>
<trkpt lat="45.8966550" lon="9.8287810">
	<ele>1699.80</ele>
	<time>2023-11-18T11:19:21.000Z</time>
</trkpt>
<trkpt lat="45.8966540" lon="9.8287810">
	<ele>1699.80</ele>
	<time>2023-11-18T11:19:22.000Z</time>
</trkpt>
<trkpt lat="45.8966510" lon="9.8287810">
	<ele>1699.80</ele>
	<time>2023-11-18T11:19:23.000Z</time>
</trkpt>
<trkpt lat="45.8966480" lon="9.8287810">
	<ele>1699.80</ele>
	<time>2023-11-18T11:19:24.000Z</time>
</trkpt>
<trkpt lat="45.8966440" lon="9.8287810">
	<ele>1699.80</ele>
	<time>2023-11-18T11:19:25.000Z</time>
</trkpt>
<trkpt lat="45.8966410" lon="9.8287810">
	<ele>1699.80</ele>
	<time>2023-11-18T11:19:26.000Z</time>
</trkpt>
<trkpt lat="45.8966400" lon="9.8287810">
	<ele>1699.80</ele>
	<time>2023-11-18T11:19:27.000Z</time>
</trkpt>
<trkpt lat="45.8966370" lon="9.8287810">
	<ele>1699.80</ele>
	<time>2023-11-18T11:19:28.000Z</time>
</trkpt>
<trkpt lat="45.8966330" lon="9.8287810">
	<ele>1700.00</ele>
	<time>2023-11-18T11:19:29.000Z</time>
</trkpt>
<trkpt lat="45.8966310" lon="9.8287810">
	<ele>1700.00</ele>
	<time>2023-11-18T11:19:30.000Z</time>
</trkpt>
<trkpt lat="45.8966300" lon="9.8287810">
	<ele>1700.20</ele>
	<time>2023-11-18T11:19:31.000Z</time>
</trkpt>
<trkpt lat="45.8966290" lon="9.8287810">
	<ele>1700.20</ele>
	<time>2023-11-18T11:19:32.000Z</time>
</trkpt>
<trkpt lat="45.8966270" lon="9.8287810">
	<ele>1700.40</ele>
	<time>2023-11-18T11:19:33.000Z</time>
</trkpt>
<trkpt lat="45.8966260" lon="9.8287800">
	<ele>1700.40</ele>
	<time>2023-11-18T11:19:34.000Z</time>
</trkpt>
<trkpt lat="45.8966260" lon="9.8287800">
	<ele>1700.40</ele>
	<time>2023-11-18T11:19:35.000Z</time>
</trkpt>
<trkpt lat="45.8966260" lon="9.8287800">
	<ele>1700.40</ele>
	<time>2023-11-18T11:19:36.000Z</time>
</trkpt>
<trkpt lat="45.8966250" lon="9.8287800">
	<ele>1700.40</ele>
	<time>2023-11-18T11:19:37.000Z</time>
</trkpt>
<trkpt lat="45.8966230" lon="9.8287800">
	<ele>1700.40</ele>
	<time>2023-11-18T11:19:38.000Z</time>
</trkpt>
<trkpt lat="45.8966220" lon="9.8287780">
	<ele>1700.20</ele>
	<time>2023-11-18T11:19:39.000Z</time>
</trkpt>
<trkpt lat="45.8966170" lon="9.8287760">
	<ele>1700.20</ele>
	<time>2023-11-18T11:19:40.000Z</time>
</trkpt>
<trkpt lat="45.8966160" lon="9.8287740">
	<ele>1700.00</ele>
	<time>2023-11-18T11:19:41.000Z</time>
</trkpt>
<trkpt lat="45.8966160" lon="9.8287730">
	<ele>1700.00</ele>
	<time>2023-11-18T11:19:42.000Z</time>
</trkpt>
<trkpt lat="45.8966160" lon="9.8287730">
	<ele>1700.00</ele>
	<time>2023-11-18T11:19:43.000Z</time>
</trkpt>
<trkpt lat="45.8966160" lon="9.8287710">
	<ele>1700.00</ele>
	<time>2023-11-18T11:19:44.000Z</time>
</trkpt>
<trkpt lat="45.8966160" lon="9.8287700">
	<ele>1700.00</ele>
	<time>2023-11-18T11:19:45.000Z</time>
</trkpt>
<trkpt lat="45.8966160" lon="9.8287700">
	<ele>1700.00</ele>
	<time>2023-11-18T11:19:46.000Z</time>
</trkpt>
<trkpt lat="45.8966160" lon="9.8287700">
	<ele>1700.20</ele>
	<time>2023-11-18T11:19:47.000Z</time>
</trkpt>
<trkpt lat="45.8966160" lon="9.8287700">
	<ele>1700.20</ele>
	<time>2023-11-18T11:19:48.000Z</time>
</trkpt>
<trkpt lat="45.8966160" lon="9.8287690">
	<ele>1700.20</ele>
	<time>2023-11-18T11:19:49.000Z</time>
</trkpt>
<trkpt lat="45.8966150" lon="9.8287690">
	<ele>1700.20</ele>
	<time>2023-11-18T11:19:50.000Z</time>
</trkpt>
<trkpt lat="45.8966150" lon="9.8287680">
	<ele>1700.20</ele>
	<time>2023-11-18T11:19:51.000Z</time>
</trkpt>
<trkpt lat="45.8966150" lon="9.8287680">
	<ele>1700.20</ele>
	<time>2023-11-18T11:19:52.000Z</time>
</trkpt>
<trkpt lat="45.8966150" lon="9.8287680">
	<ele>1700.20</ele>
	<time>2023-11-18T11:19:53.000Z</time>
</trkpt>
<trkpt lat="45.8966140" lon="9.8287680">
	<ele>1700.40</ele>
	<time>2023-11-18T11:19:54.000Z</time>
</trkpt>
<trkpt lat="45.8966130" lon="9.8287670">
	<ele>1700.40</ele>
	<time>2023-11-18T11:19:55.000Z</time>
</trkpt>
<trkpt lat="45.8966130" lon="9.8287670">
	<ele>1700.40</ele>
	<time>2023-11-18T11:19:56.000Z</time>
</trkpt>
<trkpt lat="45.8966130" lon="9.8287670">
	<ele>1700.40</ele>
	<time>2023-11-18T11:19:57.000Z</time>
</trkpt>
<trkpt lat="45.8966130" lon="9.8287660">
	<ele>1700.40</ele>
	<time>2023-11-18T11:19:58.000Z</time>
</trkpt>
<trkpt lat="45.8966130" lon="9.8287660">
	<ele>1700.20</ele>
	<time>2023-11-18T11:19:59.000Z</time>
</trkpt>
<trkpt lat="45.8966140" lon="9.8287660">
	<ele>1700.20</ele>
	<time>2023-11-18T11:20:00.000Z</time>
</trkpt>
<trkpt lat="45.8966150" lon="9.8287660">
	<ele>1700.20</ele>
	<time>2023-11-18T11:20:01.000Z</time>
</trkpt>
<trkpt lat="45.8966150" lon="9.8287660">
	<ele>1700.20</ele>
	<time>2023-11-18T11:20:02.000Z</time>
</trkpt>
<trkpt lat="45.8966150" lon="9.8287660">
	<ele>1700.20</ele>
	<time>2023-11-18T11:20:03.000Z</time>
</trkpt>
<trkpt lat="45.8966150" lon="9.8287660">
	<ele>1700.20</ele>
	<time>2023-11-18T11:20:04.000Z</time>
</trkpt>
<trkpt lat="45.8966150" lon="9.8287660">
	<ele>1700.20</ele>
	<time>2023-11-18T11:20:05.000Z</time>
</trkpt>
<trkpt lat="45.8966150" lon="9.8287660">
	<ele>1700.20</ele>
	<time>2023-11-18T11:20:06.000Z</time>
</trkpt>
<trkpt lat="45.8966150" lon="9.8287660">
	<ele>1700.20</ele>
	<time>2023-11-18T11:20:07.000Z</time>
</trkpt>
<trkpt lat="45.8966150" lon="9.8287660">
	<ele>1700.20</ele>
	<time>2023-11-18T11:20:08.000Z</time>
</trkpt>
<trkpt lat="45.8966140" lon="9.8287660">
	<ele>1700.20</ele>
	<time>2023-11-18T11:20:09.000Z</time>
</trkpt>
<trkpt lat="45.8966130" lon="9.8287660">
	<ele>1700.20</ele>
	<time>2023-11-18T11:20:10.000Z</time>
</trkpt>
<trkpt lat="45.8966130" lon="9.8287660">
	<ele>1700.20</ele>
	<time>2023-11-18T11:20:11.000Z</time>
</trkpt>
<trkpt lat="45.8966060" lon="9.8287680">
	<ele>1700.20</ele>
	<time>2023-11-18T11:20:12.000Z</time>
</trkpt>
<trkpt lat="45.8965870" lon="9.8287660">
	<ele>1700.00</ele>
	<time>2023-11-18T11:20:13.000Z</time>
</trkpt>
<trkpt lat="45.8965670" lon="9.8287670">
	<ele>1700.00</ele>
	<time>2023-11-18T11:20:14.000Z</time>
</trkpt>
<trkpt lat="45.8965480" lon="9.8287700">
	<ele>1700.00</ele>
	<time>2023-11-18T11:20:15.000Z</time>
</trkpt>
<trkpt lat="45.8965310" lon="9.8287770">
	<ele>1700.00</ele>
	<time>2023-11-18T11:20:16.000Z</time>
</trkpt>
<trkpt lat="45.8965110" lon="9.8287840">
	<ele>1700.00</ele>
	<time>2023-11-18T11:20:17.000Z</time>
</trkpt>
<trkpt lat="45.8964920" lon="9.8287910">
	<ele>1700.00</ele>
	<time>2023-11-18T11:20:18.000Z</time>
</trkpt>
<trkpt lat="45.8964740" lon="9.8287960">
	<ele>1700.00</ele>
	<time>2023-11-18T11:20:19.000Z</time>
</trkpt>
<trkpt lat="45.8964560" lon="9.8287960">
	<ele>1700.00</ele>
	<time>2023-11-18T11:20:20.000Z</time>
</trkpt>
<trkpt lat="45.8964410" lon="9.8287990">
	<ele>1700.00</ele>
	<time>2023-11-18T11:20:21.000Z</time>
</trkpt>
<trkpt lat="45.8964370" lon="9.8288050">
	<ele>1700.00</ele>
	<time>2023-11-18T11:20:22.000Z</time>
</trkpt>
<trkpt lat="45.8964290" lon="9.8288100">
	<ele>1700.00</ele>
	<time>2023-11-18T11:20:23.000Z</time>
</trkpt>
<trkpt lat="45.8964210" lon="9.8288120">
	<ele>1700.00</ele>
	<time>2023-11-18T11:20:24.000Z</time>
</trkpt>
<trkpt lat="45.8964120" lon="9.8288150">
	<ele>1699.80</ele>
	<time>2023-11-18T11:20:25.000Z</time>
</trkpt>
<trkpt lat="45.8964030" lon="9.8288160">
	<ele>1699.60</ele>
	<time>2023-11-18T11:20:26.000Z</time>
</trkpt>
<trkpt lat="45.8963960" lon="9.8288190">
	<ele>1699.60</ele>
	<time>2023-11-18T11:20:27.000Z</time>
</trkpt>
<trkpt lat="45.8963880" lon="9.8288240">
	<ele>1699.60</ele>
	<time>2023-11-18T11:20:28.000Z</time>
</trkpt>
<trkpt lat="45.8963810" lon="9.8288300">
	<ele>1699.40</ele>
	<time>2023-11-18T11:20:29.000Z</time>
</trkpt>
<trkpt lat="45.8963720" lon="9.8288360">
	<ele>1699.40</ele>
	<time>2023-11-18T11:20:30.000Z</time>
</trkpt>
<trkpt lat="45.8963640" lon="9.8288470">
	<ele>1699.20</ele>
	<time>2023-11-18T11:20:31.000Z</time>
</trkpt>
<trkpt lat="45.8963540" lon="9.8288550">
	<ele>1699.00</ele>
	<time>2023-11-18T11:20:32.000Z</time>
</trkpt>
<trkpt lat="45.8963450" lon="9.8288590">
	<ele>1698.80</ele>
	<time>2023-11-18T11:20:33.000Z</time>
</trkpt>
<trkpt lat="45.8963360" lon="9.8288630">
	<ele>1698.60</ele>
	<time>2023-11-18T11:20:34.000Z</time>
</trkpt>
<trkpt lat="45.8963270" lon="9.8288630">
	<ele>1698.40</ele>
	<time>2023-11-18T11:20:35.000Z</time>
</trkpt>
<trkpt lat="45.8963150" lon="9.8288610">
	<ele>1698.40</ele>
	<time>2023-11-18T11:20:36.000Z</time>
</trkpt>
<trkpt lat="45.8963060" lon="9.8288610">
	<ele>1698.20</ele>
	<time>2023-11-18T11:20:37.000Z</time>
</trkpt>
<trkpt lat="45.8962970" lon="9.8288630">
	<ele>1698.00</ele>
	<time>2023-11-18T11:20:38.000Z</time>
</trkpt>
<trkpt lat="45.8962900" lon="9.8288650">
	<ele>1697.80</ele>
	<time>2023-11-18T11:20:39.000Z</time>
</trkpt>
<trkpt lat="45.8962830" lon="9.8288700">
	<ele>1697.60</ele>
	<time>2023-11-18T11:20:40.000Z</time>
</trkpt>
<trkpt lat="45.8962740" lon="9.8288730">
	<ele>1697.40</ele>
	<time>2023-11-18T11:20:41.000Z</time>
</trkpt>
<trkpt lat="45.8962630" lon="9.8288750">
	<ele>1697.40</ele>
	<time>2023-11-18T11:20:42.000Z</time>
</trkpt>
<trkpt lat="45.8962540" lon="9.8288810">
	<ele>1697.00</ele>
	<time>2023-11-18T11:20:43.000Z</time>
</trkpt>
<trkpt lat="45.8962500" lon="9.8288930">
	<ele>1696.80</ele>
	<time>2023-11-18T11:20:44.000Z</time>
</trkpt>
<trkpt lat="45.8962450" lon="9.8289020">
	<ele>1696.60</ele>
	<time>2023-11-18T11:20:45.000Z</time>
</trkpt>
<trkpt lat="45.8962370" lon="9.8289080">
	<ele>1696.20</ele>
	<time>2023-11-18T11:20:46.000Z</time>
</trkpt>
<trkpt lat="45.8962300" lon="9.8289110">
	<ele>1696.00</ele>
	<time>2023-11-18T11:20:47.000Z</time>
</trkpt>
<trkpt lat="45.8962220" lon="9.8289100">
	<ele>1695.80</ele>
	<time>2023-11-18T11:20:48.000Z</time>
</trkpt>
<trkpt lat="45.8962120" lon="9.8289130">
	<ele>1695.40</ele>
	<time>2023-11-18T11:20:49.000Z</time>
</trkpt>
<trkpt lat="45.8962030" lon="9.8289180">
	<ele>1695.40</ele>
	<time>2023-11-18T11:20:50.000Z</time>
</trkpt>
<trkpt lat="45.8961930" lon="9.8289200">
	<ele>1695.20</ele>
	<time>2023-11-18T11:20:51.000Z</time>
</trkpt>
<trkpt lat="45.8961810" lon="9.8289220">
	<ele>1695.00</ele>
	<time>2023-11-18T11:20:52.000Z</time>
</trkpt>
<trkpt lat="45.8961730" lon="9.8289340">
	<ele>1694.60</ele>
	<time>2023-11-18T11:20:53.000Z</time>
</trkpt>
<trkpt lat="45.8961670" lon="9.8289460">
	<ele>1694.40</ele>
	<time>2023-11-18T11:20:54.000Z</time>
</trkpt>
<trkpt lat="45.8961630" lon="9.8289520">
	<ele>1694.20</ele>
	<time>2023-11-18T11:20:55.000Z</time>
</trkpt>
<trkpt lat="45.8961570" lon="9.8289520">
	<ele>1694.20</ele>
	<time>2023-11-18T11:20:56.000Z</time>
</trkpt>
<trkpt lat="45.8961490" lon="9.8289530">
	<ele>1694.00</ele>
	<time>2023-11-18T11:20:57.000Z</time>
</trkpt>
<trkpt lat="45.8961390" lon="9.8289550">
	<ele>1694.00</ele>
	<time>2023-11-18T11:20:58.000Z</time>
</trkpt>
<trkpt lat="45.8961280" lon="9.8289560">
	<ele>1693.80</ele>
	<time>2023-11-18T11:20:59.000Z</time>
</trkpt>
<trkpt lat="45.8961170" lon="9.8289590">
	<ele>1693.80</ele>
	<time>2023-11-18T11:21:00.000Z</time>
</trkpt>
<trkpt lat="45.8961070" lon="9.8289670">
	<ele>1693.60</ele>
	<time>2023-11-18T11:21:01.000Z</time>
</trkpt>
<trkpt lat="45.8960980" lon="9.8289750">
	<ele>1693.40</ele>
	<time>2023-11-18T11:21:02.000Z</time>
</trkpt>
<trkpt lat="45.8960860" lon="9.8289810">
	<ele>1693.20</ele>
	<time>2023-11-18T11:21:03.000Z</time>
</trkpt>
<trkpt lat="45.8960740" lon="9.8289830">
	<ele>1692.80</ele>
	<time>2023-11-18T11:21:04.000Z</time>
</trkpt>
<trkpt lat="45.8960670" lon="9.8289860">
	<ele>1692.60</ele>
	<time>2023-11-18T11:21:05.000Z</time>
</trkpt>
<trkpt lat="45.8960610" lon="9.8289930">
	<ele>1692.60</ele>
	<time>2023-11-18T11:21:06.000Z</time>
</trkpt>
<trkpt lat="45.8960550" lon="9.8289990">
	<ele>1692.40</ele>
	<time>2023-11-18T11:21:07.000Z</time>
</trkpt>
<trkpt lat="45.8960510" lon="9.8290030">
	<ele>1692.20</ele>
	<time>2023-11-18T11:21:08.000Z</time>
</trkpt>
<trkpt lat="45.8960420" lon="9.8290020">
	<ele>1692.00</ele>
	<time>2023-11-18T11:21:09.000Z</time>
</trkpt>
<trkpt lat="45.8960290" lon="9.8289980">
	<ele>1691.80</ele>
	<time>2023-11-18T11:21:10.000Z</time>
</trkpt>
<trkpt lat="45.8960190" lon="9.8290000">
	<ele>1691.60</ele>
	<time>2023-11-18T11:21:11.000Z</time>
</trkpt>
<trkpt lat="45.8960110" lon="9.8290080">
	<ele>1691.20</ele>
	<time>2023-11-18T11:21:12.000Z</time>
</trkpt>
<trkpt lat="45.8960020" lon="9.8290170">
	<ele>1690.80</ele>
	<time>2023-11-18T11:21:13.000Z</time>
</trkpt>
<trkpt lat="45.8959930" lon="9.8290270">
	<ele>1690.60</ele>
	<time>2023-11-18T11:21:14.000Z</time>
</trkpt>
<trkpt lat="45.8959820" lon="9.8290320">
	<ele>1690.40</ele>
	<time>2023-11-18T11:21:15.000Z</time>
</trkpt>
<trkpt lat="45.8959680" lon="9.8290380">
	<ele>1690.20</ele>
	<time>2023-11-18T11:21:16.000Z</time>
</trkpt>
<trkpt lat="45.8959560" lon="9.8290440">
	<ele>1690.20</ele>
	<time>2023-11-18T11:21:17.000Z</time>
</trkpt>
<trkpt lat="45.8959430" lon="9.8290480">
	<ele>1690.20</ele>
	<time>2023-11-18T11:21:18.000Z</time>
</trkpt>
<trkpt lat="45.8959350" lon="9.8290540">
	<ele>1690.00</ele>
	<time>2023-11-18T11:21:19.000Z</time>
</trkpt>
<trkpt lat="45.8959290" lon="9.8290610">
	<ele>1690.00</ele>
	<time>2023-11-18T11:21:20.000Z</time>
</trkpt>
<trkpt lat="45.8959240" lon="9.8290650">
	<ele>1689.80</ele>
	<time>2023-11-18T11:21:21.000Z</time>
</trkpt>
<trkpt lat="45.8959150" lon="9.8290660">
	<ele>1689.80</ele>
	<time>2023-11-18T11:21:22.000Z</time>
</trkpt>
<trkpt lat="45.8959060" lon="9.8290710">
	<ele>1689.80</ele>
	<time>2023-11-18T11:21:23.000Z</time>
</trkpt>
<trkpt lat="45.8958950" lon="9.8290770">
	<ele>1690.20</ele>
	<time>2023-11-18T11:21:24.000Z</time>
</trkpt>
<trkpt lat="45.8958830" lon="9.8290850">
	<ele>1690.40</ele>
	<time>2023-11-18T11:21:25.000Z</time>
</trkpt>
<trkpt lat="45.8958650" lon="9.8290870">
	<ele>1690.60</ele>
	<time>2023-11-18T11:21:26.000Z</time>
</trkpt>
<trkpt lat="45.8958780" lon="9.8290980">
	<ele>1690.60</ele>
	<time>2023-11-18T11:21:27.000Z</time>
</trkpt>
<trkpt lat="45.8958610" lon="9.8290950">
	<ele>1690.80</ele>
	<time>2023-11-18T11:21:28.000Z</time>
</trkpt>
<trkpt lat="45.8958370" lon="9.8290950">
	<ele>1691.00</ele>
	<time>2023-11-18T11:21:29.000Z</time>
</trkpt>
<trkpt lat="45.8958330" lon="9.8291030">
	<ele>1691.00</ele>
	<time>2023-11-18T11:21:30.000Z</time>
</trkpt>
<trkpt lat="45.8958180" lon="9.8291050">
	<ele>1691.20</ele>
	<time>2023-11-18T11:21:31.000Z</time>
</trkpt>
<trkpt lat="45.8958090" lon="9.8290930">
	<ele>1691.60</ele>
	<time>2023-11-18T11:21:32.000Z</time>
</trkpt>
<trkpt lat="45.8957970" lon="9.8290870">
	<ele>1692.00</ele>
	<time>2023-11-18T11:21:33.000Z</time>
</trkpt>
<trkpt lat="45.8957900" lon="9.8290790">
	<ele>1692.00</ele>
	<time>2023-11-18T11:21:34.000Z</time>
</trkpt>
<trkpt lat="45.8957790" lon="9.8290770">
	<ele>1692.40</ele>
	<time>2023-11-18T11:21:35.000Z</time>
</trkpt>
<trkpt lat="45.8957690" lon="9.8290690">
	<ele>1692.40</ele>
	<time>2023-11-18T11:21:36.000Z</time>
</trkpt>
<trkpt lat="45.8957580" lon="9.8290650">
	<ele>1692.40</ele>
	<time>2023-11-18T11:21:37.000Z</time>
</trkpt>
<trkpt lat="45.8957440" lon="9.8290610">
	<ele>1692.40</ele>
	<time>2023-11-18T11:21:38.000Z</time>
</trkpt>
<trkpt lat="45.8957330" lon="9.8290550">
	<ele>1692.40</ele>
	<time>2023-11-18T11:21:39.000Z</time>
</trkpt>
<trkpt lat="45.8957200" lon="9.8290480">
	<ele>1692.40</ele>
	<time>2023-11-18T11:21:40.000Z</time>
</trkpt>
<trkpt lat="45.8957130" lon="9.8290500">
	<ele>1692.40</ele>
	<time>2023-11-18T11:21:41.000Z</time>
</trkpt>
<trkpt lat="45.8957050" lon="9.8290530">
	<ele>1692.40</ele>
	<time>2023-11-18T11:21:42.000Z</time>
</trkpt>
<trkpt lat="45.8956960" lon="9.8290590">
	<ele>1692.20</ele>
	<time>2023-11-18T11:21:43.000Z</time>
</trkpt>
<trkpt lat="45.8956860" lon="9.8290590">
	<ele>1692.00</ele>
	<time>2023-11-18T11:21:44.000Z</time>
</trkpt>
<trkpt lat="45.8956770" lon="9.8290590">
	<ele>1692.00</ele>
	<time>2023-11-18T11:21:45.000Z</time>
</trkpt>
<trkpt lat="45.8956690" lon="9.8290610">
	<ele>1692.00</ele>
	<time>2023-11-18T11:21:46.000Z</time>
</trkpt>
<trkpt lat="45.8956570" lon="9.8290620">
	<ele>1692.00</ele>
	<time>2023-11-18T11:21:47.000Z</time>
</trkpt>
<trkpt lat="45.8956450" lon="9.8290630">
	<ele>1691.80</ele>
	<time>2023-11-18T11:21:48.000Z</time>
</trkpt>
<trkpt lat="45.8956360" lon="9.8290690">
	<ele>1691.80</ele>
	<time>2023-11-18T11:21:49.000Z</time>
</trkpt>
<trkpt lat="45.8956350" lon="9.8290740">
	<ele>1691.60</ele>
	<time>2023-11-18T11:21:50.000Z</time>
</trkpt>
<trkpt lat="45.8956360" lon="9.8290780">
	<ele>1691.20</ele>
	<time>2023-11-18T11:21:51.000Z</time>
</trkpt>
<trkpt lat="45.8956320" lon="9.8290790">
	<ele>1691.00</ele>
	<time>2023-11-18T11:21:52.000Z</time>
</trkpt>
<trkpt lat="45.8956300" lon="9.8290820">
	<ele>1691.00</ele>
	<time>2023-11-18T11:21:53.000Z</time>
</trkpt>
<trkpt lat="45.8956290" lon="9.8290830">
	<ele>1690.80</ele>
	<time>2023-11-18T11:21:54.000Z</time>
</trkpt>
<trkpt lat="45.8956330" lon="9.8290830">
	<ele>1690.80</ele>
	<time>2023-11-18T11:21:55.000Z</time>
</trkpt>
<trkpt lat="45.8956320" lon="9.8290870">
	<ele>1690.80</ele>
	<time>2023-11-18T11:21:56.000Z</time>
</trkpt>
<trkpt lat="45.8956330" lon="9.8290860">
	<ele>1690.80</ele>
	<time>2023-11-18T11:21:57.000Z</time>
</trkpt>
<trkpt lat="45.8956350" lon="9.8290920">
	<ele>1691.00</ele>
	<time>2023-11-18T11:21:58.000Z</time>
</trkpt>
<trkpt lat="45.8956370" lon="9.8290950">
	<ele>1691.00</ele>
	<time>2023-11-18T11:21:59.000Z</time>
</trkpt>
<trkpt lat="45.8956390" lon="9.8290970">
	<ele>1691.00</ele>
	<time>2023-11-18T11:22:00.000Z</time>
</trkpt>
<trkpt lat="45.8956400" lon="9.8290990">
	<ele>1691.00</ele>
	<time>2023-11-18T11:22:01.000Z</time>
</trkpt>
<trkpt lat="45.8956400" lon="9.8290990">
	<ele>1691.20</ele>
	<time>2023-11-18T11:22:02.000Z</time>
</trkpt>
<trkpt lat="45.8956400" lon="9.8290990">
	<ele>1691.20</ele>
	<time>2023-11-18T11:22:03.000Z</time>
</trkpt>
<trkpt lat="45.8956400" lon="9.8290990">
	<ele>1691.20</ele>
	<time>2023-11-18T11:22:04.000Z</time>
</trkpt>
<trkpt lat="45.8956400" lon="9.8290990">
	<ele>1691.20</ele>
	<time>2023-11-18T11:22:05.000Z</time>
</trkpt>
<trkpt lat="45.8956400" lon="9.8290990">
	<ele>1691.20</ele>
	<time>2023-11-18T11:22:06.000Z</time>
</trkpt>
<trkpt lat="45.8956400" lon="9.8290990">
	<ele>1691.20</ele>
	<time>2023-11-18T11:22:07.000Z</time>
</trkpt>
<trkpt lat="45.8956400" lon="9.8290990">
	<ele>1691.20</ele>
	<time>2023-11-18T11:22:08.000Z</time>
</trkpt>
<trkpt lat="45.8956400" lon="9.8290990">
	<ele>1691.20</ele>
	<time>2023-11-18T11:22:09.000Z</time>
</trkpt>
<trkpt lat="45.8956390" lon="9.8290990">
	<ele>1691.20</ele>
	<time>2023-11-18T11:22:10.000Z</time>
</trkpt>
<trkpt lat="45.8956390" lon="9.8290990">
	<ele>1691.00</ele>
	<time>2023-11-18T11:22:11.000Z</time>
</trkpt>
<trkpt lat="45.8956380" lon="9.8290990">
	<ele>1690.80</ele>
	<time>2023-11-18T11:22:12.000Z</time>
</trkpt>
<trkpt lat="45.8956380" lon="9.8290990">
	<ele>1690.80</ele>
	<time>2023-11-18T11:22:13.000Z</time>
</trkpt>
<trkpt lat="45.8956340" lon="9.8290960">
	<ele>1690.80</ele>
	<time>2023-11-18T11:22:14.000Z</time>
</trkpt>
<trkpt lat="45.8956240" lon="9.8290850">
	<ele>1690.60</ele>
	<time>2023-11-18T11:22:15.000Z</time>
</trkpt>
<trkpt lat="45.8956140" lon="9.8290760">
	<ele>1690.60</ele>
	<time>2023-11-18T11:22:16.000Z</time>
</trkpt>
<trkpt lat="45.8956070" lon="9.8290690">
	<ele>1690.40</ele>
	<time>2023-11-18T11:22:17.000Z</time>
</trkpt>
<trkpt lat="45.8955980" lon="9.8290620">
	<ele>1690.40</ele>
	<time>2023-11-18T11:22:18.000Z</time>
</trkpt>
<trkpt lat="45.8955870" lon="9.8290550">
	<ele>1690.20</ele>
	<time>2023-11-18T11:22:19.000Z</time>
</trkpt>
<trkpt lat="45.8955780" lon="9.8290460">
	<ele>1690.20</ele>
	<time>2023-11-18T11:22:20.000Z</time>
</trkpt>
<trkpt lat="45.8955740" lon="9.8290440">
	<ele>1690.20</ele>
	<time>2023-11-18T11:22:21.000Z</time>
</trkpt>
<trkpt lat="45.8955700" lon="9.8290400">
	<ele>1690.20</ele>
	<time>2023-11-18T11:22:22.000Z</time>
</trkpt>
<trkpt lat="45.8955670" lon="9.8290360">
	<ele>1690.20</ele>
	<time>2023-11-18T11:22:23.000Z</time>
</trkpt>
<trkpt lat="45.8955690" lon="9.8290390">
	<ele>1690.20</ele>
	<time>2023-11-18T11:22:24.000Z</time>
</trkpt>
<trkpt lat="45.8955710" lon="9.8290370">
	<ele>1690.00</ele>
	<time>2023-11-18T11:22:25.000Z</time>
</trkpt>
<trkpt lat="45.8955750" lon="9.8290380">
	<ele>1690.00</ele>
	<time>2023-11-18T11:22:26.000Z</time>
</trkpt>
<trkpt lat="45.8955780" lon="9.8290380">
	<ele>1690.00</ele>
	<time>2023-11-18T11:22:27.000Z</time>
</trkpt>
<trkpt lat="45.8955780" lon="9.8290360">
	<ele>1689.80</ele>
	<time>2023-11-18T11:22:28.000Z</time>
</trkpt>
<trkpt lat="45.8955780" lon="9.8290330">
	<ele>1689.80</ele>
	<time>2023-11-18T11:22:29.000Z</time>
</trkpt>
<trkpt lat="45.8955780" lon="9.8290330">
	<ele>1690.00</ele>
	<time>2023-11-18T11:22:30.000Z</time>
</trkpt>
<trkpt lat="45.8955780" lon="9.8290330">
	<ele>1690.00</ele>
	<time>2023-11-18T11:22:31.000Z</time>
</trkpt>
<trkpt lat="45.8955780" lon="9.8290330">
	<ele>1690.00</ele>
	<time>2023-11-18T11:22:32.000Z</time>
</trkpt>
<trkpt lat="45.8955780" lon="9.8290330">
	<ele>1690.00</ele>
	<time>2023-11-18T11:22:33.000Z</time>
</trkpt>
<trkpt lat="45.8955780" lon="9.8290330">
	<ele>1690.00</ele>
	<time>2023-11-18T11:22:34.000Z</time>
</trkpt>
<trkpt lat="45.8955780" lon="9.8290330">
	<ele>1690.00</ele>
	<time>2023-11-18T11:22:35.000Z</time>
</trkpt>
<trkpt lat="45.8955740" lon="9.8290310">
	<ele>1690.00</ele>
	<time>2023-11-18T11:22:36.000Z</time>
</trkpt>
<trkpt lat="45.8955610" lon="9.8290250">
	<ele>1690.00</ele>
	<time>2023-11-18T11:22:37.000Z</time>
</trkpt>
<trkpt lat="45.8955460" lon="9.8290170">
	<ele>1690.20</ele>
	<time>2023-11-18T11:22:38.000Z</time>
</trkpt>
<trkpt lat="45.8955320" lon="9.8290110">
	<ele>1690.40</ele>
	<time>2023-11-18T11:22:39.000Z</time>
</trkpt>
<trkpt lat="45.8955190" lon="9.8290010">
	<ele>1690.40</ele>
	<time>2023-11-18T11:22:40.000Z</time>
</trkpt>
<trkpt lat="45.8955070" lon="9.8289880">
	<ele>1690.60</ele>
	<time>2023-11-18T11:22:41.000Z</time>
</trkpt>
<trkpt lat="45.8954950" lon="9.8289750">
	<ele>1690.60</ele>
	<time>2023-11-18T11:22:42.000Z</time>
</trkpt>
<trkpt lat="45.8954800" lon="9.8289630">
	<ele>1690.60</ele>
	<time>2023-11-18T11:22:43.000Z</time>
</trkpt>
<trkpt lat="45.8954670" lon="9.8289520">
	<ele>1690.60</ele>
	<time>2023-11-18T11:22:44.000Z</time>
</trkpt>
<trkpt lat="45.8954540" lon="9.8289440">
	<ele>1690.40</ele>
	<time>2023-11-18T11:22:45.000Z</time>
</trkpt>
<trkpt lat="45.8954440" lon="9.8289400">
	<ele>1690.40</ele>
	<time>2023-11-18T11:22:46.000Z</time>
</trkpt>
<trkpt lat="45.8954320" lon="9.8289370">
	<ele>1690.40</ele>
	<time>2023-11-18T11:22:47.000Z</time>
</trkpt>
<trkpt lat="45.8954230" lon="9.8289360">
	<ele>1690.40</ele>
	<time>2023-11-18T11:22:48.000Z</time>
</trkpt>
<trkpt lat="45.8954130" lon="9.8289320">
	<ele>1690.40</ele>
	<time>2023-11-18T11:22:49.000Z</time>
</trkpt>
<trkpt lat="45.8954030" lon="9.8289260">
	<ele>1690.60</ele>
	<time>2023-11-18T11:22:50.000Z</time>
</trkpt>
<trkpt lat="45.8953930" lon="9.8289170">
	<ele>1690.60</ele>
	<time>2023-11-18T11:22:51.000Z</time>
</trkpt>
<trkpt lat="45.8953820" lon="9.8289090">
	<ele>1690.80</ele>
	<time>2023-11-18T11:22:52.000Z</time>
</trkpt>
<trkpt lat="45.8953730" lon="9.8289060">
	<ele>1690.80</ele>
	<time>2023-11-18T11:22:53.000Z</time>
</trkpt>
<trkpt lat="45.8953620" lon="9.8289020">
	<ele>1690.80</ele>
	<time>2023-11-18T11:22:54.000Z</time>
</trkpt>
<trkpt lat="45.8953500" lon="9.8288980">
	<ele>1690.60</ele>
	<time>2023-11-18T11:22:55.000Z</time>
</trkpt>
<trkpt lat="45.8953370" lon="9.8288930">
	<ele>1690.60</ele>
	<time>2023-11-18T11:22:56.000Z</time>
</trkpt>
<trkpt lat="45.8953270" lon="9.8288900">
	<ele>1690.60</ele>
	<time>2023-11-18T11:22:57.000Z</time>
</trkpt>
<trkpt lat="45.8953180" lon="9.8288920">
	<ele>1690.60</ele>
	<time>2023-11-18T11:22:58.000Z</time>
</trkpt>
<trkpt lat="45.8953070" lon="9.8288910">
	<ele>1690.60</ele>
	<time>2023-11-18T11:22:59.000Z</time>
</trkpt>
<trkpt lat="45.8952950" lon="9.8288860">
	<ele>1690.60</ele>
	<time>2023-11-18T11:23:00.000Z</time>
</trkpt>
<trkpt lat="45.8952850" lon="9.8288800">
	<ele>1690.60</ele>
	<time>2023-11-18T11:23:01.000Z</time>
</trkpt>
<trkpt lat="45.8952760" lon="9.8288730">
	<ele>1690.60</ele>
	<time>2023-11-18T11:23:02.000Z</time>
</trkpt>
<trkpt lat="45.8952680" lon="9.8288650">
	<ele>1690.60</ele>
	<time>2023-11-18T11:23:03.000Z</time>
</trkpt>
<trkpt lat="45.8952580" lon="9.8288610">
	<ele>1690.60</ele>
	<time>2023-11-18T11:23:04.000Z</time>
</trkpt>
<trkpt lat="45.8952470" lon="9.8288600">
	<ele>1690.60</ele>
	<time>2023-11-18T11:23:05.000Z</time>
</trkpt>
<trkpt lat="45.8952370" lon="9.8288640">
	<ele>1690.60</ele>
	<time>2023-11-18T11:23:06.000Z</time>
</trkpt>
<trkpt lat="45.8952240" lon="9.8288700">
	<ele>1690.60</ele>
	<time>2023-11-18T11:23:07.000Z</time>
</trkpt>
<trkpt lat="45.8952160" lon="9.8288710">
	<ele>1690.40</ele>
	<time>2023-11-18T11:23:08.000Z</time>
</trkpt>
<trkpt lat="45.8952090" lon="9.8288650">
	<ele>1690.20</ele>
	<time>2023-11-18T11:23:09.000Z</time>
</trkpt>
<trkpt lat="45.8952030" lon="9.8288630">
	<ele>1689.80</ele>
	<time>2023-11-18T11:23:10.000Z</time>
</trkpt>
<trkpt lat="45.8951930" lon="9.8288550">
	<ele>1689.60</ele>
	<time>2023-11-18T11:23:11.000Z</time>
</trkpt>
<trkpt lat="45.8951810" lon="9.8288490">
	<ele>1689.60</ele>
	<time>2023-11-18T11:23:12.000Z</time>
</trkpt>
<trkpt lat="45.8951720" lon="9.8288510">
	<ele>1689.20</ele>
	<time>2023-11-18T11:23:13.000Z</time>
</trkpt>
<trkpt lat="45.8951640" lon="9.8288540">
	<ele>1688.80</ele>
	<time>2023-11-18T11:23:14.000Z</time>
</trkpt>
<trkpt lat="45.8951550" lon="9.8288560">
	<ele>1688.60</ele>
	<time>2023-11-18T11:23:15.000Z</time>
</trkpt>
<trkpt lat="45.8951500" lon="9.8288480">
	<ele>1688.40</ele>
	<time>2023-11-18T11:23:16.000Z</time>
</trkpt>
<trkpt lat="45.8951460" lon="9.8288440">
	<ele>1688.00</ele>
	<time>2023-11-18T11:23:17.000Z</time>
</trkpt>
<trkpt lat="45.8951410" lon="9.8288470">
	<ele>1687.80</ele>
	<time>2023-11-18T11:23:18.000Z</time>
</trkpt>
<trkpt lat="45.8951380" lon="9.8288460">
	<ele>1687.60</ele>
	<time>2023-11-18T11:23:19.000Z</time>
</trkpt>
<trkpt lat="45.8951390" lon="9.8288570">
	<ele>1687.40</ele>
	<time>2023-11-18T11:23:20.000Z</time>
</trkpt>
<trkpt lat="45.8951410" lon="9.8288670">
	<ele>1687.00</ele>
	<time>2023-11-18T11:23:21.000Z</time>
</trkpt>
<trkpt lat="45.8951410" lon="9.8288740">
	<ele>1686.60</ele>
	<time>2023-11-18T11:23:22.000Z</time>
</trkpt>
<trkpt lat="45.8951370" lon="9.8288790">
	<ele>1686.40</ele>
	<time>2023-11-18T11:23:23.000Z</time>
</trkpt>
<trkpt lat="45.8951350" lon="9.8288820">
	<ele>1686.00</ele>
	<time>2023-11-18T11:23:24.000Z</time>
</trkpt>
<trkpt lat="45.8951310" lon="9.8288790">
	<ele>1686.00</ele>
	<time>2023-11-18T11:23:25.000Z</time>
</trkpt>
<trkpt lat="45.8951230" lon="9.8288710">
	<ele>1685.80</ele>
	<time>2023-11-18T11:23:26.000Z</time>
</trkpt>
<trkpt lat="45.8951170" lon="9.8288680">
	<ele>1685.60</ele>
	<time>2023-11-18T11:23:27.000Z</time>
</trkpt>
<trkpt lat="45.8951110" lon="9.8288670">
	<ele>1685.40</ele>
	<time>2023-11-18T11:23:28.000Z</time>
</trkpt>
<trkpt lat="45.8951020" lon="9.8288660">
	<ele>1685.40</ele>
	<time>2023-11-18T11:23:29.000Z</time>
</trkpt>
<trkpt lat="45.8950930" lon="9.8288630">
	<ele>1685.20</ele>
	<time>2023-11-18T11:23:30.000Z</time>
</trkpt>
<trkpt lat="45.8950840" lon="9.8288620">
	<ele>1684.80</ele>
	<time>2023-11-18T11:23:31.000Z</time>
</trkpt>
<trkpt lat="45.8950740" lon="9.8288610">
	<ele>1684.60</ele>
	<time>2023-11-18T11:23:32.000Z</time>
</trkpt>
<trkpt lat="45.8950670" lon="9.8288610">
	<ele>1684.60</ele>
	<time>2023-11-18T11:23:33.000Z</time>
</trkpt>
<trkpt lat="45.8950610" lon="9.8288630">
	<ele>1684.20</ele>
	<time>2023-11-18T11:23:34.000Z</time>
</trkpt>
<trkpt lat="45.8950560" lon="9.8288650">
	<ele>1684.00</ele>
	<time>2023-11-18T11:23:35.000Z</time>
</trkpt>
<trkpt lat="45.8950480" lon="9.8288660">
	<ele>1683.80</ele>
	<time>2023-11-18T11:23:36.000Z</time>
</trkpt>
<trkpt lat="45.8950400" lon="9.8288650">
	<ele>1683.60</ele>
	<time>2023-11-18T11:23:37.000Z</time>
</trkpt>
<trkpt lat="45.8950300" lon="9.8288630">
	<ele>1683.20</ele>
	<time>2023-11-18T11:23:38.000Z</time>
</trkpt>
<trkpt lat="45.8950240" lon="9.8288610">
	<ele>1682.80</ele>
	<time>2023-11-18T11:23:39.000Z</time>
</trkpt>
<trkpt lat="45.8950180" lon="9.8288590">
	<ele>1682.60</ele>
	<time>2023-11-18T11:23:40.000Z</time>
</trkpt>
<trkpt lat="45.8950100" lon="9.8288570">
	<ele>1682.20</ele>
	<time>2023-11-18T11:23:41.000Z</time>
</trkpt>
<trkpt lat="45.8950000" lon="9.8288550">
	<ele>1681.80</ele>
	<time>2023-11-18T11:23:42.000Z</time>
</trkpt>
<trkpt lat="45.8949900" lon="9.8288500">
	<ele>1681.60</ele>
	<time>2023-11-18T11:23:43.000Z</time>
</trkpt>
<trkpt lat="45.8949830" lon="9.8288460">
	<ele>1681.20</ele>
	<time>2023-11-18T11:23:44.000Z</time>
</trkpt>
<trkpt lat="45.8949760" lon="9.8288420">
	<ele>1681.00</ele>
	<time>2023-11-18T11:23:45.000Z</time>
</trkpt>
<trkpt lat="45.8949670" lon="9.8288400">
	<ele>1680.80</ele>
	<time>2023-11-18T11:23:46.000Z</time>
</trkpt>
<trkpt lat="45.8949610" lon="9.8288400">
	<ele>1680.60</ele>
	<time>2023-11-18T11:23:47.000Z</time>
</trkpt>
<trkpt lat="45.8949540" lon="9.8288450">
	<ele>1680.40</ele>
	<time>2023-11-18T11:23:48.000Z</time>
</trkpt>
<trkpt lat="45.8949480" lon="9.8288480">
	<ele>1680.00</ele>
	<time>2023-11-18T11:23:49.000Z</time>
</trkpt>
<trkpt lat="45.8949420" lon="9.8288470">
	<ele>1679.80</ele>
	<time>2023-11-18T11:23:50.000Z</time>
</trkpt>
<trkpt lat="45.8949360" lon="9.8288470">
	<ele>1679.20</ele>
	<time>2023-11-18T11:23:51.000Z</time>
</trkpt>
<trkpt lat="45.8949310" lon="9.8288470">
	<ele>1678.80</ele>
	<time>2023-11-18T11:23:52.000Z</time>
</trkpt>
<trkpt lat="45.8949240" lon="9.8288460">
	<ele>1678.60</ele>
	<time>2023-11-18T11:23:53.000Z</time>
</trkpt>
<trkpt lat="45.8949180" lon="9.8288420">
	<ele>1678.00</ele>
	<time>2023-11-18T11:23:54.000Z</time>
</trkpt>
<trkpt lat="45.8949150" lon="9.8288430">
	<ele>1677.40</ele>
	<time>2023-11-18T11:23:55.000Z</time>
</trkpt>
<trkpt lat="45.8949110" lon="9.8288450">
	<ele>1677.20</ele>
	<time>2023-11-18T11:23:56.000Z</time>
</trkpt>
<trkpt lat="45.8949050" lon="9.8288440">
	<ele>1676.40</ele>
	<time>2023-11-18T11:23:57.000Z</time>
</trkpt>
<trkpt lat="45.8948970" lon="9.8288400">
	<ele>1676.00</ele>
	<time>2023-11-18T11:23:58.000Z</time>
</trkpt>
<trkpt lat="45.8948900" lon="9.8288380">
	<ele>1675.80</ele>
	<time>2023-11-18T11:23:59.000Z</time>
</trkpt>
<trkpt lat="45.8948810" lon="9.8288380">
	<ele>1675.40</ele>
	<time>2023-11-18T11:24:00.000Z</time>
</trkpt>
<trkpt lat="45.8948760" lon="9.8288360">
	<ele>1675.00</ele>
	<time>2023-11-18T11:24:01.000Z</time>
</trkpt>
<trkpt lat="45.8948720" lon="9.8288370">
	<ele>1674.80</ele>
	<time>2023-11-18T11:24:02.000Z</time>
</trkpt>
<trkpt lat="45.8948680" lon="9.8288360">
	<ele>1674.60</ele>
	<time>2023-11-18T11:24:03.000Z</time>
</trkpt>
<trkpt lat="45.8948620" lon="9.8288340">
	<ele>1674.40</ele>
	<time>2023-11-18T11:24:04.000Z</time>
</trkpt>
<trkpt lat="45.8948550" lon="9.8288320">
	<ele>1674.00</ele>
	<time>2023-11-18T11:24:05.000Z</time>
</trkpt>
<trkpt lat="45.8948480" lon="9.8288300">
	<ele>1673.80</ele>
	<time>2023-11-18T11:24:06.000Z</time>
</trkpt>
<trkpt lat="45.8948410" lon="9.8288320">
	<ele>1673.40</ele>
	<time>2023-11-18T11:24:07.000Z</time>
</trkpt>
<trkpt lat="45.8948370" lon="9.8288340">
	<ele>1673.00</ele>
	<time>2023-11-18T11:24:08.000Z</time>
</trkpt>
<trkpt lat="45.8948320" lon="9.8288360">
	<ele>1672.80</ele>
	<time>2023-11-18T11:24:09.000Z</time>
</trkpt>
<trkpt lat="45.8948260" lon="9.8288350">
	<ele>1672.60</ele>
	<time>2023-11-18T11:24:10.000Z</time>
</trkpt>
<trkpt lat="45.8948190" lon="9.8288320">
	<ele>1672.20</ele>
	<time>2023-11-18T11:24:11.000Z</time>
</trkpt>
<trkpt lat="45.8948100" lon="9.8288270">
	<ele>1671.80</ele>
	<time>2023-11-18T11:24:12.000Z</time>
</trkpt>
<trkpt lat="45.8948010" lon="9.8288220">
	<ele>1671.60</ele>
	<time>2023-11-18T11:24:13.000Z</time>
</trkpt>
<trkpt lat="45.8947930" lon="9.8288170">
	<ele>1671.00</ele>
	<time>2023-11-18T11:24:14.000Z</time>
</trkpt>
<trkpt lat="45.8947870" lon="9.8288130">
	<ele>1670.80</ele>
	<time>2023-11-18T11:24:15.000Z</time>
</trkpt>
<trkpt lat="45.8947820" lon="9.8288100">
	<ele>1670.20</ele>
	<time>2023-11-18T11:24:16.000Z</time>
</trkpt>
<trkpt lat="45.8947790" lon="9.8288070">
	<ele>1669.80</ele>
	<time>2023-11-18T11:24:17.000Z</time>
</trkpt>
<trkpt lat="45.8947700" lon="9.8288090">
	<ele>1669.40</ele>
	<time>2023-11-18T11:24:18.000Z</time>
</trkpt>
<trkpt lat="45.8947640" lon="9.8288090">
	<ele>1669.20</ele>
	<time>2023-11-18T11:24:19.000Z</time>
</trkpt>
<trkpt lat="45.8947570" lon="9.8288110">
	<ele>1669.00</ele>
	<time>2023-11-18T11:24:20.000Z</time>
</trkpt>
<trkpt lat="45.8947500" lon="9.8288120">
	<ele>1668.80</ele>
	<time>2023-11-18T11:24:21.000Z</time>
</trkpt>
<trkpt lat="45.8947430" lon="9.8288130">
	<ele>1668.60</ele>
	<time>2023-11-18T11:24:22.000Z</time>
</trkpt>
<trkpt lat="45.8947370" lon="9.8288130">
	<ele>1668.20</ele>
	<time>2023-11-18T11:24:23.000Z</time>
</trkpt>
<trkpt lat="45.8947320" lon="9.8288110">
	<ele>1668.00</ele>
	<time>2023-11-18T11:24:24.000Z</time>
</trkpt>
<trkpt lat="45.8947310" lon="9.8288050">
	<ele>1667.60</ele>
	<time>2023-11-18T11:24:25.000Z</time>
</trkpt>
<trkpt lat="45.8947260" lon="9.8287930">
	<ele>1667.40</ele>
	<time>2023-11-18T11:24:26.000Z</time>
</trkpt>
<trkpt lat="45.8947220" lon="9.8287830">
	<ele>1667.20</ele>
	<time>2023-11-18T11:24:27.000Z</time>
</trkpt>
<trkpt lat="45.8947170" lon="9.8287720">
	<ele>1666.80</ele>
	<time>2023-11-18T11:24:28.000Z</time>
</trkpt>
<trkpt lat="45.8947110" lon="9.8287670">
	<ele>1666.80</ele>
	<time>2023-11-18T11:24:29.000Z</time>
</trkpt>
<trkpt lat="45.8947060" lon="9.8287630">
	<ele>1666.60</ele>
	<time>2023-11-18T11:24:30.000Z</time>
</trkpt>
<trkpt lat="45.8946990" lon="9.8287590">
	<ele>1666.40</ele>
	<time>2023-11-18T11:24:31.000Z</time>
</trkpt>
<trkpt lat="45.8946940" lon="9.8287570">
	<ele>1666.20</ele>
	<time>2023-11-18T11:24:32.000Z</time>
</trkpt>
<trkpt lat="45.8946880" lon="9.8287500">
	<ele>1665.80</ele>
	<time>2023-11-18T11:24:33.000Z</time>
</trkpt>
<trkpt lat="45.8946820" lon="9.8287450">
	<ele>1665.60</ele>
	<time>2023-11-18T11:24:34.000Z</time>
</trkpt>
<trkpt lat="45.8946770" lon="9.8287400">
	<ele>1665.20</ele>
	<time>2023-11-18T11:24:35.000Z</time>
</trkpt>
<trkpt lat="45.8946720" lon="9.8287390">
	<ele>1665.00</ele>
	<time>2023-11-18T11:24:36.000Z</time>
</trkpt>
<trkpt lat="45.8946710" lon="9.8287390">
	<ele>1664.60</ele>
	<time>2023-11-18T11:24:37.000Z</time>
</trkpt>
<trkpt lat="45.8946700" lon="9.8287410">
	<ele>1664.40</ele>
	<time>2023-11-18T11:24:38.000Z</time>
</trkpt>
<trkpt lat="45.8946670" lon="9.8287370">
	<ele>1664.20</ele>
	<time>2023-11-18T11:24:39.000Z</time>
</trkpt>
<trkpt lat="45.8946620" lon="9.8287320">
	<ele>1664.00</ele>
	<time>2023-11-18T11:24:40.000Z</time>
</trkpt>
<trkpt lat="45.8946550" lon="9.8287330">
	<ele>1663.60</ele>
	<time>2023-11-18T11:24:41.000Z</time>
</trkpt>
<trkpt lat="45.8946490" lon="9.8287340">
	<ele>1663.40</ele>
	<time>2023-11-18T11:24:42.000Z</time>
</trkpt>
<trkpt lat="45.8946460" lon="9.8287340">
	<ele>1663.20</ele>
	<time>2023-11-18T11:24:43.000Z</time>
</trkpt>
<trkpt lat="45.8946440" lon="9.8287320">
	<ele>1663.20</ele>
	<time>2023-11-18T11:24:44.000Z</time>
</trkpt>
<trkpt lat="45.8946420" lon="9.8287330">
	<ele>1662.80</ele>
	<time>2023-11-18T11:24:45.000Z</time>
</trkpt>
<trkpt lat="45.8946380" lon="9.8287300">
	<ele>1662.60</ele>
	<time>2023-11-18T11:24:46.000Z</time>
</trkpt>
<trkpt lat="45.8946320" lon="9.8287290">
	<ele>1662.40</ele>
	<time>2023-11-18T11:24:47.000Z</time>
</trkpt>
<trkpt lat="45.8946270" lon="9.8287250">
	<ele>1662.20</ele>
	<time>2023-11-18T11:24:48.000Z</time>
</trkpt>
<trkpt lat="45.8946200" lon="9.8287210">
	<ele>1662.20</ele>
	<time>2023-11-18T11:24:49.000Z</time>
</trkpt>
<trkpt lat="45.8946120" lon="9.8287180">
	<ele>1662.20</ele>
	<time>2023-11-18T11:24:50.000Z</time>
</trkpt>
<trkpt lat="45.8946040" lon="9.8287180">
	<ele>1662.00</ele>
	<time>2023-11-18T11:24:51.000Z</time>
</trkpt>
<trkpt lat="45.8945960" lon="9.8287180">
	<ele>1661.80</ele>
	<time>2023-11-18T11:24:52.000Z</time>
</trkpt>
<trkpt lat="45.8945890" lon="9.8287180">
	<ele>1661.60</ele>
	<time>2023-11-18T11:24:53.000Z</time>
</trkpt>
<trkpt lat="45.8945830" lon="9.8287180">
	<ele>1661.60</ele>
	<time>2023-11-18T11:24:54.000Z</time>
</trkpt>
<trkpt lat="45.8945790" lon="9.8287180">
	<ele>1661.40</ele>
	<time>2023-11-18T11:24:55.000Z</time>
</trkpt>
<trkpt lat="45.8945730" lon="9.8287180">
	<ele>1661.20</ele>
	<time>2023-11-18T11:24:56.000Z</time>
</trkpt>
<trkpt lat="45.8945650" lon="9.8287190">
	<ele>1661.00</ele>
	<time>2023-11-18T11:24:57.000Z</time>
</trkpt>
<trkpt lat="45.8945580" lon="9.8287170">
	<ele>1660.80</ele>
	<time>2023-11-18T11:24:58.000Z</time>
</trkpt>
<trkpt lat="45.8945570" lon="9.8287170">
	<ele>1660.60</ele>
	<time>2023-11-18T11:24:59.000Z</time>
</trkpt>
<trkpt lat="45.8945560" lon="9.8287180">
	<ele>1660.60</ele>
	<time>2023-11-18T11:25:00.000Z</time>
</trkpt>
<trkpt lat="45.8945540" lon="9.8287190">
	<ele>1660.40</ele>
	<time>2023-11-18T11:25:01.000Z</time>
</trkpt>
<trkpt lat="45.8945530" lon="9.8287220">
	<ele>1660.20</ele>
	<time>2023-11-18T11:25:02.000Z</time>
</trkpt>
<trkpt lat="45.8945530" lon="9.8287240">
	<ele>1660.20</ele>
	<time>2023-11-18T11:25:03.000Z</time>
</trkpt>
<trkpt lat="45.8945540" lon="9.8287260">
	<ele>1660.20</ele>
	<time>2023-11-18T11:25:04.000Z</time>
</trkpt>
<trkpt lat="45.8945550" lon="9.8287290">
	<ele>1660.20</ele>
	<time>2023-11-18T11:25:05.000Z</time>
</trkpt>
<trkpt lat="45.8945560" lon="9.8287310">
	<ele>1660.20</ele>
	<time>2023-11-18T11:25:06.000Z</time>
</trkpt>
<trkpt lat="45.8945570" lon="9.8287300">
	<ele>1660.00</ele>
	<time>2023-11-18T11:25:07.000Z</time>
</trkpt>
<trkpt lat="45.8945580" lon="9.8287290">
	<ele>1660.00</ele>
	<time>2023-11-18T11:25:08.000Z</time>
</trkpt>
<trkpt lat="45.8945600" lon="9.8287270">
	<ele>1660.00</ele>
	<time>2023-11-18T11:25:09.000Z</time>
</trkpt>
<trkpt lat="45.8945600" lon="9.8287270">
	<ele>1660.00</ele>
	<time>2023-11-18T11:25:10.000Z</time>
</trkpt>
<trkpt lat="45.8945610" lon="9.8287270">
	<ele>1660.00</ele>
	<time>2023-11-18T11:25:11.000Z</time>
</trkpt>
<trkpt lat="45.8945570" lon="9.8287290">
	<ele>1660.00</ele>
	<time>2023-11-18T11:25:12.000Z</time>
</trkpt>
<trkpt lat="45.8945560" lon="9.8287270">
	<ele>1660.00</ele>
	<time>2023-11-18T11:25:13.000Z</time>
</trkpt>
<trkpt lat="45.8945550" lon="9.8287280">
	<ele>1660.00</ele>
	<time>2023-11-18T11:25:14.000Z</time>
</trkpt>
<trkpt lat="45.8945550" lon="9.8287270">
	<ele>1660.00</ele>
	<time>2023-11-18T11:25:15.000Z</time>
</trkpt>
<trkpt lat="45.8945550" lon="9.8287250">
	<ele>1660.00</ele>
	<time>2023-11-18T11:25:16.000Z</time>
</trkpt>
<trkpt lat="45.8945540" lon="9.8287230">
	<ele>1660.00</ele>
	<time>2023-11-18T11:25:17.000Z</time>
</trkpt>
<trkpt lat="45.8945540" lon="9.8287200">
	<ele>1660.00</ele>
	<time>2023-11-18T11:25:18.000Z</time>
</trkpt>
<trkpt lat="45.8945550" lon="9.8287180">
	<ele>1660.00</ele>
	<time>2023-11-18T11:25:19.000Z</time>
</trkpt>
<trkpt lat="45.8945570" lon="9.8287200">
	<ele>1660.00</ele>
	<time>2023-11-18T11:25:20.000Z</time>
</trkpt>
<trkpt lat="45.8945600" lon="9.8287220">
	<ele>1660.20</ele>
	<time>2023-11-18T11:25:21.000Z</time>
</trkpt>
<trkpt lat="45.8945620" lon="9.8287230">
	<ele>1660.00</ele>
	<time>2023-11-18T11:25:22.000Z</time>
</trkpt>
<trkpt lat="45.8945580" lon="9.8287230">
	<ele>1660.20</ele>
	<time>2023-11-18T11:25:23.000Z</time>
</trkpt>
<trkpt lat="45.8945540" lon="9.8287220">
	<ele>1660.20</ele>
	<time>2023-11-18T11:25:24.000Z</time>
</trkpt>
<trkpt lat="45.8945530" lon="9.8287220">
	<ele>1660.20</ele>
	<time>2023-11-18T11:25:25.000Z</time>
</trkpt>
<trkpt lat="45.8945530" lon="9.8287220">
	<ele>1660.00</ele>
	<time>2023-11-18T11:25:26.000Z</time>
</trkpt>
<trkpt lat="45.8945530" lon="9.8287220">
	<ele>1660.00</ele>
	<time>2023-11-18T11:25:27.000Z</time>
</trkpt>
<trkpt lat="45.8945530" lon="9.8287220">
	<ele>1660.00</ele>
	<time>2023-11-18T11:25:28.000Z</time>
</trkpt>
<trkpt lat="45.8945530" lon="9.8287220">
	<ele>1660.00</ele>
	<time>2023-11-18T11:25:29.000Z</time>
</trkpt>
<trkpt lat="45.8945530" lon="9.8287220">
	<ele>1660.20</ele>
	<time>2023-11-18T11:25:30.000Z</time>
</trkpt>
<trkpt lat="45.8945530" lon="9.8287220">
	<ele>1660.00</ele>
	<time>2023-11-18T11:25:31.000Z</time>
</trkpt>
<trkpt lat="45.8945530" lon="9.8287220">
	<ele>1660.00</ele>
	<time>2023-11-18T11:25:32.000Z</time>
</trkpt>
<trkpt lat="45.8945530" lon="9.8287220">
	<ele>1660.00</ele>
	<time>2023-11-18T11:25:33.000Z</time>
</trkpt>
<trkpt lat="45.8945530" lon="9.8287220">
	<ele>1660.00</ele>
	<time>2023-11-18T11:25:34.000Z</time>
</trkpt>
<trkpt lat="45.8945530" lon="9.8287220">
	<ele>1660.00</ele>
	<time>2023-11-18T11:25:35.000Z</time>
</trkpt>
<trkpt lat="45.8945530" lon="9.8287220">
	<ele>1660.00</ele>
	<time>2023-11-18T11:25:36.000Z</time>
</trkpt>
<trkpt lat="45.8945530" lon="9.8287220">
	<ele>1660.00</ele>
	<time>2023-11-18T11:25:37.000Z</time>
</trkpt>
<trkpt lat="45.8945530" lon="9.8287230">
	<ele>1660.00</ele>
	<time>2023-11-18T11:25:38.000Z</time>
</trkpt>
<trkpt lat="45.8945530" lon="9.8287230">
	<ele>1660.40</ele>
	<time>2023-11-18T11:25:39.000Z</time>
</trkpt>
<trkpt lat="45.8945530" lon="9.8287230">
	<ele>1660.40</ele>
	<time>2023-11-18T11:25:40.000Z</time>
</trkpt>
<trkpt lat="45.8945530" lon="9.8287230">
	<ele>1660.60</ele>
	<time>2023-11-18T11:25:41.000Z</time>
</trkpt>
<trkpt lat="45.8945530" lon="9.8287240">
	<ele>1660.60</ele>
	<time>2023-11-18T11:25:42.000Z</time>
</trkpt>
<trkpt lat="45.8945530" lon="9.8287240">
	<ele>1660.60</ele>
	<time>2023-11-18T11:25:43.000Z</time>
</trkpt>
<trkpt lat="45.8945540" lon="9.8287250">
	<ele>1660.60</ele>
	<time>2023-11-18T11:25:44.000Z</time>
</trkpt>
<trkpt lat="45.8945540" lon="9.8287260">
	<ele>1660.60</ele>
	<time>2023-11-18T11:25:45.000Z</time>
</trkpt>
<trkpt lat="45.8945540" lon="9.8287260">
	<ele>1660.60</ele>
	<time>2023-11-18T11:25:46.000Z</time>
</trkpt>
<trkpt lat="45.8945540" lon="9.8287270">
	<ele>1660.60</ele>
	<time>2023-11-18T11:25:47.000Z</time>
</trkpt>
<trkpt lat="45.8945540" lon="9.8287270">
	<ele>1660.60</ele>
	<time>2023-11-18T11:25:48.000Z</time>
</trkpt>
<trkpt lat="45.8945540" lon="9.8287270">
	<ele>1660.60</ele>
	<time>2023-11-18T11:25:49.000Z</time>
</trkpt>
<trkpt lat="45.8945540" lon="9.8287270">
	<ele>1660.60</ele>
	<time>2023-11-18T11:25:50.000Z</time>
</trkpt>
<trkpt lat="45.8945540" lon="9.8287270">
	<ele>1660.80</ele>
	<time>2023-11-18T11:25:51.000Z</time>
</trkpt>
<trkpt lat="45.8945540" lon="9.8287270">
	<ele>1660.80</ele>
	<time>2023-11-18T11:25:52.000Z</time>
</trkpt>
<trkpt lat="45.8945540" lon="9.8287270">
	<ele>1660.80</ele>
	<time>2023-11-18T11:25:53.000Z</time>
</trkpt>
<trkpt lat="45.8945540" lon="9.8287270">
	<ele>1660.60</ele>
	<time>2023-11-18T11:25:54.000Z</time>
</trkpt>
<trkpt lat="45.8945540" lon="9.8287270">
	<ele>1660.60</ele>
	<time>2023-11-18T11:25:55.000Z</time>
</trkpt>
<trkpt lat="45.8945550" lon="9.8287270">
	<ele>1660.60</ele>
	<time>2023-11-18T11:25:56.000Z</time>
</trkpt>
<trkpt lat="45.8945560" lon="9.8287270">
	<ele>1660.40</ele>
	<time>2023-11-18T11:25:57.000Z</time>
</trkpt>
<trkpt lat="45.8945560" lon="9.8287270">
	<ele>1660.20</ele>
	<time>2023-11-18T11:25:58.000Z</time>
</trkpt>
<trkpt lat="45.8945560" lon="9.8287270">
	<ele>1660.00</ele>
	<time>2023-11-18T11:25:59.000Z</time>
</trkpt>
<trkpt lat="45.8945560" lon="9.8287270">
	<ele>1660.00</ele>
	<time>2023-11-18T11:26:00.000Z</time>
</trkpt>
<trkpt lat="45.8945560" lon="9.8287270">
	<ele>1660.00</ele>
	<time>2023-11-18T11:26:01.000Z</time>
</trkpt>
<trkpt lat="45.8945560" lon="9.8287260">
	<ele>1660.00</ele>
	<time>2023-11-18T11:26:02.000Z</time>
</trkpt>
<trkpt lat="45.8945560" lon="9.8287260">
	<ele>1660.00</ele>
	<time>2023-11-18T11:26:03.000Z</time>
</trkpt>
<trkpt lat="45.8945560" lon="9.8287250">
	<ele>1660.00</ele>
	<time>2023-11-18T11:26:04.000Z</time>
</trkpt>
<trkpt lat="45.8945560" lon="9.8287230">
	<ele>1660.00</ele>
	<time>2023-11-18T11:26:05.000Z</time>
</trkpt>
<trkpt lat="45.8945560" lon="9.8287170">
	<ele>1660.00</ele>
	<time>2023-11-18T11:26:06.000Z</time>
</trkpt>
<trkpt lat="45.8945560" lon="9.8287150">
	<ele>1660.00</ele>
	<time>2023-11-18T11:26:07.000Z</time>
</trkpt>
<trkpt lat="45.8945560" lon="9.8287150">
	<ele>1660.00</ele>
	<time>2023-11-18T11:26:08.000Z</time>
</trkpt>
<trkpt lat="45.8945560" lon="9.8287140">
	<ele>1660.20</ele>
	<time>2023-11-18T11:26:09.000Z</time>
</trkpt>
<trkpt lat="45.8945560" lon="9.8287140">
	<ele>1660.20</ele>
	<time>2023-11-18T11:26:10.000Z</time>
</trkpt>
<trkpt lat="45.8945560" lon="9.8287120">
	<ele>1660.20</ele>
	<time>2023-11-18T11:26:11.000Z</time>
</trkpt>
<trkpt lat="45.8945560" lon="9.8287120">
	<ele>1660.20</ele>
	<time>2023-11-18T11:26:12.000Z</time>
</trkpt>
<trkpt lat="45.8945550" lon="9.8287110">
	<ele>1660.20</ele>
	<time>2023-11-18T11:26:13.000Z</time>
</trkpt>
<trkpt lat="45.8945540" lon="9.8287110">
	<ele>1660.00</ele>
	<time>2023-11-18T11:26:14.000Z</time>
</trkpt>
<trkpt lat="45.8945540" lon="9.8287100">
	<ele>1660.00</ele>
	<time>2023-11-18T11:26:15.000Z</time>
</trkpt>
<trkpt lat="45.8945540" lon="9.8287100">
	<ele>1660.00</ele>
	<time>2023-11-18T11:26:16.000Z</time>
</trkpt>
<trkpt lat="45.8945540" lon="9.8287090">
	<ele>1660.00</ele>
	<time>2023-11-18T11:26:17.000Z</time>
</trkpt>
<trkpt lat="45.8945540" lon="9.8287090">
	<ele>1660.00</ele>
	<time>2023-11-18T11:26:18.000Z</time>
</trkpt>
<trkpt lat="45.8945540" lon="9.8287090">
	<ele>1660.00</ele>
	<time>2023-11-18T11:26:19.000Z</time>
</trkpt>
<trkpt lat="45.8945540" lon="9.8287090">
	<ele>1660.00</ele>
	<time>2023-11-18T11:26:20.000Z</time>
</trkpt>
<trkpt lat="45.8945530" lon="9.8287090">
	<ele>1660.00</ele>
	<time>2023-11-18T11:26:21.000Z</time>
</trkpt>
<trkpt lat="45.8945530" lon="9.8287080">
	<ele>1660.00</ele>
	<time>2023-11-18T11:26:22.000Z</time>
</trkpt>
<trkpt lat="45.8945530" lon="9.8287080">
	<ele>1660.00</ele>
	<time>2023-11-18T11:26:23.000Z</time>
</trkpt>
<trkpt lat="45.8945530" lon="9.8287080">
	<ele>1660.00</ele>
	<time>2023-11-18T11:26:24.000Z</time>
</trkpt>
<trkpt lat="45.8945530" lon="9.8287080">
	<ele>1660.00</ele>
	<time>2023-11-18T11:26:25.000Z</time>
</trkpt>
<trkpt lat="45.8945520" lon="9.8287080">
	<ele>1660.00</ele>
	<time>2023-11-18T11:26:26.000Z</time>
</trkpt>
<trkpt lat="45.8945520" lon="9.8287080">
	<ele>1660.00</ele>
	<time>2023-11-18T11:26:27.000Z</time>
</trkpt>
<trkpt lat="45.8945510" lon="9.8287070">
	<ele>1660.00</ele>
	<time>2023-11-18T11:26:28.000Z</time>
</trkpt>
<trkpt lat="45.8945510" lon="9.8287070">
	<ele>1660.00</ele>
	<time>2023-11-18T11:26:29.000Z</time>
</trkpt>
<trkpt lat="45.8945510" lon="9.8287070">
	<ele>1660.00</ele>
	<time>2023-11-18T11:26:30.000Z</time>
</trkpt>
<trkpt lat="45.8945510" lon="9.8287070">
	<ele>1660.00</ele>
	<time>2023-11-18T11:26:31.000Z</time>
</trkpt>
<trkpt lat="45.8945510" lon="9.8287070">
	<ele>1660.00</ele>
	<time>2023-11-18T11:26:32.000Z</time>
</trkpt>
<trkpt lat="45.8945500" lon="9.8287070">
	<ele>1660.00</ele>
	<time>2023-11-18T11:26:33.000Z</time>
</trkpt>
<trkpt lat="45.8945500" lon="9.8287070">
	<ele>1660.00</ele>
	<time>2023-11-18T11:26:34.000Z</time>
</trkpt>
<trkpt lat="45.8945500" lon="9.8287070">
	<ele>1660.00</ele>
	<time>2023-11-18T11:26:35.000Z</time>
</trkpt>
<trkpt lat="45.8945500" lon="9.8287070">
	<ele>1660.00</ele>
	<time>2023-11-18T11:26:36.000Z</time>
</trkpt>
<trkpt lat="45.8945460" lon="9.8287060">
	<ele>1660.00</ele>
	<time>2023-11-18T11:26:37.000Z</time>
</trkpt>
<trkpt lat="45.8945300" lon="9.8287050">
	<ele>1660.00</ele>
	<time>2023-11-18T11:26:38.000Z</time>
</trkpt>
<trkpt lat="45.8945150" lon="9.8287060">
	<ele>1660.00</ele>
	<time>2023-11-18T11:26:39.000Z</time>
</trkpt>
<trkpt lat="45.8944990" lon="9.8287070">
	<ele>1660.00</ele>
	<time>2023-11-18T11:26:40.000Z</time>
</trkpt>
<trkpt lat="45.8944830" lon="9.8287090">
	<ele>1660.00</ele>
	<time>2023-11-18T11:26:41.000Z</time>
</trkpt>
<trkpt lat="45.8944730" lon="9.8287110">
	<ele>1660.00</ele>
	<time>2023-11-18T11:26:42.000Z</time>
</trkpt>
<trkpt lat="45.8944600" lon="9.8287150">
	<ele>1660.00</ele>
	<time>2023-11-18T11:26:43.000Z</time>
</trkpt>
<trkpt lat="45.8944460" lon="9.8287190">
	<ele>1660.00</ele>
	<time>2023-11-18T11:26:44.000Z</time>
</trkpt>
<trkpt lat="45.8944330" lon="9.8287250">
	<ele>1660.00</ele>
	<time>2023-11-18T11:26:45.000Z</time>
</trkpt>
<trkpt lat="45.8944190" lon="9.8287300">
	<ele>1660.00</ele>
	<time>2023-11-18T11:26:46.000Z</time>
</trkpt>
<trkpt lat="45.8944090" lon="9.8287390">
	<ele>1660.00</ele>
	<time>2023-11-18T11:26:47.000Z</time>
</trkpt>
<trkpt lat="45.8944010" lon="9.8287480">
	<ele>1660.00</ele>
	<time>2023-11-18T11:26:48.000Z</time>
</trkpt>
<trkpt lat="45.8943930" lon="9.8287580">
	<ele>1660.00</ele>
	<time>2023-11-18T11:26:49.000Z</time>
</trkpt>
<trkpt lat="45.8943850" lon="9.8287680">
	<ele>1660.00</ele>
	<time>2023-11-18T11:26:50.000Z</time>
</trkpt>
<trkpt lat="45.8943800" lon="9.8287790">
	<ele>1660.00</ele>
	<time>2023-11-18T11:26:51.000Z</time>
</trkpt>
<trkpt lat="45.8943720" lon="9.8287910">
	<ele>1660.00</ele>
	<time>2023-11-18T11:26:52.000Z</time>
</trkpt>
<trkpt lat="45.8943650" lon="9.8287990">
	<ele>1660.00</ele>
	<time>2023-11-18T11:26:53.000Z</time>
</trkpt>
<trkpt lat="45.8943610" lon="9.8288040">
	<ele>1660.20</ele>
	<time>2023-11-18T11:26:54.000Z</time>
</trkpt>
<trkpt lat="45.8943560" lon="9.8288090">
	<ele>1660.20</ele>
	<time>2023-11-18T11:26:55.000Z</time>
</trkpt>
<trkpt lat="45.8943510" lon="9.8288160">
	<ele>1660.40</ele>
	<time>2023-11-18T11:26:56.000Z</time>
</trkpt>
<trkpt lat="45.8943500" lon="9.8288170">
	<ele>1660.40</ele>
	<time>2023-11-18T11:26:57.000Z</time>
</trkpt>
<trkpt lat="45.8943470" lon="9.8288210">
	<ele>1660.60</ele>
	<time>2023-11-18T11:26:58.000Z</time>
</trkpt>
<trkpt lat="45.8943420" lon="9.8288260">
	<ele>1660.60</ele>
	<time>2023-11-18T11:26:59.000Z</time>
</trkpt>
<trkpt lat="45.8943370" lon="9.8288330">
	<ele>1660.80</ele>
	<time>2023-11-18T11:27:00.000Z</time>
</trkpt>
<trkpt lat="45.8943330" lon="9.8288400">
	<ele>1661.00</ele>
	<time>2023-11-18T11:27:01.000Z</time>
</trkpt>
<trkpt lat="45.8943270" lon="9.8288430">
	<ele>1661.20</ele>
	<time>2023-11-18T11:27:02.000Z</time>
</trkpt>
<trkpt lat="45.8943220" lon="9.8288530">
	<ele>1661.40</ele>
	<time>2023-11-18T11:27:03.000Z</time>
</trkpt>
<trkpt lat="45.8943190" lon="9.8288640">
	<ele>1661.40</ele>
	<time>2023-11-18T11:27:04.000Z</time>
</trkpt>
<trkpt lat="45.8943120" lon="9.8288720">
	<ele>1661.60</ele>
	<time>2023-11-18T11:27:05.000Z</time>
</trkpt>
<trkpt lat="45.8943050" lon="9.8288760">
	<ele>1661.60</ele>
	<time>2023-11-18T11:27:06.000Z</time>
</trkpt>
<trkpt lat="45.8943000" lon="9.8288880">
	<ele>1661.60</ele>
	<time>2023-11-18T11:27:07.000Z</time>
</trkpt>
<trkpt lat="45.8942970" lon="9.8289010">
	<ele>1661.80</ele>
	<time>2023-11-18T11:27:08.000Z</time>
</trkpt>
<trkpt lat="45.8942950" lon="9.8289170">
	<ele>1662.00</ele>
	<time>2023-11-18T11:27:09.000Z</time>
</trkpt>
<trkpt lat="45.8942890" lon="9.8289290">
	<ele>1662.00</ele>
	<time>2023-11-18T11:27:10.000Z</time>
</trkpt>
<trkpt lat="45.8942820" lon="9.8289360">
	<ele>1662.20</ele>
	<time>2023-11-18T11:27:11.000Z</time>
</trkpt>
<trkpt lat="45.8942750" lon="9.8289380">
	<ele>1662.40</ele>
	<time>2023-11-18T11:27:12.000Z</time>
</trkpt>
<trkpt lat="45.8942710" lon="9.8289490">
	<ele>1662.40</ele>
	<time>2023-11-18T11:27:13.000Z</time>
</trkpt>
<trkpt lat="45.8942690" lon="9.8289530">
	<ele>1662.80</ele>
	<time>2023-11-18T11:27:14.000Z</time>
</trkpt>
<trkpt lat="45.8942660" lon="9.8289650">
	<ele>1663.00</ele>
	<time>2023-11-18T11:27:15.000Z</time>
</trkpt>
<trkpt lat="45.8942620" lon="9.8289740">
	<ele>1663.00</ele>
	<time>2023-11-18T11:27:16.000Z</time>
</trkpt>
<trkpt lat="45.8942580" lon="9.8289790">
	<ele>1663.00</ele>
	<time>2023-11-18T11:27:17.000Z</time>
</trkpt>
<trkpt lat="45.8942550" lon="9.8289880">
	<ele>1663.20</ele>
	<time>2023-11-18T11:27:18.000Z</time>
</trkpt>
<trkpt lat="45.8942520" lon="9.8290010">
	<ele>1663.20</ele>
	<time>2023-11-18T11:27:19.000Z</time>
</trkpt>
<trkpt lat="45.8942500" lon="9.8290080">
	<ele>1663.40</ele>
	<time>2023-11-18T11:27:20.000Z</time>
</trkpt>
<trkpt lat="45.8942450" lon="9.8290160">
	<ele>1663.40</ele>
	<time>2023-11-18T11:27:21.000Z</time>
</trkpt>
<trkpt lat="45.8942400" lon="9.8290260">
	<ele>1663.60</ele>
	<time>2023-11-18T11:27:22.000Z</time>
</trkpt>
<trkpt lat="45.8942350" lon="9.8290420">
	<ele>1663.80</ele>
	<time>2023-11-18T11:27:23.000Z</time>
</trkpt>
<trkpt lat="45.8942300" lon="9.8290610">
	<ele>1663.80</ele>
	<time>2023-11-18T11:27:24.000Z</time>
</trkpt>
<trkpt lat="45.8942240" lon="9.8290750">
	<ele>1663.80</ele>
	<time>2023-11-18T11:27:25.000Z</time>
</trkpt>
<trkpt lat="45.8942170" lon="9.8290900">
	<ele>1664.00</ele>
	<time>2023-11-18T11:27:26.000Z</time>
</trkpt>
<trkpt lat="45.8942120" lon="9.8291060">
	<ele>1664.00</ele>
	<time>2023-11-18T11:27:27.000Z</time>
</trkpt>
<trkpt lat="45.8942040" lon="9.8291190">
	<ele>1664.00</ele>
	<time>2023-11-18T11:27:28.000Z</time>
</trkpt>
<trkpt lat="45.8941990" lon="9.8291260">
	<ele>1664.00</ele>
	<time>2023-11-18T11:27:29.000Z</time>
</trkpt>
<trkpt lat="45.8941960" lon="9.8291350">
	<ele>1664.20</ele>
	<time>2023-11-18T11:27:30.000Z</time>
</trkpt>
<trkpt lat="45.8941930" lon="9.8291410">
	<ele>1664.20</ele>
	<time>2023-11-18T11:27:31.000Z</time>
</trkpt>
<trkpt lat="45.8941860" lon="9.8291470">
	<ele>1664.20</ele>
	<time>2023-11-18T11:27:32.000Z</time>
</trkpt>
<trkpt lat="45.8941790" lon="9.8291560">
	<ele>1664.40</ele>
	<time>2023-11-18T11:27:33.000Z</time>
</trkpt>
<trkpt lat="45.8941730" lon="9.8291630">
	<ele>1664.40</ele>
	<time>2023-11-18T11:27:34.000Z</time>
</trkpt>
<trkpt lat="45.8941670" lon="9.8291710">
	<ele>1664.60</ele>
	<time>2023-11-18T11:27:35.000Z</time>
</trkpt>
<trkpt lat="45.8941610" lon="9.8291800">
	<ele>1664.80</ele>
	<time>2023-11-18T11:27:36.000Z</time>
</trkpt>
<trkpt lat="45.8941530" lon="9.8291830">
	<ele>1665.00</ele>
	<time>2023-11-18T11:27:37.000Z</time>
</trkpt>
<trkpt lat="45.8941440" lon="9.8291910">
	<ele>1665.20</ele>
	<time>2023-11-18T11:27:38.000Z</time>
</trkpt>
<trkpt lat="45.8941370" lon="9.8292000">
	<ele>1665.20</ele>
	<time>2023-11-18T11:27:39.000Z</time>
</trkpt>
<trkpt lat="45.8941320" lon="9.8292130">
	<ele>1665.40</ele>
	<time>2023-11-18T11:27:40.000Z</time>
</trkpt>
<trkpt lat="45.8941270" lon="9.8292280">
	<ele>1665.40</ele>
	<time>2023-11-18T11:27:41.000Z</time>
</trkpt>
<trkpt lat="45.8941200" lon="9.8292450">
	<ele>1665.60</ele>
	<time>2023-11-18T11:27:42.000Z</time>
</trkpt>
<trkpt lat="45.8941130" lon="9.8292660">
	<ele>1665.60</ele>
	<time>2023-11-18T11:27:43.000Z</time>
</trkpt>
<trkpt lat="45.8941080" lon="9.8292840">
	<ele>1665.60</ele>
	<time>2023-11-18T11:27:44.000Z</time>
</trkpt>
<trkpt lat="45.8941030" lon="9.8292990">
	<ele>1665.60</ele>
	<time>2023-11-18T11:27:45.000Z</time>
</trkpt>
<trkpt lat="45.8940950" lon="9.8293100">
	<ele>1665.60</ele>
	<time>2023-11-18T11:27:46.000Z</time>
</trkpt>
<trkpt lat="45.8940900" lon="9.8293160">
	<ele>1665.60</ele>
	<time>2023-11-18T11:27:47.000Z</time>
</trkpt>
<trkpt lat="45.8940870" lon="9.8293230">
	<ele>1665.60</ele>
	<time>2023-11-18T11:27:48.000Z</time>
</trkpt>
<trkpt lat="45.8940870" lon="9.8293330">
	<ele>1665.80</ele>
	<time>2023-11-18T11:27:49.000Z</time>
</trkpt>
<trkpt lat="45.8940820" lon="9.8293400">
	<ele>1666.00</ele>
	<time>2023-11-18T11:27:50.000Z</time>
</trkpt>
<trkpt lat="45.8940780" lon="9.8293490">
	<ele>1666.20</ele>
	<time>2023-11-18T11:27:51.000Z</time>
</trkpt>
<trkpt lat="45.8940730" lon="9.8293600">
	<ele>1666.20</ele>
	<time>2023-11-18T11:27:52.000Z</time>
</trkpt>
<trkpt lat="45.8940670" lon="9.8293690">
	<ele>1666.60</ele>
	<time>2023-11-18T11:27:53.000Z</time>
</trkpt>
<trkpt lat="45.8940610" lon="9.8293780">
	<ele>1666.60</ele>
	<time>2023-11-18T11:27:54.000Z</time>
</trkpt>
<trkpt lat="45.8940570" lon="9.8293870">
	<ele>1666.80</ele>
	<time>2023-11-18T11:27:55.000Z</time>
</trkpt>
<trkpt lat="45.8940530" lon="9.8293950">
	<ele>1667.00</ele>
	<time>2023-11-18T11:27:56.000Z</time>
</trkpt>
<trkpt lat="45.8940480" lon="9.8294040">
	<ele>1667.00</ele>
	<time>2023-11-18T11:27:57.000Z</time>
</trkpt>
<trkpt lat="45.8940460" lon="9.8294100">
	<ele>1667.20</ele>
	<time>2023-11-18T11:27:58.000Z</time>
</trkpt>
<trkpt lat="45.8940440" lon="9.8294170">
	<ele>1667.20</ele>
	<time>2023-11-18T11:27:59.000Z</time>
</trkpt>
<trkpt lat="45.8940360" lon="9.8294250">
	<ele>1667.20</ele>
	<time>2023-11-18T11:28:00.000Z</time>
</trkpt>
<trkpt lat="45.8940300" lon="9.8294360">
	<ele>1667.40</ele>
	<time>2023-11-18T11:28:01.000Z</time>
</trkpt>
<trkpt lat="45.8940250" lon="9.8294450">
	<ele>1667.40</ele>
	<time>2023-11-18T11:28:02.000Z</time>
</trkpt>
<trkpt lat="45.8940200" lon="9.8294500">
	<ele>1667.40</ele>
	<time>2023-11-18T11:28:03.000Z</time>
</trkpt>
<trkpt lat="45.8940160" lon="9.8294580">
	<ele>1667.60</ele>
	<time>2023-11-18T11:28:04.000Z</time>
</trkpt>
<trkpt lat="45.8940110" lon="9.8294630">
	<ele>1667.80</ele>
	<time>2023-11-18T11:28:05.000Z</time>
</trkpt>
<trkpt lat="45.8940070" lon="9.8294700">
	<ele>1668.20</ele>
	<time>2023-11-18T11:28:06.000Z</time>
</trkpt>
<trkpt lat="45.8940020" lon="9.8294780">
	<ele>1668.40</ele>
	<time>2023-11-18T11:28:07.000Z</time>
</trkpt>
<trkpt lat="45.8939950" lon="9.8294870">
	<ele>1668.60</ele>
	<time>2023-11-18T11:28:08.000Z</time>
</trkpt>
<trkpt lat="45.8939840" lon="9.8294950">
	<ele>1668.80</ele>
	<time>2023-11-18T11:28:09.000Z</time>
</trkpt>
<trkpt lat="45.8939780" lon="9.8295010">
	<ele>1668.80</ele>
	<time>2023-11-18T11:28:10.000Z</time>
</trkpt>
<trkpt lat="45.8939720" lon="9.8295120">
	<ele>1668.80</ele>
	<time>2023-11-18T11:28:11.000Z</time>
</trkpt>
<trkpt lat="45.8939690" lon="9.8295250">
	<ele>1668.80</ele>
	<time>2023-11-18T11:28:12.000Z</time>
</trkpt>
<trkpt lat="45.8939650" lon="9.8295410">
	<ele>1669.00</ele>
	<time>2023-11-18T11:28:13.000Z</time>
</trkpt>
<trkpt lat="45.8939610" lon="9.8295560">
	<ele>1669.00</ele>
	<time>2023-11-18T11:28:14.000Z</time>
</trkpt>
<trkpt lat="45.8939580" lon="9.8295680">
	<ele>1669.00</ele>
	<time>2023-11-18T11:28:15.000Z</time>
</trkpt>
<trkpt lat="45.8939540" lon="9.8295770">
	<ele>1669.00</ele>
	<time>2023-11-18T11:28:16.000Z</time>
</trkpt>
<trkpt lat="45.8939480" lon="9.8295870">
	<ele>1669.20</ele>
	<time>2023-11-18T11:28:17.000Z</time>
</trkpt>
<trkpt lat="45.8939430" lon="9.8295940">
	<ele>1669.20</ele>
	<time>2023-11-18T11:28:18.000Z</time>
</trkpt>
<trkpt lat="45.8939360" lon="9.8296010">
	<ele>1669.20</ele>
	<time>2023-11-18T11:28:19.000Z</time>
</trkpt>
<trkpt lat="45.8939280" lon="9.8296080">
	<ele>1669.40</ele>
	<time>2023-11-18T11:28:20.000Z</time>
</trkpt>
<trkpt lat="45.8939190" lon="9.8296180">
	<ele>1669.40</ele>
	<time>2023-11-18T11:28:21.000Z</time>
</trkpt>
<trkpt lat="45.8939090" lon="9.8296320">
	<ele>1669.40</ele>
	<time>2023-11-18T11:28:22.000Z</time>
</trkpt>
<trkpt lat="45.8939030" lon="9.8296460">
	<ele>1669.40</ele>
	<time>2023-11-18T11:28:23.000Z</time>
</trkpt>
<trkpt lat="45.8938950" lon="9.8296610">
	<ele>1669.40</ele>
	<time>2023-11-18T11:28:24.000Z</time>
</trkpt>
<trkpt lat="45.8938890" lon="9.8296760">
	<ele>1669.40</ele>
	<time>2023-11-18T11:28:25.000Z</time>
</trkpt>
<trkpt lat="45.8938860" lon="9.8296910">
	<ele>1669.60</ele>
	<time>2023-11-18T11:28:26.000Z</time>
</trkpt>
<trkpt lat="45.8938830" lon="9.8297050">
	<ele>1669.60</ele>
	<time>2023-11-18T11:28:27.000Z</time>
</trkpt>
<trkpt lat="45.8938790" lon="9.8297140">
	<ele>1669.60</ele>
	<time>2023-11-18T11:28:28.000Z</time>
</trkpt>
<trkpt lat="45.8938740" lon="9.8297240">
	<ele>1669.60</ele>
	<time>2023-11-18T11:28:29.000Z</time>
</trkpt>
<trkpt lat="45.8938700" lon="9.8297350">
	<ele>1669.60</ele>
	<time>2023-11-18T11:28:30.000Z</time>
</trkpt>
<trkpt lat="45.8938680" lon="9.8297490">
	<ele>1669.80</ele>
	<time>2023-11-18T11:28:31.000Z</time>
</trkpt>
<trkpt lat="45.8938660" lon="9.8297610">
	<ele>1669.80</ele>
	<time>2023-11-18T11:28:32.000Z</time>
</trkpt>
<trkpt lat="45.8938580" lon="9.8297710">
	<ele>1670.00</ele>
	<time>2023-11-18T11:28:33.000Z</time>
</trkpt>
<trkpt lat="45.8938510" lon="9.8297840">
	<ele>1670.20</ele>
	<time>2023-11-18T11:28:34.000Z</time>
</trkpt>
<trkpt lat="45.8938420" lon="9.8297990">
	<ele>1670.40</ele>
	<time>2023-11-18T11:28:35.000Z</time>
</trkpt>
<trkpt lat="45.8938340" lon="9.8298120">
	<ele>1670.40</ele>
	<time>2023-11-18T11:28:36.000Z</time>
</trkpt>
<trkpt lat="45.8938260" lon="9.8298240">
	<ele>1670.40</ele>
	<time>2023-11-18T11:28:37.000Z</time>
</trkpt>
<trkpt lat="45.8938170" lon="9.8298340">
	<ele>1670.40</ele>
	<time>2023-11-18T11:28:38.000Z</time>
</trkpt>
<trkpt lat="45.8938120" lon="9.8298470">
	<ele>1670.40</ele>
	<time>2023-11-18T11:28:39.000Z</time>
</trkpt>
<trkpt lat="45.8938050" lon="9.8298630">
	<ele>1670.40</ele>
	<time>2023-11-18T11:28:40.000Z</time>
</trkpt>
<trkpt lat="45.8937970" lon="9.8298780">
	<ele>1670.40</ele>
	<time>2023-11-18T11:28:41.000Z</time>
</trkpt>
<trkpt lat="45.8937900" lon="9.8298920">
	<ele>1670.40</ele>
	<time>2023-11-18T11:28:42.000Z</time>
</trkpt>
<trkpt lat="45.8937830" lon="9.8299060">
	<ele>1670.40</ele>
	<time>2023-11-18T11:28:43.000Z</time>
</trkpt>
<trkpt lat="45.8937770" lon="9.8299220">
	<ele>1670.40</ele>
	<time>2023-11-18T11:28:44.000Z</time>
</trkpt>
<trkpt lat="45.8937730" lon="9.8299380">
	<ele>1670.60</ele>
	<time>2023-11-18T11:28:45.000Z</time>
</trkpt>
<trkpt lat="45.8937690" lon="9.8299540">
	<ele>1670.60</ele>
	<time>2023-11-18T11:28:46.000Z</time>
</trkpt>
<trkpt lat="45.8937630" lon="9.8299690">
	<ele>1670.60</ele>
	<time>2023-11-18T11:28:47.000Z</time>
</trkpt>
<trkpt lat="45.8937550" lon="9.8299830">
	<ele>1670.80</ele>
	<time>2023-11-18T11:28:48.000Z</time>
</trkpt>
<trkpt lat="45.8937460" lon="9.8299950">
	<ele>1670.80</ele>
	<time>2023-11-18T11:28:49.000Z</time>
</trkpt>
<trkpt lat="45.8937400" lon="9.8300070">
	<ele>1670.80</ele>
	<time>2023-11-18T11:28:50.000Z</time>
</trkpt>
<trkpt lat="45.8937350" lon="9.8300190">
	<ele>1671.00</ele>
	<time>2023-11-18T11:28:51.000Z</time>
</trkpt>
<trkpt lat="45.8937310" lon="9.8300340">
	<ele>1671.40</ele>
	<time>2023-11-18T11:28:52.000Z</time>
</trkpt>
<trkpt lat="45.8937260" lon="9.8300510">
	<ele>1671.60</ele>
	<time>2023-11-18T11:28:53.000Z</time>
</trkpt>
<trkpt lat="45.8937230" lon="9.8300710">
	<ele>1671.60</ele>
	<time>2023-11-18T11:28:54.000Z</time>
</trkpt>
<trkpt lat="45.8937200" lon="9.8300900">
	<ele>1671.60</ele>
	<time>2023-11-18T11:28:55.000Z</time>
</trkpt>
<trkpt lat="45.8937130" lon="9.8301040">
	<ele>1671.60</ele>
	<time>2023-11-18T11:28:56.000Z</time>
</trkpt>
<trkpt lat="45.8937070" lon="9.8301180">
	<ele>1671.40</ele>
	<time>2023-11-18T11:28:57.000Z</time>
</trkpt>
<trkpt lat="45.8937000" lon="9.8301310">
	<ele>1671.40</ele>
	<time>2023-11-18T11:28:58.000Z</time>
</trkpt>
<trkpt lat="45.8936940" lon="9.8301480">
	<ele>1671.20</ele>
	<time>2023-11-18T11:28:59.000Z</time>
</trkpt>
<trkpt lat="45.8936870" lon="9.8301620">
	<ele>1671.20</ele>
	<time>2023-11-18T11:29:00.000Z</time>
</trkpt>
<trkpt lat="45.8936820" lon="9.8301760">
	<ele>1671.20</ele>
	<time>2023-11-18T11:29:01.000Z</time>
</trkpt>
<trkpt lat="45.8936750" lon="9.8301890">
	<ele>1671.20</ele>
	<time>2023-11-18T11:29:02.000Z</time>
</trkpt>
<trkpt lat="45.8936650" lon="9.8302020">
	<ele>1671.20</ele>
	<time>2023-11-18T11:29:03.000Z</time>
</trkpt>
<trkpt lat="45.8936570" lon="9.8302170">
	<ele>1671.20</ele>
	<time>2023-11-18T11:29:04.000Z</time>
</trkpt>
<trkpt lat="45.8936510" lon="9.8302300">
	<ele>1671.20</ele>
	<time>2023-11-18T11:29:05.000Z</time>
</trkpt>
<trkpt lat="45.8936490" lon="9.8302460">
	<ele>1671.20</ele>
	<time>2023-11-18T11:29:06.000Z</time>
</trkpt>
<trkpt lat="45.8936480" lon="9.8302620">
	<ele>1671.20</ele>
	<time>2023-11-18T11:29:07.000Z</time>
</trkpt>
<trkpt lat="45.8936470" lon="9.8302770">
	<ele>1671.40</ele>
	<time>2023-11-18T11:29:08.000Z</time>
</trkpt>
<trkpt lat="45.8936450" lon="9.8302890">
	<ele>1671.40</ele>
	<time>2023-11-18T11:29:09.000Z</time>
</trkpt>
<trkpt lat="45.8936430" lon="9.8303060">
	<ele>1671.40</ele>
	<time>2023-11-18T11:29:10.000Z</time>
</trkpt>
<trkpt lat="45.8936400" lon="9.8303190">
	<ele>1671.20</ele>
	<time>2023-11-18T11:29:11.000Z</time>
</trkpt>
<trkpt lat="45.8936370" lon="9.8303260">
	<ele>1671.00</ele>
	<time>2023-11-18T11:29:12.000Z</time>
</trkpt>
<trkpt lat="45.8936380" lon="9.8303310">
	<ele>1671.00</ele>
	<time>2023-11-18T11:29:13.000Z</time>
</trkpt>
<trkpt lat="45.8936380" lon="9.8303410">
	<ele>1670.80</ele>
	<time>2023-11-18T11:29:14.000Z</time>
</trkpt>
<trkpt lat="45.8936370" lon="9.8303510">
	<ele>1670.60</ele>
	<time>2023-11-18T11:29:15.000Z</time>
</trkpt>
<trkpt lat="45.8936340" lon="9.8303640">
	<ele>1670.60</ele>
	<time>2023-11-18T11:29:16.000Z</time>
</trkpt>
<trkpt lat="45.8936300" lon="9.8303790">
	<ele>1670.40</ele>
	<time>2023-11-18T11:29:17.000Z</time>
</trkpt>
<trkpt lat="45.8936240" lon="9.8303940">
	<ele>1670.20</ele>
	<time>2023-11-18T11:29:18.000Z</time>
</trkpt>
<trkpt lat="45.8936200" lon="9.8304140">
	<ele>1670.00</ele>
	<time>2023-11-18T11:29:19.000Z</time>
</trkpt>
<trkpt lat="45.8936170" lon="9.8304310">
	<ele>1670.00</ele>
	<time>2023-11-18T11:29:20.000Z</time>
</trkpt>
<trkpt lat="45.8936100" lon="9.8304480">
	<ele>1669.80</ele>
	<time>2023-11-18T11:29:21.000Z</time>
</trkpt>
<trkpt lat="45.8936030" lon="9.8304650">
	<ele>1669.80</ele>
	<time>2023-11-18T11:29:22.000Z</time>
</trkpt>
<trkpt lat="45.8935980" lon="9.8304840">
	<ele>1670.00</ele>
	<time>2023-11-18T11:29:23.000Z</time>
</trkpt>
<trkpt lat="45.8935910" lon="9.8305000">
	<ele>1670.00</ele>
	<time>2023-11-18T11:29:24.000Z</time>
</trkpt>
<trkpt lat="45.8935830" lon="9.8305190">
	<ele>1670.00</ele>
	<time>2023-11-18T11:29:25.000Z</time>
</trkpt>
<trkpt lat="45.8935770" lon="9.8305350">
	<ele>1670.20</ele>
	<time>2023-11-18T11:29:26.000Z</time>
</trkpt>
<trkpt lat="45.8935710" lon="9.8305510">
	<ele>1670.00</ele>
	<time>2023-11-18T11:29:27.000Z</time>
</trkpt>
<trkpt lat="45.8935650" lon="9.8305620">
	<ele>1670.00</ele>
	<time>2023-11-18T11:29:28.000Z</time>
</trkpt>
<trkpt lat="45.8935590" lon="9.8305750">
	<ele>1669.80</ele>
	<time>2023-11-18T11:29:29.000Z</time>
</trkpt>
<trkpt lat="45.8935540" lon="9.8305890">
	<ele>1669.80</ele>
	<time>2023-11-18T11:29:30.000Z</time>
</trkpt>
<trkpt lat="45.8935480" lon="9.8306020">
	<ele>1669.20</ele>
	<time>2023-11-18T11:29:31.000Z</time>
</trkpt>
<trkpt lat="45.8935430" lon="9.8306180">
	<ele>1669.00</ele>
	<time>2023-11-18T11:29:32.000Z</time>
</trkpt>
<trkpt lat="45.8935400" lon="9.8306330">
	<ele>1668.80</ele>
	<time>2023-11-18T11:29:33.000Z</time>
</trkpt>
<trkpt lat="45.8935340" lon="9.8306480">
	<ele>1668.60</ele>
	<time>2023-11-18T11:29:34.000Z</time>
</trkpt>
<trkpt lat="45.8935290" lon="9.8306630">
	<ele>1668.40</ele>
	<time>2023-11-18T11:29:35.000Z</time>
</trkpt>
<trkpt lat="45.8935240" lon="9.8306770">
	<ele>1668.20</ele>
	<time>2023-11-18T11:29:36.000Z</time>
</trkpt>
<trkpt lat="45.8935180" lon="9.8306890">
	<ele>1668.20</ele>
	<time>2023-11-18T11:29:37.000Z</time>
</trkpt>
<trkpt lat="45.8935150" lon="9.8307000">
	<ele>1668.00</ele>
	<time>2023-11-18T11:29:38.000Z</time>
</trkpt>
<trkpt lat="45.8935100" lon="9.8307140">
	<ele>1668.00</ele>
	<time>2023-11-18T11:29:39.000Z</time>
</trkpt>
<trkpt lat="45.8935040" lon="9.8307270">
	<ele>1668.00</ele>
	<time>2023-11-18T11:29:40.000Z</time>
</trkpt>
<trkpt lat="45.8934980" lon="9.8307420">
	<ele>1667.60</ele>
	<time>2023-11-18T11:29:41.000Z</time>
</trkpt>
<trkpt lat="45.8934930" lon="9.8307550">
	<ele>1667.60</ele>
	<time>2023-11-18T11:29:42.000Z</time>
</trkpt>
<trkpt lat="45.8934890" lon="9.8307680">
	<ele>1667.40</ele>
	<time>2023-11-18T11:29:43.000Z</time>
</trkpt>
<trkpt lat="45.8934830" lon="9.8307820">
	<ele>1667.40</ele>
	<time>2023-11-18T11:29:44.000Z</time>
</trkpt>
<trkpt lat="45.8934770" lon="9.8307980">
	<ele>1667.20</ele>
	<time>2023-11-18T11:29:45.000Z</time>
</trkpt>
<trkpt lat="45.8934710" lon="9.8308150">
	<ele>1667.00</ele>
	<time>2023-11-18T11:29:46.000Z</time>
</trkpt>
<trkpt lat="45.8934650" lon="9.8308270">
	<ele>1666.80</ele>
	<time>2023-11-18T11:29:47.000Z</time>
</trkpt>
<trkpt lat="45.8934600" lon="9.8308380">
	<ele>1666.60</ele>
	<time>2023-11-18T11:29:48.000Z</time>
</trkpt>
<trkpt lat="45.8934540" lon="9.8308490">
	<ele>1666.40</ele>
	<time>2023-11-18T11:29:49.000Z</time>
</trkpt>
<trkpt lat="45.8934470" lon="9.8308600">
	<ele>1666.00</ele>
	<time>2023-11-18T11:29:50.000Z</time>
</trkpt>
<trkpt lat="45.8934390" lon="9.8308720">
	<ele>1665.80</ele>
	<time>2023-11-18T11:29:51.000Z</time>
</trkpt>
<trkpt lat="45.8934320" lon="9.8308840">
	<ele>1665.60</ele>
	<time>2023-11-18T11:29:52.000Z</time>
</trkpt>
<trkpt lat="45.8934260" lon="9.8308980">
	<ele>1665.60</ele>
	<time>2023-11-18T11:29:53.000Z</time>
</trkpt>
<trkpt lat="45.8934220" lon="9.8309140">
	<ele>1665.40</ele>
	<time>2023-11-18T11:29:54.000Z</time>
</trkpt>
<trkpt lat="45.8934190" lon="9.8309300">
	<ele>1665.00</ele>
	<time>2023-11-18T11:29:55.000Z</time>
</trkpt>
<trkpt lat="45.8934140" lon="9.8309430">
	<ele>1664.80</ele>
	<time>2023-11-18T11:29:56.000Z</time>
</trkpt>
<trkpt lat="45.8934090" lon="9.8309520">
	<ele>1664.60</ele>
	<time>2023-11-18T11:29:57.000Z</time>
</trkpt>
<trkpt lat="45.8934050" lon="9.8309610">
	<ele>1664.40</ele>
	<time>2023-11-18T11:29:58.000Z</time>
</trkpt>
<trkpt lat="45.8934000" lon="9.8309710">
	<ele>1664.20</ele>
	<time>2023-11-18T11:29:59.000Z</time>
</trkpt>
<trkpt lat="45.8933930" lon="9.8309820">
	<ele>1664.00</ele>
	<time>2023-11-18T11:30:00.000Z</time>
</trkpt>
<trkpt lat="45.8933870" lon="9.8309930">
	<ele>1663.60</ele>
	<time>2023-11-18T11:30:01.000Z</time>
</trkpt>
<trkpt lat="45.8933810" lon="9.8310050">
	<ele>1663.20</ele>
	<time>2023-11-18T11:30:02.000Z</time>
</trkpt>
<trkpt lat="45.8933760" lon="9.8310190">
	<ele>1663.00</ele>
	<time>2023-11-18T11:30:03.000Z</time>
</trkpt>
<trkpt lat="45.8933670" lon="9.8310270">
	<ele>1662.80</ele>
	<time>2023-11-18T11:30:04.000Z</time>
</trkpt>
<trkpt lat="45.8933640" lon="9.8310390">
	<ele>1662.60</ele>
	<time>2023-11-18T11:30:05.000Z</time>
</trkpt>
<trkpt lat="45.8933580" lon="9.8310470">
	<ele>1662.40</ele>
	<time>2023-11-18T11:30:06.000Z</time>
</trkpt>
<trkpt lat="45.8933560" lon="9.8310590">
	<ele>1662.20</ele>
	<time>2023-11-18T11:30:07.000Z</time>
</trkpt>
<trkpt lat="45.8933560" lon="9.8310750">
	<ele>1662.20</ele>
	<time>2023-11-18T11:30:08.000Z</time>
</trkpt>
<trkpt lat="45.8933550" lon="9.8310870">
	<ele>1662.00</ele>
	<time>2023-11-18T11:30:09.000Z</time>
</trkpt>
<trkpt lat="45.8933500" lon="9.8310990">
	<ele>1661.80</ele>
	<time>2023-11-18T11:30:10.000Z</time>
</trkpt>
<trkpt lat="45.8933400" lon="9.8311080">
	<ele>1661.60</ele>
	<time>2023-11-18T11:30:11.000Z</time>
</trkpt>
<trkpt lat="45.8933320" lon="9.8311230">
	<ele>1661.60</ele>
	<time>2023-11-18T11:30:12.000Z</time>
</trkpt>
<trkpt lat="45.8933260" lon="9.8311370">
	<ele>1661.40</ele>
	<time>2023-11-18T11:30:13.000Z</time>
</trkpt>
<trkpt lat="45.8933220" lon="9.8311480">
	<ele>1661.20</ele>
	<time>2023-11-18T11:30:14.000Z</time>
</trkpt>
<trkpt lat="45.8933120" lon="9.8311610">
	<ele>1661.00</ele>
	<time>2023-11-18T11:30:15.000Z</time>
</trkpt>
<trkpt lat="45.8933010" lon="9.8311710">
	<ele>1660.80</ele>
	<time>2023-11-18T11:30:16.000Z</time>
</trkpt>
<trkpt lat="45.8932890" lon="9.8311810">
	<ele>1660.60</ele>
	<time>2023-11-18T11:30:17.000Z</time>
</trkpt>
<trkpt lat="45.8932770" lon="9.8311910">
	<ele>1660.40</ele>
	<time>2023-11-18T11:30:18.000Z</time>
</trkpt>
<trkpt lat="45.8932640" lon="9.8312000">
	<ele>1660.40</ele>
	<time>2023-11-18T11:30:19.000Z</time>
</trkpt>
<trkpt lat="45.8932540" lon="9.8312090">
	<ele>1660.40</ele>
	<time>2023-11-18T11:30:20.000Z</time>
</trkpt>
<trkpt lat="45.8932470" lon="9.8312190">
	<ele>1660.80</ele>
	<time>2023-11-18T11:30:21.000Z</time>
</trkpt>
<trkpt lat="45.8932380" lon="9.8312320">
	<ele>1660.80</ele>
	<time>2023-11-18T11:30:22.000Z</time>
</trkpt>
<trkpt lat="45.8932290" lon="9.8312420">
	<ele>1661.00</ele>
	<time>2023-11-18T11:30:23.000Z</time>
</trkpt>
<trkpt lat="45.8932200" lon="9.8312560">
	<ele>1661.00</ele>
	<time>2023-11-18T11:30:24.000Z</time>
</trkpt>
<trkpt lat="45.8932130" lon="9.8312690">
	<ele>1661.00</ele>
	<time>2023-11-18T11:30:25.000Z</time>
</trkpt>
<trkpt lat="45.8932030" lon="9.8312830">
	<ele>1661.00</ele>
	<time>2023-11-18T11:30:26.000Z</time>
</trkpt>
<trkpt lat="45.8931940" lon="9.8312960">
	<ele>1661.00</ele>
	<time>2023-11-18T11:30:27.000Z</time>
</trkpt>
<trkpt lat="45.8931870" lon="9.8313100">
	<ele>1661.00</ele>
	<time>2023-11-18T11:30:28.000Z</time>
</trkpt>
<trkpt lat="45.8931790" lon="9.8313200">
	<ele>1660.80</ele>
	<time>2023-11-18T11:30:29.000Z</time>
</trkpt>
<trkpt lat="45.8931710" lon="9.8313290">
	<ele>1660.80</ele>
	<time>2023-11-18T11:30:30.000Z</time>
</trkpt>
<trkpt lat="45.8931620" lon="9.8313430">
	<ele>1660.80</ele>
	<time>2023-11-18T11:30:31.000Z</time>
</trkpt>
<trkpt lat="45.8931530" lon="9.8313560">
	<ele>1660.60</ele>
	<time>2023-11-18T11:30:32.000Z</time>
</trkpt>
<trkpt lat="45.8931400" lon="9.8313600">
	<ele>1660.60</ele>
	<time>2023-11-18T11:30:33.000Z</time>
</trkpt>
<trkpt lat="45.8931330" lon="9.8313700">
	<ele>1660.40</ele>
	<time>2023-11-18T11:30:34.000Z</time>
</trkpt>
<trkpt lat="45.8931270" lon="9.8313810">
	<ele>1660.20</ele>
	<time>2023-11-18T11:30:35.000Z</time>
</trkpt>
<trkpt lat="45.8931220" lon="9.8313910">
	<ele>1660.00</ele>
	<time>2023-11-18T11:30:36.000Z</time>
</trkpt>
<trkpt lat="45.8931180" lon="9.8314010">
	<ele>1659.80</ele>
	<time>2023-11-18T11:30:37.000Z</time>
</trkpt>
<trkpt lat="45.8931150" lon="9.8314150">
	<ele>1659.60</ele>
	<time>2023-11-18T11:30:38.000Z</time>
</trkpt>
<trkpt lat="45.8931110" lon="9.8314310">
	<ele>1659.40</ele>
	<time>2023-11-18T11:30:39.000Z</time>
</trkpt>
<trkpt lat="45.8931070" lon="9.8314410">
	<ele>1659.40</ele>
	<time>2023-11-18T11:30:40.000Z</time>
</trkpt>
<trkpt lat="45.8931010" lon="9.8314460">
	<ele>1659.20</ele>
	<time>2023-11-18T11:30:41.000Z</time>
</trkpt>
<trkpt lat="45.8930950" lon="9.8314520">
	<ele>1659.00</ele>
	<time>2023-11-18T11:30:42.000Z</time>
</trkpt>
<trkpt lat="45.8930860" lon="9.8314570">
	<ele>1658.60</ele>
	<time>2023-11-18T11:30:43.000Z</time>
</trkpt>
<trkpt lat="45.8930750" lon="9.8314630">
	<ele>1658.40</ele>
	<time>2023-11-18T11:30:44.000Z</time>
</trkpt>
<trkpt lat="45.8930660" lon="9.8314700">
	<ele>1658.20</ele>
	<time>2023-11-18T11:30:45.000Z</time>
</trkpt>
<trkpt lat="45.8930590" lon="9.8314790">
	<ele>1658.20</ele>
	<time>2023-11-18T11:30:46.000Z</time>
</trkpt>
<trkpt lat="45.8930510" lon="9.8314910">
	<ele>1658.20</ele>
	<time>2023-11-18T11:30:47.000Z</time>
</trkpt>
<trkpt lat="45.8930450" lon="9.8315000">
	<ele>1658.00</ele>
	<time>2023-11-18T11:30:48.000Z</time>
</trkpt>
<trkpt lat="45.8930390" lon="9.8315140">
	<ele>1658.00</ele>
	<time>2023-11-18T11:30:49.000Z</time>
</trkpt>
<trkpt lat="45.8930360" lon="9.8315260">
	<ele>1657.80</ele>
	<time>2023-11-18T11:30:50.000Z</time>
</trkpt>
<trkpt lat="45.8930290" lon="9.8315340">
	<ele>1657.60</ele>
	<time>2023-11-18T11:30:51.000Z</time>
</trkpt>
<trkpt lat="45.8930230" lon="9.8315430">
	<ele>1657.40</ele>
	<time>2023-11-18T11:30:52.000Z</time>
</trkpt>
<trkpt lat="45.8930150" lon="9.8315470">
	<ele>1657.40</ele>
	<time>2023-11-18T11:30:53.000Z</time>
</trkpt>
<trkpt lat="45.8930040" lon="9.8315530">
	<ele>1657.20</ele>
	<time>2023-11-18T11:30:54.000Z</time>
</trkpt>
<trkpt lat="45.8929950" lon="9.8315560">
	<ele>1657.00</ele>
	<time>2023-11-18T11:30:55.000Z</time>
</trkpt>
<trkpt lat="45.8929840" lon="9.8315590">
	<ele>1656.80</ele>
	<time>2023-11-18T11:30:56.000Z</time>
</trkpt>
<trkpt lat="45.8929720" lon="9.8315600">
	<ele>1656.80</ele>
	<time>2023-11-18T11:30:57.000Z</time>
</trkpt>
<trkpt lat="45.8929600" lon="9.8315590">
	<ele>1656.60</ele>
	<time>2023-11-18T11:30:58.000Z</time>
</trkpt>
<trkpt lat="45.8929490" lon="9.8315550">
	<ele>1656.60</ele>
	<time>2023-11-18T11:30:59.000Z</time>
</trkpt>
<trkpt lat="45.8929380" lon="9.8315530">
	<ele>1656.60</ele>
	<time>2023-11-18T11:31:00.000Z</time>
</trkpt>
<trkpt lat="45.8929230" lon="9.8315550">
	<ele>1656.60</ele>
	<time>2023-11-18T11:31:01.000Z</time>
</trkpt>
<trkpt lat="45.8929080" lon="9.8315590">
	<ele>1656.60</ele>
	<time>2023-11-18T11:31:02.000Z</time>
</trkpt>
<trkpt lat="45.8928980" lon="9.8315660">
	<ele>1656.60</ele>
	<time>2023-11-18T11:31:03.000Z</time>
</trkpt>
<trkpt lat="45.8928880" lon="9.8315770">
	<ele>1656.60</ele>
	<time>2023-11-18T11:31:04.000Z</time>
</trkpt>
<trkpt lat="45.8928790" lon="9.8315890">
	<ele>1656.60</ele>
	<time>2023-11-18T11:31:05.000Z</time>
</trkpt>
<trkpt lat="45.8928690" lon="9.8315980">
	<ele>1656.60</ele>
	<time>2023-11-18T11:31:06.000Z</time>
</trkpt>
<trkpt lat="45.8928610" lon="9.8316040">
	<ele>1656.20</ele>
	<time>2023-11-18T11:31:07.000Z</time>
</trkpt>
<trkpt lat="45.8928540" lon="9.8316090">
	<ele>1656.00</ele>
	<time>2023-11-18T11:31:08.000Z</time>
</trkpt>
<trkpt lat="45.8928460" lon="9.8316160">
	<ele>1655.60</ele>
	<time>2023-11-18T11:31:09.000Z</time>
</trkpt>
<trkpt lat="45.8928380" lon="9.8316240">
	<ele>1655.40</ele>
	<time>2023-11-18T11:31:10.000Z</time>
</trkpt>
<trkpt lat="45.8928280" lon="9.8316330">
	<ele>1655.20</ele>
	<time>2023-11-18T11:31:11.000Z</time>
</trkpt>
<trkpt lat="45.8928220" lon="9.8316470">
	<ele>1655.00</ele>
	<time>2023-11-18T11:31:12.000Z</time>
</trkpt>
<trkpt lat="45.8928160" lon="9.8316610">
	<ele>1654.80</ele>
	<time>2023-11-18T11:31:13.000Z</time>
</trkpt>
<trkpt lat="45.8928080" lon="9.8316720">
	<ele>1654.60</ele>
	<time>2023-11-18T11:31:14.000Z</time>
</trkpt>
<trkpt lat="45.8927970" lon="9.8316830">
	<ele>1654.40</ele>
	<time>2023-11-18T11:31:15.000Z</time>
</trkpt>
<trkpt lat="45.8927890" lon="9.8316950">
	<ele>1654.20</ele>
	<time>2023-11-18T11:31:16.000Z</time>
</trkpt>
<trkpt lat="45.8927790" lon="9.8317050">
	<ele>1654.20</ele>
	<time>2023-11-18T11:31:17.000Z</time>
</trkpt>
<trkpt lat="45.8927690" lon="9.8317140">
	<ele>1654.20</ele>
	<time>2023-11-18T11:31:18.000Z</time>
</trkpt>
<trkpt lat="45.8927570" lon="9.8317230">
	<ele>1654.00</ele>
	<time>2023-11-18T11:31:19.000Z</time>
</trkpt>
<trkpt lat="45.8927450" lon="9.8317320">
	<ele>1654.00</ele>
	<time>2023-11-18T11:31:20.000Z</time>
</trkpt>
<trkpt lat="45.8927300" lon="9.8317380">
	<ele>1654.00</ele>
	<time>2023-11-18T11:31:21.000Z</time>
</trkpt>
<trkpt lat="45.8927150" lon="9.8317460">
	<ele>1654.00</ele>
	<time>2023-11-18T11:31:22.000Z</time>
</trkpt>
<trkpt lat="45.8927020" lon="9.8317540">
	<ele>1654.00</ele>
	<time>2023-11-18T11:31:23.000Z</time>
</trkpt>
<trkpt lat="45.8926890" lon="9.8317600">
	<ele>1654.00</ele>
	<time>2023-11-18T11:31:24.000Z</time>
</trkpt>
<trkpt lat="45.8926770" lon="9.8317670">
	<ele>1653.80</ele>
	<time>2023-11-18T11:31:25.000Z</time>
</trkpt>
<trkpt lat="45.8926660" lon="9.8317770">
	<ele>1653.80</ele>
	<time>2023-11-18T11:31:26.000Z</time>
</trkpt>
<trkpt lat="45.8926560" lon="9.8317870">
	<ele>1653.80</ele>
	<time>2023-11-18T11:31:27.000Z</time>
</trkpt>
<trkpt lat="45.8926460" lon="9.8317950">
	<ele>1653.80</ele>
	<time>2023-11-18T11:31:28.000Z</time>
</trkpt>
<trkpt lat="45.8926350" lon="9.8318060">
	<ele>1653.80</ele>
	<time>2023-11-18T11:31:29.000Z</time>
</trkpt>
<trkpt lat="45.8926260" lon="9.8318160">
	<ele>1653.80</ele>
	<time>2023-11-18T11:31:30.000Z</time>
</trkpt>
<trkpt lat="45.8926180" lon="9.8318290">
	<ele>1653.80</ele>
	<time>2023-11-18T11:31:31.000Z</time>
</trkpt>
<trkpt lat="45.8926120" lon="9.8318410">
	<ele>1653.80</ele>
	<time>2023-11-18T11:31:32.000Z</time>
</trkpt>
<trkpt lat="45.8926050" lon="9.8318510">
	<ele>1653.80</ele>
	<time>2023-11-18T11:31:33.000Z</time>
</trkpt>
<trkpt lat="45.8925980" lon="9.8318620">
	<ele>1654.00</ele>
	<time>2023-11-18T11:31:34.000Z</time>
</trkpt>
<trkpt lat="45.8925940" lon="9.8318750">
	<ele>1654.20</ele>
	<time>2023-11-18T11:31:35.000Z</time>
</trkpt>
<trkpt lat="45.8925910" lon="9.8318910">
	<ele>1654.20</ele>
	<time>2023-11-18T11:31:36.000Z</time>
</trkpt>
<trkpt lat="45.8925870" lon="9.8319060">
	<ele>1654.20</ele>
	<time>2023-11-18T11:31:37.000Z</time>
</trkpt>
<trkpt lat="45.8925840" lon="9.8319190">
	<ele>1654.20</ele>
	<time>2023-11-18T11:31:38.000Z</time>
</trkpt>
<trkpt lat="45.8925780" lon="9.8319280">
	<ele>1654.20</ele>
	<time>2023-11-18T11:31:39.000Z</time>
</trkpt>
<trkpt lat="45.8925710" lon="9.8319370">
	<ele>1654.20</ele>
	<time>2023-11-18T11:31:40.000Z</time>
</trkpt>
<trkpt lat="45.8925600" lon="9.8319420">
	<ele>1654.20</ele>
	<time>2023-11-18T11:31:41.000Z</time>
</trkpt>
<trkpt lat="45.8925540" lon="9.8319520">
	<ele>1654.20</ele>
	<time>2023-11-18T11:31:42.000Z</time>
</trkpt>
<trkpt lat="45.8925480" lon="9.8319660">
	<ele>1654.20</ele>
	<time>2023-11-18T11:31:43.000Z</time>
</trkpt>
<trkpt lat="45.8925400" lon="9.8319740">
	<ele>1654.20</ele>
	<time>2023-11-18T11:31:44.000Z</time>
</trkpt>
<trkpt lat="45.8925310" lon="9.8319830">
	<ele>1654.40</ele>
	<time>2023-11-18T11:31:45.000Z</time>
</trkpt>
<trkpt lat="45.8925220" lon="9.8319940">
	<ele>1654.40</ele>
	<time>2023-11-18T11:31:46.000Z</time>
</trkpt>
<trkpt lat="45.8925120" lon="9.8320030">
	<ele>1654.40</ele>
	<time>2023-11-18T11:31:47.000Z</time>
</trkpt>
<trkpt lat="45.8925020" lon="9.8320110">
	<ele>1654.40</ele>
	<time>2023-11-18T11:31:48.000Z</time>
</trkpt>
<trkpt lat="45.8924920" lon="9.8320230">
	<ele>1654.40</ele>
	<time>2023-11-18T11:31:49.000Z</time>
</trkpt>
<trkpt lat="45.8924860" lon="9.8320370">
	<ele>1654.40</ele>
	<time>2023-11-18T11:31:50.000Z</time>
</trkpt>
<trkpt lat="45.8924740" lon="9.8320500">
	<ele>1654.20</ele>
	<time>2023-11-18T11:31:51.000Z</time>
</trkpt>
<trkpt lat="45.8924660" lon="9.8320620">
	<ele>1654.00</ele>
	<time>2023-11-18T11:31:52.000Z</time>
</trkpt>
<trkpt lat="45.8924600" lon="9.8320730">
	<ele>1653.80</ele>
	<time>2023-11-18T11:31:53.000Z</time>
</trkpt>
<trkpt lat="45.8924520" lon="9.8320890">
	<ele>1653.60</ele>
	<time>2023-11-18T11:31:54.000Z</time>
</trkpt>
<trkpt lat="45.8924420" lon="9.8321020">
	<ele>1653.60</ele>
	<time>2023-11-18T11:31:55.000Z</time>
</trkpt>
<trkpt lat="45.8924330" lon="9.8321180">
	<ele>1653.40</ele>
	<time>2023-11-18T11:31:56.000Z</time>
</trkpt>
<trkpt lat="45.8924240" lon="9.8321330">
	<ele>1653.40</ele>
	<time>2023-11-18T11:31:57.000Z</time>
</trkpt>
<trkpt lat="45.8924160" lon="9.8321450">
	<ele>1653.20</ele>
	<time>2023-11-18T11:31:58.000Z</time>
</trkpt>
<trkpt lat="45.8924070" lon="9.8321600">
	<ele>1653.20</ele>
	<time>2023-11-18T11:31:59.000Z</time>
</trkpt>
<trkpt lat="45.8924020" lon="9.8321730">
	<ele>1653.20</ele>
	<time>2023-11-18T11:32:00.000Z</time>
</trkpt>
<trkpt lat="45.8923990" lon="9.8321830">
	<ele>1653.20</ele>
	<time>2023-11-18T11:32:01.000Z</time>
</trkpt>
<trkpt lat="45.8923970" lon="9.8321920">
	<ele>1653.20</ele>
	<time>2023-11-18T11:32:02.000Z</time>
</trkpt>
<trkpt lat="45.8923990" lon="9.8321970">
	<ele>1653.00</ele>
	<time>2023-11-18T11:32:03.000Z</time>
</trkpt>
<trkpt lat="45.8924000" lon="9.8321990">
	<ele>1653.00</ele>
	<time>2023-11-18T11:32:04.000Z</time>
</trkpt>
<trkpt lat="45.8924000" lon="9.8321990">
	<ele>1652.80</ele>
	<time>2023-11-18T11:32:05.000Z</time>
</trkpt>
<trkpt lat="45.8924000" lon="9.8321970">
	<ele>1652.80</ele>
	<time>2023-11-18T11:32:06.000Z</time>
</trkpt>
<trkpt lat="45.8924010" lon="9.8321970">
	<ele>1652.80</ele>
	<time>2023-11-18T11:32:07.000Z</time>
</trkpt>
<trkpt lat="45.8924010" lon="9.8321970">
	<ele>1652.80</ele>
	<time>2023-11-18T11:32:08.000Z</time>
</trkpt>
<trkpt lat="45.8924020" lon="9.8321970">
	<ele>1652.80</ele>
	<time>2023-11-18T11:32:09.000Z</time>
</trkpt>
<trkpt lat="45.8924020" lon="9.8321980">
	<ele>1652.80</ele>
	<time>2023-11-18T11:32:10.000Z</time>
</trkpt>
<trkpt lat="45.8924030" lon="9.8322020">
	<ele>1652.80</ele>
	<time>2023-11-18T11:32:11.000Z</time>
</trkpt>
<trkpt lat="45.8924030" lon="9.8322050">
	<ele>1652.80</ele>
	<time>2023-11-18T11:32:12.000Z</time>
</trkpt>
<trkpt lat="45.8924020" lon="9.8322060">
	<ele>1652.80</ele>
	<time>2023-11-18T11:32:13.000Z</time>
</trkpt>
<trkpt lat="45.8924020" lon="9.8322060">
	<ele>1653.00</ele>
	<time>2023-11-18T11:32:14.000Z</time>
</trkpt>
<trkpt lat="45.8924020" lon="9.8322060">
	<ele>1653.00</ele>
	<time>2023-11-18T11:32:15.000Z</time>
</trkpt>
<trkpt lat="45.8924020" lon="9.8322060">
	<ele>1653.00</ele>
	<time>2023-11-18T11:32:16.000Z</time>
</trkpt>
<trkpt lat="45.8924020" lon="9.8322060">
	<ele>1653.20</ele>
	<time>2023-11-18T11:32:17.000Z</time>
</trkpt>
<trkpt lat="45.8924020" lon="9.8322060">
	<ele>1653.20</ele>
	<time>2023-11-18T11:32:18.000Z</time>
</trkpt>
<trkpt lat="45.8924020" lon="9.8322060">
	<ele>1653.20</ele>
	<time>2023-11-18T11:32:19.000Z</time>
</trkpt>
<trkpt lat="45.8924020" lon="9.8322060">
	<ele>1653.20</ele>
	<time>2023-11-18T11:32:20.000Z</time>
</trkpt>
<trkpt lat="45.8924020" lon="9.8322060">
	<ele>1653.20</ele>
	<time>2023-11-18T11:32:21.000Z</time>
</trkpt>
<trkpt lat="45.8924020" lon="9.8322060">
	<ele>1653.20</ele>
	<time>2023-11-18T11:32:22.000Z</time>
</trkpt>
<trkpt lat="45.8924020" lon="9.8322060">
	<ele>1653.00</ele>
	<time>2023-11-18T11:32:23.000Z</time>
</trkpt>
<trkpt lat="45.8924020" lon="9.8322060">
	<ele>1652.80</ele>
	<time>2023-11-18T11:32:24.000Z</time>
</trkpt>
<trkpt lat="45.8924010" lon="9.8322060">
	<ele>1652.60</ele>
	<time>2023-11-18T11:32:25.000Z</time>
</trkpt>
<trkpt lat="45.8923990" lon="9.8322110">
	<ele>1652.60</ele>
	<time>2023-11-18T11:32:26.000Z</time>
</trkpt>
<trkpt lat="45.8923880" lon="9.8322290">
	<ele>1652.40</ele>
	<time>2023-11-18T11:32:27.000Z</time>
</trkpt>
<trkpt lat="45.8923770" lon="9.8322440">
	<ele>1652.40</ele>
	<time>2023-11-18T11:32:28.000Z</time>
</trkpt>
<trkpt lat="45.8923680" lon="9.8322590">
	<ele>1652.40</ele>
	<time>2023-11-18T11:32:29.000Z</time>
</trkpt>
<trkpt lat="45.8923600" lon="9.8322720">
	<ele>1652.60</ele>
	<time>2023-11-18T11:32:30.000Z</time>
</trkpt>
<trkpt lat="45.8923550" lon="9.8322890">
	<ele>1652.60</ele>
	<time>2023-11-18T11:32:31.000Z</time>
</trkpt>
<trkpt lat="45.8923490" lon="9.8323040">
	<ele>1652.80</ele>
	<time>2023-11-18T11:32:32.000Z</time>
</trkpt>
<trkpt lat="45.8923400" lon="9.8323180">
	<ele>1652.80</ele>
	<time>2023-11-18T11:32:33.000Z</time>
</trkpt>
<trkpt lat="45.8923270" lon="9.8323310">
	<ele>1653.00</ele>
	<time>2023-11-18T11:32:34.000Z</time>
</trkpt>
<trkpt lat="45.8923130" lon="9.8323440">
	<ele>1653.00</ele>
	<time>2023-11-18T11:32:35.000Z</time>
</trkpt>
<trkpt lat="45.8923020" lon="9.8323550">
	<ele>1653.00</ele>
	<time>2023-11-18T11:32:36.000Z</time>
</trkpt>
<trkpt lat="45.8922940" lon="9.8323640">
	<ele>1653.20</ele>
	<time>2023-11-18T11:32:37.000Z</time>
</trkpt>
<trkpt lat="45.8922870" lon="9.8323720">
	<ele>1653.20</ele>
	<time>2023-11-18T11:32:38.000Z</time>
</trkpt>
<trkpt lat="45.8922780" lon="9.8323810">
	<ele>1653.40</ele>
	<time>2023-11-18T11:32:39.000Z</time>
</trkpt>
<trkpt lat="45.8922680" lon="9.8323910">
	<ele>1653.40</ele>
	<time>2023-11-18T11:32:40.000Z</time>
</trkpt>
<trkpt lat="45.8922620" lon="9.8324040">
	<ele>1653.60</ele>
	<time>2023-11-18T11:32:41.000Z</time>
</trkpt>
<trkpt lat="45.8922550" lon="9.8324170">
	<ele>1653.60</ele>
	<time>2023-11-18T11:32:42.000Z</time>
</trkpt>
<trkpt lat="45.8922490" lon="9.8324280">
	<ele>1653.60</ele>
	<time>2023-11-18T11:32:43.000Z</time>
</trkpt>
<trkpt lat="45.8922420" lon="9.8324380">
	<ele>1653.80</ele>
	<time>2023-11-18T11:32:44.000Z</time>
</trkpt>
<trkpt lat="45.8922330" lon="9.8324480">
	<ele>1653.60</ele>
	<time>2023-11-18T11:32:45.000Z</time>
</trkpt>
<trkpt lat="45.8922260" lon="9.8324550">
	<ele>1653.60</ele>
	<time>2023-11-18T11:32:46.000Z</time>
</trkpt>
<trkpt lat="45.8922190" lon="9.8324640">
	<ele>1653.60</ele>
	<time>2023-11-18T11:32:47.000Z</time>
</trkpt>
<trkpt lat="45.8922150" lon="9.8324740">
	<ele>1653.80</ele>
	<time>2023-11-18T11:32:48.000Z</time>
</trkpt>
<trkpt lat="45.8922080" lon="9.8324880">
	<ele>1653.80</ele>
	<time>2023-11-18T11:32:49.000Z</time>
</trkpt>
<trkpt lat="45.8922020" lon="9.8325050">
	<ele>1653.80</ele>
	<time>2023-11-18T11:32:50.000Z</time>
</trkpt>
<trkpt lat="45.8921930" lon="9.8325220">
	<ele>1653.80</ele>
	<time>2023-11-18T11:32:51.000Z</time>
</trkpt>
<trkpt lat="45.8921900" lon="9.8325390">
	<ele>1653.80</ele>
	<time>2023-11-18T11:32:52.000Z</time>
</trkpt>
<trkpt lat="45.8921870" lon="9.8325530">
	<ele>1654.00</ele>
	<time>2023-11-18T11:32:53.000Z</time>
</trkpt>
<trkpt lat="45.8921820" lon="9.8325640">
	<ele>1654.20</ele>
	<time>2023-11-18T11:32:54.000Z</time>
</trkpt>
<trkpt lat="45.8921760" lon="9.8325750">
	<ele>1654.20</ele>
	<time>2023-11-18T11:32:55.000Z</time>
</trkpt>
<trkpt lat="45.8921710" lon="9.8325850">
	<ele>1654.40</ele>
	<time>2023-11-18T11:32:56.000Z</time>
</trkpt>
<trkpt lat="45.8921620" lon="9.8325930">
	<ele>1654.40</ele>
	<time>2023-11-18T11:32:57.000Z</time>
</trkpt>
<trkpt lat="45.8921530" lon="9.8325990">
	<ele>1654.40</ele>
	<time>2023-11-18T11:32:58.000Z</time>
</trkpt>
<trkpt lat="45.8921440" lon="9.8326050">
	<ele>1654.60</ele>
	<time>2023-11-18T11:32:59.000Z</time>
</trkpt>
<trkpt lat="45.8921370" lon="9.8326110">
	<ele>1654.60</ele>
	<time>2023-11-18T11:33:00.000Z</time>
</trkpt>
<trkpt lat="45.8921320" lon="9.8326190">
	<ele>1654.80</ele>
	<time>2023-11-18T11:33:01.000Z</time>
</trkpt>
<trkpt lat="45.8921300" lon="9.8326270">
	<ele>1654.80</ele>
	<time>2023-11-18T11:33:02.000Z</time>
</trkpt>
<trkpt lat="45.8921270" lon="9.8326330">
	<ele>1655.00</ele>
	<time>2023-11-18T11:33:03.000Z</time>
</trkpt>
<trkpt lat="45.8921250" lon="9.8326420">
	<ele>1655.40</ele>
	<time>2023-11-18T11:33:04.000Z</time>
</trkpt>
<trkpt lat="45.8921220" lon="9.8326480">
	<ele>1655.60</ele>
	<time>2023-11-18T11:33:05.000Z</time>
</trkpt>
<trkpt lat="45.8921180" lon="9.8326540">
	<ele>1655.80</ele>
	<time>2023-11-18T11:33:06.000Z</time>
</trkpt>
<trkpt lat="45.8921140" lon="9.8326610">
	<ele>1656.00</ele>
	<time>2023-11-18T11:33:07.000Z</time>
</trkpt>
<trkpt lat="45.8921100" lon="9.8326720">
	<ele>1656.00</ele>
	<time>2023-11-18T11:33:08.000Z</time>
</trkpt>
<trkpt lat="45.8921070" lon="9.8326800">
	<ele>1656.00</ele>
	<time>2023-11-18T11:33:09.000Z</time>
</trkpt>
<trkpt lat="45.8921020" lon="9.8326890">
	<ele>1656.20</ele>
	<time>2023-11-18T11:33:10.000Z</time>
</trkpt>
<trkpt lat="45.8920970" lon="9.8326970">
	<ele>1656.40</ele>
	<time>2023-11-18T11:33:11.000Z</time>
</trkpt>
<trkpt lat="45.8920900" lon="9.8327030">
	<ele>1656.60</ele>
	<time>2023-11-18T11:33:12.000Z</time>
</trkpt>
<trkpt lat="45.8920830" lon="9.8327130">
	<ele>1656.60</ele>
	<time>2023-11-18T11:33:13.000Z</time>
</trkpt>
<trkpt lat="45.8920750" lon="9.8327200">
	<ele>1656.80</ele>
	<time>2023-11-18T11:33:14.000Z</time>
</trkpt>
<trkpt lat="45.8920700" lon="9.8327300">
	<ele>1656.80</ele>
	<time>2023-11-18T11:33:15.000Z</time>
</trkpt>
<trkpt lat="45.8920630" lon="9.8327390">
	<ele>1656.80</ele>
	<time>2023-11-18T11:33:16.000Z</time>
</trkpt>
<trkpt lat="45.8920570" lon="9.8327450">
	<ele>1656.80</ele>
	<time>2023-11-18T11:33:17.000Z</time>
</trkpt>
<trkpt lat="45.8920490" lon="9.8327530">
	<ele>1656.40</ele>
	<time>2023-11-18T11:33:18.000Z</time>
</trkpt>
<trkpt lat="45.8920420" lon="9.8327610">
	<ele>1656.40</ele>
	<time>2023-11-18T11:33:19.000Z</time>
</trkpt>
<trkpt lat="45.8920350" lon="9.8327700">
	<ele>1656.20</ele>
	<time>2023-11-18T11:33:20.000Z</time>
</trkpt>
<trkpt lat="45.8920270" lon="9.8327780">
	<ele>1656.00</ele>
	<time>2023-11-18T11:33:21.000Z</time>
</trkpt>
<trkpt lat="45.8920210" lon="9.8327830">
	<ele>1656.00</ele>
	<time>2023-11-18T11:33:22.000Z</time>
</trkpt>
<trkpt lat="45.8920180" lon="9.8327880">
	<ele>1655.80</ele>
	<time>2023-11-18T11:33:23.000Z</time>
</trkpt>
<trkpt lat="45.8920130" lon="9.8327930">
	<ele>1655.80</ele>
	<time>2023-11-18T11:33:24.000Z</time>
</trkpt>
<trkpt lat="45.8920080" lon="9.8328000">
	<ele>1655.60</ele>
	<time>2023-11-18T11:33:25.000Z</time>
</trkpt>
<trkpt lat="45.8919990" lon="9.8328080">
	<ele>1655.60</ele>
	<time>2023-11-18T11:33:26.000Z</time>
</trkpt>
<trkpt lat="45.8919920" lon="9.8328140">
	<ele>1655.60</ele>
	<time>2023-11-18T11:33:27.000Z</time>
</trkpt>
<trkpt lat="45.8919860" lon="9.8328220">
	<ele>1655.60</ele>
	<time>2023-11-18T11:33:28.000Z</time>
</trkpt>
<trkpt lat="45.8919830" lon="9.8328250">
	<ele>1655.60</ele>
	<time>2023-11-18T11:33:29.000Z</time>
</trkpt>
<trkpt lat="45.8919830" lon="9.8328250">
	<ele>1655.60</ele>
	<time>2023-11-18T11:33:30.000Z</time>
</trkpt>
<trkpt lat="45.8919840" lon="9.8328220">
	<ele>1655.40</ele>
	<time>2023-11-18T11:33:31.000Z</time>
</trkpt>
<trkpt lat="45.8919820" lon="9.8328190">
	<ele>1655.40</ele>
	<time>2023-11-18T11:33:32.000Z</time>
</trkpt>
<trkpt lat="45.8919800" lon="9.8328200">
	<ele>1655.20</ele>
	<time>2023-11-18T11:33:33.000Z</time>
</trkpt>
<trkpt lat="45.8919780" lon="9.8328200">
	<ele>1655.20</ele>
	<time>2023-11-18T11:33:34.000Z</time>
</trkpt>
<trkpt lat="45.8919780" lon="9.8328190">
	<ele>1655.00</ele>
	<time>2023-11-18T11:33:35.000Z</time>
</trkpt>
<trkpt lat="45.8919780" lon="9.8328170">
	<ele>1655.00</ele>
	<time>2023-11-18T11:33:36.000Z</time>
</trkpt>
<trkpt lat="45.8919770" lon="9.8328180">
	<ele>1655.00</ele>
	<time>2023-11-18T11:33:37.000Z</time>
</trkpt>
<trkpt lat="45.8919780" lon="9.8328170">
	<ele>1655.00</ele>
	<time>2023-11-18T11:33:38.000Z</time>
</trkpt>
<trkpt lat="45.8919780" lon="9.8328200">
	<ele>1654.80</ele>
	<time>2023-11-18T11:33:39.000Z</time>
</trkpt>
<trkpt lat="45.8919760" lon="9.8328230">
	<ele>1655.00</ele>
	<time>2023-11-18T11:33:40.000Z</time>
</trkpt>
<trkpt lat="45.8919710" lon="9.8328280">
	<ele>1655.00</ele>
	<time>2023-11-18T11:33:41.000Z</time>
</trkpt>
<trkpt lat="45.8919630" lon="9.8328350">
	<ele>1655.00</ele>
	<time>2023-11-18T11:33:42.000Z</time>
</trkpt>
<trkpt lat="45.8919590" lon="9.8328390">
	<ele>1655.00</ele>
	<time>2023-11-18T11:33:43.000Z</time>
</trkpt>
<trkpt lat="45.8919570" lon="9.8328410">
	<ele>1655.00</ele>
	<time>2023-11-18T11:33:44.000Z</time>
</trkpt>
<trkpt lat="45.8919560" lon="9.8328420">
	<ele>1655.00</ele>
	<time>2023-11-18T11:33:45.000Z</time>
</trkpt>
<trkpt lat="45.8919520" lon="9.8328470">
	<ele>1655.00</ele>
	<time>2023-11-18T11:33:46.000Z</time>
</trkpt>
<trkpt lat="45.8919460" lon="9.8328540">
	<ele>1655.00</ele>
	<time>2023-11-18T11:33:47.000Z</time>
</trkpt>
<trkpt lat="45.8919380" lon="9.8328630">
	<ele>1655.00</ele>
	<time>2023-11-18T11:33:48.000Z</time>
</trkpt>
<trkpt lat="45.8919260" lon="9.8328710">
	<ele>1654.60</ele>
	<time>2023-11-18T11:33:49.000Z</time>
</trkpt>
<trkpt lat="45.8919130" lon="9.8328760">
	<ele>1654.20</ele>
	<time>2023-11-18T11:33:50.000Z</time>
</trkpt>
<trkpt lat="45.8919000" lon="9.8328780">
	<ele>1654.00</ele>
	<time>2023-11-18T11:33:51.000Z</time>
</trkpt>
<trkpt lat="45.8918890" lon="9.8328770">
	<ele>1653.60</ele>
	<time>2023-11-18T11:33:52.000Z</time>
</trkpt>
<trkpt lat="45.8918780" lon="9.8328790">
	<ele>1653.60</ele>
	<time>2023-11-18T11:33:53.000Z</time>
</trkpt>
<trkpt lat="45.8918660" lon="9.8328770">
	<ele>1653.40</ele>
	<time>2023-11-18T11:33:54.000Z</time>
</trkpt>
<trkpt lat="45.8918560" lon="9.8328780">
	<ele>1653.40</ele>
	<time>2023-11-18T11:33:55.000Z</time>
</trkpt>
<trkpt lat="45.8918460" lon="9.8328790">
	<ele>1653.00</ele>
	<time>2023-11-18T11:33:56.000Z</time>
</trkpt>
<trkpt lat="45.8918340" lon="9.8328800">
	<ele>1652.80</ele>
	<time>2023-11-18T11:33:57.000Z</time>
</trkpt>
<trkpt lat="45.8918250" lon="9.8328800">
	<ele>1652.80</ele>
	<time>2023-11-18T11:33:58.000Z</time>
</trkpt>
<trkpt lat="45.8918180" lon="9.8328820">
	<ele>1652.80</ele>
	<time>2023-11-18T11:33:59.000Z</time>
</trkpt>
<trkpt lat="45.8918130" lon="9.8328860">
	<ele>1652.80</ele>
	<time>2023-11-18T11:34:00.000Z</time>
</trkpt>
<trkpt lat="45.8918080" lon="9.8328840">
	<ele>1652.80</ele>
	<time>2023-11-18T11:34:01.000Z</time>
</trkpt>
<trkpt lat="45.8918020" lon="9.8328870">
	<ele>1652.60</ele>
	<time>2023-11-18T11:34:02.000Z</time>
</trkpt>
<trkpt lat="45.8917960" lon="9.8328930">
	<ele>1652.60</ele>
	<time>2023-11-18T11:34:03.000Z</time>
</trkpt>
<trkpt lat="45.8917910" lon="9.8329000">
	<ele>1652.80</ele>
	<time>2023-11-18T11:34:04.000Z</time>
</trkpt>
<trkpt lat="45.8917870" lon="9.8329050">
	<ele>1652.60</ele>
	<time>2023-11-18T11:34:05.000Z</time>
</trkpt>
<trkpt lat="45.8917840" lon="9.8329070">
	<ele>1652.60</ele>
	<time>2023-11-18T11:34:06.000Z</time>
</trkpt>
<trkpt lat="45.8917830" lon="9.8329080">
	<ele>1652.60</ele>
	<time>2023-11-18T11:34:07.000Z</time>
</trkpt>
<trkpt lat="45.8917810" lon="9.8329100">
	<ele>1652.40</ele>
	<time>2023-11-18T11:34:08.000Z</time>
</trkpt>
<trkpt lat="45.8917800" lon="9.8329120">
	<ele>1652.40</ele>
	<time>2023-11-18T11:34:09.000Z</time>
</trkpt>
<trkpt lat="45.8917800" lon="9.8329130">
	<ele>1652.20</ele>
	<time>2023-11-18T11:34:10.000Z</time>
</trkpt>
<trkpt lat="45.8917790" lon="9.8329150">
	<ele>1652.20</ele>
	<time>2023-11-18T11:34:11.000Z</time>
</trkpt>
<trkpt lat="45.8917780" lon="9.8329170">
	<ele>1652.20</ele>
	<time>2023-11-18T11:34:12.000Z</time>
</trkpt>
<trkpt lat="45.8917770" lon="9.8329180">
	<ele>1652.20</ele>
	<time>2023-11-18T11:34:13.000Z</time>
</trkpt>
<trkpt lat="45.8917770" lon="9.8329200">
	<ele>1652.20</ele>
	<time>2023-11-18T11:34:14.000Z</time>
</trkpt>
<trkpt lat="45.8917770" lon="9.8329220">
	<ele>1652.40</ele>
	<time>2023-11-18T11:34:15.000Z</time>
</trkpt>
<trkpt lat="45.8917780" lon="9.8329210">
	<ele>1652.40</ele>
	<time>2023-11-18T11:34:16.000Z</time>
</trkpt>
<trkpt lat="45.8917780" lon="9.8329210">
	<ele>1652.40</ele>
	<time>2023-11-18T11:34:17.000Z</time>
</trkpt>
<trkpt lat="45.8917780" lon="9.8329210">
	<ele>1652.40</ele>
	<time>2023-11-18T11:34:18.000Z</time>
</trkpt>
<trkpt lat="45.8917780" lon="9.8329210">
	<ele>1652.40</ele>
	<time>2023-11-18T11:34:19.000Z</time>
</trkpt>
<trkpt lat="45.8917780" lon="9.8329210">
	<ele>1652.40</ele>
	<time>2023-11-18T11:34:20.000Z</time>
</trkpt>
<trkpt lat="45.8917780" lon="9.8329210">
	<ele>1652.20</ele>
	<time>2023-11-18T11:34:21.000Z</time>
</trkpt>
<trkpt lat="45.8917780" lon="9.8329210">
	<ele>1651.80</ele>
	<time>2023-11-18T11:34:22.000Z</time>
</trkpt>
<trkpt lat="45.8917780" lon="9.8329210">
	<ele>1651.60</ele>
	<time>2023-11-18T11:34:23.000Z</time>
</trkpt>
<trkpt lat="45.8917780" lon="9.8329210">
	<ele>1651.60</ele>
	<time>2023-11-18T11:34:24.000Z</time>
</trkpt>
<trkpt lat="45.8917780" lon="9.8329210">
	<ele>1651.40</ele>
	<time>2023-11-18T11:34:25.000Z</time>
</trkpt>
<trkpt lat="45.8917780" lon="9.8329210">
	<ele>1651.20</ele>
	<time>2023-11-18T11:34:26.000Z</time>
</trkpt>
<trkpt lat="45.8917730" lon="9.8329250">
	<ele>1651.00</ele>
	<time>2023-11-18T11:34:27.000Z</time>
</trkpt>
<trkpt lat="45.8917610" lon="9.8329260">
	<ele>1650.80</ele>
	<time>2023-11-18T11:34:28.000Z</time>
</trkpt>
<trkpt lat="45.8917490" lon="9.8329250">
	<ele>1650.60</ele>
	<time>2023-11-18T11:34:29.000Z</time>
</trkpt>
<trkpt lat="45.8917400" lon="9.8329270">
	<ele>1650.60</ele>
	<time>2023-11-18T11:34:30.000Z</time>
</trkpt>
<trkpt lat="45.8917280" lon="9.8329260">
	<ele>1650.40</ele>
	<time>2023-11-18T11:34:31.000Z</time>
</trkpt>
<trkpt lat="45.8917170" lon="9.8329280">
	<ele>1650.40</ele>
	<time>2023-11-18T11:34:32.000Z</time>
</trkpt>
<trkpt lat="45.8917090" lon="9.8329340">
	<ele>1650.20</ele>
	<time>2023-11-18T11:34:33.000Z</time>
</trkpt>
<trkpt lat="45.8917030" lon="9.8329430">
	<ele>1650.00</ele>
	<time>2023-11-18T11:34:34.000Z</time>
</trkpt>
<trkpt lat="45.8916960" lon="9.8329470">
	<ele>1649.80</ele>
	<time>2023-11-18T11:34:35.000Z</time>
</trkpt>
<trkpt lat="45.8916880" lon="9.8329530">
	<ele>1649.80</ele>
	<time>2023-11-18T11:34:36.000Z</time>
</trkpt>
<trkpt lat="45.8916850" lon="9.8329550">
	<ele>1649.60</ele>
	<time>2023-11-18T11:34:37.000Z</time>
</trkpt>
<trkpt lat="45.8916830" lon="9.8329550">
	<ele>1649.60</ele>
	<time>2023-11-18T11:34:38.000Z</time>
</trkpt>
<trkpt lat="45.8916800" lon="9.8329560">
	<ele>1649.40</ele>
	<time>2023-11-18T11:34:39.000Z</time>
</trkpt>
<trkpt lat="45.8916760" lon="9.8329560">
	<ele>1649.40</ele>
	<time>2023-11-18T11:34:40.000Z</time>
</trkpt>
<trkpt lat="45.8916750" lon="9.8329540">
	<ele>1649.40</ele>
	<time>2023-11-18T11:34:41.000Z</time>
</trkpt>
<trkpt lat="45.8916730" lon="9.8329540">
	<ele>1649.40</ele>
	<time>2023-11-18T11:34:42.000Z</time>
</trkpt>
<trkpt lat="45.8916730" lon="9.8329550">
	<ele>1649.40</ele>
	<time>2023-11-18T11:34:43.000Z</time>
</trkpt>
<trkpt lat="45.8916720" lon="9.8329560">
	<ele>1649.80</ele>
	<time>2023-11-18T11:34:44.000Z</time>
</trkpt>
<trkpt lat="45.8916710" lon="9.8329560">
	<ele>1650.00</ele>
	<time>2023-11-18T11:34:45.000Z</time>
</trkpt>
<trkpt lat="45.8916710" lon="9.8329560">
	<ele>1650.00</ele>
	<time>2023-11-18T11:34:46.000Z</time>
</trkpt>
<trkpt lat="45.8916710" lon="9.8329560">
	<ele>1650.20</ele>
	<time>2023-11-18T11:34:47.000Z</time>
</trkpt>
<trkpt lat="45.8916710" lon="9.8329560">
	<ele>1650.20</ele>
	<time>2023-11-18T11:34:48.000Z</time>
</trkpt>
<trkpt lat="45.8916710" lon="9.8329560">
	<ele>1650.20</ele>
	<time>2023-11-18T11:34:49.000Z</time>
</trkpt>
<trkpt lat="45.8916710" lon="9.8329560">
	<ele>1650.20</ele>
	<time>2023-11-18T11:34:50.000Z</time>
</trkpt>
<trkpt lat="45.8916710" lon="9.8329560">
	<ele>1650.20</ele>
	<time>2023-11-18T11:34:51.000Z</time>
</trkpt>
<trkpt lat="45.8916710" lon="9.8329560">
	<ele>1650.00</ele>
	<time>2023-11-18T11:34:52.000Z</time>
</trkpt>
<trkpt lat="45.8916720" lon="9.8329560">
	<ele>1650.00</ele>
	<time>2023-11-18T11:34:53.000Z</time>
</trkpt>
<trkpt lat="45.8916730" lon="9.8329560">
	<ele>1649.80</ele>
	<time>2023-11-18T11:34:54.000Z</time>
</trkpt>
<trkpt lat="45.8916730" lon="9.8329560">
	<ele>1649.80</ele>
	<time>2023-11-18T11:34:55.000Z</time>
</trkpt>
<trkpt lat="45.8916730" lon="9.8329560">
	<ele>1649.80</ele>
	<time>2023-11-18T11:34:56.000Z</time>
</trkpt>
<trkpt lat="45.8916730" lon="9.8329560">
	<ele>1649.80</ele>
	<time>2023-11-18T11:34:57.000Z</time>
</trkpt>
<trkpt lat="45.8916750" lon="9.8329560">
	<ele>1649.80</ele>
	<time>2023-11-18T11:34:58.000Z</time>
</trkpt>
<trkpt lat="45.8916750" lon="9.8329560">
	<ele>1649.80</ele>
	<time>2023-11-18T11:34:59.000Z</time>
</trkpt>
<trkpt lat="45.8916760" lon="9.8329560">
	<ele>1649.80</ele>
	<time>2023-11-18T11:35:00.000Z</time>
</trkpt>
<trkpt lat="45.8916760" lon="9.8329560">
	<ele>1649.80</ele>
	<time>2023-11-18T11:35:01.000Z</time>
</trkpt>
<trkpt lat="45.8916770" lon="9.8329560">
	<ele>1649.80</ele>
	<time>2023-11-18T11:35:02.000Z</time>
</trkpt>
<trkpt lat="45.8916780" lon="9.8329560">
	<ele>1649.80</ele>
	<time>2023-11-18T11:35:03.000Z</time>
</trkpt>
<trkpt lat="45.8916790" lon="9.8329560">
	<ele>1649.80</ele>
	<time>2023-11-18T11:35:04.000Z</time>
</trkpt>
<trkpt lat="45.8916790" lon="9.8329560">
	<ele>1649.80</ele>
	<time>2023-11-18T11:35:05.000Z</time>
</trkpt>
<trkpt lat="45.8916800" lon="9.8329570">
	<ele>1649.80</ele>
	<time>2023-11-18T11:35:06.000Z</time>
</trkpt>
<trkpt lat="45.8916800" lon="9.8329570">
	<ele>1649.80</ele>
	<time>2023-11-18T11:35:07.000Z</time>
</trkpt>
<trkpt lat="45.8916800" lon="9.8329570">
	<ele>1649.80</ele>
	<time>2023-11-18T11:35:08.000Z</time>
</trkpt>
<trkpt lat="45.8916800" lon="9.8329580">
	<ele>1649.80</ele>
	<time>2023-11-18T11:35:09.000Z</time>
</trkpt>
<trkpt lat="45.8916800" lon="9.8329580">
	<ele>1649.80</ele>
	<time>2023-11-18T11:35:10.000Z</time>
</trkpt>
<trkpt lat="45.8916840" lon="9.8329580">
	<ele>1649.80</ele>
	<time>2023-11-18T11:35:11.000Z</time>
</trkpt>
<trkpt lat="45.8916840" lon="9.8329580">
	<ele>1649.80</ele>
	<time>2023-11-18T11:35:12.000Z</time>
</trkpt>
<trkpt lat="45.8916840" lon="9.8329580">
	<ele>1649.80</ele>
	<time>2023-11-18T11:35:13.000Z</time>
</trkpt>
<trkpt lat="45.8916840" lon="9.8329580">
	<ele>1649.80</ele>
	<time>2023-11-18T11:35:14.000Z</time>
</trkpt>
<trkpt lat="45.8916850" lon="9.8329590">
	<ele>1649.80</ele>
	<time>2023-11-18T11:35:15.000Z</time>
</trkpt>
<trkpt lat="45.8916850" lon="9.8329590">
	<ele>1649.80</ele>
	<time>2023-11-18T11:35:16.000Z</time>
</trkpt>
<trkpt lat="45.8916850" lon="9.8329590">
	<ele>1649.80</ele>
	<time>2023-11-18T11:35:17.000Z</time>
</trkpt>
<trkpt lat="45.8916860" lon="9.8329600">
	<ele>1649.80</ele>
	<time>2023-11-18T11:35:18.000Z</time>
</trkpt>
<trkpt lat="45.8916860" lon="9.8329600">
	<ele>1649.80</ele>
	<time>2023-11-18T11:35:19.000Z</time>
</trkpt>
<trkpt lat="45.8916860" lon="9.8329610">
	<ele>1649.80</ele>
	<time>2023-11-18T11:35:20.000Z</time>
</trkpt>
<trkpt lat="45.8916860" lon="9.8329610">
	<ele>1650.00</ele>
	<time>2023-11-18T11:35:21.000Z</time>
</trkpt>
<trkpt lat="45.8916860" lon="9.8329610">
	<ele>1649.80</ele>
	<time>2023-11-18T11:35:22.000Z</time>
</trkpt>
<trkpt lat="45.8916860" lon="9.8329620">
	<ele>1649.80</ele>
	<time>2023-11-18T11:35:23.000Z</time>
</trkpt>
<trkpt lat="45.8916860" lon="9.8329620">
	<ele>1649.80</ele>
	<time>2023-11-18T11:35:24.000Z</time>
</trkpt>
<trkpt lat="45.8916860" lon="9.8329620">
	<ele>1649.80</ele>
	<time>2023-11-18T11:35:25.000Z</time>
</trkpt>
<trkpt lat="45.8916860" lon="9.8329620">
	<ele>1649.80</ele>
	<time>2023-11-18T11:35:26.000Z</time>
</trkpt>
<trkpt lat="45.8916860" lon="9.8329630">
	<ele>1649.80</ele>
	<time>2023-11-18T11:35:27.000Z</time>
</trkpt>
<trkpt lat="45.8916860" lon="9.8329630">
	<ele>1649.80</ele>
	<time>2023-11-18T11:35:28.000Z</time>
</trkpt>
<trkpt lat="45.8916860" lon="9.8329630">
	<ele>1649.80</ele>
	<time>2023-11-18T11:35:29.000Z</time>
</trkpt>
<trkpt lat="45.8916860" lon="9.8329630">
	<ele>1649.80</ele>
	<time>2023-11-18T11:35:30.000Z</time>
</trkpt>
<trkpt lat="45.8916860" lon="9.8329640">
	<ele>1649.80</ele>
	<time>2023-11-18T11:35:31.000Z</time>
</trkpt>
<trkpt lat="45.8916860" lon="9.8329640">
	<ele>1649.80</ele>
	<time>2023-11-18T11:35:32.000Z</time>
</trkpt>
<trkpt lat="45.8916850" lon="9.8329650">
	<ele>1650.00</ele>
	<time>2023-11-18T11:35:33.000Z</time>
</trkpt>
<trkpt lat="45.8916850" lon="9.8329650">
	<ele>1650.00</ele>
	<time>2023-11-18T11:35:34.000Z</time>
</trkpt>
<trkpt lat="45.8916840" lon="9.8329650">
	<ele>1650.20</ele>
	<time>2023-11-18T11:35:35.000Z</time>
</trkpt>
<trkpt lat="45.8916840" lon="9.8329650">
	<ele>1650.40</ele>
	<time>2023-11-18T11:35:36.000Z</time>
</trkpt>
<trkpt lat="45.8916840" lon="9.8329650">
	<ele>1650.40</ele>
	<time>2023-11-18T11:35:37.000Z</time>
</trkpt>
<trkpt lat="45.8916830" lon="9.8329650">
	<ele>1650.40</ele>
	<time>2023-11-18T11:35:38.000Z</time>
</trkpt>
<trkpt lat="45.8916830" lon="9.8329650">
	<ele>1650.40</ele>
	<time>2023-11-18T11:35:39.000Z</time>
</trkpt>
<trkpt lat="45.8916830" lon="9.8329650">
	<ele>1650.40</ele>
	<time>2023-11-18T11:35:40.000Z</time>
</trkpt>
<trkpt lat="45.8916830" lon="9.8329650">
	<ele>1650.40</ele>
	<time>2023-11-18T11:35:41.000Z</time>
</trkpt>
<trkpt lat="45.8916830" lon="9.8329650">
	<ele>1650.40</ele>
	<time>2023-11-18T11:35:42.000Z</time>
</trkpt>
<trkpt lat="45.8916820" lon="9.8329660">
	<ele>1650.20</ele>
	<time>2023-11-18T11:35:43.000Z</time>
</trkpt>
<trkpt lat="45.8916820" lon="9.8329670">
	<ele>1650.20</ele>
	<time>2023-11-18T11:35:44.000Z</time>
</trkpt>
<trkpt lat="45.8916820" lon="9.8329670">
	<ele>1650.20</ele>
	<time>2023-11-18T11:35:45.000Z</time>
</trkpt>
<trkpt lat="45.8916810" lon="9.8329670">
	<ele>1650.00</ele>
	<time>2023-11-18T11:35:46.000Z</time>
</trkpt>
<trkpt lat="45.8916810" lon="9.8329680">
	<ele>1649.80</ele>
	<time>2023-11-18T11:35:47.000Z</time>
</trkpt>
<trkpt lat="45.8916810" lon="9.8329680">
	<ele>1649.80</ele>
	<time>2023-11-18T11:35:48.000Z</time>
</trkpt>
<trkpt lat="45.8916810" lon="9.8329680">
	<ele>1649.80</ele>
	<time>2023-11-18T11:35:49.000Z</time>
</trkpt>
<trkpt lat="45.8916810" lon="9.8329680">
	<ele>1649.80</ele>
	<time>2023-11-18T11:35:50.000Z</time>
</trkpt>
<trkpt lat="45.8916810" lon="9.8329680">
	<ele>1650.00</ele>
	<time>2023-11-18T11:35:51.000Z</time>
</trkpt>
<trkpt lat="45.8916810" lon="9.8329680">
	<ele>1650.00</ele>
	<time>2023-11-18T11:35:52.000Z</time>
</trkpt>
<trkpt lat="45.8916810" lon="9.8329680">
	<ele>1650.00</ele>
	<time>2023-11-18T11:35:53.000Z</time>
</trkpt>
<trkpt lat="45.8916800" lon="9.8329680">
	<ele>1650.00</ele>
	<time>2023-11-18T11:35:54.000Z</time>
</trkpt>
<trkpt lat="45.8916800" lon="9.8329680">
	<ele>1650.00</ele>
	<time>2023-11-18T11:35:55.000Z</time>
</trkpt>
<trkpt lat="45.8916800" lon="9.8329680">
	<ele>1650.00</ele>
	<time>2023-11-18T11:35:56.000Z</time>
</trkpt>
<trkpt lat="45.8916800" lon="9.8329680">
	<ele>1650.00</ele>
	<time>2023-11-18T11:35:57.000Z</time>
</trkpt>
<trkpt lat="45.8916800" lon="9.8329690">
	<ele>1650.00</ele>
	<time>2023-11-18T11:35:58.000Z</time>
</trkpt>
<trkpt lat="45.8916800" lon="9.8329690">
	<ele>1650.00</ele>
	<time>2023-11-18T11:35:59.000Z</time>
</trkpt>
<trkpt lat="45.8916800" lon="9.8329690">
	<ele>1650.00</ele>
	<time>2023-11-18T11:36:00.000Z</time>
</trkpt>
<trkpt lat="45.8916800" lon="9.8329690">
	<ele>1650.00</ele>
	<time>2023-11-18T11:36:01.000Z</time>
</trkpt>
<trkpt lat="45.8916800" lon="9.8329690">
	<ele>1650.00</ele>
	<time>2023-11-18T11:36:02.000Z</time>
</trkpt>
<trkpt lat="45.8916800" lon="9.8329700">
	<ele>1650.00</ele>
	<time>2023-11-18T11:36:03.000Z</time>
</trkpt>
<trkpt lat="45.8916800" lon="9.8329700">
	<ele>1650.00</ele>
	<time>2023-11-18T11:36:04.000Z</time>
</trkpt>
<trkpt lat="45.8916800" lon="9.8329710">
	<ele>1650.00</ele>
	<time>2023-11-18T11:36:05.000Z</time>
</trkpt>
<trkpt lat="45.8916800" lon="9.8329710">
	<ele>1650.00</ele>
	<time>2023-11-18T11:36:06.000Z</time>
</trkpt>
<trkpt lat="45.8916800" lon="9.8329710">
	<ele>1650.00</ele>
	<time>2023-11-18T11:36:07.000Z</time>
</trkpt>
<trkpt lat="45.8916800" lon="9.8329720">
	<ele>1650.00</ele>
	<time>2023-11-18T11:36:08.000Z</time>
</trkpt>
<trkpt lat="45.8916800" lon="9.8329730">
	<ele>1650.00</ele>
	<time>2023-11-18T11:36:09.000Z</time>
</trkpt>
<trkpt lat="45.8916800" lon="9.8329740">
	<ele>1650.00</ele>
	<time>2023-11-18T11:36:10.000Z</time>
</trkpt>
<trkpt lat="45.8916800" lon="9.8329750">
	<ele>1650.00</ele>
	<time>2023-11-18T11:36:11.000Z</time>
</trkpt>
<trkpt lat="45.8916800" lon="9.8329750">
	<ele>1650.00</ele>
	<time>2023-11-18T11:36:12.000Z</time>
</trkpt>
<trkpt lat="45.8916810" lon="9.8329760">
	<ele>1650.00</ele>
	<time>2023-11-18T11:36:13.000Z</time>
</trkpt>
<trkpt lat="45.8916820" lon="9.8329770">
	<ele>1650.00</ele>
	<time>2023-11-18T11:36:14.000Z</time>
</trkpt>
<trkpt lat="45.8916840" lon="9.8329780">
	<ele>1650.00</ele>
	<time>2023-11-18T11:36:15.000Z</time>
</trkpt>
<trkpt lat="45.8916880" lon="9.8329790">
	<ele>1650.00</ele>
	<time>2023-11-18T11:36:16.000Z</time>
</trkpt>
<trkpt lat="45.8916910" lon="9.8329820">
	<ele>1650.00</ele>
	<time>2023-11-18T11:36:17.000Z</time>
</trkpt>
<trkpt lat="45.8916940" lon="9.8329830">
	<ele>1650.00</ele>
	<time>2023-11-18T11:36:18.000Z</time>
</trkpt>
<trkpt lat="45.8916960" lon="9.8329830">
	<ele>1650.00</ele>
	<time>2023-11-18T11:36:19.000Z</time>
</trkpt>
<trkpt lat="45.8916970" lon="9.8329830">
	<ele>1650.00</ele>
	<time>2023-11-18T11:36:20.000Z</time>
</trkpt>
<trkpt lat="45.8916970" lon="9.8329830">
	<ele>1650.00</ele>
	<time>2023-11-18T11:36:21.000Z</time>
</trkpt>
<trkpt lat="45.8916970" lon="9.8329830">
	<ele>1650.00</ele>
	<time>2023-11-18T11:36:22.000Z</time>
</trkpt>
<trkpt lat="45.8916970" lon="9.8329830">
	<ele>1650.00</ele>
	<time>2023-11-18T11:36:23.000Z</time>
</trkpt>
<trkpt lat="45.8916970" lon="9.8329840">
	<ele>1650.00</ele>
	<time>2023-11-18T11:36:24.000Z</time>
</trkpt>
<trkpt lat="45.8916970" lon="9.8329840">
	<ele>1650.00</ele>
	<time>2023-11-18T11:36:25.000Z</time>
</trkpt>
<trkpt lat="45.8916970" lon="9.8329840">
	<ele>1650.00</ele>
	<time>2023-11-18T11:36:26.000Z</time>
</trkpt>
<trkpt lat="45.8916970" lon="9.8329840">
	<ele>1650.00</ele>
	<time>2023-11-18T11:36:27.000Z</time>
</trkpt>
<trkpt lat="45.8916970" lon="9.8329840">
	<ele>1650.00</ele>
	<time>2023-11-18T11:36:28.000Z</time>
</trkpt>
<trkpt lat="45.8916970" lon="9.8329840">
	<ele>1650.00</ele>
	<time>2023-11-18T11:36:29.000Z</time>
</trkpt>
<trkpt lat="45.8916970" lon="9.8329840">
	<ele>1650.00</ele>
	<time>2023-11-18T11:36:30.000Z</time>
</trkpt>
<trkpt lat="45.8916970" lon="9.8329840">
	<ele>1650.00</ele>
	<time>2023-11-18T11:36:31.000Z</time>
</trkpt>
<trkpt lat="45.8916970" lon="9.8329800">
	<ele>1650.00</ele>
	<time>2023-11-18T11:36:32.000Z</time>
</trkpt>
<trkpt lat="45.8916970" lon="9.8329770">
	<ele>1650.00</ele>
	<time>2023-11-18T11:36:33.000Z</time>
</trkpt>
<trkpt lat="45.8916970" lon="9.8329730">
	<ele>1650.00</ele>
	<time>2023-11-18T11:36:34.000Z</time>
</trkpt>
<trkpt lat="45.8916960" lon="9.8329660">
	<ele>1650.00</ele>
	<time>2023-11-18T11:36:35.000Z</time>
</trkpt>
<trkpt lat="45.8916950" lon="9.8329580">
	<ele>1650.00</ele>
	<time>2023-11-18T11:36:36.000Z</time>
</trkpt>
<trkpt lat="45.8916940" lon="9.8329520">
	<ele>1650.00</ele>
	<time>2023-11-18T11:36:37.000Z</time>
</trkpt>
<trkpt lat="45.8916940" lon="9.8329450">
	<ele>1650.00</ele>
	<time>2023-11-18T11:36:38.000Z</time>
</trkpt>
<trkpt lat="45.8916940" lon="9.8329400">
	<ele>1650.00</ele>
	<time>2023-11-18T11:36:39.000Z</time>
</trkpt>
<trkpt lat="45.8916940" lon="9.8329360">
	<ele>1650.00</ele>
	<time>2023-11-18T11:36:40.000Z</time>
</trkpt>
<trkpt lat="45.8916940" lon="9.8329340">
	<ele>1650.00</ele>
	<time>2023-11-18T11:36:41.000Z</time>
</trkpt>
<trkpt lat="45.8916940" lon="9.8329320">
	<ele>1650.00</ele>
	<time>2023-11-18T11:36:42.000Z</time>
</trkpt>
<trkpt lat="45.8916940" lon="9.8329310">
	<ele>1650.00</ele>
	<time>2023-11-18T11:36:43.000Z</time>
</trkpt>
<trkpt lat="45.8916940" lon="9.8329280">
	<ele>1650.00</ele>
	<time>2023-11-18T11:36:44.000Z</time>
</trkpt>
<trkpt lat="45.8916940" lon="9.8329270">
	<ele>1650.00</ele>
	<time>2023-11-18T11:36:45.000Z</time>
</trkpt>
<trkpt lat="45.8916940" lon="9.8329260">
	<ele>1650.00</ele>
	<time>2023-11-18T11:36:46.000Z</time>
</trkpt>
<trkpt lat="45.8916940" lon="9.8329250">
	<ele>1650.00</ele>
	<time>2023-11-18T11:36:47.000Z</time>
</trkpt>
<trkpt lat="45.8916940" lon="9.8329240">
	<ele>1650.00</ele>
	<time>2023-11-18T11:36:48.000Z</time>
</trkpt>
<trkpt lat="45.8916940" lon="9.8329230">
	<ele>1650.00</ele>
	<time>2023-11-18T11:36:49.000Z</time>
</trkpt>
<trkpt lat="45.8916940" lon="9.8329220">
	<ele>1650.00</ele>
	<time>2023-11-18T11:36:50.000Z</time>
</trkpt>
<trkpt lat="45.8916950" lon="9.8329210">
	<ele>1650.00</ele>
	<time>2023-11-18T11:36:51.000Z</time>
</trkpt>
<trkpt lat="45.8916960" lon="9.8329210">
	<ele>1650.00</ele>
	<time>2023-11-18T11:36:52.000Z</time>
</trkpt>
<trkpt lat="45.8916970" lon="9.8329200">
	<ele>1650.00</ele>
	<time>2023-11-18T11:36:53.000Z</time>
</trkpt>
<trkpt lat="45.8916970" lon="9.8329200">
	<ele>1650.00</ele>
	<time>2023-11-18T11:36:54.000Z</time>
</trkpt>
<trkpt lat="45.8916980" lon="9.8329200">
	<ele>1650.00</ele>
	<time>2023-11-18T11:36:55.000Z</time>
</trkpt>
<trkpt lat="45.8916980" lon="9.8329200">
	<ele>1650.00</ele>
	<time>2023-11-18T11:36:56.000Z</time>
</trkpt>
<trkpt lat="45.8916980" lon="9.8329200">
	<ele>1650.00</ele>
	<time>2023-11-18T11:36:57.000Z</time>
</trkpt>
<trkpt lat="45.8916980" lon="9.8329200">
	<ele>1650.00</ele>
	<time>2023-11-18T11:36:58.000Z</time>
</trkpt>
<trkpt lat="45.8916980" lon="9.8329200">
	<ele>1650.00</ele>
	<time>2023-11-18T11:36:59.000Z</time>
</trkpt>
<trkpt lat="45.8916980" lon="9.8329200">
	<ele>1650.00</ele>
	<time>2023-11-18T11:37:00.000Z</time>
</trkpt>
<trkpt lat="45.8916980" lon="9.8329200">
	<ele>1650.00</ele>
	<time>2023-11-18T11:37:01.000Z</time>
</trkpt>
<trkpt lat="45.8916980" lon="9.8329200">
	<ele>1650.00</ele>
	<time>2023-11-18T11:37:02.000Z</time>
</trkpt>
<trkpt lat="45.8916980" lon="9.8329200">
	<ele>1650.00</ele>
	<time>2023-11-18T11:37:03.000Z</time>
</trkpt>
<trkpt lat="45.8916980" lon="9.8329200">
	<ele>1650.00</ele>
	<time>2023-11-18T11:37:04.000Z</time>
</trkpt>
<trkpt lat="45.8916990" lon="9.8329200">
	<ele>1650.00</ele>
	<time>2023-11-18T11:37:05.000Z</time>
</trkpt>
<trkpt lat="45.8916990" lon="9.8329200">
	<ele>1650.00</ele>
	<time>2023-11-18T11:37:06.000Z</time>
</trkpt>
<trkpt lat="45.8916990" lon="9.8329200">
	<ele>1650.00</ele>
	<time>2023-11-18T11:37:07.000Z</time>
</trkpt>
<trkpt lat="45.8916990" lon="9.8329210">
	<ele>1650.00</ele>
	<time>2023-11-18T11:37:08.000Z</time>
</trkpt>
<trkpt lat="45.8916990" lon="9.8329210">
	<ele>1650.00</ele>
	<time>2023-11-18T11:37:09.000Z</time>
</trkpt>
<trkpt lat="45.8916990" lon="9.8329210">
	<ele>1650.00</ele>
	<time>2023-11-18T11:37:10.000Z</time>
</trkpt>
<trkpt lat="45.8916990" lon="9.8329220">
	<ele>1650.00</ele>
	<time>2023-11-18T11:37:11.000Z</time>
</trkpt>
<trkpt lat="45.8916990" lon="9.8329220">
	<ele>1650.00</ele>
	<time>2023-11-18T11:37:12.000Z</time>
</trkpt>
<trkpt lat="45.8916990" lon="9.8329230">
	<ele>1650.00</ele>
	<time>2023-11-18T11:37:13.000Z</time>
</trkpt>
<trkpt lat="45.8916990" lon="9.8329230">
	<ele>1650.00</ele>
	<time>2023-11-18T11:37:14.000Z</time>
</trkpt>
<trkpt lat="45.8916990" lon="9.8329230">
	<ele>1650.00</ele>
	<time>2023-11-18T11:37:15.000Z</time>
</trkpt>
<trkpt lat="45.8916990" lon="9.8329250">
	<ele>1650.00</ele>
	<time>2023-11-18T11:37:16.000Z</time>
</trkpt>
<trkpt lat="45.8916990" lon="9.8329270">
	<ele>1650.00</ele>
	<time>2023-11-18T11:37:17.000Z</time>
</trkpt>
<trkpt lat="45.8916980" lon="9.8329290">
	<ele>1650.00</ele>
	<time>2023-11-18T11:37:18.000Z</time>
</trkpt>
<trkpt lat="45.8916980" lon="9.8329310">
	<ele>1650.00</ele>
	<time>2023-11-18T11:37:19.000Z</time>
</trkpt>
<trkpt lat="45.8916980" lon="9.8329320">
	<ele>1650.00</ele>
	<time>2023-11-18T11:37:20.000Z</time>
</trkpt>
<trkpt lat="45.8916980" lon="9.8329330">
	<ele>1650.00</ele>
	<time>2023-11-18T11:37:21.000Z</time>
</trkpt>
<trkpt lat="45.8916980" lon="9.8329330">
	<ele>1650.00</ele>
	<time>2023-11-18T11:37:22.000Z</time>
</trkpt>
<trkpt lat="45.8916980" lon="9.8329340">
	<ele>1650.00</ele>
	<time>2023-11-18T11:37:23.000Z</time>
</trkpt>
<trkpt lat="45.8916980" lon="9.8329340">
	<ele>1650.00</ele>
	<time>2023-11-18T11:37:24.000Z</time>
</trkpt>
<trkpt lat="45.8916990" lon="9.8329350">
	<ele>1650.00</ele>
	<time>2023-11-18T11:37:25.000Z</time>
</trkpt>
<trkpt lat="45.8916990" lon="9.8329360">
	<ele>1650.00</ele>
	<time>2023-11-18T11:37:26.000Z</time>
</trkpt>
<trkpt lat="45.8916990" lon="9.8329360">
	<ele>1650.00</ele>
	<time>2023-11-18T11:37:27.000Z</time>
</trkpt>
<trkpt lat="45.8916990" lon="9.8329370">
	<ele>1650.00</ele>
	<time>2023-11-18T11:37:28.000Z</time>
</trkpt>
<trkpt lat="45.8916990" lon="9.8329370">
	<ele>1650.00</ele>
	<time>2023-11-18T11:37:29.000Z</time>
</trkpt>
<trkpt lat="45.8916990" lon="9.8329380">
	<ele>1650.00</ele>
	<time>2023-11-18T11:37:30.000Z</time>
</trkpt>
<trkpt lat="45.8916990" lon="9.8329390">
	<ele>1650.00</ele>
	<time>2023-11-18T11:37:31.000Z</time>
</trkpt>
<trkpt lat="45.8917010" lon="9.8329490">
	<ele>1650.00</ele>
	<time>2023-11-18T11:37:32.000Z</time>
</trkpt>
<trkpt lat="45.8917040" lon="9.8329730">
	<ele>1650.00</ele>
	<time>2023-11-18T11:37:33.000Z</time>
</trkpt>
<trkpt lat="45.8917090" lon="9.8329940">
	<ele>1650.00</ele>
	<time>2023-11-18T11:37:34.000Z</time>
</trkpt>
<trkpt lat="45.8917140" lon="9.8330170">
	<ele>1650.00</ele>
	<time>2023-11-18T11:37:35.000Z</time>
</trkpt>
<trkpt lat="45.8917170" lon="9.8330350">
	<ele>1650.00</ele>
	<time>2023-11-18T11:37:36.000Z</time>
</trkpt>
<trkpt lat="45.8917190" lon="9.8330540">
	<ele>1650.00</ele>
	<time>2023-11-18T11:37:37.000Z</time>
</trkpt>
<trkpt lat="45.8917170" lon="9.8330740">
	<ele>1650.00</ele>
	<time>2023-11-18T11:37:38.000Z</time>
</trkpt>
<trkpt lat="45.8917140" lon="9.8330960">
	<ele>1650.00</ele>
	<time>2023-11-18T11:37:39.000Z</time>
</trkpt>
<trkpt lat="45.8917170" lon="9.8331140">
	<ele>1650.00</ele>
	<time>2023-11-18T11:37:40.000Z</time>
</trkpt>
<trkpt lat="45.8917160" lon="9.8331330">
	<ele>1648.60</ele>
	<time>2023-11-18T11:37:41.000Z</time>
</trkpt>
<trkpt lat="45.8917130" lon="9.8331450">
	<ele>1647.60</ele>
	<time>2023-11-18T11:37:42.000Z</time>
</trkpt>
<trkpt lat="45.8917110" lon="9.8331550">
	<ele>1647.00</ele>
	<time>2023-11-18T11:37:43.000Z</time>
</trkpt>
<trkpt lat="45.8917120" lon="9.8331660">
	<ele>1646.60</ele>
	<time>2023-11-18T11:37:44.000Z</time>
</trkpt>
<trkpt lat="45.8917130" lon="9.8331800">
	<ele>1646.40</ele>
	<time>2023-11-18T11:37:45.000Z</time>
</trkpt>
<trkpt lat="45.8917160" lon="9.8331940">
	<ele>1646.40</ele>
	<time>2023-11-18T11:37:46.000Z</time>
</trkpt>
<trkpt lat="45.8917190" lon="9.8332070">
	<ele>1646.00</ele>
	<time>2023-11-18T11:37:47.000Z</time>
</trkpt>
<trkpt lat="45.8917180" lon="9.8332210">
	<ele>1645.80</ele>
	<time>2023-11-18T11:37:48.000Z</time>
</trkpt>
<trkpt lat="45.8917110" lon="9.8332360">
	<ele>1645.80</ele>
	<time>2023-11-18T11:37:49.000Z</time>
</trkpt>
<trkpt lat="45.8917140" lon="9.8332480">
	<ele>1645.60</ele>
	<time>2023-11-18T11:37:50.000Z</time>
</trkpt>
<trkpt lat="45.8917190" lon="9.8332590">
	<ele>1645.60</ele>
	<time>2023-11-18T11:37:51.000Z</time>
</trkpt>
<trkpt lat="45.8917290" lon="9.8332680">
	<ele>1645.60</ele>
	<time>2023-11-18T11:37:52.000Z</time>
</trkpt>
<trkpt lat="45.8917380" lon="9.8332740">
	<ele>1645.40</ele>
	<time>2023-11-18T11:37:53.000Z</time>
</trkpt>
<trkpt lat="45.8917470" lon="9.8332790">
	<ele>1645.40</ele>
	<time>2023-11-18T11:37:54.000Z</time>
</trkpt>
<trkpt lat="45.8917570" lon="9.8332820">
	<ele>1645.40</ele>
	<time>2023-11-18T11:37:55.000Z</time>
</trkpt>
<trkpt lat="45.8917670" lon="9.8332820">
	<ele>1645.40</ele>
	<time>2023-11-18T11:37:56.000Z</time>
</trkpt>
<trkpt lat="45.8917730" lon="9.8332790">
	<ele>1645.40</ele>
	<time>2023-11-18T11:37:57.000Z</time>
</trkpt>
<trkpt lat="45.8917790" lon="9.8332750">
	<ele>1645.40</ele>
	<time>2023-11-18T11:37:58.000Z</time>
</trkpt>
<trkpt lat="45.8917830" lon="9.8332680">
	<ele>1645.40</ele>
	<time>2023-11-18T11:37:59.000Z</time>
</trkpt>
<trkpt lat="45.8917820" lon="9.8332740">
	<ele>1645.40</ele>
	<time>2023-11-18T11:38:00.000Z</time>
</trkpt>
<trkpt lat="45.8917830" lon="9.8332720">
	<ele>1645.40</ele>
	<time>2023-11-18T11:38:01.000Z</time>
</trkpt>
<trkpt lat="45.8917830" lon="9.8332720">
	<ele>1645.40</ele>
	<time>2023-11-18T11:38:02.000Z</time>
</trkpt>
<trkpt lat="45.8917820" lon="9.8332790">
	<ele>1645.40</ele>
	<time>2023-11-18T11:38:03.000Z</time>
</trkpt>
<trkpt lat="45.8917850" lon="9.8332790">
	<ele>1645.40</ele>
	<time>2023-11-18T11:38:04.000Z</time>
</trkpt>
<trkpt lat="45.8917880" lon="9.8332820">
	<ele>1645.40</ele>
	<time>2023-11-18T11:38:05.000Z</time>
</trkpt>
<trkpt lat="45.8917920" lon="9.8332790">
	<ele>1645.40</ele>
	<time>2023-11-18T11:38:06.000Z</time>
</trkpt>
<trkpt lat="45.8917930" lon="9.8332780">
	<ele>1645.40</ele>
	<time>2023-11-18T11:38:07.000Z</time>
</trkpt>
<trkpt lat="45.8917950" lon="9.8332820">
	<ele>1645.40</ele>
	<time>2023-11-18T11:38:08.000Z</time>
</trkpt>
<trkpt lat="45.8917970" lon="9.8332850">
	<ele>1645.40</ele>
	<time>2023-11-18T11:38:09.000Z</time>
</trkpt>
<trkpt lat="45.8917970" lon="9.8332880">
	<ele>1645.40</ele>
	<time>2023-11-18T11:38:10.000Z</time>
</trkpt>
<trkpt lat="45.8917960" lon="9.8332920">
	<ele>1645.20</ele>
	<time>2023-11-18T11:38:11.000Z</time>
</trkpt>
<trkpt lat="45.8917940" lon="9.8332950">
	<ele>1645.20</ele>
	<time>2023-11-18T11:38:12.000Z</time>
</trkpt>
<trkpt lat="45.8917940" lon="9.8332830">
	<ele>1645.20</ele>
	<time>2023-11-18T11:38:13.000Z</time>
</trkpt>
<trkpt lat="45.8917930" lon="9.8332730">
	<ele>1645.20</ele>
	<time>2023-11-18T11:38:14.000Z</time>
</trkpt>
<trkpt lat="45.8917930" lon="9.8332680">
	<ele>1645.20</ele>
	<time>2023-11-18T11:38:15.000Z</time>
</trkpt>
<trkpt lat="45.8917950" lon="9.8332610">
	<ele>1645.20</ele>
	<time>2023-11-18T11:38:16.000Z</time>
</trkpt>
<trkpt lat="45.8917960" lon="9.8332550">
	<ele>1645.20</ele>
	<time>2023-11-18T11:38:17.000Z</time>
</trkpt>
<trkpt lat="45.8917980" lon="9.8332560">
	<ele>1645.00</ele>
	<time>2023-11-18T11:38:18.000Z</time>
</trkpt>
<trkpt lat="45.8918010" lon="9.8332570">
	<ele>1645.00</ele>
	<time>2023-11-18T11:38:19.000Z</time>
</trkpt>
<trkpt lat="45.8918040" lon="9.8332640">
	<ele>1645.00</ele>
	<time>2023-11-18T11:38:20.000Z</time>
</trkpt>
<trkpt lat="45.8918080" lon="9.8332700">
	<ele>1645.00</ele>
	<time>2023-11-18T11:38:21.000Z</time>
</trkpt>
<trkpt lat="45.8918130" lon="9.8332740">
	<ele>1645.00</ele>
	<time>2023-11-18T11:38:22.000Z</time>
</trkpt>
<trkpt lat="45.8918180" lon="9.8332790">
	<ele>1645.00</ele>
	<time>2023-11-18T11:38:23.000Z</time>
</trkpt>
<trkpt lat="45.8918220" lon="9.8332850">
	<ele>1644.80</ele>
	<time>2023-11-18T11:38:24.000Z</time>
</trkpt>
<trkpt lat="45.8918270" lon="9.8332870">
	<ele>1645.00</ele>
	<time>2023-11-18T11:38:25.000Z</time>
</trkpt>
<trkpt lat="45.8918300" lon="9.8332890">
	<ele>1645.00</ele>
	<time>2023-11-18T11:38:26.000Z</time>
</trkpt>
<trkpt lat="45.8918310" lon="9.8332890">
	<ele>1645.00</ele>
	<time>2023-11-18T11:38:27.000Z</time>
</trkpt>
<trkpt lat="45.8918320" lon="9.8332880">
	<ele>1645.00</ele>
	<time>2023-11-18T11:38:28.000Z</time>
</trkpt>
<trkpt lat="45.8918350" lon="9.8332920">
	<ele>1645.00</ele>
	<time>2023-11-18T11:38:29.000Z</time>
</trkpt>
<trkpt lat="45.8918370" lon="9.8332950">
	<ele>1645.00</ele>
	<time>2023-11-18T11:38:30.000Z</time>
</trkpt>
<trkpt lat="45.8918360" lon="9.8332980">
	<ele>1645.20</ele>
	<time>2023-11-18T11:38:31.000Z</time>
</trkpt>
<trkpt lat="45.8918360" lon="9.8332980">
	<ele>1645.40</ele>
	<time>2023-11-18T11:38:32.000Z</time>
</trkpt>
<trkpt lat="45.8918360" lon="9.8332980">
	<ele>1645.40</ele>
	<time>2023-11-18T11:38:33.000Z</time>
</trkpt>
<trkpt lat="45.8918360" lon="9.8332980">
	<ele>1645.60</ele>
	<time>2023-11-18T11:38:34.000Z</time>
</trkpt>
<trkpt lat="45.8918360" lon="9.8332980">
	<ele>1645.60</ele>
	<time>2023-11-18T11:38:35.000Z</time>
</trkpt>
<trkpt lat="45.8918360" lon="9.8332980">
	<ele>1645.80</ele>
	<time>2023-11-18T11:38:36.000Z</time>
</trkpt>
<trkpt lat="45.8918360" lon="9.8332980">
	<ele>1645.80</ele>
	<time>2023-11-18T11:38:37.000Z</time>
</trkpt>
<trkpt lat="45.8918360" lon="9.8332980">
	<ele>1645.80</ele>
	<time>2023-11-18T11:38:38.000Z</time>
</trkpt>
<trkpt lat="45.8918360" lon="9.8332980">
	<ele>1645.80</ele>
	<time>2023-11-18T11:38:39.000Z</time>
</trkpt>
<trkpt lat="45.8918360" lon="9.8332980">
	<ele>1645.80</ele>
	<time>2023-11-18T11:38:40.000Z</time>
</trkpt>
<trkpt lat="45.8918360" lon="9.8332980">
	<ele>1645.80</ele>
	<time>2023-11-18T11:38:41.000Z</time>
</trkpt>
<trkpt lat="45.8918360" lon="9.8332980">
	<ele>1645.60</ele>
	<time>2023-11-18T11:38:42.000Z</time>
</trkpt>
<trkpt lat="45.8918360" lon="9.8332980">
	<ele>1645.80</ele>
	<time>2023-11-18T11:38:43.000Z</time>
</trkpt>
<trkpt lat="45.8918360" lon="9.8332980">
	<ele>1645.60</ele>
	<time>2023-11-18T11:38:44.000Z</time>
</trkpt>
<trkpt lat="45.8918360" lon="9.8332960">
	<ele>1645.60</ele>
	<time>2023-11-18T11:38:45.000Z</time>
</trkpt>
<trkpt lat="45.8918360" lon="9.8332950">
	<ele>1645.60</ele>
	<time>2023-11-18T11:38:46.000Z</time>
</trkpt>
<trkpt lat="45.8918360" lon="9.8332950">
	<ele>1645.40</ele>
	<time>2023-11-18T11:38:47.000Z</time>
</trkpt>
<trkpt lat="45.8918360" lon="9.8332950">
	<ele>1645.60</ele>
	<time>2023-11-18T11:38:48.000Z</time>
</trkpt>
<trkpt lat="45.8918360" lon="9.8332950">
	<ele>1645.60</ele>
	<time>2023-11-18T11:38:49.000Z</time>
</trkpt>
<trkpt lat="45.8918360" lon="9.8332940">
	<ele>1645.40</ele>
	<time>2023-11-18T11:38:50.000Z</time>
</trkpt>
<trkpt lat="45.8918360" lon="9.8332940">
	<ele>1645.60</ele>
	<time>2023-11-18T11:38:51.000Z</time>
</trkpt>
<trkpt lat="45.8918370" lon="9.8332920">
	<ele>1645.60</ele>
	<time>2023-11-18T11:38:52.000Z</time>
</trkpt>
<trkpt lat="45.8918370" lon="9.8332920">
	<ele>1645.60</ele>
	<time>2023-11-18T11:38:53.000Z</time>
</trkpt>
<trkpt lat="45.8918370" lon="9.8332920">
	<ele>1645.60</ele>
	<time>2023-11-18T11:38:54.000Z</time>
</trkpt>
<trkpt lat="45.8918370" lon="9.8332920">
	<ele>1645.60</ele>
	<time>2023-11-18T11:38:55.000Z</time>
</trkpt>
<trkpt lat="45.8918370" lon="9.8332920">
	<ele>1645.40</ele>
	<time>2023-11-18T11:38:56.000Z</time>
</trkpt>
<trkpt lat="45.8918370" lon="9.8332920">
	<ele>1645.40</ele>
	<time>2023-11-18T11:38:57.000Z</time>
</trkpt>
<trkpt lat="45.8918370" lon="9.8332920">
	<ele>1645.20</ele>
	<time>2023-11-18T11:38:58.000Z</time>
</trkpt>
<trkpt lat="45.8918370" lon="9.8332920">
	<ele>1645.20</ele>
	<time>2023-11-18T11:38:59.000Z</time>
</trkpt>
<trkpt lat="45.8918370" lon="9.8332920">
	<ele>1645.20</ele>
	<time>2023-11-18T11:39:00.000Z</time>
</trkpt>
<trkpt lat="45.8918370" lon="9.8332920">
	<ele>1645.20</ele>
	<time>2023-11-18T11:39:01.000Z</time>
</trkpt>
<trkpt lat="45.8918370" lon="9.8332920">
	<ele>1645.20</ele>
	<time>2023-11-18T11:39:02.000Z</time>
</trkpt>
<trkpt lat="45.8918370" lon="9.8332920">
	<ele>1645.20</ele>
	<time>2023-11-18T11:39:03.000Z</time>
</trkpt>
<trkpt lat="45.8918370" lon="9.8332920">
	<ele>1645.20</ele>
	<time>2023-11-18T11:39:04.000Z</time>
</trkpt>
<trkpt lat="45.8918370" lon="9.8332920">
	<ele>1645.20</ele>
	<time>2023-11-18T11:39:05.000Z</time>
</trkpt>
<trkpt lat="45.8918370" lon="9.8332910">
	<ele>1645.00</ele>
	<time>2023-11-18T11:39:06.000Z</time>
</trkpt>
<trkpt lat="45.8918370" lon="9.8332910">
	<ele>1645.20</ele>
	<time>2023-11-18T11:39:07.000Z</time>
</trkpt>
<trkpt lat="45.8918370" lon="9.8332900">
	<ele>1645.00</ele>
	<time>2023-11-18T11:39:08.000Z</time>
</trkpt>
<trkpt lat="45.8918370" lon="9.8332890">
	<ele>1645.20</ele>
	<time>2023-11-18T11:39:09.000Z</time>
</trkpt>
<trkpt lat="45.8918370" lon="9.8332870">
	<ele>1645.00</ele>
	<time>2023-11-18T11:39:10.000Z</time>
</trkpt>
<trkpt lat="45.8918370" lon="9.8332860">
	<ele>1645.00</ele>
	<time>2023-11-18T11:39:11.000Z</time>
</trkpt>
<trkpt lat="45.8918370" lon="9.8332860">
	<ele>1645.00</ele>
	<time>2023-11-18T11:39:12.000Z</time>
</trkpt>
<trkpt lat="45.8918370" lon="9.8332850">
	<ele>1645.20</ele>
	<time>2023-11-18T11:39:13.000Z</time>
</trkpt>
<trkpt lat="45.8918370" lon="9.8332850">
	<ele>1645.20</ele>
	<time>2023-11-18T11:39:14.000Z</time>
</trkpt>
<trkpt lat="45.8918370" lon="9.8332850">
	<ele>1645.20</ele>
	<time>2023-11-18T11:39:15.000Z</time>
</trkpt>
<trkpt lat="45.8918370" lon="9.8332850">
	<ele>1645.20</ele>
	<time>2023-11-18T11:39:16.000Z</time>
</trkpt>
<trkpt lat="45.8918370" lon="9.8332840">
	<ele>1645.20</ele>
	<time>2023-11-18T11:39:17.000Z</time>
</trkpt>
<trkpt lat="45.8918290" lon="9.8332840">
	<ele>1645.20</ele>
	<time>2023-11-18T11:39:18.000Z</time>
</trkpt>
<trkpt lat="45.8918130" lon="9.8332920">
	<ele>1645.00</ele>
	<time>2023-11-18T11:39:19.000Z</time>
</trkpt>
<trkpt lat="45.8917960" lon="9.8332980">
	<ele>1644.80</ele>
	<time>2023-11-18T11:39:20.000Z</time>
</trkpt>
<trkpt lat="45.8917790" lon="9.8333040">
	<ele>1644.60</ele>
	<time>2023-11-18T11:39:21.000Z</time>
</trkpt>
<trkpt lat="45.8917620" lon="9.8333110">
	<ele>1644.40</ele>
	<time>2023-11-18T11:39:22.000Z</time>
</trkpt>
<trkpt lat="45.8917450" lon="9.8333180">
	<ele>1644.20</ele>
	<time>2023-11-18T11:39:23.000Z</time>
</trkpt>
<trkpt lat="45.8917300" lon="9.8333250">
	<ele>1644.20</ele>
	<time>2023-11-18T11:39:24.000Z</time>
</trkpt>
<trkpt lat="45.8917180" lon="9.8333310">
	<ele>1644.00</ele>
	<time>2023-11-18T11:39:25.000Z</time>
</trkpt>
<trkpt lat="45.8917070" lon="9.8333350">
	<ele>1643.80</ele>
	<time>2023-11-18T11:39:26.000Z</time>
</trkpt>
<trkpt lat="45.8916960" lon="9.8333370">
	<ele>1643.60</ele>
	<time>2023-11-18T11:39:27.000Z</time>
</trkpt>
<trkpt lat="45.8916920" lon="9.8333460">
	<ele>1643.60</ele>
	<time>2023-11-18T11:39:28.000Z</time>
</trkpt>
<trkpt lat="45.8916890" lon="9.8333600">
	<ele>1643.60</ele>
	<time>2023-11-18T11:39:29.000Z</time>
</trkpt>
<trkpt lat="45.8916890" lon="9.8333740">
	<ele>1643.60</ele>
	<time>2023-11-18T11:39:30.000Z</time>
</trkpt>
<trkpt lat="45.8916880" lon="9.8333870">
	<ele>1643.60</ele>
	<time>2023-11-18T11:39:31.000Z</time>
</trkpt>
<trkpt lat="45.8916890" lon="9.8333970">
	<ele>1643.60</ele>
	<time>2023-11-18T11:39:32.000Z</time>
</trkpt>
<trkpt lat="45.8916870" lon="9.8334100">
	<ele>1643.60</ele>
	<time>2023-11-18T11:39:33.000Z</time>
</trkpt>
<trkpt lat="45.8916820" lon="9.8334170">
	<ele>1643.40</ele>
	<time>2023-11-18T11:39:34.000Z</time>
</trkpt>
<trkpt lat="45.8916740" lon="9.8334220">
	<ele>1643.00</ele>
	<time>2023-11-18T11:39:35.000Z</time>
</trkpt>
<trkpt lat="45.8916660" lon="9.8334290">
	<ele>1642.60</ele>
	<time>2023-11-18T11:39:36.000Z</time>
</trkpt>
<trkpt lat="45.8916600" lon="9.8334360">
	<ele>1642.40</ele>
	<time>2023-11-18T11:39:37.000Z</time>
</trkpt>
<trkpt lat="45.8916570" lon="9.8334410">
	<ele>1642.20</ele>
	<time>2023-11-18T11:39:38.000Z</time>
</trkpt>
<trkpt lat="45.8916560" lon="9.8334450">
	<ele>1642.00</ele>
	<time>2023-11-18T11:39:39.000Z</time>
</trkpt>
<trkpt lat="45.8916560" lon="9.8334490">
	<ele>1641.60</ele>
	<time>2023-11-18T11:39:40.000Z</time>
</trkpt>
<trkpt lat="45.8916550" lon="9.8334510">
	<ele>1641.40</ele>
	<time>2023-11-18T11:39:41.000Z</time>
</trkpt>
<trkpt lat="45.8916510" lon="9.8334550">
	<ele>1641.40</ele>
	<time>2023-11-18T11:39:42.000Z</time>
</trkpt>
<trkpt lat="45.8916460" lon="9.8334570">
	<ele>1641.20</ele>
	<time>2023-11-18T11:39:43.000Z</time>
</trkpt>
<trkpt lat="45.8916390" lon="9.8334600">
	<ele>1641.20</ele>
	<time>2023-11-18T11:39:44.000Z</time>
</trkpt>
<trkpt lat="45.8916300" lon="9.8334650">
	<ele>1641.20</ele>
	<time>2023-11-18T11:39:45.000Z</time>
</trkpt>
<trkpt lat="45.8916210" lon="9.8334730">
	<ele>1641.40</ele>
	<time>2023-11-18T11:39:46.000Z</time>
</trkpt>
<trkpt lat="45.8916120" lon="9.8334790">
	<ele>1641.40</ele>
	<time>2023-11-18T11:39:47.000Z</time>
</trkpt>
<trkpt lat="45.8916030" lon="9.8334840">
	<ele>1641.40</ele>
	<time>2023-11-18T11:39:48.000Z</time>
</trkpt>
<trkpt lat="45.8915990" lon="9.8334890">
	<ele>1641.40</ele>
	<time>2023-11-18T11:39:49.000Z</time>
</trkpt>
<trkpt lat="45.8915960" lon="9.8334930">
	<ele>1641.20</ele>
	<time>2023-11-18T11:39:50.000Z</time>
</trkpt>
<trkpt lat="45.8915930" lon="9.8335000">
	<ele>1641.00</ele>
	<time>2023-11-18T11:39:51.000Z</time>
</trkpt>
<trkpt lat="45.8915880" lon="9.8335030">
	<ele>1640.80</ele>
	<time>2023-11-18T11:39:52.000Z</time>
</trkpt>
<trkpt lat="45.8915810" lon="9.8335050">
	<ele>1640.60</ele>
	<time>2023-11-18T11:39:53.000Z</time>
</trkpt>
<trkpt lat="45.8915740" lon="9.8335070">
	<ele>1640.40</ele>
	<time>2023-11-18T11:39:54.000Z</time>
</trkpt>
<trkpt lat="45.8915700" lon="9.8335100">
	<ele>1640.00</ele>
	<time>2023-11-18T11:39:55.000Z</time>
</trkpt>
<trkpt lat="45.8915640" lon="9.8335140">
	<ele>1639.80</ele>
	<time>2023-11-18T11:39:56.000Z</time>
</trkpt>
<trkpt lat="45.8915610" lon="9.8335210">
	<ele>1639.60</ele>
	<time>2023-11-18T11:39:57.000Z</time>
</trkpt>
<trkpt lat="45.8915570" lon="9.8335250">
	<ele>1639.20</ele>
	<time>2023-11-18T11:39:58.000Z</time>
</trkpt>
<trkpt lat="45.8915540" lon="9.8335340">
	<ele>1639.00</ele>
	<time>2023-11-18T11:39:59.000Z</time>
</trkpt>
<trkpt lat="45.8915490" lon="9.8335380">
	<ele>1638.80</ele>
	<time>2023-11-18T11:40:00.000Z</time>
</trkpt>
<trkpt lat="45.8915430" lon="9.8335390">
	<ele>1638.60</ele>
	<time>2023-11-18T11:40:01.000Z</time>
</trkpt>
<trkpt lat="45.8915380" lon="9.8335370">
	<ele>1638.60</ele>
	<time>2023-11-18T11:40:02.000Z</time>
</trkpt>
<trkpt lat="45.8915330" lon="9.8335340">
	<ele>1638.40</ele>
	<time>2023-11-18T11:40:03.000Z</time>
</trkpt>
<trkpt lat="45.8915240" lon="9.8335300">
	<ele>1638.00</ele>
	<time>2023-11-18T11:40:04.000Z</time>
</trkpt>
<trkpt lat="45.8915170" lon="9.8335250">
	<ele>1637.80</ele>
	<time>2023-11-18T11:40:05.000Z</time>
</trkpt>
<trkpt lat="45.8915080" lon="9.8335190">
	<ele>1637.80</ele>
	<time>2023-11-18T11:40:06.000Z</time>
</trkpt>
<trkpt lat="45.8915010" lon="9.8335140">
	<ele>1637.60</ele>
	<time>2023-11-18T11:40:07.000Z</time>
</trkpt>
<trkpt lat="45.8914890" lon="9.8335110">
	<ele>1637.40</ele>
	<time>2023-11-18T11:40:08.000Z</time>
</trkpt>
<trkpt lat="45.8914810" lon="9.8335140">
	<ele>1637.00</ele>
	<time>2023-11-18T11:40:09.000Z</time>
</trkpt>
<trkpt lat="45.8914730" lon="9.8335180">
	<ele>1636.80</ele>
	<time>2023-11-18T11:40:10.000Z</time>
</trkpt>
<trkpt lat="45.8914670" lon="9.8335230">
	<ele>1636.60</ele>
	<time>2023-11-18T11:40:11.000Z</time>
</trkpt>
<trkpt lat="45.8914600" lon="9.8335300">
	<ele>1636.20</ele>
	<time>2023-11-18T11:40:12.000Z</time>
</trkpt>
<trkpt lat="45.8914550" lon="9.8335310">
	<ele>1636.00</ele>
	<time>2023-11-18T11:40:13.000Z</time>
</trkpt>
<trkpt lat="45.8914490" lon="9.8335320">
	<ele>1635.80</ele>
	<time>2023-11-18T11:40:14.000Z</time>
</trkpt>
<trkpt lat="45.8914420" lon="9.8335320">
	<ele>1635.60</ele>
	<time>2023-11-18T11:40:15.000Z</time>
</trkpt>
<trkpt lat="45.8914340" lon="9.8335340">
	<ele>1635.40</ele>
	<time>2023-11-18T11:40:16.000Z</time>
</trkpt>
<trkpt lat="45.8914220" lon="9.8335360">
	<ele>1635.20</ele>
	<time>2023-11-18T11:40:17.000Z</time>
</trkpt>
<trkpt lat="45.8914090" lon="9.8335340">
	<ele>1635.20</ele>
	<time>2023-11-18T11:40:18.000Z</time>
</trkpt>
<trkpt lat="45.8914020" lon="9.8335350">
	<ele>1635.00</ele>
	<time>2023-11-18T11:40:19.000Z</time>
</trkpt>
<trkpt lat="45.8913930" lon="9.8335360">
	<ele>1635.00</ele>
	<time>2023-11-18T11:40:20.000Z</time>
</trkpt>
<trkpt lat="45.8913850" lon="9.8335430">
	<ele>1634.40</ele>
	<time>2023-11-18T11:40:21.000Z</time>
</trkpt>
<trkpt lat="45.8913770" lon="9.8335510">
	<ele>1634.20</ele>
	<time>2023-11-18T11:40:22.000Z</time>
</trkpt>
<trkpt lat="45.8913700" lon="9.8335590">
	<ele>1634.20</ele>
	<time>2023-11-18T11:40:23.000Z</time>
</trkpt>
<trkpt lat="45.8913640" lon="9.8335680">
	<ele>1633.80</ele>
	<time>2023-11-18T11:40:24.000Z</time>
</trkpt>
<trkpt lat="45.8913580" lon="9.8335780">
	<ele>1633.40</ele>
	<time>2023-11-18T11:40:25.000Z</time>
</trkpt>
<trkpt lat="45.8913530" lon="9.8335870">
	<ele>1632.60</ele>
	<time>2023-11-18T11:40:26.000Z</time>
</trkpt>
<trkpt lat="45.8913470" lon="9.8335970">
	<ele>1632.20</ele>
	<time>2023-11-18T11:40:27.000Z</time>
</trkpt>
<trkpt lat="45.8913430" lon="9.8336110">
	<ele>1631.80</ele>
	<time>2023-11-18T11:40:28.000Z</time>
</trkpt>
<trkpt lat="45.8913420" lon="9.8336170">
	<ele>1631.60</ele>
	<time>2023-11-18T11:40:29.000Z</time>
</trkpt>
<trkpt lat="45.8913360" lon="9.8336240">
	<ele>1631.60</ele>
	<time>2023-11-18T11:40:30.000Z</time>
</trkpt>
<trkpt lat="45.8913300" lon="9.8336250">
	<ele>1631.60</ele>
	<time>2023-11-18T11:40:31.000Z</time>
</trkpt>
<trkpt lat="45.8913250" lon="9.8336310">
	<ele>1631.40</ele>
	<time>2023-11-18T11:40:32.000Z</time>
</trkpt>
<trkpt lat="45.8913220" lon="9.8336390">
	<ele>1631.20</ele>
	<time>2023-11-18T11:40:33.000Z</time>
</trkpt>
<trkpt lat="45.8913220" lon="9.8336480">
	<ele>1631.00</ele>
	<time>2023-11-18T11:40:34.000Z</time>
</trkpt>
<trkpt lat="45.8913220" lon="9.8336580">
	<ele>1631.00</ele>
	<time>2023-11-18T11:40:35.000Z</time>
</trkpt>
<trkpt lat="45.8913210" lon="9.8336690">
	<ele>1630.60</ele>
	<time>2023-11-18T11:40:36.000Z</time>
</trkpt>
<trkpt lat="45.8913170" lon="9.8336800">
	<ele>1630.20</ele>
	<time>2023-11-18T11:40:37.000Z</time>
</trkpt>
<trkpt lat="45.8913110" lon="9.8336930">
	<ele>1629.80</ele>
	<time>2023-11-18T11:40:38.000Z</time>
</trkpt>
<trkpt lat="45.8913040" lon="9.8337050">
	<ele>1629.80</ele>
	<time>2023-11-18T11:40:39.000Z</time>
</trkpt>
<trkpt lat="45.8913020" lon="9.8337170">
	<ele>1629.40</ele>
	<time>2023-11-18T11:40:40.000Z</time>
</trkpt>
<trkpt lat="45.8913020" lon="9.8337230">
	<ele>1629.20</ele>
	<time>2023-11-18T11:40:41.000Z</time>
</trkpt>
<trkpt lat="45.8913030" lon="9.8337280">
	<ele>1628.80</ele>
	<time>2023-11-18T11:40:42.000Z</time>
</trkpt>
<trkpt lat="45.8913050" lon="9.8337350">
	<ele>1628.60</ele>
	<time>2023-11-18T11:40:43.000Z</time>
</trkpt>
<trkpt lat="45.8913050" lon="9.8337460">
	<ele>1628.40</ele>
	<time>2023-11-18T11:40:44.000Z</time>
</trkpt>
<trkpt lat="45.8913020" lon="9.8337560">
	<ele>1628.40</ele>
	<time>2023-11-18T11:40:45.000Z</time>
</trkpt>
<trkpt lat="45.8913010" lon="9.8337660">
	<ele>1628.20</ele>
	<time>2023-11-18T11:40:46.000Z</time>
</trkpt>
<trkpt lat="45.8912960" lon="9.8337720">
	<ele>1628.20</ele>
	<time>2023-11-18T11:40:47.000Z</time>
</trkpt>
<trkpt lat="45.8912900" lon="9.8337800">
	<ele>1628.00</ele>
	<time>2023-11-18T11:40:48.000Z</time>
</trkpt>
<trkpt lat="45.8912860" lon="9.8337900">
	<ele>1627.80</ele>
	<time>2023-11-18T11:40:49.000Z</time>
</trkpt>
<trkpt lat="45.8912830" lon="9.8338010">
	<ele>1627.60</ele>
	<time>2023-11-18T11:40:50.000Z</time>
</trkpt>
<trkpt lat="45.8912800" lon="9.8338080">
	<ele>1627.40</ele>
	<time>2023-11-18T11:40:51.000Z</time>
</trkpt>
<trkpt lat="45.8912750" lon="9.8338150">
	<ele>1627.40</ele>
	<time>2023-11-18T11:40:52.000Z</time>
</trkpt>
<trkpt lat="45.8912700" lon="9.8338180">
	<ele>1627.40</ele>
	<time>2023-11-18T11:40:53.000Z</time>
</trkpt>
<trkpt lat="45.8912640" lon="9.8338260">
	<ele>1627.20</ele>
	<time>2023-11-18T11:40:54.000Z</time>
</trkpt>
<trkpt lat="45.8912610" lon="9.8338350">
	<ele>1627.20</ele>
	<time>2023-11-18T11:40:55.000Z</time>
</trkpt>
<trkpt lat="45.8912560" lon="9.8338420">
	<ele>1627.20</ele>
	<time>2023-11-18T11:40:56.000Z</time>
</trkpt>
<trkpt lat="45.8912520" lon="9.8338460">
	<ele>1627.20</ele>
	<time>2023-11-18T11:40:57.000Z</time>
</trkpt>
<trkpt lat="45.8912480" lon="9.8338480">
	<ele>1626.60</ele>
	<time>2023-11-18T11:40:58.000Z</time>
</trkpt>
<trkpt lat="45.8912430" lon="9.8338520">
	<ele>1626.40</ele>
	<time>2023-11-18T11:40:59.000Z</time>
</trkpt>
<trkpt lat="45.8912370" lon="9.8338610">
	<ele>1625.60</ele>
	<time>2023-11-18T11:41:00.000Z</time>
</trkpt>
<trkpt lat="45.8912320" lon="9.8338700">
	<ele>1625.20</ele>
	<time>2023-11-18T11:41:01.000Z</time>
</trkpt>
<trkpt lat="45.8912260" lon="9.8338810">
	<ele>1625.00</ele>
	<time>2023-11-18T11:41:02.000Z</time>
</trkpt>
<trkpt lat="45.8912200" lon="9.8338890">
	<ele>1625.00</ele>
	<time>2023-11-18T11:41:03.000Z</time>
</trkpt>
<trkpt lat="45.8912140" lon="9.8338950">
	<ele>1624.80</ele>
	<time>2023-11-18T11:41:04.000Z</time>
</trkpt>
<trkpt lat="45.8912110" lon="9.8339050">
	<ele>1624.60</ele>
	<time>2023-11-18T11:41:05.000Z</time>
</trkpt>
<trkpt lat="45.8912100" lon="9.8339150">
	<ele>1624.40</ele>
	<time>2023-11-18T11:41:06.000Z</time>
</trkpt>
<trkpt lat="45.8912080" lon="9.8339250">
	<ele>1623.40</ele>
	<time>2023-11-18T11:41:07.000Z</time>
</trkpt>
<trkpt lat="45.8912070" lon="9.8339350">
	<ele>1623.00</ele>
	<time>2023-11-18T11:41:08.000Z</time>
</trkpt>
<trkpt lat="45.8912020" lon="9.8339490">
	<ele>1622.80</ele>
	<time>2023-11-18T11:41:09.000Z</time>
</trkpt>
<trkpt lat="45.8911990" lon="9.8339650">
	<ele>1622.60</ele>
	<time>2023-11-18T11:41:10.000Z</time>
</trkpt>
<trkpt lat="45.8911960" lon="9.8339770">
	<ele>1622.40</ele>
	<time>2023-11-18T11:41:11.000Z</time>
</trkpt>
<trkpt lat="45.8911950" lon="9.8339870">
	<ele>1622.20</ele>
	<time>2023-11-18T11:41:12.000Z</time>
</trkpt>
<trkpt lat="45.8911930" lon="9.8339980">
	<ele>1622.00</ele>
	<time>2023-11-18T11:41:13.000Z</time>
</trkpt>
<trkpt lat="45.8911890" lon="9.8340060">
	<ele>1621.80</ele>
	<time>2023-11-18T11:41:14.000Z</time>
</trkpt>
<trkpt lat="45.8911860" lon="9.8340120">
	<ele>1621.20</ele>
	<time>2023-11-18T11:41:15.000Z</time>
</trkpt>
<trkpt lat="45.8911860" lon="9.8340210">
	<ele>1621.00</ele>
	<time>2023-11-18T11:41:16.000Z</time>
</trkpt>
<trkpt lat="45.8911840" lon="9.8340310">
	<ele>1620.60</ele>
	<time>2023-11-18T11:41:17.000Z</time>
</trkpt>
<trkpt lat="45.8911830" lon="9.8340390">
	<ele>1620.40</ele>
	<time>2023-11-18T11:41:18.000Z</time>
</trkpt>
<trkpt lat="45.8911830" lon="9.8340450">
	<ele>1620.40</ele>
	<time>2023-11-18T11:41:19.000Z</time>
</trkpt>
<trkpt lat="45.8911830" lon="9.8340510">
	<ele>1620.40</ele>
	<time>2023-11-18T11:41:20.000Z</time>
</trkpt>
<trkpt lat="45.8911810" lon="9.8340560">
	<ele>1620.20</ele>
	<time>2023-11-18T11:41:21.000Z</time>
</trkpt>
<trkpt lat="45.8911780" lon="9.8340620">
	<ele>1620.20</ele>
	<time>2023-11-18T11:41:22.000Z</time>
</trkpt>
<trkpt lat="45.8911750" lon="9.8340710">
	<ele>1620.00</ele>
	<time>2023-11-18T11:41:23.000Z</time>
</trkpt>
<trkpt lat="45.8911760" lon="9.8340790">
	<ele>1619.80</ele>
	<time>2023-11-18T11:41:24.000Z</time>
</trkpt>
<trkpt lat="45.8911760" lon="9.8340850">
	<ele>1619.40</ele>
	<time>2023-11-18T11:41:25.000Z</time>
</trkpt>
<trkpt lat="45.8911750" lon="9.8340890">
	<ele>1619.20</ele>
	<time>2023-11-18T11:41:26.000Z</time>
</trkpt>
<trkpt lat="45.8911740" lon="9.8340950">
	<ele>1619.20</ele>
	<time>2023-11-18T11:41:27.000Z</time>
</trkpt>
<trkpt lat="45.8911720" lon="9.8341010">
	<ele>1618.80</ele>
	<time>2023-11-18T11:41:28.000Z</time>
</trkpt>
<trkpt lat="45.8911680" lon="9.8341080">
	<ele>1618.60</ele>
	<time>2023-11-18T11:41:29.000Z</time>
</trkpt>
<trkpt lat="45.8911650" lon="9.8341160">
	<ele>1618.40</ele>
	<time>2023-11-18T11:41:30.000Z</time>
</trkpt>
<trkpt lat="45.8911620" lon="9.8341230">
	<ele>1618.40</ele>
	<time>2023-11-18T11:41:31.000Z</time>
</trkpt>
<trkpt lat="45.8911580" lon="9.8341350">
	<ele>1618.20</ele>
	<time>2023-11-18T11:41:32.000Z</time>
</trkpt>
<trkpt lat="45.8911570" lon="9.8341440">
	<ele>1617.80</ele>
	<time>2023-11-18T11:41:33.000Z</time>
</trkpt>
<trkpt lat="45.8911560" lon="9.8341540">
	<ele>1617.60</ele>
	<time>2023-11-18T11:41:34.000Z</time>
</trkpt>
<trkpt lat="45.8911550" lon="9.8341610">
	<ele>1617.40</ele>
	<time>2023-11-18T11:41:35.000Z</time>
</trkpt>
<trkpt lat="45.8911510" lon="9.8341690">
	<ele>1617.20</ele>
	<time>2023-11-18T11:41:36.000Z</time>
</trkpt>
<trkpt lat="45.8911490" lon="9.8341780">
	<ele>1617.00</ele>
	<time>2023-11-18T11:41:37.000Z</time>
</trkpt>
<trkpt lat="45.8911500" lon="9.8341860">
	<ele>1616.80</ele>
	<time>2023-11-18T11:41:38.000Z</time>
</trkpt>
<trkpt lat="45.8911510" lon="9.8341930">
	<ele>1616.40</ele>
	<time>2023-11-18T11:41:39.000Z</time>
</trkpt>
<trkpt lat="45.8911500" lon="9.8341980">
	<ele>1616.00</ele>
	<time>2023-11-18T11:41:40.000Z</time>
</trkpt>
<trkpt lat="45.8911490" lon="9.8342090">
	<ele>1615.80</ele>
	<time>2023-11-18T11:41:41.000Z</time>
</trkpt>
<trkpt lat="45.8911460" lon="9.8342180">
	<ele>1615.80</ele>
	<time>2023-11-18T11:41:42.000Z</time>
</trkpt>
<trkpt lat="45.8911430" lon="9.8342280">
	<ele>1615.60</ele>
	<time>2023-11-18T11:41:43.000Z</time>
</trkpt>
<trkpt lat="45.8911410" lon="9.8342410">
	<ele>1615.40</ele>
	<time>2023-11-18T11:41:44.000Z</time>
</trkpt>
<trkpt lat="45.8911430" lon="9.8342560">
	<ele>1615.20</ele>
	<time>2023-11-18T11:41:45.000Z</time>
</trkpt>
<trkpt lat="45.8911460" lon="9.8342690">
	<ele>1614.80</ele>
	<time>2023-11-18T11:41:46.000Z</time>
</trkpt>
<trkpt lat="45.8911490" lon="9.8342790">
	<ele>1614.40</ele>
	<time>2023-11-18T11:41:47.000Z</time>
</trkpt>
<trkpt lat="45.8911530" lon="9.8342980">
	<ele>1613.60</ele>
	<time>2023-11-18T11:41:48.000Z</time>
</trkpt>
<trkpt lat="45.8911540" lon="9.8343160">
	<ele>1613.40</ele>
	<time>2023-11-18T11:41:49.000Z</time>
</trkpt>
<trkpt lat="45.8911560" lon="9.8343310">
	<ele>1613.20</ele>
	<time>2023-11-18T11:41:50.000Z</time>
</trkpt>
<trkpt lat="45.8911590" lon="9.8343450">
	<ele>1613.00</ele>
	<time>2023-11-18T11:41:51.000Z</time>
</trkpt>
<trkpt lat="45.8911620" lon="9.8343580">
	<ele>1613.00</ele>
	<time>2023-11-18T11:41:52.000Z</time>
</trkpt>
<trkpt lat="45.8911630" lon="9.8343670">
	<ele>1612.80</ele>
	<time>2023-11-18T11:41:53.000Z</time>
</trkpt>
<trkpt lat="45.8911610" lon="9.8343720">
	<ele>1612.80</ele>
	<time>2023-11-18T11:41:54.000Z</time>
</trkpt>
<trkpt lat="45.8911570" lon="9.8343740">
	<ele>1612.60</ele>
	<time>2023-11-18T11:41:55.000Z</time>
</trkpt>
<trkpt lat="45.8911520" lon="9.8343760">
	<ele>1612.60</ele>
	<time>2023-11-18T11:41:56.000Z</time>
</trkpt>
<trkpt lat="45.8911470" lon="9.8343800">
	<ele>1612.40</ele>
	<time>2023-11-18T11:41:57.000Z</time>
</trkpt>
<trkpt lat="45.8911430" lon="9.8343860">
	<ele>1612.20</ele>
	<time>2023-11-18T11:41:58.000Z</time>
</trkpt>
<trkpt lat="45.8911380" lon="9.8343930">
	<ele>1612.00</ele>
	<time>2023-11-18T11:41:59.000Z</time>
</trkpt>
<trkpt lat="45.8911340" lon="9.8343980">
	<ele>1611.80</ele>
	<time>2023-11-18T11:42:00.000Z</time>
</trkpt>
<trkpt lat="45.8911290" lon="9.8344050">
	<ele>1611.60</ele>
	<time>2023-11-18T11:42:01.000Z</time>
</trkpt>
<trkpt lat="45.8911250" lon="9.8344160">
	<ele>1611.40</ele>
	<time>2023-11-18T11:42:02.000Z</time>
</trkpt>
<trkpt lat="45.8911210" lon="9.8344230">
	<ele>1611.20</ele>
	<time>2023-11-18T11:42:03.000Z</time>
</trkpt>
<trkpt lat="45.8911150" lon="9.8344250">
	<ele>1611.00</ele>
	<time>2023-11-18T11:42:04.000Z</time>
</trkpt>
<trkpt lat="45.8911100" lon="9.8344300">
	<ele>1610.80</ele>
	<time>2023-11-18T11:42:05.000Z</time>
</trkpt>
<trkpt lat="45.8911060" lon="9.8344360">
	<ele>1610.60</ele>
	<time>2023-11-18T11:42:06.000Z</time>
</trkpt>
<trkpt lat="45.8911050" lon="9.8344460">
	<ele>1610.20</ele>
	<time>2023-11-18T11:42:07.000Z</time>
</trkpt>
<trkpt lat="45.8911040" lon="9.8344540">
	<ele>1609.60</ele>
	<time>2023-11-18T11:42:08.000Z</time>
</trkpt>
<trkpt lat="45.8911040" lon="9.8344670">
	<ele>1609.20</ele>
	<time>2023-11-18T11:42:09.000Z</time>
</trkpt>
<trkpt lat="45.8911040" lon="9.8344790">
	<ele>1609.00</ele>
	<time>2023-11-18T11:42:10.000Z</time>
</trkpt>
<trkpt lat="45.8911020" lon="9.8344880">
	<ele>1608.80</ele>
	<time>2023-11-18T11:42:11.000Z</time>
</trkpt>
<trkpt lat="45.8910990" lon="9.8344950">
	<ele>1608.40</ele>
	<time>2023-11-18T11:42:12.000Z</time>
</trkpt>
<trkpt lat="45.8910970" lon="9.8345080">
	<ele>1608.40</ele>
	<time>2023-11-18T11:42:13.000Z</time>
</trkpt>
<trkpt lat="45.8910900" lon="9.8345160">
	<ele>1608.20</ele>
	<time>2023-11-18T11:42:14.000Z</time>
</trkpt>
<trkpt lat="45.8910820" lon="9.8345240">
	<ele>1607.80</ele>
	<time>2023-11-18T11:42:15.000Z</time>
</trkpt>
<trkpt lat="45.8910720" lon="9.8345310">
	<ele>1607.40</ele>
	<time>2023-11-18T11:42:16.000Z</time>
</trkpt>
<trkpt lat="45.8910640" lon="9.8345380">
	<ele>1607.20</ele>
	<time>2023-11-18T11:42:17.000Z</time>
</trkpt>
<trkpt lat="45.8910570" lon="9.8345460">
	<ele>1607.00</ele>
	<time>2023-11-18T11:42:18.000Z</time>
</trkpt>
<trkpt lat="45.8910530" lon="9.8345480">
	<ele>1606.80</ele>
	<time>2023-11-18T11:42:19.000Z</time>
</trkpt>
<trkpt lat="45.8910550" lon="9.8345510">
	<ele>1606.60</ele>
	<time>2023-11-18T11:42:20.000Z</time>
</trkpt>
<trkpt lat="45.8910510" lon="9.8345510">
	<ele>1606.60</ele>
	<time>2023-11-18T11:42:21.000Z</time>
</trkpt>
<trkpt lat="45.8910460" lon="9.8345490">
	<ele>1606.40</ele>
	<time>2023-11-18T11:42:22.000Z</time>
</trkpt>
<trkpt lat="45.8910420" lon="9.8345490">
	<ele>1606.20</ele>
	<time>2023-11-18T11:42:23.000Z</time>
</trkpt>
<trkpt lat="45.8910360" lon="9.8345510">
	<ele>1606.00</ele>
	<time>2023-11-18T11:42:24.000Z</time>
</trkpt>
<trkpt lat="45.8910270" lon="9.8345500">
	<ele>1605.80</ele>
	<time>2023-11-18T11:42:25.000Z</time>
</trkpt>
<trkpt lat="45.8910180" lon="9.8345470">
	<ele>1605.60</ele>
	<time>2023-11-18T11:42:26.000Z</time>
</trkpt>
<trkpt lat="45.8910100" lon="9.8345480">
	<ele>1605.20</ele>
	<time>2023-11-18T11:42:27.000Z</time>
</trkpt>
<trkpt lat="45.8910010" lon="9.8345510">
	<ele>1605.20</ele>
	<time>2023-11-18T11:42:28.000Z</time>
</trkpt>
<trkpt lat="45.8909950" lon="9.8345560">
	<ele>1605.00</ele>
	<time>2023-11-18T11:42:29.000Z</time>
</trkpt>
<trkpt lat="45.8909890" lon="9.8345610">
	<ele>1604.60</ele>
	<time>2023-11-18T11:42:30.000Z</time>
</trkpt>
<trkpt lat="45.8909890" lon="9.8345640">
	<ele>1604.20</ele>
	<time>2023-11-18T11:42:31.000Z</time>
</trkpt>
<trkpt lat="45.8909880" lon="9.8345700">
	<ele>1603.60</ele>
	<time>2023-11-18T11:42:32.000Z</time>
</trkpt>
<trkpt lat="45.8909880" lon="9.8345760">
	<ele>1603.20</ele>
	<time>2023-11-18T11:42:33.000Z</time>
</trkpt>
<trkpt lat="45.8909870" lon="9.8345810">
	<ele>1603.00</ele>
	<time>2023-11-18T11:42:34.000Z</time>
</trkpt>
<trkpt lat="45.8909870" lon="9.8345880">
	<ele>1603.00</ele>
	<time>2023-11-18T11:42:35.000Z</time>
</trkpt>
<trkpt lat="45.8909840" lon="9.8345920">
	<ele>1602.80</ele>
	<time>2023-11-18T11:42:36.000Z</time>
</trkpt>
<trkpt lat="45.8909850" lon="9.8345960">
	<ele>1602.80</ele>
	<time>2023-11-18T11:42:37.000Z</time>
</trkpt>
<trkpt lat="45.8909840" lon="9.8345980">
	<ele>1602.60</ele>
	<time>2023-11-18T11:42:38.000Z</time>
</trkpt>
<trkpt lat="45.8909810" lon="9.8346010">
	<ele>1602.40</ele>
	<time>2023-11-18T11:42:39.000Z</time>
</trkpt>
<trkpt lat="45.8909780" lon="9.8346060">
	<ele>1602.20</ele>
	<time>2023-11-18T11:42:40.000Z</time>
</trkpt>
<trkpt lat="45.8909760" lon="9.8346150">
	<ele>1601.80</ele>
	<time>2023-11-18T11:42:41.000Z</time>
</trkpt>
<trkpt lat="45.8909750" lon="9.8346300">
	<ele>1601.40</ele>
	<time>2023-11-18T11:42:42.000Z</time>
</trkpt>
<trkpt lat="45.8909790" lon="9.8346410">
	<ele>1601.00</ele>
	<time>2023-11-18T11:42:43.000Z</time>
</trkpt>
<trkpt lat="45.8909820" lon="9.8346500">
	<ele>1600.80</ele>
	<time>2023-11-18T11:42:44.000Z</time>
</trkpt>
<trkpt lat="45.8909830" lon="9.8346610">
	<ele>1600.60</ele>
	<time>2023-11-18T11:42:45.000Z</time>
</trkpt>
<trkpt lat="45.8909870" lon="9.8346720">
	<ele>1600.20</ele>
	<time>2023-11-18T11:42:46.000Z</time>
</trkpt>
<trkpt lat="45.8909900" lon="9.8346860">
	<ele>1600.20</ele>
	<time>2023-11-18T11:42:47.000Z</time>
</trkpt>
<trkpt lat="45.8909910" lon="9.8346940">
	<ele>1600.00</ele>
	<time>2023-11-18T11:42:48.000Z</time>
</trkpt>
<trkpt lat="45.8909930" lon="9.8346990">
	<ele>1600.00</ele>
	<time>2023-11-18T11:42:49.000Z</time>
</trkpt>
<trkpt lat="45.8909950" lon="9.8347020">
	<ele>1599.80</ele>
	<time>2023-11-18T11:42:50.000Z</time>
</trkpt>
<trkpt lat="45.8909950" lon="9.8347020">
	<ele>1600.00</ele>
	<time>2023-11-18T11:42:51.000Z</time>
</trkpt>
<trkpt lat="45.8909950" lon="9.8347040">
	<ele>1600.00</ele>
	<time>2023-11-18T11:42:52.000Z</time>
</trkpt>
<trkpt lat="45.8909950" lon="9.8347050">
	<ele>1600.00</ele>
	<time>2023-11-18T11:42:53.000Z</time>
</trkpt>
<trkpt lat="45.8909940" lon="9.8347050">
	<ele>1600.00</ele>
	<time>2023-11-18T11:42:54.000Z</time>
</trkpt>
<trkpt lat="45.8909930" lon="9.8347060">
	<ele>1600.00</ele>
	<time>2023-11-18T11:42:55.000Z</time>
</trkpt>
<trkpt lat="45.8909920" lon="9.8347080">
	<ele>1600.00</ele>
	<time>2023-11-18T11:42:56.000Z</time>
</trkpt>
<trkpt lat="45.8909930" lon="9.8347130">
	<ele>1599.60</ele>
	<time>2023-11-18T11:42:57.000Z</time>
</trkpt>
<trkpt lat="45.8909930" lon="9.8347190">
	<ele>1599.20</ele>
	<time>2023-11-18T11:42:58.000Z</time>
</trkpt>
<trkpt lat="45.8909930" lon="9.8347270">
	<ele>1599.00</ele>
	<time>2023-11-18T11:42:59.000Z</time>
</trkpt>
<trkpt lat="45.8909920" lon="9.8347310">
	<ele>1598.80</ele>
	<time>2023-11-18T11:43:00.000Z</time>
</trkpt>
<trkpt lat="45.8909900" lon="9.8347380">
	<ele>1598.60</ele>
	<time>2023-11-18T11:43:01.000Z</time>
</trkpt>
<trkpt lat="45.8909890" lon="9.8347460">
	<ele>1598.40</ele>
	<time>2023-11-18T11:43:02.000Z</time>
</trkpt>
<trkpt lat="45.8909890" lon="9.8347540">
	<ele>1598.20</ele>
	<time>2023-11-18T11:43:03.000Z</time>
</trkpt>
<trkpt lat="45.8909870" lon="9.8347620">
	<ele>1598.00</ele>
	<time>2023-11-18T11:43:04.000Z</time>
</trkpt>
<trkpt lat="45.8909880" lon="9.8347720">
	<ele>1597.80</ele>
	<time>2023-11-18T11:43:05.000Z</time>
</trkpt>
<trkpt lat="45.8909890" lon="9.8347810">
	<ele>1597.60</ele>
	<time>2023-11-18T11:43:06.000Z</time>
</trkpt>
<trkpt lat="45.8909900" lon="9.8347880">
	<ele>1597.60</ele>
	<time>2023-11-18T11:43:07.000Z</time>
</trkpt>
<trkpt lat="45.8909900" lon="9.8347960">
	<ele>1597.40</ele>
	<time>2023-11-18T11:43:08.000Z</time>
</trkpt>
<trkpt lat="45.8909890" lon="9.8348050">
	<ele>1597.40</ele>
	<time>2023-11-18T11:43:09.000Z</time>
</trkpt>
<trkpt lat="45.8909890" lon="9.8348110">
	<ele>1597.40</ele>
	<time>2023-11-18T11:43:10.000Z</time>
</trkpt>
<trkpt lat="45.8909880" lon="9.8348150">
	<ele>1597.20</ele>
	<time>2023-11-18T11:43:11.000Z</time>
</trkpt>
<trkpt lat="45.8909870" lon="9.8348170">
	<ele>1597.00</ele>
	<time>2023-11-18T11:43:12.000Z</time>
</trkpt>
<trkpt lat="45.8909870" lon="9.8348170">
	<ele>1597.00</ele>
	<time>2023-11-18T11:43:13.000Z</time>
</trkpt>
<trkpt lat="45.8909870" lon="9.8348170">
	<ele>1596.80</ele>
	<time>2023-11-18T11:43:14.000Z</time>
</trkpt>
<trkpt lat="45.8909870" lon="9.8348130">
	<ele>1596.80</ele>
	<time>2023-11-18T11:43:15.000Z</time>
</trkpt>
<trkpt lat="45.8909890" lon="9.8348110">
	<ele>1596.60</ele>
	<time>2023-11-18T11:43:16.000Z</time>
</trkpt>
<trkpt lat="45.8909880" lon="9.8348140">
	<ele>1596.60</ele>
	<time>2023-11-18T11:43:17.000Z</time>
</trkpt>
<trkpt lat="45.8909860" lon="9.8348170">
	<ele>1596.60</ele>
	<time>2023-11-18T11:43:18.000Z</time>
</trkpt>
<trkpt lat="45.8909830" lon="9.8348190">
	<ele>1596.60</ele>
	<time>2023-11-18T11:43:19.000Z</time>
</trkpt>
<trkpt lat="45.8909810" lon="9.8348190">
	<ele>1596.60</ele>
	<time>2023-11-18T11:43:20.000Z</time>
</trkpt>
<trkpt lat="45.8909790" lon="9.8348190">
	<ele>1596.40</ele>
	<time>2023-11-18T11:43:21.000Z</time>
</trkpt>
<trkpt lat="45.8909770" lon="9.8348190">
	<ele>1596.40</ele>
	<time>2023-11-18T11:43:22.000Z</time>
</trkpt>
<trkpt lat="45.8909750" lon="9.8348200">
	<ele>1596.20</ele>
	<time>2023-11-18T11:43:23.000Z</time>
</trkpt>
<trkpt lat="45.8909740" lon="9.8348180">
	<ele>1596.20</ele>
	<time>2023-11-18T11:43:24.000Z</time>
</trkpt>
<trkpt lat="45.8909760" lon="9.8348180">
	<ele>1596.00</ele>
	<time>2023-11-18T11:43:25.000Z</time>
</trkpt>
<trkpt lat="45.8909790" lon="9.8348190">
	<ele>1596.00</ele>
	<time>2023-11-18T11:43:26.000Z</time>
</trkpt>
<trkpt lat="45.8909810" lon="9.8348200">
	<ele>1596.00</ele>
	<time>2023-11-18T11:43:27.000Z</time>
</trkpt>
<trkpt lat="45.8909820" lon="9.8348200">
	<ele>1596.00</ele>
	<time>2023-11-18T11:43:28.000Z</time>
</trkpt>
<trkpt lat="45.8909820" lon="9.8348200">
	<ele>1596.00</ele>
	<time>2023-11-18T11:43:29.000Z</time>
</trkpt>
<trkpt lat="45.8909830" lon="9.8348210">
	<ele>1596.00</ele>
	<time>2023-11-18T11:43:30.000Z</time>
</trkpt>
<trkpt lat="45.8909820" lon="9.8348200">
	<ele>1596.00</ele>
	<time>2023-11-18T11:43:31.000Z</time>
</trkpt>
<trkpt lat="45.8909820" lon="9.8348200">
	<ele>1596.00</ele>
	<time>2023-11-18T11:43:32.000Z</time>
</trkpt>
<trkpt lat="45.8909850" lon="9.8348220">
	<ele>1596.00</ele>
	<time>2023-11-18T11:43:33.000Z</time>
</trkpt>
<trkpt lat="45.8909850" lon="9.8348240">
	<ele>1596.00</ele>
	<time>2023-11-18T11:43:34.000Z</time>
</trkpt>
<trkpt lat="45.8909840" lon="9.8348250">
	<ele>1596.00</ele>
	<time>2023-11-18T11:43:35.000Z</time>
</trkpt>
<trkpt lat="45.8909840" lon="9.8348250">
	<ele>1596.00</ele>
	<time>2023-11-18T11:43:36.000Z</time>
</trkpt>
<trkpt lat="45.8909840" lon="9.8348250">
	<ele>1596.00</ele>
	<time>2023-11-18T11:43:37.000Z</time>
</trkpt>
<trkpt lat="45.8909840" lon="9.8348250">
	<ele>1595.80</ele>
	<time>2023-11-18T11:43:38.000Z</time>
</trkpt>
<trkpt lat="45.8909840" lon="9.8348250">
	<ele>1595.80</ele>
	<time>2023-11-18T11:43:39.000Z</time>
</trkpt>
<trkpt lat="45.8909840" lon="9.8348250">
	<ele>1595.80</ele>
	<time>2023-11-18T11:43:40.000Z</time>
</trkpt>
<trkpt lat="45.8909840" lon="9.8348250">
	<ele>1595.80</ele>
	<time>2023-11-18T11:43:41.000Z</time>
</trkpt>
<trkpt lat="45.8909840" lon="9.8348250">
	<ele>1595.80</ele>
	<time>2023-11-18T11:43:42.000Z</time>
</trkpt>
<trkpt lat="45.8909830" lon="9.8348240">
	<ele>1595.80</ele>
	<time>2023-11-18T11:43:43.000Z</time>
</trkpt>
<trkpt lat="45.8909830" lon="9.8348240">
	<ele>1595.80</ele>
	<time>2023-11-18T11:43:44.000Z</time>
</trkpt>
<trkpt lat="45.8909810" lon="9.8348240">
	<ele>1595.80</ele>
	<time>2023-11-18T11:43:45.000Z</time>
</trkpt>
<trkpt lat="45.8909790" lon="9.8348240">
	<ele>1595.80</ele>
	<time>2023-11-18T11:43:46.000Z</time>
</trkpt>
<trkpt lat="45.8909770" lon="9.8348240">
	<ele>1595.80</ele>
	<time>2023-11-18T11:43:47.000Z</time>
</trkpt>
<trkpt lat="45.8909770" lon="9.8348230">
	<ele>1595.60</ele>
	<time>2023-11-18T11:43:48.000Z</time>
</trkpt>
<trkpt lat="45.8909770" lon="9.8348230">
	<ele>1595.60</ele>
	<time>2023-11-18T11:43:49.000Z</time>
</trkpt>
<trkpt lat="45.8909770" lon="9.8348230">
	<ele>1595.60</ele>
	<time>2023-11-18T11:43:50.000Z</time>
</trkpt>
<trkpt lat="45.8909770" lon="9.8348230">
	<ele>1595.60</ele>
	<time>2023-11-18T11:43:51.000Z</time>
</trkpt>
<trkpt lat="45.8909770" lon="9.8348230">
	<ele>1595.60</ele>
	<time>2023-11-18T11:43:52.000Z</time>
</trkpt>
<trkpt lat="45.8909770" lon="9.8348230">
	<ele>1595.60</ele>
	<time>2023-11-18T11:43:53.000Z</time>
</trkpt>
<trkpt lat="45.8909770" lon="9.8348230">
	<ele>1595.60</ele>
	<time>2023-11-18T11:43:54.000Z</time>
</trkpt>
<trkpt lat="45.8909770" lon="9.8348230">
	<ele>1595.60</ele>
	<time>2023-11-18T11:43:55.000Z</time>
</trkpt>
<trkpt lat="45.8909770" lon="9.8348230">
	<ele>1595.60</ele>
	<time>2023-11-18T11:43:56.000Z</time>
</trkpt>
<trkpt lat="45.8909770" lon="9.8348220">
	<ele>1595.80</ele>
	<time>2023-11-18T11:43:57.000Z</time>
</trkpt>
<trkpt lat="45.8909770" lon="9.8348220">
	<ele>1595.80</ele>
	<time>2023-11-18T11:43:58.000Z</time>
</trkpt>
<trkpt lat="45.8909770" lon="9.8348220">
	<ele>1595.80</ele>
	<time>2023-11-18T11:43:59.000Z</time>
</trkpt>
<trkpt lat="45.8909770" lon="9.8348220">
	<ele>1595.80</ele>
	<time>2023-11-18T11:44:00.000Z</time>
</trkpt>
<trkpt lat="45.8909770" lon="9.8348220">
	<ele>1595.80</ele>
	<time>2023-11-18T11:44:01.000Z</time>
</trkpt>
<trkpt lat="45.8909750" lon="9.8348220">
	<ele>1595.60</ele>
	<time>2023-11-18T11:44:02.000Z</time>
</trkpt>
<trkpt lat="45.8909750" lon="9.8348220">
	<ele>1595.60</ele>
	<time>2023-11-18T11:44:03.000Z</time>
</trkpt>
<trkpt lat="45.8909750" lon="9.8348220">
	<ele>1595.60</ele>
	<time>2023-11-18T11:44:04.000Z</time>
</trkpt>
<trkpt lat="45.8909750" lon="9.8348220">
	<ele>1595.60</ele>
	<time>2023-11-18T11:44:05.000Z</time>
</trkpt>
<trkpt lat="45.8909750" lon="9.8348220">
	<ele>1595.60</ele>
	<time>2023-11-18T11:44:06.000Z</time>
</trkpt>
<trkpt lat="45.8909750" lon="9.8348220">
	<ele>1595.60</ele>
	<time>2023-11-18T11:44:07.000Z</time>
</trkpt>
<trkpt lat="45.8909750" lon="9.8348220">
	<ele>1595.60</ele>
	<time>2023-11-18T11:44:08.000Z</time>
</trkpt>
<trkpt lat="45.8909750" lon="9.8348220">
	<ele>1595.60</ele>
	<time>2023-11-18T11:44:09.000Z</time>
</trkpt>
<trkpt lat="45.8909750" lon="9.8348220">
	<ele>1595.60</ele>
	<time>2023-11-18T11:44:10.000Z</time>
</trkpt>
<trkpt lat="45.8909750" lon="9.8348220">
	<ele>1595.60</ele>
	<time>2023-11-18T11:44:11.000Z</time>
</trkpt>
<trkpt lat="45.8909740" lon="9.8348230">
	<ele>1595.60</ele>
	<time>2023-11-18T11:44:12.000Z</time>
</trkpt>
<trkpt lat="45.8909740" lon="9.8348250">
	<ele>1595.60</ele>
	<time>2023-11-18T11:44:13.000Z</time>
</trkpt>
<trkpt lat="45.8909730" lon="9.8348250">
	<ele>1595.60</ele>
	<time>2023-11-18T11:44:14.000Z</time>
</trkpt>
<trkpt lat="45.8909730" lon="9.8348250">
	<ele>1595.40</ele>
	<time>2023-11-18T11:44:15.000Z</time>
</trkpt>
<trkpt lat="45.8909730" lon="9.8348250">
	<ele>1595.40</ele>
	<time>2023-11-18T11:44:16.000Z</time>
</trkpt>
<trkpt lat="45.8909730" lon="9.8348250">
	<ele>1595.40</ele>
	<time>2023-11-18T11:44:17.000Z</time>
</trkpt>
<trkpt lat="45.8909730" lon="9.8348250">
	<ele>1595.60</ele>
	<time>2023-11-18T11:44:18.000Z</time>
</trkpt>
<trkpt lat="45.8909730" lon="9.8348250">
	<ele>1595.60</ele>
	<time>2023-11-18T11:44:19.000Z</time>
</trkpt>
<trkpt lat="45.8909730" lon="9.8348250">
	<ele>1595.80</ele>
	<time>2023-11-18T11:44:20.000Z</time>
</trkpt>
<trkpt lat="45.8909730" lon="9.8348250">
	<ele>1595.80</ele>
	<time>2023-11-18T11:44:21.000Z</time>
</trkpt>
<trkpt lat="45.8909730" lon="9.8348250">
	<ele>1595.80</ele>
	<time>2023-11-18T11:44:22.000Z</time>
</trkpt>
<trkpt lat="45.8909730" lon="9.8348250">
	<ele>1595.80</ele>
	<time>2023-11-18T11:44:23.000Z</time>
</trkpt>
<trkpt lat="45.8909730" lon="9.8348250">
	<ele>1595.80</ele>
	<time>2023-11-18T11:44:24.000Z</time>
</trkpt>
<trkpt lat="45.8909720" lon="9.8348250">
	<ele>1595.80</ele>
	<time>2023-11-18T11:44:25.000Z</time>
</trkpt>
<trkpt lat="45.8909710" lon="9.8348250">
	<ele>1595.60</ele>
	<time>2023-11-18T11:44:26.000Z</time>
</trkpt>
<trkpt lat="45.8909710" lon="9.8348250">
	<ele>1595.40</ele>
	<time>2023-11-18T11:44:27.000Z</time>
</trkpt>
<trkpt lat="45.8909700" lon="9.8348250">
	<ele>1595.20</ele>
	<time>2023-11-18T11:44:28.000Z</time>
</trkpt>
<trkpt lat="45.8909700" lon="9.8348240">
	<ele>1595.20</ele>
	<time>2023-11-18T11:44:29.000Z</time>
</trkpt>
<trkpt lat="45.8909690" lon="9.8348240">
	<ele>1595.00</ele>
	<time>2023-11-18T11:44:30.000Z</time>
</trkpt>
<trkpt lat="45.8909680" lon="9.8348230">
	<ele>1595.00</ele>
	<time>2023-11-18T11:44:31.000Z</time>
</trkpt>
<trkpt lat="45.8909670" lon="9.8348230">
	<ele>1595.00</ele>
	<time>2023-11-18T11:44:32.000Z</time>
</trkpt>
<trkpt lat="45.8909660" lon="9.8348230">
	<ele>1594.80</ele>
	<time>2023-11-18T11:44:33.000Z</time>
</trkpt>
<trkpt lat="45.8909650" lon="9.8348230">
	<ele>1594.80</ele>
	<time>2023-11-18T11:44:34.000Z</time>
</trkpt>
<trkpt lat="45.8909640" lon="9.8348220">
	<ele>1594.60</ele>
	<time>2023-11-18T11:44:35.000Z</time>
</trkpt>
<trkpt lat="45.8909640" lon="9.8348220">
	<ele>1594.40</ele>
	<time>2023-11-18T11:44:36.000Z</time>
</trkpt>
<trkpt lat="45.8909640" lon="9.8348170">
	<ele>1593.80</ele>
	<time>2023-11-18T11:44:37.000Z</time>
</trkpt>
<trkpt lat="45.8909630" lon="9.8348110">
	<ele>1593.60</ele>
	<time>2023-11-18T11:44:38.000Z</time>
</trkpt>
<trkpt lat="45.8909600" lon="9.8348090">
	<ele>1593.60</ele>
	<time>2023-11-18T11:44:39.000Z</time>
</trkpt>
<trkpt lat="45.8909540" lon="9.8348080">
	<ele>1593.20</ele>
	<time>2023-11-18T11:44:40.000Z</time>
</trkpt>
<trkpt lat="45.8909460" lon="9.8348080">
	<ele>1593.20</ele>
	<time>2023-11-18T11:44:41.000Z</time>
</trkpt>
<trkpt lat="45.8909390" lon="9.8348080">
	<ele>1593.00</ele>
	<time>2023-11-18T11:44:42.000Z</time>
</trkpt>
<trkpt lat="45.8909320" lon="9.8348080">
	<ele>1593.00</ele>
	<time>2023-11-18T11:44:43.000Z</time>
</trkpt>
<trkpt lat="45.8909270" lon="9.8348080">
	<ele>1593.00</ele>
	<time>2023-11-18T11:44:44.000Z</time>
</trkpt>
<trkpt lat="45.8909220" lon="9.8348070">
	<ele>1592.80</ele>
	<time>2023-11-18T11:44:45.000Z</time>
</trkpt>
<trkpt lat="45.8909180" lon="9.8348070">
	<ele>1592.80</ele>
	<time>2023-11-18T11:44:46.000Z</time>
</trkpt>
<trkpt lat="45.8909110" lon="9.8348070">
	<ele>1592.80</ele>
	<time>2023-11-18T11:44:47.000Z</time>
</trkpt>
<trkpt lat="45.8909070" lon="9.8348070">
	<ele>1592.80</ele>
	<time>2023-11-18T11:44:48.000Z</time>
</trkpt>
<trkpt lat="45.8909040" lon="9.8348070">
	<ele>1592.60</ele>
	<time>2023-11-18T11:44:49.000Z</time>
</trkpt>
<trkpt lat="45.8909020" lon="9.8348070">
	<ele>1592.60</ele>
	<time>2023-11-18T11:44:50.000Z</time>
</trkpt>
<trkpt lat="45.8909010" lon="9.8348070">
	<ele>1592.60</ele>
	<time>2023-11-18T11:44:51.000Z</time>
</trkpt>
<trkpt lat="45.8909000" lon="9.8348070">
	<ele>1592.60</ele>
	<time>2023-11-18T11:44:52.000Z</time>
</trkpt>
<trkpt lat="45.8909000" lon="9.8348070">
	<ele>1592.60</ele>
	<time>2023-11-18T11:44:53.000Z</time>
</trkpt>
<trkpt lat="45.8909000" lon="9.8348070">
	<ele>1592.60</ele>
	<time>2023-11-18T11:44:54.000Z</time>
</trkpt>
<trkpt lat="45.8909000" lon="9.8348070">
	<ele>1592.60</ele>
	<time>2023-11-18T11:44:55.000Z</time>
</trkpt>
<trkpt lat="45.8908990" lon="9.8348070">
	<ele>1592.60</ele>
	<time>2023-11-18T11:44:56.000Z</time>
</trkpt>
<trkpt lat="45.8908990" lon="9.8348080">
	<ele>1592.60</ele>
	<time>2023-11-18T11:44:57.000Z</time>
</trkpt>
<trkpt lat="45.8908980" lon="9.8348080">
	<ele>1592.60</ele>
	<time>2023-11-18T11:44:58.000Z</time>
</trkpt>
<trkpt lat="45.8908980" lon="9.8348080">
	<ele>1592.60</ele>
	<time>2023-11-18T11:44:59.000Z</time>
</trkpt>
<trkpt lat="45.8908980" lon="9.8348080">
	<ele>1592.60</ele>
	<time>2023-11-18T11:45:00.000Z</time>
</trkpt>
<trkpt lat="45.8908970" lon="9.8348080">
	<ele>1592.60</ele>
	<time>2023-11-18T11:45:01.000Z</time>
</trkpt>
<trkpt lat="45.8908970" lon="9.8348080">
	<ele>1592.60</ele>
	<time>2023-11-18T11:45:02.000Z</time>
</trkpt>
<trkpt lat="45.8908970" lon="9.8348090">
	<ele>1592.80</ele>
	<time>2023-11-18T11:45:03.000Z</time>
</trkpt>
<trkpt lat="45.8908970" lon="9.8348090">
	<ele>1592.60</ele>
	<time>2023-11-18T11:45:04.000Z</time>
</trkpt>
<trkpt lat="45.8908970" lon="9.8348090">
	<ele>1592.60</ele>
	<time>2023-11-18T11:45:05.000Z</time>
</trkpt>
<trkpt lat="45.8908970" lon="9.8348100">
	<ele>1592.60</ele>
	<time>2023-11-18T11:45:06.000Z</time>
</trkpt>
<trkpt lat="45.8908970" lon="9.8348100">
	<ele>1592.60</ele>
	<time>2023-11-18T11:45:07.000Z</time>
</trkpt>
<trkpt lat="45.8908970" lon="9.8348110">
	<ele>1592.60</ele>
	<time>2023-11-18T11:45:08.000Z</time>
</trkpt>
<trkpt lat="45.8908970" lon="9.8348120">
	<ele>1592.40</ele>
	<time>2023-11-18T11:45:09.000Z</time>
</trkpt>
<trkpt lat="45.8908960" lon="9.8348120">
	<ele>1592.20</ele>
	<time>2023-11-18T11:45:10.000Z</time>
</trkpt>
<trkpt lat="45.8908960" lon="9.8348130">
	<ele>1592.00</ele>
	<time>2023-11-18T11:45:11.000Z</time>
</trkpt>
<trkpt lat="45.8908960" lon="9.8348130">
	<ele>1592.00</ele>
	<time>2023-11-18T11:45:12.000Z</time>
</trkpt>
<trkpt lat="45.8908960" lon="9.8348140">
	<ele>1591.60</ele>
	<time>2023-11-18T11:45:13.000Z</time>
</trkpt>
<trkpt lat="45.8908960" lon="9.8348140">
	<ele>1591.60</ele>
	<time>2023-11-18T11:45:14.000Z</time>
</trkpt>
<trkpt lat="45.8908950" lon="9.8348140">
	<ele>1591.40</ele>
	<time>2023-11-18T11:45:15.000Z</time>
</trkpt>
<trkpt lat="45.8908950" lon="9.8348140">
	<ele>1591.00</ele>
	<time>2023-11-18T11:45:16.000Z</time>
</trkpt>
<trkpt lat="45.8908950" lon="9.8348140">
	<ele>1591.00</ele>
	<time>2023-11-18T11:45:17.000Z</time>
</trkpt>
<trkpt lat="45.8908930" lon="9.8348150">
	<ele>1590.80</ele>
	<time>2023-11-18T11:45:18.000Z</time>
</trkpt>
<trkpt lat="45.8908870" lon="9.8348240">
	<ele>1590.80</ele>
	<time>2023-11-18T11:45:19.000Z</time>
</trkpt>
<trkpt lat="45.8908790" lon="9.8348440">
	<ele>1590.80</ele>
	<time>2023-11-18T11:45:20.000Z</time>
</trkpt>
<trkpt lat="45.8908740" lon="9.8348640">
	<ele>1590.60</ele>
	<time>2023-11-18T11:45:21.000Z</time>
</trkpt>
<trkpt lat="45.8908690" lon="9.8348800">
	<ele>1590.20</ele>
	<time>2023-11-18T11:45:22.000Z</time>
</trkpt>
<trkpt lat="45.8908630" lon="9.8348990">
	<ele>1590.00</ele>
	<time>2023-11-18T11:45:23.000Z</time>
</trkpt>
<trkpt lat="45.8908530" lon="9.8349170">
	<ele>1589.80</ele>
	<time>2023-11-18T11:45:24.000Z</time>
</trkpt>
<trkpt lat="45.8908440" lon="9.8349400">
	<ele>1589.80</ele>
	<time>2023-11-18T11:45:25.000Z</time>
</trkpt>
<trkpt lat="45.8908350" lon="9.8349640">
	<ele>1589.60</ele>
	<time>2023-11-18T11:45:26.000Z</time>
</trkpt>
<trkpt lat="45.8908250" lon="9.8349810">
	<ele>1589.20</ele>
	<time>2023-11-18T11:45:27.000Z</time>
</trkpt>
<trkpt lat="45.8908140" lon="9.8349960">
	<ele>1589.00</ele>
	<time>2023-11-18T11:45:28.000Z</time>
</trkpt>
<trkpt lat="45.8908090" lon="9.8350010">
	<ele>1588.80</ele>
	<time>2023-11-18T11:45:29.000Z</time>
</trkpt>
<trkpt lat="45.8908040" lon="9.8350050">
	<ele>1588.60</ele>
	<time>2023-11-18T11:45:30.000Z</time>
</trkpt>
<trkpt lat="45.8908000" lon="9.8350100">
	<ele>1588.40</ele>
	<time>2023-11-18T11:45:31.000Z</time>
</trkpt>
<trkpt lat="45.8907920" lon="9.8350140">
	<ele>1588.20</ele>
	<time>2023-11-18T11:45:32.000Z</time>
</trkpt>
<trkpt lat="45.8907840" lon="9.8350190">
	<ele>1587.80</ele>
	<time>2023-11-18T11:45:33.000Z</time>
</trkpt>
<trkpt lat="45.8907810" lon="9.8350260">
	<ele>1587.60</ele>
	<time>2023-11-18T11:45:34.000Z</time>
</trkpt>
<trkpt lat="45.8907770" lon="9.8350340">
	<ele>1587.40</ele>
	<time>2023-11-18T11:45:35.000Z</time>
</trkpt>
<trkpt lat="45.8907730" lon="9.8350420">
	<ele>1587.20</ele>
	<time>2023-11-18T11:45:36.000Z</time>
</trkpt>
<trkpt lat="45.8907670" lon="9.8350460">
	<ele>1586.80</ele>
	<time>2023-11-18T11:45:37.000Z</time>
</trkpt>
<trkpt lat="45.8907600" lon="9.8350490">
	<ele>1586.60</ele>
	<time>2023-11-18T11:45:38.000Z</time>
</trkpt>
<trkpt lat="45.8907550" lon="9.8350560">
	<ele>1586.40</ele>
	<time>2023-11-18T11:45:39.000Z</time>
</trkpt>
<trkpt lat="45.8907490" lon="9.8350590">
	<ele>1586.20</ele>
	<time>2023-11-18T11:45:40.000Z</time>
</trkpt>
<trkpt lat="45.8907440" lon="9.8350620">
	<ele>1586.00</ele>
	<time>2023-11-18T11:45:41.000Z</time>
</trkpt>
<trkpt lat="45.8907400" lon="9.8350610">
	<ele>1585.80</ele>
	<time>2023-11-18T11:45:42.000Z</time>
</trkpt>
<trkpt lat="45.8907320" lon="9.8350610">
	<ele>1585.60</ele>
	<time>2023-11-18T11:45:43.000Z</time>
</trkpt>
<trkpt lat="45.8907270" lon="9.8350620">
	<ele>1585.40</ele>
	<time>2023-11-18T11:45:44.000Z</time>
</trkpt>
<trkpt lat="45.8907220" lon="9.8350610">
	<ele>1585.00</ele>
	<time>2023-11-18T11:45:45.000Z</time>
</trkpt>
<trkpt lat="45.8907170" lon="9.8350550">
	<ele>1585.00</ele>
	<time>2023-11-18T11:45:46.000Z</time>
</trkpt>
<trkpt lat="45.8907110" lon="9.8350490">
	<ele>1584.60</ele>
	<time>2023-11-18T11:45:47.000Z</time>
</trkpt>
<trkpt lat="45.8907040" lon="9.8350440">
	<ele>1584.40</ele>
	<time>2023-11-18T11:45:48.000Z</time>
</trkpt>
<trkpt lat="45.8906970" lon="9.8350420">
	<ele>1584.20</ele>
	<time>2023-11-18T11:45:49.000Z</time>
</trkpt>
<trkpt lat="45.8906890" lon="9.8350390">
	<ele>1584.00</ele>
	<time>2023-11-18T11:45:50.000Z</time>
</trkpt>
<trkpt lat="45.8906840" lon="9.8350340">
	<ele>1583.60</ele>
	<time>2023-11-18T11:45:51.000Z</time>
</trkpt>
<trkpt lat="45.8906810" lon="9.8350250">
	<ele>1583.40</ele>
	<time>2023-11-18T11:45:52.000Z</time>
</trkpt>
<trkpt lat="45.8906770" lon="9.8350140">
	<ele>1583.20</ele>
	<time>2023-11-18T11:45:53.000Z</time>
</trkpt>
<trkpt lat="45.8906700" lon="9.8350060">
	<ele>1582.80</ele>
	<time>2023-11-18T11:45:54.000Z</time>
</trkpt>
<trkpt lat="45.8906620" lon="9.8349960">
	<ele>1582.60</ele>
	<time>2023-11-18T11:45:55.000Z</time>
</trkpt>
<trkpt lat="45.8906560" lon="9.8349850">
	<ele>1582.40</ele>
	<time>2023-11-18T11:45:56.000Z</time>
</trkpt>
<trkpt lat="45.8906500" lon="9.8349770">
	<ele>1582.20</ele>
	<time>2023-11-18T11:45:57.000Z</time>
</trkpt>
<trkpt lat="45.8906440" lon="9.8349690">
	<ele>1582.00</ele>
	<time>2023-11-18T11:45:58.000Z</time>
</trkpt>
<trkpt lat="45.8906380" lon="9.8349580">
	<ele>1581.60</ele>
	<time>2023-11-18T11:45:59.000Z</time>
</trkpt>
<trkpt lat="45.8906280" lon="9.8349480">
	<ele>1581.40</ele>
	<time>2023-11-18T11:46:00.000Z</time>
</trkpt>
<trkpt lat="45.8906190" lon="9.8349390">
	<ele>1581.20</ele>
	<time>2023-11-18T11:46:01.000Z</time>
</trkpt>
<trkpt lat="45.8906120" lon="9.8349310">
	<ele>1581.00</ele>
	<time>2023-11-18T11:46:02.000Z</time>
</trkpt>
<trkpt lat="45.8906030" lon="9.8349240">
	<ele>1580.80</ele>
	<time>2023-11-18T11:46:03.000Z</time>
</trkpt>
<trkpt lat="45.8905940" lon="9.8349120">
	<ele>1580.60</ele>
	<time>2023-11-18T11:46:04.000Z</time>
</trkpt>
<trkpt lat="45.8905850" lon="9.8349000">
	<ele>1580.40</ele>
	<time>2023-11-18T11:46:05.000Z</time>
</trkpt>
<trkpt lat="45.8905790" lon="9.8348850">
	<ele>1580.20</ele>
	<time>2023-11-18T11:46:06.000Z</time>
</trkpt>
<trkpt lat="45.8905730" lon="9.8348730">
	<ele>1580.00</ele>
	<time>2023-11-18T11:46:07.000Z</time>
</trkpt>
<trkpt lat="45.8905680" lon="9.8348640">
	<ele>1580.00</ele>
	<time>2023-11-18T11:46:08.000Z</time>
</trkpt>
<trkpt lat="45.8905630" lon="9.8348530">
	<ele>1579.80</ele>
	<time>2023-11-18T11:46:09.000Z</time>
</trkpt>
<trkpt lat="45.8905560" lon="9.8348450">
	<ele>1579.60</ele>
	<time>2023-11-18T11:46:10.000Z</time>
</trkpt>
<trkpt lat="45.8905500" lon="9.8348380">
	<ele>1579.40</ele>
	<time>2023-11-18T11:46:11.000Z</time>
</trkpt>
<trkpt lat="45.8905450" lon="9.8348310">
	<ele>1579.20</ele>
	<time>2023-11-18T11:46:12.000Z</time>
</trkpt>
<trkpt lat="45.8905390" lon="9.8348230">
	<ele>1579.00</ele>
	<time>2023-11-18T11:46:13.000Z</time>
</trkpt>
<trkpt lat="45.8905330" lon="9.8348140">
	<ele>1578.80</ele>
	<time>2023-11-18T11:46:14.000Z</time>
</trkpt>
<trkpt lat="45.8905270" lon="9.8348080">
	<ele>1578.60</ele>
	<time>2023-11-18T11:46:15.000Z</time>
</trkpt>
<trkpt lat="45.8905230" lon="9.8348060">
	<ele>1578.40</ele>
	<time>2023-11-18T11:46:16.000Z</time>
</trkpt>
<trkpt lat="45.8905220" lon="9.8348050">
	<ele>1578.20</ele>
	<time>2023-11-18T11:46:17.000Z</time>
</trkpt>
<trkpt lat="45.8905210" lon="9.8348050">
	<ele>1578.20</ele>
	<time>2023-11-18T11:46:18.000Z</time>
</trkpt>
<trkpt lat="45.8905190" lon="9.8348030">
	<ele>1578.20</ele>
	<time>2023-11-18T11:46:19.000Z</time>
</trkpt>
<trkpt lat="45.8905140" lon="9.8348000">
	<ele>1578.00</ele>
	<time>2023-11-18T11:46:20.000Z</time>
</trkpt>
<trkpt lat="45.8905070" lon="9.8347990">
	<ele>1578.00</ele>
	<time>2023-11-18T11:46:21.000Z</time>
</trkpt>
<trkpt lat="45.8905010" lon="9.8347950">
	<ele>1577.80</ele>
	<time>2023-11-18T11:46:22.000Z</time>
</trkpt>
<trkpt lat="45.8904920" lon="9.8347890">
	<ele>1577.80</ele>
	<time>2023-11-18T11:46:23.000Z</time>
</trkpt>
<trkpt lat="45.8904830" lon="9.8347840">
	<ele>1577.60</ele>
	<time>2023-11-18T11:46:24.000Z</time>
</trkpt>
<trkpt lat="45.8904750" lon="9.8347770">
	<ele>1577.40</ele>
	<time>2023-11-18T11:46:25.000Z</time>
</trkpt>
<trkpt lat="45.8904670" lon="9.8347730">
	<ele>1577.20</ele>
	<time>2023-11-18T11:46:26.000Z</time>
</trkpt>
<trkpt lat="45.8904570" lon="9.8347690">
	<ele>1577.00</ele>
	<time>2023-11-18T11:46:27.000Z</time>
</trkpt>
<trkpt lat="45.8904490" lon="9.8347670">
	<ele>1576.80</ele>
	<time>2023-11-18T11:46:28.000Z</time>
</trkpt>
<trkpt lat="45.8904430" lon="9.8347700">
	<ele>1576.20</ele>
	<time>2023-11-18T11:46:29.000Z</time>
</trkpt>
<trkpt lat="45.8904380" lon="9.8347700">
	<ele>1576.00</ele>
	<time>2023-11-18T11:46:30.000Z</time>
</trkpt>
<trkpt lat="45.8904310" lon="9.8347720">
	<ele>1575.80</ele>
	<time>2023-11-18T11:46:31.000Z</time>
</trkpt>
<trkpt lat="45.8904220" lon="9.8347710">
	<ele>1575.60</ele>
	<time>2023-11-18T11:46:32.000Z</time>
</trkpt>
<trkpt lat="45.8904070" lon="9.8347700">
	<ele>1575.40</ele>
	<time>2023-11-18T11:46:33.000Z</time>
</trkpt>
<trkpt lat="45.8903970" lon="9.8347690">
	<ele>1575.00</ele>
	<time>2023-11-18T11:46:34.000Z</time>
</trkpt>
<trkpt lat="45.8903870" lon="9.8347690">
	<ele>1574.80</ele>
	<time>2023-11-18T11:46:35.000Z</time>
</trkpt>
<trkpt lat="45.8903790" lon="9.8347700">
	<ele>1574.60</ele>
	<time>2023-11-18T11:46:36.000Z</time>
</trkpt>
<trkpt lat="45.8903700" lon="9.8347710">
	<ele>1574.40</ele>
	<time>2023-11-18T11:46:37.000Z</time>
</trkpt>
<trkpt lat="45.8903630" lon="9.8347750">
	<ele>1574.00</ele>
	<time>2023-11-18T11:46:38.000Z</time>
</trkpt>
<trkpt lat="45.8903570" lon="9.8347820">
	<ele>1573.60</ele>
	<time>2023-11-18T11:46:39.000Z</time>
</trkpt>
<trkpt lat="45.8903520" lon="9.8347890">
	<ele>1573.20</ele>
	<time>2023-11-18T11:46:40.000Z</time>
</trkpt>
<trkpt lat="45.8903480" lon="9.8347970">
	<ele>1573.00</ele>
	<time>2023-11-18T11:46:41.000Z</time>
</trkpt>
<trkpt lat="45.8903450" lon="9.8348080">
	<ele>1572.80</ele>
	<time>2023-11-18T11:46:42.000Z</time>
</trkpt>
<trkpt lat="45.8903420" lon="9.8348220">
	<ele>1572.40</ele>
	<time>2023-11-18T11:46:43.000Z</time>
</trkpt>
<trkpt lat="45.8903370" lon="9.8348340">
	<ele>1572.00</ele>
	<time>2023-11-18T11:46:44.000Z</time>
</trkpt>
<trkpt lat="45.8903310" lon="9.8348410">
	<ele>1571.80</ele>
	<time>2023-11-18T11:46:45.000Z</time>
</trkpt>
<trkpt lat="45.8903260" lon="9.8348470">
	<ele>1571.40</ele>
	<time>2023-11-18T11:46:46.000Z</time>
</trkpt>
<trkpt lat="45.8903210" lon="9.8348540">
	<ele>1571.20</ele>
	<time>2023-11-18T11:46:47.000Z</time>
</trkpt>
<trkpt lat="45.8903150" lon="9.8348640">
	<ele>1571.00</ele>
	<time>2023-11-18T11:46:48.000Z</time>
</trkpt>
<trkpt lat="45.8903140" lon="9.8348740">
	<ele>1570.60</ele>
	<time>2023-11-18T11:46:49.000Z</time>
</trkpt>
<trkpt lat="45.8903110" lon="9.8348800">
	<ele>1570.40</ele>
	<time>2023-11-18T11:46:50.000Z</time>
</trkpt>
<trkpt lat="45.8903030" lon="9.8348840">
	<ele>1570.20</ele>
	<time>2023-11-18T11:46:51.000Z</time>
</trkpt>
<trkpt lat="45.8902920" lon="9.8348870">
	<ele>1570.00</ele>
	<time>2023-11-18T11:46:52.000Z</time>
</trkpt>
<trkpt lat="45.8902860" lon="9.8348830">
	<ele>1569.80</ele>
	<time>2023-11-18T11:46:53.000Z</time>
</trkpt>
<trkpt lat="45.8902790" lon="9.8348860">
	<ele>1569.60</ele>
	<time>2023-11-18T11:46:54.000Z</time>
</trkpt>
<trkpt lat="45.8902710" lon="9.8348890">
	<ele>1569.40</ele>
	<time>2023-11-18T11:46:55.000Z</time>
</trkpt>
<trkpt lat="45.8902660" lon="9.8348900">
	<ele>1569.20</ele>
	<time>2023-11-18T11:46:56.000Z</time>
</trkpt>
<trkpt lat="45.8902590" lon="9.8348820">
	<ele>1569.00</ele>
	<time>2023-11-18T11:46:57.000Z</time>
</trkpt>
<trkpt lat="45.8902490" lon="9.8348760">
	<ele>1568.60</ele>
	<time>2023-11-18T11:46:58.000Z</time>
</trkpt>
<trkpt lat="45.8902380" lon="9.8348690">
	<ele>1568.40</ele>
	<time>2023-11-18T11:46:59.000Z</time>
</trkpt>
<trkpt lat="45.8902290" lon="9.8348660">
	<ele>1568.20</ele>
	<time>2023-11-18T11:47:00.000Z</time>
</trkpt>
<trkpt lat="45.8902190" lon="9.8348630">
	<ele>1568.00</ele>
	<time>2023-11-18T11:47:01.000Z</time>
</trkpt>
<trkpt lat="45.8902080" lon="9.8348600">
	<ele>1567.60</ele>
	<time>2023-11-18T11:47:02.000Z</time>
</trkpt>
<trkpt lat="45.8901950" lon="9.8348560">
	<ele>1567.20</ele>
	<time>2023-11-18T11:47:03.000Z</time>
</trkpt>
<trkpt lat="45.8901850" lon="9.8348570">
	<ele>1567.00</ele>
	<time>2023-11-18T11:47:04.000Z</time>
</trkpt>
<trkpt lat="45.8901740" lon="9.8348580">
	<ele>1566.60</ele>
	<time>2023-11-18T11:47:05.000Z</time>
</trkpt>
<trkpt lat="45.8901650" lon="9.8348570">
	<ele>1566.40</ele>
	<time>2023-11-18T11:47:06.000Z</time>
</trkpt>
<trkpt lat="45.8901560" lon="9.8348570">
	<ele>1566.20</ele>
	<time>2023-11-18T11:47:07.000Z</time>
</trkpt>
<trkpt lat="45.8901480" lon="9.8348550">
	<ele>1565.80</ele>
	<time>2023-11-18T11:47:08.000Z</time>
</trkpt>
<trkpt lat="45.8901400" lon="9.8348530">
	<ele>1565.40</ele>
	<time>2023-11-18T11:47:09.000Z</time>
</trkpt>
<trkpt lat="45.8901310" lon="9.8348500">
	<ele>1565.00</ele>
	<time>2023-11-18T11:47:10.000Z</time>
</trkpt>
<trkpt lat="45.8901220" lon="9.8348480">
	<ele>1564.80</ele>
	<time>2023-11-18T11:47:11.000Z</time>
</trkpt>
<trkpt lat="45.8901130" lon="9.8348430">
	<ele>1564.40</ele>
	<time>2023-11-18T11:47:12.000Z</time>
</trkpt>
<trkpt lat="45.8901030" lon="9.8348390">
	<ele>1564.20</ele>
	<time>2023-11-18T11:47:13.000Z</time>
</trkpt>
<trkpt lat="45.8900950" lon="9.8348330">
	<ele>1564.00</ele>
	<time>2023-11-18T11:47:14.000Z</time>
</trkpt>
<trkpt lat="45.8900900" lon="9.8348260">
	<ele>1563.80</ele>
	<time>2023-11-18T11:47:15.000Z</time>
</trkpt>
<trkpt lat="45.8900840" lon="9.8348150">
	<ele>1563.60</ele>
	<time>2023-11-18T11:47:16.000Z</time>
</trkpt>
<trkpt lat="45.8900790" lon="9.8348010">
	<ele>1563.60</ele>
	<time>2023-11-18T11:47:17.000Z</time>
</trkpt>
<trkpt lat="45.8900730" lon="9.8347890">
	<ele>1563.40</ele>
	<time>2023-11-18T11:47:18.000Z</time>
</trkpt>
<trkpt lat="45.8900670" lon="9.8347770">
	<ele>1563.00</ele>
	<time>2023-11-18T11:47:19.000Z</time>
</trkpt>
<trkpt lat="45.8900600" lon="9.8347680">
	<ele>1562.80</ele>
	<time>2023-11-18T11:47:20.000Z</time>
</trkpt>
<trkpt lat="45.8900560" lon="9.8347600">
	<ele>1562.40</ele>
	<time>2023-11-18T11:47:21.000Z</time>
</trkpt>
<trkpt lat="45.8900530" lon="9.8347530">
	<ele>1562.20</ele>
	<time>2023-11-18T11:47:22.000Z</time>
</trkpt>
<trkpt lat="45.8900510" lon="9.8347430">
	<ele>1562.00</ele>
	<time>2023-11-18T11:47:23.000Z</time>
</trkpt>
<trkpt lat="45.8900460" lon="9.8347310">
	<ele>1561.60</ele>
	<time>2023-11-18T11:47:24.000Z</time>
</trkpt>
<trkpt lat="45.8900390" lon="9.8347210">
	<ele>1561.40</ele>
	<time>2023-11-18T11:47:25.000Z</time>
</trkpt>
<trkpt lat="45.8900340" lon="9.8347160">
	<ele>1561.20</ele>
	<time>2023-11-18T11:47:26.000Z</time>
</trkpt>
<trkpt lat="45.8900320" lon="9.8347120">
	<ele>1561.00</ele>
	<time>2023-11-18T11:47:27.000Z</time>
</trkpt>
<trkpt lat="45.8900310" lon="9.8347090">
	<ele>1560.80</ele>
	<time>2023-11-18T11:47:28.000Z</time>
</trkpt>
<trkpt lat="45.8900290" lon="9.8347030">
	<ele>1560.60</ele>
	<time>2023-11-18T11:47:29.000Z</time>
</trkpt>
<trkpt lat="45.8900270" lon="9.8346980">
	<ele>1560.40</ele>
	<time>2023-11-18T11:47:30.000Z</time>
</trkpt>
<trkpt lat="45.8900250" lon="9.8346960">
	<ele>1560.40</ele>
	<time>2023-11-18T11:47:31.000Z</time>
</trkpt>
<trkpt lat="45.8900220" lon="9.8346920">
	<ele>1560.20</ele>
	<time>2023-11-18T11:47:32.000Z</time>
</trkpt>
<trkpt lat="45.8900220" lon="9.8346820">
	<ele>1560.00</ele>
	<time>2023-11-18T11:47:33.000Z</time>
</trkpt>
<trkpt lat="45.8900170" lon="9.8346750">
	<ele>1560.00</ele>
	<time>2023-11-18T11:47:34.000Z</time>
</trkpt>
<trkpt lat="45.8900130" lon="9.8346660">
	<ele>1559.80</ele>
	<time>2023-11-18T11:47:35.000Z</time>
</trkpt>
<trkpt lat="45.8900110" lon="9.8346650">
	<ele>1559.80</ele>
	<time>2023-11-18T11:47:36.000Z</time>
</trkpt>
<trkpt lat="45.8900070" lon="9.8346620">
	<ele>1559.60</ele>
	<time>2023-11-18T11:47:37.000Z</time>
</trkpt>
<trkpt lat="45.8900020" lon="9.8346630">
	<ele>1559.40</ele>
	<time>2023-11-18T11:47:38.000Z</time>
</trkpt>
<trkpt lat="45.8899990" lon="9.8346580">
	<ele>1559.20</ele>
	<time>2023-11-18T11:47:39.000Z</time>
</trkpt>
<trkpt lat="45.8899970" lon="9.8346530">
	<ele>1559.00</ele>
	<time>2023-11-18T11:47:40.000Z</time>
</trkpt>
<trkpt lat="45.8899930" lon="9.8346460">
	<ele>1558.80</ele>
	<time>2023-11-18T11:47:41.000Z</time>
</trkpt>
<trkpt lat="45.8899880" lon="9.8346430">
	<ele>1558.60</ele>
	<time>2023-11-18T11:47:42.000Z</time>
</trkpt>
<trkpt lat="45.8899840" lon="9.8346370">
	<ele>1558.40</ele>
	<time>2023-11-18T11:47:43.000Z</time>
</trkpt>
<trkpt lat="45.8899800" lon="9.8346260">
	<ele>1558.20</ele>
	<time>2023-11-18T11:47:44.000Z</time>
</trkpt>
<trkpt lat="45.8899750" lon="9.8346200">
	<ele>1558.00</ele>
	<time>2023-11-18T11:47:45.000Z</time>
</trkpt>
<trkpt lat="45.8899720" lon="9.8346160">
	<ele>1558.00</ele>
	<time>2023-11-18T11:47:46.000Z</time>
</trkpt>
<trkpt lat="45.8899700" lon="9.8346110">
	<ele>1557.80</ele>
	<time>2023-11-18T11:47:47.000Z</time>
</trkpt>
<trkpt lat="45.8899660" lon="9.8346050">
	<ele>1557.20</ele>
	<time>2023-11-18T11:47:48.000Z</time>
</trkpt>
<trkpt lat="45.8899660" lon="9.8345960">
	<ele>1557.00</ele>
	<time>2023-11-18T11:47:49.000Z</time>
</trkpt>
<trkpt lat="45.8899660" lon="9.8345860">
	<ele>1556.80</ele>
	<time>2023-11-18T11:47:50.000Z</time>
</trkpt>
<trkpt lat="45.8899650" lon="9.8345750">
	<ele>1556.40</ele>
	<time>2023-11-18T11:47:51.000Z</time>
</trkpt>
<trkpt lat="45.8899630" lon="9.8345670">
	<ele>1556.20</ele>
	<time>2023-11-18T11:47:52.000Z</time>
</trkpt>
<trkpt lat="45.8899620" lon="9.8345590">
	<ele>1556.00</ele>
	<time>2023-11-18T11:47:53.000Z</time>
</trkpt>
<trkpt lat="45.8899600" lon="9.8345520">
	<ele>1556.00</ele>
	<time>2023-11-18T11:47:54.000Z</time>
</trkpt>
<trkpt lat="45.8899570" lon="9.8345450">
	<ele>1556.00</ele>
	<time>2023-11-18T11:47:55.000Z</time>
</trkpt>
<trkpt lat="45.8899570" lon="9.8345370">
	<ele>1555.80</ele>
	<time>2023-11-18T11:47:56.000Z</time>
</trkpt>
<trkpt lat="45.8899580" lon="9.8345300">
	<ele>1555.40</ele>
	<time>2023-11-18T11:47:57.000Z</time>
</trkpt>
<trkpt lat="45.8899580" lon="9.8345220">
	<ele>1555.20</ele>
	<time>2023-11-18T11:47:58.000Z</time>
</trkpt>
<trkpt lat="45.8899570" lon="9.8345160">
	<ele>1554.80</ele>
	<time>2023-11-18T11:47:59.000Z</time>
</trkpt>
<trkpt lat="45.8899570" lon="9.8345080">
	<ele>1554.60</ele>
	<time>2023-11-18T11:48:00.000Z</time>
</trkpt>
<trkpt lat="45.8899560" lon="9.8344990">
	<ele>1554.40</ele>
	<time>2023-11-18T11:48:01.000Z</time>
</trkpt>
<trkpt lat="45.8899540" lon="9.8344920">
	<ele>1554.00</ele>
	<time>2023-11-18T11:48:02.000Z</time>
</trkpt>
<trkpt lat="45.8899520" lon="9.8344850">
	<ele>1553.60</ele>
	<time>2023-11-18T11:48:03.000Z</time>
</trkpt>
<trkpt lat="45.8899490" lon="9.8344730">
	<ele>1553.60</ele>
	<time>2023-11-18T11:48:04.000Z</time>
</trkpt>
<trkpt lat="45.8899480" lon="9.8344630">
	<ele>1553.40</ele>
	<time>2023-11-18T11:48:05.000Z</time>
</trkpt>
<trkpt lat="45.8899450" lon="9.8344540">
	<ele>1553.20</ele>
	<time>2023-11-18T11:48:06.000Z</time>
</trkpt>
<trkpt lat="45.8899410" lon="9.8344490">
	<ele>1553.20</ele>
	<time>2023-11-18T11:48:07.000Z</time>
</trkpt>
<trkpt lat="45.8899380" lon="9.8344430">
	<ele>1553.00</ele>
	<time>2023-11-18T11:48:08.000Z</time>
</trkpt>
<trkpt lat="45.8899320" lon="9.8344420">
	<ele>1552.60</ele>
	<time>2023-11-18T11:48:09.000Z</time>
</trkpt>
<trkpt lat="45.8899270" lon="9.8344390">
	<ele>1552.40</ele>
	<time>2023-11-18T11:48:10.000Z</time>
</trkpt>
<trkpt lat="45.8899230" lon="9.8344370">
	<ele>1552.20</ele>
	<time>2023-11-18T11:48:11.000Z</time>
</trkpt>
<trkpt lat="45.8899190" lon="9.8344340">
	<ele>1552.00</ele>
	<time>2023-11-18T11:48:12.000Z</time>
</trkpt>
<trkpt lat="45.8899130" lon="9.8344340">
	<ele>1551.60</ele>
	<time>2023-11-18T11:48:13.000Z</time>
</trkpt>
<trkpt lat="45.8899090" lon="9.8344290">
	<ele>1551.40</ele>
	<time>2023-11-18T11:48:14.000Z</time>
</trkpt>
<trkpt lat="45.8899070" lon="9.8344220">
	<ele>1551.20</ele>
	<time>2023-11-18T11:48:15.000Z</time>
</trkpt>
<trkpt lat="45.8899050" lon="9.8344150">
	<ele>1551.00</ele>
	<time>2023-11-18T11:48:16.000Z</time>
</trkpt>
<trkpt lat="45.8899050" lon="9.8344100">
	<ele>1550.80</ele>
	<time>2023-11-18T11:48:17.000Z</time>
</trkpt>
<trkpt lat="45.8899040" lon="9.8344000">
	<ele>1550.60</ele>
	<time>2023-11-18T11:48:18.000Z</time>
</trkpt>
<trkpt lat="45.8899030" lon="9.8343910">
	<ele>1550.20</ele>
	<time>2023-11-18T11:48:19.000Z</time>
</trkpt>
<trkpt lat="45.8898990" lon="9.8343860">
	<ele>1550.00</ele>
	<time>2023-11-18T11:48:20.000Z</time>
</trkpt>
<trkpt lat="45.8898900" lon="9.8343800">
	<ele>1549.80</ele>
	<time>2023-11-18T11:48:21.000Z</time>
</trkpt>
<trkpt lat="45.8898840" lon="9.8343750">
	<ele>1549.60</ele>
	<time>2023-11-18T11:48:22.000Z</time>
</trkpt>
<trkpt lat="45.8898810" lon="9.8343650">
	<ele>1549.20</ele>
	<time>2023-11-18T11:48:23.000Z</time>
</trkpt>
<trkpt lat="45.8898790" lon="9.8343600">
	<ele>1549.00</ele>
	<time>2023-11-18T11:48:24.000Z</time>
</trkpt>
<trkpt lat="45.8898760" lon="9.8343550">
	<ele>1548.80</ele>
	<time>2023-11-18T11:48:25.000Z</time>
</trkpt>
<trkpt lat="45.8898730" lon="9.8343490">
	<ele>1548.60</ele>
	<time>2023-11-18T11:48:26.000Z</time>
</trkpt>
<trkpt lat="45.8898670" lon="9.8343450">
	<ele>1548.40</ele>
	<time>2023-11-18T11:48:27.000Z</time>
</trkpt>
<trkpt lat="45.8898600" lon="9.8343460">
	<ele>1548.20</ele>
	<time>2023-11-18T11:48:28.000Z</time>
</trkpt>
<trkpt lat="45.8898580" lon="9.8343480">
	<ele>1547.80</ele>
	<time>2023-11-18T11:48:29.000Z</time>
</trkpt>
<trkpt lat="45.8898560" lon="9.8343500">
	<ele>1547.40</ele>
	<time>2023-11-18T11:48:30.000Z</time>
</trkpt>
<trkpt lat="45.8898520" lon="9.8343540">
	<ele>1547.20</ele>
	<time>2023-11-18T11:48:31.000Z</time>
</trkpt>
<trkpt lat="45.8898490" lon="9.8343530">
	<ele>1547.00</ele>
	<time>2023-11-18T11:48:32.000Z</time>
</trkpt>
<trkpt lat="45.8898420" lon="9.8343500">
	<ele>1546.80</ele>
	<time>2023-11-18T11:48:33.000Z</time>
</trkpt>
<trkpt lat="45.8898360" lon="9.8343430">
	<ele>1546.60</ele>
	<time>2023-11-18T11:48:34.000Z</time>
</trkpt>
<trkpt lat="45.8898280" lon="9.8343410">
	<ele>1546.40</ele>
	<time>2023-11-18T11:48:35.000Z</time>
</trkpt>
<trkpt lat="45.8898210" lon="9.8343360">
	<ele>1546.20</ele>
	<time>2023-11-18T11:48:36.000Z</time>
</trkpt>
<trkpt lat="45.8898150" lon="9.8343290">
	<ele>1545.80</ele>
	<time>2023-11-18T11:48:37.000Z</time>
</trkpt>
<trkpt lat="45.8898110" lon="9.8343210">
	<ele>1545.40</ele>
	<time>2023-11-18T11:48:38.000Z</time>
</trkpt>
<trkpt lat="45.8898060" lon="9.8343130">
	<ele>1545.20</ele>
	<time>2023-11-18T11:48:39.000Z</time>
</trkpt>
<trkpt lat="45.8898020" lon="9.8343040">
	<ele>1545.20</ele>
	<time>2023-11-18T11:48:40.000Z</time>
</trkpt>
<trkpt lat="45.8897970" lon="9.8342940">
	<ele>1544.80</ele>
	<time>2023-11-18T11:48:41.000Z</time>
</trkpt>
<trkpt lat="45.8897910" lon="9.8342840">
	<ele>1544.60</ele>
	<time>2023-11-18T11:48:42.000Z</time>
</trkpt>
<trkpt lat="45.8897880" lon="9.8342740">
	<ele>1544.20</ele>
	<time>2023-11-18T11:48:43.000Z</time>
</trkpt>
<trkpt lat="45.8897830" lon="9.8342690">
	<ele>1543.60</ele>
	<time>2023-11-18T11:48:44.000Z</time>
</trkpt>
<trkpt lat="45.8897760" lon="9.8342630">
	<ele>1543.40</ele>
	<time>2023-11-18T11:48:45.000Z</time>
</trkpt>
<trkpt lat="45.8897700" lon="9.8342580">
	<ele>1543.00</ele>
	<time>2023-11-18T11:48:46.000Z</time>
</trkpt>
<trkpt lat="45.8897650" lon="9.8342560">
	<ele>1542.60</ele>
	<time>2023-11-18T11:48:47.000Z</time>
</trkpt>
<trkpt lat="45.8897630" lon="9.8342540">
	<ele>1542.20</ele>
	<time>2023-11-18T11:48:48.000Z</time>
</trkpt>
<trkpt lat="45.8897600" lon="9.8342470">
	<ele>1542.00</ele>
	<time>2023-11-18T11:48:49.000Z</time>
</trkpt>
<trkpt lat="45.8897530" lon="9.8342420">
	<ele>1541.60</ele>
	<time>2023-11-18T11:48:50.000Z</time>
</trkpt>
<trkpt lat="45.8897480" lon="9.8342350">
	<ele>1541.20</ele>
	<time>2023-11-18T11:48:51.000Z</time>
</trkpt>
<trkpt lat="45.8897450" lon="9.8342320">
	<ele>1541.00</ele>
	<time>2023-11-18T11:48:52.000Z</time>
</trkpt>
<trkpt lat="45.8897400" lon="9.8342330">
	<ele>1540.80</ele>
	<time>2023-11-18T11:48:53.000Z</time>
</trkpt>
<trkpt lat="45.8897370" lon="9.8342310">
	<ele>1540.60</ele>
	<time>2023-11-18T11:48:54.000Z</time>
</trkpt>
<trkpt lat="45.8897330" lon="9.8342320">
	<ele>1540.40</ele>
	<time>2023-11-18T11:48:55.000Z</time>
</trkpt>
<trkpt lat="45.8897320" lon="9.8342310">
	<ele>1540.00</ele>
	<time>2023-11-18T11:48:56.000Z</time>
</trkpt>
<trkpt lat="45.8897250" lon="9.8342230">
	<ele>1539.60</ele>
	<time>2023-11-18T11:48:57.000Z</time>
</trkpt>
<trkpt lat="45.8897200" lon="9.8342170">
	<ele>1539.40</ele>
	<time>2023-11-18T11:48:58.000Z</time>
</trkpt>
<trkpt lat="45.8897140" lon="9.8342070">
	<ele>1539.20</ele>
	<time>2023-11-18T11:48:59.000Z</time>
</trkpt>
<trkpt lat="45.8897080" lon="9.8341990">
	<ele>1538.80</ele>
	<time>2023-11-18T11:49:00.000Z</time>
</trkpt>
<trkpt lat="45.8897030" lon="9.8341940">
	<ele>1538.60</ele>
	<time>2023-11-18T11:49:01.000Z</time>
</trkpt>
<trkpt lat="45.8897000" lon="9.8341910">
	<ele>1538.40</ele>
	<time>2023-11-18T11:49:02.000Z</time>
</trkpt>
<trkpt lat="45.8896970" lon="9.8341830">
	<ele>1538.00</ele>
	<time>2023-11-18T11:49:03.000Z</time>
</trkpt>
<trkpt lat="45.8896960" lon="9.8341750">
	<ele>1538.00</ele>
	<time>2023-11-18T11:49:04.000Z</time>
</trkpt>
<trkpt lat="45.8896930" lon="9.8341660">
	<ele>1537.60</ele>
	<time>2023-11-18T11:49:05.000Z</time>
</trkpt>
<trkpt lat="45.8896900" lon="9.8341540">
	<ele>1537.40</ele>
	<time>2023-11-18T11:49:06.000Z</time>
</trkpt>
<trkpt lat="45.8896880" lon="9.8341450">
	<ele>1537.00</ele>
	<time>2023-11-18T11:49:07.000Z</time>
</trkpt>
<trkpt lat="45.8896830" lon="9.8341360">
	<ele>1536.80</ele>
	<time>2023-11-18T11:49:08.000Z</time>
</trkpt>
<trkpt lat="45.8896790" lon="9.8341250">
	<ele>1536.60</ele>
	<time>2023-11-18T11:49:09.000Z</time>
</trkpt>
<trkpt lat="45.8896750" lon="9.8341130">
	<ele>1536.20</ele>
	<time>2023-11-18T11:49:10.000Z</time>
</trkpt>
<trkpt lat="45.8896720" lon="9.8341000">
	<ele>1535.80</ele>
	<time>2023-11-18T11:49:11.000Z</time>
</trkpt>
<trkpt lat="45.8896670" lon="9.8340890">
	<ele>1535.60</ele>
	<time>2023-11-18T11:49:12.000Z</time>
</trkpt>
<trkpt lat="45.8896600" lon="9.8340780">
	<ele>1535.20</ele>
	<time>2023-11-18T11:49:13.000Z</time>
</trkpt>
<trkpt lat="45.8896540" lon="9.8340670">
	<ele>1535.00</ele>
	<time>2023-11-18T11:49:14.000Z</time>
</trkpt>
<trkpt lat="45.8896510" lon="9.8340560">
	<ele>1535.00</ele>
	<time>2023-11-18T11:49:15.000Z</time>
</trkpt>
<trkpt lat="45.8896460" lon="9.8340490">
	<ele>1534.40</ele>
	<time>2023-11-18T11:49:16.000Z</time>
</trkpt>
<trkpt lat="45.8896400" lon="9.8340410">
	<ele>1534.20</ele>
	<time>2023-11-18T11:49:17.000Z</time>
</trkpt>
<trkpt lat="45.8896360" lon="9.8340330">
	<ele>1534.00</ele>
	<time>2023-11-18T11:49:18.000Z</time>
</trkpt>
<trkpt lat="45.8896290" lon="9.8340230">
	<ele>1533.60</ele>
	<time>2023-11-18T11:49:19.000Z</time>
</trkpt>
<trkpt lat="45.8896220" lon="9.8340120">
	<ele>1533.20</ele>
	<time>2023-11-18T11:49:20.000Z</time>
</trkpt>
<trkpt lat="45.8896150" lon="9.8340090">
	<ele>1533.00</ele>
	<time>2023-11-18T11:49:21.000Z</time>
</trkpt>
<trkpt lat="45.8896120" lon="9.8340100">
	<ele>1532.80</ele>
	<time>2023-11-18T11:49:22.000Z</time>
</trkpt>
<trkpt lat="45.8896110" lon="9.8340080">
	<ele>1532.40</ele>
	<time>2023-11-18T11:49:23.000Z</time>
</trkpt>
<trkpt lat="45.8896100" lon="9.8340030">
	<ele>1532.00</ele>
	<time>2023-11-18T11:49:24.000Z</time>
</trkpt>
<trkpt lat="45.8896100" lon="9.8339910">
	<ele>1531.60</ele>
	<time>2023-11-18T11:49:25.000Z</time>
</trkpt>
<trkpt lat="45.8896090" lon="9.8339810">
	<ele>1531.40</ele>
	<time>2023-11-18T11:49:26.000Z</time>
</trkpt>
<trkpt lat="45.8896040" lon="9.8339740">
	<ele>1531.20</ele>
	<time>2023-11-18T11:49:27.000Z</time>
</trkpt>
<trkpt lat="45.8895980" lon="9.8339680">
	<ele>1531.00</ele>
	<time>2023-11-18T11:49:28.000Z</time>
</trkpt>
<trkpt lat="45.8895910" lon="9.8339590">
	<ele>1530.80</ele>
	<time>2023-11-18T11:49:29.000Z</time>
</trkpt>
<trkpt lat="45.8895870" lon="9.8339530">
	<ele>1530.60</ele>
	<time>2023-11-18T11:49:30.000Z</time>
</trkpt>
<trkpt lat="45.8895780" lon="9.8339460">
	<ele>1530.20</ele>
	<time>2023-11-18T11:49:31.000Z</time>
</trkpt>
<trkpt lat="45.8895710" lon="9.8339410">
	<ele>1530.00</ele>
	<time>2023-11-18T11:49:32.000Z</time>
</trkpt>
<trkpt lat="45.8895650" lon="9.8339380">
	<ele>1529.80</ele>
	<time>2023-11-18T11:49:33.000Z</time>
</trkpt>
<trkpt lat="45.8895610" lon="9.8339330">
	<ele>1529.40</ele>
	<time>2023-11-18T11:49:34.000Z</time>
</trkpt>
<trkpt lat="45.8895550" lon="9.8339260">
	<ele>1529.20</ele>
	<time>2023-11-18T11:49:35.000Z</time>
</trkpt>
<trkpt lat="45.8895490" lon="9.8339180">
	<ele>1529.20</ele>
	<time>2023-11-18T11:49:36.000Z</time>
</trkpt>
<trkpt lat="45.8895460" lon="9.8339110">
	<ele>1528.60</ele>
	<time>2023-11-18T11:49:37.000Z</time>
</trkpt>
<trkpt lat="45.8895420" lon="9.8339100">
	<ele>1528.40</ele>
	<time>2023-11-18T11:49:38.000Z</time>
</trkpt>
<trkpt lat="45.8895390" lon="9.8339070">
	<ele>1528.20</ele>
	<time>2023-11-18T11:49:39.000Z</time>
</trkpt>
<trkpt lat="45.8895380" lon="9.8339000">
	<ele>1528.00</ele>
	<time>2023-11-18T11:49:40.000Z</time>
</trkpt>
<trkpt lat="45.8895360" lon="9.8338890">
	<ele>1527.80</ele>
	<time>2023-11-18T11:49:41.000Z</time>
</trkpt>
<trkpt lat="45.8895290" lon="9.8338810">
	<ele>1527.20</ele>
	<time>2023-11-18T11:49:42.000Z</time>
</trkpt>
<trkpt lat="45.8895240" lon="9.8338760">
	<ele>1527.00</ele>
	<time>2023-11-18T11:49:43.000Z</time>
</trkpt>
<trkpt lat="45.8895180" lon="9.8338720">
	<ele>1526.60</ele>
	<time>2023-11-18T11:49:44.000Z</time>
</trkpt>
<trkpt lat="45.8895120" lon="9.8338680">
	<ele>1526.20</ele>
	<time>2023-11-18T11:49:45.000Z</time>
</trkpt>
<trkpt lat="45.8895060" lon="9.8338640">
	<ele>1526.00</ele>
	<time>2023-11-18T11:49:46.000Z</time>
</trkpt>
<trkpt lat="45.8895010" lon="9.8338580">
	<ele>1525.80</ele>
	<time>2023-11-18T11:49:47.000Z</time>
</trkpt>
<trkpt lat="45.8894970" lon="9.8338530">
	<ele>1525.60</ele>
	<time>2023-11-18T11:49:48.000Z</time>
</trkpt>
<trkpt lat="45.8894940" lon="9.8338520">
	<ele>1525.20</ele>
	<time>2023-11-18T11:49:49.000Z</time>
</trkpt>
<trkpt lat="45.8894890" lon="9.8338490">
	<ele>1525.00</ele>
	<time>2023-11-18T11:49:50.000Z</time>
</trkpt>
<trkpt lat="45.8894840" lon="9.8338440">
	<ele>1524.80</ele>
	<time>2023-11-18T11:49:51.000Z</time>
</trkpt>
<trkpt lat="45.8894790" lon="9.8338380">
	<ele>1524.60</ele>
	<time>2023-11-18T11:49:52.000Z</time>
</trkpt>
<trkpt lat="45.8894730" lon="9.8338350">
	<ele>1524.20</ele>
	<time>2023-11-18T11:49:53.000Z</time>
</trkpt>
<trkpt lat="45.8894680" lon="9.8338310">
	<ele>1524.00</ele>
	<time>2023-11-18T11:49:54.000Z</time>
</trkpt>
<trkpt lat="45.8894670" lon="9.8338200">
	<ele>1523.60</ele>
	<time>2023-11-18T11:49:55.000Z</time>
</trkpt>
<trkpt lat="45.8894650" lon="9.8338100">
	<ele>1523.40</ele>
	<time>2023-11-18T11:49:56.000Z</time>
</trkpt>
<trkpt lat="45.8894640" lon="9.8337990">
	<ele>1523.00</ele>
	<time>2023-11-18T11:49:57.000Z</time>
</trkpt>
<trkpt lat="45.8894620" lon="9.8337870">
	<ele>1523.00</ele>
	<time>2023-11-18T11:49:58.000Z</time>
</trkpt>
<trkpt lat="45.8894590" lon="9.8337760">
	<ele>1522.60</ele>
	<time>2023-11-18T11:49:59.000Z</time>
</trkpt>
<trkpt lat="45.8894560" lon="9.8337690">
	<ele>1522.40</ele>
	<time>2023-11-18T11:50:00.000Z</time>
</trkpt>
<trkpt lat="45.8894550" lon="9.8337600">
	<ele>1522.20</ele>
	<time>2023-11-18T11:50:01.000Z</time>
</trkpt>
<trkpt lat="45.8894520" lon="9.8337520">
	<ele>1521.80</ele>
	<time>2023-11-18T11:50:02.000Z</time>
</trkpt>
<trkpt lat="45.8894480" lon="9.8337450">
	<ele>1521.60</ele>
	<time>2023-11-18T11:50:03.000Z</time>
</trkpt>
<trkpt lat="45.8894450" lon="9.8337370">
	<ele>1521.40</ele>
	<time>2023-11-18T11:50:04.000Z</time>
</trkpt>
<trkpt lat="45.8894380" lon="9.8337300">
	<ele>1521.20</ele>
	<time>2023-11-18T11:50:05.000Z</time>
</trkpt>
<trkpt lat="45.8894310" lon="9.8337290">
	<ele>1521.20</ele>
	<time>2023-11-18T11:50:06.000Z</time>
</trkpt>
<trkpt lat="45.8894250" lon="9.8337350">
	<ele>1520.80</ele>
	<time>2023-11-18T11:50:07.000Z</time>
</trkpt>
<trkpt lat="45.8894220" lon="9.8337410">
	<ele>1520.20</ele>
	<time>2023-11-18T11:50:08.000Z</time>
</trkpt>
<trkpt lat="45.8894220" lon="9.8337500">
	<ele>1519.80</ele>
	<time>2023-11-18T11:50:09.000Z</time>
</trkpt>
<trkpt lat="45.8894220" lon="9.8337600">
	<ele>1519.60</ele>
	<time>2023-11-18T11:50:10.000Z</time>
</trkpt>
<trkpt lat="45.8894200" lon="9.8337700">
	<ele>1519.40</ele>
	<time>2023-11-18T11:50:11.000Z</time>
</trkpt>
<trkpt lat="45.8894170" lon="9.8337760">
	<ele>1519.20</ele>
	<time>2023-11-18T11:50:12.000Z</time>
</trkpt>
<trkpt lat="45.8894130" lon="9.8337800">
	<ele>1519.00</ele>
	<time>2023-11-18T11:50:13.000Z</time>
</trkpt>
<trkpt lat="45.8894080" lon="9.8337800">
	<ele>1519.00</ele>
	<time>2023-11-18T11:50:14.000Z</time>
</trkpt>
<trkpt lat="45.8894030" lon="9.8337750">
	<ele>1518.80</ele>
	<time>2023-11-18T11:50:15.000Z</time>
</trkpt>
<trkpt lat="45.8893990" lon="9.8337680">
	<ele>1518.80</ele>
	<time>2023-11-18T11:50:16.000Z</time>
</trkpt>
<trkpt lat="45.8893960" lon="9.8337580">
	<ele>1518.60</ele>
	<time>2023-11-18T11:50:17.000Z</time>
</trkpt>
<trkpt lat="45.8893920" lon="9.8337520">
	<ele>1518.40</ele>
	<time>2023-11-18T11:50:18.000Z</time>
</trkpt>
<trkpt lat="45.8893890" lon="9.8337470">
	<ele>1518.20</ele>
	<time>2023-11-18T11:50:19.000Z</time>
</trkpt>
<trkpt lat="45.8893860" lon="9.8337430">
	<ele>1518.00</ele>
	<time>2023-11-18T11:50:20.000Z</time>
</trkpt>
<trkpt lat="45.8893840" lon="9.8337370">
	<ele>1517.80</ele>
	<time>2023-11-18T11:50:21.000Z</time>
</trkpt>
<trkpt lat="45.8893820" lon="9.8337300">
	<ele>1517.60</ele>
	<time>2023-11-18T11:50:22.000Z</time>
</trkpt>
<trkpt lat="45.8893820" lon="9.8337210">
	<ele>1517.40</ele>
	<time>2023-11-18T11:50:23.000Z</time>
</trkpt>
<trkpt lat="45.8893810" lon="9.8337140">
	<ele>1516.80</ele>
	<time>2023-11-18T11:50:24.000Z</time>
</trkpt>
<trkpt lat="45.8893790" lon="9.8337050">
	<ele>1516.60</ele>
	<time>2023-11-18T11:50:25.000Z</time>
</trkpt>
<trkpt lat="45.8893780" lon="9.8336960">
	<ele>1516.40</ele>
	<time>2023-11-18T11:50:26.000Z</time>
</trkpt>
<trkpt lat="45.8893770" lon="9.8336850">
	<ele>1516.20</ele>
	<time>2023-11-18T11:50:27.000Z</time>
</trkpt>
<trkpt lat="45.8893740" lon="9.8336750">
	<ele>1516.20</ele>
	<time>2023-11-18T11:50:28.000Z</time>
</trkpt>
<trkpt lat="45.8893730" lon="9.8336630">
	<ele>1516.00</ele>
	<time>2023-11-18T11:50:29.000Z</time>
</trkpt>
<trkpt lat="45.8893730" lon="9.8336490">
	<ele>1515.80</ele>
	<time>2023-11-18T11:50:30.000Z</time>
</trkpt>
<trkpt lat="45.8893770" lon="9.8336340">
	<ele>1515.60</ele>
	<time>2023-11-18T11:50:31.000Z</time>
</trkpt>
<trkpt lat="45.8893770" lon="9.8336220">
	<ele>1515.40</ele>
	<time>2023-11-18T11:50:32.000Z</time>
</trkpt>
<trkpt lat="45.8893750" lon="9.8336130">
	<ele>1515.00</ele>
	<time>2023-11-18T11:50:33.000Z</time>
</trkpt>
<trkpt lat="45.8893740" lon="9.8336050">
	<ele>1515.00</ele>
	<time>2023-11-18T11:50:34.000Z</time>
</trkpt>
<trkpt lat="45.8893710" lon="9.8335960">
	<ele>1514.60</ele>
	<time>2023-11-18T11:50:35.000Z</time>
</trkpt>
<trkpt lat="45.8893660" lon="9.8335900">
	<ele>1514.40</ele>
	<time>2023-11-18T11:50:36.000Z</time>
</trkpt>
<trkpt lat="45.8893650" lon="9.8335830">
	<ele>1514.40</ele>
	<time>2023-11-18T11:50:37.000Z</time>
</trkpt>
<trkpt lat="45.8893620" lon="9.8335750">
	<ele>1514.00</ele>
	<time>2023-11-18T11:50:38.000Z</time>
</trkpt>
<trkpt lat="45.8893570" lon="9.8335680">
	<ele>1513.60</ele>
	<time>2023-11-18T11:50:39.000Z</time>
</trkpt>
<trkpt lat="45.8893540" lon="9.8335550">
	<ele>1513.40</ele>
	<time>2023-11-18T11:50:40.000Z</time>
</trkpt>
<trkpt lat="45.8893500" lon="9.8335450">
	<ele>1513.00</ele>
	<time>2023-11-18T11:50:41.000Z</time>
</trkpt>
<trkpt lat="45.8893430" lon="9.8335370">
	<ele>1512.80</ele>
	<time>2023-11-18T11:50:42.000Z</time>
</trkpt>
<trkpt lat="45.8893370" lon="9.8335300">
	<ele>1512.60</ele>
	<time>2023-11-18T11:50:43.000Z</time>
</trkpt>
<trkpt lat="45.8893340" lon="9.8335220">
	<ele>1512.40</ele>
	<time>2023-11-18T11:50:44.000Z</time>
</trkpt>
<trkpt lat="45.8893350" lon="9.8335120">
	<ele>1512.20</ele>
	<time>2023-11-18T11:50:45.000Z</time>
</trkpt>
<trkpt lat="45.8893350" lon="9.8334990">
	<ele>1512.00</ele>
	<time>2023-11-18T11:50:46.000Z</time>
</trkpt>
<trkpt lat="45.8893330" lon="9.8334880">
	<ele>1511.80</ele>
	<time>2023-11-18T11:50:47.000Z</time>
</trkpt>
<trkpt lat="45.8893290" lon="9.8334800">
	<ele>1511.40</ele>
	<time>2023-11-18T11:50:48.000Z</time>
</trkpt>
<trkpt lat="45.8893230" lon="9.8334720">
	<ele>1511.20</ele>
	<time>2023-11-18T11:50:49.000Z</time>
</trkpt>
<trkpt lat="45.8893170" lon="9.8334660">
	<ele>1511.00</ele>
	<time>2023-11-18T11:50:50.000Z</time>
</trkpt>
<trkpt lat="45.8893130" lon="9.8334630">
	<ele>1510.80</ele>
	<time>2023-11-18T11:50:51.000Z</time>
</trkpt>
<trkpt lat="45.8893110" lon="9.8334620">
	<ele>1510.80</ele>
	<time>2023-11-18T11:50:52.000Z</time>
</trkpt>
<trkpt lat="45.8893090" lon="9.8334630">
	<ele>1510.60</ele>
	<time>2023-11-18T11:50:53.000Z</time>
</trkpt>
<trkpt lat="45.8893070" lon="9.8334640">
	<ele>1510.40</ele>
	<time>2023-11-18T11:50:54.000Z</time>
</trkpt>
<trkpt lat="45.8893060" lon="9.8334640">
	<ele>1510.20</ele>
	<time>2023-11-18T11:50:55.000Z</time>
</trkpt>
<trkpt lat="45.8893050" lon="9.8334650">
	<ele>1510.20</ele>
	<time>2023-11-18T11:50:56.000Z</time>
</trkpt>
<trkpt lat="45.8893050" lon="9.8334680">
	<ele>1510.00</ele>
	<time>2023-11-18T11:50:57.000Z</time>
</trkpt>
<trkpt lat="45.8893040" lon="9.8334690">
	<ele>1510.00</ele>
	<time>2023-11-18T11:50:58.000Z</time>
</trkpt>
<trkpt lat="45.8893030" lon="9.8334700">
	<ele>1510.00</ele>
	<time>2023-11-18T11:50:59.000Z</time>
</trkpt>
<trkpt lat="45.8893030" lon="9.8334710">
	<ele>1509.80</ele>
	<time>2023-11-18T11:51:00.000Z</time>
</trkpt>
<trkpt lat="45.8893030" lon="9.8334710">
	<ele>1509.80</ele>
	<time>2023-11-18T11:51:01.000Z</time>
</trkpt>
<trkpt lat="45.8893030" lon="9.8334710">
	<ele>1509.80</ele>
	<time>2023-11-18T11:51:02.000Z</time>
</trkpt>
<trkpt lat="45.8893030" lon="9.8334710">
	<ele>1509.80</ele>
	<time>2023-11-18T11:51:03.000Z</time>
</trkpt>
<trkpt lat="45.8893030" lon="9.8334710">
	<ele>1509.80</ele>
	<time>2023-11-18T11:51:04.000Z</time>
</trkpt>
<trkpt lat="45.8893030" lon="9.8334710">
	<ele>1509.80</ele>
	<time>2023-11-18T11:51:05.000Z</time>
</trkpt>
<trkpt lat="45.8893030" lon="9.8334710">
	<ele>1509.80</ele>
	<time>2023-11-18T11:51:06.000Z</time>
</trkpt>
<trkpt lat="45.8893030" lon="9.8334710">
	<ele>1509.80</ele>
	<time>2023-11-18T11:51:07.000Z</time>
</trkpt>
<trkpt lat="45.8893030" lon="9.8334710">
	<ele>1509.80</ele>
	<time>2023-11-18T11:51:08.000Z</time>
</trkpt>
<trkpt lat="45.8893030" lon="9.8334710">
	<ele>1509.80</ele>
	<time>2023-11-18T11:51:09.000Z</time>
</trkpt>
<trkpt lat="45.8893030" lon="9.8334710">
	<ele>1509.80</ele>
	<time>2023-11-18T11:51:10.000Z</time>
</trkpt>
<trkpt lat="45.8893030" lon="9.8334710">
	<ele>1509.80</ele>
	<time>2023-11-18T11:51:11.000Z</time>
</trkpt>
<trkpt lat="45.8893030" lon="9.8334710">
	<ele>1509.60</ele>
	<time>2023-11-18T11:51:12.000Z</time>
</trkpt>
<trkpt lat="45.8893030" lon="9.8334710">
	<ele>1509.60</ele>
	<time>2023-11-18T11:51:13.000Z</time>
</trkpt>
<trkpt lat="45.8893030" lon="9.8334710">
	<ele>1509.60</ele>
	<time>2023-11-18T11:51:14.000Z</time>
</trkpt>
<trkpt lat="45.8893020" lon="9.8334660">
	<ele>1509.40</ele>
	<time>2023-11-18T11:51:15.000Z</time>
</trkpt>
<trkpt lat="45.8892950" lon="9.8334580">
	<ele>1509.40</ele>
	<time>2023-11-18T11:51:16.000Z</time>
</trkpt>
<trkpt lat="45.8892910" lon="9.8334480">
	<ele>1509.00</ele>
	<time>2023-11-18T11:51:17.000Z</time>
</trkpt>
<trkpt lat="45.8892880" lon="9.8334400">
	<ele>1509.00</ele>
	<time>2023-11-18T11:51:18.000Z</time>
</trkpt>
<trkpt lat="45.8892860" lon="9.8334320">
	<ele>1508.80</ele>
	<time>2023-11-18T11:51:19.000Z</time>
</trkpt>
<trkpt lat="45.8892830" lon="9.8334240">
	<ele>1508.60</ele>
	<time>2023-11-18T11:51:20.000Z</time>
</trkpt>
<trkpt lat="45.8892800" lon="9.8334110">
	<ele>1508.20</ele>
	<time>2023-11-18T11:51:21.000Z</time>
</trkpt>
<trkpt lat="45.8892750" lon="9.8333970">
	<ele>1508.00</ele>
	<time>2023-11-18T11:51:22.000Z</time>
</trkpt>
<trkpt lat="45.8892720" lon="9.8333850">
	<ele>1508.00</ele>
	<time>2023-11-18T11:51:23.000Z</time>
</trkpt>
<trkpt lat="45.8892690" lon="9.8333710">
	<ele>1507.60</ele>
	<time>2023-11-18T11:51:24.000Z</time>
</trkpt>
<trkpt lat="45.8892650" lon="9.8333650">
	<ele>1507.20</ele>
	<time>2023-11-18T11:51:25.000Z</time>
</trkpt>
<trkpt lat="45.8892620" lon="9.8333600">
	<ele>1507.00</ele>
	<time>2023-11-18T11:51:26.000Z</time>
</trkpt>
<trkpt lat="45.8892580" lon="9.8333500">
	<ele>1506.80</ele>
	<time>2023-11-18T11:51:27.000Z</time>
</trkpt>
<trkpt lat="45.8892550" lon="9.8333410">
	<ele>1506.60</ele>
	<time>2023-11-18T11:51:28.000Z</time>
</trkpt>
<trkpt lat="45.8892520" lon="9.8333360">
	<ele>1506.40</ele>
	<time>2023-11-18T11:51:29.000Z</time>
</trkpt>
<trkpt lat="45.8892490" lon="9.8333300">
	<ele>1506.00</ele>
	<time>2023-11-18T11:51:30.000Z</time>
</trkpt>
<trkpt lat="45.8892460" lon="9.8333180">
	<ele>1505.60</ele>
	<time>2023-11-18T11:51:31.000Z</time>
</trkpt>
<trkpt lat="45.8892440" lon="9.8333090">
	<ele>1505.40</ele>
	<time>2023-11-18T11:51:32.000Z</time>
</trkpt>
<trkpt lat="45.8892410" lon="9.8333010">
	<ele>1505.20</ele>
	<time>2023-11-18T11:51:33.000Z</time>
</trkpt>
<trkpt lat="45.8892380" lon="9.8332950">
	<ele>1505.00</ele>
	<time>2023-11-18T11:51:34.000Z</time>
</trkpt>
<trkpt lat="45.8892380" lon="9.8332850">
	<ele>1504.80</ele>
	<time>2023-11-18T11:51:35.000Z</time>
</trkpt>
<trkpt lat="45.8892360" lon="9.8332770">
	<ele>1504.40</ele>
	<time>2023-11-18T11:51:36.000Z</time>
</trkpt>
<trkpt lat="45.8892330" lon="9.8332690">
	<ele>1504.20</ele>
	<time>2023-11-18T11:51:37.000Z</time>
</trkpt>
<trkpt lat="45.8892300" lon="9.8332660">
	<ele>1504.00</ele>
	<time>2023-11-18T11:51:38.000Z</time>
</trkpt>
<trkpt lat="45.8892260" lon="9.8332600">
	<ele>1503.80</ele>
	<time>2023-11-18T11:51:39.000Z</time>
</trkpt>
<trkpt lat="45.8892210" lon="9.8332540">
	<ele>1503.40</ele>
	<time>2023-11-18T11:51:40.000Z</time>
</trkpt>
<trkpt lat="45.8892170" lon="9.8332470">
	<ele>1503.20</ele>
	<time>2023-11-18T11:51:41.000Z</time>
</trkpt>
<trkpt lat="45.8892120" lon="9.8332420">
	<ele>1503.00</ele>
	<time>2023-11-18T11:51:42.000Z</time>
</trkpt>
<trkpt lat="45.8892050" lon="9.8332380">
	<ele>1503.00</ele>
	<time>2023-11-18T11:51:43.000Z</time>
</trkpt>
<trkpt lat="45.8892020" lon="9.8332350">
	<ele>1502.60</ele>
	<time>2023-11-18T11:51:44.000Z</time>
</trkpt>
<trkpt lat="45.8891970" lon="9.8332290">
	<ele>1502.40</ele>
	<time>2023-11-18T11:51:45.000Z</time>
</trkpt>
<trkpt lat="45.8891920" lon="9.8332260">
	<ele>1502.00</ele>
	<time>2023-11-18T11:51:46.000Z</time>
</trkpt>
<trkpt lat="45.8891850" lon="9.8332200">
	<ele>1501.60</ele>
	<time>2023-11-18T11:51:47.000Z</time>
</trkpt>
<trkpt lat="45.8891770" lon="9.8332150">
	<ele>1501.40</ele>
	<time>2023-11-18T11:51:48.000Z</time>
</trkpt>
<trkpt lat="45.8891710" lon="9.8332080">
	<ele>1501.20</ele>
	<time>2023-11-18T11:51:49.000Z</time>
</trkpt>
<trkpt lat="45.8891670" lon="9.8332000">
	<ele>1500.80</ele>
	<time>2023-11-18T11:51:50.000Z</time>
</trkpt>
<trkpt lat="45.8891680" lon="9.8331870">
	<ele>1500.60</ele>
	<time>2023-11-18T11:51:51.000Z</time>
</trkpt>
<trkpt lat="45.8891700" lon="9.8331780">
	<ele>1500.20</ele>
	<time>2023-11-18T11:51:52.000Z</time>
</trkpt>
<trkpt lat="45.8891690" lon="9.8331700">
	<ele>1499.80</ele>
	<time>2023-11-18T11:51:53.000Z</time>
</trkpt>
<trkpt lat="45.8891660" lon="9.8331670">
	<ele>1499.60</ele>
	<time>2023-11-18T11:51:54.000Z</time>
</trkpt>
<trkpt lat="45.8891630" lon="9.8331590">
	<ele>1499.40</ele>
	<time>2023-11-18T11:51:55.000Z</time>
</trkpt>
<trkpt lat="45.8891570" lon="9.8331510">
	<ele>1499.20</ele>
	<time>2023-11-18T11:51:56.000Z</time>
</trkpt>
<trkpt lat="45.8891540" lon="9.8331440">
	<ele>1498.80</ele>
	<time>2023-11-18T11:51:57.000Z</time>
</trkpt>
<trkpt lat="45.8891500" lon="9.8331350">
	<ele>1498.60</ele>
	<time>2023-11-18T11:51:58.000Z</time>
</trkpt>
<trkpt lat="45.8891420" lon="9.8331290">
	<ele>1498.40</ele>
	<time>2023-11-18T11:51:59.000Z</time>
</trkpt>
<trkpt lat="45.8891340" lon="9.8331260">
	<ele>1498.20</ele>
	<time>2023-11-18T11:52:00.000Z</time>
</trkpt>
<trkpt lat="45.8891300" lon="9.8331220">
	<ele>1497.80</ele>
	<time>2023-11-18T11:52:01.000Z</time>
</trkpt>
<trkpt lat="45.8891270" lon="9.8331140">
	<ele>1497.60</ele>
	<time>2023-11-18T11:52:02.000Z</time>
</trkpt>
<trkpt lat="45.8891230" lon="9.8331090">
	<ele>1497.20</ele>
	<time>2023-11-18T11:52:03.000Z</time>
</trkpt>
<trkpt lat="45.8891200" lon="9.8331090">
	<ele>1496.80</ele>
	<time>2023-11-18T11:52:04.000Z</time>
</trkpt>
<trkpt lat="45.8891200" lon="9.8331090">
	<ele>1496.60</ele>
	<time>2023-11-18T11:52:05.000Z</time>
</trkpt>
<trkpt lat="45.8891200" lon="9.8331090">
	<ele>1496.20</ele>
	<time>2023-11-18T11:52:06.000Z</time>
</trkpt>
<trkpt lat="45.8891200" lon="9.8331070">
	<ele>1496.00</ele>
	<time>2023-11-18T11:52:07.000Z</time>
</trkpt>
<trkpt lat="45.8891210" lon="9.8331050">
	<ele>1495.80</ele>
	<time>2023-11-18T11:52:08.000Z</time>
</trkpt>
<trkpt lat="45.8891210" lon="9.8331030">
	<ele>1495.80</ele>
	<time>2023-11-18T11:52:09.000Z</time>
</trkpt>
<trkpt lat="45.8891220" lon="9.8331010">
	<ele>1495.80</ele>
	<time>2023-11-18T11:52:10.000Z</time>
</trkpt>
<trkpt lat="45.8891210" lon="9.8331000">
	<ele>1495.80</ele>
	<time>2023-11-18T11:52:11.000Z</time>
</trkpt>
<trkpt lat="45.8891210" lon="9.8330990">
	<ele>1495.80</ele>
	<time>2023-11-18T11:52:12.000Z</time>
</trkpt>
<trkpt lat="45.8891210" lon="9.8330990">
	<ele>1495.80</ele>
	<time>2023-11-18T11:52:13.000Z</time>
</trkpt>
<trkpt lat="45.8891210" lon="9.8330990">
	<ele>1495.80</ele>
	<time>2023-11-18T11:52:14.000Z</time>
</trkpt>
<trkpt lat="45.8891210" lon="9.8330990">
	<ele>1496.00</ele>
	<time>2023-11-18T11:52:15.000Z</time>
</trkpt>
<trkpt lat="45.8891210" lon="9.8330990">
	<ele>1496.20</ele>
	<time>2023-11-18T11:52:16.000Z</time>
</trkpt>
<trkpt lat="45.8891210" lon="9.8330990">
	<ele>1496.20</ele>
	<time>2023-11-18T11:52:17.000Z</time>
</trkpt>
<trkpt lat="45.8891210" lon="9.8330990">
	<ele>1496.20</ele>
	<time>2023-11-18T11:52:18.000Z</time>
</trkpt>
<trkpt lat="45.8891210" lon="9.8330990">
	<ele>1496.20</ele>
	<time>2023-11-18T11:52:19.000Z</time>
</trkpt>
<trkpt lat="45.8891210" lon="9.8330990">
	<ele>1496.20</ele>
	<time>2023-11-18T11:52:20.000Z</time>
</trkpt>
<trkpt lat="45.8891210" lon="9.8330990">
	<ele>1496.20</ele>
	<time>2023-11-18T11:52:21.000Z</time>
</trkpt>
<trkpt lat="45.8891210" lon="9.8330990">
	<ele>1496.20</ele>
	<time>2023-11-18T11:52:22.000Z</time>
</trkpt>
<trkpt lat="45.8891210" lon="9.8330990">
	<ele>1496.20</ele>
	<time>2023-11-18T11:52:23.000Z</time>
</trkpt>
<trkpt lat="45.8891210" lon="9.8330990">
	<ele>1496.20</ele>
	<time>2023-11-18T11:52:24.000Z</time>
</trkpt>
<trkpt lat="45.8891210" lon="9.8330990">
	<ele>1496.20</ele>
	<time>2023-11-18T11:52:25.000Z</time>
</trkpt>
<trkpt lat="45.8891210" lon="9.8330990">
	<ele>1496.20</ele>
	<time>2023-11-18T11:52:26.000Z</time>
</trkpt>
<trkpt lat="45.8891220" lon="9.8330990">
	<ele>1496.20</ele>
	<time>2023-11-18T11:52:27.000Z</time>
</trkpt>
<trkpt lat="45.8891220" lon="9.8330990">
	<ele>1496.20</ele>
	<time>2023-11-18T11:52:28.000Z</time>
</trkpt>
<trkpt lat="45.8891220" lon="9.8330990">
	<ele>1496.20</ele>
	<time>2023-11-18T11:52:29.000Z</time>
</trkpt>
<trkpt lat="45.8891220" lon="9.8330990">
	<ele>1496.00</ele>
	<time>2023-11-18T11:52:30.000Z</time>
</trkpt>
<trkpt lat="45.8891230" lon="9.8330990">
	<ele>1496.00</ele>
	<time>2023-11-18T11:52:31.000Z</time>
</trkpt>
<trkpt lat="45.8891250" lon="9.8330990">
	<ele>1496.00</ele>
	<time>2023-11-18T11:52:32.000Z</time>
</trkpt>
<trkpt lat="45.8891260" lon="9.8330990">
	<ele>1495.80</ele>
	<time>2023-11-18T11:52:33.000Z</time>
</trkpt>
<trkpt lat="45.8891260" lon="9.8330990">
	<ele>1495.80</ele>
	<time>2023-11-18T11:52:34.000Z</time>
</trkpt>
<trkpt lat="45.8891270" lon="9.8330980">
	<ele>1496.00</ele>
	<time>2023-11-18T11:52:35.000Z</time>
</trkpt>
<trkpt lat="45.8891280" lon="9.8330970">
	<ele>1496.00</ele>
	<time>2023-11-18T11:52:36.000Z</time>
</trkpt>
<trkpt lat="45.8891280" lon="9.8330970">
	<ele>1496.00</ele>
	<time>2023-11-18T11:52:37.000Z</time>
</trkpt>
<trkpt lat="45.8891280" lon="9.8330960">
	<ele>1496.00</ele>
	<time>2023-11-18T11:52:38.000Z</time>
</trkpt>
<trkpt lat="45.8891280" lon="9.8330960">
	<ele>1496.00</ele>
	<time>2023-11-18T11:52:39.000Z</time>
</trkpt>
<trkpt lat="45.8891280" lon="9.8330950">
	<ele>1496.00</ele>
	<time>2023-11-18T11:52:40.000Z</time>
</trkpt>
<trkpt lat="45.8891280" lon="9.8330950">
	<ele>1495.80</ele>
	<time>2023-11-18T11:52:41.000Z</time>
</trkpt>
<trkpt lat="45.8891280" lon="9.8330950">
	<ele>1495.80</ele>
	<time>2023-11-18T11:52:42.000Z</time>
</trkpt>
<trkpt lat="45.8891280" lon="9.8330950">
	<ele>1495.80</ele>
	<time>2023-11-18T11:52:43.000Z</time>
</trkpt>
<trkpt lat="45.8891280" lon="9.8330950">
	<ele>1495.80</ele>
	<time>2023-11-18T11:52:44.000Z</time>
</trkpt>
<trkpt lat="45.8891290" lon="9.8330950">
	<ele>1495.80</ele>
	<time>2023-11-18T11:52:45.000Z</time>
</trkpt>
<trkpt lat="45.8891290" lon="9.8330950">
	<ele>1495.80</ele>
	<time>2023-11-18T11:52:46.000Z</time>
</trkpt>
<trkpt lat="45.8891290" lon="9.8330950">
	<ele>1495.80</ele>
	<time>2023-11-18T11:52:47.000Z</time>
</trkpt>
<trkpt lat="45.8891290" lon="9.8330950">
	<ele>1495.80</ele>
	<time>2023-11-18T11:52:48.000Z</time>
</trkpt>
<trkpt lat="45.8891290" lon="9.8330950">
	<ele>1495.80</ele>
	<time>2023-11-18T11:52:49.000Z</time>
</trkpt>
<trkpt lat="45.8891300" lon="9.8330950">
	<ele>1495.80</ele>
	<time>2023-11-18T11:52:50.000Z</time>
</trkpt>
<trkpt lat="45.8891300" lon="9.8330950">
	<ele>1495.80</ele>
	<time>2023-11-18T11:52:51.000Z</time>
</trkpt>
<trkpt lat="45.8891300" lon="9.8330950">
	<ele>1495.60</ele>
	<time>2023-11-18T11:52:52.000Z</time>
</trkpt>
<trkpt lat="45.8891300" lon="9.8330950">
	<ele>1495.60</ele>
	<time>2023-11-18T11:52:53.000Z</time>
</trkpt>
<trkpt lat="45.8891300" lon="9.8330950">
	<ele>1495.60</ele>
	<time>2023-11-18T11:52:54.000Z</time>
</trkpt>
<trkpt lat="45.8891300" lon="9.8330960">
	<ele>1495.60</ele>
	<time>2023-11-18T11:52:55.000Z</time>
</trkpt>
<trkpt lat="45.8891300" lon="9.8330960">
	<ele>1495.60</ele>
	<time>2023-11-18T11:52:56.000Z</time>
</trkpt>
<trkpt lat="45.8891300" lon="9.8330960">
	<ele>1495.60</ele>
	<time>2023-11-18T11:52:57.000Z</time>
</trkpt>
<trkpt lat="45.8891300" lon="9.8330960">
	<ele>1495.80</ele>
	<time>2023-11-18T11:52:58.000Z</time>
</trkpt>
<trkpt lat="45.8891300" lon="9.8330960">
	<ele>1496.00</ele>
	<time>2023-11-18T11:52:59.000Z</time>
</trkpt>
<trkpt lat="45.8891300" lon="9.8330960">
	<ele>1496.00</ele>
	<time>2023-11-18T11:53:00.000Z</time>
</trkpt>
<trkpt lat="45.8891300" lon="9.8330960">
	<ele>1496.00</ele>
	<time>2023-11-18T11:53:01.000Z</time>
</trkpt>
<trkpt lat="45.8891300" lon="9.8330960">
	<ele>1496.00</ele>
	<time>2023-11-18T11:53:02.000Z</time>
</trkpt>
<trkpt lat="45.8891300" lon="9.8330960">
	<ele>1495.80</ele>
	<time>2023-11-18T11:53:03.000Z</time>
</trkpt>
<trkpt lat="45.8891300" lon="9.8330960">
	<ele>1495.80</ele>
	<time>2023-11-18T11:53:04.000Z</time>
</trkpt>
<trkpt lat="45.8891300" lon="9.8330960">
	<ele>1495.80</ele>
	<time>2023-11-18T11:53:05.000Z</time>
</trkpt>
<trkpt lat="45.8891300" lon="9.8330960">
	<ele>1495.60</ele>
	<time>2023-11-18T11:53:06.000Z</time>
</trkpt>
<trkpt lat="45.8891300" lon="9.8330960">
	<ele>1495.40</ele>
	<time>2023-11-18T11:53:07.000Z</time>
</trkpt>
<trkpt lat="45.8891300" lon="9.8330960">
	<ele>1495.20</ele>
	<time>2023-11-18T11:53:08.000Z</time>
</trkpt>
<trkpt lat="45.8891300" lon="9.8330960">
	<ele>1495.20</ele>
	<time>2023-11-18T11:53:09.000Z</time>
</trkpt>
<trkpt lat="45.8891300" lon="9.8330950">
	<ele>1494.80</ele>
	<time>2023-11-18T11:53:10.000Z</time>
</trkpt>
<trkpt lat="45.8891290" lon="9.8330950">
	<ele>1494.60</ele>
	<time>2023-11-18T11:53:11.000Z</time>
</trkpt>
<trkpt lat="45.8891290" lon="9.8330950">
	<ele>1494.40</ele>
	<time>2023-11-18T11:53:12.000Z</time>
</trkpt>
<trkpt lat="45.8891290" lon="9.8330950">
	<ele>1494.20</ele>
	<time>2023-11-18T11:53:13.000Z</time>
</trkpt>
<trkpt lat="45.8891290" lon="9.8330950">
	<ele>1494.20</ele>
	<time>2023-11-18T11:53:14.000Z</time>
</trkpt>
<trkpt lat="45.8891280" lon="9.8330950">
	<ele>1493.80</ele>
	<time>2023-11-18T11:53:15.000Z</time>
</trkpt>
<trkpt lat="45.8891280" lon="9.8330950">
	<ele>1493.60</ele>
	<time>2023-11-18T11:53:16.000Z</time>
</trkpt>
<trkpt lat="45.8891280" lon="9.8330950">
	<ele>1493.40</ele>
	<time>2023-11-18T11:53:17.000Z</time>
</trkpt>
<trkpt lat="45.8891270" lon="9.8330950">
	<ele>1493.00</ele>
	<time>2023-11-18T11:53:18.000Z</time>
</trkpt>
<trkpt lat="45.8891270" lon="9.8330950">
	<ele>1493.00</ele>
	<time>2023-11-18T11:53:19.000Z</time>
</trkpt>
<trkpt lat="45.8891220" lon="9.8330940">
	<ele>1492.60</ele>
	<time>2023-11-18T11:53:20.000Z</time>
</trkpt>
<trkpt lat="45.8891200" lon="9.8330940">
	<ele>1492.20</ele>
	<time>2023-11-18T11:53:21.000Z</time>
</trkpt>
<trkpt lat="45.8891150" lon="9.8330940">
	<ele>1491.80</ele>
	<time>2023-11-18T11:53:22.000Z</time>
</trkpt>
<trkpt lat="45.8891050" lon="9.8330950">
	<ele>1491.60</ele>
	<time>2023-11-18T11:53:23.000Z</time>
</trkpt>
<trkpt lat="45.8890890" lon="9.8331050">
	<ele>1491.20</ele>
	<time>2023-11-18T11:53:24.000Z</time>
</trkpt>
<trkpt lat="45.8890690" lon="9.8331140">
	<ele>1490.80</ele>
	<time>2023-11-18T11:53:25.000Z</time>
</trkpt>
<trkpt lat="45.8890520" lon="9.8331270">
	<ele>1490.40</ele>
	<time>2023-11-18T11:53:26.000Z</time>
</trkpt>
<trkpt lat="45.8890420" lon="9.8331440">
	<ele>1490.20</ele>
	<time>2023-11-18T11:53:27.000Z</time>
</trkpt>
<trkpt lat="45.8890260" lon="9.8331580">
	<ele>1490.00</ele>
	<time>2023-11-18T11:53:28.000Z</time>
</trkpt>
<trkpt lat="45.8890050" lon="9.8331690">
	<ele>1490.00</ele>
	<time>2023-11-18T11:53:29.000Z</time>
</trkpt>
<trkpt lat="45.8889910" lon="9.8331800">
	<ele>1489.80</ele>
	<time>2023-11-18T11:53:30.000Z</time>
</trkpt>
<trkpt lat="45.8889780" lon="9.8331880">
	<ele>1489.80</ele>
	<time>2023-11-18T11:53:31.000Z</time>
</trkpt>
<trkpt lat="45.8889630" lon="9.8331970">
	<ele>1489.60</ele>
	<time>2023-11-18T11:53:32.000Z</time>
</trkpt>
<trkpt lat="45.8889580" lon="9.8332020">
	<ele>1489.40</ele>
	<time>2023-11-18T11:53:33.000Z</time>
</trkpt>
<trkpt lat="45.8889520" lon="9.8332060">
	<ele>1489.20</ele>
	<time>2023-11-18T11:53:34.000Z</time>
</trkpt>
<trkpt lat="45.8889470" lon="9.8332100">
	<ele>1489.00</ele>
	<time>2023-11-18T11:53:35.000Z</time>
</trkpt>
<trkpt lat="45.8889430" lon="9.8332130">
	<ele>1489.00</ele>
	<time>2023-11-18T11:53:36.000Z</time>
</trkpt>
<trkpt lat="45.8889380" lon="9.8332160">
	<ele>1488.60</ele>
	<time>2023-11-18T11:53:37.000Z</time>
</trkpt>
<trkpt lat="45.8889340" lon="9.8332200">
	<ele>1488.20</ele>
	<time>2023-11-18T11:53:38.000Z</time>
</trkpt>
<trkpt lat="45.8889300" lon="9.8332240">
	<ele>1488.20</ele>
	<time>2023-11-18T11:53:39.000Z</time>
</trkpt>
<trkpt lat="45.8889250" lon="9.8332310">
	<ele>1487.80</ele>
	<time>2023-11-18T11:53:40.000Z</time>
</trkpt>
<trkpt lat="45.8889190" lon="9.8332370">
	<ele>1487.60</ele>
	<time>2023-11-18T11:53:41.000Z</time>
</trkpt>
<trkpt lat="45.8889120" lon="9.8332420">
	<ele>1487.60</ele>
	<time>2023-11-18T11:53:42.000Z</time>
</trkpt>
<trkpt lat="45.8889080" lon="9.8332400">
	<ele>1487.40</ele>
	<time>2023-11-18T11:53:43.000Z</time>
</trkpt>
<trkpt lat="45.8889030" lon="9.8332360">
	<ele>1487.40</ele>
	<time>2023-11-18T11:53:44.000Z</time>
</trkpt>
<trkpt lat="45.8888990" lon="9.8332350">
	<ele>1487.20</ele>
	<time>2023-11-18T11:53:45.000Z</time>
</trkpt>
<trkpt lat="45.8888950" lon="9.8332390">
	<ele>1486.80</ele>
	<time>2023-11-18T11:53:46.000Z</time>
</trkpt>
<trkpt lat="45.8888880" lon="9.8332470">
	<ele>1486.40</ele>
	<time>2023-11-18T11:53:47.000Z</time>
</trkpt>
<trkpt lat="45.8888830" lon="9.8332570">
	<ele>1486.20</ele>
	<time>2023-11-18T11:53:48.000Z</time>
</trkpt>
<trkpt lat="45.8888760" lon="9.8332630">
	<ele>1485.60</ele>
	<time>2023-11-18T11:53:49.000Z</time>
</trkpt>
<trkpt lat="45.8888690" lon="9.8332690">
	<ele>1485.40</ele>
	<time>2023-11-18T11:53:50.000Z</time>
</trkpt>
<trkpt lat="45.8888640" lon="9.8332770">
	<ele>1485.00</ele>
	<time>2023-11-18T11:53:51.000Z</time>
</trkpt>
<trkpt lat="45.8888600" lon="9.8332840">
	<ele>1484.80</ele>
	<time>2023-11-18T11:53:52.000Z</time>
</trkpt>
<trkpt lat="45.8888550" lon="9.8332900">
	<ele>1484.60</ele>
	<time>2023-11-18T11:53:53.000Z</time>
</trkpt>
<trkpt lat="45.8888520" lon="9.8332910">
	<ele>1484.40</ele>
	<time>2023-11-18T11:53:54.000Z</time>
</trkpt>
<trkpt lat="45.8888470" lon="9.8332950">
	<ele>1484.20</ele>
	<time>2023-11-18T11:53:55.000Z</time>
</trkpt>
<trkpt lat="45.8888430" lon="9.8332990">
	<ele>1483.80</ele>
	<time>2023-11-18T11:53:56.000Z</time>
</trkpt>
<trkpt lat="45.8888400" lon="9.8333050">
	<ele>1483.60</ele>
	<time>2023-11-18T11:53:57.000Z</time>
</trkpt>
<trkpt lat="45.8888370" lon="9.8333150">
	<ele>1483.40</ele>
	<time>2023-11-18T11:53:58.000Z</time>
</trkpt>
<trkpt lat="45.8888360" lon="9.8333230">
	<ele>1483.20</ele>
	<time>2023-11-18T11:53:59.000Z</time>
</trkpt>
<trkpt lat="45.8888360" lon="9.8333320">
	<ele>1483.20</ele>
	<time>2023-11-18T11:54:00.000Z</time>
</trkpt>
<trkpt lat="45.8888340" lon="9.8333410">
	<ele>1483.00</ele>
	<time>2023-11-18T11:54:01.000Z</time>
</trkpt>
<trkpt lat="45.8888340" lon="9.8333470">
	<ele>1482.80</ele>
	<time>2023-11-18T11:54:02.000Z</time>
</trkpt>
<trkpt lat="45.8888330" lon="9.8333520">
	<ele>1482.60</ele>
	<time>2023-11-18T11:54:03.000Z</time>
</trkpt>
<trkpt lat="45.8888290" lon="9.8333590">
	<ele>1482.20</ele>
	<time>2023-11-18T11:54:04.000Z</time>
</trkpt>
<trkpt lat="45.8888270" lon="9.8333680">
	<ele>1482.00</ele>
	<time>2023-11-18T11:54:05.000Z</time>
</trkpt>
<trkpt lat="45.8888220" lon="9.8333730">
	<ele>1481.80</ele>
	<time>2023-11-18T11:54:06.000Z</time>
</trkpt>
<trkpt lat="45.8888180" lon="9.8333770">
	<ele>1481.60</ele>
	<time>2023-11-18T11:54:07.000Z</time>
</trkpt>
<trkpt lat="45.8888130" lon="9.8333800">
	<ele>1481.40</ele>
	<time>2023-11-18T11:54:08.000Z</time>
</trkpt>
<trkpt lat="45.8888090" lon="9.8333830">
	<ele>1481.20</ele>
	<time>2023-11-18T11:54:09.000Z</time>
</trkpt>
<trkpt lat="45.8888060" lon="9.8333880">
	<ele>1481.00</ele>
	<time>2023-11-18T11:54:10.000Z</time>
</trkpt>
<trkpt lat="45.8888010" lon="9.8333980">
	<ele>1480.80</ele>
	<time>2023-11-18T11:54:11.000Z</time>
</trkpt>
<trkpt lat="45.8887970" lon="9.8334040">
	<ele>1480.60</ele>
	<time>2023-11-18T11:54:12.000Z</time>
</trkpt>
<trkpt lat="45.8887940" lon="9.8334100">
	<ele>1480.40</ele>
	<time>2023-11-18T11:54:13.000Z</time>
</trkpt>
<trkpt lat="45.8887880" lon="9.8334140">
	<ele>1480.00</ele>
	<time>2023-11-18T11:54:14.000Z</time>
</trkpt>
<trkpt lat="45.8887830" lon="9.8334130">
	<ele>1479.60</ele>
	<time>2023-11-18T11:54:15.000Z</time>
</trkpt>
<trkpt lat="45.8887760" lon="9.8334100">
	<ele>1479.40</ele>
	<time>2023-11-18T11:54:16.000Z</time>
</trkpt>
<trkpt lat="45.8887690" lon="9.8334050">
	<ele>1479.20</ele>
	<time>2023-11-18T11:54:17.000Z</time>
</trkpt>
<trkpt lat="45.8887650" lon="9.8334040">
	<ele>1479.00</ele>
	<time>2023-11-18T11:54:18.000Z</time>
</trkpt>
<trkpt lat="45.8887620" lon="9.8334040">
	<ele>1478.80</ele>
	<time>2023-11-18T11:54:19.000Z</time>
</trkpt>
<trkpt lat="45.8887610" lon="9.8334000">
	<ele>1478.60</ele>
	<time>2023-11-18T11:54:20.000Z</time>
</trkpt>
<trkpt lat="45.8887550" lon="9.8333980">
	<ele>1478.20</ele>
	<time>2023-11-18T11:54:21.000Z</time>
</trkpt>
<trkpt lat="45.8887490" lon="9.8333920">
	<ele>1478.20</ele>
	<time>2023-11-18T11:54:22.000Z</time>
</trkpt>
<trkpt lat="45.8887450" lon="9.8333820">
	<ele>1477.80</ele>
	<time>2023-11-18T11:54:23.000Z</time>
</trkpt>
<trkpt lat="45.8887420" lon="9.8333780">
	<ele>1477.80</ele>
	<time>2023-11-18T11:54:24.000Z</time>
</trkpt>
<trkpt lat="45.8887330" lon="9.8333750">
	<ele>1477.40</ele>
	<time>2023-11-18T11:54:25.000Z</time>
</trkpt>
<trkpt lat="45.8887320" lon="9.8333770">
	<ele>1477.00</ele>
	<time>2023-11-18T11:54:26.000Z</time>
</trkpt>
<trkpt lat="45.8887300" lon="9.8333700">
	<ele>1476.80</ele>
	<time>2023-11-18T11:54:27.000Z</time>
</trkpt>
<trkpt lat="45.8887280" lon="9.8333620">
	<ele>1476.60</ele>
	<time>2023-11-18T11:54:28.000Z</time>
</trkpt>
<trkpt lat="45.8887240" lon="9.8333550">
	<ele>1476.60</ele>
	<time>2023-11-18T11:54:29.000Z</time>
</trkpt>
<trkpt lat="45.8887230" lon="9.8333490">
	<ele>1476.40</ele>
	<time>2023-11-18T11:54:30.000Z</time>
</trkpt>
<trkpt lat="45.8887120" lon="9.8333390">
	<ele>1476.20</ele>
	<time>2023-11-18T11:54:31.000Z</time>
</trkpt>
<trkpt lat="45.8887050" lon="9.8333250">
	<ele>1476.00</ele>
	<time>2023-11-18T11:54:32.000Z</time>
</trkpt>
<trkpt lat="45.8887010" lon="9.8333120">
	<ele>1475.60</ele>
	<time>2023-11-18T11:54:33.000Z</time>
</trkpt>
<trkpt lat="45.8886940" lon="9.8333020">
	<ele>1475.40</ele>
	<time>2023-11-18T11:54:34.000Z</time>
</trkpt>
<trkpt lat="45.8886860" lon="9.8332980">
	<ele>1475.20</ele>
	<time>2023-11-18T11:54:35.000Z</time>
</trkpt>
<trkpt lat="45.8886790" lon="9.8332900">
	<ele>1475.00</ele>
	<time>2023-11-18T11:54:36.000Z</time>
</trkpt>
<trkpt lat="45.8886710" lon="9.8332810">
	<ele>1474.60</ele>
	<time>2023-11-18T11:54:37.000Z</time>
</trkpt>
<trkpt lat="45.8886630" lon="9.8332690">
	<ele>1474.40</ele>
	<time>2023-11-18T11:54:38.000Z</time>
</trkpt>
<trkpt lat="45.8886560" lon="9.8332600">
	<ele>1474.20</ele>
	<time>2023-11-18T11:54:39.000Z</time>
</trkpt>
<trkpt lat="45.8886470" lon="9.8332510">
	<ele>1474.00</ele>
	<time>2023-11-18T11:54:40.000Z</time>
</trkpt>
<trkpt lat="45.8886440" lon="9.8332390">
	<ele>1473.60</ele>
	<time>2023-11-18T11:54:41.000Z</time>
</trkpt>
<trkpt lat="45.8886400" lon="9.8332290">
	<ele>1473.40</ele>
	<time>2023-11-18T11:54:42.000Z</time>
</trkpt>
<trkpt lat="45.8886370" lon="9.8332190">
	<ele>1473.00</ele>
	<time>2023-11-18T11:54:43.000Z</time>
</trkpt>
<trkpt lat="45.8886310" lon="9.8332080">
	<ele>1472.80</ele>
	<time>2023-11-18T11:54:44.000Z</time>
</trkpt>
<trkpt lat="45.8886240" lon="9.8331970">
	<ele>1472.80</ele>
	<time>2023-11-18T11:54:45.000Z</time>
</trkpt>
<trkpt lat="45.8886210" lon="9.8331910">
	<ele>1472.40</ele>
	<time>2023-11-18T11:54:46.000Z</time>
</trkpt>
<trkpt lat="45.8886190" lon="9.8331860">
	<ele>1472.20</ele>
	<time>2023-11-18T11:54:47.000Z</time>
</trkpt>
<trkpt lat="45.8886170" lon="9.8331830">
	<ele>1472.00</ele>
	<time>2023-11-18T11:54:48.000Z</time>
</trkpt>
<trkpt lat="45.8886190" lon="9.8331820">
	<ele>1471.80</ele>
	<time>2023-11-18T11:54:49.000Z</time>
</trkpt>
<trkpt lat="45.8886190" lon="9.8331810">
	<ele>1471.60</ele>
	<time>2023-11-18T11:54:50.000Z</time>
</trkpt>
<trkpt lat="45.8886160" lon="9.8331780">
	<ele>1471.40</ele>
	<time>2023-11-18T11:54:51.000Z</time>
</trkpt>
<trkpt lat="45.8886150" lon="9.8331760">
	<ele>1471.40</ele>
	<time>2023-11-18T11:54:52.000Z</time>
</trkpt>
<trkpt lat="45.8886150" lon="9.8331740">
	<ele>1471.20</ele>
	<time>2023-11-18T11:54:53.000Z</time>
</trkpt>
<trkpt lat="45.8886160" lon="9.8331730">
	<ele>1471.20</ele>
	<time>2023-11-18T11:54:54.000Z</time>
</trkpt>
<trkpt lat="45.8886160" lon="9.8331720">
	<ele>1471.20</ele>
	<time>2023-11-18T11:54:55.000Z</time>
</trkpt>
<trkpt lat="45.8886200" lon="9.8331720">
	<ele>1471.20</ele>
	<time>2023-11-18T11:54:56.000Z</time>
</trkpt>
<trkpt lat="45.8886210" lon="9.8331720">
	<ele>1471.20</ele>
	<time>2023-11-18T11:54:57.000Z</time>
</trkpt>
<trkpt lat="45.8886200" lon="9.8331690">
	<ele>1471.20</ele>
	<time>2023-11-18T11:54:58.000Z</time>
</trkpt>
<trkpt lat="45.8886150" lon="9.8331630">
	<ele>1471.20</ele>
	<time>2023-11-18T11:54:59.000Z</time>
</trkpt>
<trkpt lat="45.8886090" lon="9.8331590">
	<ele>1471.20</ele>
	<time>2023-11-18T11:55:00.000Z</time>
</trkpt>
<trkpt lat="45.8886060" lon="9.8331590">
	<ele>1471.00</ele>
	<time>2023-11-18T11:55:01.000Z</time>
</trkpt>
<trkpt lat="45.8886010" lon="9.8331590">
	<ele>1471.00</ele>
	<time>2023-11-18T11:55:02.000Z</time>
</trkpt>
<trkpt lat="45.8885970" lon="9.8331570">
	<ele>1470.80</ele>
	<time>2023-11-18T11:55:03.000Z</time>
</trkpt>
<trkpt lat="45.8885910" lon="9.8331570">
	<ele>1470.60</ele>
	<time>2023-11-18T11:55:04.000Z</time>
</trkpt>
<trkpt lat="45.8885880" lon="9.8331530">
	<ele>1470.60</ele>
	<time>2023-11-18T11:55:05.000Z</time>
</trkpt>
<trkpt lat="45.8885820" lon="9.8331540">
	<ele>1470.40</ele>
	<time>2023-11-18T11:55:06.000Z</time>
</trkpt>
<trkpt lat="45.8885750" lon="9.8331520">
	<ele>1470.20</ele>
	<time>2023-11-18T11:55:07.000Z</time>
</trkpt>
<trkpt lat="45.8885710" lon="9.8331520">
	<ele>1469.80</ele>
	<time>2023-11-18T11:55:08.000Z</time>
</trkpt>
<trkpt lat="45.8885700" lon="9.8331500">
	<ele>1469.60</ele>
	<time>2023-11-18T11:55:09.000Z</time>
</trkpt>
<trkpt lat="45.8885700" lon="9.8331480">
	<ele>1469.60</ele>
	<time>2023-11-18T11:55:10.000Z</time>
</trkpt>
<trkpt lat="45.8885660" lon="9.8331460">
	<ele>1469.40</ele>
	<time>2023-11-18T11:55:11.000Z</time>
</trkpt>
<trkpt lat="45.8885590" lon="9.8331420">
	<ele>1469.00</ele>
	<time>2023-11-18T11:55:12.000Z</time>
</trkpt>
<trkpt lat="45.8885500" lon="9.8331380">
	<ele>1468.80</ele>
	<time>2023-11-18T11:55:13.000Z</time>
</trkpt>
<trkpt lat="45.8885440" lon="9.8331370">
	<ele>1468.80</ele>
	<time>2023-11-18T11:55:14.000Z</time>
</trkpt>
<trkpt lat="45.8885390" lon="9.8331390">
	<ele>1468.60</ele>
	<time>2023-11-18T11:55:15.000Z</time>
</trkpt>
<trkpt lat="45.8885350" lon="9.8331380">
	<ele>1468.40</ele>
	<time>2023-11-18T11:55:16.000Z</time>
</trkpt>
<trkpt lat="45.8885310" lon="9.8331360">
	<ele>1468.20</ele>
	<time>2023-11-18T11:55:17.000Z</time>
</trkpt>
<trkpt lat="45.8885240" lon="9.8331310">
	<ele>1467.80</ele>
	<time>2023-11-18T11:55:18.000Z</time>
</trkpt>
<trkpt lat="45.8885150" lon="9.8331260">
	<ele>1467.60</ele>
	<time>2023-11-18T11:55:19.000Z</time>
</trkpt>
<trkpt lat="45.8885020" lon="9.8331240">
	<ele>1467.40</ele>
	<time>2023-11-18T11:55:20.000Z</time>
</trkpt>
<trkpt lat="45.8884930" lon="9.8331200">
	<ele>1467.20</ele>
	<time>2023-11-18T11:55:21.000Z</time>
</trkpt>
<trkpt lat="45.8884830" lon="9.8331100">
	<ele>1466.80</ele>
	<time>2023-11-18T11:55:22.000Z</time>
</trkpt>
<trkpt lat="45.8884750" lon="9.8331050">
	<ele>1466.60</ele>
	<time>2023-11-18T11:55:23.000Z</time>
</trkpt>
<trkpt lat="45.8884670" lon="9.8331020">
	<ele>1466.40</ele>
	<time>2023-11-18T11:55:24.000Z</time>
</trkpt>
<trkpt lat="45.8884580" lon="9.8331010">
	<ele>1466.20</ele>
	<time>2023-11-18T11:55:25.000Z</time>
</trkpt>
<trkpt lat="45.8884520" lon="9.8330950">
	<ele>1466.00</ele>
	<time>2023-11-18T11:55:26.000Z</time>
</trkpt>
<trkpt lat="45.8884500" lon="9.8330900">
	<ele>1465.60</ele>
	<time>2023-11-18T11:55:27.000Z</time>
</trkpt>
<trkpt lat="45.8884470" lon="9.8330840">
	<ele>1465.40</ele>
	<time>2023-11-18T11:55:28.000Z</time>
</trkpt>
<trkpt lat="45.8884430" lon="9.8330760">
	<ele>1465.20</ele>
	<time>2023-11-18T11:55:29.000Z</time>
</trkpt>
<trkpt lat="45.8884370" lon="9.8330690">
	<ele>1465.00</ele>
	<time>2023-11-18T11:55:30.000Z</time>
</trkpt>
<trkpt lat="45.8884280" lon="9.8330620">
	<ele>1464.60</ele>
	<time>2023-11-18T11:55:31.000Z</time>
</trkpt>
<trkpt lat="45.8884210" lon="9.8330590">
	<ele>1464.40</ele>
	<time>2023-11-18T11:55:32.000Z</time>
</trkpt>
<trkpt lat="45.8884150" lon="9.8330630">
	<ele>1464.40</ele>
	<time>2023-11-18T11:55:33.000Z</time>
</trkpt>
<trkpt lat="45.8884080" lon="9.8330740">
	<ele>1464.20</ele>
	<time>2023-11-18T11:55:34.000Z</time>
</trkpt>
<trkpt lat="45.8884020" lon="9.8330790">
	<ele>1464.20</ele>
	<time>2023-11-18T11:55:35.000Z</time>
</trkpt>
<trkpt lat="45.8883900" lon="9.8330850">
	<ele>1464.00</ele>
	<time>2023-11-18T11:55:36.000Z</time>
</trkpt>
<trkpt lat="45.8883860" lon="9.8330950">
	<ele>1463.80</ele>
	<time>2023-11-18T11:55:37.000Z</time>
</trkpt>
<trkpt lat="45.8883780" lon="9.8331010">
	<ele>1463.40</ele>
	<time>2023-11-18T11:55:38.000Z</time>
</trkpt>
<trkpt lat="45.8883680" lon="9.8330940">
	<ele>1463.20</ele>
	<time>2023-11-18T11:55:39.000Z</time>
</trkpt>
<trkpt lat="45.8883560" lon="9.8330870">
	<ele>1463.00</ele>
	<time>2023-11-18T11:55:40.000Z</time>
</trkpt>
<trkpt lat="45.8883530" lon="9.8330910">
	<ele>1462.80</ele>
	<time>2023-11-18T11:55:41.000Z</time>
</trkpt>
<trkpt lat="45.8883480" lon="9.8330890">
	<ele>1462.60</ele>
	<time>2023-11-18T11:55:42.000Z</time>
</trkpt>
<trkpt lat="45.8883470" lon="9.8330840">
	<ele>1462.40</ele>
	<time>2023-11-18T11:55:43.000Z</time>
</trkpt>
<trkpt lat="45.8883510" lon="9.8330720">
	<ele>1462.20</ele>
	<time>2023-11-18T11:55:44.000Z</time>
</trkpt>
<trkpt lat="45.8883470" lon="9.8330630">
	<ele>1462.00</ele>
	<time>2023-11-18T11:55:45.000Z</time>
</trkpt>
<trkpt lat="45.8883440" lon="9.8330620">
	<ele>1462.00</ele>
	<time>2023-11-18T11:55:46.000Z</time>
</trkpt>
<trkpt lat="45.8883430" lon="9.8330620">
	<ele>1461.80</ele>
	<time>2023-11-18T11:55:47.000Z</time>
</trkpt>
<trkpt lat="45.8883430" lon="9.8330630">
	<ele>1461.60</ele>
	<time>2023-11-18T11:55:48.000Z</time>
</trkpt>
<trkpt lat="45.8883430" lon="9.8330660">
	<ele>1461.60</ele>
	<time>2023-11-18T11:55:49.000Z</time>
</trkpt>
<trkpt lat="45.8883410" lon="9.8330640">
	<ele>1461.40</ele>
	<time>2023-11-18T11:55:50.000Z</time>
</trkpt>
<trkpt lat="45.8883390" lon="9.8330640">
	<ele>1461.20</ele>
	<time>2023-11-18T11:55:51.000Z</time>
</trkpt>
<trkpt lat="45.8883380" lon="9.8330600">
	<ele>1461.20</ele>
	<time>2023-11-18T11:55:52.000Z</time>
</trkpt>
<trkpt lat="45.8883370" lon="9.8330580">
	<ele>1461.20</ele>
	<time>2023-11-18T11:55:53.000Z</time>
</trkpt>
<trkpt lat="45.8883370" lon="9.8330600">
	<ele>1461.20</ele>
	<time>2023-11-18T11:55:54.000Z</time>
</trkpt>
<trkpt lat="45.8883370" lon="9.8330610">
	<ele>1461.20</ele>
	<time>2023-11-18T11:55:55.000Z</time>
</trkpt>
<trkpt lat="45.8883310" lon="9.8330570">
	<ele>1461.20</ele>
	<time>2023-11-18T11:55:56.000Z</time>
</trkpt>
<trkpt lat="45.8883330" lon="9.8330570">
	<ele>1461.00</ele>
	<time>2023-11-18T11:55:57.000Z</time>
</trkpt>
<trkpt lat="45.8883330" lon="9.8330580">
	<ele>1461.00</ele>
	<time>2023-11-18T11:55:58.000Z</time>
</trkpt>
<trkpt lat="45.8883340" lon="9.8330580">
	<ele>1461.00</ele>
	<time>2023-11-18T11:55:59.000Z</time>
</trkpt>
<trkpt lat="45.8883330" lon="9.8330580">
	<ele>1461.00</ele>
	<time>2023-11-18T11:56:00.000Z</time>
</trkpt>
<trkpt lat="45.8883330" lon="9.8330570">
	<ele>1461.00</ele>
	<time>2023-11-18T11:56:01.000Z</time>
</trkpt>
<trkpt lat="45.8883330" lon="9.8330570">
	<ele>1461.00</ele>
	<time>2023-11-18T11:56:02.000Z</time>
</trkpt>
<trkpt lat="45.8883330" lon="9.8330570">
	<ele>1461.00</ele>
	<time>2023-11-18T11:56:03.000Z</time>
</trkpt>
<trkpt lat="45.8883330" lon="9.8330570">
	<ele>1461.00</ele>
	<time>2023-11-18T11:56:04.000Z</time>
</trkpt>
<trkpt lat="45.8883330" lon="9.8330570">
	<ele>1460.80</ele>
	<time>2023-11-18T11:56:05.000Z</time>
</trkpt>
<trkpt lat="45.8883330" lon="9.8330570">
	<ele>1460.80</ele>
	<time>2023-11-18T11:56:06.000Z</time>
</trkpt>
<trkpt lat="45.8883330" lon="9.8330570">
	<ele>1460.80</ele>
	<time>2023-11-18T11:56:07.000Z</time>
</trkpt>
<trkpt lat="45.8883330" lon="9.8330570">
	<ele>1460.80</ele>
	<time>2023-11-18T11:56:08.000Z</time>
</trkpt>
<trkpt lat="45.8883330" lon="9.8330570">
	<ele>1460.80</ele>
	<time>2023-11-18T11:56:09.000Z</time>
</trkpt>
<trkpt lat="45.8883330" lon="9.8330570">
	<ele>1460.80</ele>
	<time>2023-11-18T11:56:10.000Z</time>
</trkpt>
<trkpt lat="45.8883330" lon="9.8330580">
	<ele>1460.80</ele>
	<time>2023-11-18T11:56:11.000Z</time>
</trkpt>
<trkpt lat="45.8883330" lon="9.8330580">
	<ele>1460.80</ele>
	<time>2023-11-18T11:56:12.000Z</time>
</trkpt>
<trkpt lat="45.8883340" lon="9.8330580">
	<ele>1460.80</ele>
	<time>2023-11-18T11:56:13.000Z</time>
</trkpt>
<trkpt lat="45.8883340" lon="9.8330580">
	<ele>1460.80</ele>
	<time>2023-11-18T11:56:14.000Z</time>
</trkpt>
<trkpt lat="45.8883340" lon="9.8330590">
	<ele>1460.80</ele>
	<time>2023-11-18T11:56:15.000Z</time>
</trkpt>
<trkpt lat="45.8883340" lon="9.8330590">
	<ele>1460.80</ele>
	<time>2023-11-18T11:56:16.000Z</time>
</trkpt>
<trkpt lat="45.8883340" lon="9.8330590">
	<ele>1460.80</ele>
	<time>2023-11-18T11:56:17.000Z</time>
</trkpt>
<trkpt lat="45.8883340" lon="9.8330600">
	<ele>1460.80</ele>
	<time>2023-11-18T11:56:18.000Z</time>
</trkpt>
<trkpt lat="45.8883340" lon="9.8330600">
	<ele>1461.00</ele>
	<time>2023-11-18T11:56:19.000Z</time>
</trkpt>
<trkpt lat="45.8883340" lon="9.8330600">
	<ele>1461.20</ele>
	<time>2023-11-18T11:56:20.000Z</time>
</trkpt>
<trkpt lat="45.8883350" lon="9.8330600">
	<ele>1461.20</ele>
	<time>2023-11-18T11:56:21.000Z</time>
</trkpt>
<trkpt lat="45.8883350" lon="9.8330600">
	<ele>1461.20</ele>
	<time>2023-11-18T11:56:22.000Z</time>
</trkpt>
<trkpt lat="45.8883350" lon="9.8330600">
	<ele>1461.20</ele>
	<time>2023-11-18T11:56:23.000Z</time>
</trkpt>
<trkpt lat="45.8883350" lon="9.8330590">
	<ele>1461.20</ele>
	<time>2023-11-18T11:56:24.000Z</time>
</trkpt>
<trkpt lat="45.8883340" lon="9.8330590">
	<ele>1461.20</ele>
	<time>2023-11-18T11:56:25.000Z</time>
</trkpt>
<trkpt lat="45.8883340" lon="9.8330600">
	<ele>1461.20</ele>
	<time>2023-11-18T11:56:26.000Z</time>
</trkpt>
<trkpt lat="45.8883340" lon="9.8330600">
	<ele>1461.20</ele>
	<time>2023-11-18T11:56:27.000Z</time>
</trkpt>
<trkpt lat="45.8883340" lon="9.8330600">
	<ele>1461.00</ele>
	<time>2023-11-18T11:56:28.000Z</time>
</trkpt>
<trkpt lat="45.8883340" lon="9.8330600">
	<ele>1461.00</ele>
	<time>2023-11-18T11:56:29.000Z</time>
</trkpt>
<trkpt lat="45.8883340" lon="9.8330600">
	<ele>1461.00</ele>
	<time>2023-11-18T11:56:30.000Z</time>
</trkpt>
<trkpt lat="45.8883340" lon="9.8330610">
	<ele>1461.00</ele>
	<time>2023-11-18T11:56:31.000Z</time>
</trkpt>
<trkpt lat="45.8883340" lon="9.8330610">
	<ele>1461.00</ele>
	<time>2023-11-18T11:56:32.000Z</time>
</trkpt>
<trkpt lat="45.8883340" lon="9.8330610">
	<ele>1461.00</ele>
	<time>2023-11-18T11:56:33.000Z</time>
</trkpt>
<trkpt lat="45.8883340" lon="9.8330610">
	<ele>1461.00</ele>
	<time>2023-11-18T11:56:34.000Z</time>
</trkpt>
<trkpt lat="45.8883340" lon="9.8330610">
	<ele>1461.00</ele>
	<time>2023-11-18T11:56:35.000Z</time>
</trkpt>
<trkpt lat="45.8883340" lon="9.8330610">
	<ele>1461.00</ele>
	<time>2023-11-18T11:56:36.000Z</time>
</trkpt>
<trkpt lat="45.8883340" lon="9.8330610">
	<ele>1461.00</ele>
	<time>2023-11-18T11:56:37.000Z</time>
</trkpt>
<trkpt lat="45.8883320" lon="9.8330620">
	<ele>1461.00</ele>
	<time>2023-11-18T11:56:38.000Z</time>
</trkpt>
<trkpt lat="45.8883260" lon="9.8330630">
	<ele>1461.00</ele>
	<time>2023-11-18T11:56:39.000Z</time>
</trkpt>
<trkpt lat="45.8883240" lon="9.8330640">
	<ele>1461.00</ele>
	<time>2023-11-18T11:56:40.000Z</time>
</trkpt>
<trkpt lat="45.8883230" lon="9.8330640">
	<ele>1461.00</ele>
	<time>2023-11-18T11:56:41.000Z</time>
</trkpt>
<trkpt lat="45.8883230" lon="9.8330650">
	<ele>1461.00</ele>
	<time>2023-11-18T11:56:42.000Z</time>
</trkpt>
<trkpt lat="45.8883230" lon="9.8330650">
	<ele>1461.20</ele>
	<time>2023-11-18T11:56:43.000Z</time>
</trkpt>
<trkpt lat="45.8883220" lon="9.8330650">
	<ele>1461.20</ele>
	<time>2023-11-18T11:56:44.000Z</time>
</trkpt>
<trkpt lat="45.8883220" lon="9.8330660">
	<ele>1461.20</ele>
	<time>2023-11-18T11:56:45.000Z</time>
</trkpt>
<trkpt lat="45.8883220" lon="9.8330660">
	<ele>1461.20</ele>
	<time>2023-11-18T11:56:46.000Z</time>
</trkpt>
<trkpt lat="45.8883220" lon="9.8330660">
	<ele>1461.20</ele>
	<time>2023-11-18T11:56:47.000Z</time>
</trkpt>
<trkpt lat="45.8883220" lon="9.8330670">
	<ele>1461.00</ele>
	<time>2023-11-18T11:56:48.000Z</time>
</trkpt>
<trkpt lat="45.8883210" lon="9.8330670">
	<ele>1460.80</ele>
	<time>2023-11-18T11:56:49.000Z</time>
</trkpt>
<trkpt lat="45.8883200" lon="9.8330670">
	<ele>1460.80</ele>
	<time>2023-11-18T11:56:50.000Z</time>
</trkpt>
<trkpt lat="45.8883190" lon="9.8330670">
	<ele>1460.60</ele>
	<time>2023-11-18T11:56:51.000Z</time>
</trkpt>
<trkpt lat="45.8883170" lon="9.8330680">
	<ele>1460.60</ele>
	<time>2023-11-18T11:56:52.000Z</time>
</trkpt>
<trkpt lat="45.8883150" lon="9.8330680">
	<ele>1460.40</ele>
	<time>2023-11-18T11:56:53.000Z</time>
</trkpt>
<trkpt lat="45.8883130" lon="9.8330720">
	<ele>1460.40</ele>
	<time>2023-11-18T11:56:54.000Z</time>
</trkpt>
<trkpt lat="45.8883110" lon="9.8330820">
	<ele>1460.40</ele>
	<time>2023-11-18T11:56:55.000Z</time>
</trkpt>
<trkpt lat="45.8883100" lon="9.8330920">
	<ele>1460.40</ele>
	<time>2023-11-18T11:56:56.000Z</time>
</trkpt>
<trkpt lat="45.8883090" lon="9.8330990">
	<ele>1460.40</ele>
	<time>2023-11-18T11:56:57.000Z</time>
</trkpt>
<trkpt lat="45.8883080" lon="9.8331010">
	<ele>1460.40</ele>
	<time>2023-11-18T11:56:58.000Z</time>
</trkpt>
<trkpt lat="45.8883050" lon="9.8331020">
	<ele>1460.40</ele>
	<time>2023-11-18T11:56:59.000Z</time>
</trkpt>
<trkpt lat="45.8883010" lon="9.8331020">
	<ele>1460.40</ele>
	<time>2023-11-18T11:57:00.000Z</time>
</trkpt>
<trkpt lat="45.8882970" lon="9.8331020">
	<ele>1460.20</ele>
	<time>2023-11-18T11:57:01.000Z</time>
</trkpt>
<trkpt lat="45.8882920" lon="9.8331030">
	<ele>1460.20</ele>
	<time>2023-11-18T11:57:02.000Z</time>
</trkpt>
<trkpt lat="45.8882870" lon="9.8331030">
	<ele>1460.00</ele>
	<time>2023-11-18T11:57:03.000Z</time>
</trkpt>
<trkpt lat="45.8882700" lon="9.8331030">
	<ele>1459.80</ele>
	<time>2023-11-18T11:57:04.000Z</time>
</trkpt>
<trkpt lat="45.8882530" lon="9.8331060">
	<ele>1459.60</ele>
	<time>2023-11-18T11:57:05.000Z</time>
</trkpt>
<trkpt lat="45.8882380" lon="9.8331090">
	<ele>1459.60</ele>
	<time>2023-11-18T11:57:06.000Z</time>
</trkpt>
<trkpt lat="45.8882230" lon="9.8331110">
	<ele>1459.40</ele>
	<time>2023-11-18T11:57:07.000Z</time>
</trkpt>
<trkpt lat="45.8882080" lon="9.8331130">
	<ele>1459.40</ele>
	<time>2023-11-18T11:57:08.000Z</time>
</trkpt>
<trkpt lat="45.8881910" lon="9.8331150">
	<ele>1459.20</ele>
	<time>2023-11-18T11:57:09.000Z</time>
</trkpt>
<trkpt lat="45.8881730" lon="9.8331190">
	<ele>1459.20</ele>
	<time>2023-11-18T11:57:10.000Z</time>
</trkpt>
<trkpt lat="45.8881580" lon="9.8331270">
	<ele>1459.20</ele>
	<time>2023-11-18T11:57:11.000Z</time>
</trkpt>
<trkpt lat="45.8881450" lon="9.8331410">
	<ele>1458.80</ele>
	<time>2023-11-18T11:57:12.000Z</time>
</trkpt>
<trkpt lat="45.8881380" lon="9.8331580">
	<ele>1458.60</ele>
	<time>2023-11-18T11:57:13.000Z</time>
</trkpt>
<trkpt lat="45.8881350" lon="9.8331690">
	<ele>1458.60</ele>
	<time>2023-11-18T11:57:14.000Z</time>
</trkpt>
<trkpt lat="45.8881340" lon="9.8331810">
	<ele>1458.40</ele>
	<time>2023-11-18T11:57:15.000Z</time>
</trkpt>
<trkpt lat="45.8881350" lon="9.8331930">
	<ele>1458.20</ele>
	<time>2023-11-18T11:57:16.000Z</time>
</trkpt>
<trkpt lat="45.8881340" lon="9.8332010">
	<ele>1458.00</ele>
	<time>2023-11-18T11:57:17.000Z</time>
</trkpt>
<trkpt lat="45.8881350" lon="9.8332070">
	<ele>1458.00</ele>
	<time>2023-11-18T11:57:18.000Z</time>
</trkpt>
<trkpt lat="45.8881350" lon="9.8332130">
	<ele>1458.00</ele>
	<time>2023-11-18T11:57:19.000Z</time>
</trkpt>
<trkpt lat="45.8881330" lon="9.8332190">
	<ele>1457.80</ele>
	<time>2023-11-18T11:57:20.000Z</time>
</trkpt>
<trkpt lat="45.8881330" lon="9.8332290">
	<ele>1457.80</ele>
	<time>2023-11-18T11:57:21.000Z</time>
</trkpt>
<trkpt lat="45.8881350" lon="9.8332360">
	<ele>1457.80</ele>
	<time>2023-11-18T11:57:22.000Z</time>
</trkpt>
<trkpt lat="45.8881360" lon="9.8332460">
	<ele>1457.60</ele>
	<time>2023-11-18T11:57:23.000Z</time>
</trkpt>
<trkpt lat="45.8881340" lon="9.8332570">
	<ele>1457.60</ele>
	<time>2023-11-18T11:57:24.000Z</time>
</trkpt>
<trkpt lat="45.8881300" lon="9.8332670">
	<ele>1457.40</ele>
	<time>2023-11-18T11:57:25.000Z</time>
</trkpt>
<trkpt lat="45.8881300" lon="9.8332760">
	<ele>1457.20</ele>
	<time>2023-11-18T11:57:26.000Z</time>
</trkpt>
<trkpt lat="45.8881280" lon="9.8332850">
	<ele>1457.20</ele>
	<time>2023-11-18T11:57:27.000Z</time>
</trkpt>
<trkpt lat="45.8881260" lon="9.8332930">
	<ele>1457.00</ele>
	<time>2023-11-18T11:57:28.000Z</time>
</trkpt>
<trkpt lat="45.8881220" lon="9.8333010">
	<ele>1456.80</ele>
	<time>2023-11-18T11:57:29.000Z</time>
</trkpt>
<trkpt lat="45.8881180" lon="9.8333070">
	<ele>1456.80</ele>
	<time>2023-11-18T11:57:30.000Z</time>
</trkpt>
<trkpt lat="45.8881130" lon="9.8333190">
	<ele>1456.80</ele>
	<time>2023-11-18T11:57:31.000Z</time>
</trkpt>
<trkpt lat="45.8881080" lon="9.8333310">
	<ele>1456.60</ele>
	<time>2023-11-18T11:57:32.000Z</time>
</trkpt>
<trkpt lat="45.8881010" lon="9.8333440">
	<ele>1456.60</ele>
	<time>2023-11-18T11:57:33.000Z</time>
</trkpt>
<trkpt lat="45.8880970" lon="9.8333600">
	<ele>1456.60</ele>
	<time>2023-11-18T11:57:34.000Z</time>
</trkpt>
<trkpt lat="45.8880910" lon="9.8333750">
	<ele>1456.40</ele>
	<time>2023-11-18T11:57:35.000Z</time>
</trkpt>
<trkpt lat="45.8880890" lon="9.8333880">
	<ele>1456.20</ele>
	<time>2023-11-18T11:57:36.000Z</time>
</trkpt>
<trkpt lat="45.8880840" lon="9.8334060">
	<ele>1456.20</ele>
	<time>2023-11-18T11:57:37.000Z</time>
</trkpt>
<trkpt lat="45.8880810" lon="9.8334180">
	<ele>1456.00</ele>
	<time>2023-11-18T11:57:38.000Z</time>
</trkpt>
<trkpt lat="45.8880770" lon="9.8334310">
	<ele>1456.00</ele>
	<time>2023-11-18T11:57:39.000Z</time>
</trkpt>
<trkpt lat="45.8880750" lon="9.8334480">
	<ele>1455.80</ele>
	<time>2023-11-18T11:57:40.000Z</time>
</trkpt>
<trkpt lat="45.8880740" lon="9.8334620">
	<ele>1455.80</ele>
	<time>2023-11-18T11:57:41.000Z</time>
</trkpt>
<trkpt lat="45.8880710" lon="9.8334770">
	<ele>1455.60</ele>
	<time>2023-11-18T11:57:42.000Z</time>
</trkpt>
<trkpt lat="45.8880670" lon="9.8334890">
	<ele>1455.40</ele>
	<time>2023-11-18T11:57:43.000Z</time>
</trkpt>
<trkpt lat="45.8880630" lon="9.8335020">
	<ele>1455.40</ele>
	<time>2023-11-18T11:57:44.000Z</time>
</trkpt>
<trkpt lat="45.8880630" lon="9.8335130">
	<ele>1455.20</ele>
	<time>2023-11-18T11:57:45.000Z</time>
</trkpt>
<trkpt lat="45.8880620" lon="9.8335250">
	<ele>1455.00</ele>
	<time>2023-11-18T11:57:46.000Z</time>
</trkpt>
<trkpt lat="45.8880580" lon="9.8335360">
	<ele>1454.60</ele>
	<time>2023-11-18T11:57:47.000Z</time>
</trkpt>
<trkpt lat="45.8880540" lon="9.8335490">
	<ele>1454.40</ele>
	<time>2023-11-18T11:57:48.000Z</time>
</trkpt>
<trkpt lat="45.8880500" lon="9.8335610">
	<ele>1454.20</ele>
	<time>2023-11-18T11:57:49.000Z</time>
</trkpt>
<trkpt lat="45.8880510" lon="9.8335720">
	<ele>1454.00</ele>
	<time>2023-11-18T11:57:50.000Z</time>
</trkpt>
<trkpt lat="45.8880500" lon="9.8335850">
	<ele>1453.80</ele>
	<time>2023-11-18T11:57:51.000Z</time>
</trkpt>
<trkpt lat="45.8880470" lon="9.8335970">
	<ele>1453.80</ele>
	<time>2023-11-18T11:57:52.000Z</time>
</trkpt>
<trkpt lat="45.8880450" lon="9.8336090">
	<ele>1453.40</ele>
	<time>2023-11-18T11:57:53.000Z</time>
</trkpt>
<trkpt lat="45.8880440" lon="9.8336250">
	<ele>1453.40</ele>
	<time>2023-11-18T11:57:54.000Z</time>
</trkpt>
<trkpt lat="45.8880440" lon="9.8336420">
	<ele>1453.20</ele>
	<time>2023-11-18T11:57:55.000Z</time>
</trkpt>
<trkpt lat="45.8880400" lon="9.8336540">
	<ele>1453.20</ele>
	<time>2023-11-18T11:57:56.000Z</time>
</trkpt>
<trkpt lat="45.8880340" lon="9.8336680">
	<ele>1453.00</ele>
	<time>2023-11-18T11:57:57.000Z</time>
</trkpt>
<trkpt lat="45.8880300" lon="9.8336820">
	<ele>1452.80</ele>
	<time>2023-11-18T11:57:58.000Z</time>
</trkpt>
<trkpt lat="45.8880260" lon="9.8336920">
	<ele>1452.60</ele>
	<time>2023-11-18T11:57:59.000Z</time>
</trkpt>
<trkpt lat="45.8880230" lon="9.8337100">
	<ele>1452.40</ele>
	<time>2023-11-18T11:58:00.000Z</time>
</trkpt>
<trkpt lat="45.8880170" lon="9.8337260">
	<ele>1452.20</ele>
	<time>2023-11-18T11:58:01.000Z</time>
</trkpt>
<trkpt lat="45.8880120" lon="9.8337400">
	<ele>1452.00</ele>
	<time>2023-11-18T11:58:02.000Z</time>
</trkpt>
<trkpt lat="45.8880050" lon="9.8337530">
	<ele>1451.80</ele>
	<time>2023-11-18T11:58:03.000Z</time>
</trkpt>
<trkpt lat="45.8879960" lon="9.8337670">
	<ele>1451.60</ele>
	<time>2023-11-18T11:58:04.000Z</time>
</trkpt>
<trkpt lat="45.8879880" lon="9.8337790">
	<ele>1451.60</ele>
	<time>2023-11-18T11:58:05.000Z</time>
</trkpt>
<trkpt lat="45.8879830" lon="9.8337910">
	<ele>1451.40</ele>
	<time>2023-11-18T11:58:06.000Z</time>
</trkpt>
<trkpt lat="45.8879750" lon="9.8338060">
	<ele>1451.40</ele>
	<time>2023-11-18T11:58:07.000Z</time>
</trkpt>
<trkpt lat="45.8879690" lon="9.8338200">
	<ele>1451.20</ele>
	<time>2023-11-18T11:58:08.000Z</time>
</trkpt>
<trkpt lat="45.8879650" lon="9.8338290">
	<ele>1451.00</ele>
	<time>2023-11-18T11:58:09.000Z</time>
</trkpt>
<trkpt lat="45.8879600" lon="9.8338380">
	<ele>1451.00</ele>
	<time>2023-11-18T11:58:10.000Z</time>
</trkpt>
<trkpt lat="45.8879570" lon="9.8338480">
	<ele>1450.80</ele>
	<time>2023-11-18T11:58:11.000Z</time>
</trkpt>
<trkpt lat="45.8879540" lon="9.8338600">
	<ele>1450.80</ele>
	<time>2023-11-18T11:58:12.000Z</time>
</trkpt>
<trkpt lat="45.8879520" lon="9.8338730">
	<ele>1450.60</ele>
	<time>2023-11-18T11:58:13.000Z</time>
</trkpt>
<trkpt lat="45.8879500" lon="9.8338840">
	<ele>1450.60</ele>
	<time>2023-11-18T11:58:14.000Z</time>
</trkpt>
<trkpt lat="45.8879450" lon="9.8338940">
	<ele>1450.40</ele>
	<time>2023-11-18T11:58:15.000Z</time>
</trkpt>
<trkpt lat="45.8879370" lon="9.8339060">
	<ele>1450.20</ele>
	<time>2023-11-18T11:58:16.000Z</time>
</trkpt>
<trkpt lat="45.8879280" lon="9.8339160">
	<ele>1450.00</ele>
	<time>2023-11-18T11:58:17.000Z</time>
</trkpt>
<trkpt lat="45.8879190" lon="9.8339230">
	<ele>1449.80</ele>
	<time>2023-11-18T11:58:18.000Z</time>
</trkpt>
<trkpt lat="45.8879090" lon="9.8339310">
	<ele>1449.60</ele>
	<time>2023-11-18T11:58:19.000Z</time>
</trkpt>
<trkpt lat="45.8879010" lon="9.8339390">
	<ele>1449.40</ele>
	<time>2023-11-18T11:58:20.000Z</time>
</trkpt>
<trkpt lat="45.8878940" lon="9.8339480">
	<ele>1449.20</ele>
	<time>2023-11-18T11:58:21.000Z</time>
</trkpt>
<trkpt lat="45.8878850" lon="9.8339570">
	<ele>1449.00</ele>
	<time>2023-11-18T11:58:22.000Z</time>
</trkpt>
<trkpt lat="45.8878780" lon="9.8339660">
	<ele>1448.80</ele>
	<time>2023-11-18T11:58:23.000Z</time>
</trkpt>
<trkpt lat="45.8878720" lon="9.8339770">
	<ele>1448.80</ele>
	<time>2023-11-18T11:58:24.000Z</time>
</trkpt>
<trkpt lat="45.8878680" lon="9.8339900">
	<ele>1448.60</ele>
	<time>2023-11-18T11:58:25.000Z</time>
</trkpt>
<trkpt lat="45.8878640" lon="9.8339970">
	<ele>1448.60</ele>
	<time>2023-11-18T11:58:26.000Z</time>
</trkpt>
<trkpt lat="45.8878590" lon="9.8340010">
	<ele>1448.60</ele>
	<time>2023-11-18T11:58:27.000Z</time>
</trkpt>
<trkpt lat="45.8878560" lon="9.8340060">
	<ele>1448.60</ele>
	<time>2023-11-18T11:58:28.000Z</time>
</trkpt>
<trkpt lat="45.8878560" lon="9.8340160">
	<ele>1448.40</ele>
	<time>2023-11-18T11:58:29.000Z</time>
</trkpt>
<trkpt lat="45.8878530" lon="9.8340240">
	<ele>1448.40</ele>
	<time>2023-11-18T11:58:30.000Z</time>
</trkpt>
<trkpt lat="45.8878470" lon="9.8340360">
	<ele>1448.40</ele>
	<time>2023-11-18T11:58:31.000Z</time>
</trkpt>
<trkpt lat="45.8878410" lon="9.8340460">
	<ele>1448.20</ele>
	<time>2023-11-18T11:58:32.000Z</time>
</trkpt>
<trkpt lat="45.8878340" lon="9.8340530">
	<ele>1448.00</ele>
	<time>2023-11-18T11:58:33.000Z</time>
</trkpt>
<trkpt lat="45.8878300" lon="9.8340580">
	<ele>1447.80</ele>
	<time>2023-11-18T11:58:34.000Z</time>
</trkpt>
<trkpt lat="45.8878250" lon="9.8340630">
	<ele>1447.60</ele>
	<time>2023-11-18T11:58:35.000Z</time>
</trkpt>
<trkpt lat="45.8878200" lon="9.8340720">
	<ele>1447.20</ele>
	<time>2023-11-18T11:58:36.000Z</time>
</trkpt>
<trkpt lat="45.8878170" lon="9.8340770">
	<ele>1447.00</ele>
	<time>2023-11-18T11:58:37.000Z</time>
</trkpt>
<trkpt lat="45.8878170" lon="9.8340790">
	<ele>1446.80</ele>
	<time>2023-11-18T11:58:38.000Z</time>
</trkpt>
<trkpt lat="45.8878180" lon="9.8340770">
	<ele>1446.60</ele>
	<time>2023-11-18T11:58:39.000Z</time>
</trkpt>
<trkpt lat="45.8878200" lon="9.8340740">
	<ele>1446.60</ele>
	<time>2023-11-18T11:58:40.000Z</time>
</trkpt>
<trkpt lat="45.8878220" lon="9.8340720">
	<ele>1446.40</ele>
	<time>2023-11-18T11:58:41.000Z</time>
</trkpt>
<trkpt lat="45.8878230" lon="9.8340720">
	<ele>1446.40</ele>
	<time>2023-11-18T11:58:42.000Z</time>
</trkpt>
<trkpt lat="45.8878240" lon="9.8340710">
	<ele>1446.40</ele>
	<time>2023-11-18T11:58:43.000Z</time>
</trkpt>
<trkpt lat="45.8878230" lon="9.8340710">
	<ele>1446.60</ele>
	<time>2023-11-18T11:58:44.000Z</time>
</trkpt>
<trkpt lat="45.8878220" lon="9.8340760">
	<ele>1446.60</ele>
	<time>2023-11-18T11:58:45.000Z</time>
</trkpt>
<trkpt lat="45.8878210" lon="9.8340830">
	<ele>1446.60</ele>
	<time>2023-11-18T11:58:46.000Z</time>
</trkpt>
<trkpt lat="45.8878170" lon="9.8340880">
	<ele>1446.20</ele>
	<time>2023-11-18T11:58:47.000Z</time>
</trkpt>
<trkpt lat="45.8878130" lon="9.8340950">
	<ele>1446.20</ele>
	<time>2023-11-18T11:58:48.000Z</time>
</trkpt>
<trkpt lat="45.8878100" lon="9.8341050">
	<ele>1446.00</ele>
	<time>2023-11-18T11:58:49.000Z</time>
</trkpt>
<trkpt lat="45.8878070" lon="9.8341130">
	<ele>1446.00</ele>
	<time>2023-11-18T11:58:50.000Z</time>
</trkpt>
<trkpt lat="45.8878050" lon="9.8341220">
	<ele>1445.80</ele>
	<time>2023-11-18T11:58:51.000Z</time>
</trkpt>
<trkpt lat="45.8878010" lon="9.8341290">
	<ele>1445.80</ele>
	<time>2023-11-18T11:58:52.000Z</time>
</trkpt>
<trkpt lat="45.8877920" lon="9.8341380">
	<ele>1445.60</ele>
	<time>2023-11-18T11:58:53.000Z</time>
</trkpt>
<trkpt lat="45.8877850" lon="9.8341520">
	<ele>1445.40</ele>
	<time>2023-11-18T11:58:54.000Z</time>
</trkpt>
<trkpt lat="45.8877780" lon="9.8341680">
	<ele>1445.20</ele>
	<time>2023-11-18T11:58:55.000Z</time>
</trkpt>
<trkpt lat="45.8877710" lon="9.8341770">
	<ele>1444.80</ele>
	<time>2023-11-18T11:58:56.000Z</time>
</trkpt>
<trkpt lat="45.8877630" lon="9.8341870">
	<ele>1444.60</ele>
	<time>2023-11-18T11:58:57.000Z</time>
</trkpt>
<trkpt lat="45.8877560" lon="9.8341960">
	<ele>1444.60</ele>
	<time>2023-11-18T11:58:58.000Z</time>
</trkpt>
<trkpt lat="45.8877480" lon="9.8342090">
	<ele>1444.40</ele>
	<time>2023-11-18T11:58:59.000Z</time>
</trkpt>
<trkpt lat="45.8877420" lon="9.8342180">
	<ele>1444.20</ele>
	<time>2023-11-18T11:59:00.000Z</time>
</trkpt>
<trkpt lat="45.8877390" lon="9.8342220">
	<ele>1444.00</ele>
	<time>2023-11-18T11:59:01.000Z</time>
</trkpt>
<trkpt lat="45.8877360" lon="9.8342290">
	<ele>1443.80</ele>
	<time>2023-11-18T11:59:02.000Z</time>
</trkpt>
<trkpt lat="45.8877310" lon="9.8342370">
	<ele>1443.80</ele>
	<time>2023-11-18T11:59:03.000Z</time>
</trkpt>
<trkpt lat="45.8877240" lon="9.8342440">
	<ele>1443.80</ele>
	<time>2023-11-18T11:59:04.000Z</time>
</trkpt>
<trkpt lat="45.8877130" lon="9.8342510">
	<ele>1443.60</ele>
	<time>2023-11-18T11:59:05.000Z</time>
</trkpt>
<trkpt lat="45.8877020" lon="9.8342610">
	<ele>1443.40</ele>
	<time>2023-11-18T11:59:06.000Z</time>
</trkpt>
<trkpt lat="45.8876910" lon="9.8342690">
	<ele>1443.20</ele>
	<time>2023-11-18T11:59:07.000Z</time>
</trkpt>
<trkpt lat="45.8876780" lon="9.8342770">
	<ele>1443.20</ele>
	<time>2023-11-18T11:59:08.000Z</time>
</trkpt>
<trkpt lat="45.8876670" lon="9.8342870">
	<ele>1443.00</ele>
	<time>2023-11-18T11:59:09.000Z</time>
</trkpt>
<trkpt lat="45.8876560" lon="9.8342990">
	<ele>1443.00</ele>
	<time>2023-11-18T11:59:10.000Z</time>
</trkpt>
<trkpt lat="45.8876460" lon="9.8343070">
	<ele>1443.00</ele>
	<time>2023-11-18T11:59:11.000Z</time>
</trkpt>
<trkpt lat="45.8876380" lon="9.8343150">
	<ele>1442.80</ele>
	<time>2023-11-18T11:59:12.000Z</time>
</trkpt>
<trkpt lat="45.8876320" lon="9.8343230">
	<ele>1442.80</ele>
	<time>2023-11-18T11:59:13.000Z</time>
</trkpt>
<trkpt lat="45.8876270" lon="9.8343320">
	<ele>1442.60</ele>
	<time>2023-11-18T11:59:14.000Z</time>
</trkpt>
<trkpt lat="45.8876210" lon="9.8343450">
	<ele>1442.60</ele>
	<time>2023-11-18T11:59:15.000Z</time>
</trkpt>
<trkpt lat="45.8876130" lon="9.8343590">
	<ele>1442.60</ele>
	<time>2023-11-18T11:59:16.000Z</time>
</trkpt>
<trkpt lat="45.8876030" lon="9.8343700">
	<ele>1442.40</ele>
	<time>2023-11-18T11:59:17.000Z</time>
</trkpt>
<trkpt lat="45.8875920" lon="9.8343780">
	<ele>1442.20</ele>
	<time>2023-11-18T11:59:18.000Z</time>
</trkpt>
<trkpt lat="45.8875820" lon="9.8343920">
	<ele>1442.00</ele>
	<time>2023-11-18T11:59:19.000Z</time>
</trkpt>
<trkpt lat="45.8875730" lon="9.8344040">
	<ele>1441.80</ele>
	<time>2023-11-18T11:59:20.000Z</time>
</trkpt>
<trkpt lat="45.8875630" lon="9.8344170">
	<ele>1441.60</ele>
	<time>2023-11-18T11:59:21.000Z</time>
</trkpt>
<trkpt lat="45.8875560" lon="9.8344300">
	<ele>1441.40</ele>
	<time>2023-11-18T11:59:22.000Z</time>
</trkpt>
<trkpt lat="45.8875500" lon="9.8344380">
	<ele>1441.20</ele>
	<time>2023-11-18T11:59:23.000Z</time>
</trkpt>
<trkpt lat="45.8875450" lon="9.8344450">
	<ele>1441.20</ele>
	<time>2023-11-18T11:59:24.000Z</time>
</trkpt>
<trkpt lat="45.8875370" lon="9.8344480">
	<ele>1441.00</ele>
	<time>2023-11-18T11:59:25.000Z</time>
</trkpt>
<trkpt lat="45.8875280" lon="9.8344520">
	<ele>1440.80</ele>
	<time>2023-11-18T11:59:26.000Z</time>
</trkpt>
<trkpt lat="45.8875190" lon="9.8344560">
	<ele>1440.80</ele>
	<time>2023-11-18T11:59:27.000Z</time>
</trkpt>
<trkpt lat="45.8875120" lon="9.8344630">
	<ele>1440.60</ele>
	<time>2023-11-18T11:59:28.000Z</time>
</trkpt>
<trkpt lat="45.8875060" lon="9.8344680">
	<ele>1440.60</ele>
	<time>2023-11-18T11:59:29.000Z</time>
</trkpt>
<trkpt lat="45.8875010" lon="9.8344740">
	<ele>1440.60</ele>
	<time>2023-11-18T11:59:30.000Z</time>
</trkpt>
<trkpt lat="45.8874940" lon="9.8344780">
	<ele>1440.40</ele>
	<time>2023-11-18T11:59:31.000Z</time>
</trkpt>
<trkpt lat="45.8874820" lon="9.8344820">
	<ele>1440.40</ele>
	<time>2023-11-18T11:59:32.000Z</time>
</trkpt>
<trkpt lat="45.8874680" lon="9.8344930">
	<ele>1440.40</ele>
	<time>2023-11-18T11:59:33.000Z</time>
</trkpt>
<trkpt lat="45.8874530" lon="9.8344980">
	<ele>1440.40</ele>
	<time>2023-11-18T11:59:34.000Z</time>
</trkpt>
<trkpt lat="45.8874460" lon="9.8345040">
	<ele>1440.20</ele>
	<time>2023-11-18T11:59:35.000Z</time>
</trkpt>
<trkpt lat="45.8874410" lon="9.8345120">
	<ele>1440.20</ele>
	<time>2023-11-18T11:59:36.000Z</time>
</trkpt>
<trkpt lat="45.8874360" lon="9.8345150">
	<ele>1440.20</ele>
	<time>2023-11-18T11:59:37.000Z</time>
</trkpt>
<trkpt lat="45.8874260" lon="9.8345220">
	<ele>1440.00</ele>
	<time>2023-11-18T11:59:38.000Z</time>
</trkpt>
<trkpt lat="45.8874240" lon="9.8345270">
	<ele>1440.00</ele>
	<time>2023-11-18T11:59:39.000Z</time>
</trkpt>
<trkpt lat="45.8874220" lon="9.8345340">
	<ele>1439.80</ele>
	<time>2023-11-18T11:59:40.000Z</time>
</trkpt>
<trkpt lat="45.8874200" lon="9.8345420">
	<ele>1439.80</ele>
	<time>2023-11-18T11:59:41.000Z</time>
</trkpt>
<trkpt lat="45.8874220" lon="9.8345530">
	<ele>1439.60</ele>
	<time>2023-11-18T11:59:42.000Z</time>
</trkpt>
<trkpt lat="45.8874150" lon="9.8345630">
	<ele>1439.60</ele>
	<time>2023-11-18T11:59:43.000Z</time>
</trkpt>
<trkpt lat="45.8874070" lon="9.8345740">
	<ele>1439.60</ele>
	<time>2023-11-18T11:59:44.000Z</time>
</trkpt>
<trkpt lat="45.8874000" lon="9.8345840">
	<ele>1439.60</ele>
	<time>2023-11-18T11:59:45.000Z</time>
</trkpt>
<trkpt lat="45.8873910" lon="9.8345930">
	<ele>1439.40</ele>
	<time>2023-11-18T11:59:46.000Z</time>
</trkpt>
<trkpt lat="45.8873810" lon="9.8345990">
	<ele>1439.40</ele>
	<time>2023-11-18T11:59:47.000Z</time>
</trkpt>
<trkpt lat="45.8873730" lon="9.8346040">
	<ele>1439.40</ele>
	<time>2023-11-18T11:59:48.000Z</time>
</trkpt>
<trkpt lat="45.8873650" lon="9.8346110">
	<ele>1439.40</ele>
	<time>2023-11-18T11:59:49.000Z</time>
</trkpt>
<trkpt lat="45.8873570" lon="9.8346190">
	<ele>1439.20</ele>
	<time>2023-11-18T11:59:50.000Z</time>
</trkpt>
<trkpt lat="45.8873450" lon="9.8346310">
	<ele>1439.00</ele>
	<time>2023-11-18T11:59:51.000Z</time>
</trkpt>
<trkpt lat="45.8873350" lon="9.8346450">
	<ele>1438.80</ele>
	<time>2023-11-18T11:59:52.000Z</time>
</trkpt>
<trkpt lat="45.8873230" lon="9.8346620">
	<ele>1438.80</ele>
	<time>2023-11-18T11:59:53.000Z</time>
</trkpt>
<trkpt lat="45.8873160" lon="9.8346690">
	<ele>1438.60</ele>
	<time>2023-11-18T11:59:54.000Z</time>
</trkpt>
<trkpt lat="45.8873060" lon="9.8346770">
	<ele>1438.60</ele>
	<time>2023-11-18T11:59:55.000Z</time>
</trkpt>
<trkpt lat="45.8872950" lon="9.8346800">
	<ele>1438.40</ele>
	<time>2023-11-18T11:59:56.000Z</time>
</trkpt>
<trkpt lat="45.8872860" lon="9.8346840">
	<ele>1438.40</ele>
	<time>2023-11-18T11:59:57.000Z</time>
</trkpt>
<trkpt lat="45.8872740" lon="9.8346930">
	<ele>1438.20</ele>
	<time>2023-11-18T11:59:58.000Z</time>
</trkpt>
<trkpt lat="45.8872640" lon="9.8346970">
	<ele>1438.20</ele>
	<time>2023-11-18T11:59:59.000Z</time>
</trkpt>
<trkpt lat="45.8872520" lon="9.8347000">
	<ele>1438.00</ele>
	<time>2023-11-18T12:00:00.000Z</time>
</trkpt>
<trkpt lat="45.8872380" lon="9.8347030">
	<ele>1438.00</ele>
	<time>2023-11-18T12:00:01.000Z</time>
</trkpt>
<trkpt lat="45.8872250" lon="9.8347100">
	<ele>1437.80</ele>
	<time>2023-11-18T12:00:02.000Z</time>
</trkpt>
<trkpt lat="45.8872160" lon="9.8347190">
	<ele>1437.80</ele>
	<time>2023-11-18T12:00:03.000Z</time>
</trkpt>
<trkpt lat="45.8872080" lon="9.8347220">
	<ele>1437.60</ele>
	<time>2023-11-18T12:00:04.000Z</time>
</trkpt>
<trkpt lat="45.8871990" lon="9.8347250">
	<ele>1437.60</ele>
	<time>2023-11-18T12:00:05.000Z</time>
</trkpt>
<trkpt lat="45.8871890" lon="9.8347320">
	<ele>1437.40</ele>
	<time>2023-11-18T12:00:06.000Z</time>
</trkpt>
<trkpt lat="45.8871770" lon="9.8347420">
	<ele>1437.40</ele>
	<time>2023-11-18T12:00:07.000Z</time>
</trkpt>
<trkpt lat="45.8871620" lon="9.8347480">
	<ele>1437.20</ele>
	<time>2023-11-18T12:00:08.000Z</time>
</trkpt>
<trkpt lat="45.8871460" lon="9.8347510">
	<ele>1437.20</ele>
	<time>2023-11-18T12:00:09.000Z</time>
</trkpt>
<trkpt lat="45.8871340" lon="9.8347530">
	<ele>1437.00</ele>
	<time>2023-11-18T12:00:10.000Z</time>
</trkpt>
<trkpt lat="45.8871220" lon="9.8347590">
	<ele>1437.00</ele>
	<time>2023-11-18T12:00:11.000Z</time>
</trkpt>
<trkpt lat="45.8871130" lon="9.8347640">
	<ele>1437.00</ele>
	<time>2023-11-18T12:00:12.000Z</time>
</trkpt>
<trkpt lat="45.8871030" lon="9.8347690">
	<ele>1437.00</ele>
	<time>2023-11-18T12:00:13.000Z</time>
</trkpt>
<trkpt lat="45.8870920" lon="9.8347760">
	<ele>1437.20</ele>
	<time>2023-11-18T12:00:14.000Z</time>
</trkpt>
<trkpt lat="45.8870820" lon="9.8347770">
	<ele>1437.20</ele>
	<time>2023-11-18T12:00:15.000Z</time>
</trkpt>
<trkpt lat="45.8870720" lon="9.8347790">
	<ele>1437.40</ele>
	<time>2023-11-18T12:00:16.000Z</time>
</trkpt>
<trkpt lat="45.8870650" lon="9.8347780">
	<ele>1437.60</ele>
	<time>2023-11-18T12:00:17.000Z</time>
</trkpt>
<trkpt lat="45.8870580" lon="9.8347770">
	<ele>1437.80</ele>
	<time>2023-11-18T12:00:18.000Z</time>
</trkpt>
<trkpt lat="45.8870490" lon="9.8347810">
	<ele>1438.20</ele>
	<time>2023-11-18T12:00:19.000Z</time>
</trkpt>
<trkpt lat="45.8870410" lon="9.8347840">
	<ele>1438.40</ele>
	<time>2023-11-18T12:00:20.000Z</time>
</trkpt>
<trkpt lat="45.8870310" lon="9.8347840">
	<ele>1438.60</ele>
	<time>2023-11-18T12:00:21.000Z</time>
</trkpt>
<trkpt lat="45.8870190" lon="9.8347860">
	<ele>1438.80</ele>
	<time>2023-11-18T12:00:22.000Z</time>
</trkpt>
<trkpt lat="45.8870080" lon="9.8347920">
	<ele>1439.00</ele>
	<time>2023-11-18T12:00:23.000Z</time>
</trkpt>
<trkpt lat="45.8869960" lon="9.8348000">
	<ele>1439.00</ele>
	<time>2023-11-18T12:00:24.000Z</time>
</trkpt>
<trkpt lat="45.8869860" lon="9.8348080">
	<ele>1439.20</ele>
	<time>2023-11-18T12:00:25.000Z</time>
</trkpt>
<trkpt lat="45.8869750" lon="9.8348180">
	<ele>1439.20</ele>
	<time>2023-11-18T12:00:26.000Z</time>
</trkpt>
<trkpt lat="45.8869650" lon="9.8348260">
	<ele>1439.20</ele>
	<time>2023-11-18T12:00:27.000Z</time>
</trkpt>
<trkpt lat="45.8869560" lon="9.8348330">
	<ele>1439.20</ele>
	<time>2023-11-18T12:00:28.000Z</time>
</trkpt>
<trkpt lat="45.8869460" lon="9.8348400">
	<ele>1439.20</ele>
	<time>2023-11-18T12:00:29.000Z</time>
</trkpt>
<trkpt lat="45.8869380" lon="9.8348450">
	<ele>1439.20</ele>
	<time>2023-11-18T12:00:30.000Z</time>
</trkpt>
<trkpt lat="45.8869260" lon="9.8348490">
	<ele>1439.20</ele>
	<time>2023-11-18T12:00:31.000Z</time>
</trkpt>
<trkpt lat="45.8869160" lon="9.8348530">
	<ele>1439.20</ele>
	<time>2023-11-18T12:00:32.000Z</time>
</trkpt>
<trkpt lat="45.8869040" lon="9.8348530">
	<ele>1439.20</ele>
	<time>2023-11-18T12:00:33.000Z</time>
</trkpt>
<trkpt lat="45.8868930" lon="9.8348510">
	<ele>1439.40</ele>
	<time>2023-11-18T12:00:34.000Z</time>
</trkpt>
<trkpt lat="45.8868810" lon="9.8348540">
	<ele>1439.40</ele>
	<time>2023-11-18T12:00:35.000Z</time>
</trkpt>
<trkpt lat="45.8868680" lon="9.8348580">
	<ele>1439.60</ele>
	<time>2023-11-18T12:00:36.000Z</time>
</trkpt>
<trkpt lat="45.8868550" lon="9.8348650">
	<ele>1439.60</ele>
	<time>2023-11-18T12:00:37.000Z</time>
</trkpt>
<trkpt lat="45.8868430" lon="9.8348720">
	<ele>1439.60</ele>
	<time>2023-11-18T12:00:38.000Z</time>
</trkpt>
<trkpt lat="45.8868370" lon="9.8348800">
	<ele>1439.60</ele>
	<time>2023-11-18T12:00:39.000Z</time>
</trkpt>
<trkpt lat="45.8868310" lon="9.8348860">
	<ele>1439.40</ele>
	<time>2023-11-18T12:00:40.000Z</time>
</trkpt>
<trkpt lat="45.8868220" lon="9.8348930">
	<ele>1439.40</ele>
	<time>2023-11-18T12:00:41.000Z</time>
</trkpt>
<trkpt lat="45.8868090" lon="9.8348990">
	<ele>1439.40</ele>
	<time>2023-11-18T12:00:42.000Z</time>
</trkpt>
<trkpt lat="45.8867960" lon="9.8349050">
	<ele>1439.20</ele>
	<time>2023-11-18T12:00:43.000Z</time>
</trkpt>
<trkpt lat="45.8867820" lon="9.8349070">
	<ele>1439.00</ele>
	<time>2023-11-18T12:00:44.000Z</time>
</trkpt>
<trkpt lat="45.8867670" lon="9.8349070">
	<ele>1439.00</ele>
	<time>2023-11-18T12:00:45.000Z</time>
</trkpt>
<trkpt lat="45.8867510" lon="9.8349100">
	<ele>1438.80</ele>
	<time>2023-11-18T12:00:46.000Z</time>
</trkpt>
<trkpt lat="45.8867380" lon="9.8349160">
	<ele>1438.60</ele>
	<time>2023-11-18T12:00:47.000Z</time>
</trkpt>
<trkpt lat="45.8867250" lon="9.8349180">
	<ele>1438.60</ele>
	<time>2023-11-18T12:00:48.000Z</time>
</trkpt>
<trkpt lat="45.8867150" lon="9.8349190">
	<ele>1438.40</ele>
	<time>2023-11-18T12:00:49.000Z</time>
</trkpt>
<trkpt lat="45.8867050" lon="9.8349200">
	<ele>1438.20</ele>
	<time>2023-11-18T12:00:50.000Z</time>
</trkpt>
<trkpt lat="45.8866980" lon="9.8349160">
	<ele>1438.20</ele>
	<time>2023-11-18T12:00:51.000Z</time>
</trkpt>
<trkpt lat="45.8866950" lon="9.8349130">
	<ele>1438.00</ele>
	<time>2023-11-18T12:00:52.000Z</time>
</trkpt>
<trkpt lat="45.8866970" lon="9.8349130">
	<ele>1437.80</ele>
	<time>2023-11-18T12:00:53.000Z</time>
</trkpt>
<trkpt lat="45.8866960" lon="9.8349130">
	<ele>1437.80</ele>
	<time>2023-11-18T12:00:54.000Z</time>
</trkpt>
<trkpt lat="45.8866960" lon="9.8349130">
	<ele>1437.80</ele>
	<time>2023-11-18T12:00:55.000Z</time>
</trkpt>
<trkpt lat="45.8866960" lon="9.8349110">
	<ele>1437.60</ele>
	<time>2023-11-18T12:00:56.000Z</time>
</trkpt>
<trkpt lat="45.8866950" lon="9.8349080">
	<ele>1437.60</ele>
	<time>2023-11-18T12:00:57.000Z</time>
</trkpt>
<trkpt lat="45.8866940" lon="9.8349080">
	<ele>1437.60</ele>
	<time>2023-11-18T12:00:58.000Z</time>
</trkpt>
<trkpt lat="45.8866960" lon="9.8349050">
	<ele>1437.60</ele>
	<time>2023-11-18T12:00:59.000Z</time>
</trkpt>
<trkpt lat="45.8866950" lon="9.8349050">
	<ele>1437.60</ele>
	<time>2023-11-18T12:01:00.000Z</time>
</trkpt>
<trkpt lat="45.8866940" lon="9.8349060">
	<ele>1437.60</ele>
	<time>2023-11-18T12:01:01.000Z</time>
</trkpt>
<trkpt lat="45.8866940" lon="9.8349060">
	<ele>1437.60</ele>
	<time>2023-11-18T12:01:02.000Z</time>
</trkpt>
<trkpt lat="45.8866940" lon="9.8349060">
	<ele>1437.80</ele>
	<time>2023-11-18T12:01:03.000Z</time>
</trkpt>
<trkpt lat="45.8866940" lon="9.8349060">
	<ele>1437.80</ele>
	<time>2023-11-18T12:01:04.000Z</time>
</trkpt>
<trkpt lat="45.8866940" lon="9.8349060">
	<ele>1437.80</ele>
	<time>2023-11-18T12:01:05.000Z</time>
</trkpt>
<trkpt lat="45.8866940" lon="9.8349060">
	<ele>1438.00</ele>
	<time>2023-11-18T12:01:06.000Z</time>
</trkpt>
<trkpt lat="45.8866940" lon="9.8349060">
	<ele>1438.00</ele>
	<time>2023-11-18T12:01:07.000Z</time>
</trkpt>
<trkpt lat="45.8866940" lon="9.8349060">
	<ele>1438.00</ele>
	<time>2023-11-18T12:01:08.000Z</time>
</trkpt>
<trkpt lat="45.8866940" lon="9.8349060">
	<ele>1438.00</ele>
	<time>2023-11-18T12:01:09.000Z</time>
</trkpt>
<trkpt lat="45.8866940" lon="9.8349060">
	<ele>1438.20</ele>
	<time>2023-11-18T12:01:10.000Z</time>
</trkpt>
<trkpt lat="45.8866940" lon="9.8349060">
	<ele>1438.20</ele>
	<time>2023-11-18T12:01:11.000Z</time>
</trkpt>
<trkpt lat="45.8866940" lon="9.8349060">
	<ele>1438.00</ele>
	<time>2023-11-18T12:01:12.000Z</time>
</trkpt>
<trkpt lat="45.8866940" lon="9.8349070">
	<ele>1437.80</ele>
	<time>2023-11-18T12:01:13.000Z</time>
</trkpt>
<trkpt lat="45.8866940" lon="9.8349070">
	<ele>1437.80</ele>
	<time>2023-11-18T12:01:14.000Z</time>
</trkpt>
<trkpt lat="45.8866940" lon="9.8349070">
	<ele>1437.60</ele>
	<time>2023-11-18T12:01:15.000Z</time>
</trkpt>
<trkpt lat="45.8866940" lon="9.8349070">
	<ele>1437.60</ele>
	<time>2023-11-18T12:01:16.000Z</time>
</trkpt>
<trkpt lat="45.8866940" lon="9.8349080">
	<ele>1437.60</ele>
	<time>2023-11-18T12:01:17.000Z</time>
</trkpt>
<trkpt lat="45.8866940" lon="9.8349080">
	<ele>1437.60</ele>
	<time>2023-11-18T12:01:18.000Z</time>
</trkpt>
<trkpt lat="45.8866900" lon="9.8349130">
	<ele>1437.40</ele>
	<time>2023-11-18T12:01:19.000Z</time>
</trkpt>
<trkpt lat="45.8866810" lon="9.8349220">
	<ele>1437.40</ele>
	<time>2023-11-18T12:01:20.000Z</time>
</trkpt>
<trkpt lat="45.8866710" lon="9.8349290">
	<ele>1437.20</ele>
	<time>2023-11-18T12:01:21.000Z</time>
</trkpt>
<trkpt lat="45.8866600" lon="9.8349350">
	<ele>1437.00</ele>
	<time>2023-11-18T12:01:22.000Z</time>
</trkpt>
<trkpt lat="45.8866500" lon="9.8349360">
	<ele>1436.60</ele>
	<time>2023-11-18T12:01:23.000Z</time>
</trkpt>
<trkpt lat="45.8866380" lon="9.8349420">
	<ele>1436.40</ele>
	<time>2023-11-18T12:01:24.000Z</time>
</trkpt>
<trkpt lat="45.8866290" lon="9.8349430">
	<ele>1436.20</ele>
	<time>2023-11-18T12:01:25.000Z</time>
</trkpt>
<trkpt lat="45.8866200" lon="9.8349420">
	<ele>1436.00</ele>
	<time>2023-11-18T12:01:26.000Z</time>
</trkpt>
<trkpt lat="45.8866120" lon="9.8349400">
	<ele>1436.00</ele>
	<time>2023-11-18T12:01:27.000Z</time>
</trkpt>
<trkpt lat="45.8866040" lon="9.8349380">
	<ele>1435.80</ele>
	<time>2023-11-18T12:01:28.000Z</time>
</trkpt>
<trkpt lat="45.8865990" lon="9.8349340">
	<ele>1435.60</ele>
	<time>2023-11-18T12:01:29.000Z</time>
</trkpt>
<trkpt lat="45.8865910" lon="9.8349330">
	<ele>1435.60</ele>
	<time>2023-11-18T12:01:30.000Z</time>
</trkpt>
<trkpt lat="45.8865820" lon="9.8349260">
	<ele>1435.40</ele>
	<time>2023-11-18T12:01:31.000Z</time>
</trkpt>
<trkpt lat="45.8865730" lon="9.8349220">
	<ele>1435.20</ele>
	<time>2023-11-18T12:01:32.000Z</time>
</trkpt>
<trkpt lat="45.8865590" lon="9.8349190">
	<ele>1434.80</ele>
	<time>2023-11-18T12:01:33.000Z</time>
</trkpt>
<trkpt lat="45.8865500" lon="9.8349160">
	<ele>1434.60</ele>
	<time>2023-11-18T12:01:34.000Z</time>
</trkpt>
<trkpt lat="45.8865430" lon="9.8349170">
	<ele>1434.20</ele>
	<time>2023-11-18T12:01:35.000Z</time>
</trkpt>
<trkpt lat="45.8865350" lon="9.8349170">
	<ele>1434.00</ele>
	<time>2023-11-18T12:01:36.000Z</time>
</trkpt>
<trkpt lat="45.8865260" lon="9.8349190">
	<ele>1433.80</ele>
	<time>2023-11-18T12:01:37.000Z</time>
</trkpt>
<trkpt lat="45.8865200" lon="9.8349210">
	<ele>1433.60</ele>
	<time>2023-11-18T12:01:38.000Z</time>
</trkpt>
<trkpt lat="45.8865120" lon="9.8349190">
	<ele>1433.60</ele>
	<time>2023-11-18T12:01:39.000Z</time>
</trkpt>
<trkpt lat="45.8865010" lon="9.8349150">
	<ele>1433.20</ele>
	<time>2023-11-18T12:01:40.000Z</time>
</trkpt>
<trkpt lat="45.8864930" lon="9.8349130">
	<ele>1432.80</ele>
	<time>2023-11-18T12:01:41.000Z</time>
</trkpt>
<trkpt lat="45.8864830" lon="9.8349120">
	<ele>1432.40</ele>
	<time>2023-11-18T12:01:42.000Z</time>
</trkpt>
<trkpt lat="45.8864720" lon="9.8349120">
	<ele>1432.20</ele>
	<time>2023-11-18T12:01:43.000Z</time>
</trkpt>
<trkpt lat="45.8864640" lon="9.8349140">
	<ele>1432.20</ele>
	<time>2023-11-18T12:01:44.000Z</time>
</trkpt>
<trkpt lat="45.8864580" lon="9.8349150">
	<ele>1431.80</ele>
	<time>2023-11-18T12:01:45.000Z</time>
</trkpt>
<trkpt lat="45.8864500" lon="9.8349140">
	<ele>1431.60</ele>
	<time>2023-11-18T12:01:46.000Z</time>
</trkpt>
<trkpt lat="45.8864420" lon="9.8349150">
	<ele>1431.40</ele>
	<time>2023-11-18T12:01:47.000Z</time>
</trkpt>
<trkpt lat="45.8864370" lon="9.8349160">
	<ele>1431.20</ele>
	<time>2023-11-18T12:01:48.000Z</time>
</trkpt>
<trkpt lat="45.8864340" lon="9.8349150">
	<ele>1431.00</ele>
	<time>2023-11-18T12:01:49.000Z</time>
</trkpt>
<trkpt lat="45.8864260" lon="9.8349180">
	<ele>1430.80</ele>
	<time>2023-11-18T12:01:50.000Z</time>
</trkpt>
<trkpt lat="45.8864170" lon="9.8349170">
	<ele>1430.40</ele>
	<time>2023-11-18T12:01:51.000Z</time>
</trkpt>
<trkpt lat="45.8864080" lon="9.8349150">
	<ele>1430.20</ele>
	<time>2023-11-18T12:01:52.000Z</time>
</trkpt>
<trkpt lat="45.8864000" lon="9.8349090">
	<ele>1430.00</ele>
	<time>2023-11-18T12:01:53.000Z</time>
</trkpt>
<trkpt lat="45.8863960" lon="9.8349050">
	<ele>1430.00</ele>
	<time>2023-11-18T12:01:54.000Z</time>
</trkpt>
<trkpt lat="45.8863980" lon="9.8348920">
	<ele>1429.80</ele>
	<time>2023-11-18T12:01:55.000Z</time>
</trkpt>
<trkpt lat="45.8863940" lon="9.8348870">
	<ele>1429.60</ele>
	<time>2023-11-18T12:01:56.000Z</time>
</trkpt>
<trkpt lat="45.8863870" lon="9.8348840">
	<ele>1429.40</ele>
	<time>2023-11-18T12:01:57.000Z</time>
</trkpt>
<trkpt lat="45.8863820" lon="9.8348810">
	<ele>1429.20</ele>
	<time>2023-11-18T12:01:58.000Z</time>
</trkpt>
<trkpt lat="45.8863800" lon="9.8348790">
	<ele>1429.00</ele>
	<time>2023-11-18T12:01:59.000Z</time>
</trkpt>
<trkpt lat="45.8863780" lon="9.8348770">
	<ele>1428.80</ele>
	<time>2023-11-18T12:02:00.000Z</time>
</trkpt>
<trkpt lat="45.8863780" lon="9.8348690">
	<ele>1428.80</ele>
	<time>2023-11-18T12:02:01.000Z</time>
</trkpt>
<trkpt lat="45.8863780" lon="9.8348620">
	<ele>1428.60</ele>
	<time>2023-11-18T12:02:02.000Z</time>
</trkpt>
<trkpt lat="45.8863770" lon="9.8348610">
	<ele>1428.40</ele>
	<time>2023-11-18T12:02:03.000Z</time>
</trkpt>
<trkpt lat="45.8863770" lon="9.8348550">
	<ele>1428.20</ele>
	<time>2023-11-18T12:02:04.000Z</time>
</trkpt>
<trkpt lat="45.8863780" lon="9.8348550">
	<ele>1428.00</ele>
	<time>2023-11-18T12:02:05.000Z</time>
</trkpt>
<trkpt lat="45.8863830" lon="9.8348540">
	<ele>1428.00</ele>
	<time>2023-11-18T12:02:06.000Z</time>
</trkpt>
<trkpt lat="45.8863850" lon="9.8348490">
	<ele>1427.80</ele>
	<time>2023-11-18T12:02:07.000Z</time>
</trkpt>
<trkpt lat="45.8863860" lon="9.8348480">
	<ele>1427.60</ele>
	<time>2023-11-18T12:02:08.000Z</time>
</trkpt>
<trkpt lat="45.8863870" lon="9.8348480">
	<ele>1427.40</ele>
	<time>2023-11-18T12:02:09.000Z</time>
</trkpt>
<trkpt lat="45.8863860" lon="9.8348490">
	<ele>1427.40</ele>
	<time>2023-11-18T12:02:10.000Z</time>
</trkpt>
<trkpt lat="45.8863840" lon="9.8348510">
	<ele>1427.20</ele>
	<time>2023-11-18T12:02:11.000Z</time>
</trkpt>
<trkpt lat="45.8863820" lon="9.8348510">
	<ele>1427.20</ele>
	<time>2023-11-18T12:02:12.000Z</time>
</trkpt>
<trkpt lat="45.8863820" lon="9.8348490">
	<ele>1427.20</ele>
	<time>2023-11-18T12:02:13.000Z</time>
</trkpt>
<trkpt lat="45.8863810" lon="9.8348500">
	<ele>1427.20</ele>
	<time>2023-11-18T12:02:14.000Z</time>
</trkpt>
<trkpt lat="45.8863870" lon="9.8348490">
	<ele>1427.20</ele>
	<time>2023-11-18T12:02:15.000Z</time>
</trkpt>
<trkpt lat="45.8863910" lon="9.8348460">
	<ele>1427.20</ele>
	<time>2023-11-18T12:02:16.000Z</time>
</trkpt>
<trkpt lat="45.8863950" lon="9.8348410">
	<ele>1427.20</ele>
	<time>2023-11-18T12:02:17.000Z</time>
</trkpt>
<trkpt lat="45.8863990" lon="9.8348340">
	<ele>1427.20</ele>
	<time>2023-11-18T12:02:18.000Z</time>
</trkpt>
<trkpt lat="45.8864000" lon="9.8348250">
	<ele>1427.20</ele>
	<time>2023-11-18T12:02:19.000Z</time>
</trkpt>
<trkpt lat="45.8864000" lon="9.8348150">
	<ele>1427.20</ele>
	<time>2023-11-18T12:02:20.000Z</time>
</trkpt>
<trkpt lat="45.8863990" lon="9.8348060">
	<ele>1427.20</ele>
	<time>2023-11-18T12:02:21.000Z</time>
</trkpt>
<trkpt lat="45.8863950" lon="9.8347990">
	<ele>1427.00</ele>
	<time>2023-11-18T12:02:22.000Z</time>
</trkpt>
<trkpt lat="45.8863880" lon="9.8347910">
	<ele>1426.80</ele>
	<time>2023-11-18T12:02:23.000Z</time>
</trkpt>
<trkpt lat="45.8863810" lon="9.8347850">
	<ele>1426.40</ele>
	<time>2023-11-18T12:02:24.000Z</time>
</trkpt>
<trkpt lat="45.8863770" lon="9.8347750">
	<ele>1426.20</ele>
	<time>2023-11-18T12:02:25.000Z</time>
</trkpt>
<trkpt lat="45.8863750" lon="9.8347620">
	<ele>1426.00</ele>
	<time>2023-11-18T12:02:26.000Z</time>
</trkpt>
<trkpt lat="45.8863690" lon="9.8347550">
	<ele>1425.80</ele>
	<time>2023-11-18T12:02:27.000Z</time>
</trkpt>
<trkpt lat="45.8863630" lon="9.8347440">
	<ele>1425.60</ele>
	<time>2023-11-18T12:02:28.000Z</time>
</trkpt>
<trkpt lat="45.8863540" lon="9.8347350">
	<ele>1425.60</ele>
	<time>2023-11-18T12:02:29.000Z</time>
</trkpt>
<trkpt lat="45.8863530" lon="9.8347270">
	<ele>1425.40</ele>
	<time>2023-11-18T12:02:30.000Z</time>
</trkpt>
<trkpt lat="45.8863450" lon="9.8347180">
	<ele>1425.40</ele>
	<time>2023-11-18T12:02:31.000Z</time>
</trkpt>
<trkpt lat="45.8863390" lon="9.8347070">
	<ele>1425.20</ele>
	<time>2023-11-18T12:02:32.000Z</time>
</trkpt>
<trkpt lat="45.8863360" lon="9.8346960">
	<ele>1425.00</ele>
	<time>2023-11-18T12:02:33.000Z</time>
</trkpt>
<trkpt lat="45.8863340" lon="9.8346870">
	<ele>1424.60</ele>
	<time>2023-11-18T12:02:34.000Z</time>
</trkpt>
<trkpt lat="45.8863350" lon="9.8346730">
	<ele>1424.40</ele>
	<time>2023-11-18T12:02:35.000Z</time>
</trkpt>
<trkpt lat="45.8863350" lon="9.8346630">
	<ele>1424.00</ele>
	<time>2023-11-18T12:02:36.000Z</time>
</trkpt>
<trkpt lat="45.8863310" lon="9.8346550">
	<ele>1423.80</ele>
	<time>2023-11-18T12:02:37.000Z</time>
</trkpt>
<trkpt lat="45.8863260" lon="9.8346470">
	<ele>1423.60</ele>
	<time>2023-11-18T12:02:38.000Z</time>
</trkpt>
<trkpt lat="45.8863230" lon="9.8346360">
	<ele>1423.40</ele>
	<time>2023-11-18T12:02:39.000Z</time>
</trkpt>
<trkpt lat="45.8863220" lon="9.8346240">
	<ele>1423.00</ele>
	<time>2023-11-18T12:02:40.000Z</time>
</trkpt>
<trkpt lat="45.8863220" lon="9.8346130">
	<ele>1422.80</ele>
	<time>2023-11-18T12:02:41.000Z</time>
</trkpt>
<trkpt lat="45.8863220" lon="9.8346060">
	<ele>1422.80</ele>
	<time>2023-11-18T12:02:42.000Z</time>
</trkpt>
<trkpt lat="45.8863200" lon="9.8346010">
	<ele>1422.60</ele>
	<time>2023-11-18T12:02:43.000Z</time>
</trkpt>
<trkpt lat="45.8863180" lon="9.8345930">
	<ele>1422.40</ele>
	<time>2023-11-18T12:02:44.000Z</time>
</trkpt>
<trkpt lat="45.8863130" lon="9.8345880">
	<ele>1422.20</ele>
	<time>2023-11-18T12:02:45.000Z</time>
</trkpt>
<trkpt lat="45.8863080" lon="9.8345830">
	<ele>1422.20</ele>
	<time>2023-11-18T12:02:46.000Z</time>
</trkpt>
<trkpt lat="45.8863080" lon="9.8345830">
	<ele>1421.80</ele>
	<time>2023-11-18T12:02:47.000Z</time>
</trkpt>
<trkpt lat="45.8863040" lon="9.8345870">
	<ele>1421.60</ele>
	<time>2023-11-18T12:02:48.000Z</time>
</trkpt>
<trkpt lat="45.8862990" lon="9.8345860">
	<ele>1421.40</ele>
	<time>2023-11-18T12:02:49.000Z</time>
</trkpt>
<trkpt lat="45.8862930" lon="9.8345800">
	<ele>1421.20</ele>
	<time>2023-11-18T12:02:50.000Z</time>
</trkpt>
<trkpt lat="45.8862860" lon="9.8345760">
	<ele>1421.20</ele>
	<time>2023-11-18T12:02:51.000Z</time>
</trkpt>
<trkpt lat="45.8862770" lon="9.8345670">
	<ele>1421.00</ele>
	<time>2023-11-18T12:02:52.000Z</time>
</trkpt>
<trkpt lat="45.8862730" lon="9.8345550">
	<ele>1420.80</ele>
	<time>2023-11-18T12:02:53.000Z</time>
</trkpt>
<trkpt lat="45.8862730" lon="9.8345410">
	<ele>1420.60</ele>
	<time>2023-11-18T12:02:54.000Z</time>
</trkpt>
<trkpt lat="45.8862710" lon="9.8345290">
	<ele>1420.60</ele>
	<time>2023-11-18T12:02:55.000Z</time>
</trkpt>
<trkpt lat="45.8862660" lon="9.8345190">
	<ele>1420.40</ele>
	<time>2023-11-18T12:02:56.000Z</time>
</trkpt>
<trkpt lat="45.8862610" lon="9.8345060">
	<ele>1420.20</ele>
	<time>2023-11-18T12:02:57.000Z</time>
</trkpt>
<trkpt lat="45.8862540" lon="9.8344850">
	<ele>1419.80</ele>
	<time>2023-11-18T12:02:58.000Z</time>
</trkpt>
<trkpt lat="45.8862530" lon="9.8344660">
	<ele>1419.60</ele>
	<time>2023-11-18T12:02:59.000Z</time>
</trkpt>
<trkpt lat="45.8862500" lon="9.8344530">
	<ele>1419.40</ele>
	<time>2023-11-18T12:03:00.000Z</time>
</trkpt>
<trkpt lat="45.8862470" lon="9.8344430">
	<ele>1419.00</ele>
	<time>2023-11-18T12:03:01.000Z</time>
</trkpt>
<trkpt lat="45.8862400" lon="9.8344280">
	<ele>1418.60</ele>
	<time>2023-11-18T12:03:02.000Z</time>
</trkpt>
<trkpt lat="45.8862370" lon="9.8344170">
	<ele>1418.60</ele>
	<time>2023-11-18T12:03:03.000Z</time>
</trkpt>
<trkpt lat="45.8862400" lon="9.8344120">
	<ele>1418.40</ele>
	<time>2023-11-18T12:03:04.000Z</time>
</trkpt>
<trkpt lat="45.8862490" lon="9.8344020">
	<ele>1418.20</ele>
	<time>2023-11-18T12:03:05.000Z</time>
</trkpt>
<trkpt lat="45.8862470" lon="9.8343940">
	<ele>1418.00</ele>
	<time>2023-11-18T12:03:06.000Z</time>
</trkpt>
<trkpt lat="45.8862420" lon="9.8343890">
	<ele>1417.60</ele>
	<time>2023-11-18T12:03:07.000Z</time>
</trkpt>
<trkpt lat="45.8862340" lon="9.8343830">
	<ele>1417.60</ele>
	<time>2023-11-18T12:03:08.000Z</time>
</trkpt>
<trkpt lat="45.8862280" lon="9.8343810">
	<ele>1417.40</ele>
	<time>2023-11-18T12:03:09.000Z</time>
</trkpt>
<trkpt lat="45.8862200" lon="9.8343880">
	<ele>1417.00</ele>
	<time>2023-11-18T12:03:10.000Z</time>
</trkpt>
<trkpt lat="45.8862120" lon="9.8343980">
	<ele>1416.60</ele>
	<time>2023-11-18T12:03:11.000Z</time>
</trkpt>
<trkpt lat="45.8862060" lon="9.8344040">
	<ele>1416.40</ele>
	<time>2023-11-18T12:03:12.000Z</time>
</trkpt>
<trkpt lat="45.8862030" lon="9.8344070">
	<ele>1416.00</ele>
	<time>2023-11-18T12:03:13.000Z</time>
</trkpt>
<trkpt lat="45.8862010" lon="9.8344080">
	<ele>1415.80</ele>
	<time>2023-11-18T12:03:14.000Z</time>
</trkpt>
<trkpt lat="45.8861990" lon="9.8344090">
	<ele>1415.60</ele>
	<time>2023-11-18T12:03:15.000Z</time>
</trkpt>
<trkpt lat="45.8861930" lon="9.8344100">
	<ele>1415.40</ele>
	<time>2023-11-18T12:03:16.000Z</time>
</trkpt>
<trkpt lat="45.8861910" lon="9.8344130">
	<ele>1415.20</ele>
	<time>2023-11-18T12:03:17.000Z</time>
</trkpt>
<trkpt lat="45.8861780" lon="9.8344170">
	<ele>1415.20</ele>
	<time>2023-11-18T12:03:18.000Z</time>
</trkpt>
<trkpt lat="45.8861710" lon="9.8344150">
	<ele>1415.00</ele>
	<time>2023-11-18T12:03:19.000Z</time>
</trkpt>
<trkpt lat="45.8861670" lon="9.8344180">
	<ele>1415.00</ele>
	<time>2023-11-18T12:03:20.000Z</time>
</trkpt>
<trkpt lat="45.8861600" lon="9.8344210">
	<ele>1414.60</ele>
	<time>2023-11-18T12:03:21.000Z</time>
</trkpt>
<trkpt lat="45.8861540" lon="9.8344210">
	<ele>1414.60</ele>
	<time>2023-11-18T12:03:22.000Z</time>
</trkpt>
<trkpt lat="45.8861490" lon="9.8344210">
	<ele>1414.20</ele>
	<time>2023-11-18T12:03:23.000Z</time>
</trkpt>
<trkpt lat="45.8861450" lon="9.8344200">
	<ele>1414.00</ele>
	<time>2023-11-18T12:03:24.000Z</time>
</trkpt>
<trkpt lat="45.8861400" lon="9.8344220">
	<ele>1413.80</ele>
	<time>2023-11-18T12:03:25.000Z</time>
</trkpt>
<trkpt lat="45.8861320" lon="9.8344230">
	<ele>1413.60</ele>
	<time>2023-11-18T12:03:26.000Z</time>
</trkpt>
<trkpt lat="45.8861210" lon="9.8344250">
	<ele>1413.60</ele>
	<time>2023-11-18T12:03:27.000Z</time>
</trkpt>
<trkpt lat="45.8861140" lon="9.8344290">
	<ele>1413.40</ele>
	<time>2023-11-18T12:03:28.000Z</time>
</trkpt>
<trkpt lat="45.8861090" lon="9.8344360">
	<ele>1413.00</ele>
	<time>2023-11-18T12:03:29.000Z</time>
</trkpt>
<trkpt lat="45.8861040" lon="9.8344410">
	<ele>1412.80</ele>
	<time>2023-11-18T12:03:30.000Z</time>
</trkpt>
<trkpt lat="45.8861000" lon="9.8344400">
	<ele>1412.60</ele>
	<time>2023-11-18T12:03:31.000Z</time>
</trkpt>
<trkpt lat="45.8860930" lon="9.8344400">
	<ele>1412.40</ele>
	<time>2023-11-18T12:03:32.000Z</time>
</trkpt>
<trkpt lat="45.8860880" lon="9.8344390">
	<ele>1412.20</ele>
	<time>2023-11-18T12:03:33.000Z</time>
</trkpt>
<trkpt lat="45.8860780" lon="9.8344450">
	<ele>1412.00</ele>
	<time>2023-11-18T12:03:34.000Z</time>
</trkpt>
<trkpt lat="45.8860690" lon="9.8344480">
	<ele>1411.60</ele>
	<time>2023-11-18T12:03:35.000Z</time>
</trkpt>
<trkpt lat="45.8860580" lon="9.8344560">
	<ele>1411.20</ele>
	<time>2023-11-18T12:03:36.000Z</time>
</trkpt>
<trkpt lat="45.8860480" lon="9.8344630">
	<ele>1411.00</ele>
	<time>2023-11-18T12:03:37.000Z</time>
</trkpt>
<trkpt lat="45.8860400" lon="9.8344700">
	<ele>1410.80</ele>
	<time>2023-11-18T12:03:38.000Z</time>
</trkpt>
<trkpt lat="45.8860320" lon="9.8344810">
	<ele>1410.60</ele>
	<time>2023-11-18T12:03:39.000Z</time>
</trkpt>
<trkpt lat="45.8860270" lon="9.8344850">
	<ele>1410.40</ele>
	<time>2023-11-18T12:03:40.000Z</time>
</trkpt>
<trkpt lat="45.8860210" lon="9.8344890">
	<ele>1410.20</ele>
	<time>2023-11-18T12:03:41.000Z</time>
</trkpt>
<trkpt lat="45.8860150" lon="9.8344960">
	<ele>1410.00</ele>
	<time>2023-11-18T12:03:42.000Z</time>
</trkpt>
<trkpt lat="45.8860090" lon="9.8345020">
	<ele>1409.80</ele>
	<time>2023-11-18T12:03:43.000Z</time>
</trkpt>
<trkpt lat="45.8860060" lon="9.8345090">
	<ele>1409.60</ele>
	<time>2023-11-18T12:03:44.000Z</time>
</trkpt>
<trkpt lat="45.8860040" lon="9.8345140">
	<ele>1409.40</ele>
	<time>2023-11-18T12:03:45.000Z</time>
</trkpt>
<trkpt lat="45.8860030" lon="9.8345090">
	<ele>1409.20</ele>
	<time>2023-11-18T12:03:46.000Z</time>
</trkpt>
<trkpt lat="45.8859970" lon="9.8345090">
	<ele>1408.80</ele>
	<time>2023-11-18T12:03:47.000Z</time>
</trkpt>
<trkpt lat="45.8859880" lon="9.8345070">
	<ele>1408.60</ele>
	<time>2023-11-18T12:03:48.000Z</time>
</trkpt>
<trkpt lat="45.8859770" lon="9.8345080">
	<ele>1408.60</ele>
	<time>2023-11-18T12:03:49.000Z</time>
</trkpt>
<trkpt lat="45.8859650" lon="9.8345080">
	<ele>1408.40</ele>
	<time>2023-11-18T12:03:50.000Z</time>
</trkpt>
<trkpt lat="45.8859540" lon="9.8345110">
	<ele>1408.20</ele>
	<time>2023-11-18T12:03:51.000Z</time>
</trkpt>
<trkpt lat="45.8859480" lon="9.8345150">
	<ele>1408.20</ele>
	<time>2023-11-18T12:03:52.000Z</time>
</trkpt>
<trkpt lat="45.8859400" lon="9.8345230">
	<ele>1408.00</ele>
	<time>2023-11-18T12:03:53.000Z</time>
</trkpt>
<trkpt lat="45.8859340" lon="9.8345240">
	<ele>1407.80</ele>
	<time>2023-11-18T12:03:54.000Z</time>
</trkpt>
<trkpt lat="45.8859260" lon="9.8345300">
	<ele>1407.60</ele>
	<time>2023-11-18T12:03:55.000Z</time>
</trkpt>
<trkpt lat="45.8859200" lon="9.8345390">
	<ele>1407.40</ele>
	<time>2023-11-18T12:03:56.000Z</time>
</trkpt>
<trkpt lat="45.8859170" lon="9.8345500">
	<ele>1407.20</ele>
	<time>2023-11-18T12:03:57.000Z</time>
</trkpt>
<trkpt lat="45.8859110" lon="9.8345570">
	<ele>1406.80</ele>
	<time>2023-11-18T12:03:58.000Z</time>
</trkpt>
<trkpt lat="45.8859070" lon="9.8345600">
	<ele>1406.60</ele>
	<time>2023-11-18T12:03:59.000Z</time>
</trkpt>
<trkpt lat="45.8859020" lon="9.8345660">
	<ele>1406.40</ele>
	<time>2023-11-18T12:04:00.000Z</time>
</trkpt>
<trkpt lat="45.8858960" lon="9.8345710">
	<ele>1406.20</ele>
	<time>2023-11-18T12:04:01.000Z</time>
</trkpt>
<trkpt lat="45.8858910" lon="9.8345760">
	<ele>1406.00</ele>
	<time>2023-11-18T12:04:02.000Z</time>
</trkpt>
<trkpt lat="45.8858870" lon="9.8345830">
	<ele>1406.00</ele>
	<time>2023-11-18T12:04:03.000Z</time>
</trkpt>
<trkpt lat="45.8858850" lon="9.8345880">
	<ele>1405.80</ele>
	<time>2023-11-18T12:04:04.000Z</time>
</trkpt>
<trkpt lat="45.8858820" lon="9.8345900">
	<ele>1405.60</ele>
	<time>2023-11-18T12:04:05.000Z</time>
</trkpt>
<trkpt lat="45.8858740" lon="9.8345940">
	<ele>1405.60</ele>
	<time>2023-11-18T12:04:06.000Z</time>
</trkpt>
<trkpt lat="45.8858670" lon="9.8346010">
	<ele>1405.40</ele>
	<time>2023-11-18T12:04:07.000Z</time>
</trkpt>
<trkpt lat="45.8858580" lon="9.8346070">
	<ele>1405.00</ele>
	<time>2023-11-18T12:04:08.000Z</time>
</trkpt>
<trkpt lat="45.8858480" lon="9.8346140">
	<ele>1405.00</ele>
	<time>2023-11-18T12:04:09.000Z</time>
</trkpt>
<trkpt lat="45.8858390" lon="9.8346200">
	<ele>1404.80</ele>
	<time>2023-11-18T12:04:10.000Z</time>
</trkpt>
<trkpt lat="45.8858300" lon="9.8346280">
	<ele>1404.80</ele>
	<time>2023-11-18T12:04:11.000Z</time>
</trkpt>
<trkpt lat="45.8858220" lon="9.8346370">
	<ele>1404.80</ele>
	<time>2023-11-18T12:04:12.000Z</time>
</trkpt>
<trkpt lat="45.8858150" lon="9.8346480">
	<ele>1404.80</ele>
	<time>2023-11-18T12:04:13.000Z</time>
</trkpt>
<trkpt lat="45.8858060" lon="9.8346590">
	<ele>1404.60</ele>
	<time>2023-11-18T12:04:14.000Z</time>
</trkpt>
<trkpt lat="45.8857990" lon="9.8346710">
	<ele>1404.60</ele>
	<time>2023-11-18T12:04:15.000Z</time>
</trkpt>
<trkpt lat="45.8857920" lon="9.8346810">
	<ele>1404.60</ele>
	<time>2023-11-18T12:04:16.000Z</time>
</trkpt>
<trkpt lat="45.8857850" lon="9.8346880">
	<ele>1404.60</ele>
	<time>2023-11-18T12:04:17.000Z</time>
</trkpt>
<trkpt lat="45.8857810" lon="9.8346940">
	<ele>1404.20</ele>
	<time>2023-11-18T12:04:18.000Z</time>
</trkpt>
<trkpt lat="45.8857750" lon="9.8346980">
	<ele>1404.00</ele>
	<time>2023-11-18T12:04:19.000Z</time>
</trkpt>
<trkpt lat="45.8857680" lon="9.8347050">
	<ele>1404.00</ele>
	<time>2023-11-18T12:04:20.000Z</time>
</trkpt>
<trkpt lat="45.8857640" lon="9.8347110">
	<ele>1403.80</ele>
	<time>2023-11-18T12:04:21.000Z</time>
</trkpt>
<trkpt lat="45.8857600" lon="9.8347170">
	<ele>1403.60</ele>
	<time>2023-11-18T12:04:22.000Z</time>
</trkpt>
<trkpt lat="45.8857550" lon="9.8347230">
	<ele>1403.40</ele>
	<time>2023-11-18T12:04:23.000Z</time>
</trkpt>
<trkpt lat="45.8857490" lon="9.8347300">
	<ele>1403.20</ele>
	<time>2023-11-18T12:04:24.000Z</time>
</trkpt>
<trkpt lat="45.8857450" lon="9.8347390">
	<ele>1403.20</ele>
	<time>2023-11-18T12:04:25.000Z</time>
</trkpt>
<trkpt lat="45.8857390" lon="9.8347470">
	<ele>1402.80</ele>
	<time>2023-11-18T12:04:26.000Z</time>
</trkpt>
<trkpt lat="45.8857310" lon="9.8347570">
	<ele>1402.60</ele>
	<time>2023-11-18T12:04:27.000Z</time>
</trkpt>
<trkpt lat="45.8857260" lon="9.8347630">
	<ele>1402.60</ele>
	<time>2023-11-18T12:04:28.000Z</time>
</trkpt>
<trkpt lat="45.8857210" lon="9.8347590">
	<ele>1402.40</ele>
	<time>2023-11-18T12:04:29.000Z</time>
</trkpt>
<trkpt lat="45.8857140" lon="9.8347600">
	<ele>1402.00</ele>
	<time>2023-11-18T12:04:30.000Z</time>
</trkpt>
<trkpt lat="45.8857060" lon="9.8347590">
	<ele>1401.80</ele>
	<time>2023-11-18T12:04:31.000Z</time>
</trkpt>
<trkpt lat="45.8856990" lon="9.8347600">
	<ele>1401.60</ele>
	<time>2023-11-18T12:04:32.000Z</time>
</trkpt>
<trkpt lat="45.8856920" lon="9.8347620">
	<ele>1401.40</ele>
	<time>2023-11-18T12:04:33.000Z</time>
</trkpt>
<trkpt lat="45.8856850" lon="9.8347680">
	<ele>1401.20</ele>
	<time>2023-11-18T12:04:34.000Z</time>
</trkpt>
<trkpt lat="45.8856800" lon="9.8347750">
	<ele>1401.00</ele>
	<time>2023-11-18T12:04:35.000Z</time>
</trkpt>
<trkpt lat="45.8856770" lon="9.8347830">
	<ele>1400.80</ele>
	<time>2023-11-18T12:04:36.000Z</time>
</trkpt>
<trkpt lat="45.8856710" lon="9.8347900">
	<ele>1400.60</ele>
	<time>2023-11-18T12:04:37.000Z</time>
</trkpt>
<trkpt lat="45.8856650" lon="9.8347980">
	<ele>1400.40</ele>
	<time>2023-11-18T12:04:38.000Z</time>
</trkpt>
<trkpt lat="45.8856560" lon="9.8348030">
	<ele>1400.40</ele>
	<time>2023-11-18T12:04:39.000Z</time>
</trkpt>
<trkpt lat="45.8856490" lon="9.8348110">
	<ele>1400.40</ele>
	<time>2023-11-18T12:04:40.000Z</time>
</trkpt>
<trkpt lat="45.8856430" lon="9.8348190">
	<ele>1400.20</ele>
	<time>2023-11-18T12:04:41.000Z</time>
</trkpt>
<trkpt lat="45.8856350" lon="9.8348280">
	<ele>1400.00</ele>
	<time>2023-11-18T12:04:42.000Z</time>
</trkpt>
<trkpt lat="45.8856280" lon="9.8348370">
	<ele>1399.80</ele>
	<time>2023-11-18T12:04:43.000Z</time>
</trkpt>
<trkpt lat="45.8856240" lon="9.8348430">
	<ele>1399.80</ele>
	<time>2023-11-18T12:04:44.000Z</time>
</trkpt>
<trkpt lat="45.8856190" lon="9.8348510">
	<ele>1399.60</ele>
	<time>2023-11-18T12:04:45.000Z</time>
</trkpt>
<trkpt lat="45.8856130" lon="9.8348560">
	<ele>1399.20</ele>
	<time>2023-11-18T12:04:46.000Z</time>
</trkpt>
<trkpt lat="45.8856050" lon="9.8348600">
	<ele>1399.00</ele>
	<time>2023-11-18T12:04:47.000Z</time>
</trkpt>
<trkpt lat="45.8855990" lon="9.8348670">
	<ele>1399.00</ele>
	<time>2023-11-18T12:04:48.000Z</time>
</trkpt>
<trkpt lat="45.8855940" lon="9.8348720">
	<ele>1398.80</ele>
	<time>2023-11-18T12:04:49.000Z</time>
</trkpt>
<trkpt lat="45.8855870" lon="9.8348780">
	<ele>1398.60</ele>
	<time>2023-11-18T12:04:50.000Z</time>
</trkpt>
<trkpt lat="45.8855780" lon="9.8348860">
	<ele>1398.40</ele>
	<time>2023-11-18T12:04:51.000Z</time>
</trkpt>
<trkpt lat="45.8855710" lon="9.8348930">
	<ele>1398.20</ele>
	<time>2023-11-18T12:04:52.000Z</time>
</trkpt>
<trkpt lat="45.8855620" lon="9.8349010">
	<ele>1398.00</ele>
	<time>2023-11-18T12:04:53.000Z</time>
</trkpt>
<trkpt lat="45.8855550" lon="9.8349050">
	<ele>1397.80</ele>
	<time>2023-11-18T12:04:54.000Z</time>
</trkpt>
<trkpt lat="45.8855480" lon="9.8349100">
	<ele>1397.60</ele>
	<time>2023-11-18T12:04:55.000Z</time>
</trkpt>
<trkpt lat="45.8855420" lon="9.8349140">
	<ele>1397.60</ele>
	<time>2023-11-18T12:04:56.000Z</time>
</trkpt>
<trkpt lat="45.8855320" lon="9.8349180">
	<ele>1397.20</ele>
	<time>2023-11-18T12:04:57.000Z</time>
</trkpt>
<trkpt lat="45.8855270" lon="9.8349240">
	<ele>1396.80</ele>
	<time>2023-11-18T12:04:58.000Z</time>
</trkpt>
<trkpt lat="45.8855250" lon="9.8349270">
	<ele>1396.60</ele>
	<time>2023-11-18T12:04:59.000Z</time>
</trkpt>
<trkpt lat="45.8855220" lon="9.8349260">
	<ele>1396.40</ele>
	<time>2023-11-18T12:05:00.000Z</time>
</trkpt>
<trkpt lat="45.8855190" lon="9.8349190">
	<ele>1396.40</ele>
	<time>2023-11-18T12:05:01.000Z</time>
</trkpt>
<trkpt lat="45.8855220" lon="9.8349110">
	<ele>1396.40</ele>
	<time>2023-11-18T12:05:02.000Z</time>
</trkpt>
<trkpt lat="45.8855250" lon="9.8349040">
	<ele>1396.20</ele>
	<time>2023-11-18T12:05:03.000Z</time>
</trkpt>
<trkpt lat="45.8855290" lon="9.8348950">
	<ele>1396.00</ele>
	<time>2023-11-18T12:05:04.000Z</time>
</trkpt>
<trkpt lat="45.8855300" lon="9.8348870">
	<ele>1395.80</ele>
	<time>2023-11-18T12:05:05.000Z</time>
</trkpt>
<trkpt lat="45.8855320" lon="9.8348750">
	<ele>1395.60</ele>
	<time>2023-11-18T12:05:06.000Z</time>
</trkpt>
<trkpt lat="45.8855340" lon="9.8348650">
	<ele>1395.40</ele>
	<time>2023-11-18T12:05:07.000Z</time>
</trkpt>
<trkpt lat="45.8855380" lon="9.8348550">
	<ele>1395.20</ele>
	<time>2023-11-18T12:05:08.000Z</time>
</trkpt>
<trkpt lat="45.8855410" lon="9.8348430">
	<ele>1395.00</ele>
	<time>2023-11-18T12:05:09.000Z</time>
</trkpt>
<trkpt lat="45.8855400" lon="9.8348330">
	<ele>1394.60</ele>
	<time>2023-11-18T12:05:10.000Z</time>
</trkpt>
<trkpt lat="45.8855370" lon="9.8348240">
	<ele>1394.20</ele>
	<time>2023-11-18T12:05:11.000Z</time>
</trkpt>
<trkpt lat="45.8855360" lon="9.8348140">
	<ele>1394.00</ele>
	<time>2023-11-18T12:05:12.000Z</time>
</trkpt>
<trkpt lat="45.8855390" lon="9.8348020">
	<ele>1394.00</ele>
	<time>2023-11-18T12:05:13.000Z</time>
</trkpt>
<trkpt lat="45.8855450" lon="9.8347890">
	<ele>1393.60</ele>
	<time>2023-11-18T12:05:14.000Z</time>
</trkpt>
<trkpt lat="45.8855490" lon="9.8347760">
	<ele>1393.40</ele>
	<time>2023-11-18T12:05:15.000Z</time>
</trkpt>
<trkpt lat="45.8855510" lon="9.8347660">
	<ele>1393.00</ele>
	<time>2023-11-18T12:05:16.000Z</time>
</trkpt>
<trkpt lat="45.8855550" lon="9.8347610">
	<ele>1393.00</ele>
	<time>2023-11-18T12:05:17.000Z</time>
</trkpt>
<trkpt lat="45.8855630" lon="9.8347510">
	<ele>1392.80</ele>
	<time>2023-11-18T12:05:18.000Z</time>
</trkpt>
<trkpt lat="45.8855660" lon="9.8347390">
	<ele>1392.60</ele>
	<time>2023-11-18T12:05:19.000Z</time>
</trkpt>
<trkpt lat="45.8855660" lon="9.8347260">
	<ele>1392.60</ele>
	<time>2023-11-18T12:05:20.000Z</time>
</trkpt>
<trkpt lat="45.8855680" lon="9.8347140">
	<ele>1392.40</ele>
	<time>2023-11-18T12:05:21.000Z</time>
</trkpt>
<trkpt lat="45.8855690" lon="9.8347060">
	<ele>1392.20</ele>
	<time>2023-11-18T12:05:22.000Z</time>
</trkpt>
<trkpt lat="45.8855770" lon="9.8347000">
	<ele>1392.00</ele>
	<time>2023-11-18T12:05:23.000Z</time>
</trkpt>
<trkpt lat="45.8855830" lon="9.8346900">
	<ele>1391.80</ele>
	<time>2023-11-18T12:05:24.000Z</time>
</trkpt>
<trkpt lat="45.8855850" lon="9.8346810">
	<ele>1391.60</ele>
	<time>2023-11-18T12:05:25.000Z</time>
</trkpt>
<trkpt lat="45.8855880" lon="9.8346740">
	<ele>1391.40</ele>
	<time>2023-11-18T12:05:26.000Z</time>
</trkpt>
<trkpt lat="45.8855920" lon="9.8346690">
	<ele>1391.20</ele>
	<time>2023-11-18T12:05:27.000Z</time>
</trkpt>
<trkpt lat="45.8855940" lon="9.8346580">
	<ele>1391.00</ele>
	<time>2023-11-18T12:05:28.000Z</time>
</trkpt>
<trkpt lat="45.8855940" lon="9.8346520">
	<ele>1391.00</ele>
	<time>2023-11-18T12:05:29.000Z</time>
</trkpt>
<trkpt lat="45.8855950" lon="9.8346480">
	<ele>1390.80</ele>
	<time>2023-11-18T12:05:30.000Z</time>
</trkpt>
<trkpt lat="45.8855960" lon="9.8346360">
	<ele>1390.60</ele>
	<time>2023-11-18T12:05:31.000Z</time>
</trkpt>
<trkpt lat="45.8855960" lon="9.8346250">
	<ele>1390.40</ele>
	<time>2023-11-18T12:05:32.000Z</time>
</trkpt>
<trkpt lat="45.8855970" lon="9.8346140">
	<ele>1390.00</ele>
	<time>2023-11-18T12:05:33.000Z</time>
</trkpt>
<trkpt lat="45.8856000" lon="9.8346020">
	<ele>1389.80</ele>
	<time>2023-11-18T12:05:34.000Z</time>
</trkpt>
<trkpt lat="45.8856010" lon="9.8345880">
	<ele>1389.60</ele>
	<time>2023-11-18T12:05:35.000Z</time>
</trkpt>
<trkpt lat="45.8856030" lon="9.8345790">
	<ele>1389.40</ele>
	<time>2023-11-18T12:05:36.000Z</time>
</trkpt>
<trkpt lat="45.8856040" lon="9.8345680">
	<ele>1389.20</ele>
	<time>2023-11-18T12:05:37.000Z</time>
</trkpt>
<trkpt lat="45.8856050" lon="9.8345570">
	<ele>1389.00</ele>
	<time>2023-11-18T12:05:38.000Z</time>
</trkpt>
<trkpt lat="45.8856070" lon="9.8345500">
	<ele>1388.80</ele>
	<time>2023-11-18T12:05:39.000Z</time>
</trkpt>
<trkpt lat="45.8856080" lon="9.8345390">
	<ele>1388.60</ele>
	<time>2023-11-18T12:05:40.000Z</time>
</trkpt>
<trkpt lat="45.8856080" lon="9.8345240">
	<ele>1388.60</ele>
	<time>2023-11-18T12:05:41.000Z</time>
</trkpt>
<trkpt lat="45.8856100" lon="9.8345130">
	<ele>1388.40</ele>
	<time>2023-11-18T12:05:42.000Z</time>
</trkpt>
<trkpt lat="45.8856100" lon="9.8345000">
	<ele>1388.20</ele>
	<time>2023-11-18T12:05:43.000Z</time>
</trkpt>
<trkpt lat="45.8856040" lon="9.8344890">
	<ele>1388.00</ele>
	<time>2023-11-18T12:05:44.000Z</time>
</trkpt>
<trkpt lat="45.8856010" lon="9.8344820">
	<ele>1387.80</ele>
	<time>2023-11-18T12:05:45.000Z</time>
</trkpt>
<trkpt lat="45.8856000" lon="9.8344710">
	<ele>1387.40</ele>
	<time>2023-11-18T12:05:46.000Z</time>
</trkpt>
<trkpt lat="45.8855980" lon="9.8344640">
	<ele>1387.20</ele>
	<time>2023-11-18T12:05:47.000Z</time>
</trkpt>
<trkpt lat="45.8855990" lon="9.8344550">
	<ele>1387.00</ele>
	<time>2023-11-18T12:05:48.000Z</time>
</trkpt>
<trkpt lat="45.8856020" lon="9.8344370">
	<ele>1386.60</ele>
	<time>2023-11-18T12:05:49.000Z</time>
</trkpt>
<trkpt lat="45.8856060" lon="9.8344240">
	<ele>1386.60</ele>
	<time>2023-11-18T12:05:50.000Z</time>
</trkpt>
<trkpt lat="45.8856100" lon="9.8344130">
	<ele>1386.40</ele>
	<time>2023-11-18T12:05:51.000Z</time>
</trkpt>
<trkpt lat="45.8856130" lon="9.8343990">
	<ele>1386.40</ele>
	<time>2023-11-18T12:05:52.000Z</time>
</trkpt>
<trkpt lat="45.8856130" lon="9.8343810">
	<ele>1386.00</ele>
	<time>2023-11-18T12:05:53.000Z</time>
</trkpt>
<trkpt lat="45.8856100" lon="9.8343670">
	<ele>1386.00</ele>
	<time>2023-11-18T12:05:54.000Z</time>
</trkpt>
<trkpt lat="45.8856060" lon="9.8343560">
	<ele>1385.80</ele>
	<time>2023-11-18T12:05:55.000Z</time>
</trkpt>
<trkpt lat="45.8856040" lon="9.8343460">
	<ele>1385.20</ele>
	<time>2023-11-18T12:05:56.000Z</time>
</trkpt>
<trkpt lat="45.8856080" lon="9.8343390">
	<ele>1385.00</ele>
	<time>2023-11-18T12:05:57.000Z</time>
</trkpt>
<trkpt lat="45.8856130" lon="9.8343290">
	<ele>1384.80</ele>
	<time>2023-11-18T12:05:58.000Z</time>
</trkpt>
<trkpt lat="45.8856200" lon="9.8343190">
	<ele>1384.40</ele>
	<time>2023-11-18T12:05:59.000Z</time>
</trkpt>
<trkpt lat="45.8856240" lon="9.8343100">
	<ele>1384.00</ele>
	<time>2023-11-18T12:06:00.000Z</time>
</trkpt>
<trkpt lat="45.8856210" lon="9.8343030">
	<ele>1384.00</ele>
	<time>2023-11-18T12:06:01.000Z</time>
</trkpt>
<trkpt lat="45.8856160" lon="9.8342970">
	<ele>1383.60</ele>
	<time>2023-11-18T12:06:02.000Z</time>
</trkpt>
<trkpt lat="45.8856130" lon="9.8342870">
	<ele>1383.40</ele>
	<time>2023-11-18T12:06:03.000Z</time>
</trkpt>
<trkpt lat="45.8856110" lon="9.8342750">
	<ele>1383.20</ele>
	<time>2023-11-18T12:06:04.000Z</time>
</trkpt>
<trkpt lat="45.8856090" lon="9.8342610">
	<ele>1382.80</ele>
	<time>2023-11-18T12:06:05.000Z</time>
</trkpt>
<trkpt lat="45.8856050" lon="9.8342500">
	<ele>1382.60</ele>
	<time>2023-11-18T12:06:06.000Z</time>
</trkpt>
<trkpt lat="45.8856020" lon="9.8342450">
	<ele>1382.60</ele>
	<time>2023-11-18T12:06:07.000Z</time>
</trkpt>
<trkpt lat="45.8856030" lon="9.8342380">
	<ele>1382.20</ele>
	<time>2023-11-18T12:06:08.000Z</time>
</trkpt>
<trkpt lat="45.8856050" lon="9.8342300">
	<ele>1382.00</ele>
	<time>2023-11-18T12:06:09.000Z</time>
</trkpt>
<trkpt lat="45.8856070" lon="9.8342200">
	<ele>1381.80</ele>
	<time>2023-11-18T12:06:10.000Z</time>
</trkpt>
<trkpt lat="45.8856080" lon="9.8342100">
	<ele>1381.60</ele>
	<time>2023-11-18T12:06:11.000Z</time>
</trkpt>
<trkpt lat="45.8856100" lon="9.8342050">
	<ele>1381.40</ele>
	<time>2023-11-18T12:06:12.000Z</time>
</trkpt>
<trkpt lat="45.8856090" lon="9.8341980">
	<ele>1381.00</ele>
	<time>2023-11-18T12:06:13.000Z</time>
</trkpt>
<trkpt lat="45.8856080" lon="9.8341930">
	<ele>1380.80</ele>
	<time>2023-11-18T12:06:14.000Z</time>
</trkpt>
<trkpt lat="45.8856060" lon="9.8341840">
	<ele>1380.80</ele>
	<time>2023-11-18T12:06:15.000Z</time>
</trkpt>
<trkpt lat="45.8856040" lon="9.8341740">
	<ele>1380.60</ele>
	<time>2023-11-18T12:06:16.000Z</time>
</trkpt>
<trkpt lat="45.8856000" lon="9.8341700">
	<ele>1380.20</ele>
	<time>2023-11-18T12:06:17.000Z</time>
</trkpt>
<trkpt lat="45.8856000" lon="9.8341670">
	<ele>1379.80</ele>
	<time>2023-11-18T12:06:18.000Z</time>
</trkpt>
<trkpt lat="45.8855990" lon="9.8341660">
	<ele>1379.80</ele>
	<time>2023-11-18T12:06:19.000Z</time>
</trkpt>
<trkpt lat="45.8855970" lon="9.8341630">
	<ele>1379.60</ele>
	<time>2023-11-18T12:06:20.000Z</time>
</trkpt>
<trkpt lat="45.8855950" lon="9.8341570">
	<ele>1379.40</ele>
	<time>2023-11-18T12:06:21.000Z</time>
</trkpt>
<trkpt lat="45.8855950" lon="9.8341530">
	<ele>1379.40</ele>
	<time>2023-11-18T12:06:22.000Z</time>
</trkpt>
<trkpt lat="45.8855960" lon="9.8341500">
	<ele>1379.40</ele>
	<time>2023-11-18T12:06:23.000Z</time>
</trkpt>
<trkpt lat="45.8855970" lon="9.8341420">
	<ele>1379.40</ele>
	<time>2023-11-18T12:06:24.000Z</time>
</trkpt>
<trkpt lat="45.8855980" lon="9.8341280">
	<ele>1379.20</ele>
	<time>2023-11-18T12:06:25.000Z</time>
</trkpt>
<trkpt lat="45.8856000" lon="9.8341180">
	<ele>1379.20</ele>
	<time>2023-11-18T12:06:26.000Z</time>
</trkpt>
<trkpt lat="45.8856040" lon="9.8341080">
	<ele>1379.00</ele>
	<time>2023-11-18T12:06:27.000Z</time>
</trkpt>
<trkpt lat="45.8856090" lon="9.8340970">
	<ele>1378.80</ele>
	<time>2023-11-18T12:06:28.000Z</time>
</trkpt>
<trkpt lat="45.8856090" lon="9.8340880">
	<ele>1378.60</ele>
	<time>2023-11-18T12:06:29.000Z</time>
</trkpt>
<trkpt lat="45.8856100" lon="9.8340790">
	<ele>1378.20</ele>
	<time>2023-11-18T12:06:30.000Z</time>
</trkpt>
<trkpt lat="45.8856090" lon="9.8340710">
	<ele>1378.00</ele>
	<time>2023-11-18T12:06:31.000Z</time>
</trkpt>
<trkpt lat="45.8856100" lon="9.8340640">
	<ele>1378.00</ele>
	<time>2023-11-18T12:06:32.000Z</time>
</trkpt>
<trkpt lat="45.8856150" lon="9.8340580">
	<ele>1377.80</ele>
	<time>2023-11-18T12:06:33.000Z</time>
</trkpt>
<trkpt lat="45.8856180" lon="9.8340450">
	<ele>1377.60</ele>
	<time>2023-11-18T12:06:34.000Z</time>
</trkpt>
<trkpt lat="45.8856180" lon="9.8340400">
	<ele>1377.40</ele>
	<time>2023-11-18T12:06:35.000Z</time>
</trkpt>
<trkpt lat="45.8856180" lon="9.8340370">
	<ele>1377.20</ele>
	<time>2023-11-18T12:06:36.000Z</time>
</trkpt>
<trkpt lat="45.8856180" lon="9.8340340">
	<ele>1377.20</ele>
	<time>2023-11-18T12:06:37.000Z</time>
</trkpt>
<trkpt lat="45.8856190" lon="9.8340330">
	<ele>1377.20</ele>
	<time>2023-11-18T12:06:38.000Z</time>
</trkpt>
<trkpt lat="45.8856180" lon="9.8340310">
	<ele>1377.20</ele>
	<time>2023-11-18T12:06:39.000Z</time>
</trkpt>
<trkpt lat="45.8856160" lon="9.8340300">
	<ele>1377.00</ele>
	<time>2023-11-18T12:06:40.000Z</time>
</trkpt>
<trkpt lat="45.8856130" lon="9.8340290">
	<ele>1377.00</ele>
	<time>2023-11-18T12:06:41.000Z</time>
</trkpt>
<trkpt lat="45.8856150" lon="9.8340240">
	<ele>1377.00</ele>
	<time>2023-11-18T12:06:42.000Z</time>
</trkpt>
<trkpt lat="45.8856130" lon="9.8340210">
	<ele>1377.00</ele>
	<time>2023-11-18T12:06:43.000Z</time>
</trkpt>
<trkpt lat="45.8856070" lon="9.8340120">
	<ele>1376.80</ele>
	<time>2023-11-18T12:06:44.000Z</time>
</trkpt>
<trkpt lat="45.8856090" lon="9.8340010">
	<ele>1376.60</ele>
	<time>2023-11-18T12:06:45.000Z</time>
</trkpt>
<trkpt lat="45.8856160" lon="9.8339910">
	<ele>1376.60</ele>
	<time>2023-11-18T12:06:46.000Z</time>
</trkpt>
<trkpt lat="45.8856240" lon="9.8339790">
	<ele>1376.40</ele>
	<time>2023-11-18T12:06:47.000Z</time>
</trkpt>
<trkpt lat="45.8856290" lon="9.8339650">
	<ele>1376.20</ele>
	<time>2023-11-18T12:06:48.000Z</time>
</trkpt>
<trkpt lat="45.8856310" lon="9.8339490">
	<ele>1376.00</ele>
	<time>2023-11-18T12:06:49.000Z</time>
</trkpt>
<trkpt lat="45.8856310" lon="9.8339390">
	<ele>1375.80</ele>
	<time>2023-11-18T12:06:50.000Z</time>
</trkpt>
<trkpt lat="45.8856320" lon="9.8339330">
	<ele>1375.80</ele>
	<time>2023-11-18T12:06:51.000Z</time>
</trkpt>
<trkpt lat="45.8856290" lon="9.8339260">
	<ele>1375.60</ele>
	<time>2023-11-18T12:06:52.000Z</time>
</trkpt>
<trkpt lat="45.8856290" lon="9.8339170">
	<ele>1375.40</ele>
	<time>2023-11-18T12:06:53.000Z</time>
</trkpt>
<trkpt lat="45.8856300" lon="9.8339070">
	<ele>1375.20</ele>
	<time>2023-11-18T12:06:54.000Z</time>
</trkpt>
<trkpt lat="45.8856300" lon="9.8338950">
	<ele>1375.00</ele>
	<time>2023-11-18T12:06:55.000Z</time>
</trkpt>
<trkpt lat="45.8856280" lon="9.8338860">
	<ele>1374.80</ele>
	<time>2023-11-18T12:06:56.000Z</time>
</trkpt>
<trkpt lat="45.8856260" lon="9.8338800">
	<ele>1374.60</ele>
	<time>2023-11-18T12:06:57.000Z</time>
</trkpt>
<trkpt lat="45.8856210" lon="9.8338730">
	<ele>1374.40</ele>
	<time>2023-11-18T12:06:58.000Z</time>
</trkpt>
<trkpt lat="45.8856180" lon="9.8338640">
	<ele>1374.20</ele>
	<time>2023-11-18T12:06:59.000Z</time>
</trkpt>
<trkpt lat="45.8856170" lon="9.8338530">
	<ele>1374.00</ele>
	<time>2023-11-18T12:07:00.000Z</time>
</trkpt>
<trkpt lat="45.8856160" lon="9.8338440">
	<ele>1373.60</ele>
	<time>2023-11-18T12:07:01.000Z</time>
</trkpt>
<trkpt lat="45.8856180" lon="9.8338350">
	<ele>1373.40</ele>
	<time>2023-11-18T12:07:02.000Z</time>
</trkpt>
<trkpt lat="45.8856200" lon="9.8338250">
	<ele>1373.20</ele>
	<time>2023-11-18T12:07:03.000Z</time>
</trkpt>
<trkpt lat="45.8856240" lon="9.8338170">
	<ele>1373.00</ele>
	<time>2023-11-18T12:07:04.000Z</time>
</trkpt>
<trkpt lat="45.8856270" lon="9.8338080">
	<ele>1372.80</ele>
	<time>2023-11-18T12:07:05.000Z</time>
</trkpt>
<trkpt lat="45.8856290" lon="9.8337970">
	<ele>1372.60</ele>
	<time>2023-11-18T12:07:06.000Z</time>
</trkpt>
<trkpt lat="45.8856290" lon="9.8337870">
	<ele>1372.20</ele>
	<time>2023-11-18T12:07:07.000Z</time>
</trkpt>
<trkpt lat="45.8856290" lon="9.8337790">
	<ele>1372.00</ele>
	<time>2023-11-18T12:07:08.000Z</time>
</trkpt>
<trkpt lat="45.8856320" lon="9.8337690">
	<ele>1371.80</ele>
	<time>2023-11-18T12:07:09.000Z</time>
</trkpt>
<trkpt lat="45.8856340" lon="9.8337570">
	<ele>1371.60</ele>
	<time>2023-11-18T12:07:10.000Z</time>
</trkpt>
<trkpt lat="45.8856360" lon="9.8337470">
	<ele>1371.20</ele>
	<time>2023-11-18T12:07:11.000Z</time>
</trkpt>
<trkpt lat="45.8856380" lon="9.8337400">
	<ele>1371.20</ele>
	<time>2023-11-18T12:07:12.000Z</time>
</trkpt>
<trkpt lat="45.8856440" lon="9.8337320">
	<ele>1371.00</ele>
	<time>2023-11-18T12:07:13.000Z</time>
</trkpt>
<trkpt lat="45.8856500" lon="9.8337240">
	<ele>1370.80</ele>
	<time>2023-11-18T12:07:14.000Z</time>
</trkpt>
<trkpt lat="45.8856530" lon="9.8337150">
	<ele>1370.60</ele>
	<time>2023-11-18T12:07:15.000Z</time>
</trkpt>
<trkpt lat="45.8856530" lon="9.8337070">
	<ele>1370.20</ele>
	<time>2023-11-18T12:07:16.000Z</time>
</trkpt>
<trkpt lat="45.8856510" lon="9.8336960">
	<ele>1370.20</ele>
	<time>2023-11-18T12:07:17.000Z</time>
</trkpt>
<trkpt lat="45.8856500" lon="9.8336850">
	<ele>1369.80</ele>
	<time>2023-11-18T12:07:18.000Z</time>
</trkpt>
<trkpt lat="45.8856480" lon="9.8336750">
	<ele>1369.60</ele>
	<time>2023-11-18T12:07:19.000Z</time>
</trkpt>
<trkpt lat="45.8856500" lon="9.8336610">
	<ele>1369.40</ele>
	<time>2023-11-18T12:07:20.000Z</time>
</trkpt>
<trkpt lat="45.8856490" lon="9.8336520">
	<ele>1369.00</ele>
	<time>2023-11-18T12:07:21.000Z</time>
</trkpt>
<trkpt lat="45.8856480" lon="9.8336440">
	<ele>1368.80</ele>
	<time>2023-11-18T12:07:22.000Z</time>
</trkpt>
<trkpt lat="45.8856440" lon="9.8336340">
	<ele>1368.60</ele>
	<time>2023-11-18T12:07:23.000Z</time>
</trkpt>
<trkpt lat="45.8856450" lon="9.8336210">
	<ele>1368.40</ele>
	<time>2023-11-18T12:07:24.000Z</time>
</trkpt>
<trkpt lat="45.8856430" lon="9.8336100">
	<ele>1368.40</ele>
	<time>2023-11-18T12:07:25.000Z</time>
</trkpt>
<trkpt lat="45.8856420" lon="9.8336030">
	<ele>1368.40</ele>
	<time>2023-11-18T12:07:26.000Z</time>
</trkpt>
<trkpt lat="45.8856430" lon="9.8335920">
	<ele>1368.00</ele>
	<time>2023-11-18T12:07:27.000Z</time>
</trkpt>
<trkpt lat="45.8856430" lon="9.8335830">
	<ele>1367.80</ele>
	<time>2023-11-18T12:07:28.000Z</time>
</trkpt>
<trkpt lat="45.8856460" lon="9.8335700">
	<ele>1367.60</ele>
	<time>2023-11-18T12:07:29.000Z</time>
</trkpt>
<trkpt lat="45.8856470" lon="9.8335630">
	<ele>1367.40</ele>
	<time>2023-11-18T12:07:30.000Z</time>
</trkpt>
<trkpt lat="45.8856500" lon="9.8335510">
	<ele>1367.20</ele>
	<time>2023-11-18T12:07:31.000Z</time>
</trkpt>
<trkpt lat="45.8856500" lon="9.8335410">
	<ele>1367.00</ele>
	<time>2023-11-18T12:07:32.000Z</time>
</trkpt>
<trkpt lat="45.8856490" lon="9.8335310">
	<ele>1366.80</ele>
	<time>2023-11-18T12:07:33.000Z</time>
</trkpt>
<trkpt lat="45.8856460" lon="9.8335200">
	<ele>1366.80</ele>
	<time>2023-11-18T12:07:34.000Z</time>
</trkpt>
<trkpt lat="45.8856480" lon="9.8335090">
	<ele>1366.60</ele>
	<time>2023-11-18T12:07:35.000Z</time>
</trkpt>
<trkpt lat="45.8856540" lon="9.8334980">
	<ele>1366.40</ele>
	<time>2023-11-18T12:07:36.000Z</time>
</trkpt>
<trkpt lat="45.8856560" lon="9.8334870">
	<ele>1366.00</ele>
	<time>2023-11-18T12:07:37.000Z</time>
</trkpt>
<trkpt lat="45.8856530" lon="9.8334830">
	<ele>1365.80</ele>
	<time>2023-11-18T12:07:38.000Z</time>
</trkpt>
<trkpt lat="45.8856500" lon="9.8334800">
	<ele>1365.60</ele>
	<time>2023-11-18T12:07:39.000Z</time>
</trkpt>
<trkpt lat="45.8856460" lon="9.8334730">
	<ele>1365.40</ele>
	<time>2023-11-18T12:07:40.000Z</time>
</trkpt>
<trkpt lat="45.8856440" lon="9.8334640">
	<ele>1365.20</ele>
	<time>2023-11-18T12:07:41.000Z</time>
</trkpt>
<trkpt lat="45.8856420" lon="9.8334520">
	<ele>1365.00</ele>
	<time>2023-11-18T12:07:42.000Z</time>
</trkpt>
<trkpt lat="45.8856440" lon="9.8334340">
	<ele>1364.80</ele>
	<time>2023-11-18T12:07:43.000Z</time>
</trkpt>
<trkpt lat="45.8856470" lon="9.8334160">
	<ele>1364.40</ele>
	<time>2023-11-18T12:07:44.000Z</time>
</trkpt>
<trkpt lat="45.8856460" lon="9.8334040">
	<ele>1364.20</ele>
	<time>2023-11-18T12:07:45.000Z</time>
</trkpt>
<trkpt lat="45.8856460" lon="9.8333930">
	<ele>1364.00</ele>
	<time>2023-11-18T12:07:46.000Z</time>
</trkpt>
<trkpt lat="45.8856460" lon="9.8333830">
	<ele>1364.00</ele>
	<time>2023-11-18T12:07:47.000Z</time>
</trkpt>
<trkpt lat="45.8856480" lon="9.8333760">
	<ele>1363.80</ele>
	<time>2023-11-18T12:07:48.000Z</time>
</trkpt>
<trkpt lat="45.8856500" lon="9.8333700">
	<ele>1363.60</ele>
	<time>2023-11-18T12:07:49.000Z</time>
</trkpt>
<trkpt lat="45.8856520" lon="9.8333660">
	<ele>1363.20</ele>
	<time>2023-11-18T12:07:50.000Z</time>
</trkpt>
<trkpt lat="45.8856520" lon="9.8333600">
	<ele>1363.00</ele>
	<time>2023-11-18T12:07:51.000Z</time>
</trkpt>
<trkpt lat="45.8856510" lon="9.8333550">
	<ele>1362.80</ele>
	<time>2023-11-18T12:07:52.000Z</time>
</trkpt>
<trkpt lat="45.8856520" lon="9.8333510">
	<ele>1362.60</ele>
	<time>2023-11-18T12:07:53.000Z</time>
</trkpt>
<trkpt lat="45.8856530" lon="9.8333480">
	<ele>1362.60</ele>
	<time>2023-11-18T12:07:54.000Z</time>
</trkpt>
<trkpt lat="45.8856550" lon="9.8333440">
	<ele>1362.40</ele>
	<time>2023-11-18T12:07:55.000Z</time>
</trkpt>
<trkpt lat="45.8856570" lon="9.8333390">
	<ele>1362.20</ele>
	<time>2023-11-18T12:07:56.000Z</time>
</trkpt>
<trkpt lat="45.8856590" lon="9.8333320">
	<ele>1362.00</ele>
	<time>2023-11-18T12:07:57.000Z</time>
</trkpt>
<trkpt lat="45.8856600" lon="9.8333290">
	<ele>1361.80</ele>
	<time>2023-11-18T12:07:58.000Z</time>
</trkpt>
<trkpt lat="45.8856600" lon="9.8333270">
	<ele>1361.60</ele>
	<time>2023-11-18T12:07:59.000Z</time>
</trkpt>
<trkpt lat="45.8856570" lon="9.8333170">
	<ele>1361.40</ele>
	<time>2023-11-18T12:08:00.000Z</time>
</trkpt>
<trkpt lat="45.8856590" lon="9.8333150">
	<ele>1361.40</ele>
	<time>2023-11-18T12:08:01.000Z</time>
</trkpt>
<trkpt lat="45.8856580" lon="9.8333160">
	<ele>1361.20</ele>
	<time>2023-11-18T12:08:02.000Z</time>
</trkpt>
<trkpt lat="45.8856570" lon="9.8333120">
	<ele>1361.00</ele>
	<time>2023-11-18T12:08:03.000Z</time>
</trkpt>
<trkpt lat="45.8856570" lon="9.8333090">
	<ele>1360.80</ele>
	<time>2023-11-18T12:08:04.000Z</time>
</trkpt>
<trkpt lat="45.8856560" lon="9.8333040">
	<ele>1360.60</ele>
	<time>2023-11-18T12:08:05.000Z</time>
</trkpt>
<trkpt lat="45.8856520" lon="9.8332990">
	<ele>1360.60</ele>
	<time>2023-11-18T12:08:06.000Z</time>
</trkpt>
<trkpt lat="45.8856510" lon="9.8332910">
	<ele>1360.60</ele>
	<time>2023-11-18T12:08:07.000Z</time>
</trkpt>
<trkpt lat="45.8856490" lon="9.8332810">
	<ele>1360.20</ele>
	<time>2023-11-18T12:08:08.000Z</time>
</trkpt>
<trkpt lat="45.8856490" lon="9.8332770">
	<ele>1360.00</ele>
	<time>2023-11-18T12:08:09.000Z</time>
</trkpt>
<trkpt lat="45.8856460" lon="9.8332730">
	<ele>1360.00</ele>
	<time>2023-11-18T12:08:10.000Z</time>
</trkpt>
<trkpt lat="45.8856440" lon="9.8332730">
	<ele>1359.80</ele>
	<time>2023-11-18T12:08:11.000Z</time>
</trkpt>
<trkpt lat="45.8856420" lon="9.8332730">
	<ele>1359.80</ele>
	<time>2023-11-18T12:08:12.000Z</time>
</trkpt>
<trkpt lat="45.8856370" lon="9.8332750">
	<ele>1359.60</ele>
	<time>2023-11-18T12:08:13.000Z</time>
</trkpt>
<trkpt lat="45.8856310" lon="9.8332800">
	<ele>1359.40</ele>
	<time>2023-11-18T12:08:14.000Z</time>
</trkpt>
<trkpt lat="45.8856280" lon="9.8332890">
	<ele>1359.20</ele>
	<time>2023-11-18T12:08:15.000Z</time>
</trkpt>
<trkpt lat="45.8856270" lon="9.8332940">
	<ele>1359.00</ele>
	<time>2023-11-18T12:08:16.000Z</time>
</trkpt>
<trkpt lat="45.8856270" lon="9.8332950">
	<ele>1359.00</ele>
	<time>2023-11-18T12:08:17.000Z</time>
</trkpt>
<trkpt lat="45.8856270" lon="9.8332950">
	<ele>1358.80</ele>
	<time>2023-11-18T12:08:18.000Z</time>
</trkpt>
<trkpt lat="45.8856250" lon="9.8332950">
	<ele>1358.60</ele>
	<time>2023-11-18T12:08:19.000Z</time>
</trkpt>
<trkpt lat="45.8856210" lon="9.8332960">
	<ele>1358.60</ele>
	<time>2023-11-18T12:08:20.000Z</time>
</trkpt>
<trkpt lat="45.8856160" lon="9.8332970">
	<ele>1358.40</ele>
	<time>2023-11-18T12:08:21.000Z</time>
</trkpt>
<trkpt lat="45.8856150" lon="9.8332970">
	<ele>1358.40</ele>
	<time>2023-11-18T12:08:22.000Z</time>
</trkpt>
<trkpt lat="45.8856130" lon="9.8332970">
	<ele>1358.40</ele>
	<time>2023-11-18T12:08:23.000Z</time>
</trkpt>
<trkpt lat="45.8856100" lon="9.8332980">
	<ele>1358.00</ele>
	<time>2023-11-18T12:08:24.000Z</time>
</trkpt>
<trkpt lat="45.8856060" lon="9.8332980">
	<ele>1357.80</ele>
	<time>2023-11-18T12:08:25.000Z</time>
</trkpt>
<trkpt lat="45.8856020" lon="9.8333000">
	<ele>1357.60</ele>
	<time>2023-11-18T12:08:26.000Z</time>
</trkpt>
<trkpt lat="45.8855970" lon="9.8333010">
	<ele>1357.40</ele>
	<time>2023-11-18T12:08:27.000Z</time>
</trkpt>
<trkpt lat="45.8855930" lon="9.8333040">
	<ele>1357.20</ele>
	<time>2023-11-18T12:08:28.000Z</time>
</trkpt>
<trkpt lat="45.8855920" lon="9.8333030">
	<ele>1357.20</ele>
	<time>2023-11-18T12:08:29.000Z</time>
</trkpt>
<trkpt lat="45.8855890" lon="9.8333030">
	<ele>1356.80</ele>
	<time>2023-11-18T12:08:30.000Z</time>
</trkpt>
<trkpt lat="45.8855790" lon="9.8333040">
	<ele>1356.60</ele>
	<time>2023-11-18T12:08:31.000Z</time>
</trkpt>
<trkpt lat="45.8855700" lon="9.8333070">
	<ele>1356.40</ele>
	<time>2023-11-18T12:08:32.000Z</time>
</trkpt>
<trkpt lat="45.8855650" lon="9.8333090">
	<ele>1356.40</ele>
	<time>2023-11-18T12:08:33.000Z</time>
</trkpt>
<trkpt lat="45.8855610" lon="9.8333120">
	<ele>1356.00</ele>
	<time>2023-11-18T12:08:34.000Z</time>
</trkpt>
<trkpt lat="45.8855540" lon="9.8333180">
	<ele>1356.00</ele>
	<time>2023-11-18T12:08:35.000Z</time>
</trkpt>
<trkpt lat="45.8855460" lon="9.8333250">
	<ele>1355.80</ele>
	<time>2023-11-18T12:08:36.000Z</time>
</trkpt>
<trkpt lat="45.8855410" lon="9.8333350">
	<ele>1355.40</ele>
	<time>2023-11-18T12:08:37.000Z</time>
</trkpt>
<trkpt lat="45.8855290" lon="9.8333450">
	<ele>1355.00</ele>
	<time>2023-11-18T12:08:38.000Z</time>
</trkpt>
<trkpt lat="45.8855190" lon="9.8333520">
	<ele>1354.80</ele>
	<time>2023-11-18T12:08:39.000Z</time>
</trkpt>
<trkpt lat="45.8855110" lon="9.8333630">
	<ele>1354.60</ele>
	<time>2023-11-18T12:08:40.000Z</time>
</trkpt>
<trkpt lat="45.8855060" lon="9.8333800">
	<ele>1354.40</ele>
	<time>2023-11-18T12:08:41.000Z</time>
</trkpt>
<trkpt lat="45.8855000" lon="9.8333880">
	<ele>1354.40</ele>
	<time>2023-11-18T12:08:42.000Z</time>
</trkpt>
<trkpt lat="45.8854960" lon="9.8333910">
	<ele>1354.20</ele>
	<time>2023-11-18T12:08:43.000Z</time>
</trkpt>
<trkpt lat="45.8854900" lon="9.8333940">
	<ele>1354.20</ele>
	<time>2023-11-18T12:08:44.000Z</time>
</trkpt>
<trkpt lat="45.8854820" lon="9.8333970">
	<ele>1354.20</ele>
	<time>2023-11-18T12:08:45.000Z</time>
</trkpt>
<trkpt lat="45.8854770" lon="9.8334010">
	<ele>1354.00</ele>
	<time>2023-11-18T12:08:46.000Z</time>
</trkpt>
<trkpt lat="45.8854730" lon="9.8334030">
	<ele>1353.80</ele>
	<time>2023-11-18T12:08:47.000Z</time>
</trkpt>
<trkpt lat="45.8854660" lon="9.8333990">
	<ele>1353.60</ele>
	<time>2023-11-18T12:08:48.000Z</time>
</trkpt>
<trkpt lat="45.8854600" lon="9.8333960">
	<ele>1353.40</ele>
	<time>2023-11-18T12:08:49.000Z</time>
</trkpt>
<trkpt lat="45.8854530" lon="9.8333940">
	<ele>1353.20</ele>
	<time>2023-11-18T12:08:50.000Z</time>
</trkpt>
<trkpt lat="45.8854420" lon="9.8333970">
	<ele>1353.00</ele>
	<time>2023-11-18T12:08:51.000Z</time>
</trkpt>
<trkpt lat="45.8854320" lon="9.8333990">
	<ele>1352.80</ele>
	<time>2023-11-18T12:08:52.000Z</time>
</trkpt>
<trkpt lat="45.8854250" lon="9.8334040">
	<ele>1352.60</ele>
	<time>2023-11-18T12:08:53.000Z</time>
</trkpt>
<trkpt lat="45.8854180" lon="9.8334040">
	<ele>1352.40</ele>
	<time>2023-11-18T12:08:54.000Z</time>
</trkpt>
<trkpt lat="45.8854110" lon="9.8334080">
	<ele>1352.00</ele>
	<time>2023-11-18T12:08:55.000Z</time>
</trkpt>
<trkpt lat="45.8854020" lon="9.8334140">
	<ele>1351.80</ele>
	<time>2023-11-18T12:08:56.000Z</time>
</trkpt>
<trkpt lat="45.8853820" lon="9.8334250">
	<ele>1351.60</ele>
	<time>2023-11-18T12:08:57.000Z</time>
</trkpt>
<trkpt lat="45.8853700" lon="9.8334360">
	<ele>1351.60</ele>
	<time>2023-11-18T12:08:58.000Z</time>
</trkpt>
<trkpt lat="45.8853660" lon="9.8334430">
	<ele>1351.40</ele>
	<time>2023-11-18T12:08:59.000Z</time>
</trkpt>
<trkpt lat="45.8853580" lon="9.8334500">
	<ele>1351.00</ele>
	<time>2023-11-18T12:09:00.000Z</time>
</trkpt>
<trkpt lat="45.8853500" lon="9.8334560">
	<ele>1350.60</ele>
	<time>2023-11-18T12:09:01.000Z</time>
</trkpt>
<trkpt lat="45.8853420" lon="9.8334600">
	<ele>1350.40</ele>
	<time>2023-11-18T12:09:02.000Z</time>
</trkpt>
<trkpt lat="45.8853330" lon="9.8334670">
	<ele>1350.20</ele>
	<time>2023-11-18T12:09:03.000Z</time>
</trkpt>
<trkpt lat="45.8853240" lon="9.8334790">
	<ele>1350.00</ele>
	<time>2023-11-18T12:09:04.000Z</time>
</trkpt>
<trkpt lat="45.8853180" lon="9.8334910">
	<ele>1349.80</ele>
	<time>2023-11-18T12:09:05.000Z</time>
</trkpt>
<trkpt lat="45.8853130" lon="9.8334990">
	<ele>1349.60</ele>
	<time>2023-11-18T12:09:06.000Z</time>
</trkpt>
<trkpt lat="45.8853090" lon="9.8335100">
	<ele>1349.60</ele>
	<time>2023-11-18T12:09:07.000Z</time>
</trkpt>
<trkpt lat="45.8853050" lon="9.8335200">
	<ele>1349.20</ele>
	<time>2023-11-18T12:09:08.000Z</time>
</trkpt>
<trkpt lat="45.8852970" lon="9.8335310">
	<ele>1349.20</ele>
	<time>2023-11-18T12:09:09.000Z</time>
</trkpt>
<trkpt lat="45.8852890" lon="9.8335380">
	<ele>1349.00</ele>
	<time>2023-11-18T12:09:10.000Z</time>
</trkpt>
<trkpt lat="45.8852810" lon="9.8335390">
	<ele>1349.00</ele>
	<time>2023-11-18T12:09:11.000Z</time>
</trkpt>
<trkpt lat="45.8852720" lon="9.8335400">
	<ele>1348.60</ele>
	<time>2023-11-18T12:09:12.000Z</time>
</trkpt>
<trkpt lat="45.8852600" lon="9.8335450">
	<ele>1348.40</ele>
	<time>2023-11-18T12:09:13.000Z</time>
</trkpt>
<trkpt lat="45.8852500" lon="9.8335540">
	<ele>1347.80</ele>
	<time>2023-11-18T12:09:14.000Z</time>
</trkpt>
<trkpt lat="45.8852460" lon="9.8335570">
	<ele>1347.40</ele>
	<time>2023-11-18T12:09:15.000Z</time>
</trkpt>
<trkpt lat="45.8852390" lon="9.8335640">
	<ele>1347.20</ele>
	<time>2023-11-18T12:09:16.000Z</time>
</trkpt>
<trkpt lat="45.8852350" lon="9.8335680">
	<ele>1347.00</ele>
	<time>2023-11-18T12:09:17.000Z</time>
</trkpt>
<trkpt lat="45.8852330" lon="9.8335690">
	<ele>1346.80</ele>
	<time>2023-11-18T12:09:18.000Z</time>
</trkpt>
<trkpt lat="45.8852310" lon="9.8335680">
	<ele>1346.80</ele>
	<time>2023-11-18T12:09:19.000Z</time>
</trkpt>
<trkpt lat="45.8852310" lon="9.8335690">
	<ele>1346.60</ele>
	<time>2023-11-18T12:09:20.000Z</time>
</trkpt>
<trkpt lat="45.8852300" lon="9.8335700">
	<ele>1346.80</ele>
	<time>2023-11-18T12:09:21.000Z</time>
</trkpt>
<trkpt lat="45.8852310" lon="9.8335710">
	<ele>1346.80</ele>
	<time>2023-11-18T12:09:22.000Z</time>
</trkpt>
<trkpt lat="45.8852300" lon="9.8335720">
	<ele>1347.00</ele>
	<time>2023-11-18T12:09:23.000Z</time>
</trkpt>
<trkpt lat="45.8852300" lon="9.8335720">
	<ele>1347.20</ele>
	<time>2023-11-18T12:09:24.000Z</time>
</trkpt>
<trkpt lat="45.8852300" lon="9.8335710">
	<ele>1347.20</ele>
	<time>2023-11-18T12:09:25.000Z</time>
</trkpt>
<trkpt lat="45.8852300" lon="9.8335710">
	<ele>1347.20</ele>
	<time>2023-11-18T12:09:26.000Z</time>
</trkpt>
<trkpt lat="45.8852310" lon="9.8335710">
	<ele>1347.20</ele>
	<time>2023-11-18T12:09:27.000Z</time>
</trkpt>
<trkpt lat="45.8852310" lon="9.8335710">
	<ele>1347.20</ele>
	<time>2023-11-18T12:09:28.000Z</time>
</trkpt>
<trkpt lat="45.8852310" lon="9.8335710">
	<ele>1347.20</ele>
	<time>2023-11-18T12:09:29.000Z</time>
</trkpt>
<trkpt lat="45.8852310" lon="9.8335710">
	<ele>1347.00</ele>
	<time>2023-11-18T12:09:30.000Z</time>
</trkpt>
<trkpt lat="45.8852310" lon="9.8335710">
	<ele>1347.00</ele>
	<time>2023-11-18T12:09:31.000Z</time>
</trkpt>
<trkpt lat="45.8852310" lon="9.8335710">
	<ele>1347.00</ele>
	<time>2023-11-18T12:09:32.000Z</time>
</trkpt>
<trkpt lat="45.8852310" lon="9.8335710">
	<ele>1346.80</ele>
	<time>2023-11-18T12:09:33.000Z</time>
</trkpt>
<trkpt lat="45.8852310" lon="9.8335710">
	<ele>1346.80</ele>
	<time>2023-11-18T12:09:34.000Z</time>
</trkpt>
<trkpt lat="45.8852310" lon="9.8335710">
	<ele>1346.40</ele>
	<time>2023-11-18T12:09:35.000Z</time>
</trkpt>
<trkpt lat="45.8852310" lon="9.8335710">
	<ele>1346.20</ele>
	<time>2023-11-18T12:09:36.000Z</time>
</trkpt>
<trkpt lat="45.8852280" lon="9.8335740">
	<ele>1346.20</ele>
	<time>2023-11-18T12:09:37.000Z</time>
</trkpt>
<trkpt lat="45.8852140" lon="9.8335840">
	<ele>1346.00</ele>
	<time>2023-11-18T12:09:38.000Z</time>
</trkpt>
<trkpt lat="45.8852050" lon="9.8335930">
	<ele>1345.80</ele>
	<time>2023-11-18T12:09:39.000Z</time>
</trkpt>
<trkpt lat="45.8851920" lon="9.8336040">
	<ele>1345.80</ele>
	<time>2023-11-18T12:09:40.000Z</time>
</trkpt>
<trkpt lat="45.8851840" lon="9.8336140">
	<ele>1345.80</ele>
	<time>2023-11-18T12:09:41.000Z</time>
</trkpt>
<trkpt lat="45.8851770" lon="9.8336230">
	<ele>1345.60</ele>
	<time>2023-11-18T12:09:42.000Z</time>
</trkpt>
<trkpt lat="45.8851690" lon="9.8336260">
	<ele>1345.60</ele>
	<time>2023-11-18T12:09:43.000Z</time>
</trkpt>
<trkpt lat="45.8851600" lon="9.8336290">
	<ele>1345.40</ele>
	<time>2023-11-18T12:09:44.000Z</time>
</trkpt>
<trkpt lat="45.8851530" lon="9.8336370">
	<ele>1345.20</ele>
	<time>2023-11-18T12:09:45.000Z</time>
</trkpt>
<trkpt lat="45.8851450" lon="9.8336450">
	<ele>1345.20</ele>
	<time>2023-11-18T12:09:46.000Z</time>
</trkpt>
<trkpt lat="45.8851400" lon="9.8336480">
	<ele>1344.40</ele>
	<time>2023-11-18T12:09:47.000Z</time>
</trkpt>
<trkpt lat="45.8851300" lon="9.8336530">
	<ele>1344.00</ele>
	<time>2023-11-18T12:09:48.000Z</time>
</trkpt>
<trkpt lat="45.8851200" lon="9.8336560">
	<ele>1343.40</ele>
	<time>2023-11-18T12:09:49.000Z</time>
</trkpt>
<trkpt lat="45.8851090" lon="9.8336590">
	<ele>1343.20</ele>
	<time>2023-11-18T12:09:50.000Z</time>
</trkpt>
<trkpt lat="45.8850990" lon="9.8336640">
	<ele>1343.00</ele>
	<time>2023-11-18T12:09:51.000Z</time>
</trkpt>
<trkpt lat="45.8850890" lon="9.8336670">
	<ele>1342.60</ele>
	<time>2023-11-18T12:09:52.000Z</time>
</trkpt>
<trkpt lat="45.8850780" lon="9.8336690">
	<ele>1342.60</ele>
	<time>2023-11-18T12:09:53.000Z</time>
</trkpt>
<trkpt lat="45.8850690" lon="9.8336710">
	<ele>1342.40</ele>
	<time>2023-11-18T12:09:54.000Z</time>
</trkpt>
<trkpt lat="45.8850600" lon="9.8336720">
	<ele>1342.20</ele>
	<time>2023-11-18T12:09:55.000Z</time>
</trkpt>
<trkpt lat="45.8850510" lon="9.8336760">
	<ele>1342.20</ele>
	<time>2023-11-18T12:09:56.000Z</time>
</trkpt>
<trkpt lat="45.8850440" lon="9.8336780">
	<ele>1341.80</ele>
	<time>2023-11-18T12:09:57.000Z</time>
</trkpt>
<trkpt lat="45.8850380" lon="9.8336820">
	<ele>1341.40</ele>
	<time>2023-11-18T12:09:58.000Z</time>
</trkpt>
<trkpt lat="45.8850270" lon="9.8336860">
	<ele>1341.20</ele>
	<time>2023-11-18T12:09:59.000Z</time>
</trkpt>
<trkpt lat="45.8850180" lon="9.8336980">
	<ele>1341.00</ele>
	<time>2023-11-18T12:10:00.000Z</time>
</trkpt>
<trkpt lat="45.8850120" lon="9.8337090">
	<ele>1340.80</ele>
	<time>2023-11-18T12:10:01.000Z</time>
</trkpt>
<trkpt lat="45.8850070" lon="9.8337160">
	<ele>1340.40</ele>
	<time>2023-11-18T12:10:02.000Z</time>
</trkpt>
<trkpt lat="45.8850030" lon="9.8337240">
	<ele>1340.20</ele>
	<time>2023-11-18T12:10:03.000Z</time>
</trkpt>
<trkpt lat="45.8849950" lon="9.8337310">
	<ele>1340.00</ele>
	<time>2023-11-18T12:10:04.000Z</time>
</trkpt>
<trkpt lat="45.8849880" lon="9.8337380">
	<ele>1339.80</ele>
	<time>2023-11-18T12:10:05.000Z</time>
</trkpt>
<trkpt lat="45.8849820" lon="9.8337440">
	<ele>1339.40</ele>
	<time>2023-11-18T12:10:06.000Z</time>
</trkpt>
<trkpt lat="45.8849730" lon="9.8337520">
	<ele>1339.20</ele>
	<time>2023-11-18T12:10:07.000Z</time>
</trkpt>
<trkpt lat="45.8849650" lon="9.8337580">
	<ele>1338.80</ele>
	<time>2023-11-18T12:10:08.000Z</time>
</trkpt>
<trkpt lat="45.8849540" lon="9.8337640">
	<ele>1338.60</ele>
	<time>2023-11-18T12:10:09.000Z</time>
</trkpt>
<trkpt lat="45.8849430" lon="9.8337670">
	<ele>1338.40</ele>
	<time>2023-11-18T12:10:10.000Z</time>
</trkpt>
<trkpt lat="45.8849340" lon="9.8337710">
	<ele>1338.20</ele>
	<time>2023-11-18T12:10:11.000Z</time>
</trkpt>
<trkpt lat="45.8849270" lon="9.8337740">
	<ele>1337.80</ele>
	<time>2023-11-18T12:10:12.000Z</time>
</trkpt>
<trkpt lat="45.8849200" lon="9.8337770">
	<ele>1337.60</ele>
	<time>2023-11-18T12:10:13.000Z</time>
</trkpt>
<trkpt lat="45.8849100" lon="9.8337800">
	<ele>1337.40</ele>
	<time>2023-11-18T12:10:14.000Z</time>
</trkpt>
<trkpt lat="45.8849040" lon="9.8337850">
	<ele>1337.40</ele>
	<time>2023-11-18T12:10:15.000Z</time>
</trkpt>
<trkpt lat="45.8848980" lon="9.8337930">
	<ele>1337.00</ele>
	<time>2023-11-18T12:10:16.000Z</time>
</trkpt>
<trkpt lat="45.8848930" lon="9.8338020">
	<ele>1336.60</ele>
	<time>2023-11-18T12:10:17.000Z</time>
</trkpt>
<trkpt lat="45.8848820" lon="9.8338090">
	<ele>1336.20</ele>
	<time>2023-11-18T12:10:18.000Z</time>
</trkpt>
<trkpt lat="45.8848730" lon="9.8338120">
	<ele>1336.20</ele>
	<time>2023-11-18T12:10:19.000Z</time>
</trkpt>
<trkpt lat="45.8848670" lon="9.8338190">
	<ele>1336.00</ele>
	<time>2023-11-18T12:10:20.000Z</time>
</trkpt>
<trkpt lat="45.8848620" lon="9.8338270">
	<ele>1335.80</ele>
	<time>2023-11-18T12:10:21.000Z</time>
</trkpt>
<trkpt lat="45.8848600" lon="9.8338360">
	<ele>1335.40</ele>
	<time>2023-11-18T12:10:22.000Z</time>
</trkpt>
<trkpt lat="45.8848590" lon="9.8338410">
	<ele>1335.40</ele>
	<time>2023-11-18T12:10:23.000Z</time>
</trkpt>
<trkpt lat="45.8848560" lon="9.8338430">
	<ele>1335.20</ele>
	<time>2023-11-18T12:10:24.000Z</time>
</trkpt>
<trkpt lat="45.8848520" lon="9.8338420">
	<ele>1335.00</ele>
	<time>2023-11-18T12:10:25.000Z</time>
</trkpt>
<trkpt lat="45.8848430" lon="9.8338390">
	<ele>1334.80</ele>
	<time>2023-11-18T12:10:26.000Z</time>
</trkpt>
<trkpt lat="45.8848320" lon="9.8338350">
	<ele>1334.80</ele>
	<time>2023-11-18T12:10:27.000Z</time>
</trkpt>
<trkpt lat="45.8848240" lon="9.8338350">
	<ele>1334.60</ele>
	<time>2023-11-18T12:10:28.000Z</time>
</trkpt>
<trkpt lat="45.8848140" lon="9.8338390">
	<ele>1334.20</ele>
	<time>2023-11-18T12:10:29.000Z</time>
</trkpt>
<trkpt lat="45.8848080" lon="9.8338450">
	<ele>1333.80</ele>
	<time>2023-11-18T12:10:30.000Z</time>
</trkpt>
<trkpt lat="45.8847970" lon="9.8338540">
	<ele>1333.40</ele>
	<time>2023-11-18T12:10:31.000Z</time>
</trkpt>
<trkpt lat="45.8847850" lon="9.8338670">
	<ele>1333.00</ele>
	<time>2023-11-18T12:10:32.000Z</time>
</trkpt>
<trkpt lat="45.8847750" lon="9.8338780">
	<ele>1332.80</ele>
	<time>2023-11-18T12:10:33.000Z</time>
</trkpt>
<trkpt lat="45.8847660" lon="9.8338880">
	<ele>1332.40</ele>
	<time>2023-11-18T12:10:34.000Z</time>
</trkpt>
<trkpt lat="45.8847630" lon="9.8338930">
	<ele>1332.20</ele>
	<time>2023-11-18T12:10:35.000Z</time>
</trkpt>
<trkpt lat="45.8847580" lon="9.8338970">
	<ele>1332.00</ele>
	<time>2023-11-18T12:10:36.000Z</time>
</trkpt>
<trkpt lat="45.8847510" lon="9.8339020">
	<ele>1332.00</ele>
	<time>2023-11-18T12:10:37.000Z</time>
</trkpt>
<trkpt lat="45.8847460" lon="9.8339080">
	<ele>1331.60</ele>
	<time>2023-11-18T12:10:38.000Z</time>
</trkpt>
<trkpt lat="45.8847400" lon="9.8339110">
	<ele>1331.60</ele>
	<time>2023-11-18T12:10:39.000Z</time>
</trkpt>
<trkpt lat="45.8847380" lon="9.8339130">
	<ele>1331.20</ele>
	<time>2023-11-18T12:10:40.000Z</time>
</trkpt>
<trkpt lat="45.8847300" lon="9.8339140">
	<ele>1331.20</ele>
	<time>2023-11-18T12:10:41.000Z</time>
</trkpt>
<trkpt lat="45.8847230" lon="9.8339180">
	<ele>1331.00</ele>
	<time>2023-11-18T12:10:42.000Z</time>
</trkpt>
<trkpt lat="45.8847130" lon="9.8339240">
	<ele>1330.80</ele>
	<time>2023-11-18T12:10:43.000Z</time>
</trkpt>
<trkpt lat="45.8847110" lon="9.8339290">
	<ele>1330.40</ele>
	<time>2023-11-18T12:10:44.000Z</time>
</trkpt>
<trkpt lat="45.8847120" lon="9.8339360">
	<ele>1330.20</ele>
	<time>2023-11-18T12:10:45.000Z</time>
</trkpt>
<trkpt lat="45.8847160" lon="9.8339400">
	<ele>1330.00</ele>
	<time>2023-11-18T12:10:46.000Z</time>
</trkpt>
<trkpt lat="45.8847170" lon="9.8339470">
	<ele>1329.80</ele>
	<time>2023-11-18T12:10:47.000Z</time>
</trkpt>
<trkpt lat="45.8847110" lon="9.8339540">
	<ele>1329.60</ele>
	<time>2023-11-18T12:10:48.000Z</time>
</trkpt>
<trkpt lat="45.8847040" lon="9.8339570">
	<ele>1329.40</ele>
	<time>2023-11-18T12:10:49.000Z</time>
</trkpt>
<trkpt lat="45.8846970" lon="9.8339610">
	<ele>1329.20</ele>
	<time>2023-11-18T12:10:50.000Z</time>
</trkpt>
<trkpt lat="45.8846930" lon="9.8339640">
	<ele>1329.00</ele>
	<time>2023-11-18T12:10:51.000Z</time>
</trkpt>
<trkpt lat="45.8846890" lon="9.8339660">
	<ele>1329.00</ele>
	<time>2023-11-18T12:10:52.000Z</time>
</trkpt>
<trkpt lat="45.8846810" lon="9.8339640">
	<ele>1328.80</ele>
	<time>2023-11-18T12:10:53.000Z</time>
</trkpt>
<trkpt lat="45.8846700" lon="9.8339670">
	<ele>1328.60</ele>
	<time>2023-11-18T12:10:54.000Z</time>
</trkpt>
<trkpt lat="45.8846590" lon="9.8339680">
	<ele>1328.60</ele>
	<time>2023-11-18T12:10:55.000Z</time>
</trkpt>
<trkpt lat="45.8846490" lon="9.8339710">
	<ele>1327.80</ele>
	<time>2023-11-18T12:10:56.000Z</time>
</trkpt>
<trkpt lat="45.8846440" lon="9.8339720">
	<ele>1327.40</ele>
	<time>2023-11-18T12:10:57.000Z</time>
</trkpt>
<trkpt lat="45.8846380" lon="9.8339730">
	<ele>1327.20</ele>
	<time>2023-11-18T12:10:58.000Z</time>
</trkpt>
<trkpt lat="45.8846300" lon="9.8339660">
	<ele>1326.80</ele>
	<time>2023-11-18T12:10:59.000Z</time>
</trkpt>
<trkpt lat="45.8846130" lon="9.8339610">
	<ele>1326.60</ele>
	<time>2023-11-18T12:11:00.000Z</time>
</trkpt>
<trkpt lat="45.8846010" lon="9.8339600">
	<ele>1326.40</ele>
	<time>2023-11-18T12:11:01.000Z</time>
</trkpt>
<trkpt lat="45.8845880" lon="9.8339620">
	<ele>1326.20</ele>
	<time>2023-11-18T12:11:02.000Z</time>
</trkpt>
<trkpt lat="45.8845790" lon="9.8339680">
	<ele>1325.80</ele>
	<time>2023-11-18T12:11:03.000Z</time>
</trkpt>
<trkpt lat="45.8845700" lon="9.8339740">
	<ele>1325.60</ele>
	<time>2023-11-18T12:11:04.000Z</time>
</trkpt>
<trkpt lat="45.8845620" lon="9.8339790">
	<ele>1325.40</ele>
	<time>2023-11-18T12:11:05.000Z</time>
</trkpt>
<trkpt lat="45.8845560" lon="9.8339840">
	<ele>1325.00</ele>
	<time>2023-11-18T12:11:06.000Z</time>
</trkpt>
<trkpt lat="45.8845510" lon="9.8339820">
	<ele>1324.80</ele>
	<time>2023-11-18T12:11:07.000Z</time>
</trkpt>
<trkpt lat="45.8845430" lon="9.8339790">
	<ele>1324.60</ele>
	<time>2023-11-18T12:11:08.000Z</time>
</trkpt>
<trkpt lat="45.8845350" lon="9.8339730">
	<ele>1324.40</ele>
	<time>2023-11-18T12:11:09.000Z</time>
</trkpt>
<trkpt lat="45.8845270" lon="9.8339690">
	<ele>1324.20</ele>
	<time>2023-11-18T12:11:10.000Z</time>
</trkpt>
<trkpt lat="45.8845200" lon="9.8339700">
	<ele>1324.00</ele>
	<time>2023-11-18T12:11:11.000Z</time>
</trkpt>
<trkpt lat="45.8845120" lon="9.8339750">
	<ele>1323.80</ele>
	<time>2023-11-18T12:11:12.000Z</time>
</trkpt>
<trkpt lat="45.8845080" lon="9.8339790">
	<ele>1323.20</ele>
	<time>2023-11-18T12:11:13.000Z</time>
</trkpt>
<trkpt lat="45.8845010" lon="9.8339860">
	<ele>1322.80</ele>
	<time>2023-11-18T12:11:14.000Z</time>
</trkpt>
<trkpt lat="45.8844950" lon="9.8339940">
	<ele>1322.60</ele>
	<time>2023-11-18T12:11:15.000Z</time>
</trkpt>
<trkpt lat="45.8844940" lon="9.8340020">
	<ele>1322.40</ele>
	<time>2023-11-18T12:11:16.000Z</time>
</trkpt>
<trkpt lat="45.8844930" lon="9.8340080">
	<ele>1322.20</ele>
	<time>2023-11-18T12:11:17.000Z</time>
</trkpt>
<trkpt lat="45.8844880" lon="9.8340130">
	<ele>1322.20</ele>
	<time>2023-11-18T12:11:18.000Z</time>
</trkpt>
<trkpt lat="45.8844820" lon="9.8340180">
	<ele>1321.80</ele>
	<time>2023-11-18T12:11:19.000Z</time>
</trkpt>
<trkpt lat="45.8844760" lon="9.8340190">
	<ele>1321.40</ele>
	<time>2023-11-18T12:11:20.000Z</time>
</trkpt>
<trkpt lat="45.8844700" lon="9.8340170">
	<ele>1321.20</ele>
	<time>2023-11-18T12:11:21.000Z</time>
</trkpt>
<trkpt lat="45.8844620" lon="9.8340130">
	<ele>1321.00</ele>
	<time>2023-11-18T12:11:22.000Z</time>
</trkpt>
<trkpt lat="45.8844530" lon="9.8340140">
	<ele>1320.80</ele>
	<time>2023-11-18T12:11:23.000Z</time>
</trkpt>
<trkpt lat="45.8844440" lon="9.8340180">
	<ele>1320.40</ele>
	<time>2023-11-18T12:11:24.000Z</time>
</trkpt>
<trkpt lat="45.8844380" lon="9.8340210">
	<ele>1320.00</ele>
	<time>2023-11-18T12:11:25.000Z</time>
</trkpt>
<trkpt lat="45.8844350" lon="9.8340240">
	<ele>1319.80</ele>
	<time>2023-11-18T12:11:26.000Z</time>
</trkpt>
<trkpt lat="45.8844310" lon="9.8340250">
	<ele>1319.60</ele>
	<time>2023-11-18T12:11:27.000Z</time>
</trkpt>
<trkpt lat="45.8844260" lon="9.8340220">
	<ele>1319.20</ele>
	<time>2023-11-18T12:11:28.000Z</time>
</trkpt>
<trkpt lat="45.8844170" lon="9.8340200">
	<ele>1319.00</ele>
	<time>2023-11-18T12:11:29.000Z</time>
</trkpt>
<trkpt lat="45.8844070" lon="9.8340180">
	<ele>1318.80</ele>
	<time>2023-11-18T12:11:30.000Z</time>
</trkpt>
<trkpt lat="45.8843970" lon="9.8340190">
	<ele>1318.40</ele>
	<time>2023-11-18T12:11:31.000Z</time>
</trkpt>
<trkpt lat="45.8843900" lon="9.8340190">
	<ele>1318.20</ele>
	<time>2023-11-18T12:11:32.000Z</time>
</trkpt>
<trkpt lat="45.8843820" lon="9.8340260">
	<ele>1318.00</ele>
	<time>2023-11-18T12:11:33.000Z</time>
</trkpt>
<trkpt lat="45.8843730" lon="9.8340330">
	<ele>1318.00</ele>
	<time>2023-11-18T12:11:34.000Z</time>
</trkpt>
<trkpt lat="45.8843660" lon="9.8340400">
	<ele>1317.80</ele>
	<time>2023-11-18T12:11:35.000Z</time>
</trkpt>
<trkpt lat="45.8843580" lon="9.8340440">
	<ele>1317.60</ele>
	<time>2023-11-18T12:11:36.000Z</time>
</trkpt>
<trkpt lat="45.8843540" lon="9.8340480">
	<ele>1317.20</ele>
	<time>2023-11-18T12:11:37.000Z</time>
</trkpt>
<trkpt lat="45.8843520" lon="9.8340480">
	<ele>1317.00</ele>
	<time>2023-11-18T12:11:38.000Z</time>
</trkpt>
<trkpt lat="45.8843490" lon="9.8340450">
	<ele>1317.00</ele>
	<time>2023-11-18T12:11:39.000Z</time>
</trkpt>
<trkpt lat="45.8843410" lon="9.8340380">
	<ele>1316.60</ele>
	<time>2023-11-18T12:11:40.000Z</time>
</trkpt>
<trkpt lat="45.8843360" lon="9.8340310">
	<ele>1316.40</ele>
	<time>2023-11-18T12:11:41.000Z</time>
</trkpt>
<trkpt lat="45.8843320" lon="9.8340280">
	<ele>1316.40</ele>
	<time>2023-11-18T12:11:42.000Z</time>
</trkpt>
<trkpt lat="45.8843270" lon="9.8340270">
	<ele>1316.20</ele>
	<time>2023-11-18T12:11:43.000Z</time>
</trkpt>
<trkpt lat="45.8843210" lon="9.8340270">
	<ele>1316.00</ele>
	<time>2023-11-18T12:11:44.000Z</time>
</trkpt>
<trkpt lat="45.8843170" lon="9.8340240">
	<ele>1316.00</ele>
	<time>2023-11-18T12:11:45.000Z</time>
</trkpt>
<trkpt lat="45.8843140" lon="9.8340210">
	<ele>1315.80</ele>
	<time>2023-11-18T12:11:46.000Z</time>
</trkpt>
<trkpt lat="45.8843100" lon="9.8340160">
	<ele>1315.80</ele>
	<time>2023-11-18T12:11:47.000Z</time>
</trkpt>
<trkpt lat="45.8843030" lon="9.8340130">
	<ele>1315.60</ele>
	<time>2023-11-18T12:11:48.000Z</time>
</trkpt>
<trkpt lat="45.8842970" lon="9.8340070">
	<ele>1315.20</ele>
	<time>2023-11-18T12:11:49.000Z</time>
</trkpt>
<trkpt lat="45.8842900" lon="9.8340020">
	<ele>1315.00</ele>
	<time>2023-11-18T12:11:50.000Z</time>
</trkpt>
<trkpt lat="45.8842810" lon="9.8340020">
	<ele>1314.80</ele>
	<time>2023-11-18T12:11:51.000Z</time>
</trkpt>
<trkpt lat="45.8842750" lon="9.8340050">
	<ele>1314.40</ele>
	<time>2023-11-18T12:11:52.000Z</time>
</trkpt>
<trkpt lat="45.8842700" lon="9.8340070">
	<ele>1314.20</ele>
	<time>2023-11-18T12:11:53.000Z</time>
</trkpt>
<trkpt lat="45.8842630" lon="9.8340100">
	<ele>1314.00</ele>
	<time>2023-11-18T12:11:54.000Z</time>
</trkpt>
<trkpt lat="45.8842600" lon="9.8340140">
	<ele>1313.60</ele>
	<time>2023-11-18T12:11:55.000Z</time>
</trkpt>
<trkpt lat="45.8842580" lon="9.8340150">
	<ele>1313.40</ele>
	<time>2023-11-18T12:11:56.000Z</time>
</trkpt>
<trkpt lat="45.8842540" lon="9.8340170">
	<ele>1313.20</ele>
	<time>2023-11-18T12:11:57.000Z</time>
</trkpt>
<trkpt lat="45.8842500" lon="9.8340120">
	<ele>1313.00</ele>
	<time>2023-11-18T12:11:58.000Z</time>
</trkpt>
<trkpt lat="45.8842410" lon="9.8340040">
	<ele>1312.80</ele>
	<time>2023-11-18T12:11:59.000Z</time>
</trkpt>
<trkpt lat="45.8842310" lon="9.8339940">
	<ele>1312.60</ele>
	<time>2023-11-18T12:12:00.000Z</time>
</trkpt>
<trkpt lat="45.8842240" lon="9.8339820">
	<ele>1312.40</ele>
	<time>2023-11-18T12:12:01.000Z</time>
</trkpt>
<trkpt lat="45.8842180" lon="9.8339820">
	<ele>1311.80</ele>
	<time>2023-11-18T12:12:02.000Z</time>
</trkpt>
<trkpt lat="45.8842080" lon="9.8339760">
	<ele>1311.40</ele>
	<time>2023-11-18T12:12:03.000Z</time>
</trkpt>
<trkpt lat="45.8841950" lon="9.8339680">
	<ele>1311.20</ele>
	<time>2023-11-18T12:12:04.000Z</time>
</trkpt>
<trkpt lat="45.8841820" lon="9.8339660">
	<ele>1311.00</ele>
	<time>2023-11-18T12:12:05.000Z</time>
</trkpt>
<trkpt lat="45.8841750" lon="9.8339550">
	<ele>1310.80</ele>
	<time>2023-11-18T12:12:06.000Z</time>
</trkpt>
<trkpt lat="45.8841660" lon="9.8339510">
	<ele>1310.40</ele>
	<time>2023-11-18T12:12:07.000Z</time>
</trkpt>
<trkpt lat="45.8841610" lon="9.8339500">
	<ele>1310.20</ele>
	<time>2023-11-18T12:12:08.000Z</time>
</trkpt>
<trkpt lat="45.8841480" lon="9.8339460">
	<ele>1309.80</ele>
	<time>2023-11-18T12:12:09.000Z</time>
</trkpt>
<trkpt lat="45.8841360" lon="9.8339440">
	<ele>1309.80</ele>
	<time>2023-11-18T12:12:10.000Z</time>
</trkpt>
<trkpt lat="45.8841330" lon="9.8339490">
	<ele>1309.60</ele>
	<time>2023-11-18T12:12:11.000Z</time>
</trkpt>
<trkpt lat="45.8841240" lon="9.8339600">
	<ele>1309.40</ele>
	<time>2023-11-18T12:12:12.000Z</time>
</trkpt>
<trkpt lat="45.8841160" lon="9.8339610">
	<ele>1309.00</ele>
	<time>2023-11-18T12:12:13.000Z</time>
</trkpt>
<trkpt lat="45.8841160" lon="9.8339680">
	<ele>1308.80</ele>
	<time>2023-11-18T12:12:14.000Z</time>
</trkpt>
<trkpt lat="45.8841160" lon="9.8339800">
	<ele>1308.60</ele>
	<time>2023-11-18T12:12:15.000Z</time>
</trkpt>
<trkpt lat="45.8841200" lon="9.8339870">
	<ele>1308.40</ele>
	<time>2023-11-18T12:12:16.000Z</time>
</trkpt>
<trkpt lat="45.8841150" lon="9.8339920">
	<ele>1308.20</ele>
	<time>2023-11-18T12:12:17.000Z</time>
</trkpt>
<trkpt lat="45.8841030" lon="9.8339950">
	<ele>1307.80</ele>
	<time>2023-11-18T12:12:18.000Z</time>
</trkpt>
<trkpt lat="45.8840980" lon="9.8339930">
	<ele>1307.40</ele>
	<time>2023-11-18T12:12:19.000Z</time>
</trkpt>
<trkpt lat="45.8840920" lon="9.8339960">
	<ele>1307.20</ele>
	<time>2023-11-18T12:12:20.000Z</time>
</trkpt>
<trkpt lat="45.8840830" lon="9.8340040">
	<ele>1307.00</ele>
	<time>2023-11-18T12:12:21.000Z</time>
</trkpt>
<trkpt lat="45.8840720" lon="9.8340030">
	<ele>1307.00</ele>
	<time>2023-11-18T12:12:22.000Z</time>
</trkpt>
<trkpt lat="45.8840590" lon="9.8340010">
	<ele>1306.80</ele>
	<time>2023-11-18T12:12:23.000Z</time>
</trkpt>
<trkpt lat="45.8840470" lon="9.8340020">
	<ele>1306.60</ele>
	<time>2023-11-18T12:12:24.000Z</time>
</trkpt>
<trkpt lat="45.8840350" lon="9.8340030">
	<ele>1306.40</ele>
	<time>2023-11-18T12:12:25.000Z</time>
</trkpt>
<trkpt lat="45.8840250" lon="9.8340070">
	<ele>1306.20</ele>
	<time>2023-11-18T12:12:26.000Z</time>
</trkpt>
<trkpt lat="45.8840150" lon="9.8340120">
	<ele>1306.00</ele>
	<time>2023-11-18T12:12:27.000Z</time>
</trkpt>
<trkpt lat="45.8840060" lon="9.8340120">
	<ele>1305.80</ele>
	<time>2023-11-18T12:12:28.000Z</time>
</trkpt>
<trkpt lat="45.8839960" lon="9.8340100">
	<ele>1305.60</ele>
	<time>2023-11-18T12:12:29.000Z</time>
</trkpt>
<trkpt lat="45.8839870" lon="9.8340050">
	<ele>1305.60</ele>
	<time>2023-11-18T12:12:30.000Z</time>
</trkpt>
<trkpt lat="45.8839780" lon="9.8340040">
	<ele>1305.40</ele>
	<time>2023-11-18T12:12:31.000Z</time>
</trkpt>
<trkpt lat="45.8839720" lon="9.8340020">
	<ele>1305.00</ele>
	<time>2023-11-18T12:12:32.000Z</time>
</trkpt>
<trkpt lat="45.8839670" lon="9.8339940">
	<ele>1305.00</ele>
	<time>2023-11-18T12:12:33.000Z</time>
</trkpt>
<trkpt lat="45.8839630" lon="9.8339890">
	<ele>1305.00</ele>
	<time>2023-11-18T12:12:34.000Z</time>
</trkpt>
<trkpt lat="45.8839570" lon="9.8339850">
	<ele>1304.60</ele>
	<time>2023-11-18T12:12:35.000Z</time>
</trkpt>
<trkpt lat="45.8839510" lon="9.8339800">
	<ele>1304.40</ele>
	<time>2023-11-18T12:12:36.000Z</time>
</trkpt>
<trkpt lat="45.8839480" lon="9.8339750">
	<ele>1304.20</ele>
	<time>2023-11-18T12:12:37.000Z</time>
</trkpt>
<trkpt lat="45.8839400" lon="9.8339750">
	<ele>1303.80</ele>
	<time>2023-11-18T12:12:38.000Z</time>
</trkpt>
<trkpt lat="45.8839300" lon="9.8339740">
	<ele>1303.40</ele>
	<time>2023-11-18T12:12:39.000Z</time>
</trkpt>
<trkpt lat="45.8839150" lon="9.8339720">
	<ele>1303.00</ele>
	<time>2023-11-18T12:12:40.000Z</time>
</trkpt>
<trkpt lat="45.8839030" lon="9.8339750">
	<ele>1302.80</ele>
	<time>2023-11-18T12:12:41.000Z</time>
</trkpt>
<trkpt lat="45.8838960" lon="9.8339780">
	<ele>1302.60</ele>
	<time>2023-11-18T12:12:42.000Z</time>
</trkpt>
<trkpt lat="45.8838890" lon="9.8339830">
	<ele>1302.40</ele>
	<time>2023-11-18T12:12:43.000Z</time>
</trkpt>
<trkpt lat="45.8838840" lon="9.8339790">
	<ele>1302.40</ele>
	<time>2023-11-18T12:12:44.000Z</time>
</trkpt>
<trkpt lat="45.8838760" lon="9.8339770">
	<ele>1302.20</ele>
	<time>2023-11-18T12:12:45.000Z</time>
</trkpt>
<trkpt lat="45.8838620" lon="9.8339730">
	<ele>1302.00</ele>
	<time>2023-11-18T12:12:46.000Z</time>
</trkpt>
<trkpt lat="45.8838550" lon="9.8339700">
	<ele>1301.60</ele>
	<time>2023-11-18T12:12:47.000Z</time>
</trkpt>
<trkpt lat="45.8838440" lon="9.8339710">
	<ele>1301.40</ele>
	<time>2023-11-18T12:12:48.000Z</time>
</trkpt>
<trkpt lat="45.8838330" lon="9.8339730">
	<ele>1301.20</ele>
	<time>2023-11-18T12:12:49.000Z</time>
</trkpt>
<trkpt lat="45.8838250" lon="9.8339700">
	<ele>1301.00</ele>
	<time>2023-11-18T12:12:50.000Z</time>
</trkpt>
<trkpt lat="45.8838140" lon="9.8339640">
	<ele>1300.80</ele>
	<time>2023-11-18T12:12:51.000Z</time>
</trkpt>
<trkpt lat="45.8838070" lon="9.8339590">
	<ele>1300.60</ele>
	<time>2023-11-18T12:12:52.000Z</time>
</trkpt>
<trkpt lat="45.8837960" lon="9.8339550">
	<ele>1300.40</ele>
	<time>2023-11-18T12:12:53.000Z</time>
</trkpt>
<trkpt lat="45.8837810" lon="9.8339520">
	<ele>1300.20</ele>
	<time>2023-11-18T12:12:54.000Z</time>
</trkpt>
<trkpt lat="45.8837710" lon="9.8339500">
	<ele>1299.80</ele>
	<time>2023-11-18T12:12:55.000Z</time>
</trkpt>
<trkpt lat="45.8837630" lon="9.8339480">
	<ele>1299.60</ele>
	<time>2023-11-18T12:12:56.000Z</time>
</trkpt>
<trkpt lat="45.8837530" lon="9.8339470">
	<ele>1299.20</ele>
	<time>2023-11-18T12:12:57.000Z</time>
</trkpt>
<trkpt lat="45.8837430" lon="9.8339450">
	<ele>1298.80</ele>
	<time>2023-11-18T12:12:58.000Z</time>
</trkpt>
<trkpt lat="45.8837330" lon="9.8339410">
	<ele>1298.60</ele>
	<time>2023-11-18T12:12:59.000Z</time>
</trkpt>
<trkpt lat="45.8837230" lon="9.8339410">
	<ele>1298.20</ele>
	<time>2023-11-18T12:13:00.000Z</time>
</trkpt>
<trkpt lat="45.8837110" lon="9.8339390">
	<ele>1298.00</ele>
	<time>2023-11-18T12:13:01.000Z</time>
</trkpt>
<trkpt lat="45.8837040" lon="9.8339390">
	<ele>1297.60</ele>
	<time>2023-11-18T12:13:02.000Z</time>
</trkpt>
<trkpt lat="45.8836950" lon="9.8339350">
	<ele>1297.40</ele>
	<time>2023-11-18T12:13:03.000Z</time>
</trkpt>
<trkpt lat="45.8836860" lon="9.8339300">
	<ele>1297.20</ele>
	<time>2023-11-18T12:13:04.000Z</time>
</trkpt>
<trkpt lat="45.8836780" lon="9.8339250">
	<ele>1297.00</ele>
	<time>2023-11-18T12:13:05.000Z</time>
</trkpt>
<trkpt lat="45.8836710" lon="9.8339200">
	<ele>1296.80</ele>
	<time>2023-11-18T12:13:06.000Z</time>
</trkpt>
<trkpt lat="45.8836670" lon="9.8339180">
	<ele>1296.60</ele>
	<time>2023-11-18T12:13:07.000Z</time>
</trkpt>
<trkpt lat="45.8836640" lon="9.8339190">
	<ele>1296.40</ele>
	<time>2023-11-18T12:13:08.000Z</time>
</trkpt>
<trkpt lat="45.8836630" lon="9.8339190">
	<ele>1296.00</ele>
	<time>2023-11-18T12:13:09.000Z</time>
</trkpt>
<trkpt lat="45.8836620" lon="9.8339210">
	<ele>1296.00</ele>
	<time>2023-11-18T12:13:10.000Z</time>
</trkpt>
<trkpt lat="45.8836610" lon="9.8339190">
	<ele>1296.00</ele>
	<time>2023-11-18T12:13:11.000Z</time>
</trkpt>
<trkpt lat="45.8836640" lon="9.8339140">
	<ele>1295.80</ele>
	<time>2023-11-18T12:13:12.000Z</time>
</trkpt>
<trkpt lat="45.8836660" lon="9.8339130">
	<ele>1295.80</ele>
	<time>2023-11-18T12:13:13.000Z</time>
</trkpt>
<trkpt lat="45.8836680" lon="9.8339120">
	<ele>1295.80</ele>
	<time>2023-11-18T12:13:14.000Z</time>
</trkpt>
<trkpt lat="45.8836680" lon="9.8339130">
	<ele>1295.80</ele>
	<time>2023-11-18T12:13:15.000Z</time>
</trkpt>
<trkpt lat="45.8836660" lon="9.8339160">
	<ele>1295.80</ele>
	<time>2023-11-18T12:13:16.000Z</time>
</trkpt>
<trkpt lat="45.8836620" lon="9.8339220">
	<ele>1295.80</ele>
	<time>2023-11-18T12:13:17.000Z</time>
</trkpt>
<trkpt lat="45.8836580" lon="9.8339250">
	<ele>1295.60</ele>
	<time>2023-11-18T12:13:18.000Z</time>
</trkpt>
<trkpt lat="45.8836600" lon="9.8339260">
	<ele>1295.60</ele>
	<time>2023-11-18T12:13:19.000Z</time>
</trkpt>
<trkpt lat="45.8836610" lon="9.8339270">
	<ele>1295.60</ele>
	<time>2023-11-18T12:13:20.000Z</time>
</trkpt>
<trkpt lat="45.8836610" lon="9.8339270">
	<ele>1295.60</ele>
	<time>2023-11-18T12:13:21.000Z</time>
</trkpt>
<trkpt lat="45.8836610" lon="9.8339270">
	<ele>1295.60</ele>
	<time>2023-11-18T12:13:22.000Z</time>
</trkpt>
<trkpt lat="45.8836610" lon="9.8339270">
	<ele>1295.40</ele>
	<time>2023-11-18T12:13:23.000Z</time>
</trkpt>
<trkpt lat="45.8836610" lon="9.8339270">
	<ele>1295.40</ele>
	<time>2023-11-18T12:13:24.000Z</time>
</trkpt>
<trkpt lat="45.8836610" lon="9.8339270">
	<ele>1295.40</ele>
	<time>2023-11-18T12:13:25.000Z</time>
</trkpt>
<trkpt lat="45.8836610" lon="9.8339270">
	<ele>1295.40</ele>
	<time>2023-11-18T12:13:26.000Z</time>
</trkpt>
<trkpt lat="45.8836610" lon="9.8339270">
	<ele>1295.40</ele>
	<time>2023-11-18T12:13:27.000Z</time>
</trkpt>
<trkpt lat="45.8836610" lon="9.8339260">
	<ele>1295.40</ele>
	<time>2023-11-18T12:13:28.000Z</time>
</trkpt>
<trkpt lat="45.8836610" lon="9.8339250">
	<ele>1295.40</ele>
	<time>2023-11-18T12:13:29.000Z</time>
</trkpt>
<trkpt lat="45.8836620" lon="9.8339250">
	<ele>1295.40</ele>
	<time>2023-11-18T12:13:30.000Z</time>
</trkpt>
<trkpt lat="45.8836620" lon="9.8339240">
	<ele>1295.40</ele>
	<time>2023-11-18T12:13:31.000Z</time>
</trkpt>
<trkpt lat="45.8836640" lon="9.8339220">
	<ele>1295.40</ele>
	<time>2023-11-18T12:13:32.000Z</time>
</trkpt>
<trkpt lat="45.8836660" lon="9.8339210">
	<ele>1295.40</ele>
	<time>2023-11-18T12:13:33.000Z</time>
</trkpt>
<trkpt lat="45.8836660" lon="9.8339210">
	<ele>1295.40</ele>
	<time>2023-11-18T12:13:34.000Z</time>
</trkpt>
<trkpt lat="45.8836660" lon="9.8339200">
	<ele>1295.40</ele>
	<time>2023-11-18T12:13:35.000Z</time>
</trkpt>
<trkpt lat="45.8836660" lon="9.8339200">
	<ele>1295.40</ele>
	<time>2023-11-18T12:13:36.000Z</time>
</trkpt>
<trkpt lat="45.8836670" lon="9.8339190">
	<ele>1295.60</ele>
	<time>2023-11-18T12:13:37.000Z</time>
</trkpt>
<trkpt lat="45.8836670" lon="9.8339190">
	<ele>1295.60</ele>
	<time>2023-11-18T12:13:38.000Z</time>
</trkpt>
<trkpt lat="45.8836670" lon="9.8339190">
	<ele>1295.60</ele>
	<time>2023-11-18T12:13:39.000Z</time>
</trkpt>
<trkpt lat="45.8836670" lon="9.8339180">
	<ele>1295.60</ele>
	<time>2023-11-18T12:13:40.000Z</time>
</trkpt>
<trkpt lat="45.8836680" lon="9.8339180">
	<ele>1295.80</ele>
	<time>2023-11-18T12:13:41.000Z</time>
</trkpt>
<trkpt lat="45.8836680" lon="9.8339170">
	<ele>1295.80</ele>
	<time>2023-11-18T12:13:42.000Z</time>
</trkpt>
<trkpt lat="45.8836680" lon="9.8339180">
	<ele>1295.80</ele>
	<time>2023-11-18T12:13:43.000Z</time>
</trkpt>
<trkpt lat="45.8836670" lon="9.8339180">
	<ele>1295.80</ele>
	<time>2023-11-18T12:13:44.000Z</time>
</trkpt>
<trkpt lat="45.8836670" lon="9.8339190">
	<ele>1295.80</ele>
	<time>2023-11-18T12:13:45.000Z</time>
</trkpt>
<trkpt lat="45.8836670" lon="9.8339190">
	<ele>1295.60</ele>
	<time>2023-11-18T12:13:46.000Z</time>
</trkpt>
<trkpt lat="45.8836670" lon="9.8339190">
	<ele>1295.40</ele>
	<time>2023-11-18T12:13:47.000Z</time>
</trkpt>
<trkpt lat="45.8836670" lon="9.8339190">
	<ele>1295.20</ele>
	<time>2023-11-18T12:13:48.000Z</time>
</trkpt>
<trkpt lat="45.8836670" lon="9.8339190">
	<ele>1295.20</ele>
	<time>2023-11-18T12:13:49.000Z</time>
</trkpt>
<trkpt lat="45.8836630" lon="9.8339180">
	<ele>1295.20</ele>
	<time>2023-11-18T12:13:50.000Z</time>
</trkpt>
<trkpt lat="45.8836490" lon="9.8339110">
	<ele>1294.80</ele>
	<time>2023-11-18T12:13:51.000Z</time>
</trkpt>
<trkpt lat="45.8836380" lon="9.8339010">
	<ele>1294.40</ele>
	<time>2023-11-18T12:13:52.000Z</time>
</trkpt>
<trkpt lat="45.8836250" lon="9.8338940">
	<ele>1294.20</ele>
	<time>2023-11-18T12:13:53.000Z</time>
</trkpt>
<trkpt lat="45.8836120" lon="9.8338870">
	<ele>1294.20</ele>
	<time>2023-11-18T12:13:54.000Z</time>
</trkpt>
<trkpt lat="45.8836040" lon="9.8338790">
	<ele>1293.80</ele>
	<time>2023-11-18T12:13:55.000Z</time>
</trkpt>
<trkpt lat="45.8835940" lon="9.8338710">
	<ele>1293.80</ele>
	<time>2023-11-18T12:13:56.000Z</time>
</trkpt>
<trkpt lat="45.8835850" lon="9.8338620">
	<ele>1293.40</ele>
	<time>2023-11-18T12:13:57.000Z</time>
</trkpt>
<trkpt lat="45.8835810" lon="9.8338510">
	<ele>1293.40</ele>
	<time>2023-11-18T12:13:58.000Z</time>
</trkpt>
<trkpt lat="45.8835770" lon="9.8338370">
	<ele>1293.00</ele>
	<time>2023-11-18T12:13:59.000Z</time>
</trkpt>
<trkpt lat="45.8835760" lon="9.8338270">
	<ele>1292.80</ele>
	<time>2023-11-18T12:14:00.000Z</time>
</trkpt>
<trkpt lat="45.8835780" lon="9.8338220">
	<ele>1292.60</ele>
	<time>2023-11-18T12:14:01.000Z</time>
</trkpt>
<trkpt lat="45.8835820" lon="9.8338090">
	<ele>1292.60</ele>
	<time>2023-11-18T12:14:02.000Z</time>
</trkpt>
<trkpt lat="45.8835830" lon="9.8337990">
	<ele>1292.40</ele>
	<time>2023-11-18T12:14:03.000Z</time>
</trkpt>
<trkpt lat="45.8835820" lon="9.8337860">
	<ele>1292.40</ele>
	<time>2023-11-18T12:14:04.000Z</time>
</trkpt>
<trkpt lat="45.8835770" lon="9.8337740">
	<ele>1292.20</ele>
	<time>2023-11-18T12:14:05.000Z</time>
</trkpt>
<trkpt lat="45.8835740" lon="9.8337600">
	<ele>1292.00</ele>
	<time>2023-11-18T12:14:06.000Z</time>
</trkpt>
<trkpt lat="45.8835700" lon="9.8337470">
	<ele>1292.00</ele>
	<time>2023-11-18T12:14:07.000Z</time>
</trkpt>
<trkpt lat="45.8835660" lon="9.8337330">
	<ele>1291.80</ele>
	<time>2023-11-18T12:14:08.000Z</time>
</trkpt>
<trkpt lat="45.8835620" lon="9.8337180">
	<ele>1291.60</ele>
	<time>2023-11-18T12:14:09.000Z</time>
</trkpt>
<trkpt lat="45.8835620" lon="9.8337050">
	<ele>1291.40</ele>
	<time>2023-11-18T12:14:10.000Z</time>
</trkpt>
<trkpt lat="45.8835640" lon="9.8336930">
	<ele>1291.00</ele>
	<time>2023-11-18T12:14:11.000Z</time>
</trkpt>
<trkpt lat="45.8835620" lon="9.8336810">
	<ele>1291.00</ele>
	<time>2023-11-18T12:14:12.000Z</time>
</trkpt>
<trkpt lat="45.8835620" lon="9.8336690">
	<ele>1290.60</ele>
	<time>2023-11-18T12:14:13.000Z</time>
</trkpt>
<trkpt lat="45.8835600" lon="9.8336560">
	<ele>1290.20</ele>
	<time>2023-11-18T12:14:14.000Z</time>
</trkpt>
<trkpt lat="45.8835570" lon="9.8336440">
	<ele>1289.80</ele>
	<time>2023-11-18T12:14:15.000Z</time>
</trkpt>
<trkpt lat="45.8835510" lon="9.8336390">
	<ele>1289.60</ele>
	<time>2023-11-18T12:14:16.000Z</time>
</trkpt>
<trkpt lat="45.8835460" lon="9.8336350">
	<ele>1289.40</ele>
	<time>2023-11-18T12:14:17.000Z</time>
</trkpt>
<trkpt lat="45.8835380" lon="9.8336370">
	<ele>1289.00</ele>
	<time>2023-11-18T12:14:18.000Z</time>
</trkpt>
<trkpt lat="45.8835320" lon="9.8336410">
	<ele>1288.80</ele>
	<time>2023-11-18T12:14:19.000Z</time>
</trkpt>
<trkpt lat="45.8835280" lon="9.8336440">
	<ele>1288.40</ele>
	<time>2023-11-18T12:14:20.000Z</time>
</trkpt>
<trkpt lat="45.8835230" lon="9.8336470">
	<ele>1288.20</ele>
	<time>2023-11-18T12:14:21.000Z</time>
</trkpt>
<trkpt lat="45.8835180" lon="9.8336490">
	<ele>1287.80</ele>
	<time>2023-11-18T12:14:22.000Z</time>
</trkpt>
<trkpt lat="45.8835110" lon="9.8336490">
	<ele>1287.60</ele>
	<time>2023-11-18T12:14:23.000Z</time>
</trkpt>
<trkpt lat="45.8835070" lon="9.8336520">
	<ele>1287.40</ele>
	<time>2023-11-18T12:14:24.000Z</time>
</trkpt>
<trkpt lat="45.8834970" lon="9.8336570">
	<ele>1287.20</ele>
	<time>2023-11-18T12:14:25.000Z</time>
</trkpt>
<trkpt lat="45.8834880" lon="9.8336610">
	<ele>1287.00</ele>
	<time>2023-11-18T12:14:26.000Z</time>
</trkpt>
<trkpt lat="45.8834810" lon="9.8336640">
	<ele>1286.60</ele>
	<time>2023-11-18T12:14:27.000Z</time>
</trkpt>
<trkpt lat="45.8834750" lon="9.8336640">
	<ele>1286.40</ele>
	<time>2023-11-18T12:14:28.000Z</time>
</trkpt>
<trkpt lat="45.8834680" lon="9.8336620">
	<ele>1286.00</ele>
	<time>2023-11-18T12:14:29.000Z</time>
</trkpt>
<trkpt lat="45.8834620" lon="9.8336620">
	<ele>1285.80</ele>
	<time>2023-11-18T12:14:30.000Z</time>
</trkpt>
<trkpt lat="45.8834520" lon="9.8336610">
	<ele>1285.60</ele>
	<time>2023-11-18T12:14:31.000Z</time>
</trkpt>
<trkpt lat="45.8834450" lon="9.8336620">
	<ele>1285.60</ele>
	<time>2023-11-18T12:14:32.000Z</time>
</trkpt>
<trkpt lat="45.8834360" lon="9.8336630">
	<ele>1285.40</ele>
	<time>2023-11-18T12:14:33.000Z</time>
</trkpt>
<trkpt lat="45.8834320" lon="9.8336680">
	<ele>1285.00</ele>
	<time>2023-11-18T12:14:34.000Z</time>
</trkpt>
<trkpt lat="45.8834270" lon="9.8336740">
	<ele>1284.40</ele>
	<time>2023-11-18T12:14:35.000Z</time>
</trkpt>
<trkpt lat="45.8834230" lon="9.8336790">
	<ele>1284.00</ele>
	<time>2023-11-18T12:14:36.000Z</time>
</trkpt>
<trkpt lat="45.8834150" lon="9.8336840">
	<ele>1283.60</ele>
	<time>2023-11-18T12:14:37.000Z</time>
</trkpt>
<trkpt lat="45.8834100" lon="9.8336870">
	<ele>1283.40</ele>
	<time>2023-11-18T12:14:38.000Z</time>
</trkpt>
<trkpt lat="45.8834050" lon="9.8336890">
	<ele>1283.00</ele>
	<time>2023-11-18T12:14:39.000Z</time>
</trkpt>
<trkpt lat="45.8834000" lon="9.8336850">
	<ele>1282.80</ele>
	<time>2023-11-18T12:14:40.000Z</time>
</trkpt>
<trkpt lat="45.8833910" lon="9.8336830">
	<ele>1282.60</ele>
	<time>2023-11-18T12:14:41.000Z</time>
</trkpt>
<trkpt lat="45.8833810" lon="9.8336820">
	<ele>1282.40</ele>
	<time>2023-11-18T12:14:42.000Z</time>
</trkpt>
<trkpt lat="45.8833700" lon="9.8336830">
	<ele>1282.20</ele>
	<time>2023-11-18T12:14:43.000Z</time>
</trkpt>
<trkpt lat="45.8833600" lon="9.8336830">
	<ele>1281.80</ele>
	<time>2023-11-18T12:14:44.000Z</time>
</trkpt>
<trkpt lat="45.8833520" lon="9.8336840">
	<ele>1281.60</ele>
	<time>2023-11-18T12:14:45.000Z</time>
</trkpt>
<trkpt lat="45.8833430" lon="9.8336770">
	<ele>1281.40</ele>
	<time>2023-11-18T12:14:46.000Z</time>
</trkpt>
<trkpt lat="45.8833340" lon="9.8336710">
	<ele>1281.20</ele>
	<time>2023-11-18T12:14:47.000Z</time>
</trkpt>
<trkpt lat="45.8833270" lon="9.8336670">
	<ele>1281.00</ele>
	<time>2023-11-18T12:14:48.000Z</time>
</trkpt>
<trkpt lat="45.8833220" lon="9.8336610">
	<ele>1280.80</ele>
	<time>2023-11-18T12:14:49.000Z</time>
</trkpt>
<trkpt lat="45.8833150" lon="9.8336570">
	<ele>1280.60</ele>
	<time>2023-11-18T12:14:50.000Z</time>
</trkpt>
<trkpt lat="45.8833090" lon="9.8336540">
	<ele>1280.40</ele>
	<time>2023-11-18T12:14:51.000Z</time>
</trkpt>
<trkpt lat="45.8833130" lon="9.8336510">
	<ele>1280.40</ele>
	<time>2023-11-18T12:14:52.000Z</time>
</trkpt>
<trkpt lat="45.8833130" lon="9.8336470">
	<ele>1280.20</ele>
	<time>2023-11-18T12:14:53.000Z</time>
</trkpt>
<trkpt lat="45.8833140" lon="9.8336500">
	<ele>1280.00</ele>
	<time>2023-11-18T12:14:54.000Z</time>
</trkpt>
<trkpt lat="45.8833120" lon="9.8336460">
	<ele>1279.80</ele>
	<time>2023-11-18T12:14:55.000Z</time>
</trkpt>
<trkpt lat="45.8833110" lon="9.8336380">
	<ele>1279.60</ele>
	<time>2023-11-18T12:14:56.000Z</time>
</trkpt>
<trkpt lat="45.8833090" lon="9.8336230">
	<ele>1279.40</ele>
	<time>2023-11-18T12:14:57.000Z</time>
</trkpt>
<trkpt lat="45.8833020" lon="9.8336110">
	<ele>1279.20</ele>
	<time>2023-11-18T12:14:58.000Z</time>
</trkpt>
<trkpt lat="45.8832950" lon="9.8335980">
	<ele>1279.00</ele>
	<time>2023-11-18T12:14:59.000Z</time>
</trkpt>
<trkpt lat="45.8832880" lon="9.8335880">
	<ele>1278.80</ele>
	<time>2023-11-18T12:15:00.000Z</time>
</trkpt>
<trkpt lat="45.8832790" lon="9.8335800">
	<ele>1278.40</ele>
	<time>2023-11-18T12:15:01.000Z</time>
</trkpt>
<trkpt lat="45.8832710" lon="9.8335710">
	<ele>1278.00</ele>
	<time>2023-11-18T12:15:02.000Z</time>
</trkpt>
<trkpt lat="45.8832600" lon="9.8335640">
	<ele>1278.00</ele>
	<time>2023-11-18T12:15:03.000Z</time>
</trkpt>
<trkpt lat="45.8832510" lon="9.8335570">
	<ele>1277.60</ele>
	<time>2023-11-18T12:15:04.000Z</time>
</trkpt>
<trkpt lat="45.8832390" lon="9.8335510">
	<ele>1277.20</ele>
	<time>2023-11-18T12:15:05.000Z</time>
</trkpt>
<trkpt lat="45.8832280" lon="9.8335500">
	<ele>1276.80</ele>
	<time>2023-11-18T12:15:06.000Z</time>
</trkpt>
<trkpt lat="45.8832190" lon="9.8335490">
	<ele>1276.60</ele>
	<time>2023-11-18T12:15:07.000Z</time>
</trkpt>
<trkpt lat="45.8832120" lon="9.8335500">
	<ele>1276.20</ele>
	<time>2023-11-18T12:15:08.000Z</time>
</trkpt>
<trkpt lat="45.8832070" lon="9.8335510">
	<ele>1275.60</ele>
	<time>2023-11-18T12:15:09.000Z</time>
</trkpt>
<trkpt lat="45.8832010" lon="9.8335550">
	<ele>1275.40</ele>
	<time>2023-11-18T12:15:10.000Z</time>
</trkpt>
<trkpt lat="45.8831920" lon="9.8335590">
	<ele>1275.00</ele>
	<time>2023-11-18T12:15:11.000Z</time>
</trkpt>
<trkpt lat="45.8831830" lon="9.8335630">
	<ele>1274.60</ele>
	<time>2023-11-18T12:15:12.000Z</time>
</trkpt>
<trkpt lat="45.8831740" lon="9.8335690">
	<ele>1274.40</ele>
	<time>2023-11-18T12:15:13.000Z</time>
</trkpt>
<trkpt lat="45.8831650" lon="9.8335790">
	<ele>1274.20</ele>
	<time>2023-11-18T12:15:14.000Z</time>
</trkpt>
<trkpt lat="45.8831570" lon="9.8335880">
	<ele>1274.00</ele>
	<time>2023-11-18T12:15:15.000Z</time>
</trkpt>
<trkpt lat="45.8831480" lon="9.8335940">
	<ele>1273.80</ele>
	<time>2023-11-18T12:15:16.000Z</time>
</trkpt>
<trkpt lat="45.8831400" lon="9.8336020">
	<ele>1273.60</ele>
	<time>2023-11-18T12:15:17.000Z</time>
</trkpt>
<trkpt lat="45.8831320" lon="9.8336150">
	<ele>1273.40</ele>
	<time>2023-11-18T12:15:18.000Z</time>
</trkpt>
<trkpt lat="45.8831280" lon="9.8336260">
	<ele>1273.20</ele>
	<time>2023-11-18T12:15:19.000Z</time>
</trkpt>
<trkpt lat="45.8831230" lon="9.8336350">
	<ele>1273.00</ele>
	<time>2023-11-18T12:15:20.000Z</time>
</trkpt>
<trkpt lat="45.8831200" lon="9.8336460">
	<ele>1273.00</ele>
	<time>2023-11-18T12:15:21.000Z</time>
</trkpt>
<trkpt lat="45.8831180" lon="9.8336540">
	<ele>1272.80</ele>
	<time>2023-11-18T12:15:22.000Z</time>
</trkpt>
<trkpt lat="45.8831130" lon="9.8336630">
	<ele>1272.80</ele>
	<time>2023-11-18T12:15:23.000Z</time>
</trkpt>
<trkpt lat="45.8831050" lon="9.8336700">
	<ele>1272.60</ele>
	<time>2023-11-18T12:15:24.000Z</time>
</trkpt>
<trkpt lat="45.8831000" lon="9.8336800">
	<ele>1272.40</ele>
	<time>2023-11-18T12:15:25.000Z</time>
</trkpt>
<trkpt lat="45.8830960" lon="9.8336880">
	<ele>1272.40</ele>
	<time>2023-11-18T12:15:26.000Z</time>
</trkpt>
<trkpt lat="45.8830870" lon="9.8336970">
	<ele>1272.20</ele>
	<time>2023-11-18T12:15:27.000Z</time>
</trkpt>
<trkpt lat="45.8830790" lon="9.8337010">
	<ele>1272.20</ele>
	<time>2023-11-18T12:15:28.000Z</time>
</trkpt>
<trkpt lat="45.8830730" lon="9.8337040">
	<ele>1272.00</ele>
	<time>2023-11-18T12:15:29.000Z</time>
</trkpt>
<trkpt lat="45.8830610" lon="9.8337080">
	<ele>1271.80</ele>
	<time>2023-11-18T12:15:30.000Z</time>
</trkpt>
<trkpt lat="45.8830470" lon="9.8337170">
	<ele>1271.60</ele>
	<time>2023-11-18T12:15:31.000Z</time>
</trkpt>
<trkpt lat="45.8830440" lon="9.8337240">
	<ele>1271.20</ele>
	<time>2023-11-18T12:15:32.000Z</time>
</trkpt>
<trkpt lat="45.8830400" lon="9.8337350">
	<ele>1271.00</ele>
	<time>2023-11-18T12:15:33.000Z</time>
</trkpt>
<trkpt lat="45.8830340" lon="9.8337450">
	<ele>1270.80</ele>
	<time>2023-11-18T12:15:34.000Z</time>
</trkpt>
<trkpt lat="45.8830290" lon="9.8337550">
	<ele>1270.40</ele>
	<time>2023-11-18T12:15:35.000Z</time>
</trkpt>
<trkpt lat="45.8830250" lon="9.8337620">
	<ele>1270.20</ele>
	<time>2023-11-18T12:15:36.000Z</time>
</trkpt>
<trkpt lat="45.8830190" lon="9.8337700">
	<ele>1270.00</ele>
	<time>2023-11-18T12:15:37.000Z</time>
</trkpt>
<trkpt lat="45.8830130" lon="9.8337770">
	<ele>1269.80</ele>
	<time>2023-11-18T12:15:38.000Z</time>
</trkpt>
<trkpt lat="45.8830020" lon="9.8337870">
	<ele>1269.40</ele>
	<time>2023-11-18T12:15:39.000Z</time>
</trkpt>
<trkpt lat="45.8829950" lon="9.8337990">
	<ele>1269.20</ele>
	<time>2023-11-18T12:15:40.000Z</time>
</trkpt>
<trkpt lat="45.8829910" lon="9.8338120">
	<ele>1269.00</ele>
	<time>2023-11-18T12:15:41.000Z</time>
</trkpt>
<trkpt lat="45.8829870" lon="9.8338220">
	<ele>1268.80</ele>
	<time>2023-11-18T12:15:42.000Z</time>
</trkpt>
<trkpt lat="45.8829830" lon="9.8338260">
	<ele>1268.40</ele>
	<time>2023-11-18T12:15:43.000Z</time>
</trkpt>
<trkpt lat="45.8829760" lon="9.8338240">
	<ele>1268.20</ele>
	<time>2023-11-18T12:15:44.000Z</time>
</trkpt>
<trkpt lat="45.8829650" lon="9.8338200">
	<ele>1268.20</ele>
	<time>2023-11-18T12:15:45.000Z</time>
</trkpt>
<trkpt lat="45.8829560" lon="9.8338170">
	<ele>1268.00</ele>
	<time>2023-11-18T12:15:46.000Z</time>
</trkpt>
<trkpt lat="45.8829480" lon="9.8338150">
	<ele>1267.80</ele>
	<time>2023-11-18T12:15:47.000Z</time>
</trkpt>
<trkpt lat="45.8829380" lon="9.8338160">
	<ele>1267.40</ele>
	<time>2023-11-18T12:15:48.000Z</time>
</trkpt>
<trkpt lat="45.8829320" lon="9.8338190">
	<ele>1267.20</ele>
	<time>2023-11-18T12:15:49.000Z</time>
</trkpt>
<trkpt lat="45.8829240" lon="9.8338270">
	<ele>1266.80</ele>
	<time>2023-11-18T12:15:50.000Z</time>
</trkpt>
<trkpt lat="45.8829180" lon="9.8338350">
	<ele>1266.60</ele>
	<time>2023-11-18T12:15:51.000Z</time>
</trkpt>
<trkpt lat="45.8829110" lon="9.8338440">
	<ele>1266.40</ele>
	<time>2023-11-18T12:15:52.000Z</time>
</trkpt>
<trkpt lat="45.8829040" lon="9.8338530">
	<ele>1266.00</ele>
	<time>2023-11-18T12:15:53.000Z</time>
</trkpt>
<trkpt lat="45.8828980" lon="9.8338590">
	<ele>1265.60</ele>
	<time>2023-11-18T12:15:54.000Z</time>
</trkpt>
<trkpt lat="45.8828890" lon="9.8338650">
	<ele>1265.40</ele>
	<time>2023-11-18T12:15:55.000Z</time>
</trkpt>
<trkpt lat="45.8828800" lon="9.8338710">
	<ele>1265.40</ele>
	<time>2023-11-18T12:15:56.000Z</time>
</trkpt>
<trkpt lat="45.8828730" lon="9.8338740">
	<ele>1265.00</ele>
	<time>2023-11-18T12:15:57.000Z</time>
</trkpt>
<trkpt lat="45.8828680" lon="9.8338790">
	<ele>1264.80</ele>
	<time>2023-11-18T12:15:58.000Z</time>
</trkpt>
<trkpt lat="45.8828610" lon="9.8338830">
	<ele>1264.60</ele>
	<time>2023-11-18T12:15:59.000Z</time>
</trkpt>
<trkpt lat="45.8828540" lon="9.8338850">
	<ele>1264.60</ele>
	<time>2023-11-18T12:16:00.000Z</time>
</trkpt>
<trkpt lat="45.8828490" lon="9.8338840">
	<ele>1264.20</ele>
	<time>2023-11-18T12:16:01.000Z</time>
</trkpt>
<trkpt lat="45.8828440" lon="9.8338830">
	<ele>1263.80</ele>
	<time>2023-11-18T12:16:02.000Z</time>
</trkpt>
<trkpt lat="45.8828370" lon="9.8338820">
	<ele>1263.60</ele>
	<time>2023-11-18T12:16:03.000Z</time>
</trkpt>
<trkpt lat="45.8828330" lon="9.8338880">
	<ele>1263.40</ele>
	<time>2023-11-18T12:16:04.000Z</time>
</trkpt>
<trkpt lat="45.8828300" lon="9.8338990">
	<ele>1263.20</ele>
	<time>2023-11-18T12:16:05.000Z</time>
</trkpt>
<trkpt lat="45.8828270" lon="9.8339120">
	<ele>1262.80</ele>
	<time>2023-11-18T12:16:06.000Z</time>
</trkpt>
<trkpt lat="45.8828200" lon="9.8339200">
	<ele>1262.60</ele>
	<time>2023-11-18T12:16:07.000Z</time>
</trkpt>
<trkpt lat="45.8828140" lon="9.8339240">
	<ele>1262.20</ele>
	<time>2023-11-18T12:16:08.000Z</time>
</trkpt>
<trkpt lat="45.8828070" lon="9.8339280">
	<ele>1262.00</ele>
	<time>2023-11-18T12:16:09.000Z</time>
</trkpt>
<trkpt lat="45.8828000" lon="9.8339340">
	<ele>1261.80</ele>
	<time>2023-11-18T12:16:10.000Z</time>
</trkpt>
<trkpt lat="45.8827970" lon="9.8339380">
	<ele>1261.40</ele>
	<time>2023-11-18T12:16:11.000Z</time>
</trkpt>
<trkpt lat="45.8827950" lon="9.8339420">
	<ele>1261.20</ele>
	<time>2023-11-18T12:16:12.000Z</time>
</trkpt>
<trkpt lat="45.8827920" lon="9.8339440">
	<ele>1260.80</ele>
	<time>2023-11-18T12:16:13.000Z</time>
</trkpt>
<trkpt lat="45.8827840" lon="9.8339450">
	<ele>1260.60</ele>
	<time>2023-11-18T12:16:14.000Z</time>
</trkpt>
<trkpt lat="45.8827750" lon="9.8339450">
	<ele>1260.20</ele>
	<time>2023-11-18T12:16:15.000Z</time>
</trkpt>
<trkpt lat="45.8827670" lon="9.8339510">
	<ele>1260.00</ele>
	<time>2023-11-18T12:16:16.000Z</time>
</trkpt>
<trkpt lat="45.8827580" lon="9.8339550">
	<ele>1259.80</ele>
	<time>2023-11-18T12:16:17.000Z</time>
</trkpt>
<trkpt lat="45.8827500" lon="9.8339620">
	<ele>1259.40</ele>
	<time>2023-11-18T12:16:18.000Z</time>
</trkpt>
<trkpt lat="45.8827430" lon="9.8339700">
	<ele>1259.20</ele>
	<time>2023-11-18T12:16:19.000Z</time>
</trkpt>
<trkpt lat="45.8827350" lon="9.8339780">
	<ele>1258.80</ele>
	<time>2023-11-18T12:16:20.000Z</time>
</trkpt>
<trkpt lat="45.8827230" lon="9.8339910">
	<ele>1258.40</ele>
	<time>2023-11-18T12:16:21.000Z</time>
</trkpt>
<trkpt lat="45.8827150" lon="9.8340050">
	<ele>1258.20</ele>
	<time>2023-11-18T12:16:22.000Z</time>
</trkpt>
<trkpt lat="45.8827080" lon="9.8340180">
	<ele>1258.20</ele>
	<time>2023-11-18T12:16:23.000Z</time>
</trkpt>
<trkpt lat="45.8827030" lon="9.8340300">
	<ele>1257.80</ele>
	<time>2023-11-18T12:16:24.000Z</time>
</trkpt>
<trkpt lat="45.8827000" lon="9.8340420">
	<ele>1257.60</ele>
	<time>2023-11-18T12:16:25.000Z</time>
</trkpt>
<trkpt lat="45.8826970" lon="9.8340530">
	<ele>1257.60</ele>
	<time>2023-11-18T12:16:26.000Z</time>
</trkpt>
<trkpt lat="45.8826920" lon="9.8340650">
	<ele>1257.40</ele>
	<time>2023-11-18T12:16:27.000Z</time>
</trkpt>
<trkpt lat="45.8826880" lon="9.8340740">
	<ele>1257.40</ele>
	<time>2023-11-18T12:16:28.000Z</time>
</trkpt>
<trkpt lat="45.8826820" lon="9.8340800">
	<ele>1257.20</ele>
	<time>2023-11-18T12:16:29.000Z</time>
</trkpt>
<trkpt lat="45.8826740" lon="9.8340880">
	<ele>1257.00</ele>
	<time>2023-11-18T12:16:30.000Z</time>
</trkpt>
<trkpt lat="45.8826680" lon="9.8340940">
	<ele>1256.80</ele>
	<time>2023-11-18T12:16:31.000Z</time>
</trkpt>
<trkpt lat="45.8826620" lon="9.8341020">
	<ele>1256.60</ele>
	<time>2023-11-18T12:16:32.000Z</time>
</trkpt>
<trkpt lat="45.8826550" lon="9.8341120">
	<ele>1256.20</ele>
	<time>2023-11-18T12:16:33.000Z</time>
</trkpt>
<trkpt lat="45.8826460" lon="9.8341260">
	<ele>1256.00</ele>
	<time>2023-11-18T12:16:34.000Z</time>
</trkpt>
<trkpt lat="45.8826370" lon="9.8341360">
	<ele>1256.00</ele>
	<time>2023-11-18T12:16:35.000Z</time>
</trkpt>
<trkpt lat="45.8826290" lon="9.8341470">
	<ele>1255.80</ele>
	<time>2023-11-18T12:16:36.000Z</time>
</trkpt>
<trkpt lat="45.8826220" lon="9.8341570">
	<ele>1255.60</ele>
	<time>2023-11-18T12:16:37.000Z</time>
</trkpt>
<trkpt lat="45.8826150" lon="9.8341710">
	<ele>1255.20</ele>
	<time>2023-11-18T12:16:38.000Z</time>
</trkpt>
<trkpt lat="45.8826110" lon="9.8341810">
	<ele>1255.20</ele>
	<time>2023-11-18T12:16:39.000Z</time>
</trkpt>
<trkpt lat="45.8826070" lon="9.8341850">
	<ele>1255.00</ele>
	<time>2023-11-18T12:16:40.000Z</time>
</trkpt>
<trkpt lat="45.8825990" lon="9.8341840">
	<ele>1254.80</ele>
	<time>2023-11-18T12:16:41.000Z</time>
</trkpt>
<trkpt lat="45.8825870" lon="9.8341780">
	<ele>1254.80</ele>
	<time>2023-11-18T12:16:42.000Z</time>
</trkpt>
<trkpt lat="45.8825770" lon="9.8341720">
	<ele>1254.40</ele>
	<time>2023-11-18T12:16:43.000Z</time>
</trkpt>
<trkpt lat="45.8825680" lon="9.8341680">
	<ele>1254.00</ele>
	<time>2023-11-18T12:16:44.000Z</time>
</trkpt>
<trkpt lat="45.8825610" lon="9.8341660">
	<ele>1253.60</ele>
	<time>2023-11-18T12:16:45.000Z</time>
</trkpt>
<trkpt lat="45.8825540" lon="9.8341640">
	<ele>1253.40</ele>
	<time>2023-11-18T12:16:46.000Z</time>
</trkpt>
<trkpt lat="45.8825480" lon="9.8341690">
	<ele>1253.20</ele>
	<time>2023-11-18T12:16:47.000Z</time>
</trkpt>
<trkpt lat="45.8825410" lon="9.8341830">
	<ele>1253.00</ele>
	<time>2023-11-18T12:16:48.000Z</time>
</trkpt>
<trkpt lat="45.8825380" lon="9.8341990">
	<ele>1252.80</ele>
	<time>2023-11-18T12:16:49.000Z</time>
</trkpt>
<trkpt lat="45.8825340" lon="9.8342100">
	<ele>1252.80</ele>
	<time>2023-11-18T12:16:50.000Z</time>
</trkpt>
<trkpt lat="45.8825280" lon="9.8342170">
	<ele>1252.60</ele>
	<time>2023-11-18T12:16:51.000Z</time>
</trkpt>
<trkpt lat="45.8825200" lon="9.8342220">
	<ele>1252.20</ele>
	<time>2023-11-18T12:16:52.000Z</time>
</trkpt>
<trkpt lat="45.8825140" lon="9.8342260">
	<ele>1251.80</ele>
	<time>2023-11-18T12:16:53.000Z</time>
</trkpt>
<trkpt lat="45.8825050" lon="9.8342320">
	<ele>1251.60</ele>
	<time>2023-11-18T12:16:54.000Z</time>
</trkpt>
<trkpt lat="45.8824980" lon="9.8342380">
	<ele>1251.40</ele>
	<time>2023-11-18T12:16:55.000Z</time>
</trkpt>
<trkpt lat="45.8824880" lon="9.8342470">
	<ele>1251.00</ele>
	<time>2023-11-18T12:16:56.000Z</time>
</trkpt>
<trkpt lat="45.8824780" lon="9.8342550">
	<ele>1250.80</ele>
	<time>2023-11-18T12:16:57.000Z</time>
</trkpt>
<trkpt lat="45.8824700" lon="9.8342630">
	<ele>1250.60</ele>
	<time>2023-11-18T12:16:58.000Z</time>
</trkpt>
<trkpt lat="45.8824620" lon="9.8342750">
	<ele>1250.20</ele>
	<time>2023-11-18T12:16:59.000Z</time>
</trkpt>
<trkpt lat="45.8824550" lon="9.8342880">
	<ele>1250.00</ele>
	<time>2023-11-18T12:17:00.000Z</time>
</trkpt>
<trkpt lat="45.8824510" lon="9.8343010">
	<ele>1249.60</ele>
	<time>2023-11-18T12:17:01.000Z</time>
</trkpt>
<trkpt lat="45.8824460" lon="9.8343150">
	<ele>1249.40</ele>
	<time>2023-11-18T12:17:02.000Z</time>
</trkpt>
<trkpt lat="45.8824370" lon="9.8343340">
	<ele>1249.20</ele>
	<time>2023-11-18T12:17:03.000Z</time>
</trkpt>
<trkpt lat="45.8824280" lon="9.8343490">
	<ele>1249.20</ele>
	<time>2023-11-18T12:17:04.000Z</time>
</trkpt>
<trkpt lat="45.8824240" lon="9.8343620">
	<ele>1249.00</ele>
	<time>2023-11-18T12:17:05.000Z</time>
</trkpt>
<trkpt lat="45.8824210" lon="9.8343750">
	<ele>1248.80</ele>
	<time>2023-11-18T12:17:06.000Z</time>
</trkpt>
<trkpt lat="45.8824200" lon="9.8343900">
	<ele>1248.60</ele>
	<time>2023-11-18T12:17:07.000Z</time>
</trkpt>
<trkpt lat="45.8824150" lon="9.8344040">
	<ele>1248.60</ele>
	<time>2023-11-18T12:17:08.000Z</time>
</trkpt>
<trkpt lat="45.8824060" lon="9.8344150">
	<ele>1248.20</ele>
	<time>2023-11-18T12:17:09.000Z</time>
</trkpt>
<trkpt lat="45.8823990" lon="9.8344220">
	<ele>1248.00</ele>
	<time>2023-11-18T12:17:10.000Z</time>
</trkpt>
<trkpt lat="45.8823920" lon="9.8344290">
	<ele>1247.60</ele>
	<time>2023-11-18T12:17:11.000Z</time>
</trkpt>
<trkpt lat="45.8823790" lon="9.8344370">
	<ele>1247.40</ele>
	<time>2023-11-18T12:17:12.000Z</time>
</trkpt>
<trkpt lat="45.8823710" lon="9.8344460">
	<ele>1247.20</ele>
	<time>2023-11-18T12:17:13.000Z</time>
</trkpt>
<trkpt lat="45.8823640" lon="9.8344570">
	<ele>1247.00</ele>
	<time>2023-11-18T12:17:14.000Z</time>
</trkpt>
<trkpt lat="45.8823590" lon="9.8344710">
	<ele>1246.80</ele>
	<time>2023-11-18T12:17:15.000Z</time>
</trkpt>
<trkpt lat="45.8823550" lon="9.8344870">
	<ele>1246.40</ele>
	<time>2023-11-18T12:17:16.000Z</time>
</trkpt>
<trkpt lat="45.8823500" lon="9.8345020">
	<ele>1246.00</ele>
	<time>2023-11-18T12:17:17.000Z</time>
</trkpt>
<trkpt lat="45.8823440" lon="9.8345130">
	<ele>1245.80</ele>
	<time>2023-11-18T12:17:18.000Z</time>
</trkpt>
<trkpt lat="45.8823390" lon="9.8345240">
	<ele>1245.60</ele>
	<time>2023-11-18T12:17:19.000Z</time>
</trkpt>
<trkpt lat="45.8823320" lon="9.8345350">
	<ele>1245.40</ele>
	<time>2023-11-18T12:17:20.000Z</time>
</trkpt>
<trkpt lat="45.8823220" lon="9.8345450">
	<ele>1245.20</ele>
	<time>2023-11-18T12:17:21.000Z</time>
</trkpt>
<trkpt lat="45.8823150" lon="9.8345580">
	<ele>1245.00</ele>
	<time>2023-11-18T12:17:22.000Z</time>
</trkpt>
<trkpt lat="45.8823100" lon="9.8345710">
	<ele>1244.80</ele>
	<time>2023-11-18T12:17:23.000Z</time>
</trkpt>
<trkpt lat="45.8823110" lon="9.8345800">
	<ele>1244.60</ele>
	<time>2023-11-18T12:17:24.000Z</time>
</trkpt>
<trkpt lat="45.8823080" lon="9.8345890">
	<ele>1244.40</ele>
	<time>2023-11-18T12:17:25.000Z</time>
</trkpt>
<trkpt lat="45.8823050" lon="9.8345980">
	<ele>1244.20</ele>
	<time>2023-11-18T12:17:26.000Z</time>
</trkpt>
<trkpt lat="45.8822970" lon="9.8346060">
	<ele>1244.00</ele>
	<time>2023-11-18T12:17:27.000Z</time>
</trkpt>
<trkpt lat="45.8822870" lon="9.8346120">
	<ele>1244.00</ele>
	<time>2023-11-18T12:17:28.000Z</time>
</trkpt>
<trkpt lat="45.8822810" lon="9.8346210">
	<ele>1243.80</ele>
	<time>2023-11-18T12:17:29.000Z</time>
</trkpt>
<trkpt lat="45.8822750" lon="9.8346270">
	<ele>1243.60</ele>
	<time>2023-11-18T12:17:30.000Z</time>
</trkpt>
<trkpt lat="45.8822690" lon="9.8346340">
	<ele>1243.40</ele>
	<time>2023-11-18T12:17:31.000Z</time>
</trkpt>
<trkpt lat="45.8822620" lon="9.8346410">
	<ele>1243.40</ele>
	<time>2023-11-18T12:17:32.000Z</time>
</trkpt>
<trkpt lat="45.8822550" lon="9.8346480">
	<ele>1243.20</ele>
	<time>2023-11-18T12:17:33.000Z</time>
</trkpt>
<trkpt lat="45.8822480" lon="9.8346540">
	<ele>1243.20</ele>
	<time>2023-11-18T12:17:34.000Z</time>
</trkpt>
<trkpt lat="45.8822420" lon="9.8346580">
	<ele>1243.00</ele>
	<time>2023-11-18T12:17:35.000Z</time>
</trkpt>
<trkpt lat="45.8822360" lon="9.8346640">
	<ele>1243.00</ele>
	<time>2023-11-18T12:17:36.000Z</time>
</trkpt>
<trkpt lat="45.8822260" lon="9.8346700">
	<ele>1242.60</ele>
	<time>2023-11-18T12:17:37.000Z</time>
</trkpt>
<trkpt lat="45.8822190" lon="9.8346740">
	<ele>1242.60</ele>
	<time>2023-11-18T12:17:38.000Z</time>
</trkpt>
<trkpt lat="45.8822110" lon="9.8346810">
	<ele>1242.20</ele>
	<time>2023-11-18T12:17:39.000Z</time>
</trkpt>
<trkpt lat="45.8822070" lon="9.8346880">
	<ele>1242.00</ele>
	<time>2023-11-18T12:17:40.000Z</time>
</trkpt>
<trkpt lat="45.8822030" lon="9.8346950">
	<ele>1241.80</ele>
	<time>2023-11-18T12:17:41.000Z</time>
</trkpt>
<trkpt lat="45.8821990" lon="9.8346990">
	<ele>1241.40</ele>
	<time>2023-11-18T12:17:42.000Z</time>
</trkpt>
<trkpt lat="45.8821950" lon="9.8347040">
	<ele>1241.40</ele>
	<time>2023-11-18T12:17:43.000Z</time>
</trkpt>
<trkpt lat="45.8821890" lon="9.8347090">
	<ele>1241.20</ele>
	<time>2023-11-18T12:17:44.000Z</time>
</trkpt>
<trkpt lat="45.8821810" lon="9.8347240">
	<ele>1241.00</ele>
	<time>2023-11-18T12:17:45.000Z</time>
</trkpt>
<trkpt lat="45.8821750" lon="9.8347340">
	<ele>1240.80</ele>
	<time>2023-11-18T12:17:46.000Z</time>
</trkpt>
<trkpt lat="45.8821690" lon="9.8347420">
	<ele>1240.60</ele>
	<time>2023-11-18T12:17:47.000Z</time>
</trkpt>
<trkpt lat="45.8821640" lon="9.8347490">
	<ele>1240.40</ele>
	<time>2023-11-18T12:17:48.000Z</time>
</trkpt>
<trkpt lat="45.8821600" lon="9.8347560">
	<ele>1240.20</ele>
	<time>2023-11-18T12:17:49.000Z</time>
</trkpt>
<trkpt lat="45.8821580" lon="9.8347620">
	<ele>1240.00</ele>
	<time>2023-11-18T12:17:50.000Z</time>
</trkpt>
<trkpt lat="45.8821540" lon="9.8347700">
	<ele>1239.80</ele>
	<time>2023-11-18T12:17:51.000Z</time>
</trkpt>
<trkpt lat="45.8821520" lon="9.8347740">
	<ele>1239.60</ele>
	<time>2023-11-18T12:17:52.000Z</time>
</trkpt>
<trkpt lat="45.8821490" lon="9.8347770">
	<ele>1239.60</ele>
	<time>2023-11-18T12:17:53.000Z</time>
</trkpt>
<trkpt lat="45.8821450" lon="9.8347800">
	<ele>1239.40</ele>
	<time>2023-11-18T12:17:54.000Z</time>
</trkpt>
<trkpt lat="45.8821410" lon="9.8347840">
	<ele>1239.40</ele>
	<time>2023-11-18T12:17:55.000Z</time>
</trkpt>
<trkpt lat="45.8821340" lon="9.8347880">
	<ele>1239.20</ele>
	<time>2023-11-18T12:17:56.000Z</time>
</trkpt>
<trkpt lat="45.8821280" lon="9.8347970">
	<ele>1239.00</ele>
	<time>2023-11-18T12:17:57.000Z</time>
</trkpt>
<trkpt lat="45.8821220" lon="9.8348100">
	<ele>1239.00</ele>
	<time>2023-11-18T12:17:58.000Z</time>
</trkpt>
<trkpt lat="45.8821170" lon="9.8348210">
	<ele>1238.80</ele>
	<time>2023-11-18T12:17:59.000Z</time>
</trkpt>
<trkpt lat="45.8821130" lon="9.8348340">
	<ele>1238.80</ele>
	<time>2023-11-18T12:18:00.000Z</time>
</trkpt>
<trkpt lat="45.8821110" lon="9.8348450">
	<ele>1238.60</ele>
	<time>2023-11-18T12:18:01.000Z</time>
</trkpt>
<trkpt lat="45.8821030" lon="9.8348560">
	<ele>1238.20</ele>
	<time>2023-11-18T12:18:02.000Z</time>
</trkpt>
<trkpt lat="45.8820970" lon="9.8348670">
	<ele>1238.00</ele>
	<time>2023-11-18T12:18:03.000Z</time>
</trkpt>
<trkpt lat="45.8820920" lon="9.8348830">
	<ele>1237.80</ele>
	<time>2023-11-18T12:18:04.000Z</time>
</trkpt>
<trkpt lat="45.8820880" lon="9.8348990">
	<ele>1237.60</ele>
	<time>2023-11-18T12:18:05.000Z</time>
</trkpt>
<trkpt lat="45.8820840" lon="9.8349120">
	<ele>1237.40</ele>
	<time>2023-11-18T12:18:06.000Z</time>
</trkpt>
<trkpt lat="45.8820800" lon="9.8349240">
	<ele>1237.40</ele>
	<time>2023-11-18T12:18:07.000Z</time>
</trkpt>
<trkpt lat="45.8820780" lon="9.8349340">
	<ele>1237.40</ele>
	<time>2023-11-18T12:18:08.000Z</time>
</trkpt>
<trkpt lat="45.8820760" lon="9.8349400">
	<ele>1237.20</ele>
	<time>2023-11-18T12:18:09.000Z</time>
</trkpt>
<trkpt lat="45.8820730" lon="9.8349420">
	<ele>1236.80</ele>
	<time>2023-11-18T12:18:10.000Z</time>
</trkpt>
<trkpt lat="45.8820660" lon="9.8349410">
	<ele>1236.60</ele>
	<time>2023-11-18T12:18:11.000Z</time>
</trkpt>
<trkpt lat="45.8820610" lon="9.8349380">
	<ele>1236.40</ele>
	<time>2023-11-18T12:18:12.000Z</time>
</trkpt>
<trkpt lat="45.8820560" lon="9.8349380">
	<ele>1236.20</ele>
	<time>2023-11-18T12:18:13.000Z</time>
</trkpt>
<trkpt lat="45.8820480" lon="9.8349380">
	<ele>1236.20</ele>
	<time>2023-11-18T12:18:14.000Z</time>
</trkpt>
<trkpt lat="45.8820410" lon="9.8349380">
	<ele>1235.80</ele>
	<time>2023-11-18T12:18:15.000Z</time>
</trkpt>
<trkpt lat="45.8820310" lon="9.8349410">
	<ele>1235.60</ele>
	<time>2023-11-18T12:18:16.000Z</time>
</trkpt>
<trkpt lat="45.8820190" lon="9.8349420">
	<ele>1235.20</ele>
	<time>2023-11-18T12:18:17.000Z</time>
</trkpt>
<trkpt lat="45.8820120" lon="9.8349470">
	<ele>1235.00</ele>
	<time>2023-11-18T12:18:18.000Z</time>
</trkpt>
<trkpt lat="45.8820070" lon="9.8349530">
	<ele>1234.60</ele>
	<time>2023-11-18T12:18:19.000Z</time>
</trkpt>
<trkpt lat="45.8820040" lon="9.8349600">
	<ele>1234.20</ele>
	<time>2023-11-18T12:18:20.000Z</time>
</trkpt>
<trkpt lat="45.8820000" lon="9.8349680">
	<ele>1233.80</ele>
	<time>2023-11-18T12:18:21.000Z</time>
</trkpt>
<trkpt lat="45.8819950" lon="9.8349760">
	<ele>1233.60</ele>
	<time>2023-11-18T12:18:22.000Z</time>
</trkpt>
<trkpt lat="45.8819880" lon="9.8349870">
	<ele>1233.40</ele>
	<time>2023-11-18T12:18:23.000Z</time>
</trkpt>
<trkpt lat="45.8819840" lon="9.8350000">
	<ele>1233.00</ele>
	<time>2023-11-18T12:18:24.000Z</time>
</trkpt>
<trkpt lat="45.8819800" lon="9.8350100">
	<ele>1232.80</ele>
	<time>2023-11-18T12:18:25.000Z</time>
</trkpt>
<trkpt lat="45.8819750" lon="9.8350190">
	<ele>1232.40</ele>
	<time>2023-11-18T12:18:26.000Z</time>
</trkpt>
<trkpt lat="45.8819710" lon="9.8350270">
	<ele>1232.40</ele>
	<time>2023-11-18T12:18:27.000Z</time>
</trkpt>
<trkpt lat="45.8819630" lon="9.8350390">
	<ele>1232.00</ele>
	<time>2023-11-18T12:18:28.000Z</time>
</trkpt>
<trkpt lat="45.8819530" lon="9.8350540">
	<ele>1232.00</ele>
	<time>2023-11-18T12:18:29.000Z</time>
</trkpt>
<trkpt lat="45.8819480" lon="9.8350700">
	<ele>1231.80</ele>
	<time>2023-11-18T12:18:30.000Z</time>
</trkpt>
<trkpt lat="45.8819450" lon="9.8350790">
	<ele>1231.60</ele>
	<time>2023-11-18T12:18:31.000Z</time>
</trkpt>
<trkpt lat="45.8819410" lon="9.8350850">
	<ele>1231.40</ele>
	<time>2023-11-18T12:18:32.000Z</time>
</trkpt>
<trkpt lat="45.8819360" lon="9.8350890">
	<ele>1231.20</ele>
	<time>2023-11-18T12:18:33.000Z</time>
</trkpt>
<trkpt lat="45.8819330" lon="9.8350910">
	<ele>1231.00</ele>
	<time>2023-11-18T12:18:34.000Z</time>
</trkpt>
<trkpt lat="45.8819220" lon="9.8350960">
	<ele>1231.00</ele>
	<time>2023-11-18T12:18:35.000Z</time>
</trkpt>
<trkpt lat="45.8819140" lon="9.8351020">
	<ele>1230.80</ele>
	<time>2023-11-18T12:18:36.000Z</time>
</trkpt>
<trkpt lat="45.8819050" lon="9.8351090">
	<ele>1230.60</ele>
	<time>2023-11-18T12:18:37.000Z</time>
</trkpt>
<trkpt lat="45.8818920" lon="9.8351130">
	<ele>1230.40</ele>
	<time>2023-11-18T12:18:38.000Z</time>
</trkpt>
<trkpt lat="45.8818860" lon="9.8351150">
	<ele>1230.00</ele>
	<time>2023-11-18T12:18:39.000Z</time>
</trkpt>
<trkpt lat="45.8818820" lon="9.8351190">
	<ele>1229.80</ele>
	<time>2023-11-18T12:18:40.000Z</time>
</trkpt>
<trkpt lat="45.8818770" lon="9.8351220">
	<ele>1229.60</ele>
	<time>2023-11-18T12:18:41.000Z</time>
</trkpt>
<trkpt lat="45.8818720" lon="9.8351260">
	<ele>1229.20</ele>
	<time>2023-11-18T12:18:42.000Z</time>
</trkpt>
<trkpt lat="45.8818640" lon="9.8351350">
	<ele>1229.00</ele>
	<time>2023-11-18T12:18:43.000Z</time>
</trkpt>
<trkpt lat="45.8818590" lon="9.8351440">
	<ele>1228.80</ele>
	<time>2023-11-18T12:18:44.000Z</time>
</trkpt>
<trkpt lat="45.8818500" lon="9.8351540">
	<ele>1228.60</ele>
	<time>2023-11-18T12:18:45.000Z</time>
</trkpt>
<trkpt lat="45.8818410" lon="9.8351610">
	<ele>1228.40</ele>
	<time>2023-11-18T12:18:46.000Z</time>
</trkpt>
<trkpt lat="45.8818330" lon="9.8351640">
	<ele>1228.20</ele>
	<time>2023-11-18T12:18:47.000Z</time>
</trkpt>
<trkpt lat="45.8818250" lon="9.8351670">
	<ele>1228.00</ele>
	<time>2023-11-18T12:18:48.000Z</time>
</trkpt>
<trkpt lat="45.8818190" lon="9.8351720">
	<ele>1228.00</ele>
	<time>2023-11-18T12:18:49.000Z</time>
</trkpt>
<trkpt lat="45.8818070" lon="9.8351800">
	<ele>1228.00</ele>
	<time>2023-11-18T12:18:50.000Z</time>
</trkpt>
<trkpt lat="45.8817980" lon="9.8351870">
	<ele>1227.40</ele>
	<time>2023-11-18T12:18:51.000Z</time>
</trkpt>
<trkpt lat="45.8817870" lon="9.8351950">
	<ele>1227.00</ele>
	<time>2023-11-18T12:18:52.000Z</time>
</trkpt>
<trkpt lat="45.8817810" lon="9.8352010">
	<ele>1226.80</ele>
	<time>2023-11-18T12:18:53.000Z</time>
</trkpt>
<trkpt lat="45.8817740" lon="9.8352040">
	<ele>1226.80</ele>
	<time>2023-11-18T12:18:54.000Z</time>
</trkpt>
<trkpt lat="45.8817630" lon="9.8352100">
	<ele>1226.60</ele>
	<time>2023-11-18T12:18:55.000Z</time>
</trkpt>
<trkpt lat="45.8817520" lon="9.8352180">
	<ele>1226.40</ele>
	<time>2023-11-18T12:18:56.000Z</time>
</trkpt>
<trkpt lat="45.8817420" lon="9.8352300">
	<ele>1226.20</ele>
	<time>2023-11-18T12:18:57.000Z</time>
</trkpt>
<trkpt lat="45.8817310" lon="9.8352430">
	<ele>1226.00</ele>
	<time>2023-11-18T12:18:58.000Z</time>
</trkpt>
<trkpt lat="45.8817200" lon="9.8352580">
	<ele>1225.80</ele>
	<time>2023-11-18T12:18:59.000Z</time>
</trkpt>
<trkpt lat="45.8817130" lon="9.8352710">
	<ele>1225.60</ele>
	<time>2023-11-18T12:19:00.000Z</time>
</trkpt>
<trkpt lat="45.8817070" lon="9.8352830">
	<ele>1225.40</ele>
	<time>2023-11-18T12:19:01.000Z</time>
</trkpt>
<trkpt lat="45.8817010" lon="9.8352940">
	<ele>1225.40</ele>
	<time>2023-11-18T12:19:02.000Z</time>
</trkpt>
<trkpt lat="45.8816940" lon="9.8353040">
	<ele>1225.40</ele>
	<time>2023-11-18T12:19:03.000Z</time>
</trkpt>
<trkpt lat="45.8816860" lon="9.8353080">
	<ele>1225.20</ele>
	<time>2023-11-18T12:19:04.000Z</time>
</trkpt>
<trkpt lat="45.8816790" lon="9.8353100">
	<ele>1225.20</ele>
	<time>2023-11-18T12:19:05.000Z</time>
</trkpt>
<trkpt lat="45.8816690" lon="9.8353140">
	<ele>1225.20</ele>
	<time>2023-11-18T12:19:06.000Z</time>
</trkpt>
<trkpt lat="45.8816590" lon="9.8353240">
	<ele>1225.00</ele>
	<time>2023-11-18T12:19:07.000Z</time>
</trkpt>
<trkpt lat="45.8816540" lon="9.8353320">
	<ele>1224.80</ele>
	<time>2023-11-18T12:19:08.000Z</time>
</trkpt>
<trkpt lat="45.8816520" lon="9.8353400">
	<ele>1224.80</ele>
	<time>2023-11-18T12:19:09.000Z</time>
</trkpt>
<trkpt lat="45.8816490" lon="9.8353460">
	<ele>1224.40</ele>
	<time>2023-11-18T12:19:10.000Z</time>
</trkpt>
<trkpt lat="45.8816440" lon="9.8353520">
	<ele>1224.40</ele>
	<time>2023-11-18T12:19:11.000Z</time>
</trkpt>
<trkpt lat="45.8816380" lon="9.8353580">
	<ele>1224.20</ele>
	<time>2023-11-18T12:19:12.000Z</time>
</trkpt>
<trkpt lat="45.8816310" lon="9.8353680">
	<ele>1224.20</ele>
	<time>2023-11-18T12:19:13.000Z</time>
</trkpt>
<trkpt lat="45.8816220" lon="9.8353790">
	<ele>1224.00</ele>
	<time>2023-11-18T12:19:14.000Z</time>
</trkpt>
<trkpt lat="45.8816140" lon="9.8353900">
	<ele>1223.60</ele>
	<time>2023-11-18T12:19:15.000Z</time>
</trkpt>
<trkpt lat="45.8816040" lon="9.8354030">
	<ele>1223.40</ele>
	<time>2023-11-18T12:19:16.000Z</time>
</trkpt>
<trkpt lat="45.8815960" lon="9.8354130">
	<ele>1223.20</ele>
	<time>2023-11-18T12:19:17.000Z</time>
</trkpt>
<trkpt lat="45.8815850" lon="9.8354230">
	<ele>1223.20</ele>
	<time>2023-11-18T12:19:18.000Z</time>
</trkpt>
<trkpt lat="45.8815790" lon="9.8354290">
	<ele>1223.00</ele>
	<time>2023-11-18T12:19:19.000Z</time>
</trkpt>
<trkpt lat="45.8815730" lon="9.8354350">
	<ele>1222.80</ele>
	<time>2023-11-18T12:19:20.000Z</time>
</trkpt>
<trkpt lat="45.8815680" lon="9.8354440">
	<ele>1222.80</ele>
	<time>2023-11-18T12:19:21.000Z</time>
</trkpt>
<trkpt lat="45.8815650" lon="9.8354540">
	<ele>1222.80</ele>
	<time>2023-11-18T12:19:22.000Z</time>
</trkpt>
<trkpt lat="45.8815650" lon="9.8354650">
	<ele>1222.60</ele>
	<time>2023-11-18T12:19:23.000Z</time>
</trkpt>
<trkpt lat="45.8815600" lon="9.8354840">
	<ele>1222.20</ele>
	<time>2023-11-18T12:19:24.000Z</time>
</trkpt>
<trkpt lat="45.8815530" lon="9.8354960">
	<ele>1222.00</ele>
	<time>2023-11-18T12:19:25.000Z</time>
</trkpt>
<trkpt lat="45.8815460" lon="9.8355050">
	<ele>1221.60</ele>
	<time>2023-11-18T12:19:26.000Z</time>
</trkpt>
<trkpt lat="45.8815400" lon="9.8355130">
	<ele>1221.40</ele>
	<time>2023-11-18T12:19:27.000Z</time>
</trkpt>
<trkpt lat="45.8815330" lon="9.8355270">
	<ele>1221.20</ele>
	<time>2023-11-18T12:19:28.000Z</time>
</trkpt>
<trkpt lat="45.8815280" lon="9.8355380">
	<ele>1221.20</ele>
	<time>2023-11-18T12:19:29.000Z</time>
</trkpt>
<trkpt lat="45.8815240" lon="9.8355460">
	<ele>1221.00</ele>
	<time>2023-11-18T12:19:30.000Z</time>
</trkpt>
<trkpt lat="45.8815240" lon="9.8355500">
	<ele>1220.80</ele>
	<time>2023-11-18T12:19:31.000Z</time>
</trkpt>
<trkpt lat="45.8815230" lon="9.8355520">
	<ele>1220.60</ele>
	<time>2023-11-18T12:19:32.000Z</time>
</trkpt>
<trkpt lat="45.8815230" lon="9.8355540">
	<ele>1220.40</ele>
	<time>2023-11-18T12:19:33.000Z</time>
</trkpt>
<trkpt lat="45.8815230" lon="9.8355560">
	<ele>1220.40</ele>
	<time>2023-11-18T12:19:34.000Z</time>
</trkpt>
<trkpt lat="45.8815230" lon="9.8355560">
	<ele>1220.40</ele>
	<time>2023-11-18T12:19:35.000Z</time>
</trkpt>
<trkpt lat="45.8815230" lon="9.8355560">
	<ele>1220.40</ele>
	<time>2023-11-18T12:19:36.000Z</time>
</trkpt>
<trkpt lat="45.8815230" lon="9.8355550">
	<ele>1220.40</ele>
	<time>2023-11-18T12:19:37.000Z</time>
</trkpt>
<trkpt lat="45.8815230" lon="9.8355540">
	<ele>1220.40</ele>
	<time>2023-11-18T12:19:38.000Z</time>
</trkpt>
<trkpt lat="45.8815220" lon="9.8355520">
	<ele>1220.40</ele>
	<time>2023-11-18T12:19:39.000Z</time>
</trkpt>
<trkpt lat="45.8815220" lon="9.8355520">
	<ele>1220.40</ele>
	<time>2023-11-18T12:19:40.000Z</time>
</trkpt>
<trkpt lat="45.8815220" lon="9.8355520">
	<ele>1220.20</ele>
	<time>2023-11-18T12:19:41.000Z</time>
</trkpt>
<trkpt lat="45.8815220" lon="9.8355530">
	<ele>1220.20</ele>
	<time>2023-11-18T12:19:42.000Z</time>
</trkpt>
<trkpt lat="45.8815210" lon="9.8355550">
	<ele>1220.20</ele>
	<time>2023-11-18T12:19:43.000Z</time>
</trkpt>
<trkpt lat="45.8815210" lon="9.8355540">
	<ele>1220.20</ele>
	<time>2023-11-18T12:19:44.000Z</time>
</trkpt>
<trkpt lat="45.8815210" lon="9.8355540">
	<ele>1220.20</ele>
	<time>2023-11-18T12:19:45.000Z</time>
</trkpt>
<trkpt lat="45.8815210" lon="9.8355540">
	<ele>1220.20</ele>
	<time>2023-11-18T12:19:46.000Z</time>
</trkpt>
<trkpt lat="45.8815210" lon="9.8355540">
	<ele>1220.20</ele>
	<time>2023-11-18T12:19:47.000Z</time>
</trkpt>
<trkpt lat="45.8815210" lon="9.8355540">
	<ele>1220.20</ele>
	<time>2023-11-18T12:19:48.000Z</time>
</trkpt>
<trkpt lat="45.8815210" lon="9.8355540">
	<ele>1220.20</ele>
	<time>2023-11-18T12:19:49.000Z</time>
</trkpt>
<trkpt lat="45.8815210" lon="9.8355540">
	<ele>1220.00</ele>
	<time>2023-11-18T12:19:50.000Z</time>
</trkpt>
<trkpt lat="45.8815210" lon="9.8355540">
	<ele>1220.00</ele>
	<time>2023-11-18T12:19:51.000Z</time>
</trkpt>
<trkpt lat="45.8815210" lon="9.8355540">
	<ele>1220.00</ele>
	<time>2023-11-18T12:19:52.000Z</time>
</trkpt>
<trkpt lat="45.8815220" lon="9.8355540">
	<ele>1220.00</ele>
	<time>2023-11-18T12:19:53.000Z</time>
</trkpt>
<trkpt lat="45.8815220" lon="9.8355540">
	<ele>1220.00</ele>
	<time>2023-11-18T12:19:54.000Z</time>
</trkpt>
<trkpt lat="45.8815220" lon="9.8355540">
	<ele>1220.00</ele>
	<time>2023-11-18T12:19:55.000Z</time>
</trkpt>
<trkpt lat="45.8815220" lon="9.8355540">
	<ele>1220.20</ele>
	<time>2023-11-18T12:19:56.000Z</time>
</trkpt>
<trkpt lat="45.8815220" lon="9.8355550">
	<ele>1220.20</ele>
	<time>2023-11-18T12:19:57.000Z</time>
</trkpt>
<trkpt lat="45.8815230" lon="9.8355550">
	<ele>1220.20</ele>
	<time>2023-11-18T12:19:58.000Z</time>
</trkpt>
<trkpt lat="45.8815230" lon="9.8355550">
	<ele>1220.20</ele>
	<time>2023-11-18T12:19:59.000Z</time>
</trkpt>
<trkpt lat="45.8815230" lon="9.8355560">
	<ele>1220.20</ele>
	<time>2023-11-18T12:20:00.000Z</time>
</trkpt>
<trkpt lat="45.8815230" lon="9.8355570">
	<ele>1220.40</ele>
	<time>2023-11-18T12:20:01.000Z</time>
</trkpt>
<trkpt lat="45.8815230" lon="9.8355640">
	<ele>1220.40</ele>
	<time>2023-11-18T12:20:02.000Z</time>
</trkpt>
<trkpt lat="45.8815230" lon="9.8355700">
	<ele>1220.40</ele>
	<time>2023-11-18T12:20:03.000Z</time>
</trkpt>
<trkpt lat="45.8815230" lon="9.8355740">
	<ele>1220.40</ele>
	<time>2023-11-18T12:20:04.000Z</time>
</trkpt>
<trkpt lat="45.8815230" lon="9.8355770">
	<ele>1220.20</ele>
	<time>2023-11-18T12:20:05.000Z</time>
</trkpt>
<trkpt lat="45.8815230" lon="9.8355790">
	<ele>1220.20</ele>
	<time>2023-11-18T12:20:06.000Z</time>
</trkpt>
<trkpt lat="45.8815230" lon="9.8355800">
	<ele>1220.20</ele>
	<time>2023-11-18T12:20:07.000Z</time>
</trkpt>
<trkpt lat="45.8815230" lon="9.8355810">
	<ele>1220.20</ele>
	<time>2023-11-18T12:20:08.000Z</time>
</trkpt>
<trkpt lat="45.8815230" lon="9.8355820">
	<ele>1220.20</ele>
	<time>2023-11-18T12:20:09.000Z</time>
</trkpt>
<trkpt lat="45.8815230" lon="9.8355820">
	<ele>1220.20</ele>
	<time>2023-11-18T12:20:10.000Z</time>
</trkpt>
<trkpt lat="45.8815230" lon="9.8355880">
	<ele>1220.20</ele>
	<time>2023-11-18T12:20:11.000Z</time>
</trkpt>
<trkpt lat="45.8815230" lon="9.8355950">
	<ele>1220.20</ele>
	<time>2023-11-18T12:20:12.000Z</time>
</trkpt>
<trkpt lat="45.8815230" lon="9.8356030">
	<ele>1220.00</ele>
	<time>2023-11-18T12:20:13.000Z</time>
</trkpt>
<trkpt lat="45.8815230" lon="9.8356060">
	<ele>1220.00</ele>
	<time>2023-11-18T12:20:14.000Z</time>
</trkpt>
<trkpt lat="45.8815230" lon="9.8356060">
	<ele>1220.00</ele>
	<time>2023-11-18T12:20:15.000Z</time>
</trkpt>
<trkpt lat="45.8815230" lon="9.8356060">
	<ele>1220.00</ele>
	<time>2023-11-18T12:20:16.000Z</time>
</trkpt>
<trkpt lat="45.8815220" lon="9.8356060">
	<ele>1220.00</ele>
	<time>2023-11-18T12:20:17.000Z</time>
</trkpt>
<trkpt lat="45.8815220" lon="9.8356060">
	<ele>1220.00</ele>
	<time>2023-11-18T12:20:18.000Z</time>
</trkpt>
<trkpt lat="45.8815220" lon="9.8356070">
	<ele>1220.00</ele>
	<time>2023-11-18T12:20:19.000Z</time>
</trkpt>
<trkpt lat="45.8815220" lon="9.8356070">
	<ele>1220.00</ele>
	<time>2023-11-18T12:20:20.000Z</time>
</trkpt>
<trkpt lat="45.8815220" lon="9.8356070">
	<ele>1220.00</ele>
	<time>2023-11-18T12:20:21.000Z</time>
</trkpt>
<trkpt lat="45.8815210" lon="9.8356070">
	<ele>1220.00</ele>
	<time>2023-11-18T12:20:22.000Z</time>
</trkpt>
<trkpt lat="45.8815210" lon="9.8356070">
	<ele>1219.80</ele>
	<time>2023-11-18T12:20:23.000Z</time>
</trkpt>
<trkpt lat="45.8815210" lon="9.8356080">
	<ele>1220.00</ele>
	<time>2023-11-18T12:20:24.000Z</time>
</trkpt>
<trkpt lat="45.8815210" lon="9.8356080">
	<ele>1220.00</ele>
	<time>2023-11-18T12:20:25.000Z</time>
</trkpt>
<trkpt lat="45.8815210" lon="9.8356080">
	<ele>1220.00</ele>
	<time>2023-11-18T12:20:26.000Z</time>
</trkpt>
<trkpt lat="45.8815210" lon="9.8356080">
	<ele>1220.00</ele>
	<time>2023-11-18T12:20:27.000Z</time>
</trkpt>
<trkpt lat="45.8815210" lon="9.8356080">
	<ele>1220.00</ele>
	<time>2023-11-18T12:20:28.000Z</time>
</trkpt>
<trkpt lat="45.8815200" lon="9.8356090">
	<ele>1220.00</ele>
	<time>2023-11-18T12:20:29.000Z</time>
</trkpt>
<trkpt lat="45.8815200" lon="9.8356090">
	<ele>1220.00</ele>
	<time>2023-11-18T12:20:30.000Z</time>
</trkpt>
<trkpt lat="45.8815200" lon="9.8356090">
	<ele>1219.80</ele>
	<time>2023-11-18T12:20:31.000Z</time>
</trkpt>
<trkpt lat="45.8815200" lon="9.8356090">
	<ele>1219.80</ele>
	<time>2023-11-18T12:20:32.000Z</time>
</trkpt>
<trkpt lat="45.8815200" lon="9.8356090">
	<ele>1219.60</ele>
	<time>2023-11-18T12:20:33.000Z</time>
</trkpt>
<trkpt lat="45.8815200" lon="9.8356080">
	<ele>1219.60</ele>
	<time>2023-11-18T12:20:34.000Z</time>
</trkpt>
<trkpt lat="45.8815200" lon="9.8356080">
	<ele>1219.60</ele>
	<time>2023-11-18T12:20:35.000Z</time>
</trkpt>
<trkpt lat="45.8815150" lon="9.8356080">
	<ele>1219.20</ele>
	<time>2023-11-18T12:20:36.000Z</time>
</trkpt>
<trkpt lat="45.8815020" lon="9.8356180">
	<ele>1219.00</ele>
	<time>2023-11-18T12:20:37.000Z</time>
</trkpt>
<trkpt lat="45.8814920" lon="9.8356310">
	<ele>1218.80</ele>
	<time>2023-11-18T12:20:38.000Z</time>
</trkpt>
<trkpt lat="45.8814810" lon="9.8356430">
	<ele>1218.60</ele>
	<time>2023-11-18T12:20:39.000Z</time>
</trkpt>
<trkpt lat="45.8814720" lon="9.8356530">
	<ele>1218.60</ele>
	<time>2023-11-18T12:20:40.000Z</time>
</trkpt>
<trkpt lat="45.8814630" lon="9.8356640">
	<ele>1218.40</ele>
	<time>2023-11-18T12:20:41.000Z</time>
</trkpt>
<trkpt lat="45.8814570" lon="9.8356720">
	<ele>1218.20</ele>
	<time>2023-11-18T12:20:42.000Z</time>
</trkpt>
<trkpt lat="45.8814530" lon="9.8356820">
	<ele>1218.20</ele>
	<time>2023-11-18T12:20:43.000Z</time>
</trkpt>
<trkpt lat="45.8814460" lon="9.8356960">
	<ele>1218.00</ele>
	<time>2023-11-18T12:20:44.000Z</time>
</trkpt>
<trkpt lat="45.8814370" lon="9.8357130">
	<ele>1218.00</ele>
	<time>2023-11-18T12:20:45.000Z</time>
</trkpt>
<trkpt lat="45.8814310" lon="9.8357260">
	<ele>1218.00</ele>
	<time>2023-11-18T12:20:46.000Z</time>
</trkpt>
<trkpt lat="45.8814260" lon="9.8357350">
	<ele>1217.80</ele>
	<time>2023-11-18T12:20:47.000Z</time>
</trkpt>
<trkpt lat="45.8814220" lon="9.8357430">
	<ele>1217.60</ele>
	<time>2023-11-18T12:20:48.000Z</time>
</trkpt>
<trkpt lat="45.8814190" lon="9.8357510">
	<ele>1217.40</ele>
	<time>2023-11-18T12:20:49.000Z</time>
</trkpt>
<trkpt lat="45.8814140" lon="9.8357580">
	<ele>1217.20</ele>
	<time>2023-11-18T12:20:50.000Z</time>
</trkpt>
<trkpt lat="45.8814080" lon="9.8357680">
	<ele>1217.20</ele>
	<time>2023-11-18T12:20:51.000Z</time>
</trkpt>
<trkpt lat="45.8814050" lon="9.8357820">
	<ele>1217.00</ele>
	<time>2023-11-18T12:20:52.000Z</time>
</trkpt>
<trkpt lat="45.8814020" lon="9.8357960">
	<ele>1217.00</ele>
	<time>2023-11-18T12:20:53.000Z</time>
</trkpt>
<trkpt lat="45.8813970" lon="9.8358130">
	<ele>1216.80</ele>
	<time>2023-11-18T12:20:54.000Z</time>
</trkpt>
<trkpt lat="45.8813950" lon="9.8358250">
	<ele>1216.60</ele>
	<time>2023-11-18T12:20:55.000Z</time>
</trkpt>
<trkpt lat="45.8813920" lon="9.8358380">
	<ele>1216.40</ele>
	<time>2023-11-18T12:20:56.000Z</time>
</trkpt>
<trkpt lat="45.8813900" lon="9.8358520">
	<ele>1216.20</ele>
	<time>2023-11-18T12:20:57.000Z</time>
</trkpt>
<trkpt lat="45.8813870" lon="9.8358630">
	<ele>1216.00</ele>
	<time>2023-11-18T12:20:58.000Z</time>
</trkpt>
<trkpt lat="45.8813790" lon="9.8358730">
	<ele>1215.60</ele>
	<time>2023-11-18T12:20:59.000Z</time>
</trkpt>
<trkpt lat="45.8813730" lon="9.8358860">
	<ele>1215.40</ele>
	<time>2023-11-18T12:21:00.000Z</time>
</trkpt>
<trkpt lat="45.8813660" lon="9.8358980">
	<ele>1215.20</ele>
	<time>2023-11-18T12:21:01.000Z</time>
</trkpt>
<trkpt lat="45.8813650" lon="9.8359110">
	<ele>1215.00</ele>
	<time>2023-11-18T12:21:02.000Z</time>
</trkpt>
<trkpt lat="45.8813640" lon="9.8359170">
	<ele>1215.00</ele>
	<time>2023-11-18T12:21:03.000Z</time>
</trkpt>
<trkpt lat="45.8813640" lon="9.8359230">
	<ele>1214.60</ele>
	<time>2023-11-18T12:21:04.000Z</time>
</trkpt>
<trkpt lat="45.8813660" lon="9.8359320">
	<ele>1214.60</ele>
	<time>2023-11-18T12:21:05.000Z</time>
</trkpt>
<trkpt lat="45.8813610" lon="9.8359390">
	<ele>1214.40</ele>
	<time>2023-11-18T12:21:06.000Z</time>
</trkpt>
<trkpt lat="45.8813540" lon="9.8359440">
	<ele>1214.20</ele>
	<time>2023-11-18T12:21:07.000Z</time>
</trkpt>
<trkpt lat="45.8813450" lon="9.8359550">
	<ele>1214.20</ele>
	<time>2023-11-18T12:21:08.000Z</time>
</trkpt>
<trkpt lat="45.8813500" lon="9.8359640">
	<ele>1213.80</ele>
	<time>2023-11-18T12:21:09.000Z</time>
</trkpt>
<trkpt lat="45.8813430" lon="9.8359750">
	<ele>1213.40</ele>
	<time>2023-11-18T12:21:10.000Z</time>
</trkpt>
<trkpt lat="45.8813430" lon="9.8359800">
	<ele>1213.20</ele>
	<time>2023-11-18T12:21:11.000Z</time>
</trkpt>
<trkpt lat="45.8813380" lon="9.8359820">
	<ele>1213.20</ele>
	<time>2023-11-18T12:21:12.000Z</time>
</trkpt>
<trkpt lat="45.8813330" lon="9.8359910">
	<ele>1213.00</ele>
	<time>2023-11-18T12:21:13.000Z</time>
</trkpt>
<trkpt lat="45.8813330" lon="9.8359990">
	<ele>1213.00</ele>
	<time>2023-11-18T12:21:14.000Z</time>
</trkpt>
<trkpt lat="45.8813310" lon="9.8360050">
	<ele>1213.00</ele>
	<time>2023-11-18T12:21:15.000Z</time>
</trkpt>
<trkpt lat="45.8813300" lon="9.8360050">
	<ele>1212.80</ele>
	<time>2023-11-18T12:21:16.000Z</time>
</trkpt>
<trkpt lat="45.8813260" lon="9.8360070">
	<ele>1212.80</ele>
	<time>2023-11-18T12:21:17.000Z</time>
</trkpt>
<trkpt lat="45.8813230" lon="9.8360120">
	<ele>1212.60</ele>
	<time>2023-11-18T12:21:18.000Z</time>
</trkpt>
<trkpt lat="45.8813140" lon="9.8360200">
	<ele>1212.40</ele>
	<time>2023-11-18T12:21:19.000Z</time>
</trkpt>
<trkpt lat="45.8813070" lon="9.8360280">
	<ele>1212.20</ele>
	<time>2023-11-18T12:21:20.000Z</time>
</trkpt>
<trkpt lat="45.8813030" lon="9.8360390">
	<ele>1212.00</ele>
	<time>2023-11-18T12:21:21.000Z</time>
</trkpt>
<trkpt lat="45.8812990" lon="9.8360500">
	<ele>1211.80</ele>
	<time>2023-11-18T12:21:22.000Z</time>
</trkpt>
<trkpt lat="45.8812940" lon="9.8360580">
	<ele>1211.60</ele>
	<time>2023-11-18T12:21:23.000Z</time>
</trkpt>
<trkpt lat="45.8812910" lon="9.8360690">
	<ele>1211.20</ele>
	<time>2023-11-18T12:21:24.000Z</time>
</trkpt>
<trkpt lat="45.8812850" lon="9.8360910">
	<ele>1211.00</ele>
	<time>2023-11-18T12:21:25.000Z</time>
</trkpt>
<trkpt lat="45.8812810" lon="9.8360990">
	<ele>1211.00</ele>
	<time>2023-11-18T12:21:26.000Z</time>
</trkpt>
<trkpt lat="45.8812740" lon="9.8361060">
	<ele>1210.80</ele>
	<time>2023-11-18T12:21:27.000Z</time>
</trkpt>
<trkpt lat="45.8812650" lon="9.8361110">
	<ele>1210.60</ele>
	<time>2023-11-18T12:21:28.000Z</time>
</trkpt>
<trkpt lat="45.8812590" lon="9.8361150">
	<ele>1210.20</ele>
	<time>2023-11-18T12:21:29.000Z</time>
</trkpt>
<trkpt lat="45.8812540" lon="9.8361180">
	<ele>1210.20</ele>
	<time>2023-11-18T12:21:30.000Z</time>
</trkpt>
<trkpt lat="45.8812480" lon="9.8361200">
	<ele>1210.00</ele>
	<time>2023-11-18T12:21:31.000Z</time>
</trkpt>
<trkpt lat="45.8812420" lon="9.8361240">
	<ele>1209.80</ele>
	<time>2023-11-18T12:21:32.000Z</time>
</trkpt>
<trkpt lat="45.8812390" lon="9.8361310">
	<ele>1209.80</ele>
	<time>2023-11-18T12:21:33.000Z</time>
</trkpt>
<trkpt lat="45.8812340" lon="9.8361370">
	<ele>1209.60</ele>
	<time>2023-11-18T12:21:34.000Z</time>
</trkpt>
<trkpt lat="45.8812320" lon="9.8361480">
	<ele>1209.60</ele>
	<time>2023-11-18T12:21:35.000Z</time>
</trkpt>
<trkpt lat="45.8812280" lon="9.8361600">
	<ele>1209.40</ele>
	<time>2023-11-18T12:21:36.000Z</time>
</trkpt>
<trkpt lat="45.8812210" lon="9.8361680">
	<ele>1209.20</ele>
	<time>2023-11-18T12:21:37.000Z</time>
</trkpt>
<trkpt lat="45.8812170" lon="9.8361760">
	<ele>1209.00</ele>
	<time>2023-11-18T12:21:38.000Z</time>
</trkpt>
<trkpt lat="45.8812090" lon="9.8361830">
	<ele>1208.80</ele>
	<time>2023-11-18T12:21:39.000Z</time>
</trkpt>
<trkpt lat="45.8812040" lon="9.8361880">
	<ele>1208.60</ele>
	<time>2023-11-18T12:21:40.000Z</time>
</trkpt>
<trkpt lat="45.8812020" lon="9.8361950">
	<ele>1208.20</ele>
	<time>2023-11-18T12:21:41.000Z</time>
</trkpt>
<trkpt lat="45.8811960" lon="9.8362060">
	<ele>1208.00</ele>
	<time>2023-11-18T12:21:42.000Z</time>
</trkpt>
<trkpt lat="45.8811930" lon="9.8362080">
	<ele>1208.00</ele>
	<time>2023-11-18T12:21:43.000Z</time>
</trkpt>
<trkpt lat="45.8811880" lon="9.8362110">
	<ele>1207.60</ele>
	<time>2023-11-18T12:21:44.000Z</time>
</trkpt>
<trkpt lat="45.8811830" lon="9.8362100">
	<ele>1207.40</ele>
	<time>2023-11-18T12:21:45.000Z</time>
</trkpt>
<trkpt lat="45.8811780" lon="9.8362130">
	<ele>1207.20</ele>
	<time>2023-11-18T12:21:46.000Z</time>
</trkpt>
<trkpt lat="45.8811720" lon="9.8362160">
	<ele>1207.20</ele>
	<time>2023-11-18T12:21:47.000Z</time>
</trkpt>
<trkpt lat="45.8811650" lon="9.8362200">
	<ele>1206.80</ele>
	<time>2023-11-18T12:21:48.000Z</time>
</trkpt>
<trkpt lat="45.8811600" lon="9.8362230">
	<ele>1206.80</ele>
	<time>2023-11-18T12:21:49.000Z</time>
</trkpt>
<trkpt lat="45.8811550" lon="9.8362290">
	<ele>1206.40</ele>
	<time>2023-11-18T12:21:50.000Z</time>
</trkpt>
<trkpt lat="45.8811510" lon="9.8362380">
	<ele>1206.20</ele>
	<time>2023-11-18T12:21:51.000Z</time>
</trkpt>
<trkpt lat="45.8811450" lon="9.8362490">
	<ele>1205.80</ele>
	<time>2023-11-18T12:21:52.000Z</time>
</trkpt>
<trkpt lat="45.8811410" lon="9.8362580">
	<ele>1205.80</ele>
	<time>2023-11-18T12:21:53.000Z</time>
</trkpt>
<trkpt lat="45.8811370" lon="9.8362670">
	<ele>1205.60</ele>
	<time>2023-11-18T12:21:54.000Z</time>
</trkpt>
<trkpt lat="45.8811360" lon="9.8362780">
	<ele>1205.40</ele>
	<time>2023-11-18T12:21:55.000Z</time>
</trkpt>
<trkpt lat="45.8811340" lon="9.8362880">
	<ele>1205.20</ele>
	<time>2023-11-18T12:21:56.000Z</time>
</trkpt>
<trkpt lat="45.8811320" lon="9.8363000">
	<ele>1205.00</ele>
	<time>2023-11-18T12:21:57.000Z</time>
</trkpt>
<trkpt lat="45.8811270" lon="9.8363130">
	<ele>1204.80</ele>
	<time>2023-11-18T12:21:58.000Z</time>
</trkpt>
<trkpt lat="45.8811220" lon="9.8363220">
	<ele>1204.80</ele>
	<time>2023-11-18T12:21:59.000Z</time>
</trkpt>
<trkpt lat="45.8811170" lon="9.8363310">
	<ele>1204.40</ele>
	<time>2023-11-18T12:22:00.000Z</time>
</trkpt>
<trkpt lat="45.8811080" lon="9.8363360">
	<ele>1204.20</ele>
	<time>2023-11-18T12:22:01.000Z</time>
</trkpt>
<trkpt lat="45.8811030" lon="9.8363430">
	<ele>1204.00</ele>
	<time>2023-11-18T12:22:02.000Z</time>
</trkpt>
<trkpt lat="45.8810970" lon="9.8363490">
	<ele>1204.00</ele>
	<time>2023-11-18T12:22:03.000Z</time>
</trkpt>
<trkpt lat="45.8810880" lon="9.8363650">
	<ele>1203.80</ele>
	<time>2023-11-18T12:22:04.000Z</time>
</trkpt>
<trkpt lat="45.8810840" lon="9.8363770">
	<ele>1203.60</ele>
	<time>2023-11-18T12:22:05.000Z</time>
</trkpt>
<trkpt lat="45.8810830" lon="9.8363870">
	<ele>1203.40</ele>
	<time>2023-11-18T12:22:06.000Z</time>
</trkpt>
<trkpt lat="45.8810830" lon="9.8363960">
	<ele>1203.20</ele>
	<time>2023-11-18T12:22:07.000Z</time>
</trkpt>
<trkpt lat="45.8810780" lon="9.8364020">
	<ele>1203.00</ele>
	<time>2023-11-18T12:22:08.000Z</time>
</trkpt>
<trkpt lat="45.8810740" lon="9.8364100">
	<ele>1202.80</ele>
	<time>2023-11-18T12:22:09.000Z</time>
</trkpt>
<trkpt lat="45.8810690" lon="9.8364170">
	<ele>1202.60</ele>
	<time>2023-11-18T12:22:10.000Z</time>
</trkpt>
<trkpt lat="45.8810660" lon="9.8364290">
	<ele>1202.40</ele>
	<time>2023-11-18T12:22:11.000Z</time>
</trkpt>
<trkpt lat="45.8810640" lon="9.8364380">
	<ele>1202.40</ele>
	<time>2023-11-18T12:22:12.000Z</time>
</trkpt>
<trkpt lat="45.8810600" lon="9.8364480">
	<ele>1202.00</ele>
	<time>2023-11-18T12:22:13.000Z</time>
</trkpt>
<trkpt lat="45.8810540" lon="9.8364570">
	<ele>1201.80</ele>
	<time>2023-11-18T12:22:14.000Z</time>
</trkpt>
<trkpt lat="45.8810510" lon="9.8364610">
	<ele>1201.60</ele>
	<time>2023-11-18T12:22:15.000Z</time>
</trkpt>
<trkpt lat="45.8810500" lon="9.8364630">
	<ele>1201.60</ele>
	<time>2023-11-18T12:22:16.000Z</time>
</trkpt>
<trkpt lat="45.8810490" lon="9.8364630">
	<ele>1201.40</ele>
	<time>2023-11-18T12:22:17.000Z</time>
</trkpt>
<trkpt lat="45.8810490" lon="9.8364630">
	<ele>1201.40</ele>
	<time>2023-11-18T12:22:18.000Z</time>
</trkpt>
<trkpt lat="45.8810490" lon="9.8364650">
	<ele>1201.20</ele>
	<time>2023-11-18T12:22:19.000Z</time>
</trkpt>
<trkpt lat="45.8810480" lon="9.8364660">
	<ele>1201.20</ele>
	<time>2023-11-18T12:22:20.000Z</time>
</trkpt>
<trkpt lat="45.8810460" lon="9.8364670">
	<ele>1201.20</ele>
	<time>2023-11-18T12:22:21.000Z</time>
</trkpt>
<trkpt lat="45.8810440" lon="9.8364670">
	<ele>1201.00</ele>
	<time>2023-11-18T12:22:22.000Z</time>
</trkpt>
<trkpt lat="45.8810430" lon="9.8364670">
	<ele>1201.00</ele>
	<time>2023-11-18T12:22:23.000Z</time>
</trkpt>
<trkpt lat="45.8810420" lon="9.8364670">
	<ele>1201.00</ele>
	<time>2023-11-18T12:22:24.000Z</time>
</trkpt>
<trkpt lat="45.8810400" lon="9.8364670">
	<ele>1201.00</ele>
	<time>2023-11-18T12:22:25.000Z</time>
</trkpt>
<trkpt lat="45.8810410" lon="9.8364670">
	<ele>1201.00</ele>
	<time>2023-11-18T12:22:26.000Z</time>
</trkpt>
<trkpt lat="45.8810410" lon="9.8364670">
	<ele>1200.80</ele>
	<time>2023-11-18T12:22:27.000Z</time>
</trkpt>
<trkpt lat="45.8810410" lon="9.8364670">
	<ele>1200.80</ele>
	<time>2023-11-18T12:22:28.000Z</time>
</trkpt>
<trkpt lat="45.8810410" lon="9.8364670">
	<ele>1200.80</ele>
	<time>2023-11-18T12:22:29.000Z</time>
</trkpt>
<trkpt lat="45.8810410" lon="9.8364670">
	<ele>1200.80</ele>
	<time>2023-11-18T12:22:30.000Z</time>
</trkpt>
<trkpt lat="45.8810410" lon="9.8364670">
	<ele>1200.80</ele>
	<time>2023-11-18T12:22:31.000Z</time>
</trkpt>
<trkpt lat="45.8810410" lon="9.8364670">
	<ele>1200.80</ele>
	<time>2023-11-18T12:22:32.000Z</time>
</trkpt>
<trkpt lat="45.8810410" lon="9.8364670">
	<ele>1200.80</ele>
	<time>2023-11-18T12:22:33.000Z</time>
</trkpt>
<trkpt lat="45.8810410" lon="9.8364670">
	<ele>1200.80</ele>
	<time>2023-11-18T12:22:34.000Z</time>
</trkpt>
<trkpt lat="45.8810410" lon="9.8364670">
	<ele>1200.80</ele>
	<time>2023-11-18T12:22:35.000Z</time>
</trkpt>
<trkpt lat="45.8810410" lon="9.8364670">
	<ele>1201.00</ele>
	<time>2023-11-18T12:22:36.000Z</time>
</trkpt>
<trkpt lat="45.8810410" lon="9.8364670">
	<ele>1201.00</ele>
	<time>2023-11-18T12:22:37.000Z</time>
</trkpt>
<trkpt lat="45.8810420" lon="9.8364670">
	<ele>1201.00</ele>
	<time>2023-11-18T12:22:38.000Z</time>
</trkpt>
<trkpt lat="45.8810420" lon="9.8364670">
	<ele>1201.00</ele>
	<time>2023-11-18T12:22:39.000Z</time>
</trkpt>
<trkpt lat="45.8810420" lon="9.8364670">
	<ele>1201.00</ele>
	<time>2023-11-18T12:22:40.000Z</time>
</trkpt>
<trkpt lat="45.8810420" lon="9.8364670">
	<ele>1201.00</ele>
	<time>2023-11-18T12:22:41.000Z</time>
</trkpt>
<trkpt lat="45.8810420" lon="9.8364680">
	<ele>1201.00</ele>
	<time>2023-11-18T12:22:42.000Z</time>
</trkpt>
<trkpt lat="45.8810420" lon="9.8364690">
	<ele>1201.00</ele>
	<time>2023-11-18T12:22:43.000Z</time>
</trkpt>
<trkpt lat="45.8810420" lon="9.8364690">
	<ele>1200.80</ele>
	<time>2023-11-18T12:22:44.000Z</time>
</trkpt>
<trkpt lat="45.8810420" lon="9.8364690">
	<ele>1200.80</ele>
	<time>2023-11-18T12:22:45.000Z</time>
</trkpt>
<trkpt lat="45.8810420" lon="9.8364690">
	<ele>1200.80</ele>
	<time>2023-11-18T12:22:46.000Z</time>
</trkpt>
<trkpt lat="45.8810420" lon="9.8364690">
	<ele>1201.00</ele>
	<time>2023-11-18T12:22:47.000Z</time>
</trkpt>
<trkpt lat="45.8810420" lon="9.8364690">
	<ele>1201.00</ele>
	<time>2023-11-18T12:22:48.000Z</time>
</trkpt>
<trkpt lat="45.8810420" lon="9.8364690">
	<ele>1201.00</ele>
	<time>2023-11-18T12:22:49.000Z</time>
</trkpt>
<trkpt lat="45.8810410" lon="9.8364690">
	<ele>1201.00</ele>
	<time>2023-11-18T12:22:50.000Z</time>
</trkpt>
<trkpt lat="45.8810410" lon="9.8364690">
	<ele>1200.80</ele>
	<time>2023-11-18T12:22:51.000Z</time>
</trkpt>
<trkpt lat="45.8810410" lon="9.8364690">
	<ele>1200.80</ele>
	<time>2023-11-18T12:22:52.000Z</time>
</trkpt>
<trkpt lat="45.8810410" lon="9.8364690">
	<ele>1200.80</ele>
	<time>2023-11-18T12:22:53.000Z</time>
</trkpt>
<trkpt lat="45.8810400" lon="9.8364690">
	<ele>1200.80</ele>
	<time>2023-11-18T12:22:54.000Z</time>
</trkpt>
<trkpt lat="45.8810400" lon="9.8364690">
	<ele>1200.80</ele>
	<time>2023-11-18T12:22:55.000Z</time>
</trkpt>
<trkpt lat="45.8810400" lon="9.8364690">
	<ele>1200.80</ele>
	<time>2023-11-18T12:22:56.000Z</time>
</trkpt>
<trkpt lat="45.8810390" lon="9.8364690">
	<ele>1200.80</ele>
	<time>2023-11-18T12:22:57.000Z</time>
</trkpt>
<trkpt lat="45.8810390" lon="9.8364690">
	<ele>1200.80</ele>
	<time>2023-11-18T12:22:58.000Z</time>
</trkpt>
<trkpt lat="45.8810390" lon="9.8364690">
	<ele>1200.60</ele>
	<time>2023-11-18T12:22:59.000Z</time>
</trkpt>
<trkpt lat="45.8810390" lon="9.8364690">
	<ele>1200.60</ele>
	<time>2023-11-18T12:23:00.000Z</time>
</trkpt>
<trkpt lat="45.8810390" lon="9.8364690">
	<ele>1200.60</ele>
	<time>2023-11-18T12:23:01.000Z</time>
</trkpt>
<trkpt lat="45.8810390" lon="9.8364690">
	<ele>1200.60</ele>
	<time>2023-11-18T12:23:02.000Z</time>
</trkpt>
<trkpt lat="45.8810390" lon="9.8364670">
	<ele>1200.60</ele>
	<time>2023-11-18T12:23:03.000Z</time>
</trkpt>
<trkpt lat="45.8810380" lon="9.8364660">
	<ele>1200.60</ele>
	<time>2023-11-18T12:23:04.000Z</time>
</trkpt>
<trkpt lat="45.8810380" lon="9.8364640">
	<ele>1200.60</ele>
	<time>2023-11-18T12:23:05.000Z</time>
</trkpt>
<trkpt lat="45.8810380" lon="9.8364640">
	<ele>1200.80</ele>
	<time>2023-11-18T12:23:06.000Z</time>
</trkpt>
<trkpt lat="45.8810370" lon="9.8364630">
	<ele>1200.80</ele>
	<time>2023-11-18T12:23:07.000Z</time>
</trkpt>
<trkpt lat="45.8810370" lon="9.8364630">
	<ele>1200.80</ele>
	<time>2023-11-18T12:23:08.000Z</time>
</trkpt>
<trkpt lat="45.8810370" lon="9.8364620">
	<ele>1200.80</ele>
	<time>2023-11-18T12:23:09.000Z</time>
</trkpt>
<trkpt lat="45.8810360" lon="9.8364610">
	<ele>1200.60</ele>
	<time>2023-11-18T12:23:10.000Z</time>
</trkpt>
<trkpt lat="45.8810360" lon="9.8364580">
	<ele>1200.60</ele>
	<time>2023-11-18T12:23:11.000Z</time>
</trkpt>
<trkpt lat="45.8810360" lon="9.8364560">
	<ele>1200.60</ele>
	<time>2023-11-18T12:23:12.000Z</time>
</trkpt>
<trkpt lat="45.8810360" lon="9.8364560">
	<ele>1200.60</ele>
	<time>2023-11-18T12:23:13.000Z</time>
</trkpt>
<trkpt lat="45.8810360" lon="9.8364540">
	<ele>1200.40</ele>
	<time>2023-11-18T12:23:14.000Z</time>
</trkpt>
<trkpt lat="45.8810350" lon="9.8364520">
	<ele>1200.20</ele>
	<time>2023-11-18T12:23:15.000Z</time>
</trkpt>
<trkpt lat="45.8810350" lon="9.8364510">
	<ele>1200.20</ele>
	<time>2023-11-18T12:23:16.000Z</time>
</trkpt>
<trkpt lat="45.8810340" lon="9.8364510">
	<ele>1200.00</ele>
	<time>2023-11-18T12:23:17.000Z</time>
</trkpt>
<trkpt lat="45.8810340" lon="9.8364510">
	<ele>1199.80</ele>
	<time>2023-11-18T12:23:18.000Z</time>
</trkpt>
<trkpt lat="45.8810340" lon="9.8364510">
	<ele>1199.80</ele>
	<time>2023-11-18T12:23:19.000Z</time>
</trkpt>
<trkpt lat="45.8810270" lon="9.8364550">
	<ele>1199.60</ele>
	<time>2023-11-18T12:23:20.000Z</time>
</trkpt>
<trkpt lat="45.8810200" lon="9.8364680">
	<ele>1199.40</ele>
	<time>2023-11-18T12:23:21.000Z</time>
</trkpt>
<trkpt lat="45.8810090" lon="9.8364820">
	<ele>1199.20</ele>
	<time>2023-11-18T12:23:22.000Z</time>
</trkpt>
<trkpt lat="45.8809980" lon="9.8364960">
	<ele>1199.00</ele>
	<time>2023-11-18T12:23:23.000Z</time>
</trkpt>
<trkpt lat="45.8809860" lon="9.8365080">
	<ele>1198.80</ele>
	<time>2023-11-18T12:23:24.000Z</time>
</trkpt>
<trkpt lat="45.8809710" lon="9.8365190">
	<ele>1198.60</ele>
	<time>2023-11-18T12:23:25.000Z</time>
</trkpt>
<trkpt lat="45.8809560" lon="9.8365260">
	<ele>1198.40</ele>
	<time>2023-11-18T12:23:26.000Z</time>
</trkpt>
<trkpt lat="45.8809380" lon="9.8365350">
	<ele>1198.20</ele>
	<time>2023-11-18T12:23:27.000Z</time>
</trkpt>
<trkpt lat="45.8809220" lon="9.8365430">
	<ele>1198.00</ele>
	<time>2023-11-18T12:23:28.000Z</time>
</trkpt>
<trkpt lat="45.8809100" lon="9.8365560">
	<ele>1197.80</ele>
	<time>2023-11-18T12:23:29.000Z</time>
</trkpt>
<trkpt lat="45.8809080" lon="9.8365680">
	<ele>1197.60</ele>
	<time>2023-11-18T12:23:30.000Z</time>
</trkpt>
<trkpt lat="45.8809070" lon="9.8365800">
	<ele>1197.40</ele>
	<time>2023-11-18T12:23:31.000Z</time>
</trkpt>
<trkpt lat="45.8809010" lon="9.8365920">
	<ele>1197.00</ele>
	<time>2023-11-18T12:23:32.000Z</time>
</trkpt>
<trkpt lat="45.8808990" lon="9.8366030">
	<ele>1197.00</ele>
	<time>2023-11-18T12:23:33.000Z</time>
</trkpt>
<trkpt lat="45.8809010" lon="9.8366160">
	<ele>1196.80</ele>
	<time>2023-11-18T12:23:34.000Z</time>
</trkpt>
<trkpt lat="45.8809000" lon="9.8366300">
	<ele>1196.60</ele>
	<time>2023-11-18T12:23:35.000Z</time>
</trkpt>
<trkpt lat="45.8809000" lon="9.8366370">
	<ele>1196.60</ele>
	<time>2023-11-18T12:23:36.000Z</time>
</trkpt>
<trkpt lat="45.8809000" lon="9.8366380">
	<ele>1196.40</ele>
	<time>2023-11-18T12:23:37.000Z</time>
</trkpt>
<trkpt lat="45.8809000" lon="9.8366380">
	<ele>1196.40</ele>
	<time>2023-11-18T12:23:38.000Z</time>
</trkpt>
<trkpt lat="45.8809000" lon="9.8366320">
	<ele>1196.20</ele>
	<time>2023-11-18T12:23:39.000Z</time>
</trkpt>
<trkpt lat="45.8809010" lon="9.8366290">
	<ele>1196.20</ele>
	<time>2023-11-18T12:23:40.000Z</time>
</trkpt>
<trkpt lat="45.8809010" lon="9.8366300">
	<ele>1196.20</ele>
	<time>2023-11-18T12:23:41.000Z</time>
</trkpt>
<trkpt lat="45.8809000" lon="9.8366320">
	<ele>1196.20</ele>
	<time>2023-11-18T12:23:42.000Z</time>
</trkpt>
<trkpt lat="45.8809000" lon="9.8366330">
	<ele>1196.20</ele>
	<time>2023-11-18T12:23:43.000Z</time>
</trkpt>
<trkpt lat="45.8808980" lon="9.8366340">
	<ele>1196.20</ele>
	<time>2023-11-18T12:23:44.000Z</time>
</trkpt>
<trkpt lat="45.8808980" lon="9.8366350">
	<ele>1196.20</ele>
	<time>2023-11-18T12:23:45.000Z</time>
</trkpt>
<trkpt lat="45.8808980" lon="9.8366360">
	<ele>1196.20</ele>
	<time>2023-11-18T12:23:46.000Z</time>
</trkpt>
<trkpt lat="45.8808980" lon="9.8366360">
	<ele>1196.40</ele>
	<time>2023-11-18T12:23:47.000Z</time>
</trkpt>
<trkpt lat="45.8808980" lon="9.8366360">
	<ele>1196.40</ele>
	<time>2023-11-18T12:23:48.000Z</time>
</trkpt>
<trkpt lat="45.8808980" lon="9.8366360">
	<ele>1196.40</ele>
	<time>2023-11-18T12:23:49.000Z</time>
</trkpt>
<trkpt lat="45.8808980" lon="9.8366360">
	<ele>1196.40</ele>
	<time>2023-11-18T12:23:50.000Z</time>
</trkpt>
<trkpt lat="45.8808980" lon="9.8366360">
	<ele>1196.40</ele>
	<time>2023-11-18T12:23:51.000Z</time>
</trkpt>
<trkpt lat="45.8808980" lon="9.8366360">
	<ele>1196.20</ele>
	<time>2023-11-18T12:23:52.000Z</time>
</trkpt>
<trkpt lat="45.8808980" lon="9.8366360">
	<ele>1196.20</ele>
	<time>2023-11-18T12:23:53.000Z</time>
</trkpt>
<trkpt lat="45.8808980" lon="9.8366360">
	<ele>1196.20</ele>
	<time>2023-11-18T12:23:54.000Z</time>
</trkpt>
<trkpt lat="45.8808980" lon="9.8366360">
	<ele>1196.20</ele>
	<time>2023-11-18T12:23:55.000Z</time>
</trkpt>
<trkpt lat="45.8808980" lon="9.8366360">
	<ele>1196.20</ele>
	<time>2023-11-18T12:23:56.000Z</time>
</trkpt>
<trkpt lat="45.8808980" lon="9.8366360">
	<ele>1196.20</ele>
	<time>2023-11-18T12:23:57.000Z</time>
</trkpt>
<trkpt lat="45.8808970" lon="9.8366410">
	<ele>1196.00</ele>
	<time>2023-11-18T12:23:58.000Z</time>
</trkpt>
<trkpt lat="45.8808880" lon="9.8366600">
	<ele>1195.80</ele>
	<time>2023-11-18T12:23:59.000Z</time>
</trkpt>
<trkpt lat="45.8808820" lon="9.8366770">
	<ele>1195.60</ele>
	<time>2023-11-18T12:24:00.000Z</time>
</trkpt>
<trkpt lat="45.8808750" lon="9.8366950">
	<ele>1195.40</ele>
	<time>2023-11-18T12:24:01.000Z</time>
</trkpt>
<trkpt lat="45.8808690" lon="9.8367110">
	<ele>1195.40</ele>
	<time>2023-11-18T12:24:02.000Z</time>
</trkpt>
<trkpt lat="45.8808610" lon="9.8367240">
	<ele>1195.20</ele>
	<time>2023-11-18T12:24:03.000Z</time>
</trkpt>
<trkpt lat="45.8808530" lon="9.8367350">
	<ele>1195.00</ele>
	<time>2023-11-18T12:24:04.000Z</time>
</trkpt>
<trkpt lat="45.8808410" lon="9.8367460">
	<ele>1194.60</ele>
	<time>2023-11-18T12:24:05.000Z</time>
</trkpt>
<trkpt lat="45.8808300" lon="9.8367600">
	<ele>1194.40</ele>
	<time>2023-11-18T12:24:06.000Z</time>
</trkpt>
<trkpt lat="45.8808220" lon="9.8367750">
	<ele>1194.40</ele>
	<time>2023-11-18T12:24:07.000Z</time>
</trkpt>
<trkpt lat="45.8808150" lon="9.8367880">
	<ele>1194.20</ele>
	<time>2023-11-18T12:24:08.000Z</time>
</trkpt>
<trkpt lat="45.8808110" lon="9.8368000">
	<ele>1194.00</ele>
	<time>2023-11-18T12:24:09.000Z</time>
</trkpt>
<trkpt lat="45.8808070" lon="9.8368100">
	<ele>1193.80</ele>
	<time>2023-11-18T12:24:10.000Z</time>
</trkpt>
<trkpt lat="45.8808020" lon="9.8368210">
	<ele>1193.80</ele>
	<time>2023-11-18T12:24:11.000Z</time>
</trkpt>
<trkpt lat="45.8807960" lon="9.8368360">
	<ele>1193.60</ele>
	<time>2023-11-18T12:24:12.000Z</time>
</trkpt>
<trkpt lat="45.8807890" lon="9.8368500">
	<ele>1193.60</ele>
	<time>2023-11-18T12:24:13.000Z</time>
</trkpt>
<trkpt lat="45.8807880" lon="9.8368620">
	<ele>1193.20</ele>
	<time>2023-11-18T12:24:14.000Z</time>
</trkpt>
<trkpt lat="45.8807830" lon="9.8368740">
	<ele>1193.00</ele>
	<time>2023-11-18T12:24:15.000Z</time>
</trkpt>
<trkpt lat="45.8807780" lon="9.8368810">
	<ele>1192.80</ele>
	<time>2023-11-18T12:24:16.000Z</time>
</trkpt>
<trkpt lat="45.8807710" lon="9.8368900">
	<ele>1192.40</ele>
	<time>2023-11-18T12:24:17.000Z</time>
</trkpt>
<trkpt lat="45.8807650" lon="9.8369000">
	<ele>1192.40</ele>
	<time>2023-11-18T12:24:18.000Z</time>
</trkpt>
<trkpt lat="45.8807610" lon="9.8369080">
	<ele>1192.20</ele>
	<time>2023-11-18T12:24:19.000Z</time>
</trkpt>
<trkpt lat="45.8807550" lon="9.8369160">
	<ele>1192.00</ele>
	<time>2023-11-18T12:24:20.000Z</time>
</trkpt>
<trkpt lat="45.8807500" lon="9.8369260">
	<ele>1191.60</ele>
	<time>2023-11-18T12:24:21.000Z</time>
</trkpt>
<trkpt lat="45.8807440" lon="9.8369410">
	<ele>1191.40</ele>
	<time>2023-11-18T12:24:22.000Z</time>
</trkpt>
<trkpt lat="45.8807400" lon="9.8369530">
	<ele>1191.20</ele>
	<time>2023-11-18T12:24:23.000Z</time>
</trkpt>
<trkpt lat="45.8807370" lon="9.8369640">
	<ele>1190.80</ele>
	<time>2023-11-18T12:24:24.000Z</time>
</trkpt>
<trkpt lat="45.8807300" lon="9.8369740">
	<ele>1190.60</ele>
	<time>2023-11-18T12:24:25.000Z</time>
</trkpt>
<trkpt lat="45.8807180" lon="9.8369820">
	<ele>1190.40</ele>
	<time>2023-11-18T12:24:26.000Z</time>
</trkpt>
<trkpt lat="45.8807090" lon="9.8369920">
	<ele>1190.20</ele>
	<time>2023-11-18T12:24:27.000Z</time>
</trkpt>
<trkpt lat="45.8807040" lon="9.8370010">
	<ele>1190.00</ele>
	<time>2023-11-18T12:24:28.000Z</time>
</trkpt>
<trkpt lat="45.8806990" lon="9.8370090">
	<ele>1189.80</ele>
	<time>2023-11-18T12:24:29.000Z</time>
</trkpt>
<trkpt lat="45.8806940" lon="9.8370190">
	<ele>1189.40</ele>
	<time>2023-11-18T12:24:30.000Z</time>
</trkpt>
<trkpt lat="45.8806880" lon="9.8370310">
	<ele>1189.00</ele>
	<time>2023-11-18T12:24:31.000Z</time>
</trkpt>
<trkpt lat="45.8806820" lon="9.8370440">
	<ele>1188.80</ele>
	<time>2023-11-18T12:24:32.000Z</time>
</trkpt>
<trkpt lat="45.8806760" lon="9.8370570">
	<ele>1188.60</ele>
	<time>2023-11-18T12:24:33.000Z</time>
</trkpt>
<trkpt lat="45.8806720" lon="9.8370700">
	<ele>1188.60</ele>
	<time>2023-11-18T12:24:34.000Z</time>
</trkpt>
<trkpt lat="45.8806680" lon="9.8370810">
	<ele>1188.40</ele>
	<time>2023-11-18T12:24:35.000Z</time>
</trkpt>
<trkpt lat="45.8806610" lon="9.8370890">
	<ele>1188.20</ele>
	<time>2023-11-18T12:24:36.000Z</time>
</trkpt>
<trkpt lat="45.8806550" lon="9.8370950">
	<ele>1187.80</ele>
	<time>2023-11-18T12:24:37.000Z</time>
</trkpt>
<trkpt lat="45.8806460" lon="9.8371010">
	<ele>1187.60</ele>
	<time>2023-11-18T12:24:38.000Z</time>
</trkpt>
<trkpt lat="45.8806360" lon="9.8371060">
	<ele>1187.20</ele>
	<time>2023-11-18T12:24:39.000Z</time>
</trkpt>
<trkpt lat="45.8806250" lon="9.8371130">
	<ele>1187.00</ele>
	<time>2023-11-18T12:24:40.000Z</time>
</trkpt>
<trkpt lat="45.8806170" lon="9.8371260">
	<ele>1186.80</ele>
	<time>2023-11-18T12:24:41.000Z</time>
</trkpt>
<trkpt lat="45.8806100" lon="9.8371400">
	<ele>1186.60</ele>
	<time>2023-11-18T12:24:42.000Z</time>
</trkpt>
<trkpt lat="45.8806060" lon="9.8371510">
	<ele>1186.20</ele>
	<time>2023-11-18T12:24:43.000Z</time>
</trkpt>
<trkpt lat="45.8806030" lon="9.8371640">
	<ele>1185.80</ele>
	<time>2023-11-18T12:24:44.000Z</time>
</trkpt>
<trkpt lat="45.8805980" lon="9.8371750">
	<ele>1185.60</ele>
	<time>2023-11-18T12:24:45.000Z</time>
</trkpt>
<trkpt lat="45.8805950" lon="9.8371850">
	<ele>1185.40</ele>
	<time>2023-11-18T12:24:46.000Z</time>
</trkpt>
<trkpt lat="45.8805930" lon="9.8371950">
	<ele>1185.20</ele>
	<time>2023-11-18T12:24:47.000Z</time>
</trkpt>
<trkpt lat="45.8805960" lon="9.8372040">
	<ele>1185.00</ele>
	<time>2023-11-18T12:24:48.000Z</time>
</trkpt>
<trkpt lat="45.8805990" lon="9.8372090">
	<ele>1184.80</ele>
	<time>2023-11-18T12:24:49.000Z</time>
</trkpt>
<trkpt lat="45.8806000" lon="9.8372190">
	<ele>1184.80</ele>
	<time>2023-11-18T12:24:50.000Z</time>
</trkpt>
<trkpt lat="45.8806000" lon="9.8372350">
	<ele>1184.60</ele>
	<time>2023-11-18T12:24:51.000Z</time>
</trkpt>
<trkpt lat="45.8805950" lon="9.8372500">
	<ele>1184.60</ele>
	<time>2023-11-18T12:24:52.000Z</time>
</trkpt>
<trkpt lat="45.8805920" lon="9.8372660">
	<ele>1184.60</ele>
	<time>2023-11-18T12:24:53.000Z</time>
</trkpt>
<trkpt lat="45.8805860" lon="9.8372830">
	<ele>1184.40</ele>
	<time>2023-11-18T12:24:54.000Z</time>
</trkpt>
<trkpt lat="45.8805820" lon="9.8372960">
	<ele>1184.40</ele>
	<time>2023-11-18T12:24:55.000Z</time>
</trkpt>
<trkpt lat="45.8805760" lon="9.8373020">
	<ele>1184.20</ele>
	<time>2023-11-18T12:24:56.000Z</time>
</trkpt>
<trkpt lat="45.8805690" lon="9.8373060">
	<ele>1184.00</ele>
	<time>2023-11-18T12:24:57.000Z</time>
</trkpt>
<trkpt lat="45.8805650" lon="9.8373090">
	<ele>1183.60</ele>
	<time>2023-11-18T12:24:58.000Z</time>
</trkpt>
<trkpt lat="45.8805570" lon="9.8373140">
	<ele>1183.40</ele>
	<time>2023-11-18T12:24:59.000Z</time>
</trkpt>
<trkpt lat="45.8805470" lon="9.8373210">
	<ele>1183.20</ele>
	<time>2023-11-18T12:25:00.000Z</time>
</trkpt>
<trkpt lat="45.8805370" lon="9.8373280">
	<ele>1182.80</ele>
	<time>2023-11-18T12:25:01.000Z</time>
</trkpt>
<trkpt lat="45.8805300" lon="9.8373400">
	<ele>1182.60</ele>
	<time>2023-11-18T12:25:02.000Z</time>
</trkpt>
<trkpt lat="45.8805230" lon="9.8373510">
	<ele>1182.20</ele>
	<time>2023-11-18T12:25:03.000Z</time>
</trkpt>
<trkpt lat="45.8805190" lon="9.8373630">
	<ele>1181.80</ele>
	<time>2023-11-18T12:25:04.000Z</time>
</trkpt>
<trkpt lat="45.8805170" lon="9.8373770">
	<ele>1181.60</ele>
	<time>2023-11-18T12:25:05.000Z</time>
</trkpt>
<trkpt lat="45.8805110" lon="9.8373900">
	<ele>1181.40</ele>
	<time>2023-11-18T12:25:06.000Z</time>
</trkpt>
<trkpt lat="45.8805080" lon="9.8374000">
	<ele>1181.20</ele>
	<time>2023-11-18T12:25:07.000Z</time>
</trkpt>
<trkpt lat="45.8805000" lon="9.8374080">
	<ele>1180.80</ele>
	<time>2023-11-18T12:25:08.000Z</time>
</trkpt>
<trkpt lat="45.8804930" lon="9.8374200">
	<ele>1180.60</ele>
	<time>2023-11-18T12:25:09.000Z</time>
</trkpt>
<trkpt lat="45.8804880" lon="9.8374300">
	<ele>1180.40</ele>
	<time>2023-11-18T12:25:10.000Z</time>
</trkpt>
<trkpt lat="45.8804800" lon="9.8374440">
	<ele>1180.20</ele>
	<time>2023-11-18T12:25:11.000Z</time>
</trkpt>
<trkpt lat="45.8804750" lon="9.8374580">
	<ele>1180.00</ele>
	<time>2023-11-18T12:25:12.000Z</time>
</trkpt>
<trkpt lat="45.8804680" lon="9.8374690">
	<ele>1179.80</ele>
	<time>2023-11-18T12:25:13.000Z</time>
</trkpt>
<trkpt lat="45.8804590" lon="9.8374770">
	<ele>1179.40</ele>
	<time>2023-11-18T12:25:14.000Z</time>
</trkpt>
<trkpt lat="45.8804470" lon="9.8374770">
	<ele>1179.20</ele>
	<time>2023-11-18T12:25:15.000Z</time>
</trkpt>
<trkpt lat="45.8804350" lon="9.8374700">
	<ele>1179.00</ele>
	<time>2023-11-18T12:25:16.000Z</time>
</trkpt>
<trkpt lat="45.8804260" lon="9.8374670">
	<ele>1178.80</ele>
	<time>2023-11-18T12:25:17.000Z</time>
</trkpt>
<trkpt lat="45.8804170" lon="9.8374740">
	<ele>1178.60</ele>
	<time>2023-11-18T12:25:18.000Z</time>
</trkpt>
<trkpt lat="45.8804080" lon="9.8374840">
	<ele>1178.40</ele>
	<time>2023-11-18T12:25:19.000Z</time>
</trkpt>
<trkpt lat="45.8804000" lon="9.8374910">
	<ele>1178.00</ele>
	<time>2023-11-18T12:25:20.000Z</time>
</trkpt>
<trkpt lat="45.8803910" lon="9.8374970">
	<ele>1177.60</ele>
	<time>2023-11-18T12:25:21.000Z</time>
</trkpt>
<trkpt lat="45.8803830" lon="9.8375060">
	<ele>1177.40</ele>
	<time>2023-11-18T12:25:22.000Z</time>
</trkpt>
<trkpt lat="45.8803760" lon="9.8375170">
	<ele>1177.20</ele>
	<time>2023-11-18T12:25:23.000Z</time>
</trkpt>
<trkpt lat="45.8803680" lon="9.8375310">
	<ele>1177.00</ele>
	<time>2023-11-18T12:25:24.000Z</time>
</trkpt>
<trkpt lat="45.8803580" lon="9.8375430">
	<ele>1176.60</ele>
	<time>2023-11-18T12:25:25.000Z</time>
</trkpt>
<trkpt lat="45.8803490" lon="9.8375550">
	<ele>1176.20</ele>
	<time>2023-11-18T12:25:26.000Z</time>
</trkpt>
<trkpt lat="45.8803420" lon="9.8375670">
	<ele>1175.80</ele>
	<time>2023-11-18T12:25:27.000Z</time>
</trkpt>
<trkpt lat="45.8803360" lon="9.8375780">
	<ele>1175.60</ele>
	<time>2023-11-18T12:25:28.000Z</time>
</trkpt>
<trkpt lat="45.8803310" lon="9.8375940">
	<ele>1175.40</ele>
	<time>2023-11-18T12:25:29.000Z</time>
</trkpt>
<trkpt lat="45.8803280" lon="9.8376080">
	<ele>1175.20</ele>
	<time>2023-11-18T12:25:30.000Z</time>
</trkpt>
<trkpt lat="45.8803210" lon="9.8376220">
	<ele>1175.20</ele>
	<time>2023-11-18T12:25:31.000Z</time>
</trkpt>
<trkpt lat="45.8803160" lon="9.8376380">
	<ele>1175.00</ele>
	<time>2023-11-18T12:25:32.000Z</time>
</trkpt>
<trkpt lat="45.8803110" lon="9.8376540">
	<ele>1174.60</ele>
	<time>2023-11-18T12:25:33.000Z</time>
</trkpt>
<trkpt lat="45.8803080" lon="9.8376700">
	<ele>1174.20</ele>
	<time>2023-11-18T12:25:34.000Z</time>
</trkpt>
<trkpt lat="45.8803090" lon="9.8376860">
	<ele>1173.80</ele>
	<time>2023-11-18T12:25:35.000Z</time>
</trkpt>
<trkpt lat="45.8803100" lon="9.8377010">
	<ele>1173.60</ele>
	<time>2023-11-18T12:25:36.000Z</time>
</trkpt>
<trkpt lat="45.8803070" lon="9.8377130">
	<ele>1173.40</ele>
	<time>2023-11-18T12:25:37.000Z</time>
</trkpt>
<trkpt lat="45.8803010" lon="9.8377220">
	<ele>1173.20</ele>
	<time>2023-11-18T12:25:38.000Z</time>
</trkpt>
<trkpt lat="45.8802930" lon="9.8377280">
	<ele>1173.20</ele>
	<time>2023-11-18T12:25:39.000Z</time>
</trkpt>
<trkpt lat="45.8802810" lon="9.8377300">
	<ele>1173.00</ele>
	<time>2023-11-18T12:25:40.000Z</time>
</trkpt>
<trkpt lat="45.8802690" lon="9.8377330">
	<ele>1173.00</ele>
	<time>2023-11-18T12:25:41.000Z</time>
</trkpt>
<trkpt lat="45.8802580" lon="9.8377400">
	<ele>1172.80</ele>
	<time>2023-11-18T12:25:42.000Z</time>
</trkpt>
<trkpt lat="45.8802510" lon="9.8377510">
	<ele>1172.80</ele>
	<time>2023-11-18T12:25:43.000Z</time>
</trkpt>
<trkpt lat="45.8802420" lon="9.8377630">
	<ele>1172.40</ele>
	<time>2023-11-18T12:25:44.000Z</time>
</trkpt>
<trkpt lat="45.8802380" lon="9.8377760">
	<ele>1172.00</ele>
	<time>2023-11-18T12:25:45.000Z</time>
</trkpt>
<trkpt lat="45.8802340" lon="9.8377820">
	<ele>1171.80</ele>
	<time>2023-11-18T12:25:46.000Z</time>
</trkpt>
<trkpt lat="45.8802260" lon="9.8377890">
	<ele>1171.80</ele>
	<time>2023-11-18T12:25:47.000Z</time>
</trkpt>
<trkpt lat="45.8802200" lon="9.8377930">
	<ele>1171.60</ele>
	<time>2023-11-18T12:25:48.000Z</time>
</trkpt>
<trkpt lat="45.8802160" lon="9.8377990">
	<ele>1171.40</ele>
	<time>2023-11-18T12:25:49.000Z</time>
</trkpt>
<trkpt lat="45.8802130" lon="9.8378010">
	<ele>1171.20</ele>
	<time>2023-11-18T12:25:50.000Z</time>
</trkpt>
<trkpt lat="45.8802080" lon="9.8378010">
	<ele>1171.00</ele>
	<time>2023-11-18T12:25:51.000Z</time>
</trkpt>
<trkpt lat="45.8801960" lon="9.8377990">
	<ele>1170.60</ele>
	<time>2023-11-18T12:25:52.000Z</time>
</trkpt>
<trkpt lat="45.8801820" lon="9.8378040">
	<ele>1170.40</ele>
	<time>2023-11-18T12:25:53.000Z</time>
</trkpt>
<trkpt lat="45.8801730" lon="9.8378120">
	<ele>1170.00</ele>
	<time>2023-11-18T12:25:54.000Z</time>
</trkpt>
<trkpt lat="45.8801680" lon="9.8378190">
	<ele>1169.60</ele>
	<time>2023-11-18T12:25:55.000Z</time>
</trkpt>
<trkpt lat="45.8801610" lon="9.8378270">
	<ele>1169.40</ele>
	<time>2023-11-18T12:25:56.000Z</time>
</trkpt>
<trkpt lat="45.8801510" lon="9.8378390">
	<ele>1169.20</ele>
	<time>2023-11-18T12:25:57.000Z</time>
</trkpt>
<trkpt lat="45.8801460" lon="9.8378540">
	<ele>1169.00</ele>
	<time>2023-11-18T12:25:58.000Z</time>
</trkpt>
<trkpt lat="45.8801420" lon="9.8378680">
	<ele>1168.80</ele>
	<time>2023-11-18T12:25:59.000Z</time>
</trkpt>
<trkpt lat="45.8801390" lon="9.8378790">
	<ele>1168.20</ele>
	<time>2023-11-18T12:26:00.000Z</time>
</trkpt>
<trkpt lat="45.8801380" lon="9.8378900">
	<ele>1168.00</ele>
	<time>2023-11-18T12:26:01.000Z</time>
</trkpt>
<trkpt lat="45.8801290" lon="9.8378980">
	<ele>1167.80</ele>
	<time>2023-11-18T12:26:02.000Z</time>
</trkpt>
<trkpt lat="45.8801240" lon="9.8379030">
	<ele>1167.60</ele>
	<time>2023-11-18T12:26:03.000Z</time>
</trkpt>
<trkpt lat="45.8801200" lon="9.8379070">
	<ele>1167.40</ele>
	<time>2023-11-18T12:26:04.000Z</time>
</trkpt>
<trkpt lat="45.8801150" lon="9.8379090">
	<ele>1167.20</ele>
	<time>2023-11-18T12:26:05.000Z</time>
</trkpt>
<trkpt lat="45.8801070" lon="9.8379130">
	<ele>1167.00</ele>
	<time>2023-11-18T12:26:06.000Z</time>
</trkpt>
<trkpt lat="45.8800980" lon="9.8379210">
	<ele>1167.00</ele>
	<time>2023-11-18T12:26:07.000Z</time>
</trkpt>
<trkpt lat="45.8800890" lon="9.8379260">
	<ele>1166.80</ele>
	<time>2023-11-18T12:26:08.000Z</time>
</trkpt>
<trkpt lat="45.8800810" lon="9.8379320">
	<ele>1166.60</ele>
	<time>2023-11-18T12:26:09.000Z</time>
</trkpt>
<trkpt lat="45.8800720" lon="9.8379400">
	<ele>1166.40</ele>
	<time>2023-11-18T12:26:10.000Z</time>
</trkpt>
<trkpt lat="45.8800680" lon="9.8379500">
	<ele>1166.00</ele>
	<time>2023-11-18T12:26:11.000Z</time>
</trkpt>
<trkpt lat="45.8800620" lon="9.8379590">
	<ele>1165.80</ele>
	<time>2023-11-18T12:26:12.000Z</time>
</trkpt>
<trkpt lat="45.8800540" lon="9.8379640">
	<ele>1165.40</ele>
	<time>2023-11-18T12:26:13.000Z</time>
</trkpt>
<trkpt lat="45.8800490" lon="9.8379640">
	<ele>1165.40</ele>
	<time>2023-11-18T12:26:14.000Z</time>
</trkpt>
<trkpt lat="45.8800410" lon="9.8379660">
	<ele>1165.00</ele>
	<time>2023-11-18T12:26:15.000Z</time>
</trkpt>
<trkpt lat="45.8800360" lon="9.8379660">
	<ele>1164.60</ele>
	<time>2023-11-18T12:26:16.000Z</time>
</trkpt>
<trkpt lat="45.8800280" lon="9.8379670">
	<ele>1164.40</ele>
	<time>2023-11-18T12:26:17.000Z</time>
</trkpt>
<trkpt lat="45.8800220" lon="9.8379710">
	<ele>1164.20</ele>
	<time>2023-11-18T12:26:18.000Z</time>
</trkpt>
<trkpt lat="45.8800170" lon="9.8379760">
	<ele>1164.00</ele>
	<time>2023-11-18T12:26:19.000Z</time>
</trkpt>
<trkpt lat="45.8800100" lon="9.8379840">
	<ele>1163.80</ele>
	<time>2023-11-18T12:26:20.000Z</time>
</trkpt>
<trkpt lat="45.8800050" lon="9.8379920">
	<ele>1163.60</ele>
	<time>2023-11-18T12:26:21.000Z</time>
</trkpt>
<trkpt lat="45.8800000" lon="9.8379950">
	<ele>1163.40</ele>
	<time>2023-11-18T12:26:22.000Z</time>
</trkpt>
<trkpt lat="45.8799940" lon="9.8380010">
	<ele>1163.00</ele>
	<time>2023-11-18T12:26:23.000Z</time>
</trkpt>
<trkpt lat="45.8799900" lon="9.8380100">
	<ele>1162.80</ele>
	<time>2023-11-18T12:26:24.000Z</time>
</trkpt>
<trkpt lat="45.8799850" lon="9.8380190">
	<ele>1162.60</ele>
	<time>2023-11-18T12:26:25.000Z</time>
</trkpt>
<trkpt lat="45.8799770" lon="9.8380250">
	<ele>1162.40</ele>
	<time>2023-11-18T12:26:26.000Z</time>
</trkpt>
<trkpt lat="45.8799700" lon="9.8380300">
	<ele>1162.20</ele>
	<time>2023-11-18T12:26:27.000Z</time>
</trkpt>
<trkpt lat="45.8799600" lon="9.8380340">
	<ele>1162.00</ele>
	<time>2023-11-18T12:26:28.000Z</time>
</trkpt>
<trkpt lat="45.8799510" lon="9.8380410">
	<ele>1161.80</ele>
	<time>2023-11-18T12:26:29.000Z</time>
</trkpt>
<trkpt lat="45.8799420" lon="9.8380450">
	<ele>1161.60</ele>
	<time>2023-11-18T12:26:30.000Z</time>
</trkpt>
<trkpt lat="45.8799340" lon="9.8380480">
	<ele>1161.20</ele>
	<time>2023-11-18T12:26:31.000Z</time>
</trkpt>
<trkpt lat="45.8799310" lon="9.8380560">
	<ele>1160.80</ele>
	<time>2023-11-18T12:26:32.000Z</time>
</trkpt>
<trkpt lat="45.8799260" lon="9.8380610">
	<ele>1160.60</ele>
	<time>2023-11-18T12:26:33.000Z</time>
</trkpt>
<trkpt lat="45.8799200" lon="9.8380650">
	<ele>1160.40</ele>
	<time>2023-11-18T12:26:34.000Z</time>
</trkpt>
<trkpt lat="45.8799110" lon="9.8380690">
	<ele>1160.40</ele>
	<time>2023-11-18T12:26:35.000Z</time>
</trkpt>
<trkpt lat="45.8799030" lon="9.8380690">
	<ele>1160.00</ele>
	<time>2023-11-18T12:26:36.000Z</time>
</trkpt>
<trkpt lat="45.8798930" lon="9.8380690">
	<ele>1159.80</ele>
	<time>2023-11-18T12:26:37.000Z</time>
</trkpt>
<trkpt lat="45.8798840" lon="9.8380710">
	<ele>1159.60</ele>
	<time>2023-11-18T12:26:38.000Z</time>
</trkpt>
<trkpt lat="45.8798780" lon="9.8380640">
	<ele>1159.40</ele>
	<time>2023-11-18T12:26:39.000Z</time>
</trkpt>
<trkpt lat="45.8798660" lon="9.8380610">
	<ele>1159.20</ele>
	<time>2023-11-18T12:26:40.000Z</time>
</trkpt>
<trkpt lat="45.8798550" lon="9.8380590">
	<ele>1159.00</ele>
	<time>2023-11-18T12:26:41.000Z</time>
</trkpt>
<trkpt lat="45.8798460" lon="9.8380640">
	<ele>1158.80</ele>
	<time>2023-11-18T12:26:42.000Z</time>
</trkpt>
<trkpt lat="45.8798400" lon="9.8380740">
	<ele>1158.60</ele>
	<time>2023-11-18T12:26:43.000Z</time>
</trkpt>
<trkpt lat="45.8798370" lon="9.8380830">
	<ele>1158.20</ele>
	<time>2023-11-18T12:26:44.000Z</time>
</trkpt>
<trkpt lat="45.8798330" lon="9.8380880">
	<ele>1158.00</ele>
	<time>2023-11-18T12:26:45.000Z</time>
</trkpt>
<trkpt lat="45.8798260" lon="9.8380930">
	<ele>1157.80</ele>
	<time>2023-11-18T12:26:46.000Z</time>
</trkpt>
<trkpt lat="45.8798170" lon="9.8381010">
	<ele>1157.40</ele>
	<time>2023-11-18T12:26:47.000Z</time>
</trkpt>
<trkpt lat="45.8798080" lon="9.8381070">
	<ele>1157.20</ele>
	<time>2023-11-18T12:26:48.000Z</time>
</trkpt>
<trkpt lat="45.8798020" lon="9.8381150">
	<ele>1156.80</ele>
	<time>2023-11-18T12:26:49.000Z</time>
</trkpt>
<trkpt lat="45.8797950" lon="9.8381210">
	<ele>1156.60</ele>
	<time>2023-11-18T12:26:50.000Z</time>
</trkpt>
<trkpt lat="45.8797860" lon="9.8381260">
	<ele>1156.40</ele>
	<time>2023-11-18T12:26:51.000Z</time>
</trkpt>
<trkpt lat="45.8797760" lon="9.8381300">
	<ele>1156.00</ele>
	<time>2023-11-18T12:26:52.000Z</time>
</trkpt>
<trkpt lat="45.8797640" lon="9.8381320">
	<ele>1155.80</ele>
	<time>2023-11-18T12:26:53.000Z</time>
</trkpt>
<trkpt lat="45.8797530" lon="9.8381350">
	<ele>1155.80</ele>
	<time>2023-11-18T12:26:54.000Z</time>
</trkpt>
<trkpt lat="45.8797410" lon="9.8381420">
	<ele>1155.60</ele>
	<time>2023-11-18T12:26:55.000Z</time>
</trkpt>
<trkpt lat="45.8797280" lon="9.8381530">
	<ele>1155.40</ele>
	<time>2023-11-18T12:26:56.000Z</time>
</trkpt>
<trkpt lat="45.8797180" lon="9.8381640">
	<ele>1155.40</ele>
	<time>2023-11-18T12:26:57.000Z</time>
</trkpt>
<trkpt lat="45.8797110" lon="9.8381760">
	<ele>1155.20</ele>
	<time>2023-11-18T12:26:58.000Z</time>
</trkpt>
<trkpt lat="45.8797060" lon="9.8381870">
	<ele>1154.80</ele>
	<time>2023-11-18T12:26:59.000Z</time>
</trkpt>
<trkpt lat="45.8797020" lon="9.8381960">
	<ele>1154.60</ele>
	<time>2023-11-18T12:27:00.000Z</time>
</trkpt>
<trkpt lat="45.8796940" lon="9.8382070">
	<ele>1154.60</ele>
	<time>2023-11-18T12:27:01.000Z</time>
</trkpt>
<trkpt lat="45.8796890" lon="9.8382160">
	<ele>1154.20</ele>
	<time>2023-11-18T12:27:02.000Z</time>
</trkpt>
<trkpt lat="45.8796800" lon="9.8382230">
	<ele>1154.00</ele>
	<time>2023-11-18T12:27:03.000Z</time>
</trkpt>
<trkpt lat="45.8796690" lon="9.8382320">
	<ele>1154.00</ele>
	<time>2023-11-18T12:27:04.000Z</time>
</trkpt>
<trkpt lat="45.8796560" lon="9.8382370">
	<ele>1153.80</ele>
	<time>2023-11-18T12:27:05.000Z</time>
</trkpt>
<trkpt lat="45.8796440" lon="9.8382500">
	<ele>1153.60</ele>
	<time>2023-11-18T12:27:06.000Z</time>
</trkpt>
<trkpt lat="45.8796330" lon="9.8382650">
	<ele>1153.40</ele>
	<time>2023-11-18T12:27:07.000Z</time>
</trkpt>
<trkpt lat="45.8796220" lon="9.8382810">
	<ele>1153.40</ele>
	<time>2023-11-18T12:27:08.000Z</time>
</trkpt>
<trkpt lat="45.8796170" lon="9.8383020">
	<ele>1153.20</ele>
	<time>2023-11-18T12:27:09.000Z</time>
</trkpt>
<trkpt lat="45.8796140" lon="9.8383190">
	<ele>1153.00</ele>
	<time>2023-11-18T12:27:10.000Z</time>
</trkpt>
<trkpt lat="45.8796090" lon="9.8383370">
	<ele>1152.80</ele>
	<time>2023-11-18T12:27:11.000Z</time>
</trkpt>
<trkpt lat="45.8796040" lon="9.8383520">
	<ele>1152.60</ele>
	<time>2023-11-18T12:27:12.000Z</time>
</trkpt>
<trkpt lat="45.8796000" lon="9.8383630">
	<ele>1152.40</ele>
	<time>2023-11-18T12:27:13.000Z</time>
</trkpt>
<trkpt lat="45.8795960" lon="9.8383710">
	<ele>1152.00</ele>
	<time>2023-11-18T12:27:14.000Z</time>
</trkpt>
<trkpt lat="45.8795890" lon="9.8383780">
	<ele>1151.80</ele>
	<time>2023-11-18T12:27:15.000Z</time>
</trkpt>
<trkpt lat="45.8795820" lon="9.8383870">
	<ele>1151.60</ele>
	<time>2023-11-18T12:27:16.000Z</time>
</trkpt>
<trkpt lat="45.8795740" lon="9.8383960">
	<ele>1151.40</ele>
	<time>2023-11-18T12:27:17.000Z</time>
</trkpt>
<trkpt lat="45.8795680" lon="9.8384080">
	<ele>1151.20</ele>
	<time>2023-11-18T12:27:18.000Z</time>
</trkpt>
<trkpt lat="45.8795630" lon="9.8384160">
	<ele>1151.00</ele>
	<time>2023-11-18T12:27:19.000Z</time>
</trkpt>
<trkpt lat="45.8795560" lon="9.8384250">
	<ele>1150.80</ele>
	<time>2023-11-18T12:27:20.000Z</time>
</trkpt>
<trkpt lat="45.8795470" lon="9.8384360">
	<ele>1150.80</ele>
	<time>2023-11-18T12:27:21.000Z</time>
</trkpt>
<trkpt lat="45.8795420" lon="9.8384480">
	<ele>1150.40</ele>
	<time>2023-11-18T12:27:22.000Z</time>
</trkpt>
<trkpt lat="45.8795380" lon="9.8384600">
	<ele>1150.20</ele>
	<time>2023-11-18T12:27:23.000Z</time>
</trkpt>
<trkpt lat="45.8795320" lon="9.8384700">
	<ele>1150.00</ele>
	<time>2023-11-18T12:27:24.000Z</time>
</trkpt>
<trkpt lat="45.8795260" lon="9.8384760">
	<ele>1149.80</ele>
	<time>2023-11-18T12:27:25.000Z</time>
</trkpt>
<trkpt lat="45.8795190" lon="9.8384840">
	<ele>1149.60</ele>
	<time>2023-11-18T12:27:26.000Z</time>
</trkpt>
<trkpt lat="45.8795090" lon="9.8384970">
	<ele>1149.40</ele>
	<time>2023-11-18T12:27:27.000Z</time>
</trkpt>
<trkpt lat="45.8795020" lon="9.8385100">
	<ele>1149.40</ele>
	<time>2023-11-18T12:27:28.000Z</time>
</trkpt>
<trkpt lat="45.8794940" lon="9.8385230">
	<ele>1149.20</ele>
	<time>2023-11-18T12:27:29.000Z</time>
</trkpt>
<trkpt lat="45.8794870" lon="9.8385340">
	<ele>1149.20</ele>
	<time>2023-11-18T12:27:30.000Z</time>
</trkpt>
<trkpt lat="45.8794770" lon="9.8385480">
	<ele>1149.00</ele>
	<time>2023-11-18T12:27:31.000Z</time>
</trkpt>
<trkpt lat="45.8794680" lon="9.8385590">
	<ele>1148.80</ele>
	<time>2023-11-18T12:27:32.000Z</time>
</trkpt>
<trkpt lat="45.8794610" lon="9.8385690">
	<ele>1148.80</ele>
	<time>2023-11-18T12:27:33.000Z</time>
</trkpt>
<trkpt lat="45.8794520" lon="9.8385770">
	<ele>1148.60</ele>
	<time>2023-11-18T12:27:34.000Z</time>
</trkpt>
<trkpt lat="45.8794450" lon="9.8385830">
	<ele>1148.60</ele>
	<time>2023-11-18T12:27:35.000Z</time>
</trkpt>
<trkpt lat="45.8794370" lon="9.8385890">
	<ele>1148.40</ele>
	<time>2023-11-18T12:27:36.000Z</time>
</trkpt>
<trkpt lat="45.8794290" lon="9.8385910">
	<ele>1148.40</ele>
	<time>2023-11-18T12:27:37.000Z</time>
</trkpt>
<trkpt lat="45.8794190" lon="9.8385950">
	<ele>1148.40</ele>
	<time>2023-11-18T12:27:38.000Z</time>
</trkpt>
<trkpt lat="45.8794100" lon="9.8385950">
	<ele>1148.00</ele>
	<time>2023-11-18T12:27:39.000Z</time>
</trkpt>
<trkpt lat="45.8794020" lon="9.8385910">
	<ele>1147.80</ele>
	<time>2023-11-18T12:27:40.000Z</time>
</trkpt>
<trkpt lat="45.8793930" lon="9.8385910">
	<ele>1147.40</ele>
	<time>2023-11-18T12:27:41.000Z</time>
</trkpt>
<trkpt lat="45.8793850" lon="9.8386000">
	<ele>1147.20</ele>
	<time>2023-11-18T12:27:42.000Z</time>
</trkpt>
<trkpt lat="45.8793780" lon="9.8386120">
	<ele>1147.00</ele>
	<time>2023-11-18T12:27:43.000Z</time>
</trkpt>
<trkpt lat="45.8793730" lon="9.8386190">
	<ele>1146.80</ele>
	<time>2023-11-18T12:27:44.000Z</time>
</trkpt>
<trkpt lat="45.8793680" lon="9.8386210">
	<ele>1146.60</ele>
	<time>2023-11-18T12:27:45.000Z</time>
</trkpt>
<trkpt lat="45.8793600" lon="9.8386250">
	<ele>1146.40</ele>
	<time>2023-11-18T12:27:46.000Z</time>
</trkpt>
<trkpt lat="45.8793490" lon="9.8386300">
	<ele>1146.20</ele>
	<time>2023-11-18T12:27:47.000Z</time>
</trkpt>
<trkpt lat="45.8793380" lon="9.8386350">
	<ele>1146.00</ele>
	<time>2023-11-18T12:27:48.000Z</time>
</trkpt>
<trkpt lat="45.8793320" lon="9.8386370">
	<ele>1145.80</ele>
	<time>2023-11-18T12:27:49.000Z</time>
</trkpt>
<trkpt lat="45.8793230" lon="9.8386430">
	<ele>1145.60</ele>
	<time>2023-11-18T12:27:50.000Z</time>
</trkpt>
<trkpt lat="45.8793140" lon="9.8386450">
	<ele>1145.40</ele>
	<time>2023-11-18T12:27:51.000Z</time>
</trkpt>
<trkpt lat="45.8793050" lon="9.8386480">
	<ele>1145.20</ele>
	<time>2023-11-18T12:27:52.000Z</time>
</trkpt>
<trkpt lat="45.8792930" lon="9.8386530">
	<ele>1145.00</ele>
	<time>2023-11-18T12:27:53.000Z</time>
</trkpt>
<trkpt lat="45.8792840" lon="9.8386540">
	<ele>1144.80</ele>
	<time>2023-11-18T12:27:54.000Z</time>
</trkpt>
<trkpt lat="45.8792760" lon="9.8386550">
	<ele>1144.60</ele>
	<time>2023-11-18T12:27:55.000Z</time>
</trkpt>
<trkpt lat="45.8792680" lon="9.8386500">
	<ele>1144.40</ele>
	<time>2023-11-18T12:27:56.000Z</time>
</trkpt>
<trkpt lat="45.8792570" lon="9.8386480">
	<ele>1144.20</ele>
	<time>2023-11-18T12:27:57.000Z</time>
</trkpt>
<trkpt lat="45.8792450" lon="9.8386560">
	<ele>1144.00</ele>
	<time>2023-11-18T12:27:58.000Z</time>
</trkpt>
<trkpt lat="45.8792360" lon="9.8386680">
	<ele>1143.60</ele>
	<time>2023-11-18T12:27:59.000Z</time>
</trkpt>
<trkpt lat="45.8792260" lon="9.8386810">
	<ele>1143.40</ele>
	<time>2023-11-18T12:28:00.000Z</time>
</trkpt>
<trkpt lat="45.8792170" lon="9.8386940">
	<ele>1143.00</ele>
	<time>2023-11-18T12:28:01.000Z</time>
</trkpt>
<trkpt lat="45.8792120" lon="9.8387020">
	<ele>1143.00</ele>
	<time>2023-11-18T12:28:02.000Z</time>
</trkpt>
<trkpt lat="45.8792050" lon="9.8387090">
	<ele>1142.60</ele>
	<time>2023-11-18T12:28:03.000Z</time>
</trkpt>
<trkpt lat="45.8791970" lon="9.8387170">
	<ele>1142.40</ele>
	<time>2023-11-18T12:28:04.000Z</time>
</trkpt>
<trkpt lat="45.8791890" lon="9.8387270">
	<ele>1142.20</ele>
	<time>2023-11-18T12:28:05.000Z</time>
</trkpt>
<trkpt lat="45.8791820" lon="9.8387350">
	<ele>1142.00</ele>
	<time>2023-11-18T12:28:06.000Z</time>
</trkpt>
<trkpt lat="45.8791760" lon="9.8387410">
	<ele>1141.80</ele>
	<time>2023-11-18T12:28:07.000Z</time>
</trkpt>
<trkpt lat="45.8791690" lon="9.8387490">
	<ele>1141.60</ele>
	<time>2023-11-18T12:28:08.000Z</time>
</trkpt>
<trkpt lat="45.8791630" lon="9.8387600">
	<ele>1141.20</ele>
	<time>2023-11-18T12:28:09.000Z</time>
</trkpt>
<trkpt lat="45.8791580" lon="9.8387700">
	<ele>1141.20</ele>
	<time>2023-11-18T12:28:10.000Z</time>
</trkpt>
<trkpt lat="45.8791520" lon="9.8387780">
	<ele>1141.00</ele>
	<time>2023-11-18T12:28:11.000Z</time>
</trkpt>
<trkpt lat="45.8791480" lon="9.8387890">
	<ele>1140.60</ele>
	<time>2023-11-18T12:28:12.000Z</time>
</trkpt>
<trkpt lat="45.8791430" lon="9.8387960">
	<ele>1140.40</ele>
	<time>2023-11-18T12:28:13.000Z</time>
</trkpt>
<trkpt lat="45.8791370" lon="9.8388020">
	<ele>1140.20</ele>
	<time>2023-11-18T12:28:14.000Z</time>
</trkpt>
<trkpt lat="45.8791330" lon="9.8388080">
	<ele>1140.20</ele>
	<time>2023-11-18T12:28:15.000Z</time>
</trkpt>
<trkpt lat="45.8791260" lon="9.8388160">
	<ele>1140.00</ele>
	<time>2023-11-18T12:28:16.000Z</time>
</trkpt>
<trkpt lat="45.8791200" lon="9.8388230">
	<ele>1140.00</ele>
	<time>2023-11-18T12:28:17.000Z</time>
</trkpt>
<trkpt lat="45.8791130" lon="9.8388280">
	<ele>1139.60</ele>
	<time>2023-11-18T12:28:18.000Z</time>
</trkpt>
<trkpt lat="45.8791070" lon="9.8388330">
	<ele>1139.40</ele>
	<time>2023-11-18T12:28:19.000Z</time>
</trkpt>
<trkpt lat="45.8791020" lon="9.8388400">
	<ele>1139.20</ele>
	<time>2023-11-18T12:28:20.000Z</time>
</trkpt>
<trkpt lat="45.8790970" lon="9.8388470">
	<ele>1139.00</ele>
	<time>2023-11-18T12:28:21.000Z</time>
</trkpt>
<trkpt lat="45.8790890" lon="9.8388550">
	<ele>1139.00</ele>
	<time>2023-11-18T12:28:22.000Z</time>
</trkpt>
<trkpt lat="45.8790780" lon="9.8388610">
	<ele>1138.80</ele>
	<time>2023-11-18T12:28:23.000Z</time>
</trkpt>
<trkpt lat="45.8790690" lon="9.8388670">
	<ele>1138.60</ele>
	<time>2023-11-18T12:28:24.000Z</time>
</trkpt>
<trkpt lat="45.8790610" lon="9.8388730">
	<ele>1138.40</ele>
	<time>2023-11-18T12:28:25.000Z</time>
</trkpt>
<trkpt lat="45.8790550" lon="9.8388780">
	<ele>1138.20</ele>
	<time>2023-11-18T12:28:26.000Z</time>
</trkpt>
<trkpt lat="45.8790500" lon="9.8388790">
	<ele>1138.00</ele>
	<time>2023-11-18T12:28:27.000Z</time>
</trkpt>
<trkpt lat="45.8790410" lon="9.8388780">
	<ele>1137.80</ele>
	<time>2023-11-18T12:28:28.000Z</time>
</trkpt>
<trkpt lat="45.8790350" lon="9.8388760">
	<ele>1137.60</ele>
	<time>2023-11-18T12:28:29.000Z</time>
</trkpt>
<trkpt lat="45.8790320" lon="9.8388780">
	<ele>1137.40</ele>
	<time>2023-11-18T12:28:30.000Z</time>
</trkpt>
<trkpt lat="45.8790310" lon="9.8388790">
	<ele>1137.20</ele>
	<time>2023-11-18T12:28:31.000Z</time>
</trkpt>
<trkpt lat="45.8790290" lon="9.8388800">
	<ele>1137.00</ele>
	<time>2023-11-18T12:28:32.000Z</time>
</trkpt>
<trkpt lat="45.8790280" lon="9.8388810">
	<ele>1137.00</ele>
	<time>2023-11-18T12:28:33.000Z</time>
</trkpt>
<trkpt lat="45.8790270" lon="9.8388810">
	<ele>1136.80</ele>
	<time>2023-11-18T12:28:34.000Z</time>
</trkpt>
<trkpt lat="45.8790260" lon="9.8388790">
	<ele>1136.80</ele>
	<time>2023-11-18T12:28:35.000Z</time>
</trkpt>
<trkpt lat="45.8790250" lon="9.8388770">
	<ele>1136.80</ele>
	<time>2023-11-18T12:28:36.000Z</time>
</trkpt>
<trkpt lat="45.8790240" lon="9.8388750">
	<ele>1136.80</ele>
	<time>2023-11-18T12:28:37.000Z</time>
</trkpt>
<trkpt lat="45.8790230" lon="9.8388760">
	<ele>1136.80</ele>
	<time>2023-11-18T12:28:38.000Z</time>
</trkpt>
<trkpt lat="45.8790160" lon="9.8388800">
	<ele>1136.80</ele>
	<time>2023-11-18T12:28:39.000Z</time>
</trkpt>
<trkpt lat="45.8790090" lon="9.8388880">
	<ele>1136.80</ele>
	<time>2023-11-18T12:28:40.000Z</time>
</trkpt>
<trkpt lat="45.8790010" lon="9.8388950">
	<ele>1136.80</ele>
	<time>2023-11-18T12:28:41.000Z</time>
</trkpt>
<trkpt lat="45.8789920" lon="9.8389020">
	<ele>1136.60</ele>
	<time>2023-11-18T12:28:42.000Z</time>
</trkpt>
<trkpt lat="45.8789850" lon="9.8389100">
	<ele>1136.40</ele>
	<time>2023-11-18T12:28:43.000Z</time>
</trkpt>
<trkpt lat="45.8789750" lon="9.8389170">
	<ele>1136.40</ele>
	<time>2023-11-18T12:28:44.000Z</time>
</trkpt>
<trkpt lat="45.8789650" lon="9.8389280">
	<ele>1136.20</ele>
	<time>2023-11-18T12:28:45.000Z</time>
</trkpt>
<trkpt lat="45.8789550" lon="9.8389430">
	<ele>1136.00</ele>
	<time>2023-11-18T12:28:46.000Z</time>
</trkpt>
<trkpt lat="45.8789460" lon="9.8389580">
	<ele>1135.60</ele>
	<time>2023-11-18T12:28:47.000Z</time>
</trkpt>
<trkpt lat="45.8789430" lon="9.8389740">
	<ele>1135.40</ele>
	<time>2023-11-18T12:28:48.000Z</time>
</trkpt>
<trkpt lat="45.8789420" lon="9.8389870">
	<ele>1135.40</ele>
	<time>2023-11-18T12:28:49.000Z</time>
</trkpt>
<trkpt lat="45.8789370" lon="9.8389990">
	<ele>1135.20</ele>
	<time>2023-11-18T12:28:50.000Z</time>
</trkpt>
<trkpt lat="45.8789310" lon="9.8390100">
	<ele>1135.20</ele>
	<time>2023-11-18T12:28:51.000Z</time>
</trkpt>
<trkpt lat="45.8789230" lon="9.8390180">
	<ele>1135.20</ele>
	<time>2023-11-18T12:28:52.000Z</time>
</trkpt>
<trkpt lat="45.8789130" lon="9.8390250">
	<ele>1135.20</ele>
	<time>2023-11-18T12:28:53.000Z</time>
</trkpt>
<trkpt lat="45.8789040" lon="9.8390360">
	<ele>1135.00</ele>
	<time>2023-11-18T12:28:54.000Z</time>
</trkpt>
<trkpt lat="45.8788990" lon="9.8390430">
	<ele>1134.80</ele>
	<time>2023-11-18T12:28:55.000Z</time>
</trkpt>
<trkpt lat="45.8788910" lon="9.8390510">
	<ele>1134.80</ele>
	<time>2023-11-18T12:28:56.000Z</time>
</trkpt>
<trkpt lat="45.8788760" lon="9.8390590">
	<ele>1134.60</ele>
	<time>2023-11-18T12:28:57.000Z</time>
</trkpt>
<trkpt lat="45.8788630" lon="9.8390640">
	<ele>1134.40</ele>
	<time>2023-11-18T12:28:58.000Z</time>
</trkpt>
<trkpt lat="45.8788520" lon="9.8390730">
	<ele>1134.20</ele>
	<time>2023-11-18T12:28:59.000Z</time>
</trkpt>
<trkpt lat="45.8788440" lon="9.8390850">
	<ele>1134.00</ele>
	<time>2023-11-18T12:29:00.000Z</time>
</trkpt>
<trkpt lat="45.8788340" lon="9.8390980">
	<ele>1133.60</ele>
	<time>2023-11-18T12:29:01.000Z</time>
</trkpt>
<trkpt lat="45.8788250" lon="9.8391090">
	<ele>1133.40</ele>
	<time>2023-11-18T12:29:02.000Z</time>
</trkpt>
<trkpt lat="45.8788140" lon="9.8391200">
	<ele>1133.20</ele>
	<time>2023-11-18T12:29:03.000Z</time>
</trkpt>
<trkpt lat="45.8788030" lon="9.8391310">
	<ele>1133.00</ele>
	<time>2023-11-18T12:29:04.000Z</time>
</trkpt>
<trkpt lat="45.8787930" lon="9.8391390">
	<ele>1132.60</ele>
	<time>2023-11-18T12:29:05.000Z</time>
</trkpt>
<trkpt lat="45.8787840" lon="9.8391480">
	<ele>1132.40</ele>
	<time>2023-11-18T12:29:06.000Z</time>
</trkpt>
<trkpt lat="45.8787760" lon="9.8391590">
	<ele>1132.20</ele>
	<time>2023-11-18T12:29:07.000Z</time>
</trkpt>
<trkpt lat="45.8787690" lon="9.8391710">
	<ele>1132.00</ele>
	<time>2023-11-18T12:29:08.000Z</time>
</trkpt>
<trkpt lat="45.8787620" lon="9.8391810">
	<ele>1131.80</ele>
	<time>2023-11-18T12:29:09.000Z</time>
</trkpt>
<trkpt lat="45.8787540" lon="9.8391940">
	<ele>1131.80</ele>
	<time>2023-11-18T12:29:10.000Z</time>
</trkpt>
<trkpt lat="45.8787480" lon="9.8392020">
	<ele>1131.60</ele>
	<time>2023-11-18T12:29:11.000Z</time>
</trkpt>
<trkpt lat="45.8787390" lon="9.8392090">
	<ele>1131.40</ele>
	<time>2023-11-18T12:29:12.000Z</time>
</trkpt>
<trkpt lat="45.8787300" lon="9.8392190">
	<ele>1131.20</ele>
	<time>2023-11-18T12:29:13.000Z</time>
</trkpt>
<trkpt lat="45.8787210" lon="9.8392280">
	<ele>1131.00</ele>
	<time>2023-11-18T12:29:14.000Z</time>
</trkpt>
<trkpt lat="45.8787140" lon="9.8392360">
	<ele>1131.00</ele>
	<time>2023-11-18T12:29:15.000Z</time>
</trkpt>
<trkpt lat="45.8787080" lon="9.8392470">
	<ele>1130.80</ele>
	<time>2023-11-18T12:29:16.000Z</time>
</trkpt>
<trkpt lat="45.8787030" lon="9.8392570">
	<ele>1130.40</ele>
	<time>2023-11-18T12:29:17.000Z</time>
</trkpt>
<trkpt lat="45.8786960" lon="9.8392660">
	<ele>1130.00</ele>
	<time>2023-11-18T12:29:18.000Z</time>
</trkpt>
<trkpt lat="45.8786910" lon="9.8392730">
	<ele>1129.80</ele>
	<time>2023-11-18T12:29:19.000Z</time>
</trkpt>
<trkpt lat="45.8786840" lon="9.8392810">
	<ele>1129.80</ele>
	<time>2023-11-18T12:29:20.000Z</time>
</trkpt>
<trkpt lat="45.8786770" lon="9.8392890">
	<ele>1129.60</ele>
	<time>2023-11-18T12:29:21.000Z</time>
</trkpt>
<trkpt lat="45.8786690" lon="9.8393000">
	<ele>1129.40</ele>
	<time>2023-11-18T12:29:22.000Z</time>
</trkpt>
<trkpt lat="45.8786620" lon="9.8393110">
	<ele>1129.20</ele>
	<time>2023-11-18T12:29:23.000Z</time>
</trkpt>
<trkpt lat="45.8786550" lon="9.8393240">
	<ele>1129.00</ele>
	<time>2023-11-18T12:29:24.000Z</time>
</trkpt>
<trkpt lat="45.8786470" lon="9.8393330">
	<ele>1128.80</ele>
	<time>2023-11-18T12:29:25.000Z</time>
</trkpt>
<trkpt lat="45.8786380" lon="9.8393460">
	<ele>1128.60</ele>
	<time>2023-11-18T12:29:26.000Z</time>
</trkpt>
<trkpt lat="45.8786340" lon="9.8393590">
	<ele>1128.20</ele>
	<time>2023-11-18T12:29:27.000Z</time>
</trkpt>
<trkpt lat="45.8786300" lon="9.8393670">
	<ele>1128.00</ele>
	<time>2023-11-18T12:29:28.000Z</time>
</trkpt>
<trkpt lat="45.8786200" lon="9.8393710">
	<ele>1128.00</ele>
	<time>2023-11-18T12:29:29.000Z</time>
</trkpt>
<trkpt lat="45.8786080" lon="9.8393730">
	<ele>1127.80</ele>
	<time>2023-11-18T12:29:30.000Z</time>
</trkpt>
<trkpt lat="45.8785940" lon="9.8393760">
	<ele>1127.60</ele>
	<time>2023-11-18T12:29:31.000Z</time>
</trkpt>
<trkpt lat="45.8785860" lon="9.8393840">
	<ele>1127.40</ele>
	<time>2023-11-18T12:29:32.000Z</time>
</trkpt>
<trkpt lat="45.8785780" lon="9.8393960">
	<ele>1127.20</ele>
	<time>2023-11-18T12:29:33.000Z</time>
</trkpt>
<trkpt lat="45.8785720" lon="9.8394090">
	<ele>1127.20</ele>
	<time>2023-11-18T12:29:34.000Z</time>
</trkpt>
<trkpt lat="45.8785690" lon="9.8394190">
	<ele>1127.00</ele>
	<time>2023-11-18T12:29:35.000Z</time>
</trkpt>
<trkpt lat="45.8785660" lon="9.8394290">
	<ele>1127.00</ele>
	<time>2023-11-18T12:29:36.000Z</time>
</trkpt>
<trkpt lat="45.8785560" lon="9.8394370">
	<ele>1126.60</ele>
	<time>2023-11-18T12:29:37.000Z</time>
</trkpt>
<trkpt lat="45.8785460" lon="9.8394410">
	<ele>1126.40</ele>
	<time>2023-11-18T12:29:38.000Z</time>
</trkpt>
<trkpt lat="45.8785370" lon="9.8394490">
	<ele>1126.40</ele>
	<time>2023-11-18T12:29:39.000Z</time>
</trkpt>
<trkpt lat="45.8785330" lon="9.8394580">
	<ele>1126.20</ele>
	<time>2023-11-18T12:29:40.000Z</time>
</trkpt>
<trkpt lat="45.8785280" lon="9.8394680">
	<ele>1126.00</ele>
	<time>2023-11-18T12:29:41.000Z</time>
</trkpt>
<trkpt lat="45.8785240" lon="9.8394840">
	<ele>1125.80</ele>
	<time>2023-11-18T12:29:42.000Z</time>
</trkpt>
<trkpt lat="45.8785240" lon="9.8394980">
	<ele>1125.60</ele>
	<time>2023-11-18T12:29:43.000Z</time>
</trkpt>
<trkpt lat="45.8785220" lon="9.8395110">
	<ele>1125.40</ele>
	<time>2023-11-18T12:29:44.000Z</time>
</trkpt>
<trkpt lat="45.8785160" lon="9.8395220">
	<ele>1125.40</ele>
	<time>2023-11-18T12:29:45.000Z</time>
</trkpt>
<trkpt lat="45.8785080" lon="9.8395260">
	<ele>1125.20</ele>
	<time>2023-11-18T12:29:46.000Z</time>
</trkpt>
<trkpt lat="45.8784970" lon="9.8395320">
	<ele>1125.00</ele>
	<time>2023-11-18T12:29:47.000Z</time>
</trkpt>
<trkpt lat="45.8784860" lon="9.8395400">
	<ele>1125.00</ele>
	<time>2023-11-18T12:29:48.000Z</time>
</trkpt>
<trkpt lat="45.8784750" lon="9.8395470">
	<ele>1124.80</ele>
	<time>2023-11-18T12:29:49.000Z</time>
</trkpt>
<trkpt lat="45.8784660" lon="9.8395530">
	<ele>1124.60</ele>
	<time>2023-11-18T12:29:50.000Z</time>
</trkpt>
<trkpt lat="45.8784590" lon="9.8395610">
	<ele>1124.40</ele>
	<time>2023-11-18T12:29:51.000Z</time>
</trkpt>
<trkpt lat="45.8784500" lon="9.8395710">
	<ele>1124.20</ele>
	<time>2023-11-18T12:29:52.000Z</time>
</trkpt>
<trkpt lat="45.8784430" lon="9.8395800">
	<ele>1124.00</ele>
	<time>2023-11-18T12:29:53.000Z</time>
</trkpt>
<trkpt lat="45.8784370" lon="9.8395900">
	<ele>1124.00</ele>
	<time>2023-11-18T12:29:54.000Z</time>
</trkpt>
<trkpt lat="45.8784280" lon="9.8395980">
	<ele>1123.80</ele>
	<time>2023-11-18T12:29:55.000Z</time>
</trkpt>
<trkpt lat="45.8784190" lon="9.8396060">
	<ele>1123.60</ele>
	<time>2023-11-18T12:29:56.000Z</time>
</trkpt>
<trkpt lat="45.8784100" lon="9.8396120">
	<ele>1123.40</ele>
	<time>2023-11-18T12:29:57.000Z</time>
</trkpt>
<trkpt lat="45.8783990" lon="9.8396190">
	<ele>1123.40</ele>
	<time>2023-11-18T12:29:58.000Z</time>
</trkpt>
<trkpt lat="45.8783890" lon="9.8396290">
	<ele>1123.20</ele>
	<time>2023-11-18T12:29:59.000Z</time>
</trkpt>
<trkpt lat="45.8783790" lon="9.8396400">
	<ele>1122.80</ele>
	<time>2023-11-18T12:30:00.000Z</time>
</trkpt>
<trkpt lat="45.8783700" lon="9.8396530">
	<ele>1122.60</ele>
	<time>2023-11-18T12:30:01.000Z</time>
</trkpt>
<trkpt lat="45.8783630" lon="9.8396620">
	<ele>1122.60</ele>
	<time>2023-11-18T12:30:02.000Z</time>
</trkpt>
<trkpt lat="45.8783560" lon="9.8396700">
	<ele>1122.20</ele>
	<time>2023-11-18T12:30:03.000Z</time>
</trkpt>
<trkpt lat="45.8783490" lon="9.8396830">
	<ele>1122.00</ele>
	<time>2023-11-18T12:30:04.000Z</time>
</trkpt>
<trkpt lat="45.8783440" lon="9.8396940">
	<ele>1122.00</ele>
	<time>2023-11-18T12:30:05.000Z</time>
</trkpt>
<trkpt lat="45.8783410" lon="9.8397060">
	<ele>1121.80</ele>
	<time>2023-11-18T12:30:06.000Z</time>
</trkpt>
<trkpt lat="45.8783380" lon="9.8397200">
	<ele>1121.60</ele>
	<time>2023-11-18T12:30:07.000Z</time>
</trkpt>
<trkpt lat="45.8783360" lon="9.8397350">
	<ele>1121.60</ele>
	<time>2023-11-18T12:30:08.000Z</time>
</trkpt>
<trkpt lat="45.8783360" lon="9.8397460">
	<ele>1121.40</ele>
	<time>2023-11-18T12:30:09.000Z</time>
</trkpt>
<trkpt lat="45.8783320" lon="9.8397600">
	<ele>1121.40</ele>
	<time>2023-11-18T12:30:10.000Z</time>
</trkpt>
<trkpt lat="45.8783250" lon="9.8397730">
	<ele>1121.40</ele>
	<time>2023-11-18T12:30:11.000Z</time>
</trkpt>
<trkpt lat="45.8783210" lon="9.8397850">
	<ele>1121.20</ele>
	<time>2023-11-18T12:30:12.000Z</time>
</trkpt>
<trkpt lat="45.8783140" lon="9.8397940">
	<ele>1121.00</ele>
	<time>2023-11-18T12:30:13.000Z</time>
</trkpt>
<trkpt lat="45.8783070" lon="9.8398040">
	<ele>1120.80</ele>
	<time>2023-11-18T12:30:14.000Z</time>
</trkpt>
<trkpt lat="45.8783000" lon="9.8398190">
	<ele>1120.80</ele>
	<time>2023-11-18T12:30:15.000Z</time>
</trkpt>
<trkpt lat="45.8782960" lon="9.8398290">
	<ele>1120.80</ele>
	<time>2023-11-18T12:30:16.000Z</time>
</trkpt>
<trkpt lat="45.8782910" lon="9.8398370">
	<ele>1120.80</ele>
	<time>2023-11-18T12:30:17.000Z</time>
</trkpt>
<trkpt lat="45.8782840" lon="9.8398450">
	<ele>1120.80</ele>
	<time>2023-11-18T12:30:18.000Z</time>
</trkpt>
<trkpt lat="45.8782770" lon="9.8398530">
	<ele>1120.60</ele>
	<time>2023-11-18T12:30:19.000Z</time>
</trkpt>
<trkpt lat="45.8782710" lon="9.8398600">
	<ele>1120.60</ele>
	<time>2023-11-18T12:30:20.000Z</time>
</trkpt>
<trkpt lat="45.8782620" lon="9.8398690">
	<ele>1120.60</ele>
	<time>2023-11-18T12:30:21.000Z</time>
</trkpt>
<trkpt lat="45.8782520" lon="9.8398830">
	<ele>1120.20</ele>
	<time>2023-11-18T12:30:22.000Z</time>
</trkpt>
<trkpt lat="45.8782430" lon="9.8398960">
	<ele>1119.80</ele>
	<time>2023-11-18T12:30:23.000Z</time>
</trkpt>
<trkpt lat="45.8782330" lon="9.8399060">
	<ele>1119.60</ele>
	<time>2023-11-18T12:30:24.000Z</time>
</trkpt>
<trkpt lat="45.8782200" lon="9.8399190">
	<ele>1119.40</ele>
	<time>2023-11-18T12:30:25.000Z</time>
</trkpt>
<trkpt lat="45.8782070" lon="9.8399310">
	<ele>1119.20</ele>
	<time>2023-11-18T12:30:26.000Z</time>
</trkpt>
<trkpt lat="45.8781930" lon="9.8399460">
	<ele>1119.00</ele>
	<time>2023-11-18T12:30:27.000Z</time>
</trkpt>
<trkpt lat="45.8781840" lon="9.8399610">
	<ele>1118.80</ele>
	<time>2023-11-18T12:30:28.000Z</time>
</trkpt>
<trkpt lat="45.8781810" lon="9.8399750">
	<ele>1118.60</ele>
	<time>2023-11-18T12:30:29.000Z</time>
</trkpt>
<trkpt lat="45.8781770" lon="9.8399910">
	<ele>1118.40</ele>
	<time>2023-11-18T12:30:30.000Z</time>
</trkpt>
<trkpt lat="45.8781750" lon="9.8399990">
	<ele>1118.20</ele>
	<time>2023-11-18T12:30:31.000Z</time>
</trkpt>
<trkpt lat="45.8781710" lon="9.8400050">
	<ele>1118.00</ele>
	<time>2023-11-18T12:30:32.000Z</time>
</trkpt>
<trkpt lat="45.8781620" lon="9.8400140">
	<ele>1118.00</ele>
	<time>2023-11-18T12:30:33.000Z</time>
</trkpt>
<trkpt lat="45.8781500" lon="9.8400270">
	<ele>1117.80</ele>
	<time>2023-11-18T12:30:34.000Z</time>
</trkpt>
<trkpt lat="45.8781400" lon="9.8400430">
	<ele>1117.80</ele>
	<time>2023-11-18T12:30:35.000Z</time>
</trkpt>
<trkpt lat="45.8781280" lon="9.8400580">
	<ele>1117.60</ele>
	<time>2023-11-18T12:30:36.000Z</time>
</trkpt>
<trkpt lat="45.8781180" lon="9.8400700">
	<ele>1117.40</ele>
	<time>2023-11-18T12:30:37.000Z</time>
</trkpt>
<trkpt lat="45.8781090" lon="9.8400830">
	<ele>1117.00</ele>
	<time>2023-11-18T12:30:38.000Z</time>
</trkpt>
<trkpt lat="45.8781000" lon="9.8400980">
	<ele>1117.00</ele>
	<time>2023-11-18T12:30:39.000Z</time>
</trkpt>
<trkpt lat="45.8780940" lon="9.8401130">
	<ele>1116.80</ele>
	<time>2023-11-18T12:30:40.000Z</time>
</trkpt>
<trkpt lat="45.8780900" lon="9.8401250">
	<ele>1116.80</ele>
	<time>2023-11-18T12:30:41.000Z</time>
</trkpt>
<trkpt lat="45.8780840" lon="9.8401380">
	<ele>1116.60</ele>
	<time>2023-11-18T12:30:42.000Z</time>
</trkpt>
<trkpt lat="45.8780770" lon="9.8401510">
	<ele>1116.60</ele>
	<time>2023-11-18T12:30:43.000Z</time>
</trkpt>
<trkpt lat="45.8780720" lon="9.8401660">
	<ele>1116.60</ele>
	<time>2023-11-18T12:30:44.000Z</time>
</trkpt>
<trkpt lat="45.8780670" lon="9.8401820">
	<ele>1116.40</ele>
	<time>2023-11-18T12:30:45.000Z</time>
</trkpt>
<trkpt lat="45.8780610" lon="9.8401960">
	<ele>1116.40</ele>
	<time>2023-11-18T12:30:46.000Z</time>
</trkpt>
<trkpt lat="45.8780560" lon="9.8402070">
	<ele>1116.20</ele>
	<time>2023-11-18T12:30:47.000Z</time>
</trkpt>
<trkpt lat="45.8780500" lon="9.8402150">
	<ele>1115.80</ele>
	<time>2023-11-18T12:30:48.000Z</time>
</trkpt>
<trkpt lat="45.8780440" lon="9.8402240">
	<ele>1115.60</ele>
	<time>2023-11-18T12:30:49.000Z</time>
</trkpt>
<trkpt lat="45.8780420" lon="9.8402330">
	<ele>1115.60</ele>
	<time>2023-11-18T12:30:50.000Z</time>
</trkpt>
<trkpt lat="45.8780390" lon="9.8402430">
	<ele>1115.40</ele>
	<time>2023-11-18T12:30:51.000Z</time>
</trkpt>
<trkpt lat="45.8780320" lon="9.8402510">
	<ele>1115.40</ele>
	<time>2023-11-18T12:30:52.000Z</time>
</trkpt>
<trkpt lat="45.8780240" lon="9.8402580">
	<ele>1115.40</ele>
	<time>2023-11-18T12:30:53.000Z</time>
</trkpt>
<trkpt lat="45.8780140" lon="9.8402650">
	<ele>1115.40</ele>
	<time>2023-11-18T12:30:54.000Z</time>
</trkpt>
<trkpt lat="45.8780050" lon="9.8402790">
	<ele>1115.20</ele>
	<time>2023-11-18T12:30:55.000Z</time>
</trkpt>
<trkpt lat="45.8779970" lon="9.8402910">
	<ele>1115.00</ele>
	<time>2023-11-18T12:30:56.000Z</time>
</trkpt>
<trkpt lat="45.8779950" lon="9.8403030">
	<ele>1114.80</ele>
	<time>2023-11-18T12:30:57.000Z</time>
</trkpt>
<trkpt lat="45.8779910" lon="9.8403200">
	<ele>1114.60</ele>
	<time>2023-11-18T12:30:58.000Z</time>
</trkpt>
<trkpt lat="45.8779860" lon="9.8403340">
	<ele>1114.40</ele>
	<time>2023-11-18T12:30:59.000Z</time>
</trkpt>
<trkpt lat="45.8779790" lon="9.8403430">
	<ele>1114.20</ele>
	<time>2023-11-18T12:31:00.000Z</time>
</trkpt>
<trkpt lat="45.8779670" lon="9.8403520">
	<ele>1114.00</ele>
	<time>2023-11-18T12:31:01.000Z</time>
</trkpt>
<trkpt lat="45.8779560" lon="9.8403620">
	<ele>1114.00</ele>
	<time>2023-11-18T12:31:02.000Z</time>
</trkpt>
<trkpt lat="45.8779450" lon="9.8403710">
	<ele>1113.80</ele>
	<time>2023-11-18T12:31:03.000Z</time>
</trkpt>
<trkpt lat="45.8779360" lon="9.8403820">
	<ele>1113.80</ele>
	<time>2023-11-18T12:31:04.000Z</time>
</trkpt>
<trkpt lat="45.8779280" lon="9.8403910">
	<ele>1113.80</ele>
	<time>2023-11-18T12:31:05.000Z</time>
</trkpt>
<trkpt lat="45.8779220" lon="9.8403990">
	<ele>1113.60</ele>
	<time>2023-11-18T12:31:06.000Z</time>
</trkpt>
<trkpt lat="45.8779170" lon="9.8404100">
	<ele>1113.20</ele>
	<time>2023-11-18T12:31:07.000Z</time>
</trkpt>
<trkpt lat="45.8779110" lon="9.8404210">
	<ele>1113.00</ele>
	<time>2023-11-18T12:31:08.000Z</time>
</trkpt>
<trkpt lat="45.8779030" lon="9.8404340">
	<ele>1112.80</ele>
	<time>2023-11-18T12:31:09.000Z</time>
</trkpt>
<trkpt lat="45.8778980" lon="9.8404500">
	<ele>1112.60</ele>
	<time>2023-11-18T12:31:10.000Z</time>
</trkpt>
<trkpt lat="45.8778930" lon="9.8404620">
	<ele>1112.40</ele>
	<time>2023-11-18T12:31:11.000Z</time>
</trkpt>
<trkpt lat="45.8778860" lon="9.8404730">
	<ele>1112.20</ele>
	<time>2023-11-18T12:31:12.000Z</time>
</trkpt>
<trkpt lat="45.8778800" lon="9.8404870">
	<ele>1111.80</ele>
	<time>2023-11-18T12:31:13.000Z</time>
</trkpt>
<trkpt lat="45.8778720" lon="9.8405000">
	<ele>1111.60</ele>
	<time>2023-11-18T12:31:14.000Z</time>
</trkpt>
<trkpt lat="45.8778650" lon="9.8405110">
	<ele>1111.60</ele>
	<time>2023-11-18T12:31:15.000Z</time>
</trkpt>
<trkpt lat="45.8778610" lon="9.8405170">
	<ele>1111.20</ele>
	<time>2023-11-18T12:31:16.000Z</time>
</trkpt>
<trkpt lat="45.8778550" lon="9.8405200">
	<ele>1111.20</ele>
	<time>2023-11-18T12:31:17.000Z</time>
</trkpt>
<trkpt lat="45.8778470" lon="9.8405250">
	<ele>1111.00</ele>
	<time>2023-11-18T12:31:18.000Z</time>
</trkpt>
<trkpt lat="45.8778360" lon="9.8405360">
	<ele>1110.80</ele>
	<time>2023-11-18T12:31:19.000Z</time>
</trkpt>
<trkpt lat="45.8778250" lon="9.8405450">
	<ele>1110.60</ele>
	<time>2023-11-18T12:31:20.000Z</time>
</trkpt>
<trkpt lat="45.8778160" lon="9.8405560">
	<ele>1110.40</ele>
	<time>2023-11-18T12:31:21.000Z</time>
</trkpt>
<trkpt lat="45.8778080" lon="9.8405670">
	<ele>1110.20</ele>
	<time>2023-11-18T12:31:22.000Z</time>
</trkpt>
<trkpt lat="45.8778010" lon="9.8405770">
	<ele>1110.00</ele>
	<time>2023-11-18T12:31:23.000Z</time>
</trkpt>
<trkpt lat="45.8777930" lon="9.8405870">
	<ele>1110.00</ele>
	<time>2023-11-18T12:31:24.000Z</time>
</trkpt>
<trkpt lat="45.8777830" lon="9.8406000">
	<ele>1109.80</ele>
	<time>2023-11-18T12:31:25.000Z</time>
</trkpt>
<trkpt lat="45.8777740" lon="9.8406120">
	<ele>1109.80</ele>
	<time>2023-11-18T12:31:26.000Z</time>
</trkpt>
<trkpt lat="45.8777690" lon="9.8406230">
	<ele>1109.60</ele>
	<time>2023-11-18T12:31:27.000Z</time>
</trkpt>
<trkpt lat="45.8777600" lon="9.8406380">
	<ele>1109.40</ele>
	<time>2023-11-18T12:31:28.000Z</time>
</trkpt>
<trkpt lat="45.8777530" lon="9.8406470">
	<ele>1109.20</ele>
	<time>2023-11-18T12:31:29.000Z</time>
</trkpt>
<trkpt lat="45.8777460" lon="9.8406520">
	<ele>1109.20</ele>
	<time>2023-11-18T12:31:30.000Z</time>
</trkpt>
<trkpt lat="45.8777370" lon="9.8406560">
	<ele>1109.00</ele>
	<time>2023-11-18T12:31:31.000Z</time>
</trkpt>
<trkpt lat="45.8777280" lon="9.8406610">
	<ele>1109.00</ele>
	<time>2023-11-18T12:31:32.000Z</time>
</trkpt>
<trkpt lat="45.8777200" lon="9.8406660">
	<ele>1108.80</ele>
	<time>2023-11-18T12:31:33.000Z</time>
</trkpt>
<trkpt lat="45.8777130" lon="9.8406750">
	<ele>1108.60</ele>
	<time>2023-11-18T12:31:34.000Z</time>
</trkpt>
<trkpt lat="45.8777070" lon="9.8406840">
	<ele>1108.40</ele>
	<time>2023-11-18T12:31:35.000Z</time>
</trkpt>
<trkpt lat="45.8776980" lon="9.8406930">
	<ele>1108.40</ele>
	<time>2023-11-18T12:31:36.000Z</time>
</trkpt>
<trkpt lat="45.8776890" lon="9.8407040">
	<ele>1108.20</ele>
	<time>2023-11-18T12:31:37.000Z</time>
</trkpt>
<trkpt lat="45.8776820" lon="9.8407180">
	<ele>1108.00</ele>
	<time>2023-11-18T12:31:38.000Z</time>
</trkpt>
<trkpt lat="45.8776770" lon="9.8407270">
	<ele>1107.80</ele>
	<time>2023-11-18T12:31:39.000Z</time>
</trkpt>
<trkpt lat="45.8776740" lon="9.8407360">
	<ele>1107.40</ele>
	<time>2023-11-18T12:31:40.000Z</time>
</trkpt>
<trkpt lat="45.8776710" lon="9.8407490">
	<ele>1107.40</ele>
	<time>2023-11-18T12:31:41.000Z</time>
</trkpt>
<trkpt lat="45.8776650" lon="9.8407630">
	<ele>1107.20</ele>
	<time>2023-11-18T12:31:42.000Z</time>
</trkpt>
<trkpt lat="45.8776600" lon="9.8407750">
	<ele>1107.00</ele>
	<time>2023-11-18T12:31:43.000Z</time>
</trkpt>
<trkpt lat="45.8776530" lon="9.8407880">
	<ele>1107.00</ele>
	<time>2023-11-18T12:31:44.000Z</time>
</trkpt>
<trkpt lat="45.8776430" lon="9.8408020">
	<ele>1106.80</ele>
	<time>2023-11-18T12:31:45.000Z</time>
</trkpt>
<trkpt lat="45.8776380" lon="9.8408170">
	<ele>1106.80</ele>
	<time>2023-11-18T12:31:46.000Z</time>
</trkpt>
<trkpt lat="45.8776330" lon="9.8408260">
	<ele>1106.80</ele>
	<time>2023-11-18T12:31:47.000Z</time>
</trkpt>
<trkpt lat="45.8776270" lon="9.8408380">
	<ele>1106.80</ele>
	<time>2023-11-18T12:31:48.000Z</time>
</trkpt>
<trkpt lat="45.8776210" lon="9.8408470">
	<ele>1106.80</ele>
	<time>2023-11-18T12:31:49.000Z</time>
</trkpt>
<trkpt lat="45.8776130" lon="9.8408520">
	<ele>1106.80</ele>
	<time>2023-11-18T12:31:50.000Z</time>
</trkpt>
<trkpt lat="45.8776060" lon="9.8408530">
	<ele>1106.60</ele>
	<time>2023-11-18T12:31:51.000Z</time>
</trkpt>
<trkpt lat="45.8775990" lon="9.8408540">
	<ele>1106.60</ele>
	<time>2023-11-18T12:31:52.000Z</time>
</trkpt>
<trkpt lat="45.8775910" lon="9.8408590">
	<ele>1106.60</ele>
	<time>2023-11-18T12:31:53.000Z</time>
</trkpt>
<trkpt lat="45.8775820" lon="9.8408640">
	<ele>1106.40</ele>
	<time>2023-11-18T12:31:54.000Z</time>
</trkpt>
<trkpt lat="45.8775740" lon="9.8408700">
	<ele>1106.20</ele>
	<time>2023-11-18T12:31:55.000Z</time>
</trkpt>
<trkpt lat="45.8775650" lon="9.8408770">
	<ele>1106.00</ele>
	<time>2023-11-18T12:31:56.000Z</time>
</trkpt>
<trkpt lat="45.8775560" lon="9.8408820">
	<ele>1105.80</ele>
	<time>2023-11-18T12:31:57.000Z</time>
</trkpt>
<trkpt lat="45.8775470" lon="9.8408870">
	<ele>1105.60</ele>
	<time>2023-11-18T12:31:58.000Z</time>
</trkpt>
<trkpt lat="45.8775390" lon="9.8408930">
	<ele>1105.40</ele>
	<time>2023-11-18T12:31:59.000Z</time>
</trkpt>
<trkpt lat="45.8775300" lon="9.8409020">
	<ele>1105.20</ele>
	<time>2023-11-18T12:32:00.000Z</time>
</trkpt>
<trkpt lat="45.8775190" lon="9.8409130">
	<ele>1105.00</ele>
	<time>2023-11-18T12:32:01.000Z</time>
</trkpt>
<trkpt lat="45.8775070" lon="9.8409290">
	<ele>1104.80</ele>
	<time>2023-11-18T12:32:02.000Z</time>
</trkpt>
<trkpt lat="45.8774980" lon="9.8409450">
	<ele>1104.60</ele>
	<time>2023-11-18T12:32:03.000Z</time>
</trkpt>
<trkpt lat="45.8774910" lon="9.8409600">
	<ele>1104.40</ele>
	<time>2023-11-18T12:32:04.000Z</time>
</trkpt>
<trkpt lat="45.8774870" lon="9.8409710">
	<ele>1104.40</ele>
	<time>2023-11-18T12:32:05.000Z</time>
</trkpt>
<trkpt lat="45.8774780" lon="9.8409850">
	<ele>1104.20</ele>
	<time>2023-11-18T12:32:06.000Z</time>
</trkpt>
<trkpt lat="45.8774710" lon="9.8409980">
	<ele>1104.20</ele>
	<time>2023-11-18T12:32:07.000Z</time>
</trkpt>
<trkpt lat="45.8774640" lon="9.8410120">
	<ele>1104.00</ele>
	<time>2023-11-18T12:32:08.000Z</time>
</trkpt>
<trkpt lat="45.8774570" lon="9.8410250">
	<ele>1103.80</ele>
	<time>2023-11-18T12:32:09.000Z</time>
</trkpt>
<trkpt lat="45.8774490" lon="9.8410350">
	<ele>1103.80</ele>
	<time>2023-11-18T12:32:10.000Z</time>
</trkpt>
<trkpt lat="45.8774410" lon="9.8410430">
	<ele>1103.40</ele>
	<time>2023-11-18T12:32:11.000Z</time>
</trkpt>
<trkpt lat="45.8774340" lon="9.8410510">
	<ele>1103.20</ele>
	<time>2023-11-18T12:32:12.000Z</time>
</trkpt>
<trkpt lat="45.8774250" lon="9.8410620">
	<ele>1102.80</ele>
	<time>2023-11-18T12:32:13.000Z</time>
</trkpt>
<trkpt lat="45.8774200" lon="9.8410700">
	<ele>1102.60</ele>
	<time>2023-11-18T12:32:14.000Z</time>
</trkpt>
<trkpt lat="45.8774160" lon="9.8410770">
	<ele>1102.40</ele>
	<time>2023-11-18T12:32:15.000Z</time>
</trkpt>
<trkpt lat="45.8774110" lon="9.8410820">
	<ele>1102.40</ele>
	<time>2023-11-18T12:32:16.000Z</time>
</trkpt>
<trkpt lat="45.8774060" lon="9.8410880">
	<ele>1102.00</ele>
	<time>2023-11-18T12:32:17.000Z</time>
</trkpt>
<trkpt lat="45.8774000" lon="9.8410950">
	<ele>1101.80</ele>
	<time>2023-11-18T12:32:18.000Z</time>
</trkpt>
<trkpt lat="45.8773930" lon="9.8411020">
	<ele>1101.40</ele>
	<time>2023-11-18T12:32:19.000Z</time>
</trkpt>
<trkpt lat="45.8773890" lon="9.8411080">
	<ele>1101.20</ele>
	<time>2023-11-18T12:32:20.000Z</time>
</trkpt>
<trkpt lat="45.8773850" lon="9.8411130">
	<ele>1101.00</ele>
	<time>2023-11-18T12:32:21.000Z</time>
</trkpt>
<trkpt lat="45.8773810" lon="9.8411150">
	<ele>1101.00</ele>
	<time>2023-11-18T12:32:22.000Z</time>
</trkpt>
<trkpt lat="45.8773730" lon="9.8411160">
	<ele>1100.80</ele>
	<time>2023-11-18T12:32:23.000Z</time>
</trkpt>
<trkpt lat="45.8773670" lon="9.8411170">
	<ele>1100.60</ele>
	<time>2023-11-18T12:32:24.000Z</time>
</trkpt>
<trkpt lat="45.8773610" lon="9.8411220">
	<ele>1100.40</ele>
	<time>2023-11-18T12:32:25.000Z</time>
</trkpt>
<trkpt lat="45.8773540" lon="9.8411290">
	<ele>1100.20</ele>
	<time>2023-11-18T12:32:26.000Z</time>
</trkpt>
<trkpt lat="45.8773480" lon="9.8411390">
	<ele>1100.00</ele>
	<time>2023-11-18T12:32:27.000Z</time>
</trkpt>
<trkpt lat="45.8773490" lon="9.8411490">
	<ele>1099.80</ele>
	<time>2023-11-18T12:32:28.000Z</time>
</trkpt>
<trkpt lat="45.8773520" lon="9.8411560">
	<ele>1099.80</ele>
	<time>2023-11-18T12:32:29.000Z</time>
</trkpt>
<trkpt lat="45.8773540" lon="9.8411600">
	<ele>1099.60</ele>
	<time>2023-11-18T12:32:30.000Z</time>
</trkpt>
<trkpt lat="45.8773540" lon="9.8411600">
	<ele>1099.60</ele>
	<time>2023-11-18T12:32:31.000Z</time>
</trkpt>
<trkpt lat="45.8773550" lon="9.8411590">
	<ele>1099.60</ele>
	<time>2023-11-18T12:32:32.000Z</time>
</trkpt>
<trkpt lat="45.8773540" lon="9.8411580">
	<ele>1099.60</ele>
	<time>2023-11-18T12:32:33.000Z</time>
</trkpt>
<trkpt lat="45.8773560" lon="9.8411570">
	<ele>1099.60</ele>
	<time>2023-11-18T12:32:34.000Z</time>
</trkpt>
<trkpt lat="45.8773560" lon="9.8411570">
	<ele>1099.60</ele>
	<time>2023-11-18T12:32:35.000Z</time>
</trkpt>
<trkpt lat="45.8773560" lon="9.8411580">
	<ele>1099.40</ele>
	<time>2023-11-18T12:32:36.000Z</time>
</trkpt>
<trkpt lat="45.8773560" lon="9.8411590">
	<ele>1099.40</ele>
	<time>2023-11-18T12:32:37.000Z</time>
</trkpt>
<trkpt lat="45.8773570" lon="9.8411600">
	<ele>1099.40</ele>
	<time>2023-11-18T12:32:38.000Z</time>
</trkpt>
<trkpt lat="45.8773590" lon="9.8411590">
	<ele>1099.40</ele>
	<time>2023-11-18T12:32:39.000Z</time>
</trkpt>
<trkpt lat="45.8773610" lon="9.8411590">
	<ele>1099.40</ele>
	<time>2023-11-18T12:32:40.000Z</time>
</trkpt>
<trkpt lat="45.8773620" lon="9.8411580">
	<ele>1099.40</ele>
	<time>2023-11-18T12:32:41.000Z</time>
</trkpt>
<trkpt lat="45.8773640" lon="9.8411580">
	<ele>1099.40</ele>
	<time>2023-11-18T12:32:42.000Z</time>
</trkpt>
<trkpt lat="45.8773650" lon="9.8411560">
	<ele>1099.60</ele>
	<time>2023-11-18T12:32:43.000Z</time>
</trkpt>
<trkpt lat="45.8773670" lon="9.8411610">
	<ele>1099.80</ele>
	<time>2023-11-18T12:32:44.000Z</time>
</trkpt>
<trkpt lat="45.8773700" lon="9.8411610">
	<ele>1099.80</ele>
	<time>2023-11-18T12:32:45.000Z</time>
</trkpt>
<trkpt lat="45.8773710" lon="9.8411610">
	<ele>1099.80</ele>
	<time>2023-11-18T12:32:46.000Z</time>
</trkpt>
<trkpt lat="45.8773710" lon="9.8411610">
	<ele>1099.60</ele>
	<time>2023-11-18T12:32:47.000Z</time>
</trkpt>
<trkpt lat="45.8773750" lon="9.8411600">
	<ele>1099.60</ele>
	<time>2023-11-18T12:32:48.000Z</time>
</trkpt>
<trkpt lat="45.8773770" lon="9.8411590">
	<ele>1099.40</ele>
	<time>2023-11-18T12:32:49.000Z</time>
</trkpt>
<trkpt lat="45.8773760" lon="9.8411590">
	<ele>1099.40</ele>
	<time>2023-11-18T12:32:50.000Z</time>
</trkpt>
<trkpt lat="45.8773760" lon="9.8411590">
	<ele>1099.40</ele>
	<time>2023-11-18T12:32:51.000Z</time>
</trkpt>
<trkpt lat="45.8773760" lon="9.8411590">
	<ele>1099.40</ele>
	<time>2023-11-18T12:32:52.000Z</time>
</trkpt>
<trkpt lat="45.8773760" lon="9.8411590">
	<ele>1099.40</ele>
	<time>2023-11-18T12:32:53.000Z</time>
</trkpt>
<trkpt lat="45.8773760" lon="9.8411590">
	<ele>1099.40</ele>
	<time>2023-11-18T12:32:54.000Z</time>
</trkpt>
<trkpt lat="45.8773760" lon="9.8411590">
	<ele>1099.40</ele>
	<time>2023-11-18T12:32:55.000Z</time>
</trkpt>
<trkpt lat="45.8773760" lon="9.8411590">
	<ele>1099.40</ele>
	<time>2023-11-18T12:32:56.000Z</time>
</trkpt>
<trkpt lat="45.8773760" lon="9.8411590">
	<ele>1099.60</ele>
	<time>2023-11-18T12:32:57.000Z</time>
</trkpt>
<trkpt lat="45.8773760" lon="9.8411590">
	<ele>1099.60</ele>
	<time>2023-11-18T12:32:58.000Z</time>
</trkpt>
<trkpt lat="45.8773760" lon="9.8411590">
	<ele>1099.60</ele>
	<time>2023-11-18T12:32:59.000Z</time>
</trkpt>
<trkpt lat="45.8773750" lon="9.8411590">
	<ele>1099.60</ele>
	<time>2023-11-18T12:33:00.000Z</time>
</trkpt>
<trkpt lat="45.8773720" lon="9.8411590">
	<ele>1099.60</ele>
	<time>2023-11-18T12:33:01.000Z</time>
</trkpt>
<trkpt lat="45.8773710" lon="9.8411590">
	<ele>1099.60</ele>
	<time>2023-11-18T12:33:02.000Z</time>
</trkpt>
<trkpt lat="45.8773710" lon="9.8411590">
	<ele>1099.60</ele>
	<time>2023-11-18T12:33:03.000Z</time>
</trkpt>
<trkpt lat="45.8773700" lon="9.8411590">
	<ele>1099.60</ele>
	<time>2023-11-18T12:33:04.000Z</time>
</trkpt>
<trkpt lat="45.8773690" lon="9.8411590">
	<ele>1099.60</ele>
	<time>2023-11-18T12:33:05.000Z</time>
</trkpt>
<trkpt lat="45.8773690" lon="9.8411590">
	<ele>1099.60</ele>
	<time>2023-11-18T12:33:06.000Z</time>
</trkpt>
<trkpt lat="45.8773680" lon="9.8411590">
	<ele>1099.60</ele>
	<time>2023-11-18T12:33:07.000Z</time>
</trkpt>
<trkpt lat="45.8773680" lon="9.8411590">
	<ele>1099.40</ele>
	<time>2023-11-18T12:33:08.000Z</time>
</trkpt>
<trkpt lat="45.8773670" lon="9.8411590">
	<ele>1099.20</ele>
	<time>2023-11-18T12:33:09.000Z</time>
</trkpt>
<trkpt lat="45.8773640" lon="9.8411620">
	<ele>1099.00</ele>
	<time>2023-11-18T12:33:10.000Z</time>
</trkpt>
<trkpt lat="45.8773530" lon="9.8411790">
	<ele>1099.00</ele>
	<time>2023-11-18T12:33:11.000Z</time>
</trkpt>
<trkpt lat="45.8773460" lon="9.8411950">
	<ele>1099.00</ele>
	<time>2023-11-18T12:33:12.000Z</time>
</trkpt>
<trkpt lat="45.8773380" lon="9.8412130">
	<ele>1098.80</ele>
	<time>2023-11-18T12:33:13.000Z</time>
</trkpt>
<trkpt lat="45.8773280" lon="9.8412310">
	<ele>1098.60</ele>
	<time>2023-11-18T12:33:14.000Z</time>
</trkpt>
<trkpt lat="45.8773180" lon="9.8412480">
	<ele>1098.60</ele>
	<time>2023-11-18T12:33:15.000Z</time>
</trkpt>
<trkpt lat="45.8773040" lon="9.8412700">
	<ele>1098.40</ele>
	<time>2023-11-18T12:33:16.000Z</time>
</trkpt>
<trkpt lat="45.8772910" lon="9.8412870">
	<ele>1098.40</ele>
	<time>2023-11-18T12:33:17.000Z</time>
</trkpt>
<trkpt lat="45.8772830" lon="9.8412930">
	<ele>1098.40</ele>
	<time>2023-11-18T12:33:18.000Z</time>
</trkpt>
<trkpt lat="45.8772720" lon="9.8413060">
	<ele>1098.20</ele>
	<time>2023-11-18T12:33:19.000Z</time>
</trkpt>
<trkpt lat="45.8772700" lon="9.8413170">
	<ele>1098.20</ele>
	<time>2023-11-18T12:33:20.000Z</time>
</trkpt>
<trkpt lat="45.8772650" lon="9.8413310">
	<ele>1098.20</ele>
	<time>2023-11-18T12:33:21.000Z</time>
</trkpt>
<trkpt lat="45.8772550" lon="9.8413450">
	<ele>1098.00</ele>
	<time>2023-11-18T12:33:22.000Z</time>
</trkpt>
<trkpt lat="45.8772470" lon="9.8413570">
	<ele>1098.00</ele>
	<time>2023-11-18T12:33:23.000Z</time>
</trkpt>
<trkpt lat="45.8772430" lon="9.8413670">
	<ele>1098.00</ele>
	<time>2023-11-18T12:33:24.000Z</time>
</trkpt>
<trkpt lat="45.8772390" lon="9.8413770">
	<ele>1097.80</ele>
	<time>2023-11-18T12:33:25.000Z</time>
</trkpt>
<trkpt lat="45.8772330" lon="9.8413880">
	<ele>1097.80</ele>
	<time>2023-11-18T12:33:26.000Z</time>
</trkpt>
<trkpt lat="45.8772280" lon="9.8413970">
	<ele>1097.60</ele>
	<time>2023-11-18T12:33:27.000Z</time>
</trkpt>
<trkpt lat="45.8772220" lon="9.8414080">
	<ele>1097.60</ele>
	<time>2023-11-18T12:33:28.000Z</time>
</trkpt>
<trkpt lat="45.8772170" lon="9.8414210">
	<ele>1097.60</ele>
	<time>2023-11-18T12:33:29.000Z</time>
</trkpt>
<trkpt lat="45.8772080" lon="9.8414380">
	<ele>1097.60</ele>
	<time>2023-11-18T12:33:30.000Z</time>
</trkpt>
<trkpt lat="45.8771980" lon="9.8414510">
	<ele>1097.40</ele>
	<time>2023-11-18T12:33:31.000Z</time>
</trkpt>
<trkpt lat="45.8771900" lon="9.8414670">
	<ele>1097.40</ele>
	<time>2023-11-18T12:33:32.000Z</time>
</trkpt>
<trkpt lat="45.8771830" lon="9.8414820">
	<ele>1097.20</ele>
	<time>2023-11-18T12:33:33.000Z</time>
</trkpt>
<trkpt lat="45.8771810" lon="9.8414900">
	<ele>1097.20</ele>
	<time>2023-11-18T12:33:34.000Z</time>
</trkpt>
<trkpt lat="45.8771800" lon="9.8414970">
	<ele>1097.20</ele>
	<time>2023-11-18T12:33:35.000Z</time>
</trkpt>
<trkpt lat="45.8771730" lon="9.8415030">
	<ele>1097.00</ele>
	<time>2023-11-18T12:33:36.000Z</time>
</trkpt>
<trkpt lat="45.8771670" lon="9.8415130">
	<ele>1097.00</ele>
	<time>2023-11-18T12:33:37.000Z</time>
</trkpt>
<trkpt lat="45.8771610" lon="9.8415290">
	<ele>1097.00</ele>
	<time>2023-11-18T12:33:38.000Z</time>
</trkpt>
<trkpt lat="45.8771570" lon="9.8415420">
	<ele>1096.80</ele>
	<time>2023-11-18T12:33:39.000Z</time>
</trkpt>
<trkpt lat="45.8771480" lon="9.8415560">
	<ele>1096.80</ele>
	<time>2023-11-18T12:33:40.000Z</time>
</trkpt>
<trkpt lat="45.8771430" lon="9.8415680">
	<ele>1096.80</ele>
	<time>2023-11-18T12:33:41.000Z</time>
</trkpt>
<trkpt lat="45.8771380" lon="9.8415820">
	<ele>1096.60</ele>
	<time>2023-11-18T12:33:42.000Z</time>
</trkpt>
<trkpt lat="45.8771300" lon="9.8415930">
	<ele>1096.60</ele>
	<time>2023-11-18T12:33:43.000Z</time>
</trkpt>
<trkpt lat="45.8771240" lon="9.8416070">
	<ele>1096.40</ele>
	<time>2023-11-18T12:33:44.000Z</time>
</trkpt>
<trkpt lat="45.8771160" lon="9.8416220">
	<ele>1096.40</ele>
	<time>2023-11-18T12:33:45.000Z</time>
</trkpt>
<trkpt lat="45.8771090" lon="9.8416340">
	<ele>1096.40</ele>
	<time>2023-11-18T12:33:46.000Z</time>
</trkpt>
<trkpt lat="45.8771050" lon="9.8416460">
	<ele>1096.20</ele>
	<time>2023-11-18T12:33:47.000Z</time>
</trkpt>
<trkpt lat="45.8770990" lon="9.8416610">
	<ele>1096.20</ele>
	<time>2023-11-18T12:33:48.000Z</time>
</trkpt>
<trkpt lat="45.8770940" lon="9.8416720">
	<ele>1096.00</ele>
	<time>2023-11-18T12:33:49.000Z</time>
</trkpt>
<trkpt lat="45.8770880" lon="9.8416840">
	<ele>1095.80</ele>
	<time>2023-11-18T12:33:50.000Z</time>
</trkpt>
<trkpt lat="45.8770820" lon="9.8416970">
	<ele>1095.80</ele>
	<time>2023-11-18T12:33:51.000Z</time>
</trkpt>
<trkpt lat="45.8770800" lon="9.8417080">
	<ele>1095.80</ele>
	<time>2023-11-18T12:33:52.000Z</time>
</trkpt>
<trkpt lat="45.8770760" lon="9.8417220">
	<ele>1095.60</ele>
	<time>2023-11-18T12:33:53.000Z</time>
</trkpt>
<trkpt lat="45.8770720" lon="9.8417350">
	<ele>1095.60</ele>
	<time>2023-11-18T12:33:54.000Z</time>
</trkpt>
<trkpt lat="45.8770680" lon="9.8417470">
	<ele>1095.40</ele>
	<time>2023-11-18T12:33:55.000Z</time>
</trkpt>
<trkpt lat="45.8770640" lon="9.8417570">
	<ele>1095.20</ele>
	<time>2023-11-18T12:33:56.000Z</time>
</trkpt>
<trkpt lat="45.8770600" lon="9.8417680">
	<ele>1095.20</ele>
	<time>2023-11-18T12:33:57.000Z</time>
</trkpt>
<trkpt lat="45.8770550" lon="9.8417800">
	<ele>1095.00</ele>
	<time>2023-11-18T12:33:58.000Z</time>
</trkpt>
<trkpt lat="45.8770490" lon="9.8417950">
	<ele>1095.00</ele>
	<time>2023-11-18T12:33:59.000Z</time>
</trkpt>
<trkpt lat="45.8770420" lon="9.8418080">
	<ele>1095.00</ele>
	<time>2023-11-18T12:34:00.000Z</time>
</trkpt>
<trkpt lat="45.8770380" lon="9.8418190">
	<ele>1094.80</ele>
	<time>2023-11-18T12:34:01.000Z</time>
</trkpt>
<trkpt lat="45.8770350" lon="9.8418320">
	<ele>1094.80</ele>
	<time>2023-11-18T12:34:02.000Z</time>
</trkpt>
<trkpt lat="45.8770320" lon="9.8418480">
	<ele>1094.60</ele>
	<time>2023-11-18T12:34:03.000Z</time>
</trkpt>
<trkpt lat="45.8770270" lon="9.8418640">
	<ele>1094.40</ele>
	<time>2023-11-18T12:34:04.000Z</time>
</trkpt>
<trkpt lat="45.8770240" lon="9.8418780">
	<ele>1094.40</ele>
	<time>2023-11-18T12:34:05.000Z</time>
</trkpt>
<trkpt lat="45.8770190" lon="9.8418970">
	<ele>1094.20</ele>
	<time>2023-11-18T12:34:06.000Z</time>
</trkpt>
<trkpt lat="45.8770130" lon="9.8419080">
	<ele>1094.00</ele>
	<time>2023-11-18T12:34:07.000Z</time>
</trkpt>
<trkpt lat="45.8770080" lon="9.8419210">
	<ele>1094.00</ele>
	<time>2023-11-18T12:34:08.000Z</time>
</trkpt>
<trkpt lat="45.8770040" lon="9.8419320">
	<ele>1094.00</ele>
	<time>2023-11-18T12:34:09.000Z</time>
</trkpt>
<trkpt lat="45.8770000" lon="9.8419470">
	<ele>1093.80</ele>
	<time>2023-11-18T12:34:10.000Z</time>
</trkpt>
<trkpt lat="45.8769940" lon="9.8419630">
	<ele>1093.80</ele>
	<time>2023-11-18T12:34:11.000Z</time>
</trkpt>
<trkpt lat="45.8769870" lon="9.8419770">
	<ele>1093.80</ele>
	<time>2023-11-18T12:34:12.000Z</time>
</trkpt>
<trkpt lat="45.8769790" lon="9.8419900">
	<ele>1093.80</ele>
	<time>2023-11-18T12:34:13.000Z</time>
</trkpt>
<trkpt lat="45.8769710" lon="9.8420000">
	<ele>1093.60</ele>
	<time>2023-11-18T12:34:14.000Z</time>
</trkpt>
<trkpt lat="45.8769620" lon="9.8420120">
	<ele>1093.60</ele>
	<time>2023-11-18T12:34:15.000Z</time>
</trkpt>
<trkpt lat="45.8769520" lon="9.8420230">
	<ele>1093.60</ele>
	<time>2023-11-18T12:34:16.000Z</time>
</trkpt>
<trkpt lat="45.8769430" lon="9.8420360">
	<ele>1093.60</ele>
	<time>2023-11-18T12:34:17.000Z</time>
</trkpt>
<trkpt lat="45.8769340" lon="9.8420470">
	<ele>1093.60</ele>
	<time>2023-11-18T12:34:18.000Z</time>
</trkpt>
<trkpt lat="45.8769250" lon="9.8420560">
	<ele>1093.60</ele>
	<time>2023-11-18T12:34:19.000Z</time>
</trkpt>
<trkpt lat="45.8769150" lon="9.8420630">
	<ele>1093.60</ele>
	<time>2023-11-18T12:34:20.000Z</time>
</trkpt>
<trkpt lat="45.8769050" lon="9.8420660">
	<ele>1093.60</ele>
	<time>2023-11-18T12:34:21.000Z</time>
</trkpt>
<trkpt lat="45.8768910" lon="9.8420730">
	<ele>1093.60</ele>
	<time>2023-11-18T12:34:22.000Z</time>
</trkpt>
<trkpt lat="45.8768790" lon="9.8420820">
	<ele>1093.40</ele>
	<time>2023-11-18T12:34:23.000Z</time>
</trkpt>
<trkpt lat="45.8768660" lon="9.8420920">
	<ele>1093.40</ele>
	<time>2023-11-18T12:34:24.000Z</time>
</trkpt>
<trkpt lat="45.8768570" lon="9.8421010">
	<ele>1093.40</ele>
	<time>2023-11-18T12:34:25.000Z</time>
</trkpt>
<trkpt lat="45.8768470" lon="9.8421120">
	<ele>1093.20</ele>
	<time>2023-11-18T12:34:26.000Z</time>
</trkpt>
<trkpt lat="45.8768360" lon="9.8421210">
	<ele>1093.20</ele>
	<time>2023-11-18T12:34:27.000Z</time>
</trkpt>
<trkpt lat="45.8768230" lon="9.8421300">
	<ele>1093.00</ele>
	<time>2023-11-18T12:34:28.000Z</time>
</trkpt>
<trkpt lat="45.8768110" lon="9.8421380">
	<ele>1093.00</ele>
	<time>2023-11-18T12:34:29.000Z</time>
</trkpt>
<trkpt lat="45.8768030" lon="9.8421470">
	<ele>1092.80</ele>
	<time>2023-11-18T12:34:30.000Z</time>
</trkpt>
<trkpt lat="45.8767930" lon="9.8421530">
	<ele>1092.80</ele>
	<time>2023-11-18T12:34:31.000Z</time>
</trkpt>
<trkpt lat="45.8767850" lon="9.8421570">
	<ele>1092.80</ele>
	<time>2023-11-18T12:34:32.000Z</time>
</trkpt>
<trkpt lat="45.8767750" lon="9.8421670">
	<ele>1092.60</ele>
	<time>2023-11-18T12:34:33.000Z</time>
</trkpt>
<trkpt lat="45.8767660" lon="9.8421750">
	<ele>1092.60</ele>
	<time>2023-11-18T12:34:34.000Z</time>
</trkpt>
<trkpt lat="45.8767550" lon="9.8421840">
	<ele>1092.60</ele>
	<time>2023-11-18T12:34:35.000Z</time>
</trkpt>
<trkpt lat="45.8767450" lon="9.8421920">
	<ele>1092.40</ele>
	<time>2023-11-18T12:34:36.000Z</time>
</trkpt>
<trkpt lat="45.8767340" lon="9.8421980">
	<ele>1092.20</ele>
	<time>2023-11-18T12:34:37.000Z</time>
</trkpt>
<trkpt lat="45.8767210" lon="9.8422050">
	<ele>1092.20</ele>
	<time>2023-11-18T12:34:38.000Z</time>
</trkpt>
<trkpt lat="45.8767090" lon="9.8422120">
	<ele>1092.20</ele>
	<time>2023-11-18T12:34:39.000Z</time>
</trkpt>
<trkpt lat="45.8767010" lon="9.8422210">
	<ele>1092.00</ele>
	<time>2023-11-18T12:34:40.000Z</time>
</trkpt>
<trkpt lat="45.8766900" lon="9.8422350">
	<ele>1092.00</ele>
	<time>2023-11-18T12:34:41.000Z</time>
</trkpt>
<trkpt lat="45.8766790" lon="9.8422480">
	<ele>1091.80</ele>
	<time>2023-11-18T12:34:42.000Z</time>
</trkpt>
<trkpt lat="45.8766710" lon="9.8422590">
	<ele>1091.80</ele>
	<time>2023-11-18T12:34:43.000Z</time>
</trkpt>
<trkpt lat="45.8766650" lon="9.8422690">
	<ele>1091.60</ele>
	<time>2023-11-18T12:34:44.000Z</time>
</trkpt>
<trkpt lat="45.8766570" lon="9.8422790">
	<ele>1091.60</ele>
	<time>2023-11-18T12:34:45.000Z</time>
</trkpt>
<trkpt lat="45.8766520" lon="9.8422840">
	<ele>1091.40</ele>
	<time>2023-11-18T12:34:46.000Z</time>
</trkpt>
<trkpt lat="45.8766440" lon="9.8422910">
	<ele>1091.40</ele>
	<time>2023-11-18T12:34:47.000Z</time>
</trkpt>
<trkpt lat="45.8766330" lon="9.8422980">
	<ele>1091.20</ele>
	<time>2023-11-18T12:34:48.000Z</time>
</trkpt>
<trkpt lat="45.8766190" lon="9.8423080">
	<ele>1090.80</ele>
	<time>2023-11-18T12:34:49.000Z</time>
</trkpt>
<trkpt lat="45.8766070" lon="9.8423170">
	<ele>1090.80</ele>
	<time>2023-11-18T12:34:50.000Z</time>
</trkpt>
<trkpt lat="45.8765960" lon="9.8423290">
	<ele>1090.60</ele>
	<time>2023-11-18T12:34:51.000Z</time>
</trkpt>
<trkpt lat="45.8765840" lon="9.8423380">
	<ele>1090.40</ele>
	<time>2023-11-18T12:34:52.000Z</time>
</trkpt>
<trkpt lat="45.8765750" lon="9.8423490">
	<ele>1090.40</ele>
	<time>2023-11-18T12:34:53.000Z</time>
</trkpt>
<trkpt lat="45.8765660" lon="9.8423590">
	<ele>1090.20</ele>
	<time>2023-11-18T12:34:54.000Z</time>
</trkpt>
<trkpt lat="45.8765560" lon="9.8423700">
	<ele>1090.20</ele>
	<time>2023-11-18T12:34:55.000Z</time>
</trkpt>
<trkpt lat="45.8765490" lon="9.8423750">
	<ele>1090.00</ele>
	<time>2023-11-18T12:34:56.000Z</time>
</trkpt>
<trkpt lat="45.8765430" lon="9.8423850">
	<ele>1090.00</ele>
	<time>2023-11-18T12:34:57.000Z</time>
</trkpt>
<trkpt lat="45.8765350" lon="9.8423980">
	<ele>1090.00</ele>
	<time>2023-11-18T12:34:58.000Z</time>
</trkpt>
<trkpt lat="45.8765260" lon="9.8424070">
	<ele>1089.80</ele>
	<time>2023-11-18T12:34:59.000Z</time>
</trkpt>
<trkpt lat="45.8765190" lon="9.8424170">
	<ele>1089.80</ele>
	<time>2023-11-18T12:35:00.000Z</time>
</trkpt>
<trkpt lat="45.8765090" lon="9.8424260">
	<ele>1089.80</ele>
	<time>2023-11-18T12:35:01.000Z</time>
</trkpt>
<trkpt lat="45.8764990" lon="9.8424370">
	<ele>1089.80</ele>
	<time>2023-11-18T12:35:02.000Z</time>
</trkpt>
<trkpt lat="45.8764880" lon="9.8424490">
	<ele>1090.00</ele>
	<time>2023-11-18T12:35:03.000Z</time>
</trkpt>
<trkpt lat="45.8764770" lon="9.8424640">
	<ele>1090.00</ele>
	<time>2023-11-18T12:35:04.000Z</time>
</trkpt>
<trkpt lat="45.8764690" lon="9.8424760">
	<ele>1090.00</ele>
	<time>2023-11-18T12:35:05.000Z</time>
</trkpt>
<trkpt lat="45.8764620" lon="9.8424850">
	<ele>1091.60</ele>
	<time>2023-11-18T12:35:06.000Z</time>
</trkpt>
<trkpt lat="45.8764550" lon="9.8424950">
	<ele>1091.60</ele>
	<time>2023-11-18T12:35:07.000Z</time>
</trkpt>
<trkpt lat="45.8764450" lon="9.8425030">
	<ele>1091.60</ele>
	<time>2023-11-18T12:35:08.000Z</time>
</trkpt>
<trkpt lat="45.8764310" lon="9.8425080">
	<ele>1091.60</ele>
	<time>2023-11-18T12:35:09.000Z</time>
</trkpt>
<trkpt lat="45.8764170" lon="9.8425120">
	<ele>1091.60</ele>
	<time>2023-11-18T12:35:10.000Z</time>
</trkpt>
<trkpt lat="45.8764080" lon="9.8425180">
	<ele>1091.60</ele>
	<time>2023-11-18T12:35:11.000Z</time>
</trkpt>
<trkpt lat="45.8763990" lon="9.8425270">
	<ele>1091.60</ele>
	<time>2023-11-18T12:35:12.000Z</time>
</trkpt>
<trkpt lat="45.8763900" lon="9.8425310">
	<ele>1091.40</ele>
	<time>2023-11-18T12:35:13.000Z</time>
</trkpt>
<trkpt lat="45.8763800" lon="9.8425360">
	<ele>1091.40</ele>
	<time>2023-11-18T12:35:14.000Z</time>
</trkpt>
<trkpt lat="45.8763720" lon="9.8425330">
	<ele>1091.40</ele>
	<time>2023-11-18T12:35:15.000Z</time>
</trkpt>
<trkpt lat="45.8763640" lon="9.8425330">
	<ele>1091.40</ele>
	<time>2023-11-18T12:35:16.000Z</time>
</trkpt>
<trkpt lat="45.8763560" lon="9.8425340">
	<ele>1091.40</ele>
	<time>2023-11-18T12:35:17.000Z</time>
</trkpt>
<trkpt lat="45.8763500" lon="9.8425350">
	<ele>1091.40</ele>
	<time>2023-11-18T12:35:18.000Z</time>
</trkpt>
<trkpt lat="45.8763440" lon="9.8425330">
	<ele>1091.40</ele>
	<time>2023-11-18T12:35:19.000Z</time>
</trkpt>
<trkpt lat="45.8763390" lon="9.8425340">
	<ele>1091.40</ele>
	<time>2023-11-18T12:35:20.000Z</time>
</trkpt>
<trkpt lat="45.8763370" lon="9.8425350">
	<ele>1091.40</ele>
	<time>2023-11-18T12:35:21.000Z</time>
</trkpt>
<trkpt lat="45.8763370" lon="9.8425380">
	<ele>1091.40</ele>
	<time>2023-11-18T12:35:22.000Z</time>
</trkpt>
<trkpt lat="45.8763380" lon="9.8425400">
	<ele>1091.40</ele>
	<time>2023-11-18T12:35:23.000Z</time>
</trkpt>
<trkpt lat="45.8763360" lon="9.8425430">
	<ele>1091.40</ele>
	<time>2023-11-18T12:35:24.000Z</time>
</trkpt>
<trkpt lat="45.8763370" lon="9.8425420">
	<ele>1091.20</ele>
	<time>2023-11-18T12:35:25.000Z</time>
</trkpt>
<trkpt lat="45.8763420" lon="9.8425440">
	<ele>1091.20</ele>
	<time>2023-11-18T12:35:26.000Z</time>
</trkpt>
<trkpt lat="45.8763500" lon="9.8425430">
	<ele>1091.20</ele>
	<time>2023-11-18T12:35:27.000Z</time>
</trkpt>
<trkpt lat="45.8763520" lon="9.8425490">
	<ele>1091.40</ele>
	<time>2023-11-18T12:35:28.000Z</time>
</trkpt>
<trkpt lat="45.8763500" lon="9.8425500">
	<ele>1091.40</ele>
	<time>2023-11-18T12:35:29.000Z</time>
</trkpt>
<trkpt lat="45.8763480" lon="9.8425520">
	<ele>1091.40</ele>
	<time>2023-11-18T12:35:30.000Z</time>
</trkpt>
<trkpt lat="45.8763450" lon="9.8425500">
	<ele>1091.60</ele>
	<time>2023-11-18T12:35:31.000Z</time>
</trkpt>
<trkpt lat="45.8763400" lon="9.8425500">
	<ele>1091.60</ele>
	<time>2023-11-18T12:35:32.000Z</time>
</trkpt>
<trkpt lat="45.8763380" lon="9.8425430">
	<ele>1091.60</ele>
	<time>2023-11-18T12:35:33.000Z</time>
</trkpt>
<trkpt lat="45.8763370" lon="9.8425410">
	<ele>1091.60</ele>
	<time>2023-11-18T12:35:34.000Z</time>
</trkpt>
<trkpt lat="45.8763390" lon="9.8425420">
	<ele>1091.60</ele>
	<time>2023-11-18T12:35:35.000Z</time>
</trkpt>
<trkpt lat="45.8763400" lon="9.8425490">
	<ele>1091.60</ele>
	<time>2023-11-18T12:35:36.000Z</time>
</trkpt>
<trkpt lat="45.8763420" lon="9.8425420">
	<ele>1091.60</ele>
	<time>2023-11-18T12:35:37.000Z</time>
</trkpt>
<trkpt lat="45.8763400" lon="9.8425410">
	<ele>1091.60</ele>
	<time>2023-11-18T12:35:38.000Z</time>
</trkpt>
<trkpt lat="45.8763400" lon="9.8425410">
	<ele>1091.60</ele>
	<time>2023-11-18T12:35:39.000Z</time>
</trkpt>
<trkpt lat="45.8763400" lon="9.8425410">
	<ele>1091.60</ele>
	<time>2023-11-18T12:35:40.000Z</time>
</trkpt>
<trkpt lat="45.8763400" lon="9.8425410">
	<ele>1091.60</ele>
	<time>2023-11-18T12:35:41.000Z</time>
</trkpt>
<trkpt lat="45.8763400" lon="9.8425410">
	<ele>1091.60</ele>
	<time>2023-11-18T12:35:42.000Z</time>
</trkpt>
<trkpt lat="45.8763400" lon="9.8425410">
	<ele>1091.40</ele>
	<time>2023-11-18T12:35:43.000Z</time>
</trkpt>
<trkpt lat="45.8763400" lon="9.8425410">
	<ele>1091.60</ele>
	<time>2023-11-18T12:35:44.000Z</time>
</trkpt>
<trkpt lat="45.8763400" lon="9.8425410">
	<ele>1091.40</ele>
	<time>2023-11-18T12:35:45.000Z</time>
</trkpt>
<trkpt lat="45.8763400" lon="9.8425410">
	<ele>1091.40</ele>
	<time>2023-11-18T12:35:46.000Z</time>
</trkpt>
<trkpt lat="45.8763400" lon="9.8425410">
	<ele>1091.40</ele>
	<time>2023-11-18T12:35:47.000Z</time>
</trkpt>
<trkpt lat="45.8763400" lon="9.8425410">
	<ele>1091.40</ele>
	<time>2023-11-18T12:35:48.000Z</time>
</trkpt>
<trkpt lat="45.8763400" lon="9.8425410">
	<ele>1091.40</ele>
	<time>2023-11-18T12:35:49.000Z</time>
</trkpt>
<trkpt lat="45.8763400" lon="9.8425410">
	<ele>1091.40</ele>
	<time>2023-11-18T12:35:50.000Z</time>
</trkpt>
<trkpt lat="45.8763400" lon="9.8425410">
	<ele>1091.40</ele>
	<time>2023-11-18T12:35:51.000Z</time>
</trkpt>
<trkpt lat="45.8763400" lon="9.8425410">
	<ele>1091.40</ele>
	<time>2023-11-18T12:35:52.000Z</time>
</trkpt>
<trkpt lat="45.8763400" lon="9.8425410">
	<ele>1091.40</ele>
	<time>2023-11-18T12:35:53.000Z</time>
</trkpt>
<trkpt lat="45.8763400" lon="9.8425370">
	<ele>1091.40</ele>
	<time>2023-11-18T12:35:54.000Z</time>
</trkpt>
<trkpt lat="45.8763400" lon="9.8425370">
	<ele>1091.40</ele>
	<time>2023-11-18T12:35:55.000Z</time>
</trkpt>
<trkpt lat="45.8763400" lon="9.8425370">
	<ele>1091.40</ele>
	<time>2023-11-18T12:35:56.000Z</time>
</trkpt>
<trkpt lat="45.8763400" lon="9.8425370">
	<ele>1091.40</ele>
	<time>2023-11-18T12:35:57.000Z</time>
</trkpt>
<trkpt lat="45.8763400" lon="9.8425370">
	<ele>1091.40</ele>
	<time>2023-11-18T12:35:58.000Z</time>
</trkpt>
<trkpt lat="45.8763390" lon="9.8425370">
	<ele>1091.20</ele>
	<time>2023-11-18T12:35:59.000Z</time>
</trkpt>
<trkpt lat="45.8763390" lon="9.8425370">
	<ele>1091.20</ele>
	<time>2023-11-18T12:36:00.000Z</time>
</trkpt>
<trkpt lat="45.8763380" lon="9.8425370">
	<ele>1091.20</ele>
	<time>2023-11-18T12:36:01.000Z</time>
</trkpt>
<trkpt lat="45.8763380" lon="9.8425370">
	<ele>1091.20</ele>
	<time>2023-11-18T12:36:02.000Z</time>
</trkpt>
<trkpt lat="45.8763380" lon="9.8425370">
	<ele>1091.40</ele>
	<time>2023-11-18T12:36:03.000Z</time>
</trkpt>
<trkpt lat="45.8763380" lon="9.8425370">
	<ele>1091.60</ele>
	<time>2023-11-18T12:36:04.000Z</time>
</trkpt>
<trkpt lat="45.8763370" lon="9.8425370">
	<ele>1091.60</ele>
	<time>2023-11-18T12:36:05.000Z</time>
</trkpt>
<trkpt lat="45.8763370" lon="9.8425360">
	<ele>1091.60</ele>
	<time>2023-11-18T12:36:06.000Z</time>
</trkpt>
<trkpt lat="45.8763360" lon="9.8425360">
	<ele>1091.60</ele>
	<time>2023-11-18T12:36:07.000Z</time>
</trkpt>
<trkpt lat="45.8763360" lon="9.8425360">
	<ele>1091.60</ele>
	<time>2023-11-18T12:36:08.000Z</time>
</trkpt>
<trkpt lat="45.8763330" lon="9.8425360">
	<ele>1091.60</ele>
	<time>2023-11-18T12:36:09.000Z</time>
</trkpt>
<trkpt lat="45.8763330" lon="9.8425370">
	<ele>1091.60</ele>
	<time>2023-11-18T12:36:10.000Z</time>
</trkpt>
<trkpt lat="45.8763330" lon="9.8425370">
	<ele>1091.80</ele>
	<time>2023-11-18T12:36:11.000Z</time>
</trkpt>
<trkpt lat="45.8763320" lon="9.8425370">
	<ele>1091.80</ele>
	<time>2023-11-18T12:36:12.000Z</time>
</trkpt>
<trkpt lat="45.8763320" lon="9.8425370">
	<ele>1091.80</ele>
	<time>2023-11-18T12:36:13.000Z</time>
</trkpt>
<trkpt lat="45.8763320" lon="9.8425370">
	<ele>1091.80</ele>
	<time>2023-11-18T12:36:14.000Z</time>
</trkpt>
<trkpt lat="45.8763310" lon="9.8425370">
	<ele>1091.80</ele>
	<time>2023-11-18T12:36:15.000Z</time>
</trkpt>
<trkpt lat="45.8763310" lon="9.8425370">
	<ele>1091.80</ele>
	<time>2023-11-18T12:36:16.000Z</time>
</trkpt>
<trkpt lat="45.8763300" lon="9.8425370">
	<ele>1091.80</ele>
	<time>2023-11-18T12:36:17.000Z</time>
</trkpt>
<trkpt lat="45.8763300" lon="9.8425370">
	<ele>1091.80</ele>
	<time>2023-11-18T12:36:18.000Z</time>
</trkpt>
<trkpt lat="45.8763300" lon="9.8425370">
	<ele>1091.80</ele>
	<time>2023-11-18T12:36:19.000Z</time>
</trkpt>
<trkpt lat="45.8763300" lon="9.8425370">
	<ele>1091.80</ele>
	<time>2023-11-18T12:36:20.000Z</time>
</trkpt>
<trkpt lat="45.8763290" lon="9.8425370">
	<ele>1091.80</ele>
	<time>2023-11-18T12:36:21.000Z</time>
</trkpt>
<trkpt lat="45.8763280" lon="9.8425370">
	<ele>1091.80</ele>
	<time>2023-11-18T12:36:22.000Z</time>
</trkpt>
<trkpt lat="45.8763280" lon="9.8425370">
	<ele>1091.80</ele>
	<time>2023-11-18T12:36:23.000Z</time>
</trkpt>
<trkpt lat="45.8763270" lon="9.8425370">
	<ele>1091.80</ele>
	<time>2023-11-18T12:36:24.000Z</time>
</trkpt>
<trkpt lat="45.8763260" lon="9.8425370">
	<ele>1092.00</ele>
	<time>2023-11-18T12:36:25.000Z</time>
</trkpt>
<trkpt lat="45.8763260" lon="9.8425370">
	<ele>1092.00</ele>
	<time>2023-11-18T12:36:26.000Z</time>
</trkpt>
<trkpt lat="45.8763260" lon="9.8425360">
	<ele>1092.00</ele>
	<time>2023-11-18T12:36:27.000Z</time>
</trkpt>
<trkpt lat="45.8763260" lon="9.8425350">
	<ele>1092.00</ele>
	<time>2023-11-18T12:36:28.000Z</time>
</trkpt>
<trkpt lat="45.8763260" lon="9.8425350">
	<ele>1092.00</ele>
	<time>2023-11-18T12:36:29.000Z</time>
</trkpt>
<trkpt lat="45.8763260" lon="9.8425340">
	<ele>1092.00</ele>
	<time>2023-11-18T12:36:30.000Z</time>
</trkpt>
<trkpt lat="45.8763250" lon="9.8425340">
	<ele>1092.00</ele>
	<time>2023-11-18T12:36:31.000Z</time>
</trkpt>
<trkpt lat="45.8763250" lon="9.8425340">
	<ele>1092.00</ele>
	<time>2023-11-18T12:36:32.000Z</time>
</trkpt>
<trkpt lat="45.8763250" lon="9.8425340">
	<ele>1092.00</ele>
	<time>2023-11-18T12:36:33.000Z</time>
</trkpt>
<trkpt lat="45.8763250" lon="9.8425330">
	<ele>1092.00</ele>
	<time>2023-11-18T12:36:34.000Z</time>
</trkpt>
<trkpt lat="45.8763250" lon="9.8425330">
	<ele>1092.00</ele>
	<time>2023-11-18T12:36:35.000Z</time>
</trkpt>
<trkpt lat="45.8763250" lon="9.8425330">
	<ele>1092.00</ele>
	<time>2023-11-18T12:36:36.000Z</time>
</trkpt>
<trkpt lat="45.8763250" lon="9.8425320">
	<ele>1092.00</ele>
	<time>2023-11-18T12:36:37.000Z</time>
</trkpt>
<trkpt lat="45.8763250" lon="9.8425320">
	<ele>1092.00</ele>
	<time>2023-11-18T12:36:38.000Z</time>
</trkpt>
<trkpt lat="45.8763240" lon="9.8425310">
	<ele>1092.00</ele>
	<time>2023-11-18T12:36:39.000Z</time>
</trkpt>
<trkpt lat="45.8763240" lon="9.8425310">
	<ele>1092.00</ele>
	<time>2023-11-18T12:36:40.000Z</time>
</trkpt>
<trkpt lat="45.8763240" lon="9.8425310">
	<ele>1092.00</ele>
	<time>2023-11-18T12:36:41.000Z</time>
</trkpt>
<trkpt lat="45.8763240" lon="9.8425310">
	<ele>1092.00</ele>
	<time>2023-11-18T12:36:42.000Z</time>
</trkpt>
<trkpt lat="45.8763230" lon="9.8425310">
	<ele>1092.00</ele>
	<time>2023-11-18T12:36:43.000Z</time>
</trkpt>
<trkpt lat="45.8763230" lon="9.8425310">
	<ele>1092.00</ele>
	<time>2023-11-18T12:36:44.000Z</time>
</trkpt>
<trkpt lat="45.8763230" lon="9.8425310">
	<ele>1092.00</ele>
	<time>2023-11-18T12:36:45.000Z</time>
</trkpt>
<trkpt lat="45.8763230" lon="9.8425310">
	<ele>1092.00</ele>
	<time>2023-11-18T12:36:46.000Z</time>
</trkpt>
<trkpt lat="45.8763230" lon="9.8425310">
	<ele>1092.20</ele>
	<time>2023-11-18T12:36:47.000Z</time>
</trkpt>
<trkpt lat="45.8763230" lon="9.8425310">
	<ele>1092.20</ele>
	<time>2023-11-18T12:36:48.000Z</time>
</trkpt>
<trkpt lat="45.8763230" lon="9.8425310">
	<ele>1092.20</ele>
	<time>2023-11-18T12:36:49.000Z</time>
</trkpt>
<trkpt lat="45.8763240" lon="9.8425310">
	<ele>1092.20</ele>
	<time>2023-11-18T12:36:50.000Z</time>
</trkpt>
<trkpt lat="45.8763240" lon="9.8425310">
	<ele>1092.20</ele>
	<time>2023-11-18T12:36:51.000Z</time>
</trkpt>
<trkpt lat="45.8763240" lon="9.8425310">
	<ele>1092.20</ele>
	<time>2023-11-18T12:36:52.000Z</time>
</trkpt>
<trkpt lat="45.8763240" lon="9.8425310">
	<ele>1092.20</ele>
	<time>2023-11-18T12:36:53.000Z</time>
</trkpt>
<trkpt lat="45.8763240" lon="9.8425310">
	<ele>1092.20</ele>
	<time>2023-11-18T12:36:54.000Z</time>
</trkpt>
<trkpt lat="45.8763240" lon="9.8425310">
	<ele>1092.20</ele>
	<time>2023-11-18T12:36:55.000Z</time>
</trkpt>
<trkpt lat="45.8763250" lon="9.8425320">
	<ele>1092.00</ele>
	<time>2023-11-18T12:36:56.000Z</time>
</trkpt>
<trkpt lat="45.8763250" lon="9.8425320">
	<ele>1092.00</ele>
	<time>2023-11-18T12:36:57.000Z</time>
</trkpt>
<trkpt lat="45.8763260" lon="9.8425320">
	<ele>1092.00</ele>
	<time>2023-11-18T12:36:58.000Z</time>
</trkpt>
<trkpt lat="45.8763260" lon="9.8425320">
	<ele>1092.00</ele>
	<time>2023-11-18T12:36:59.000Z</time>
</trkpt>
<trkpt lat="45.8763260" lon="9.8425320">
	<ele>1092.00</ele>
	<time>2023-11-18T12:37:00.000Z</time>
</trkpt>
<trkpt lat="45.8763260" lon="9.8425330">
	<ele>1092.00</ele>
	<time>2023-11-18T12:37:01.000Z</time>
</trkpt>
<trkpt lat="45.8763260" lon="9.8425330">
	<ele>1092.00</ele>
	<time>2023-11-18T12:37:02.000Z</time>
</trkpt>
<trkpt lat="45.8763270" lon="9.8425330">
	<ele>1092.20</ele>
	<time>2023-11-18T12:37:03.000Z</time>
</trkpt>
<trkpt lat="45.8763270" lon="9.8425330">
	<ele>1092.20</ele>
	<time>2023-11-18T12:37:04.000Z</time>
</trkpt>
<trkpt lat="45.8763280" lon="9.8425330">
	<ele>1092.20</ele>
	<time>2023-11-18T12:37:05.000Z</time>
</trkpt>
<trkpt lat="45.8763290" lon="9.8425330">
	<ele>1092.20</ele>
	<time>2023-11-18T12:37:06.000Z</time>
</trkpt>
<trkpt lat="45.8763290" lon="9.8425340">
	<ele>1092.20</ele>
	<time>2023-11-18T12:37:07.000Z</time>
</trkpt>
<trkpt lat="45.8763290" lon="9.8425340">
	<ele>1092.20</ele>
	<time>2023-11-18T12:37:08.000Z</time>
</trkpt>
<trkpt lat="45.8763290" lon="9.8425340">
	<ele>1092.00</ele>
	<time>2023-11-18T12:37:09.000Z</time>
</trkpt>
<trkpt lat="45.8763290" lon="9.8425340">
	<ele>1092.00</ele>
	<time>2023-11-18T12:37:10.000Z</time>
</trkpt>
<trkpt lat="45.8763290" lon="9.8425360">
	<ele>1092.00</ele>
	<time>2023-11-18T12:37:11.000Z</time>
</trkpt>
<trkpt lat="45.8763290" lon="9.8425370">
	<ele>1092.00</ele>
	<time>2023-11-18T12:37:12.000Z</time>
</trkpt>
<trkpt lat="45.8763300" lon="9.8425380">
	<ele>1092.00</ele>
	<time>2023-11-18T12:37:13.000Z</time>
</trkpt>
<trkpt lat="45.8763300" lon="9.8425390">
	<ele>1092.00</ele>
	<time>2023-11-18T12:37:14.000Z</time>
</trkpt>
<trkpt lat="45.8763300" lon="9.8425390">
	<ele>1092.00</ele>
	<time>2023-11-18T12:37:15.000Z</time>
</trkpt>
<trkpt lat="45.8763300" lon="9.8425400">
	<ele>1091.80</ele>
	<time>2023-11-18T12:37:16.000Z</time>
</trkpt>
<trkpt lat="45.8763300" lon="9.8425400">
	<ele>1091.80</ele>
	<time>2023-11-18T12:37:17.000Z</time>
</trkpt>
<trkpt lat="45.8763300" lon="9.8425400">
	<ele>1091.80</ele>
	<time>2023-11-18T12:37:18.000Z</time>
</trkpt>
<trkpt lat="45.8763300" lon="9.8425400">
	<ele>1091.80</ele>
	<time>2023-11-18T12:37:19.000Z</time>
</trkpt>
<trkpt lat="45.8763270" lon="9.8425410">
	<ele>1091.80</ele>
	<time>2023-11-18T12:37:20.000Z</time>
</trkpt>
<trkpt lat="45.8763210" lon="9.8425430">
	<ele>1091.80</ele>
	<time>2023-11-18T12:37:21.000Z</time>
</trkpt>
<trkpt lat="45.8763180" lon="9.8425450">
	<ele>1091.80</ele>
	<time>2023-11-18T12:37:22.000Z</time>
</trkpt>
<trkpt lat="45.8763150" lon="9.8425470">
	<ele>1091.80</ele>
	<time>2023-11-18T12:37:23.000Z</time>
</trkpt>
<trkpt lat="45.8763130" lon="9.8425490">
	<ele>1092.00</ele>
	<time>2023-11-18T12:37:24.000Z</time>
</trkpt>
<trkpt lat="45.8763100" lon="9.8425500">
	<ele>1092.00</ele>
	<time>2023-11-18T12:37:25.000Z</time>
</trkpt>
<trkpt lat="45.8763070" lon="9.8425510">
	<ele>1092.00</ele>
	<time>2023-11-18T12:37:26.000Z</time>
</trkpt>
<trkpt lat="45.8763050" lon="9.8425520">
	<ele>1092.20</ele>
	<time>2023-11-18T12:37:27.000Z</time>
</trkpt>
<trkpt lat="45.8763040" lon="9.8425520">
	<ele>1092.40</ele>
	<time>2023-11-18T12:37:28.000Z</time>
</trkpt>
<trkpt lat="45.8763040" lon="9.8425520">
	<ele>1092.40</ele>
	<time>2023-11-18T12:37:29.000Z</time>
</trkpt>
<trkpt lat="45.8763030" lon="9.8425520">
	<ele>1092.40</ele>
	<time>2023-11-18T12:37:30.000Z</time>
</trkpt>
<trkpt lat="45.8763030" lon="9.8425530">
	<ele>1092.40</ele>
	<time>2023-11-18T12:37:31.000Z</time>
</trkpt>
<trkpt lat="45.8763020" lon="9.8425530">
	<ele>1092.40</ele>
	<time>2023-11-18T12:37:32.000Z</time>
</trkpt>
<trkpt lat="45.8763020" lon="9.8425530">
	<ele>1092.40</ele>
	<time>2023-11-18T12:37:33.000Z</time>
</trkpt>
<trkpt lat="45.8763020" lon="9.8425540">
	<ele>1092.40</ele>
	<time>2023-11-18T12:37:34.000Z</time>
</trkpt>
<trkpt lat="45.8763010" lon="9.8425540">
	<ele>1092.40</ele>
	<time>2023-11-18T12:37:35.000Z</time>
</trkpt>
<trkpt lat="45.8763000" lon="9.8425560">
	<ele>1092.40</ele>
	<time>2023-11-18T12:37:36.000Z</time>
</trkpt>
<trkpt lat="45.8763000" lon="9.8425580">
	<ele>1092.40</ele>
	<time>2023-11-18T12:37:37.000Z</time>
</trkpt>
<trkpt lat="45.8763000" lon="9.8425610">
	<ele>1092.20</ele>
	<time>2023-11-18T12:37:38.000Z</time>
</trkpt>
<trkpt lat="45.8762990" lon="9.8425620">
	<ele>1092.00</ele>
	<time>2023-11-18T12:37:39.000Z</time>
</trkpt>
<trkpt lat="45.8762990" lon="9.8425630">
	<ele>1091.80</ele>
	<time>2023-11-18T12:37:40.000Z</time>
</trkpt>
<trkpt lat="45.8762980" lon="9.8425630">
	<ele>1091.60</ele>
	<time>2023-11-18T12:37:41.000Z</time>
</trkpt>
<trkpt lat="45.8762980" lon="9.8425640">
	<ele>1091.60</ele>
	<time>2023-11-18T12:37:42.000Z</time>
</trkpt>
<trkpt lat="45.8762980" lon="9.8425640">
	<ele>1091.60</ele>
	<time>2023-11-18T12:37:43.000Z</time>
</trkpt>
<trkpt lat="45.8762980" lon="9.8425640">
	<ele>1091.80</ele>
	<time>2023-11-18T12:37:44.000Z</time>
</trkpt>
</trkseg>
</trk>
</gpx>
